<?xml version='1.0' encoding='UTF-8'?><gpx version="1.1" creator="JPX - https://github.com/jenetics/jpx" xmlns="http://www.topografix.com/GPX/1/1"><trk><trkseg><trkpt lat="42.52139448641394" lon="11.280078792408432"><ele>7.999999999999999</ele><time>2026-04-12T14:04:44.999Z</time></trkpt><trkpt lat="42.5213458284416" lon="11.279969902561941"><ele>8.0</ele><time>2026-04-12T14:04:46.999Z</time></trkpt><trkpt lat="42.52126682660927" lon="11.279964175427354"><ele>8.0</ele><time>2026-04-12T14:04:48.999Z</time></trkpt><trkpt lat="42.5211843345044" lon="11.279950307550692"><ele>8.0</ele><time>2026-04-12T14:04:51Z</time></trkpt><trkpt lat="42.52110747144902" lon="11.279980730914394"><ele>7.999999999999999</ele><time>2026-04-12T14:05:13Z</time></trkpt><trkpt lat="42.52108857001139" lon="11.28011697167374"><ele>8.0</ele><time>2026-04-12T14:05:15Z</time></trkpt><trkpt lat="42.521112718692706" lon="11.280231769790692"><ele>8.0</ele><time>2026-04-12T14:05:16Z</time></trkpt><trkpt lat="42.52114311158794" lon="11.280352113048318"><ele>8.0</ele><time>2026-04-12T14:05:17Z</time></trkpt><trkpt lat="42.521180758641094" lon="11.280493972297839"><ele>8.0</ele><time>2026-04-12T14:05:18Z</time></trkpt><trkpt lat="42.521210429952546" lon="11.28065022037093"><ele>8.0</ele><time>2026-04-12T14:05:19Z</time></trkpt><trkpt lat="42.52124927926599" lon="11.280814883410024"><ele>8.0</ele><time>2026-04-12T14:05:20Z</time></trkpt><trkpt lat="42.52129301931722" lon="11.280987224395862"><ele>8.0</ele><time>2026-04-12T14:05:21Z</time></trkpt><trkpt lat="42.52133982370112" lon="11.281172616645081"><ele>8.0</ele><time>2026-04-12T14:05:22Z</time></trkpt><trkpt lat="42.52138545762717" lon="11.281374712142188"><ele>8.0</ele><time>2026-04-12T14:05:23Z</time></trkpt><trkpt lat="42.52143354487004" lon="11.28157770573916"><ele>8.0</ele><time>2026-04-12T14:05:24Z</time></trkpt><trkpt lat="42.52148569506733" lon="11.281787941896075"><ele>8.0</ele><time>2026-04-12T14:05:25Z</time></trkpt><trkpt lat="42.521539484592466" lon="11.282007835857796"><ele>8.0</ele><time>2026-04-12T14:05:26Z</time></trkpt><trkpt lat="42.52159049851354" lon="11.282229248021844"><ele>8.666666666666666</ele><time>2026-04-12T14:05:27Z</time></trkpt><trkpt lat="42.52163987561126" lon="11.282446734135437"><ele>9.333333333333334</ele><time>2026-04-12T14:05:28Z</time></trkpt><trkpt lat="42.52169231820172" lon="11.282658920925686"><ele>10.0</ele><time>2026-04-12T14:05:29Z</time></trkpt><trkpt lat="42.52174775972867" lon="11.28286644840429"><ele>10.0</ele><time>2026-04-12T14:05:30Z</time></trkpt><trkpt lat="42.52179541247781" lon="11.283075327460441"><ele>10.0</ele><time>2026-04-12T14:05:31Z</time></trkpt><trkpt lat="42.52184729822934" lon="11.283280074813593"><ele>10.0</ele><time>2026-04-12T14:05:32Z</time></trkpt><trkpt lat="42.521895942189644" lon="11.28348776100716"><ele>10.0</ele><time>2026-04-12T14:05:33Z</time></trkpt><trkpt lat="42.521948495968005" lon="11.283693017456226"><ele>10.0</ele><time>2026-04-12T14:05:34Z</time></trkpt><trkpt lat="42.52200184740307" lon="11.283908443342792"><ele>10.0</ele><time>2026-04-12T14:05:35Z</time></trkpt><trkpt lat="42.522055187728306" lon="11.284130129485133"><ele>10.0</ele><time>2026-04-12T14:05:36Z</time></trkpt><trkpt lat="42.52210763574001" lon="11.28435308339137"><ele>10.0</ele><time>2026-04-12T14:05:37Z</time></trkpt><trkpt lat="42.52216399569355" lon="11.284580962577119"><ele>10.0</ele><time>2026-04-12T14:05:38Z</time></trkpt><trkpt lat="42.52221726205215" lon="11.284794058834397"><ele>10.666666666666668</ele><time>2026-04-12T14:05:39Z</time></trkpt><trkpt lat="42.522270026659235" lon="11.285011733319978"><ele>11.333333333333334</ele><time>2026-04-12T14:05:40Z</time></trkpt><trkpt lat="42.52232094804581" lon="11.285220728627223"><ele>12.0</ele><time>2026-04-12T14:05:41Z</time></trkpt><trkpt lat="42.52237306000569" lon="11.285428637800972"><ele>12.0</ele><time>2026-04-12T14:05:42Z</time></trkpt><trkpt lat="42.52242358268807" lon="11.285629521169959"><ele>12.0</ele><time>2026-04-12T14:05:43Z</time></trkpt><trkpt lat="42.522476597779615" lon="11.285833772960938"><ele>12.0</ele><time>2026-04-12T14:05:43.999Z</time></trkpt><trkpt lat="42.52252655524576" lon="11.286050890250698"><ele>12.0</ele><time>2026-04-12T14:05:44.999Z</time></trkpt><trkpt lat="42.52257869749521" lon="11.286266991704714"><ele>12.0</ele><time>2026-04-12T14:05:45.999Z</time></trkpt><trkpt lat="42.522628790971204" lon="11.286491859248892"><ele>12.0</ele><time>2026-04-12T14:05:46.999Z</time></trkpt><trkpt lat="42.522691742992556" lon="11.286709683916506"><ele>11.333333333333334</ele><time>2026-04-12T14:05:47.999Z</time></trkpt><trkpt lat="42.52274938638156" lon="11.28694157110259"><ele>10.666666666666668</ele><time>2026-04-12T14:05:48.999Z</time></trkpt><trkpt lat="42.52280162267106" lon="11.28715847652393"><ele>10.0</ele><time>2026-04-12T14:05:49.999Z</time></trkpt><trkpt lat="42.522849125449895" lon="11.287386271426715"><ele>10.666666666666668</ele><time>2026-04-12T14:05:50.999Z</time></trkpt><trkpt lat="42.52290414637103" lon="11.28760507228884"><ele>11.333333333333334</ele><time>2026-04-12T14:05:51.999Z</time></trkpt><trkpt lat="42.52295783733602" lon="11.28780965122686"><ele>12.0</ele><time>2026-04-12T14:05:52.999Z</time></trkpt><trkpt lat="42.52300880557751" lon="11.288012830124915"><ele>12.0</ele><time>2026-04-12T14:05:53.999Z</time></trkpt><trkpt lat="42.52305581331869" lon="11.288202227650098"><ele>12.0</ele><time>2026-04-12T14:05:54.999Z</time></trkpt><trkpt lat="42.52310234895832" lon="11.28839329552442"><ele>12.0</ele><time>2026-04-12T14:05:55.999Z</time></trkpt><trkpt lat="42.52314877968502" lon="11.28858521220914"><ele>12.0</ele><time>2026-04-12T14:05:56.999Z</time></trkpt><trkpt lat="42.523204930207974" lon="11.288778469332843"><ele>12.0</ele><time>2026-04-12T14:05:57.999Z</time></trkpt><trkpt lat="42.52324014861609" lon="11.288992908339116"><ele>12.0</ele><time>2026-04-12T14:05:58.999Z</time></trkpt><trkpt lat="42.52329125915329" lon="11.289204081554281"><ele>12.0</ele><time>2026-04-12T14:05:59.999Z</time></trkpt><trkpt lat="42.523347140399046" lon="11.289433905660323"><ele>12.0</ele><time>2026-04-12T14:06:00.999Z</time></trkpt><trkpt lat="42.52340941748088" lon="11.289690034071764"><ele>12.0</ele><time>2026-04-12T14:06:01.999Z</time></trkpt><trkpt lat="42.5234827550085" lon="11.289921551773013"><ele>12.0</ele><time>2026-04-12T14:06:02.999Z</time></trkpt><trkpt lat="42.523534418771405" lon="11.290155895460131"><ele>12.666666666666668</ele><time>2026-04-12T14:06:03.999Z</time></trkpt><trkpt lat="42.523593911000596" lon="11.290400123988718"><ele>13.333333333333334</ele><time>2026-04-12T14:06:04.999Z</time></trkpt><trkpt lat="42.52365551198537" lon="11.290650948978064"><ele>14.0</ele><time>2026-04-12T14:06:05.999Z</time></trkpt><trkpt lat="42.52371683056052" lon="11.290902445644708"><ele>13.666666666666668</ele><time>2026-04-12T14:06:06.999Z</time></trkpt><trkpt lat="42.52377575184219" lon="11.291156615850898"><ele>13.333333333333332</ele><time>2026-04-12T14:06:07.999Z</time></trkpt><trkpt lat="42.52383599025478" lon="11.291416655515539"><ele>13.0</ele><time>2026-04-12T14:06:08.999Z</time></trkpt><trkpt lat="42.523968206767556" lon="11.291951360068873"><ele>14.0</ele><time>2026-04-12T14:06:10.999Z</time></trkpt><trkpt lat="42.52403281269538" lon="11.292215800352851"><ele>15.0</ele><time>2026-04-12T14:06:11.999Z</time></trkpt><trkpt lat="42.52409751623916" lon="11.292484552471612"><ele>16.0</ele><time>2026-04-12T14:06:12.999Z</time></trkpt><trkpt lat="42.524156352806024" lon="11.292737315488697"><ele>16.0</ele><time>2026-04-12T14:06:13.999Z</time></trkpt><trkpt lat="42.524220343463" lon="11.292994539761935"><ele>16.0</ele><time>2026-04-12T14:06:14.999Z</time></trkpt><trkpt lat="42.52428044013988" lon="11.293247405306708"><ele>16.0</ele><time>2026-04-12T14:06:15.999Z</time></trkpt><trkpt lat="42.524334529204204" lon="11.293476733314307"><ele>16.0</ele><time>2026-04-12T14:06:16.999Z</time></trkpt><trkpt lat="42.52441525968849" lon="11.293804024870031"><ele>16.0</ele><time>2026-04-12T14:06:18.999Z</time></trkpt><trkpt lat="42.524443076781" lon="11.293916129378857"><ele>16.0</ele><time>2026-04-12T14:06:19.999Z</time></trkpt><trkpt lat="42.524460740250184" lon="11.29400929386858"><ele>16.0</ele><time>2026-04-12T14:06:20.999Z</time></trkpt><trkpt lat="42.524434611647415" lon="11.294141030976528"><ele>16.142857142857142</ele><time>2026-04-12T14:06:22.999Z</time></trkpt><trkpt lat="42.524361751995635" lon="11.294168978225164"><ele>16.285714285714285</ele><time>2026-04-12T14:06:24.999Z</time></trkpt><trkpt lat="42.52430015948789" lon="11.294223230218883"><ele>16.428571428571427</ele><time>2026-04-12T14:07:01Z</time></trkpt><trkpt lat="42.52424065120996" lon="11.29426534879115"><ele>16.57142857142857</ele><time>2026-04-12T14:07:02Z</time></trkpt><trkpt lat="42.52418182598592" lon="11.294308121800182"><ele>16.714285714285715</ele><time>2026-04-12T14:07:03Z</time></trkpt><trkpt lat="42.524117809346066" lon="11.29435393637528"><ele>16.857142857142854</ele><time>2026-04-12T14:07:04Z</time></trkpt><trkpt lat="42.52403748529685" lon="11.294415344900164"><ele>17.0</ele><time>2026-04-12T14:07:05Z</time></trkpt><trkpt lat="42.52395627143244" lon="11.29447646658062"><ele>17.0</ele><time>2026-04-12T14:07:06Z</time></trkpt><trkpt lat="42.523864276889924" lon="11.294539741780866"><ele>17.0</ele><time>2026-04-12T14:07:07Z</time></trkpt><trkpt lat="42.52376381438634" lon="11.294588657647346"><ele>17.0</ele><time>2026-04-12T14:07:08Z</time></trkpt><trkpt lat="42.52366685814286" lon="11.294657372137362"><ele>17.0</ele><time>2026-04-12T14:07:09Z</time></trkpt><trkpt lat="42.5235667520713" lon="11.294728318891762"><ele>17.0</ele><time>2026-04-12T14:07:10Z</time></trkpt><trkpt lat="42.52346452208028" lon="11.294800770909"><ele>17.0</ele><time>2026-04-12T14:07:11Z</time></trkpt><trkpt lat="42.523346089646516" lon="11.294884994303038"><ele>17.0</ele><time>2026-04-12T14:07:12Z</time></trkpt><trkpt lat="42.523241342809825" lon="11.294985591297333"><ele>17.0</ele><time>2026-04-12T14:07:13Z</time></trkpt><trkpt lat="42.523107786807024" lon="11.295061423731473"><ele>17.0</ele><time>2026-04-12T14:07:14Z</time></trkpt><trkpt lat="42.522987107690106" lon="11.29516807791774"><ele>16.75</ele><time>2026-04-12T14:07:15Z</time></trkpt><trkpt lat="42.52287138932309" lon="11.295294628632398"><ele>16.5</ele><time>2026-04-12T14:07:16Z</time></trkpt><trkpt lat="42.52277243347926" lon="11.29544052816277"><ele>16.25</ele><time>2026-04-12T14:07:17Z</time></trkpt><trkpt lat="42.52267495350484" lon="11.295593574821156"><ele>16.0</ele><time>2026-04-12T14:07:18Z</time></trkpt><trkpt lat="42.522582857108276" lon="11.295744429052391"><ele>16.666666666666664</ele><time>2026-04-12T14:07:19Z</time></trkpt><trkpt lat="42.52248632259136" lon="11.29590548212652"><ele>17.333333333333332</ele><time>2026-04-12T14:07:20Z</time></trkpt><trkpt lat="42.522388089012175" lon="11.296070579662965"><ele>18.0</ele><time>2026-04-12T14:07:21Z</time></trkpt><trkpt lat="42.5222954810088" lon="11.29622622233038"><ele>18.0</ele><time>2026-04-12T14:07:22Z</time></trkpt><trkpt lat="42.522195517987" lon="11.296394226331158"><ele>18.0</ele><time>2026-04-12T14:07:23Z</time></trkpt><trkpt lat="42.52210890660748" lon="11.296574361116365"><ele>18.0</ele><time>2026-04-12T14:07:24Z</time></trkpt><trkpt lat="42.521997087015414" lon="11.296726328355271"><ele>17.666666666666668</ele><time>2026-04-12T14:07:25Z</time></trkpt><trkpt lat="42.52189457927259" lon="11.296897154132662"><ele>17.333333333333336</ele><time>2026-04-12T14:07:26Z</time></trkpt><trkpt lat="42.52179298656947" lon="11.297066455094848"><ele>17.0</ele><time>2026-04-12T14:07:27Z</time></trkpt><trkpt lat="42.521689433686795" lon="11.29723902258646"><ele>17.0</ele><time>2026-04-12T14:07:28Z</time></trkpt><trkpt lat="42.521589714569636" lon="11.297405287601423"><ele>17.0</ele><time>2026-04-12T14:07:29Z</time></trkpt><trkpt lat="42.52148438740193" lon="11.297583554718466"><ele>17.0</ele><time>2026-04-12T14:07:30Z</time></trkpt><trkpt lat="42.52137880081509" lon="11.297753679167501"><ele>17.0</ele><time>2026-04-12T14:07:31Z</time></trkpt><trkpt lat="42.521264687695975" lon="11.297920737772342"><ele>17.0</ele><time>2026-04-12T14:07:32Z</time></trkpt><trkpt lat="42.52113511009069" lon="11.29808062908701"><ele>17.0</ele><time>2026-04-12T14:07:33Z</time></trkpt><trkpt lat="42.521000737609846" lon="11.298231530107133"><ele>16.333333333333336</ele><time>2026-04-12T14:07:34Z</time></trkpt><trkpt lat="42.52086171837622" lon="11.298372389510185"><ele>15.666666666666668</ele><time>2026-04-12T14:07:35Z</time></trkpt><trkpt lat="42.520723539483065" lon="11.29851111985834"><ele>15.0</ele><time>2026-04-12T14:07:36Z</time></trkpt><trkpt lat="42.52058386499032" lon="11.298651554401998"><ele>15.0</ele><time>2026-04-12T14:07:37Z</time></trkpt><trkpt lat="42.520447290349104" lon="11.298788937533237"><ele>15.0</ele><time>2026-04-12T14:07:38Z</time></trkpt><trkpt lat="42.5203224486519" lon="11.298941826273847"><ele>15.0</ele><time>2026-04-12T14:07:39Z</time></trkpt><trkpt lat="42.52016828463411" lon="11.299069592134293"><ele>15.666666666666668</ele><time>2026-04-12T14:07:40Z</time></trkpt><trkpt lat="42.520030689276226" lon="11.299208000627885"><ele>16.333333333333336</ele><time>2026-04-12T14:07:41Z</time></trkpt><trkpt lat="42.519893725434855" lon="11.299346702104351"><ele>17.0</ele><time>2026-04-12T14:07:42Z</time></trkpt><trkpt lat="42.51975506247848" lon="11.299487696949068"><ele>17.0</ele><time>2026-04-12T14:07:43Z</time></trkpt><trkpt lat="42.519628022291364" lon="11.299642061823967"><ele>17.0</ele><time>2026-04-12T14:07:44Z</time></trkpt><trkpt lat="42.51949850385928" lon="11.299773804701251"><ele>17.0</ele><time>2026-04-12T14:07:45Z</time></trkpt><trkpt lat="42.5193512974392" lon="11.29989262207048"><ele>17.0</ele><time>2026-04-12T14:07:46Z</time></trkpt><trkpt lat="42.51921487873298" lon="11.30003346436642"><ele>17.0</ele><time>2026-04-12T14:07:47Z</time></trkpt><trkpt lat="42.51907431802309" lon="11.300179835648484"><ele>17.0</ele><time>2026-04-12T14:07:47.999Z</time></trkpt><trkpt lat="42.5189371175237" lon="11.300331910975766"><ele>17.0</ele><time>2026-04-12T14:07:48.999Z</time></trkpt><trkpt lat="42.51880010332631" lon="11.300497472319794"><ele>17.0</ele><time>2026-04-12T14:07:49.999Z</time></trkpt><trkpt lat="42.51867122952521" lon="11.300662306130482"><ele>17.0</ele><time>2026-04-12T14:07:50.999Z</time></trkpt><trkpt lat="42.5185464950481" lon="11.30082841053748"><ele>17.333333333333336</ele><time>2026-04-12T14:07:51.999Z</time></trkpt><trkpt lat="42.518421289311995" lon="11.300999121802942"><ele>17.666666666666668</ele><time>2026-04-12T14:07:52.999Z</time></trkpt><trkpt lat="42.51830106405695" lon="11.301176419768463"><ele>18.0</ele><time>2026-04-12T14:07:53.999Z</time></trkpt><trkpt lat="42.51818067146608" lon="11.301362116010814"><ele>17.666666666666668</ele><time>2026-04-12T14:07:54.999Z</time></trkpt><trkpt lat="42.518074520205175" lon="11.301560445652392"><ele>17.333333333333336</ele><time>2026-04-12T14:07:55.999Z</time></trkpt><trkpt lat="42.517943668478885" lon="11.301730660209149"><ele>17.0</ele><time>2026-04-12T14:07:56.999Z</time></trkpt><trkpt lat="42.517824694335516" lon="11.301916614206702"><ele>17.0</ele><time>2026-04-12T14:07:57.999Z</time></trkpt><trkpt lat="42.51770283305098" lon="11.302109004307038"><ele>17.0</ele><time>2026-04-12T14:07:58.999Z</time></trkpt><trkpt lat="42.517584649200934" lon="11.30229551236107"><ele>17.0</ele><time>2026-04-12T14:07:59.999Z</time></trkpt><trkpt lat="42.517461699649886" lon="11.302489541163931"><ele>16.333333333333336</ele><time>2026-04-12T14:08:00.999Z</time></trkpt><trkpt lat="42.51734512227998" lon="11.302674858296719"><ele>15.666666666666668</ele><time>2026-04-12T14:08:01.999Z</time></trkpt><trkpt lat="42.517234781761466" lon="11.302881922503893"><ele>15.0</ele><time>2026-04-12T14:08:02.999Z</time></trkpt><trkpt lat="42.517115258891785" lon="11.303068040378909"><ele>15.666666666666668</ele><time>2026-04-12T14:08:03.999Z</time></trkpt><trkpt lat="42.51699736565173" lon="11.303257374334942"><ele>16.333333333333336</ele><time>2026-04-12T14:08:04.999Z</time></trkpt><trkpt lat="42.516874079551336" lon="11.30344615998426"><ele>17.0</ele><time>2026-04-12T14:08:05.999Z</time></trkpt><trkpt lat="42.516755202575624" lon="11.303631420223018"><ele>17.0</ele><time>2026-04-12T14:08:06.999Z</time></trkpt><trkpt lat="42.51663459755966" lon="11.303825334351153"><ele>17.0</ele><time>2026-04-12T14:08:07.999Z</time></trkpt><trkpt lat="42.516515528122405" lon="11.30401052517508"><ele>17.0</ele><time>2026-04-12T14:08:08.999Z</time></trkpt><trkpt lat="42.516389815470106" lon="11.304205319878024"><ele>17.0</ele><time>2026-04-12T14:08:09.999Z</time></trkpt><trkpt lat="42.51626442078483" lon="11.304390946366176"><ele>17.0</ele><time>2026-04-12T14:08:10.999Z</time></trkpt><trkpt lat="42.51614603507663" lon="11.304574666784038"><ele>17.0</ele><time>2026-04-12T14:08:11.999Z</time></trkpt><trkpt lat="42.51601661809229" lon="11.304757331335228"><ele>15.666666666666668</ele><time>2026-04-12T14:08:12.999Z</time></trkpt><trkpt lat="42.51589251043689" lon="11.304939414845592"><ele>14.333333333333332</ele><time>2026-04-12T14:08:13.999Z</time></trkpt><trkpt lat="42.515759748098716" lon="11.305114447025144"><ele>13.0</ele><time>2026-04-12T14:08:14.999Z</time></trkpt><trkpt lat="42.51563404419117" lon="11.305288426619327"><ele>13.0</ele><time>2026-04-12T14:08:15.999Z</time></trkpt><trkpt lat="42.51550734924224" lon="11.305462902218416"><ele>13.0</ele><time>2026-04-12T14:08:16.999Z</time></trkpt><trkpt lat="42.51538061893236" lon="11.305638197033279"><ele>13.0</ele><time>2026-04-12T14:08:17.999Z</time></trkpt><trkpt lat="42.515251911251035" lon="11.30581133350363"><ele>11.666666666666666</ele><time>2026-04-12T14:08:18.999Z</time></trkpt><trkpt lat="42.515124717983156" lon="11.30598335893045"><ele>10.333333333333332</ele><time>2026-04-12T14:08:19.999Z</time></trkpt><trkpt lat="42.514996934233785" lon="11.306153674483973"><ele>9.0</ele><time>2026-04-12T14:08:20.999Z</time></trkpt><trkpt lat="42.5148695503077" lon="11.306326782892668"><ele>9.0</ele><time>2026-04-12T14:08:21.999Z</time></trkpt><trkpt lat="42.5147443958401" lon="11.306502289240397"><ele>9.0</ele><time>2026-04-12T14:08:22.999Z</time></trkpt><trkpt lat="42.51462093572894" lon="11.306680666826786"><ele>9.0</ele><time>2026-04-12T14:08:23.999Z</time></trkpt><trkpt lat="42.51450142776352" lon="11.306860198621914"><ele>8.666666666666666</ele><time>2026-04-12T14:08:24.999Z</time></trkpt><trkpt lat="42.51437475830946" lon="11.307038704321409"><ele>8.333333333333332</ele><time>2026-04-12T14:08:25.999Z</time></trkpt><trkpt lat="42.51425650685287" lon="11.307222691109446"><ele>8.0</ele><time>2026-04-12T14:08:26.999Z</time></trkpt><trkpt lat="42.514125039356706" lon="11.307408351018903"><ele>8.0</ele><time>2026-04-12T14:08:27.999Z</time></trkpt><trkpt lat="42.51400559356876" lon="11.307593878852689"><ele>8.0</ele><time>2026-04-12T14:08:28.999Z</time></trkpt><trkpt lat="42.513875869033555" lon="11.307778600257"><ele>8.0</ele><time>2026-04-12T14:08:29.999Z</time></trkpt><trkpt lat="42.513753252505055" lon="11.307970495547435"><ele>8.0</ele><time>2026-04-12T14:08:30.999Z</time></trkpt><trkpt lat="42.51362971128661" lon="11.308158568168267"><ele>8.0</ele><time>2026-04-12T14:08:31.999Z</time></trkpt><trkpt lat="42.513496432339714" lon="11.308349852482136"><ele>8.0</ele><time>2026-04-12T14:08:32.999Z</time></trkpt><trkpt lat="42.51337113506444" lon="11.308538974289336"><ele>8.0</ele><time>2026-04-12T14:08:33.999Z</time></trkpt><trkpt lat="42.51324548436322" lon="11.308730801003195"><ele>8.0</ele><time>2026-04-12T14:08:34.999Z</time></trkpt><trkpt lat="42.51311358685642" lon="11.308897299735063"><ele>8.0</ele><time>2026-04-12T14:08:35.999Z</time></trkpt><trkpt lat="42.51299093705195" lon="11.309080395752666"><ele>7.666666666666666</ele><time>2026-04-12T14:08:36.999Z</time></trkpt><trkpt lat="42.51287044257275" lon="11.309258964922364"><ele>7.333333333333334</ele><time>2026-04-12T14:08:37.999Z</time></trkpt><trkpt lat="42.51276474048738" lon="11.309447318646448"><ele>7.0</ele><time>2026-04-12T14:08:38.999Z</time></trkpt><trkpt lat="42.51265603369475" lon="11.309604201398056"><ele>7.0</ele><time>2026-04-12T14:08:39.999Z</time></trkpt><trkpt lat="42.51255350316552" lon="11.309758523397889"><ele>7.0</ele><time>2026-04-12T14:08:40.999Z</time></trkpt><trkpt lat="42.512456875820554" lon="11.309919231660881"><ele>7.0</ele><time>2026-04-12T14:08:41.999Z</time></trkpt><trkpt lat="42.512357991493914" lon="11.310091074502946"><ele>7.0</ele><time>2026-04-12T14:08:42.999Z</time></trkpt><trkpt lat="42.512309544953325" lon="11.310303384860479"><ele>7.0</ele><time>2026-04-12T14:08:43.999Z</time></trkpt><trkpt lat="42.512260499895966" lon="11.310523096429002"><ele>7.0</ele><time>2026-04-12T14:08:44.999Z</time></trkpt><trkpt lat="42.51222149957148" lon="11.31075470871707"><ele>7.0</ele><time>2026-04-12T14:08:45.999Z</time></trkpt><trkpt lat="42.512183730776016" lon="11.310992599471788"><ele>7.0</ele><time>2026-04-12T14:08:46.999Z</time></trkpt><trkpt lat="42.512126060185565" lon="11.311221550575477"><ele>7.0</ele><time>2026-04-12T14:08:47.999Z</time></trkpt><trkpt lat="42.51208052409287" lon="11.311457808662075"><ele>8.333333333333334</ele><time>2026-04-12T14:08:48.999Z</time></trkpt><trkpt lat="42.512036985487185" lon="11.311694836425591"><ele>9.666666666666666</ele><time>2026-04-12T14:08:49.999Z</time></trkpt><trkpt lat="42.51200981106096" lon="11.311924635962226"><ele>11.0</ele><time>2026-04-12T14:08:50.999Z</time></trkpt><trkpt lat="42.511967456688865" lon="11.312156475413444"><ele>11.0</ele><time>2026-04-12T14:08:51.999Z</time></trkpt><trkpt lat="42.511913476885695" lon="11.31236550151653"><ele>11.0</ele><time>2026-04-12T14:08:52.999Z</time></trkpt><trkpt lat="42.51187440519026" lon="11.312576748493784"><ele>11.0</ele><time>2026-04-12T14:08:53.999Z</time></trkpt><trkpt lat="42.511836995080216" lon="11.312791828979915"><ele>11.0</ele><time>2026-04-12T14:08:54.999Z</time></trkpt><trkpt lat="42.51181502027329" lon="11.313006535759643"><ele>11.0</ele><time>2026-04-12T14:08:55.999Z</time></trkpt><trkpt lat="42.51177518845345" lon="11.31321596465585"><ele>11.0</ele><time>2026-04-12T14:08:56.999Z</time></trkpt><trkpt lat="42.51171471938221" lon="11.313417142201978"><ele>11.0</ele><time>2026-04-12T14:08:57.999Z</time></trkpt><trkpt lat="42.51166932752476" lon="11.313624283371874"><ele>11.0</ele><time>2026-04-12T14:08:58.999Z</time></trkpt><trkpt lat="42.51161888917712" lon="11.313839012295825"><ele>11.0</ele><time>2026-04-12T14:08:59.998Z</time></trkpt><trkpt lat="42.5115519509903" lon="11.314042464054655"><ele>11.0</ele><time>2026-04-12T14:09:01Z</time></trkpt><trkpt lat="42.51147658955114" lon="11.314250130655827"><ele>11.0</ele><time>2026-04-12T14:09:02Z</time></trkpt><trkpt lat="42.51139863988318" lon="11.314459700872716"><ele>11.0</ele><time>2026-04-12T14:09:03Z</time></trkpt><trkpt lat="42.51131942772301" lon="11.314672665068304"><ele>11.0</ele><time>2026-04-12T14:09:04Z</time></trkpt><trkpt lat="42.51124101731973" lon="11.314883474046507"><ele>11.0</ele><time>2026-04-12T14:09:05Z</time></trkpt><trkpt lat="42.51116267247489" lon="11.31509410635969"><ele>11.0</ele><time>2026-04-12T14:09:06Z</time></trkpt><trkpt lat="42.511098034404796" lon="11.315310807663792"><ele>11.0</ele><time>2026-04-12T14:09:07Z</time></trkpt><trkpt lat="42.51101957870935" lon="11.315518355041286"><ele>11.0</ele><time>2026-04-12T14:09:08Z</time></trkpt><trkpt lat="42.51092863197979" lon="11.315727913645949"><ele>11.0</ele><time>2026-04-12T14:09:09Z</time></trkpt><trkpt lat="42.51085846587755" lon="11.315929863340394"><ele>11.0</ele><time>2026-04-12T14:09:10Z</time></trkpt><trkpt lat="42.51078922259187" lon="11.31611878543486"><ele>11.0</ele><time>2026-04-12T14:09:11Z</time></trkpt><trkpt lat="42.51072381854552" lon="11.316287745628593"><ele>11.0</ele><time>2026-04-12T14:09:12Z</time></trkpt><trkpt lat="42.51064514581996" lon="11.316465887477055"><ele>11.0</ele><time>2026-04-12T14:09:13Z</time></trkpt><trkpt lat="42.51055710626365" lon="11.316641637303096"><ele>11.0</ele><time>2026-04-12T14:09:14Z</time></trkpt><trkpt lat="42.510456850328254" lon="11.31681405306832"><ele>11.0</ele><time>2026-04-12T14:09:15Z</time></trkpt><trkpt lat="42.51035264679145" lon="11.316983348560026"><ele>11.0</ele><time>2026-04-12T14:09:16Z</time></trkpt><trkpt lat="42.510243885376156" lon="11.317159738564197"><ele>10.333333333333332</ele><time>2026-04-12T14:09:17Z</time></trkpt><trkpt lat="42.510135791406775" lon="11.317336272879219"><ele>9.666666666666666</ele><time>2026-04-12T14:09:18Z</time></trkpt><trkpt lat="42.5100299229342" lon="11.317509626006114"><ele>9.0</ele><time>2026-04-12T14:09:19Z</time></trkpt><trkpt lat="42.509923101375655" lon="11.31768347784417"><ele>9.0</ele><time>2026-04-12T14:09:20Z</time></trkpt><trkpt lat="42.50982058806956" lon="11.317851135208425"><ele>9.0</ele><time>2026-04-12T14:09:21Z</time></trkpt><trkpt lat="42.50972061351097" lon="11.318015756874773"><ele>9.0</ele><time>2026-04-12T14:09:22Z</time></trkpt><trkpt lat="42.509620628133334" lon="11.318181535117386"><ele>9.333333333333334</ele><time>2026-04-12T14:09:23Z</time></trkpt><trkpt lat="42.50953362582068" lon="11.318358811870072"><ele>9.666666666666668</ele><time>2026-04-12T14:09:24Z</time></trkpt><trkpt lat="42.509412502682345" lon="11.318509434061438"><ele>10.0</ele><time>2026-04-12T14:09:25Z</time></trkpt><trkpt lat="42.5093011474099" lon="11.31865856704497"><ele>10.0</ele><time>2026-04-12T14:09:26Z</time></trkpt><trkpt lat="42.50917751396218" lon="11.318793031141807"><ele>10.0</ele><time>2026-04-12T14:09:27Z</time></trkpt><trkpt lat="42.50904674833476" lon="11.318929783183973"><ele>10.0</ele><time>2026-04-12T14:09:28Z</time></trkpt><trkpt lat="42.50892142202582" lon="11.319085986345652"><ele>10.0</ele><time>2026-04-12T14:09:29Z</time></trkpt><trkpt lat="42.50879319999226" lon="11.319217298397266"><ele>10.0</ele><time>2026-04-12T14:09:30Z</time></trkpt><trkpt lat="42.50865582941582" lon="11.319355655438875"><ele>10.0</ele><time>2026-04-12T14:09:31Z</time></trkpt><trkpt lat="42.508525021798604" lon="11.319489097562748"><ele>10.0</ele><time>2026-04-12T14:09:32Z</time></trkpt><trkpt lat="42.50839205223135" lon="11.319623276030253"><ele>10.0</ele><time>2026-04-12T14:09:33Z</time></trkpt><trkpt lat="42.5082546818727" lon="11.31973908876142"><ele>10.0</ele><time>2026-04-12T14:09:34Z</time></trkpt><trkpt lat="42.50812986731783" lon="11.319866339070622"><ele>10.25</ele><time>2026-04-12T14:09:35Z</time></trkpt><trkpt lat="42.50800796994733" lon="11.319991429065293"><ele>10.5</ele><time>2026-04-12T14:09:36Z</time></trkpt><trkpt lat="42.507902523117956" lon="11.320100061881117"><ele>10.75</ele><time>2026-04-12T14:09:37Z</time></trkpt><trkpt lat="42.507803002065984" lon="11.320202589299901"><ele>11.0</ele><time>2026-04-12T14:09:38Z</time></trkpt><trkpt lat="42.507710609526654" lon="11.320296226743249"><ele>11.0</ele><time>2026-04-12T14:09:39Z</time></trkpt><trkpt lat="42.50761973374682" lon="11.320388807465378"><ele>11.0</ele><time>2026-04-12T14:09:40Z</time></trkpt><trkpt lat="42.507536143915765" lon="11.320471753383305"><ele>11.0</ele><time>2026-04-12T14:09:41Z</time></trkpt><trkpt lat="42.50745417646529" lon="11.32055023580133"><ele>11.0</ele><time>2026-04-12T14:09:42Z</time></trkpt><trkpt lat="42.50737761574788" lon="11.320630378334789"><ele>11.0</ele><time>2026-04-12T14:09:43Z</time></trkpt><trkpt lat="42.50730773175462" lon="11.32071174291283"><ele>11.200000000000001</ele><time>2026-04-12T14:09:44Z</time></trkpt><trkpt lat="42.50725493575092" lon="11.320819345420912"><ele>11.4</ele><time>2026-04-12T14:09:45Z</time></trkpt><trkpt lat="42.507189860813725" lon="11.320927172910023"><ele>11.6</ele><time>2026-04-12T14:09:46Z</time></trkpt><trkpt lat="42.50713243506368" lon="11.3210544573987"><ele>11.8</ele><time>2026-04-12T14:09:47Z</time></trkpt><trkpt lat="42.507077391575216" lon="11.321175930156167"><ele>12.0</ele><time>2026-04-12T14:09:48Z</time></trkpt><trkpt lat="42.507018826483616" lon="11.32130003485003"><ele>11.8</ele><time>2026-04-12T14:09:49Z</time></trkpt><trkpt lat="42.506957888083136" lon="11.321437757239906"><ele>11.6</ele><time>2026-04-12T14:09:50Z</time></trkpt><trkpt lat="42.50690263392254" lon="11.321564018025088"><ele>11.4</ele><time>2026-04-12T14:09:51Z</time></trkpt><trkpt lat="42.506823542540296" lon="11.321673674318212"><ele>11.200000000000001</ele><time>2026-04-12T14:09:52Z</time></trkpt><trkpt lat="42.50676718246163" lon="11.321797928657109"><ele>11.0</ele><time>2026-04-12T14:09:53Z</time></trkpt><trkpt lat="42.506691593352464" lon="11.321900686215717"><ele>11.0</ele><time>2026-04-12T14:09:53.999Z</time></trkpt><trkpt lat="42.50661011769059" lon="11.322010740771768"><ele>11.0</ele><time>2026-04-12T14:09:54.999Z</time></trkpt><trkpt lat="42.50652757220838" lon="11.322121934949758"><ele>11.0</ele><time>2026-04-12T14:09:55.999Z</time></trkpt><trkpt lat="42.506442185509854" lon="11.322228342028344"><ele>11.0</ele><time>2026-04-12T14:09:56.999Z</time></trkpt><trkpt lat="42.506351921688236" lon="11.322344966035176"><ele>10.75</ele><time>2026-04-12T14:09:57.999Z</time></trkpt><trkpt lat="42.50626158155254" lon="11.322454285471801"><ele>10.5</ele><time>2026-04-12T14:09:58.999Z</time></trkpt><trkpt lat="42.50617468291189" lon="11.322541310514355"><ele>10.25</ele><time>2026-04-12T14:09:59.999Z</time></trkpt><trkpt lat="42.50608567994273" lon="11.32262593663522"><ele>10.0</ele><time>2026-04-12T14:10:00.999Z</time></trkpt><trkpt lat="42.50599514751037" lon="11.322715199882861"><ele>10.0</ele><time>2026-04-12T14:10:01.999Z</time></trkpt><trkpt lat="42.50590959513906" lon="11.322801510344748"><ele>10.0</ele><time>2026-04-12T14:10:02.999Z</time></trkpt><trkpt lat="42.505820906790184" lon="11.322876929755457"><ele>10.0</ele><time>2026-04-12T14:10:03.999Z</time></trkpt><trkpt lat="42.50573341032856" lon="11.322954374018043"><ele>10.0</ele><time>2026-04-12T14:10:04.999Z</time></trkpt><trkpt lat="42.50564484980956" lon="11.323037703269657"><ele>10.0</ele><time>2026-04-12T14:10:05.999Z</time></trkpt><trkpt lat="42.505554954696585" lon="11.323141221791621"><ele>10.0</ele><time>2026-04-12T14:10:06.999Z</time></trkpt><trkpt lat="42.50547367801657" lon="11.323232871175776"><ele>10.0</ele><time>2026-04-12T14:10:07.999Z</time></trkpt><trkpt lat="42.50537726088781" lon="11.323341159712431"><ele>10.0</ele><time>2026-04-12T14:10:08.999Z</time></trkpt><trkpt lat="42.505277196733395" lon="11.32344073390636"><ele>10.0</ele><time>2026-04-12T14:10:09.999Z</time></trkpt><trkpt lat="42.50519519235006" lon="11.323519125330519"><ele>10.4</ele><time>2026-04-12T14:10:10.999Z</time></trkpt><trkpt lat="42.505104349051024" lon="11.323603444082101"><ele>10.8</ele><time>2026-04-12T14:10:11.999Z</time></trkpt><trkpt lat="42.50501202430793" lon="11.323684810309183"><ele>11.2</ele><time>2026-04-12T14:10:12.999Z</time></trkpt><trkpt lat="42.504929227123405" lon="11.32376416490908"><ele>11.6</ele><time>2026-04-12T14:10:13.999Z</time></trkpt><trkpt lat="42.504848446212264" lon="11.323825172595427"><ele>12.0</ele><time>2026-04-12T14:10:14.999Z</time></trkpt><trkpt lat="42.504742818717716" lon="11.32387635038192"><ele>12.0</ele><time>2026-04-12T14:10:15.999Z</time></trkpt><trkpt lat="42.5046393184359" lon="11.323868138624505"><ele>12.0</ele><time>2026-04-12T14:10:16.999Z</time></trkpt><trkpt lat="42.504537634330475" lon="11.323877870475064"><ele>12.0</ele><time>2026-04-12T14:10:17.999Z</time></trkpt><trkpt lat="42.50443148072891" lon="11.323904423964407"><ele>12.0</ele><time>2026-04-12T14:10:18.999Z</time></trkpt><trkpt lat="42.50432966641001" lon="11.32390970104386"><ele>12.0</ele><time>2026-04-12T14:10:19.999Z</time></trkpt><trkpt lat="42.50422710551172" lon="11.323911428143274"><ele>12.0</ele><time>2026-04-12T14:10:20.999Z</time></trkpt><trkpt lat="42.50412219632379" lon="11.323912153688372"><ele>12.0</ele><time>2026-04-12T14:10:21.999Z</time></trkpt><trkpt lat="42.50401674058557" lon="11.323903862439586"><ele>12.0</ele><time>2026-04-12T14:10:22.999Z</time></trkpt><trkpt lat="42.50391165232145" lon="11.323945800492542"><ele>12.0</ele><time>2026-04-12T14:10:23.999Z</time></trkpt><trkpt lat="42.5038240101801" lon="11.323970151071318"><ele>12.0</ele><time>2026-04-12T14:10:24.999Z</time></trkpt><trkpt lat="42.503748640293246" lon="11.324020282180438"><ele>11.833333333333334</ele><time>2026-04-12T14:10:25.999Z</time></trkpt><trkpt lat="42.503672978941616" lon="11.324092242207318"><ele>11.666666666666666</ele><time>2026-04-12T14:10:26.999Z</time></trkpt><trkpt lat="42.50361985666383" lon="11.324154410532953"><ele>11.5</ele><time>2026-04-12T14:10:27.999Z</time></trkpt><trkpt lat="42.503522584255265" lon="11.324256861738487"><ele>11.333333333333332</ele><time>2026-04-12T14:10:29.999Z</time></trkpt><trkpt lat="42.50343786637124" lon="11.324294722855306"><ele>11.166666666666666</ele><time>2026-04-12T14:10:31.999Z</time></trkpt><trkpt lat="42.50338729013938" lon="11.324228830377457"><ele>11.0</ele><time>2026-04-12T14:10:33.999Z</time></trkpt><trkpt lat="42.50331346630969" lon="11.324180059870553"><ele>11.0</ele><time>2026-04-12T14:10:35.999Z</time></trkpt><trkpt lat="42.503211776875894" lon="11.324100157696325"><ele>11.0</ele><time>2026-04-12T14:10:37.999Z</time></trkpt><trkpt lat="42.50314298731745" lon="11.324081604476552"><ele>11.0</ele><time>2026-04-12T14:10:38.999Z</time></trkpt><trkpt lat="42.5031066924913" lon="11.32418105116127"><ele>11.0</ele><time>2026-04-12T14:10:40.999Z</time></trkpt><trkpt lat="42.503104690254645" lon="11.3242712428683"><ele>11.0</ele><time>2026-04-12T14:10:41.999Z</time></trkpt><trkpt lat="42.50306575863919" lon="11.324360127344532"><ele>11.0</ele><time>2026-04-12T14:10:42.999Z</time></trkpt><trkpt lat="42.503040091714695" lon="11.324451087375351"><ele>11.0</ele><time>2026-04-12T14:10:43.999Z</time></trkpt><trkpt lat="42.502945287718724" lon="11.32459468642216"><ele>11.0</ele><time>2026-04-12T14:10:45.999Z</time></trkpt><trkpt lat="42.5028726698788" lon="11.324654858442628"><ele>11.0</ele><time>2026-04-12T14:10:46.999Z</time></trkpt><trkpt lat="42.50280270146214" lon="11.324724645907123"><ele>11.0</ele><time>2026-04-12T14:10:47.999Z</time></trkpt><trkpt lat="42.502720422335926" lon="11.324808013220833"><ele>11.0</ele><time>2026-04-12T14:10:48.999Z</time></trkpt><trkpt lat="42.502649149777135" lon="11.324875208554019"><ele>11.0</ele><time>2026-04-12T14:10:49.999Z</time></trkpt><trkpt lat="42.502581578775654" lon="11.324932953977774"><ele>11.0</ele><time>2026-04-12T14:10:50.999Z</time></trkpt><trkpt lat="42.502510829021375" lon="11.325007253607662"><ele>11.0</ele><time>2026-04-12T14:10:51.999Z</time></trkpt><trkpt lat="42.50243165489545" lon="11.325067692889526"><ele>11.0</ele><time>2026-04-12T14:10:52.999Z</time></trkpt><trkpt lat="42.502346442565674" lon="11.325152598087115"><ele>11.0</ele><time>2026-04-12T14:10:53.999Z</time></trkpt><trkpt lat="42.50227350567772" lon="11.325243730325601"><ele>11.0</ele><time>2026-04-12T14:10:54.999Z</time></trkpt><trkpt lat="42.50221530654156" lon="11.325332250191703"><ele>11.0</ele><time>2026-04-12T14:10:55.999Z</time></trkpt><trkpt lat="42.502154769008" lon="11.32542921573015"><ele>11.0</ele><time>2026-04-12T14:10:56.999Z</time></trkpt><trkpt lat="42.50207399641402" lon="11.325527262710505"><ele>11.0</ele><time>2026-04-12T14:10:57.999Z</time></trkpt><trkpt lat="42.50200694983357" lon="11.3256547883282"><ele>11.0</ele><time>2026-04-12T14:10:58.999Z</time></trkpt><trkpt lat="42.50192320740287" lon="11.325756272399307"><ele>11.4</ele><time>2026-04-12T14:10:59.999Z</time></trkpt><trkpt lat="42.50183919375436" lon="11.325856605960494"><ele>11.8</ele><time>2026-04-12T14:11:00.999Z</time></trkpt><trkpt lat="42.50175473634836" lon="11.3259774246536"><ele>12.200000000000001</ele><time>2026-04-12T14:11:01.999Z</time></trkpt><trkpt lat="42.5016954246985" lon="11.326066850582476"><ele>12.600000000000001</ele><time>2026-04-12T14:11:02.999Z</time></trkpt><trkpt lat="42.50163499869846" lon="11.326170308275199"><ele>13.0</ele><time>2026-04-12T14:11:03.999Z</time></trkpt><trkpt lat="42.501580390804776" lon="11.326257307762127"><ele>12.999999999999998</ele><time>2026-04-12T14:11:04.999Z</time></trkpt><trkpt lat="42.50151829334465" lon="11.326356130242823"><ele>13.0</ele><time>2026-04-12T14:11:05.999Z</time></trkpt><trkpt lat="42.50145796465244" lon="11.32645970447804"><ele>13.0</ele><time>2026-04-12T14:11:07Z</time></trkpt><trkpt lat="42.501399953302105" lon="11.326547347685363"><ele>13.0</ele><time>2026-04-12T14:11:08Z</time></trkpt><trkpt lat="42.501349439689456" lon="11.32662192227211"><ele>12.999999999999998</ele><time>2026-04-12T14:11:09Z</time></trkpt><trkpt lat="42.50130465219572" lon="11.326687691549111"><ele>13.0</ele><time>2026-04-12T14:11:10Z</time></trkpt><trkpt lat="42.50125303948526" lon="11.326743095595907"><ele>13.0</ele><time>2026-04-12T14:11:11Z</time></trkpt><trkpt lat="42.50114219552476" lon="11.326752270855527"><ele>13.0</ele><time>2026-04-12T14:11:13Z</time></trkpt><trkpt lat="42.50104066424064" lon="11.326776512490932"><ele>13.0</ele><time>2026-04-12T14:11:15Z</time></trkpt><trkpt lat="42.50090746719481" lon="11.326805560259928"><ele>13.0</ele><time>2026-04-12T14:11:17Z</time></trkpt><trkpt lat="42.50083161676821" lon="11.326822101811526"><ele>13.0</ele><time>2026-04-12T14:11:18Z</time></trkpt><trkpt lat="42.50075181958852" lon="11.326841562364518"><ele>12.999999999999998</ele><time>2026-04-12T14:11:19Z</time></trkpt><trkpt lat="42.500673925224596" lon="11.326861105378878"><ele>13.0</ele><time>2026-04-12T14:11:20Z</time></trkpt><trkpt lat="42.50059435598499" lon="11.326881068607282"><ele>13.0</ele><time>2026-04-12T14:11:21Z</time></trkpt><trkpt lat="42.500514528880295" lon="11.326901565989832"><ele>13.0</ele><time>2026-04-12T14:11:22Z</time></trkpt><trkpt lat="42.50043094772032" lon="11.326944983585145"><ele>12.999999999999998</ele><time>2026-04-12T14:11:23Z</time></trkpt><trkpt lat="42.50034633273069" lon="11.326966484364055"><ele>13.0</ele><time>2026-04-12T14:11:24Z</time></trkpt><trkpt lat="42.50025740641778" lon="11.326980953239989"><ele>12.600000000000001</ele><time>2026-04-12T14:11:25Z</time></trkpt><trkpt lat="42.500166246218285" lon="11.327008685277665"><ele>12.200000000000001</ele><time>2026-04-12T14:11:26Z</time></trkpt><trkpt lat="42.50007738833742" lon="11.32703347602281"><ele>11.8</ele><time>2026-04-12T14:11:27Z</time></trkpt><trkpt lat="42.4999861851323" lon="11.32703584325361"><ele>11.4</ele><time>2026-04-12T14:11:28Z</time></trkpt><trkpt lat="42.499887304851015" lon="11.327060669228104"><ele>11.0</ele><time>2026-04-12T14:11:29Z</time></trkpt><trkpt lat="42.49978845558375" lon="11.327085487412887"><ele>11.0</ele><time>2026-04-12T14:11:30Z</time></trkpt><trkpt lat="42.49968870830967" lon="11.327110531064355"><ele>11.0</ele><time>2026-04-12T14:11:31Z</time></trkpt><trkpt lat="42.49960780953071" lon="11.327152353318336"><ele>11.0</ele><time>2026-04-12T14:11:32Z</time></trkpt><trkpt lat="42.499522681413865" lon="11.32716580770672"><ele>11.0</ele><time>2026-04-12T14:11:33Z</time></trkpt><trkpt lat="42.499443832357784" lon="11.32718886203607"><ele>11.0</ele><time>2026-04-12T14:11:34Z</time></trkpt><trkpt lat="42.49935528794133" lon="11.327205893616874"><ele>11.0</ele><time>2026-04-12T14:11:35Z</time></trkpt><trkpt lat="42.4992631945571" lon="11.327223963446743"><ele>12.0</ele><time>2026-04-12T14:11:36Z</time></trkpt><trkpt lat="42.499166089187234" lon="11.32724879688551"><ele>13.0</ele><time>2026-04-12T14:11:37Z</time></trkpt><trkpt lat="42.49906423341627" lon="11.327272827135412"><ele>14.000000000000002</ele><time>2026-04-12T14:11:38Z</time></trkpt><trkpt lat="42.49896093108638" lon="11.327293736951038"><ele>15.0</ele><time>2026-04-12T14:11:39Z</time></trkpt><trkpt lat="42.49886212053463" lon="11.32731542402902"><ele>16.0</ele><time>2026-04-12T14:11:40Z</time></trkpt><trkpt lat="42.49877392100487" lon="11.327341833923228"><ele>16.166666666666664</ele><time>2026-04-12T14:11:41Z</time></trkpt><trkpt lat="42.49868112896817" lon="11.327370433196338"><ele>16.333333333333332</ele><time>2026-04-12T14:11:42Z</time></trkpt><trkpt lat="42.49859101068678" lon="11.327393906869396"><ele>16.5</ele><time>2026-04-12T14:11:43Z</time></trkpt><trkpt lat="42.49850048228101" lon="11.327422295913001"><ele>16.666666666666668</ele><time>2026-04-12T14:11:44Z</time></trkpt><trkpt lat="42.49841507631075" lon="11.327444628714682"><ele>16.833333333333336</ele><time>2026-04-12T14:11:45Z</time></trkpt><trkpt lat="42.4983381890145" lon="11.32746462988655"><ele>17.0</ele><time>2026-04-12T14:11:46Z</time></trkpt><trkpt lat="42.498251620591496" lon="11.327488262309835"><ele>17.0</ele><time>2026-04-12T14:11:47Z</time></trkpt><trkpt lat="42.49817907538063" lon="11.327514910817218"><ele>17.0</ele><time>2026-04-12T14:11:48Z</time></trkpt><trkpt lat="42.49804475436067" lon="11.327544398049568"><ele>17.0</ele><time>2026-04-12T14:11:50Z</time></trkpt><trkpt lat="42.497963398177085" lon="11.327566045705984"><ele>17.0</ele><time>2026-04-12T14:11:51Z</time></trkpt><trkpt lat="42.49786919932272" lon="11.327589054858436"><ele>17.0</ele><time>2026-04-12T14:11:52Z</time></trkpt><trkpt lat="42.497773465757824" lon="11.327612438883481"><ele>16.8</ele><time>2026-04-12T14:11:53Z</time></trkpt><trkpt lat="42.49768177948368" lon="11.327634834310611"><ele>16.6</ele><time>2026-04-12T14:11:54Z</time></trkpt><trkpt lat="42.49758830030475" lon="11.327671987636288"><ele>16.400000000000002</ele><time>2026-04-12T14:11:55Z</time></trkpt><trkpt lat="42.49749415744557" lon="11.327697646092473"><ele>16.2</ele><time>2026-04-12T14:11:55.999Z</time></trkpt><trkpt lat="42.49739132742696" lon="11.327725960248788"><ele>16.0</ele><time>2026-04-12T14:11:56.999Z</time></trkpt><trkpt lat="42.49729344030667" lon="11.327745107723382"><ele>16.0</ele><time>2026-04-12T14:11:57.999Z</time></trkpt><trkpt lat="42.497186099333724" lon="11.327772716587255"><ele>16.0</ele><time>2026-04-12T14:11:58.999Z</time></trkpt><trkpt lat="42.49708568141565" lon="11.327794708676137"><ele>16.0</ele><time>2026-04-12T14:11:59.999Z</time></trkpt><trkpt lat="42.49698521922878" lon="11.327820014494216"><ele>16.0</ele><time>2026-04-12T14:12:00.999Z</time></trkpt><trkpt lat="42.496903061232224" lon="11.327841124718596"><ele>16.0</ele><time>2026-04-12T14:12:01.999Z</time></trkpt><trkpt lat="42.49682903380302" lon="11.327860331249639"><ele>15.999999999999998</ele><time>2026-04-12T14:12:02.999Z</time></trkpt><trkpt lat="42.49675371515473" lon="11.32787011652656"><ele>16.0</ele><time>2026-04-12T14:12:03.999Z</time></trkpt><trkpt lat="42.496682995743356" lon="11.327894578226314"><ele>16.0</ele><time>2026-04-12T14:12:04.999Z</time></trkpt><trkpt lat="42.49661890901841" lon="11.327905754907597"><ele>16.0</ele><time>2026-04-12T14:12:05.999Z</time></trkpt><trkpt lat="42.49653327067882" lon="11.327929449296342"><ele>15.999999999999998</ele><time>2026-04-12T14:12:06.999Z</time></trkpt><trkpt lat="42.496452081765" lon="11.327962082499427"><ele>16.0</ele><time>2026-04-12T14:12:07.999Z</time></trkpt><trkpt lat="42.49635973035558" lon="11.327963064573403"><ele>15.999999999999998</ele><time>2026-04-12T14:12:08.999Z</time></trkpt><trkpt lat="42.49628609646824" lon="11.327982505293365"><ele>16.0</ele><time>2026-04-12T14:12:09.999Z</time></trkpt><trkpt lat="42.49621111527073" lon="11.328002299976644"><ele>16.0</ele><time>2026-04-12T14:12:10.999Z</time></trkpt><trkpt lat="42.49613679249361" lon="11.328021920838744"><ele>16.0</ele><time>2026-04-12T14:12:11.999Z</time></trkpt><trkpt lat="42.49606252931669" lon="11.328041525968409"><ele>15.999999999999998</ele><time>2026-04-12T14:12:12.999Z</time></trkpt><trkpt lat="42.49599487632261" lon="11.328059386040623"><ele>16.0</ele><time>2026-04-12T14:12:13.999Z</time></trkpt><trkpt lat="42.49590172096007" lon="11.328101912622182"><ele>16.25</ele><time>2026-04-12T14:12:15.999Z</time></trkpt><trkpt lat="42.49576570153753" lon="11.328120700803796"><ele>16.5</ele><time>2026-04-12T14:12:17.999Z</time></trkpt><trkpt lat="42.495698985607675" lon="11.328143911930487"><ele>16.75</ele><time>2026-04-12T14:12:18.999Z</time></trkpt><trkpt lat="42.49554187494349" lon="11.328186014235452"><ele>17.0</ele><time>2026-04-12T14:12:20.999Z</time></trkpt><trkpt lat="42.49545486673241" lon="11.328217511325926"><ele>16.833333333333336</ele><time>2026-04-12T14:12:21.999Z</time></trkpt><trkpt lat="42.4953804563093" lon="11.328241374367204"><ele>16.666666666666668</ele><time>2026-04-12T14:12:22.999Z</time></trkpt><trkpt lat="42.49529113870343" lon="11.328261760446887"><ele>16.5</ele><time>2026-04-12T14:12:23.999Z</time></trkpt><trkpt lat="42.49521425960811" lon="11.328285389357214"><ele>16.333333333333332</ele><time>2026-04-12T14:12:24.999Z</time></trkpt><trkpt lat="42.49513635423311" lon="11.328309393799772"><ele>16.166666666666664</ele><time>2026-04-12T14:12:25.999Z</time></trkpt><trkpt lat="42.49506714597962" lon="11.328326631476925"><ele>16.0</ele><time>2026-04-12T14:12:26.999Z</time></trkpt><trkpt lat="42.49499649399026" lon="11.32833022803278"><ele>15.999999999999998</ele><time>2026-04-12T14:12:27.999Z</time></trkpt><trkpt lat="42.49492652108111" lon="11.32836037614362"><ele>16.0</ele><time>2026-04-12T14:12:28.999Z</time></trkpt><trkpt lat="42.49485806496383" lon="11.32838860355827"><ele>16.0</ele><time>2026-04-12T14:12:29.999Z</time></trkpt><trkpt lat="42.494721221174224" lon="11.328406508819667"><ele>16.0</ele><time>2026-04-12T14:12:31.999Z</time></trkpt><trkpt lat="42.49464951248115" lon="11.328426379995367"><ele>15.999999999999998</ele><time>2026-04-12T14:12:32.999Z</time></trkpt><trkpt lat="42.49457780994128" lon="11.328445279443736"><ele>16.0</ele><time>2026-04-12T14:12:33.999Z</time></trkpt><trkpt lat="42.49449572439864" lon="11.328466111662722"><ele>16.833333333333332</ele><time>2026-04-12T14:12:34.999Z</time></trkpt><trkpt lat="42.49440538880851" lon="11.328487398970443"><ele>17.666666666666664</ele><time>2026-04-12T14:12:35.999Z</time></trkpt><trkpt lat="42.494309144255276" lon="11.328510078705792"><ele>18.5</ele><time>2026-04-12T14:12:36.999Z</time></trkpt><trkpt lat="42.49422490240876" lon="11.328533480849106"><ele>19.333333333333332</ele><time>2026-04-12T14:12:37.999Z</time></trkpt><trkpt lat="42.49414959416658" lon="11.328559388750431"><ele>20.166666666666668</ele><time>2026-04-12T14:12:38.999Z</time></trkpt><trkpt lat="42.494073274141485" lon="11.328592564068396"><ele>21.0</ele><time>2026-04-12T14:12:39.999Z</time></trkpt><trkpt lat="42.49399529008679" lon="11.328632873739132"><ele>21.0</ele><time>2026-04-12T14:12:40.999Z</time></trkpt><trkpt lat="42.49392866001167" lon="11.328668196749804"><ele>21.0</ele><time>2026-04-12T14:12:41.999Z</time></trkpt><trkpt lat="42.4938584675735" lon="11.32870329849721"><ele>21.0</ele><time>2026-04-12T14:12:42.999Z</time></trkpt><trkpt lat="42.493787722190014" lon="11.32873523554342"><ele>21.0</ele><time>2026-04-12T14:12:43.999Z</time></trkpt><trkpt lat="42.493718582930235" lon="11.328764838184616"><ele>21.0</ele><time>2026-04-12T14:12:44.999Z</time></trkpt><trkpt lat="42.49364607256917" lon="11.328795884194516"><ele>21.0</ele><time>2026-04-12T14:12:45.999Z</time></trkpt><trkpt lat="42.49355935960883" lon="11.328833011184683"><ele>21.200000000000003</ele><time>2026-04-12T14:12:46.999Z</time></trkpt><trkpt lat="42.49347055652204" lon="11.328871033083873"><ele>21.400000000000002</ele><time>2026-04-12T14:12:47.999Z</time></trkpt><trkpt lat="42.49337669840727" lon="11.328911241077602"><ele>21.6</ele><time>2026-04-12T14:12:48.999Z</time></trkpt><trkpt lat="42.493278009647696" lon="11.32895652340387"><ele>21.8</ele><time>2026-04-12T14:12:49.999Z</time></trkpt><trkpt lat="42.49318039780467" lon="11.329001311597898"><ele>22.0</ele><time>2026-04-12T14:12:50.999Z</time></trkpt><trkpt lat="42.49307399239828" lon="11.3290501346266"><ele>22.0</ele><time>2026-04-12T14:12:51.999Z</time></trkpt><trkpt lat="42.49296781240245" lon="11.329098854227363"><ele>22.0</ele><time>2026-04-12T14:12:52.999Z</time></trkpt><trkpt lat="42.49286355414918" lon="11.32914669205949"><ele>22.0</ele><time>2026-04-12T14:12:53.999Z</time></trkpt><trkpt lat="42.49276069738716" lon="11.329193886829454"><ele>22.0</ele><time>2026-04-12T14:12:54.999Z</time></trkpt><trkpt lat="42.49265827157077" lon="11.329240883865754"><ele>22.0</ele><time>2026-04-12T14:12:55.999Z</time></trkpt><trkpt lat="42.492567175359504" lon="11.329282508115696"><ele>22.0</ele><time>2026-04-12T14:12:56.999Z</time></trkpt><trkpt lat="42.49248854206551" lon="11.32931745033766"><ele>22.0</ele><time>2026-04-12T14:12:57.999Z</time></trkpt><trkpt lat="42.4924021059119" lon="11.329355859912107"><ele>22.0</ele><time>2026-04-12T14:12:58.999Z</time></trkpt><trkpt lat="42.492310080388236" lon="11.329396753229469"><ele>22.0</ele><time>2026-04-12T14:12:59.999Z</time></trkpt><trkpt lat="42.492218176494525" lon="11.329436676753147"><ele>22.0</ele><time>2026-04-12T14:13:00.999Z</time></trkpt><trkpt lat="42.49212145481143" lon="11.329478304547067"><ele>22.0</ele><time>2026-04-12T14:13:01.999Z</time></trkpt><trkpt lat="42.49201969864841" lon="11.329532125496682"><ele>22.0</ele><time>2026-04-12T14:13:02.999Z</time></trkpt><trkpt lat="42.49192297953266" lon="11.329588750143774"><ele>22.0</ele><time>2026-04-12T14:13:03.999Z</time></trkpt><trkpt lat="42.49182347311394" lon="11.329637511950695"><ele>22.0</ele><time>2026-04-12T14:13:04.999Z</time></trkpt><trkpt lat="42.49172115308195" lon="11.329687838412239"><ele>22.0</ele><time>2026-04-12T14:13:05.999Z</time></trkpt><trkpt lat="42.491607819477636" lon="11.329742255399303"><ele>22.25</ele><time>2026-04-12T14:13:06.999Z</time></trkpt><trkpt lat="42.49148574222094" lon="11.329800869196603"><ele>22.5</ele><time>2026-04-12T14:13:07.999Z</time></trkpt><trkpt lat="42.491364715629004" lon="11.329858978640212"><ele>22.75</ele><time>2026-04-12T14:13:08.999Z</time></trkpt><trkpt lat="42.4912652470284" lon="11.329906736874857"><ele>23.0</ele><time>2026-04-12T14:13:09.999Z</time></trkpt><trkpt lat="42.491159788410634" lon="11.329957168075486"><ele>23.0</ele><time>2026-04-12T14:13:10.998Z</time></trkpt><trkpt lat="42.49106624358599" lon="11.33000112113206"><ele>23.0</ele><time>2026-04-12T14:13:11.998Z</time></trkpt><trkpt lat="42.490986802840965" lon="11.330038447228176"><ele>23.0</ele><time>2026-04-12T14:13:13Z</time></trkpt><trkpt lat="42.49090557999714" lon="11.330076610666824"><ele>23.0</ele><time>2026-04-12T14:13:14Z</time></trkpt><trkpt lat="42.49083767025995" lon="11.330108518798035"><ele>23.0</ele><time>2026-04-12T14:13:15Z</time></trkpt><trkpt lat="42.490763516716065" lon="11.330143360657798"><ele>23.0</ele><time>2026-04-12T14:13:16Z</time></trkpt><trkpt lat="42.4906936821444" lon="11.330176173180195"><ele>23.0</ele><time>2026-04-12T14:13:17Z</time></trkpt><trkpt lat="42.49062662515078" lon="11.330207680636637"><ele>23.0</ele><time>2026-04-12T14:13:18Z</time></trkpt><trkpt lat="42.49054600419734" lon="11.330245561280645"><ele>23.0</ele><time>2026-04-12T14:13:19Z</time></trkpt><trkpt lat="42.490457656806605" lon="11.33028707226846"><ele>23.0</ele><time>2026-04-12T14:13:20Z</time></trkpt><trkpt lat="42.49036801783058" lon="11.330328377768057"><ele>23.0</ele><time>2026-04-12T14:13:21Z</time></trkpt><trkpt lat="42.49028285810897" lon="11.330366433080618"><ele>23.0</ele><time>2026-04-12T14:13:22Z</time></trkpt><trkpt lat="42.49021208043837" lon="11.330397969907999"><ele>23.333333333333336</ele><time>2026-04-12T14:13:23Z</time></trkpt><trkpt lat="42.490143807565495" lon="11.330428118053025"><ele>23.666666666666668</ele><time>2026-04-12T14:13:24Z</time></trkpt><trkpt lat="42.49007807590477" lon="11.330457144069062"><ele>24.0</ele><time>2026-04-12T14:13:25Z</time></trkpt><trkpt lat="42.48995328861546" lon="11.330511438212955"><ele>24.333333333333336</ele><time>2026-04-12T14:13:27Z</time></trkpt><trkpt lat="42.48989132026814" lon="11.330538047789771"><ele>24.666666666666668</ele><time>2026-04-12T14:13:28Z</time></trkpt><trkpt lat="42.48979835125479" lon="11.330577969220645"><ele>25.0</ele><time>2026-04-12T14:13:30Z</time></trkpt><trkpt lat="42.48989393532383" lon="11.33106804483368"><ele>25.0</ele><time>2026-04-12T14:13:32Z</time></trkpt><trkpt lat="42.48991857282533" lon="11.331189285958509"><ele>25.0</ele><time>2026-04-12T14:13:33Z</time></trkpt><trkpt lat="42.48995397591164" lon="11.331323777402059"><ele>25.0</ele><time>2026-04-12T14:13:34Z</time></trkpt><trkpt lat="42.48998324904275" lon="11.331460955288895"><ele>25.0</ele><time>2026-04-12T14:13:35Z</time></trkpt><trkpt lat="42.49000743402356" lon="11.331595748459426"><ele>25.0</ele><time>2026-04-12T14:13:36Z</time></trkpt><trkpt lat="42.49002982357947" lon="11.331741074374573"><ele>25.0</ele><time>2026-04-12T14:13:37Z</time></trkpt><trkpt lat="42.490047965987934" lon="11.331886216255587"><ele>25.0</ele><time>2026-04-12T14:13:38Z</time></trkpt><trkpt lat="42.49007070748985" lon="11.332041385411156"><ele>25.0</ele><time>2026-04-12T14:13:39Z</time></trkpt><trkpt lat="42.490093305804415" lon="11.332191856648285"><ele>25.0</ele><time>2026-04-12T14:13:40Z</time></trkpt><trkpt lat="42.49011510089136" lon="11.33236308929632"><ele>25.0</ele><time>2026-04-12T14:13:41Z</time></trkpt><trkpt lat="42.490133774109594" lon="11.332539889550851"><ele>25.0</ele><time>2026-04-12T14:13:42Z</time></trkpt><trkpt lat="42.490160131277506" lon="11.332708244164662"><ele>25.0</ele><time>2026-04-12T14:13:43Z</time></trkpt><trkpt lat="42.49018698918831" lon="11.332875687736493"><ele>25.0</ele><time>2026-04-12T14:13:44Z</time></trkpt><trkpt lat="42.490208381009204" lon="11.333046673546018"><ele>24.25</ele><time>2026-04-12T14:13:45Z</time></trkpt><trkpt lat="42.49023819227266" lon="11.33323866615321"><ele>23.5</ele><time>2026-04-12T14:13:46Z</time></trkpt><trkpt lat="42.490264361695225" lon="11.333426628701826"><ele>22.75</ele><time>2026-04-12T14:13:47Z</time></trkpt><trkpt lat="42.4902888792704" lon="11.333602971590585"><ele>22.0</ele><time>2026-04-12T14:13:48Z</time></trkpt><trkpt lat="42.4903112263894" lon="11.33376769573268"><ele>21.8</ele><time>2026-04-12T14:13:49Z</time></trkpt><trkpt lat="42.49032389965668" lon="11.333922307911392"><ele>21.6</ele><time>2026-04-12T14:13:50Z</time></trkpt><trkpt lat="42.49034562535216" lon="11.334072223505869"><ele>21.400000000000002</ele><time>2026-04-12T14:13:51Z</time></trkpt><trkpt lat="42.4903654004983" lon="11.334208139566966"><ele>21.200000000000003</ele><time>2026-04-12T14:13:52Z</time></trkpt><trkpt lat="42.49037609627754" lon="11.334324590159595"><ele>21.0</ele><time>2026-04-12T14:13:53Z</time></trkpt><trkpt lat="42.490391710319685" lon="11.334438086883534"><ele>21.0</ele><time>2026-04-12T14:13:54Z</time></trkpt><trkpt lat="42.49040880302051" lon="11.334551978670094"><ele>21.0</ele><time>2026-04-12T14:13:55Z</time></trkpt><trkpt lat="42.49042204408472" lon="11.334691659477595"><ele>21.0</ele><time>2026-04-12T14:13:56Z</time></trkpt><trkpt lat="42.49044394319148" lon="11.334827366397633"><ele>21.0</ele><time>2026-04-12T14:13:57Z</time></trkpt><trkpt lat="42.49046451128814" lon="11.334961887244212"><ele>21.0</ele><time>2026-04-12T14:13:58Z</time></trkpt><trkpt lat="42.49048980190391" lon="11.335099491192251"><ele>20.6</ele><time>2026-04-12T14:13:59Z</time></trkpt><trkpt lat="42.490515635137704" lon="11.335238870024776"><ele>20.200000000000003</ele><time>2026-04-12T14:14:00Z</time></trkpt><trkpt lat="42.490543465290415" lon="11.335387907454031"><ele>19.799999999999997</ele><time>2026-04-12T14:14:01Z</time></trkpt><trkpt lat="42.49056867953467" lon="11.335530336257222"><ele>19.4</ele><time>2026-04-12T14:14:02Z</time></trkpt><trkpt lat="42.490610447199685" lon="11.335662738733353"><ele>19.0</ele><time>2026-04-12T14:14:03Z</time></trkpt><trkpt lat="42.49064876047202" lon="11.335796514952266"><ele>19.0</ele><time>2026-04-12T14:14:04Z</time></trkpt><trkpt lat="42.490673804169234" lon="11.335921969384733"><ele>19.0</ele><time>2026-04-12T14:14:05Z</time></trkpt><trkpt lat="42.49070187031461" lon="11.336058258753894"><ele>19.0</ele><time>2026-04-12T14:14:06Z</time></trkpt><trkpt lat="42.49072938952143" lon="11.336200697298407"><ele>19.0</ele><time>2026-04-12T14:14:07Z</time></trkpt><trkpt lat="42.490755919093154" lon="11.336338598947043"><ele>19.0</ele><time>2026-04-12T14:14:08Z</time></trkpt><trkpt lat="42.49077948933758" lon="11.336485572063248"><ele>19.0</ele><time>2026-04-12T14:14:09Z</time></trkpt><trkpt lat="42.490797736094684" lon="11.336631917964397"><ele>19.0</ele><time>2026-04-12T14:14:10Z</time></trkpt><trkpt lat="42.49081798311012" lon="11.33678988864725"><ele>19.0</ele><time>2026-04-12T14:14:11Z</time></trkpt><trkpt lat="42.490838317127235" lon="11.336922098610026"><ele>19.0</ele><time>2026-04-12T14:14:12Z</time></trkpt><trkpt lat="42.49086357798442" lon="11.337075737899253"><ele>19.0</ele><time>2026-04-12T14:14:13Z</time></trkpt><trkpt lat="42.490881514901496" lon="11.337202705086417"><ele>19.333333333333332</ele><time>2026-04-12T14:14:13.999Z</time></trkpt><trkpt lat="42.4908967370605" lon="11.337324487251458"><ele>19.666666666666664</ele><time>2026-04-12T14:14:14.999Z</time></trkpt><trkpt lat="42.490908477872836" lon="11.337429236998405"><ele>20.0</ele><time>2026-04-12T14:14:15.999Z</time></trkpt><trkpt lat="42.49092490015383" lon="11.337530585421566"><ele>20.333333333333332</ele><time>2026-04-12T14:14:16.999Z</time></trkpt><trkpt lat="42.49094834897455" lon="11.337649696968164"><ele>20.666666666666668</ele><time>2026-04-12T14:14:17.999Z</time></trkpt><trkpt lat="42.49096297526097" lon="11.337770875469174"><ele>21.0</ele><time>2026-04-12T14:14:18.999Z</time></trkpt><trkpt lat="42.49097780179824" lon="11.337917403557952"><ele>21.0</ele><time>2026-04-12T14:14:19.999Z</time></trkpt><trkpt lat="42.49099390742883" lon="11.338063618341964"><ele>21.0</ele><time>2026-04-12T14:14:20.999Z</time></trkpt><trkpt lat="42.49100729058091" lon="11.338222542835402"><ele>21.0</ele><time>2026-04-12T14:14:21.999Z</time></trkpt><trkpt lat="42.49103149949328" lon="11.33837018987567"><ele>21.0</ele><time>2026-04-12T14:14:22.999Z</time></trkpt><trkpt lat="42.49104506959774" lon="11.338515580132094"><ele>21.0</ele><time>2026-04-12T14:14:23.999Z</time></trkpt><trkpt lat="42.491064594125696" lon="11.338648730299816"><ele>21.0</ele><time>2026-04-12T14:14:24.999Z</time></trkpt><trkpt lat="42.49108016495138" lon="11.338794285246824"><ele>21.0</ele><time>2026-04-12T14:14:25.999Z</time></trkpt><trkpt lat="42.49110393309373" lon="11.338942597792098"><ele>21.0</ele><time>2026-04-12T14:14:26.999Z</time></trkpt><trkpt lat="42.491118087683034" lon="11.339096830781948"><ele>21.0</ele><time>2026-04-12T14:14:27.999Z</time></trkpt><trkpt lat="42.49113433040666" lon="11.339245036424483"><ele>21.0</ele><time>2026-04-12T14:14:28.999Z</time></trkpt><trkpt lat="42.49113905015368" lon="11.339382475228394"><ele>20.6</ele><time>2026-04-12T14:14:29.999Z</time></trkpt><trkpt lat="42.491143081878185" lon="11.339511606672044"><ele>20.200000000000003</ele><time>2026-04-12T14:14:30.999Z</time></trkpt><trkpt lat="42.49115289537599" lon="11.33962234491944"><ele>19.799999999999997</ele><time>2026-04-12T14:14:31.999Z</time></trkpt><trkpt lat="42.49116479152885" lon="11.339742651494403"><ele>19.4</ele><time>2026-04-12T14:14:32.999Z</time></trkpt><trkpt lat="42.49115535568891" lon="11.339874531785947"><ele>19.0</ele><time>2026-04-12T14:14:33.999Z</time></trkpt><trkpt lat="42.49113550463755" lon="11.33998933751228"><ele>18.8</ele><time>2026-04-12T14:14:34.999Z</time></trkpt><trkpt lat="42.491092637933995" lon="11.340095392504733"><ele>18.599999999999998</ele><time>2026-04-12T14:14:35.999Z</time></trkpt><trkpt lat="42.49103086124704" lon="11.340193516600788"><ele>18.4</ele><time>2026-04-12T14:14:36.999Z</time></trkpt><trkpt lat="42.490949081984155" lon="11.340270920086956"><ele>18.2</ele><time>2026-04-12T14:14:37.999Z</time></trkpt><trkpt lat="42.49086115930835" lon="11.340350405681235"><ele>18.0</ele><time>2026-04-12T14:14:38.999Z</time></trkpt><trkpt lat="42.49078827162156" lon="11.340434821881717"><ele>18.0</ele><time>2026-04-12T14:14:39.999Z</time></trkpt><trkpt lat="42.4907132861936" lon="11.340528828680284"><ele>18.0</ele><time>2026-04-12T14:14:40.999Z</time></trkpt><trkpt lat="42.49064055336757" lon="11.340616216272714"><ele>18.0</ele><time>2026-04-12T14:14:41.999Z</time></trkpt><trkpt lat="42.49056982080388" lon="11.34069527263641"><ele>18.0</ele><time>2026-04-12T14:14:42.999Z</time></trkpt><trkpt lat="42.49050857268292" lon="11.34075913206337"><ele>18.0</ele><time>2026-04-12T14:14:43.999Z</time></trkpt><trkpt lat="42.490450337387564" lon="11.340850595171945"><ele>18.166666666666668</ele><time>2026-04-12T14:14:44.999Z</time></trkpt><trkpt lat="42.49038312465515" lon="11.340927280902578"><ele>18.333333333333332</ele><time>2026-04-12T14:14:45.999Z</time></trkpt><trkpt lat="42.49031948046522" lon="11.34100266408843"><ele>18.5</ele><time>2026-04-12T14:14:46.999Z</time></trkpt><trkpt lat="42.49026615303273" lon="11.341071752249952"><ele>18.666666666666664</ele><time>2026-04-12T14:14:47.999Z</time></trkpt><trkpt lat="42.49021899931886" lon="11.341137297809261"><ele>18.833333333333332</ele><time>2026-04-12T14:14:48.999Z</time></trkpt><trkpt lat="42.490107455712" lon="11.341206899599076"><ele>19.0</ele><time>2026-04-12T14:14:50.999Z</time></trkpt><trkpt lat="42.48998786750163" lon="11.341249999162496"><ele>19.0</ele><time>2026-04-12T14:14:52.999Z</time></trkpt><trkpt lat="42.48991284405346" lon="11.341306047053488"><ele>19.0</ele><time>2026-04-12T14:14:54.999Z</time></trkpt><trkpt lat="42.48985411202073" lon="11.34136454805648"><ele>19.0</ele><time>2026-04-12T14:14:56.999Z</time></trkpt><trkpt lat="42.489789016737916" lon="11.341427490765392"><ele>19.0</ele><time>2026-04-12T14:14:58.999Z</time></trkpt><trkpt lat="42.48973333186738" lon="11.341488026740763"><ele>19.0</ele><time>2026-04-12T14:15:00.999Z</time></trkpt><trkpt lat="42.4896625521168" lon="11.34159599830578"><ele>19.0</ele><time>2026-04-12T14:17:16.999Z</time></trkpt><trkpt lat="42.48961750153316" lon="11.341657573295539"><ele>19.5</ele><time>2026-04-12T14:17:17.999Z</time></trkpt><trkpt lat="42.48953310618776" lon="11.341787564475746"><ele>20.0</ele><time>2026-04-12T14:17:19.999Z</time></trkpt><trkpt lat="42.48948341195836" lon="11.34187012093892"><ele>20.5</ele><time>2026-04-12T14:17:20.999Z</time></trkpt><trkpt lat="42.48942339331" lon="11.341951606021812"><ele>21.0</ele><time>2026-04-12T14:17:21.999Z</time></trkpt><trkpt lat="42.48936627221631" lon="11.342022904824374"><ele>21.5</ele><time>2026-04-12T14:17:23Z</time></trkpt><trkpt lat="42.489310934211574" lon="11.342099448209378"><ele>22.0</ele><time>2026-04-12T14:17:24Z</time></trkpt><trkpt lat="42.4892510281555" lon="11.342172724282706"><ele>22.400000000000002</ele><time>2026-04-12T14:17:25Z</time></trkpt><trkpt lat="42.48917866347084" lon="11.342243479216126"><ele>22.8</ele><time>2026-04-12T14:17:26Z</time></trkpt><trkpt lat="42.48910114740908" lon="11.342320711473015"><ele>23.2</ele><time>2026-04-12T14:17:27Z</time></trkpt><trkpt lat="42.489029257154876" lon="11.342416025193218"><ele>23.6</ele><time>2026-04-12T14:17:28Z</time></trkpt><trkpt lat="42.488951712248856" lon="11.342517863116669"><ele>24.0</ele><time>2026-04-12T14:17:29Z</time></trkpt><trkpt lat="42.48886294785354" lon="11.342615507671512"><ele>24.0</ele><time>2026-04-12T14:17:30Z</time></trkpt><trkpt lat="42.48877562882595" lon="11.342725420992394"><ele>24.0</ele><time>2026-04-12T14:17:31Z</time></trkpt><trkpt lat="42.488691636778384" lon="11.342848336121332"><ele>24.0</ele><time>2026-04-12T14:17:32Z</time></trkpt><trkpt lat="42.48859829584323" lon="11.342966288484016"><ele>24.0</ele><time>2026-04-12T14:17:33Z</time></trkpt><trkpt lat="42.48850516900353" lon="11.343086656178405"><ele>24.25</ele><time>2026-04-12T14:17:34Z</time></trkpt><trkpt lat="42.48841593344659" lon="11.343202925134454"><ele>24.5</ele><time>2026-04-12T14:17:35Z</time></trkpt><trkpt lat="42.488326268163235" lon="11.343302120311805"><ele>24.75</ele><time>2026-04-12T14:17:36Z</time></trkpt><trkpt lat="42.48823403125606" lon="11.343411102206003"><ele>25.0</ele><time>2026-04-12T14:17:37Z</time></trkpt><trkpt lat="42.48814839611185" lon="11.343520281754845"><ele>25.0</ele><time>2026-04-12T14:17:38Z</time></trkpt><trkpt lat="42.488081364224456" lon="11.343612770555826"><ele>25.0</ele><time>2026-04-12T14:17:39Z</time></trkpt><trkpt lat="42.48802046215768" lon="11.343710499249514"><ele>25.0</ele><time>2026-04-12T14:17:40Z</time></trkpt><trkpt lat="42.48796963886005" lon="11.343813522915285"><ele>25.0</ele><time>2026-04-12T14:17:41Z</time></trkpt><trkpt lat="42.48793784799602" lon="11.343945245532932"><ele>25.0</ele><time>2026-04-12T14:17:42Z</time></trkpt><trkpt lat="42.4879250963028" lon="11.344089910992738"><ele>25.0</ele><time>2026-04-12T14:17:43Z</time></trkpt><trkpt lat="42.48791164961593" lon="11.344235373638364"><ele>25.0</ele><time>2026-04-12T14:17:44Z</time></trkpt><trkpt lat="42.487901666047286" lon="11.344386710919833"><ele>25.0</ele><time>2026-04-12T14:17:45Z</time></trkpt><trkpt lat="42.48787486043703" lon="11.344537912808127"><ele>25.0</ele><time>2026-04-12T14:17:46Z</time></trkpt><trkpt lat="42.48784519022331" lon="11.344682810491046"><ele>25.0</ele><time>2026-04-12T14:17:47Z</time></trkpt><trkpt lat="42.487830935429734" lon="11.34483406597883"><ele>25.0</ele><time>2026-04-12T14:17:48Z</time></trkpt><trkpt lat="42.4878261386543" lon="11.344992587627319"><ele>25.0</ele><time>2026-04-12T14:17:49Z</time></trkpt><trkpt lat="42.48783433192772" lon="11.345159642978084"><ele>25.0</ele><time>2026-04-12T14:17:50Z</time></trkpt><trkpt lat="42.48784959376198" lon="11.345326535281911"><ele>25.0</ele><time>2026-04-12T14:17:51Z</time></trkpt><trkpt lat="42.48787651884946" lon="11.345488818605178"><ele>25.75</ele><time>2026-04-12T14:17:52Z</time></trkpt><trkpt lat="42.48789029369013" lon="11.345657471870208"><ele>26.5</ele><time>2026-04-12T14:17:53Z</time></trkpt><trkpt lat="42.487899645544324" lon="11.34582387048799"><ele>27.25</ele><time>2026-04-12T14:17:54Z</time></trkpt><trkpt lat="42.4879004379759" lon="11.345971783391343"><ele>28.0</ele><time>2026-04-12T14:17:55Z</time></trkpt><trkpt lat="42.48788748539868" lon="11.346107090595407"><ele>28.0</ele><time>2026-04-12T14:17:56Z</time></trkpt><trkpt lat="42.48786645755442" lon="11.346244062264441"><ele>27.999999999999996</ele><time>2026-04-12T14:17:57Z</time></trkpt><trkpt lat="42.48784113712779" lon="11.346387019184426"><ele>27.999999999999996</ele><time>2026-04-12T14:17:58Z</time></trkpt><trkpt lat="42.48781474707599" lon="11.34652840164133"><ele>28.0</ele><time>2026-04-12T14:17:59Z</time></trkpt><trkpt lat="42.487797639396284" lon="11.346661150173782"><ele>28.0</ele><time>2026-04-12T14:18:00Z</time></trkpt><trkpt lat="42.48779819831826" lon="11.346788453500519"><ele>28.500000000000004</ele><time>2026-04-12T14:18:01Z</time></trkpt><trkpt lat="42.4878206460717" lon="11.346903580103104"><ele>29.0</ele><time>2026-04-12T14:18:02Z</time></trkpt><trkpt lat="42.48784563277815" lon="11.34702346709269"><ele>29.5</ele><time>2026-04-12T14:18:03Z</time></trkpt><trkpt lat="42.48786853424619" lon="11.347136859806962"><ele>30.0</ele><time>2026-04-12T14:18:04Z</time></trkpt><trkpt lat="42.48789506853207" lon="11.347233088847815"><ele>30.500000000000004</ele><time>2026-04-12T14:18:05Z</time></trkpt><trkpt lat="42.48790258505012" lon="11.347322829745922"><ele>31.0</ele><time>2026-04-12T14:18:06Z</time></trkpt><trkpt lat="42.48789050570183" lon="11.34750651416122"><ele>31.4</ele><time>2026-04-12T14:18:08Z</time></trkpt><trkpt lat="42.4878808795487" lon="11.347651787472103"><ele>31.8</ele><time>2026-04-12T14:18:10Z</time></trkpt><trkpt lat="42.48787991050058" lon="11.347800765274902"><ele>32.199999999999996</ele><time>2026-04-12T14:18:12Z</time></trkpt><trkpt lat="42.48788291860061" lon="11.347959542206624"><ele>32.6</ele><time>2026-04-12T14:18:14Z</time></trkpt><trkpt lat="42.48789284987439" lon="11.3480494812218"><ele>33.0</ele><time>2026-04-12T14:18:15Z</time></trkpt><trkpt lat="42.48791536738639" lon="11.348131549924858"><ele>34.599999999999994</ele><time>2026-04-12T14:18:16Z</time></trkpt><trkpt lat="42.487949931006455" lon="11.348282430230197"><ele>36.199999999999996</ele><time>2026-04-12T14:18:18Z</time></trkpt><trkpt lat="42.48795839397626" lon="11.348456148967037"><ele>37.8</ele><time>2026-04-12T14:18:20Z</time></trkpt><trkpt lat="42.48796953996349" lon="11.348627685048887"><ele>39.4</ele><time>2026-04-12T14:18:22Z</time></trkpt><trkpt lat="42.487977205792326" lon="11.348723603305418"><ele>41.0</ele><time>2026-04-12T14:18:23Z</time></trkpt><trkpt lat="42.48798976237075" lon="11.348823609941457"><ele>39.83333333333333</ele><time>2026-04-12T14:18:24Z</time></trkpt><trkpt lat="42.48804893818907" lon="11.348979276815458"><ele>38.666666666666664</ele><time>2026-04-12T14:18:26Z</time></trkpt><trkpt lat="42.48808883846647" lon="11.349057721801163"><ele>37.5</ele><time>2026-04-12T14:18:27Z</time></trkpt><trkpt lat="42.48812490581015" lon="11.349137602206389"><ele>36.333333333333336</ele><time>2026-04-12T14:18:28Z</time></trkpt><trkpt lat="42.488132201076475" lon="11.349223797571465"><ele>35.16666666666667</ele><time>2026-04-12T14:18:29Z</time></trkpt><trkpt lat="42.488149404103424" lon="11.349315125128301"><ele>34.0</ele><time>2026-04-12T14:18:30Z</time></trkpt><trkpt lat="42.4881800211715" lon="11.349478224515254"><ele>34.0</ele><time>2026-04-12T14:18:31.999Z</time></trkpt><trkpt lat="42.48819282630695" lon="11.349572917850152"><ele>34.0</ele><time>2026-04-12T14:18:32.999Z</time></trkpt><trkpt lat="42.48826474371969" lon="11.349743300302396"><ele>34.0</ele><time>2026-04-12T14:18:34.999Z</time></trkpt><trkpt lat="42.488344961773656" lon="11.349799071514262"><ele>34.0</ele><time>2026-04-12T14:18:35.999Z</time></trkpt><trkpt lat="42.48841894425338" lon="11.349858086605353"><ele>34.0</ele><time>2026-04-12T14:18:36.999Z</time></trkpt><trkpt lat="42.48850393959191" lon="11.34991993911277"><ele>33.4</ele><time>2026-04-12T14:18:37.999Z</time></trkpt><trkpt lat="42.488584248379894" lon="11.349997006477238"><ele>32.8</ele><time>2026-04-12T14:18:38.999Z</time></trkpt><trkpt lat="42.488671548793675" lon="11.350067814342719"><ele>32.2</ele><time>2026-04-12T14:18:39.999Z</time></trkpt><trkpt lat="42.48876452145081" lon="11.350144273386835"><ele>31.6</ele><time>2026-04-12T14:18:40.999Z</time></trkpt><trkpt lat="42.48885887675054" lon="11.350215679507826"><ele>31.0</ele><time>2026-04-12T14:18:41.999Z</time></trkpt><trkpt lat="42.488951184144" lon="11.35028430703477"><ele>30.8</ele><time>2026-04-12T14:18:42.999Z</time></trkpt><trkpt lat="42.48903894897132" lon="11.350341041206514"><ele>30.6</ele><time>2026-04-12T14:18:43.999Z</time></trkpt><trkpt lat="42.489129844741974" lon="11.350418177322076"><ele>30.4</ele><time>2026-04-12T14:18:44.999Z</time></trkpt><trkpt lat="42.48922455115374" lon="11.350475887422458"><ele>30.2</ele><time>2026-04-12T14:18:45.999Z</time></trkpt><trkpt lat="42.48932353468947" lon="11.350533626326751"><ele>30.0</ele><time>2026-04-12T14:18:46.999Z</time></trkpt><trkpt lat="42.48942214279074" lon="11.350600205406764"><ele>29.8</ele><time>2026-04-12T14:18:47.999Z</time></trkpt><trkpt lat="42.48952066467901" lon="11.3506630860502"><ele>29.6</ele><time>2026-04-12T14:18:48.999Z</time></trkpt><trkpt lat="42.48960552536961" lon="11.350721394273588"><ele>29.4</ele><time>2026-04-12T14:18:49.999Z</time></trkpt><trkpt lat="42.48968480795268" lon="11.350774692921561"><ele>29.2</ele><time>2026-04-12T14:18:50.999Z</time></trkpt><trkpt lat="42.48976089331656" lon="11.350828916802191"><ele>29.0</ele><time>2026-04-12T14:18:51.999Z</time></trkpt><trkpt lat="42.48982462027448" lon="11.350894851444677"><ele>28.799999999999997</ele><time>2026-04-12T14:18:52.999Z</time></trkpt><trkpt lat="42.489879618416374" lon="11.350981507390564"><ele>28.599999999999998</ele><time>2026-04-12T14:18:53.999Z</time></trkpt><trkpt lat="42.48991564740068" lon="11.351094821962253"><ele>28.4</ele><time>2026-04-12T14:18:54.999Z</time></trkpt><trkpt lat="42.489969556101414" lon="11.351208178207544"><ele>28.2</ele><time>2026-04-12T14:18:55.999Z</time></trkpt><trkpt lat="42.49002723293242" lon="11.351306815159319"><ele>28.0</ele><time>2026-04-12T14:18:56.999Z</time></trkpt><trkpt lat="42.49010680354608" lon="11.351398136358412"><ele>28.75</ele><time>2026-04-12T14:18:57.999Z</time></trkpt><trkpt lat="42.49018611403983" lon="11.351506684657098"><ele>29.5</ele><time>2026-04-12T14:18:58.999Z</time></trkpt><trkpt lat="42.49025882683737" lon="11.351611392594258"><ele>30.25</ele><time>2026-04-12T14:18:59.999Z</time></trkpt><trkpt lat="42.49033207307516" lon="11.35172114728617"><ele>31.0</ele><time>2026-04-12T14:19:00.999Z</time></trkpt><trkpt lat="42.490411986538845" lon="11.351846309324241"><ele>30.0</ele><time>2026-04-12T14:19:01.999Z</time></trkpt><trkpt lat="42.4904875859457" lon="11.351942686150938"><ele>29.0</ele><time>2026-04-12T14:19:02.999Z</time></trkpt><trkpt lat="42.49055741823843" lon="11.352035611357016"><ele>28.0</ele><time>2026-04-12T14:19:03.999Z</time></trkpt><trkpt lat="42.49061324510791" lon="11.352137585623279"><ele>27.0</ele><time>2026-04-12T14:19:04.999Z</time></trkpt><trkpt lat="42.49066169212982" lon="11.352260179566503"><ele>26.0</ele><time>2026-04-12T14:19:05.999Z</time></trkpt><trkpt lat="42.490698827990364" lon="11.352384371762472"><ele>26.0</ele><time>2026-04-12T14:19:06.999Z</time></trkpt><trkpt lat="42.490733086351305" lon="11.352512478533223"><ele>26.0</ele><time>2026-04-12T14:19:07.999Z</time></trkpt><trkpt lat="42.49078172097052" lon="11.35263211067975"><ele>26.0</ele><time>2026-04-12T14:19:08.999Z</time></trkpt><trkpt lat="42.49081299517104" lon="11.352759371753185"><ele>26.0</ele><time>2026-04-12T14:19:09.999Z</time></trkpt><trkpt lat="42.49083661751416" lon="11.352886354106937"><ele>26.0</ele><time>2026-04-12T14:19:10.999Z</time></trkpt><trkpt lat="42.49086586603734" lon="11.353001496488513"><ele>25.8</ele><time>2026-04-12T14:19:11.999Z</time></trkpt><trkpt lat="42.49089061690478" lon="11.353127461746018"><ele>25.6</ele><time>2026-04-12T14:19:12.999Z</time></trkpt><trkpt lat="42.4909038141363" lon="11.353249478448788"><ele>25.4</ele><time>2026-04-12T14:19:13.999Z</time></trkpt><trkpt lat="42.49093130191406" lon="11.353372778876343"><ele>25.2</ele><time>2026-04-12T14:19:14.999Z</time></trkpt><trkpt lat="42.49095710343218" lon="11.353499414734875"><ele>25.0</ele><time>2026-04-12T14:19:15.999Z</time></trkpt><trkpt lat="42.49097121940276" lon="11.353625138253905"><ele>25.000000000000004</ele><time>2026-04-12T14:19:16.999Z</time></trkpt><trkpt lat="42.49100862293278" lon="11.353752391525338"><ele>25.0</ele><time>2026-04-12T14:19:17.999Z</time></trkpt><trkpt lat="42.491012898819456" lon="11.353879447207058"><ele>25.0</ele><time>2026-04-12T14:19:18.999Z</time></trkpt><trkpt lat="42.491046847406714" lon="11.353988558249183"><ele>25.0</ele><time>2026-04-12T14:19:19.999Z</time></trkpt><trkpt lat="42.491047975836565" lon="11.354100791170044"><ele>25.000000000000004</ele><time>2026-04-12T14:19:20.999Z</time></trkpt><trkpt lat="42.49106328419642" lon="11.35419739041465"><ele>25.0</ele><time>2026-04-12T14:19:21.999Z</time></trkpt><trkpt lat="42.49109372838399" lon="11.35428047592212"><ele>25.2</ele><time>2026-04-12T14:19:22.999Z</time></trkpt><trkpt lat="42.491119558216134" lon="11.354410245726456"><ele>25.4</ele><time>2026-04-12T14:19:24.999Z</time></trkpt><trkpt lat="42.49114270052216" lon="11.354529470460895"><ele>25.6</ele><time>2026-04-12T14:19:28Z</time></trkpt><trkpt lat="42.491089795217846" lon="11.354663028108622"><ele>25.8</ele><time>2026-04-12T14:19:30Z</time></trkpt><trkpt lat="42.49103968841907" lon="11.3547486808006"><ele>26.0</ele><time>2026-04-12T14:19:31Z</time></trkpt><trkpt lat="42.4909861728191" lon="11.354856123968295"><ele>25.5</ele><time>2026-04-12T14:19:32Z</time></trkpt><trkpt lat="42.49092889111452" lon="11.354973868863238"><ele>25.0</ele><time>2026-04-12T14:19:33Z</time></trkpt><trkpt lat="42.490871269694075" lon="11.355096466346367"><ele>24.5</ele><time>2026-04-12T14:19:34Z</time></trkpt><trkpt lat="42.49080657006209" lon="11.355230627232764"><ele>24.0</ele><time>2026-04-12T14:19:35Z</time></trkpt><trkpt lat="42.49074185956927" lon="11.355380953930599"><ele>24.0</ele><time>2026-04-12T14:19:36Z</time></trkpt><trkpt lat="42.490663914719946" lon="11.355535432625475"><ele>24.0</ele><time>2026-04-12T14:19:37Z</time></trkpt><trkpt lat="42.490589801830964" lon="11.355689464271963"><ele>24.0</ele><time>2026-04-12T14:19:38Z</time></trkpt><trkpt lat="42.49051119708617" lon="11.355853496961549"><ele>24.0</ele><time>2026-04-12T14:19:39Z</time></trkpt><trkpt lat="42.49043116550843" lon="11.356016340907685"><ele>25.666666666666664</ele><time>2026-04-12T14:19:40Z</time></trkpt><trkpt lat="42.49034391979581" lon="11.356187542586753"><ele>27.333333333333332</ele><time>2026-04-12T14:19:41Z</time></trkpt><trkpt lat="42.49025818371916" lon="11.35636152442522"><ele>29.0</ele><time>2026-04-12T14:19:42Z</time></trkpt><trkpt lat="42.49017434898007" lon="11.356547984321171"><ele>29.333333333333332</ele><time>2026-04-12T14:19:43Z</time></trkpt><trkpt lat="42.49009430240401" lon="11.356720137528116"><ele>29.666666666666664</ele><time>2026-04-12T14:19:44Z</time></trkpt><trkpt lat="42.48999963415349" lon="11.356904620683244"><ele>30.0</ele><time>2026-04-12T14:19:45Z</time></trkpt><trkpt lat="42.48991099619774" lon="11.357092860335474"><ele>29.0</ele><time>2026-04-12T14:19:46Z</time></trkpt><trkpt lat="42.48983090247493" lon="11.357270510028144"><ele>28.0</ele><time>2026-04-12T14:19:47Z</time></trkpt><trkpt lat="42.489737357965815" lon="11.35745599188995"><ele>27.0</ele><time>2026-04-12T14:19:48Z</time></trkpt><trkpt lat="42.489651228356365" lon="11.357631039546712"><ele>28.666666666666664</ele><time>2026-04-12T14:19:49Z</time></trkpt><trkpt lat="42.489563476882154" lon="11.357810665570854"><ele>30.333333333333332</ele><time>2026-04-12T14:19:50Z</time></trkpt><trkpt lat="42.4894777189645" lon="11.357989843225916"><ele>32.0</ele><time>2026-04-12T14:19:51Z</time></trkpt><trkpt lat="42.48938887917161" lon="11.358170952622602"><ele>32.33333333333333</ele><time>2026-04-12T14:19:52Z</time></trkpt><trkpt lat="42.48930235379953" lon="11.358348899782102"><ele>32.666666666666664</ele><time>2026-04-12T14:19:53Z</time></trkpt><trkpt lat="42.489213905135685" lon="11.358524304598332"><ele>33.0</ele><time>2026-04-12T14:19:54Z</time></trkpt><trkpt lat="42.489128207075524" lon="11.358695756553846"><ele>32.666666666666664</ele><time>2026-04-12T14:19:55Z</time></trkpt><trkpt lat="42.4890381283395" lon="11.358884592833382"><ele>32.33333333333333</ele><time>2026-04-12T14:19:56Z</time></trkpt><trkpt lat="42.48895291577168" lon="11.359060019682444"><ele>32.0</ele><time>2026-04-12T14:19:57Z</time></trkpt><trkpt lat="42.48886722103517" lon="11.359243155361865"><ele>32.0</ele><time>2026-04-12T14:19:58Z</time></trkpt><trkpt lat="42.488781430119396" lon="11.359428405504424"><ele>32.0</ele><time>2026-04-12T14:19:59Z</time></trkpt><trkpt lat="42.48869617855956" lon="11.359605750819293"><ele>32.0</ele><time>2026-04-12T14:20:00Z</time></trkpt><trkpt lat="42.48860938270764" lon="11.359784225482242"><ele>33.0</ele><time>2026-04-12T14:20:01Z</time></trkpt><trkpt lat="42.48851279803879" lon="11.359951046764598"><ele>34.0</ele><time>2026-04-12T14:20:02Z</time></trkpt><trkpt lat="42.48843104684233" lon="11.360120538336895"><ele>35.0</ele><time>2026-04-12T14:20:03Z</time></trkpt><trkpt lat="42.48834634791263" lon="11.360296141217407"><ele>35.0</ele><time>2026-04-12T14:20:04Z</time></trkpt><trkpt lat="42.488268201542155" lon="11.360457962509678"><ele>35.0</ele><time>2026-04-12T14:20:05Z</time></trkpt><trkpt lat="42.488197961388174" lon="11.360635805494192"><ele>35.0</ele><time>2026-04-12T14:20:06Z</time></trkpt><trkpt lat="42.48811454616014" lon="11.360810300946223"><ele>35.0</ele><time>2026-04-12T14:20:07Z</time></trkpt><trkpt lat="42.48802017970499" lon="11.360969722265096"><ele>34.666666666666664</ele><time>2026-04-12T14:20:08Z</time></trkpt><trkpt lat="42.4879338707354" lon="11.36114800384999"><ele>34.333333333333336</ele><time>2026-04-12T14:20:09Z</time></trkpt><trkpt lat="42.48784717540743" lon="11.361328022292438"><ele>34.0</ele><time>2026-04-12T14:20:10Z</time></trkpt><trkpt lat="42.48777062326858" lon="11.361526976031325"><ele>33.0</ele><time>2026-04-12T14:20:11Z</time></trkpt><trkpt lat="42.487669189194186" lon="11.361715511968349"><ele>32.0</ele><time>2026-04-12T14:20:12Z</time></trkpt><trkpt lat="42.48757533335459" lon="11.361912180090494"><ele>31.0</ele><time>2026-04-12T14:20:13Z</time></trkpt><trkpt lat="42.48748285832187" lon="11.362112656090948"><ele>30.666666666666668</ele><time>2026-04-12T14:20:14Z</time></trkpt><trkpt lat="42.48738674380652" lon="11.362304630541503"><ele>30.333333333333336</ele><time>2026-04-12T14:20:15Z</time></trkpt><trkpt lat="42.487288570579295" lon="11.362494240750008"><ele>30.0</ele><time>2026-04-12T14:20:16Z</time></trkpt><trkpt lat="42.48719224490236" lon="11.362687216457752"><ele>30.0</ele><time>2026-04-12T14:20:17Z</time></trkpt><trkpt lat="42.487095901624556" lon="11.362884585093312"><ele>30.0</ele><time>2026-04-12T14:20:18Z</time></trkpt><trkpt lat="42.487002160467924" lon="11.363082069476075"><ele>30.0</ele><time>2026-04-12T14:20:19Z</time></trkpt><trkpt lat="42.48690771614658" lon="11.363282539502"><ele>30.0</ele><time>2026-04-12T14:20:20Z</time></trkpt><trkpt lat="42.48681127465556" lon="11.363472897799285"><ele>30.0</ele><time>2026-04-12T14:20:21Z</time></trkpt><trkpt lat="42.48671266794289" lon="11.363669669906779"><ele>30.0</ele><time>2026-04-12T14:20:22Z</time></trkpt><trkpt lat="42.486613855188146" lon="11.36386583472785"><ele>30.0</ele><time>2026-04-12T14:20:23Z</time></trkpt><trkpt lat="42.486517811113174" lon="11.36406561321006"><ele>30.0</ele><time>2026-04-12T14:20:24Z</time></trkpt><trkpt lat="42.48641843913748" lon="11.364259275343537"><ele>30.0</ele><time>2026-04-12T14:20:25Z</time></trkpt><trkpt lat="42.48632612096575" lon="11.364464195978224"><ele>30.0</ele><time>2026-04-12T14:20:26Z</time></trkpt><trkpt lat="42.486228050809075" lon="11.364655115606189"><ele>30.0</ele><time>2026-04-12T14:20:27Z</time></trkpt><trkpt lat="42.486133579571565" lon="11.364851709174161"><ele>30.0</ele><time>2026-04-12T14:20:28Z</time></trkpt><trkpt lat="42.48603383014232" lon="11.365048565992314"><ele>30.0</ele><time>2026-04-12T14:20:29Z</time></trkpt><trkpt lat="42.4859378142934" lon="11.365253704583104"><ele>30.0</ele><time>2026-04-12T14:20:30Z</time></trkpt><trkpt lat="42.48584237918558" lon="11.365440730856303"><ele>30.0</ele><time>2026-04-12T14:20:31Z</time></trkpt><trkpt lat="42.48574515538372" lon="11.365645956283418"><ele>30.333333333333336</ele><time>2026-04-12T14:20:32Z</time></trkpt><trkpt lat="42.485648902021076" lon="11.365840310203884"><ele>30.666666666666668</ele><time>2026-04-12T14:20:33Z</time></trkpt><trkpt lat="42.48555496228887" lon="11.366026867207761"><ele>31.0</ele><time>2026-04-12T14:20:34Z</time></trkpt><trkpt lat="42.485461721069306" lon="11.366220605886143"><ele>32.0</ele><time>2026-04-12T14:20:35Z</time></trkpt><trkpt lat="42.48536950152812" lon="11.366419745771177"><ele>33.0</ele><time>2026-04-12T14:20:36Z</time></trkpt><trkpt lat="42.485273823704844" lon="11.366600087965182"><ele>34.0</ele><time>2026-04-12T14:20:37Z</time></trkpt><trkpt lat="42.485180396465104" lon="11.366783804368726"><ele>34.0</ele><time>2026-04-12T14:20:37.999Z</time></trkpt><trkpt lat="42.48509019221241" lon="11.366976246339544"><ele>34.0</ele><time>2026-04-12T14:20:38.999Z</time></trkpt><trkpt lat="42.48499135081184" lon="11.367154458885075"><ele>34.0</ele><time>2026-04-12T14:20:39.999Z</time></trkpt><trkpt lat="42.484898530008856" lon="11.367343594353233"><ele>33.66666666666667</ele><time>2026-04-12T14:20:40.999Z</time></trkpt><trkpt lat="42.48481695336113" lon="11.36754483680224"><ele>33.333333333333336</ele><time>2026-04-12T14:20:41.999Z</time></trkpt><trkpt lat="42.48471904956948" lon="11.36774024742136"><ele>33.0</ele><time>2026-04-12T14:20:42.999Z</time></trkpt><trkpt lat="42.484619952966526" lon="11.36794253709952"><ele>33.666666666666664</ele><time>2026-04-12T14:20:43.999Z</time></trkpt><trkpt lat="42.484520072923374" lon="11.368148953172918"><ele>34.33333333333333</ele><time>2026-04-12T14:20:44.999Z</time></trkpt><trkpt lat="42.484416207947106" lon="11.368355090509159"><ele>35.0</ele><time>2026-04-12T14:20:45.999Z</time></trkpt><trkpt lat="42.48430908217718" lon="11.368575483237054"><ele>35.0</ele><time>2026-04-12T14:20:46.999Z</time></trkpt><trkpt lat="42.484197959433196" lon="11.368805846708684"><ele>35.0</ele><time>2026-04-12T14:20:47.999Z</time></trkpt><trkpt lat="42.48409413361532" lon="11.369018966175355"><ele>35.0</ele><time>2026-04-12T14:20:48.999Z</time></trkpt><trkpt lat="42.483977196990104" lon="11.369220232014515"><ele>35.0</ele><time>2026-04-12T14:20:49.999Z</time></trkpt><trkpt lat="42.48387649096954" lon="11.369426265932221"><ele>35.0</ele><time>2026-04-12T14:20:50.999Z</time></trkpt><trkpt lat="42.48379119993185" lon="11.369634992363624"><ele>35.0</ele><time>2026-04-12T14:20:51.999Z</time></trkpt><trkpt lat="42.48369184488084" lon="11.369820182176692"><ele>35.666666666666664</ele><time>2026-04-12T14:20:52.999Z</time></trkpt><trkpt lat="42.48361054422177" lon="11.370009908982926"><ele>36.333333333333336</ele><time>2026-04-12T14:20:53.999Z</time></trkpt><trkpt lat="42.48352595201741" lon="11.370180339200658"><ele>37.0</ele><time>2026-04-12T14:20:54.999Z</time></trkpt><trkpt lat="42.48343996133937" lon="11.370351204958283"><ele>37.0</ele><time>2026-04-12T14:20:55.999Z</time></trkpt><trkpt lat="42.483351261879534" lon="11.370515378769822"><ele>37.0</ele><time>2026-04-12T14:20:56.999Z</time></trkpt><trkpt lat="42.483270464471566" lon="11.370692238714133"><ele>37.0</ele><time>2026-04-12T14:20:57.999Z</time></trkpt><trkpt lat="42.48317181395553" lon="11.370864606963544"><ele>36.66666666666667</ele><time>2026-04-12T14:20:58.999Z</time></trkpt><trkpt lat="42.48308409774424" lon="11.371042831009587"><ele>36.333333333333336</ele><time>2026-04-12T14:20:59.999Z</time></trkpt><trkpt lat="42.4829932181465" lon="11.37122748250209"><ele>36.0</ele><time>2026-04-12T14:21:00.999Z</time></trkpt><trkpt lat="42.48291641393103" lon="11.371439513703677"><ele>38.0</ele><time>2026-04-12T14:21:01.999Z</time></trkpt><trkpt lat="42.48281819406257" lon="11.371631950787064"><ele>40.0</ele><time>2026-04-12T14:21:02.999Z</time></trkpt><trkpt lat="42.48272274287159" lon="11.371830192429227"><ele>42.0</ele><time>2026-04-12T14:21:03.999Z</time></trkpt><trkpt lat="42.482633366641444" lon="11.372040197048719"><ele>43.0</ele><time>2026-04-12T14:21:04.999Z</time></trkpt><trkpt lat="42.48256084722843" lon="11.372263777975395"><ele>44.0</ele><time>2026-04-12T14:21:05.999Z</time></trkpt><trkpt lat="42.482491791561706" lon="11.37248762460611"><ele>45.0</ele><time>2026-04-12T14:21:06.999Z</time></trkpt><trkpt lat="42.48242219766217" lon="11.37271903466418"><ele>45.0</ele><time>2026-04-12T14:21:07.999Z</time></trkpt><trkpt lat="42.48234797915604" lon="11.372945878896116"><ele>45.0</ele><time>2026-04-12T14:21:08.999Z</time></trkpt><trkpt lat="42.48226987756329" lon="11.373173742978084"><ele>45.0</ele><time>2026-04-12T14:21:09.999Z</time></trkpt><trkpt lat="42.48219008681782" lon="11.373402606404229"><ele>45.333333333333336</ele><time>2026-04-12T14:21:10.999Z</time></trkpt><trkpt lat="42.482114009860304" lon="11.373639794997652"><ele>45.66666666666667</ele><time>2026-04-12T14:21:11.999Z</time></trkpt><trkpt lat="42.48203570767053" lon="11.373878982398683"><ele>46.0</ele><time>2026-04-12T14:21:12.999Z</time></trkpt><trkpt lat="42.48194662165432" lon="11.374111682100944"><ele>47.66666666666667</ele><time>2026-04-12T14:21:13.999Z</time></trkpt><trkpt lat="42.48184138481228" lon="11.37432981459522"><ele>49.333333333333336</ele><time>2026-04-12T14:21:14.999Z</time></trkpt><trkpt lat="42.48172051657091" lon="11.374533523713112"><ele>51.0</ele><time>2026-04-12T14:21:15.999Z</time></trkpt><trkpt lat="42.48161042745405" lon="11.374725340743298"><ele>51.0</ele><time>2026-04-12T14:21:16.999Z</time></trkpt><trkpt lat="42.48151325224647" lon="11.374912287869432"><ele>51.0</ele><time>2026-04-12T14:21:17.999Z</time></trkpt><trkpt lat="42.48142456102358" lon="11.375090985680549"><ele>51.0</ele><time>2026-04-12T14:21:18.999Z</time></trkpt><trkpt lat="42.48130360918805" lon="11.375280228451413"><ele>53.0</ele><time>2026-04-12T14:21:19.999Z</time></trkpt><trkpt lat="42.48117141909893" lon="11.375468898847826"><ele>55.0</ele><time>2026-04-12T14:21:20.999Z</time></trkpt><trkpt lat="42.48106147005178" lon="11.375647695740978"><ele>57.0</ele><time>2026-04-12T14:21:21.999Z</time></trkpt><trkpt lat="42.480956281316104" lon="11.375825485901032"><ele>57.0</ele><time>2026-04-12T14:21:22.999Z</time></trkpt><trkpt lat="42.480850009551794" lon="11.376002373493025"><ele>57.0</ele><time>2026-04-12T14:21:23.999Z</time></trkpt><trkpt lat="42.480741948494256" lon="11.376176640750817"><ele>57.0</ele><time>2026-04-12T14:21:24.999Z</time></trkpt><trkpt lat="42.480638694298946" lon="11.376367631310414"><ele>56.33333333333333</ele><time>2026-04-12T14:21:25.999Z</time></trkpt><trkpt lat="42.48054432093975" lon="11.376568323459844"><ele>55.666666666666664</ele><time>2026-04-12T14:21:26.999Z</time></trkpt><trkpt lat="42.48046406675425" lon="11.376784215679828"><ele>55.0</ele><time>2026-04-12T14:21:27.999Z</time></trkpt><trkpt lat="42.48039272093796" lon="11.377000078093955"><ele>55.0</ele><time>2026-04-12T14:21:28.999Z</time></trkpt><trkpt lat="42.48032148308997" lon="11.377222243929655"><ele>55.0</ele><time>2026-04-12T14:21:29.999Z</time></trkpt><trkpt lat="42.480249600166395" lon="11.377448321690629"><ele>55.0</ele><time>2026-04-12T14:21:30.999Z</time></trkpt><trkpt lat="42.4801686108746" lon="11.377661740852188"><ele>55.0</ele><time>2026-04-12T14:21:31.999Z</time></trkpt><trkpt lat="42.480075311504464" lon="11.377859420208315"><ele>55.0</ele><time>2026-04-12T14:21:32.999Z</time></trkpt><trkpt lat="42.479979100530024" lon="11.378062183788202"><ele>55.0</ele><time>2026-04-12T14:21:34Z</time></trkpt><trkpt lat="42.47988683917028" lon="11.378266456082278"><ele>54.0</ele><time>2026-04-12T14:21:35Z</time></trkpt><trkpt lat="42.47979776553126" lon="11.378463960161966"><ele>53.0</ele><time>2026-04-12T14:21:36Z</time></trkpt><trkpt lat="42.47970910046866" lon="11.378661932707649"><ele>52.0</ele><time>2026-04-12T14:21:37Z</time></trkpt><trkpt lat="42.479623304119016" lon="11.37884941451052"><ele>52.25</ele><time>2026-04-12T14:21:38Z</time></trkpt><trkpt lat="42.47953974082318" lon="11.37902061560104"><ele>52.5</ele><time>2026-04-12T14:21:39Z</time></trkpt><trkpt lat="42.479461757649936" lon="11.379184553422045"><ele>52.75</ele><time>2026-04-12T14:21:40Z</time></trkpt><trkpt lat="42.47938619188507" lon="11.37934858035889"><ele>53.0</ele><time>2026-04-12T14:21:41Z</time></trkpt><trkpt lat="42.47931290738838" lon="11.37950920608829"><ele>53.0</ele><time>2026-04-12T14:21:42Z</time></trkpt><trkpt lat="42.47924331924428" lon="11.379668260538223"><ele>53.0</ele><time>2026-04-12T14:21:43Z</time></trkpt><trkpt lat="42.47917787845933" lon="11.379818904426665"><ele>53.0</ele><time>2026-04-12T14:21:44Z</time></trkpt><trkpt lat="42.479116996803256" lon="11.379950801284442"><ele>53.0</ele><time>2026-04-12T14:21:45Z</time></trkpt><trkpt lat="42.479068516423766" lon="11.380066754456228"><ele>51.8</ele><time>2026-04-12T14:21:46Z</time></trkpt><trkpt lat="42.479034571642565" lon="11.380157741349532"><ele>50.599999999999994</ele><time>2026-04-12T14:21:47Z</time></trkpt><trkpt lat="42.47895416934014" lon="11.38028782920658"><ele>49.400000000000006</ele><time>2026-04-12T14:21:49Z</time></trkpt><trkpt lat="42.478845539581464" lon="11.380415501582009"><ele>48.2</ele><time>2026-04-12T14:21:51Z</time></trkpt><trkpt lat="42.478770878046014" lon="11.380494187548514"><ele>47.0</ele><time>2026-04-12T14:21:52Z</time></trkpt><trkpt lat="42.47869932517819" lon="11.38057371542827"><ele>45.8</ele><time>2026-04-12T14:21:53Z</time></trkpt><trkpt lat="42.47862232173119" lon="11.380653714778454"><ele>44.6</ele><time>2026-04-12T14:21:54Z</time></trkpt><trkpt lat="42.47853610636832" lon="11.380720312351329"><ele>43.4</ele><time>2026-04-12T14:21:55Z</time></trkpt><trkpt lat="42.47845189054447" lon="11.380776913142375"><ele>42.199999999999996</ele><time>2026-04-12T14:21:56Z</time></trkpt><trkpt lat="42.47836956298393" lon="11.3808431465156"><ele>41.0</ele><time>2026-04-12T14:21:57Z</time></trkpt><trkpt lat="42.47829876820202" lon="11.380878778889121"><ele>41.0</ele><time>2026-04-12T14:21:58Z</time></trkpt><trkpt lat="42.47822552856786" lon="11.3809143432695"><ele>41.0</ele><time>2026-04-12T14:21:59Z</time></trkpt><trkpt lat="42.478136304097944" lon="11.38095882579381"><ele>41.0</ele><time>2026-04-12T14:22:00Z</time></trkpt><trkpt lat="42.47805111934514" lon="11.380998112636663"><ele>41.0</ele><time>2026-04-12T14:22:01Z</time></trkpt><trkpt lat="42.477954174810066" lon="11.381027530671151"><ele>41.0</ele><time>2026-04-12T14:22:02Z</time></trkpt><trkpt lat="42.47786328732659" lon="11.381047752874442"><ele>41.8</ele><time>2026-04-12T14:22:03Z</time></trkpt><trkpt lat="42.47776566859444" lon="11.381057197040969"><ele>42.599999999999994</ele><time>2026-04-12T14:22:04Z</time></trkpt><trkpt lat="42.477662857156744" lon="11.381060459585445"><ele>43.4</ele><time>2026-04-12T14:22:05Z</time></trkpt><trkpt lat="42.477560825099644" lon="11.381053767732984"><ele>44.2</ele><time>2026-04-12T14:22:06Z</time></trkpt><trkpt lat="42.477466759110555" lon="11.381049467792524"><ele>45.0</ele><time>2026-04-12T14:22:07Z</time></trkpt><trkpt lat="42.47737048160147" lon="11.38104071630467"><ele>45.0</ele><time>2026-04-12T14:22:08Z</time></trkpt><trkpt lat="42.477276409903276" lon="11.381017005799967"><ele>45.0</ele><time>2026-04-12T14:22:09Z</time></trkpt><trkpt lat="42.47718336988302" lon="11.380987827143088"><ele>45.0</ele><time>2026-04-12T14:22:10Z</time></trkpt><trkpt lat="42.477088691154336" lon="11.380964599540487"><ele>45.0</ele><time>2026-04-12T14:22:11Z</time></trkpt><trkpt lat="42.47699434515185" lon="11.38094491890352"><ele>45.0</ele><time>2026-04-12T14:22:12Z</time></trkpt><trkpt lat="42.4769037082925" lon="11.380934159162022"><ele>45.4</ele><time>2026-04-12T14:22:13Z</time></trkpt><trkpt lat="42.47679520116722" lon="11.380905161112025"><ele>45.8</ele><time>2026-04-12T14:22:14Z</time></trkpt><trkpt lat="42.47669904419525" lon="11.380877157586525"><ele>46.2</ele><time>2026-04-12T14:22:15Z</time></trkpt><trkpt lat="42.47659396018055" lon="11.380861196896904"><ele>46.6</ele><time>2026-04-12T14:22:16Z</time></trkpt><trkpt lat="42.47649236689331" lon="11.380844601568002"><ele>47.0</ele><time>2026-04-12T14:22:17Z</time></trkpt><trkpt lat="42.47638802805882" lon="11.380835430622867"><ele>47.0</ele><time>2026-04-12T14:22:18Z</time></trkpt><trkpt lat="42.47630401200658" lon="11.380835408793741"><ele>47.0</ele><time>2026-04-12T14:22:19Z</time></trkpt><trkpt lat="42.47621291650767" lon="11.380851760904374"><ele>47.0</ele><time>2026-04-12T14:22:20Z</time></trkpt><trkpt lat="42.47611843423007" lon="11.380888063392314"><ele>47.0</ele><time>2026-04-12T14:22:21Z</time></trkpt><trkpt lat="42.47602043438802" lon="11.380928871898636"><ele>47.0</ele><time>2026-04-12T14:22:22Z</time></trkpt><trkpt lat="42.4759215906968" lon="11.380987540465673"><ele>46.2</ele><time>2026-04-12T14:22:23Z</time></trkpt><trkpt lat="42.47582367057116" lon="11.38103518819236"><ele>45.400000000000006</ele><time>2026-04-12T14:22:24Z</time></trkpt><trkpt lat="42.475732917947205" lon="11.381072168083337"><ele>44.599999999999994</ele><time>2026-04-12T14:22:25Z</time></trkpt><trkpt lat="42.475637381109586" lon="11.381111139012047"><ele>43.8</ele><time>2026-04-12T14:22:26Z</time></trkpt><trkpt lat="42.475535306050936" lon="11.38113055464421"><ele>43.0</ele><time>2026-04-12T14:22:27Z</time></trkpt><trkpt lat="42.47542575203738" lon="11.381143430032227"><ele>42.8</ele><time>2026-04-12T14:22:28Z</time></trkpt><trkpt lat="42.47531744145107" lon="11.381148506032808"><ele>42.599999999999994</ele><time>2026-04-12T14:22:29Z</time></trkpt><trkpt lat="42.47522018557422" lon="11.38115846896746"><ele>42.400000000000006</ele><time>2026-04-12T14:22:30Z</time></trkpt><trkpt lat="42.47512659031712" lon="11.381163037387479"><ele>42.2</ele><time>2026-04-12T14:22:31Z</time></trkpt><trkpt lat="42.47503920224526" lon="11.381163814409087"><ele>42.0</ele><time>2026-04-12T14:22:32Z</time></trkpt><trkpt lat="42.47495668897086" lon="11.381156869850392"><ele>42.0</ele><time>2026-04-12T14:22:33Z</time></trkpt><trkpt lat="42.47487265123335" lon="11.381131760536846"><ele>42.0</ele><time>2026-04-12T14:22:34Z</time></trkpt><trkpt lat="42.47478578856204" lon="11.381090122758915"><ele>42.0</ele><time>2026-04-12T14:22:35Z</time></trkpt><trkpt lat="42.47469664343782" lon="11.381048415941429"><ele>42.0</ele><time>2026-04-12T14:22:36Z</time></trkpt><trkpt lat="42.474603098645154" lon="11.381013349236131"><ele>42.0</ele><time>2026-04-12T14:22:37Z</time></trkpt><trkpt lat="42.47450922649011" lon="11.38099686776237"><ele>42.8</ele><time>2026-04-12T14:22:38Z</time></trkpt><trkpt lat="42.474407116503116" lon="11.380988114189575"><ele>43.6</ele><time>2026-04-12T14:22:39Z</time></trkpt><trkpt lat="42.474301259347996" lon="11.380985985622743"><ele>44.4</ele><time>2026-04-12T14:22:40Z</time></trkpt><trkpt lat="42.474191389851455" lon="11.38098824060658"><ele>45.199999999999996</ele><time>2026-04-12T14:22:41Z</time></trkpt><trkpt lat="42.47408613732843" lon="11.380998282863079"><ele>46.0</ele><time>2026-04-12T14:22:41.999Z</time></trkpt><trkpt lat="42.47398046482899" lon="11.38102953950908"><ele>46.0</ele><time>2026-04-12T14:22:42.999Z</time></trkpt><trkpt lat="42.47388547768083" lon="11.381058165480448"><ele>46.0</ele><time>2026-04-12T14:22:43.999Z</time></trkpt><trkpt lat="42.47379462097747" lon="11.381079465585644"><ele>46.0</ele><time>2026-04-12T14:22:44.999Z</time></trkpt><trkpt lat="42.47370387864859" lon="11.381087946650334"><ele>46.0</ele><time>2026-04-12T14:22:45.999Z</time></trkpt><trkpt lat="42.473625344057794" lon="11.381086083947954"><ele>46.0</ele><time>2026-04-12T14:22:46.999Z</time></trkpt><trkpt lat="42.47354472509376" lon="11.38107377311913"><ele>46.0</ele><time>2026-04-12T14:22:47.999Z</time></trkpt><trkpt lat="42.473455959751476" lon="11.381058744457466"><ele>46.4</ele><time>2026-04-12T14:22:48.999Z</time></trkpt><trkpt lat="42.4733630434328" lon="11.381038109585074"><ele>46.8</ele><time>2026-04-12T14:22:49.999Z</time></trkpt><trkpt lat="42.4732688808466" lon="11.381010439209888"><ele>47.199999999999996</ele><time>2026-04-12T14:22:50.999Z</time></trkpt><trkpt lat="42.47317695944546" lon="11.380977032419242"><ele>47.599999999999994</ele><time>2026-04-12T14:22:51.999Z</time></trkpt><trkpt lat="42.47308397626777" lon="11.380927665899886"><ele>48.0</ele><time>2026-04-12T14:22:52.999Z</time></trkpt><trkpt lat="42.4729974347957" lon="11.380869809595643"><ele>47.333333333333336</ele><time>2026-04-12T14:22:53.999Z</time></trkpt><trkpt lat="42.472905546740186" lon="11.380821068799618"><ele>46.666666666666664</ele><time>2026-04-12T14:22:54.999Z</time></trkpt><trkpt lat="42.47282232032608" lon="11.38078026083687"><ele>46.0</ele><time>2026-04-12T14:22:55.999Z</time></trkpt><trkpt lat="42.47274945365001" lon="11.380746703673596"><ele>45.33333333333333</ele><time>2026-04-12T14:22:56.999Z</time></trkpt><trkpt lat="42.47267158613537" lon="11.380728001107846"><ele>44.666666666666664</ele><time>2026-04-12T14:22:57.999Z</time></trkpt><trkpt lat="42.47259329512607" lon="11.380737563802352"><ele>44.0</ele><time>2026-04-12T14:22:58.999Z</time></trkpt><trkpt lat="42.4725039613145" lon="11.380764068525716"><ele>44.0</ele><time>2026-04-12T14:22:59.999Z</time></trkpt><trkpt lat="42.47242236086489" lon="11.380796616931873"><ele>44.0</ele><time>2026-04-12T14:23:00.999Z</time></trkpt><trkpt lat="42.472332530726156" lon="11.380818619551166"><ele>44.0</ele><time>2026-04-12T14:23:01.999Z</time></trkpt><trkpt lat="42.47224875629035" lon="11.380837332802937"><ele>44.0</ele><time>2026-04-12T14:23:02.999Z</time></trkpt><trkpt lat="42.47218577205323" lon="11.380841940182846"><ele>44.0</ele><time>2026-04-12T14:23:03.999Z</time></trkpt><trkpt lat="42.47208655147008" lon="11.380881543633018"><ele>44.0</ele><time>2026-04-12T14:23:05.999Z</time></trkpt><trkpt lat="42.472004972710636" lon="11.380899702938818"><ele>44.0</ele><time>2026-04-12T14:23:07.999Z</time></trkpt><trkpt lat="42.471893676313826" lon="11.380893090597883"><ele>44.0</ele><time>2026-04-12T14:23:09.999Z</time></trkpt><trkpt lat="42.47182370761017" lon="11.380892941777216"><ele>44.0</ele><time>2026-04-12T14:23:10.999Z</time></trkpt><trkpt lat="42.47169406053323" lon="11.380894659339582"><ele>44.0</ele><time>2026-04-12T14:23:12.999Z</time></trkpt><trkpt lat="42.4715847999616" lon="11.380894919878243"><ele>44.0</ele><time>2026-04-12T14:23:14.999Z</time></trkpt><trkpt lat="42.471460276161096" lon="11.38090265557745"><ele>44.0</ele><time>2026-04-12T14:23:16.999Z</time></trkpt><trkpt lat="42.47139336700248" lon="11.380897668764208"><ele>44.0</ele><time>2026-04-12T14:23:17.999Z</time></trkpt><trkpt lat="42.471278984066956" lon="11.380927794211685"><ele>44.0</ele><time>2026-04-12T14:23:19.999Z</time></trkpt><trkpt lat="42.47121277222288" lon="11.380967279248354"><ele>44.0</ele><time>2026-04-12T14:23:20.999Z</time></trkpt><trkpt lat="42.471092582136386" lon="11.38103707947232"><ele>44.0</ele><time>2026-04-12T14:23:22.999Z</time></trkpt><trkpt lat="42.47103255806166" lon="11.381086978357443"><ele>44.2</ele><time>2026-04-12T14:23:23.999Z</time></trkpt><trkpt lat="42.470923596309134" lon="11.381156738544844"><ele>44.400000000000006</ele><time>2026-04-12T14:23:25.999Z</time></trkpt><trkpt lat="42.47085709410519" lon="11.381181577432708"><ele>44.6</ele><time>2026-04-12T14:23:26.999Z</time></trkpt><trkpt lat="42.47079378822775" lon="11.381210293256698"><ele>44.8</ele><time>2026-04-12T14:23:27.999Z</time></trkpt><trkpt lat="42.47068272972422" lon="11.381289225689036"><ele>45.0</ele><time>2026-04-12T14:23:29.999Z</time></trkpt><trkpt lat="42.47058774533556" lon="11.38135431342303"><ele>45.2</ele><time>2026-04-12T14:23:31.999Z</time></trkpt><trkpt lat="42.47049991589617" lon="11.381416787442719"><ele>45.4</ele><time>2026-04-12T14:23:33.999Z</time></trkpt><trkpt lat="42.470441972593306" lon="11.381457851294602"><ele>45.599999999999994</ele><time>2026-04-12T14:23:34.999Z</time></trkpt><trkpt lat="42.47034691819286" lon="11.381531220708748"><ele>45.8</ele><time>2026-04-12T14:23:36.999Z</time></trkpt><trkpt lat="42.470262554871304" lon="11.38162307343172"><ele>46.0</ele><time>2026-04-12T14:23:39Z</time></trkpt><trkpt lat="42.47018069662718" lon="11.38173832286051"><ele>46.0</ele><time>2026-04-12T14:23:41Z</time></trkpt><trkpt lat="42.470124340835284" lon="11.381848006923667"><ele>46.0</ele><time>2026-04-12T14:23:43Z</time></trkpt><trkpt lat="42.470092269701695" lon="11.38192775837765"><ele>46.0</ele><time>2026-04-12T14:23:44Z</time></trkpt><trkpt lat="42.47003262265021" lon="11.382069964647073"><ele>46.0</ele><time>2026-04-12T14:23:46Z</time></trkpt><trkpt lat="42.46997565373694" lon="11.382158205298795"><ele>46.0</ele><time>2026-04-12T14:23:48Z</time></trkpt><trkpt lat="42.469948016467214" lon="11.382275116129799"><ele>44.8</ele><time>2026-04-12T14:23:50Z</time></trkpt><trkpt lat="42.46990980590113" lon="11.382359839103888"><ele>43.599999999999994</ele><time>2026-04-12T14:23:51Z</time></trkpt><trkpt lat="42.469866343440636" lon="11.382458178297046"><ele>42.4</ele><time>2026-04-12T14:23:53Z</time></trkpt><trkpt lat="42.46983140594461" lon="11.382585005556297"><ele>41.2</ele><time>2026-04-12T14:23:55Z</time></trkpt><trkpt lat="42.46980697553606" lon="11.38271271052185"><ele>40.0</ele><time>2026-04-12T14:23:57Z</time></trkpt><trkpt lat="42.46976245305251" lon="11.382837384849003"><ele>40.0</ele><time>2026-04-12T14:23:59Z</time></trkpt><trkpt lat="42.46973971564568" lon="11.382955215136406"><ele>40.0</ele><time>2026-04-12T14:24:01Z</time></trkpt><trkpt lat="42.46974239333408" lon="11.383072372750044"><ele>40.0</ele><time>2026-04-12T14:24:03Z</time></trkpt><trkpt lat="42.46975231511656" lon="11.383199441580585"><ele>40.0</ele><time>2026-04-12T14:24:05Z</time></trkpt><trkpt lat="42.46976711177844" lon="11.383313707603413"><ele>40.0</ele><time>2026-04-12T14:24:07Z</time></trkpt><trkpt lat="42.46978057506992" lon="11.383417614634174"><ele>40.0</ele><time>2026-04-12T14:24:09Z</time></trkpt><trkpt lat="42.46978932506242" lon="11.383507026812094"><ele>39.8</ele><time>2026-04-12T14:24:13Z</time></trkpt><trkpt lat="42.46979239436231" lon="11.383623432617897"><ele>39.6</ele><time>2026-04-12T14:24:15Z</time></trkpt><trkpt lat="42.469800349733234" lon="11.383787348617787"><ele>39.4</ele><time>2026-04-12T14:24:17Z</time></trkpt><trkpt lat="42.46980082327848" lon="11.38387422987612"><ele>39.2</ele><time>2026-04-12T14:24:18Z</time></trkpt><trkpt lat="42.469793173893756" lon="11.38399857715359"><ele>39.0</ele><time>2026-04-12T14:24:20Z</time></trkpt><trkpt lat="42.469785782536015" lon="11.384116517652886"><ele>39.4</ele><time>2026-04-12T14:24:22Z</time></trkpt><trkpt lat="42.46976662786514" lon="11.384234412563325"><ele>39.8</ele><time>2026-04-12T14:24:24Z</time></trkpt><trkpt lat="42.46972623616869" lon="11.384390280699854"><ele>40.199999999999996</ele><time>2026-04-12T14:24:26Z</time></trkpt><trkpt lat="42.46968148827414" lon="11.384537938434294"><ele>40.599999999999994</ele><time>2026-04-12T14:24:28Z</time></trkpt><trkpt lat="42.46965138864898" lon="11.384669582029742"><ele>41.0</ele><time>2026-04-12T14:24:30Z</time></trkpt><trkpt lat="42.469631054493775" lon="11.384796271759207"><ele>41.0</ele><time>2026-04-12T14:24:32Z</time></trkpt><trkpt lat="42.46960139231431" lon="11.384937764314968"><ele>41.0</ele><time>2026-04-12T14:24:34Z</time></trkpt><trkpt lat="42.46960415772287" lon="11.385099338573864"><ele>41.0</ele><time>2026-04-12T14:24:36Z</time></trkpt><trkpt lat="42.46961716996041" lon="11.38518575389536"><ele>41.0</ele><time>2026-04-12T14:24:37Z</time></trkpt><trkpt lat="42.46961774633366" lon="11.385288591273829"><ele>41.0</ele><time>2026-04-12T14:24:39Z</time></trkpt><trkpt lat="42.46963360934435" lon="11.385427342885297"><ele>41.0</ele><time>2026-04-12T14:24:41Z</time></trkpt><trkpt lat="42.469640934512825" lon="11.385513761715085"><ele>41.0</ele><time>2026-04-12T14:24:42Z</time></trkpt><trkpt lat="42.46965015919963" lon="11.38568303362776"><ele>41.0</ele><time>2026-04-12T14:24:44Z</time></trkpt><trkpt lat="42.469643377646506" lon="11.385785471070593"><ele>41.0</ele><time>2026-04-12T14:24:45Z</time></trkpt><trkpt lat="42.469640396983365" lon="11.385935305892719"><ele>41.0</ele><time>2026-04-12T14:24:47Z</time></trkpt><trkpt lat="42.46963288478801" lon="11.38613533342738"><ele>41.0</ele><time>2026-04-12T14:24:49Z</time></trkpt><trkpt lat="42.46962344713344" lon="11.386232505189193"><ele>41.0</ele><time>2026-04-12T14:24:50Z</time></trkpt><trkpt lat="42.46959918286612" lon="11.386341713652351"><ele>41.0</ele><time>2026-04-12T14:24:51.999Z</time></trkpt><trkpt lat="42.46956164763766" lon="11.386508746143225"><ele>41.0</ele><time>2026-04-12T14:24:53.999Z</time></trkpt><trkpt lat="42.469532224795095" lon="11.386592488253502"><ele>41.0</ele><time>2026-04-12T14:24:54.999Z</time></trkpt><trkpt lat="42.4694716681855" lon="11.38673329442312"><ele>41.42857142857142</ele><time>2026-04-12T14:24:56.999Z</time></trkpt><trkpt lat="42.469431466612534" lon="11.386803588428362"><ele>41.857142857142854</ele><time>2026-04-12T14:24:57.999Z</time></trkpt><trkpt lat="42.46938362495233" lon="11.38688232676615"><ele>42.285714285714285</ele><time>2026-04-12T14:24:58.999Z</time></trkpt><trkpt lat="42.46933283290209" lon="11.386952237137809"><ele>42.71428571428571</ele><time>2026-04-12T14:24:59.999Z</time></trkpt><trkpt lat="42.46928193052118" lon="11.387016031676088"><ele>43.14285714285714</ele><time>2026-04-12T14:25:00.999Z</time></trkpt><trkpt lat="42.46922920222241" lon="11.38708675418598"><ele>43.57142857142857</ele><time>2026-04-12T14:25:01.999Z</time></trkpt><trkpt lat="42.469166775825485" lon="11.387145810263576"><ele>44.0</ele><time>2026-04-12T14:25:02.999Z</time></trkpt><trkpt lat="42.46907408713125" lon="11.387255993094053"><ele>44.0</ele><time>2026-04-12T14:25:04.999Z</time></trkpt><trkpt lat="42.46901789425934" lon="11.387331902471646"><ele>44.0</ele><time>2026-04-12T14:25:05.999Z</time></trkpt><trkpt lat="42.468922052350756" lon="11.387432401993644"><ele>44.0</ele><time>2026-04-12T14:25:07.999Z</time></trkpt><trkpt lat="42.4688682946299" lon="11.387490335712375"><ele>44.0</ele><time>2026-04-12T14:25:08.999Z</time></trkpt><trkpt lat="42.46877056307482" lon="11.387605294898764"><ele>44.0</ele><time>2026-04-12T14:25:10.999Z</time></trkpt><trkpt lat="42.468719725135365" lon="11.387663269525659"><ele>44.0</ele><time>2026-04-12T14:25:11.999Z</time></trkpt><trkpt lat="42.46867533620138" lon="11.387731742394688"><ele>44.0</ele><time>2026-04-12T14:25:12.999Z</time></trkpt><trkpt lat="42.468585221190615" lon="11.387875185726633"><ele>44.0</ele><time>2026-04-12T14:25:14.999Z</time></trkpt><trkpt lat="42.46849523953329" lon="11.387957372976338"><ele>44.0</ele><time>2026-04-12T14:25:16.999Z</time></trkpt><trkpt lat="42.468418622761035" lon="11.388067201062718"><ele>44.0</ele><time>2026-04-12T14:25:18.999Z</time></trkpt><trkpt lat="42.468377359162396" lon="11.388137003965594"><ele>44.0</ele><time>2026-04-12T14:25:19.999Z</time></trkpt><trkpt lat="42.468333261474314" lon="11.388206446370008"><ele>44.0</ele><time>2026-04-12T14:25:20.999Z</time></trkpt><trkpt lat="42.46828175052603" lon="11.388277169209202"><ele>44.0</ele><time>2026-04-12T14:25:21.999Z</time></trkpt><trkpt lat="42.46818768376101" lon="11.388397445203106"><ele>44.0</ele><time>2026-04-12T14:25:23.999Z</time></trkpt><trkpt lat="42.468113962707505" lon="11.3884889622157"><ele>44.0</ele><time>2026-04-12T14:25:25.999Z</time></trkpt><trkpt lat="42.468065057101576" lon="11.388549267728111"><ele>44.0</ele><time>2026-04-12T14:25:26.999Z</time></trkpt><trkpt lat="42.467975724479764" lon="11.388639507919548"><ele>45.6</ele><time>2026-04-12T14:25:28.999Z</time></trkpt><trkpt lat="42.46789075696842" lon="11.388711843225435"><ele>47.2</ele><time>2026-04-12T14:25:30.999Z</time></trkpt><trkpt lat="42.46779788310823" lon="11.388755507153412"><ele>48.800000000000004</ele><time>2026-04-12T14:25:32.999Z</time></trkpt><trkpt lat="42.467693957930365" lon="11.388795724805286"><ele>50.400000000000006</ele><time>2026-04-12T14:25:34.999Z</time></trkpt><trkpt lat="42.467632997210245" lon="11.388829987077038"><ele>52.0</ele><time>2026-04-12T14:25:35.999Z</time></trkpt><trkpt lat="42.46755143966428" lon="11.38890633448503"><ele>52.0</ele><time>2026-04-12T14:25:37.999Z</time></trkpt><trkpt lat="42.467446541721806" lon="11.388970226237253"><ele>52.0</ele><time>2026-04-12T14:25:39.999Z</time></trkpt><trkpt lat="42.46733535139888" lon="11.389087914458942"><ele>52.0</ele><time>2026-04-12T14:25:41.999Z</time></trkpt><trkpt lat="42.467270896621145" lon="11.389143259036814"><ele>52.0</ele><time>2026-04-12T14:25:42.999Z</time></trkpt><trkpt lat="42.46721265707484" lon="11.389185443111781"><ele>52.0</ele><time>2026-04-12T14:25:43.999Z</time></trkpt><trkpt lat="42.467130732412954" lon="11.389235925290143"><ele>52.6</ele><time>2026-04-12T14:25:45Z</time></trkpt><trkpt lat="42.46706627555382" lon="11.389276188131221"><ele>53.2</ele><time>2026-04-12T14:25:46Z</time></trkpt><trkpt lat="42.46696040671234" lon="11.389320614852172"><ele>53.8</ele><time>2026-04-12T14:25:48Z</time></trkpt><trkpt lat="42.46687554965741" lon="11.389365437784294"><ele>54.4</ele><time>2026-04-12T14:25:50Z</time></trkpt><trkpt lat="42.46672365492395" lon="11.389327764069138"><ele>55.0</ele><time>2026-04-12T14:25:52Z</time></trkpt><trkpt lat="42.466671805487415" lon="11.389394864839671"><ele>55.0</ele><time>2026-04-12T14:25:54Z</time></trkpt><trkpt lat="42.46660122513011" lon="11.389517063061783"><ele>55.0</ele><time>2026-04-12T14:25:56Z</time></trkpt><trkpt lat="42.466536881330825" lon="11.389596913294339"><ele>55.0</ele><time>2026-04-12T14:25:57Z</time></trkpt><trkpt lat="42.466457805312984" lon="11.389679148746868"><ele>55.0</ele><time>2026-04-12T14:25:58Z</time></trkpt><trkpt lat="42.46637265946473" lon="11.389761652488756"><ele>55.0</ele><time>2026-04-12T14:25:59Z</time></trkpt><trkpt lat="42.466286859849916" lon="11.389844301116586"><ele>54.2</ele><time>2026-04-12T14:26:00Z</time></trkpt><trkpt lat="42.46619988156804" lon="11.389928085247522"><ele>53.4</ele><time>2026-04-12T14:26:01Z</time></trkpt><trkpt lat="42.46612684010265" lon="11.389998258068582"><ele>52.599999999999994</ele><time>2026-04-12T14:26:02Z</time></trkpt><trkpt lat="42.466044316764425" lon="11.390076858919187"><ele>51.8</ele><time>2026-04-12T14:26:03Z</time></trkpt><trkpt lat="42.465970872749935" lon="11.390146703622644"><ele>51.0</ele><time>2026-04-12T14:26:04Z</time></trkpt><trkpt lat="42.46589659043072" lon="11.390216318765047"><ele>51.0</ele><time>2026-04-12T14:26:05Z</time></trkpt><trkpt lat="42.46581917856331" lon="11.390288866865054"><ele>51.0</ele><time>2026-04-12T14:26:06Z</time></trkpt><trkpt lat="42.4657399325119" lon="11.390363400172438"><ele>51.0</ele><time>2026-04-12T14:26:07Z</time></trkpt><trkpt lat="42.46566028581016" lon="11.39044008358102"><ele>51.0</ele><time>2026-04-12T14:26:08Z</time></trkpt><trkpt lat="42.465579846712714" lon="11.390517530056579"><ele>51.0</ele><time>2026-04-12T14:26:09Z</time></trkpt><trkpt lat="42.46550093400724" lon="11.390593506821254"><ele>50.599999999999994</ele><time>2026-04-12T14:26:10Z</time></trkpt><trkpt lat="42.4654217715844" lon="11.390671326738971"><ele>50.2</ele><time>2026-04-12T14:26:11Z</time></trkpt><trkpt lat="42.465335245849126" lon="11.390756860194292"><ele>49.8</ele><time>2026-04-12T14:26:12Z</time></trkpt><trkpt lat="42.46524534575472" lon="11.390847822950011"><ele>49.400000000000006</ele><time>2026-04-12T14:26:13Z</time></trkpt><trkpt lat="42.46515319971421" lon="11.390942394647364"><ele>49.0</ele><time>2026-04-12T14:26:14Z</time></trkpt><trkpt lat="42.465063039963574" lon="11.39103492803352"><ele>49.0</ele><time>2026-04-12T14:26:15Z</time></trkpt><trkpt lat="42.464985707131945" lon="11.39111518995348"><ele>49.0</ele><time>2026-04-12T14:26:16Z</time></trkpt><trkpt lat="42.46491042386891" lon="11.391206338520714"><ele>49.0</ele><time>2026-04-12T14:26:17Z</time></trkpt><trkpt lat="42.46484341898692" lon="11.391299032026007"><ele>49.0</ele><time>2026-04-12T14:26:18Z</time></trkpt><trkpt lat="42.4647736792394" lon="11.391395248308259"><ele>49.0</ele><time>2026-04-12T14:26:19Z</time></trkpt><trkpt lat="42.464703154548545" lon="11.391484635690492"><ele>49.49999999999999</ele><time>2026-04-12T14:26:20Z</time></trkpt><trkpt lat="42.4646342683807" lon="11.391571685410636"><ele>50.0</ele><time>2026-04-12T14:26:21Z</time></trkpt><trkpt lat="42.4645693532394" lon="11.391653716752055"><ele>50.5</ele><time>2026-04-12T14:26:22Z</time></trkpt><trkpt lat="42.46450464237974" lon="11.391729649772941"><ele>51.0</ele><time>2026-04-12T14:26:23Z</time></trkpt><trkpt lat="42.464434140549095" lon="11.391805805725973"><ele>51.49999999999999</ele><time>2026-04-12T14:26:24Z</time></trkpt><trkpt lat="42.464363309318436" lon="11.391877422194597"><ele>52.0</ele><time>2026-04-12T14:26:25Z</time></trkpt><trkpt lat="42.4642908201464" lon="11.391948428207856"><ele>50.8</ele><time>2026-04-12T14:26:26Z</time></trkpt><trkpt lat="42.46421447122876" lon="11.392019018945904"><ele>49.6</ele><time>2026-04-12T14:26:27Z</time></trkpt><trkpt lat="42.46412910200031" lon="11.392094832880355"><ele>48.4</ele><time>2026-04-12T14:26:28Z</time></trkpt><trkpt lat="42.46403949667077" lon="11.392174408805099"><ele>47.199999999999996</ele><time>2026-04-12T14:26:29Z</time></trkpt><trkpt lat="42.46394537694549" lon="11.392256725411487"><ele>46.0</ele><time>2026-04-12T14:26:30Z</time></trkpt><trkpt lat="42.463846628892185" lon="11.392341158210241"><ele>46.0</ele><time>2026-04-12T14:26:31Z</time></trkpt><trkpt lat="42.463740362425895" lon="11.392432019551205"><ele>46.0</ele><time>2026-04-12T14:26:32Z</time></trkpt><trkpt lat="42.463636235765456" lon="11.392525462301366"><ele>46.0</ele><time>2026-04-12T14:26:33Z</time></trkpt><trkpt lat="42.46352829047537" lon="11.392623039211829"><ele>46.0</ele><time>2026-04-12T14:26:34Z</time></trkpt><trkpt lat="42.46342961923564" lon="11.392712232849517"><ele>46.0</ele><time>2026-04-12T14:26:35Z</time></trkpt><trkpt lat="42.463331808942904" lon="11.392800648179357"><ele>46.0</ele><time>2026-04-12T14:26:36Z</time></trkpt><trkpt lat="42.463223630459915" lon="11.392887141910526"><ele>46.0</ele><time>2026-04-12T14:26:37Z</time></trkpt><trkpt lat="42.46311765516668" lon="11.39297017390701"><ele>46.0</ele><time>2026-04-12T14:26:38Z</time></trkpt><trkpt lat="42.463005143590394" lon="11.393056569771288"><ele>45.8</ele><time>2026-04-12T14:26:39Z</time></trkpt><trkpt lat="42.462907923175116" lon="11.393131279763598"><ele>45.599999999999994</ele><time>2026-04-12T14:26:40Z</time></trkpt><trkpt lat="42.46281693928026" lon="11.393196534273548"><ele>45.4</ele><time>2026-04-12T14:26:41Z</time></trkpt><trkpt lat="42.46272648894454" lon="11.393258703270206"><ele>45.2</ele><time>2026-04-12T14:26:42Z</time></trkpt><trkpt lat="42.462652705840576" lon="11.393318129204015"><ele>45.0</ele><time>2026-04-12T14:26:43Z</time></trkpt><trkpt lat="42.46258338966106" lon="11.393410451420007"><ele>45.0</ele><time>2026-04-12T14:26:44Z</time></trkpt><trkpt lat="42.46250364348018" lon="11.393471584482326"><ele>45.0</ele><time>2026-04-12T14:26:45Z</time></trkpt><trkpt lat="42.46244195515871" lon="11.39355410135757"><ele>45.0</ele><time>2026-04-12T14:26:46Z</time></trkpt><trkpt lat="42.46239046166814" lon="11.39364739500106"><ele>45.0</ele><time>2026-04-12T14:26:47Z</time></trkpt><trkpt lat="42.4623513363455" lon="11.393724034484153"><ele>45.0</ele><time>2026-04-12T14:26:48Z</time></trkpt><trkpt lat="42.46232064987468" lon="11.393804805954522"><ele>45.0</ele><time>2026-04-12T14:26:49Z</time></trkpt><trkpt lat="42.46227964040286" lon="11.393913377996252"><ele>45.0</ele><time>2026-04-12T14:26:50.999Z</time></trkpt><trkpt lat="42.46223285995102" lon="11.394034903661414"><ele>45.0</ele><time>2026-04-12T14:26:54.999Z</time></trkpt><trkpt lat="42.46221118132133" lon="11.394122502257444"><ele>45.0</ele><time>2026-04-12T14:26:55.999Z</time></trkpt><trkpt lat="42.46216399373404" lon="11.394203822515221"><ele>45.0</ele><time>2026-04-12T14:26:56.999Z</time></trkpt><trkpt lat="42.46212204487587" lon="11.394311889772824"><ele>45.0</ele><time>2026-04-12T14:26:57.999Z</time></trkpt><trkpt lat="42.46208027169527" lon="11.394419504013777"><ele>45.0</ele><time>2026-04-12T14:26:58.999Z</time></trkpt><trkpt lat="42.462034395833136" lon="11.394538353713008"><ele>46.0</ele><time>2026-04-12T14:26:59.999Z</time></trkpt><trkpt lat="42.46198169999505" lon="11.394672350522796"><ele>47.0</ele><time>2026-04-12T14:27:00.999Z</time></trkpt><trkpt lat="42.4619264713866" lon="11.394808832672691"><ele>48.0</ele><time>2026-04-12T14:27:01.999Z</time></trkpt><trkpt lat="42.461868876914345" lon="11.39494803417969"><ele>49.0</ele><time>2026-04-12T14:27:02.999Z</time></trkpt><trkpt lat="42.461806823360554" lon="11.39509801303238"><ele>49.0</ele><time>2026-04-12T14:27:03.999Z</time></trkpt><trkpt lat="42.461744761808795" lon="11.395248010906473"><ele>49.0</ele><time>2026-04-12T14:27:04.999Z</time></trkpt><trkpt lat="42.461691027579064" lon="11.395377882660629"><ele>49.0</ele><time>2026-04-12T14:27:05.999Z</time></trkpt><trkpt lat="42.461637530050204" lon="11.39550799597248"><ele>49.0</ele><time>2026-04-12T14:27:06.999Z</time></trkpt><trkpt lat="42.4615835708369" lon="11.395642603147925"><ele>49.6</ele><time>2026-04-12T14:27:07.999Z</time></trkpt><trkpt lat="42.46153278070997" lon="11.39576741568374"><ele>50.2</ele><time>2026-04-12T14:27:08.999Z</time></trkpt><trkpt lat="42.46147893981863" lon="11.395893223450175"><ele>50.800000000000004</ele><time>2026-04-12T14:27:09.999Z</time></trkpt><trkpt lat="42.46142815178601" lon="11.396011437276936"><ele>51.400000000000006</ele><time>2026-04-12T14:27:10.999Z</time></trkpt><trkpt lat="42.461379032062375" lon="11.396131021852426"><ele>52.0</ele><time>2026-04-12T14:27:11.999Z</time></trkpt><trkpt lat="42.46133673656602" lon="11.396235371698253"><ele>52.33333333333333</ele><time>2026-04-12T14:27:12.999Z</time></trkpt><trkpt lat="42.46129280853306" lon="11.396343788349991"><ele>52.666666666666664</ele><time>2026-04-12T14:27:13.999Z</time></trkpt><trkpt lat="42.46125267941161" lon="11.396442828937891"><ele>53.0</ele><time>2026-04-12T14:27:14.999Z</time></trkpt><trkpt lat="42.461214516469944" lon="11.396537016974467"><ele>53.33333333333333</ele><time>2026-04-12T14:27:15.999Z</time></trkpt><trkpt lat="42.46117442510942" lon="11.396635964451258"><ele>53.666666666666664</ele><time>2026-04-12T14:27:16.999Z</time></trkpt><trkpt lat="42.46113713765861" lon="11.396727991763802"><ele>54.0</ele><time>2026-04-12T14:27:17.999Z</time></trkpt><trkpt lat="42.46109817951284" lon="11.39682414235531"><ele>55.333333333333336</ele><time>2026-04-12T14:27:18.999Z</time></trkpt><trkpt lat="42.46105335811866" lon="11.39693773698564"><ele>56.66666666666667</ele><time>2026-04-12T14:27:19.999Z</time></trkpt><trkpt lat="42.46100874538574" lon="11.397053034090654"><ele>58.0</ele><time>2026-04-12T14:27:20.999Z</time></trkpt><trkpt lat="42.46096326492589" lon="11.397170573489316"><ele>59.333333333333336</ele><time>2026-04-12T14:27:21.999Z</time></trkpt><trkpt lat="42.460926817009444" lon="11.397262944931917"><ele>60.66666666666667</ele><time>2026-04-12T14:27:22.999Z</time></trkpt><trkpt lat="42.460892652905876" lon="11.397346982110081"><ele>62.0</ele><time>2026-04-12T14:27:23.999Z</time></trkpt><trkpt lat="42.460849435780574" lon="11.397449001613449"><ele>62.66666666666667</ele><time>2026-04-12T14:27:24.999Z</time></trkpt><trkpt lat="42.460807112100056" lon="11.397546405498726"><ele>63.333333333333336</ele><time>2026-04-12T14:27:25.999Z</time></trkpt><trkpt lat="42.460763800040034" lon="11.397645973729713"><ele>64.0</ele><time>2026-04-12T14:27:26.999Z</time></trkpt><trkpt lat="42.46072324428658" lon="11.397739205585717"><ele>64.66666666666667</ele><time>2026-04-12T14:27:27.999Z</time></trkpt><trkpt lat="42.460681973839684" lon="11.397833977309167"><ele>65.33333333333333</ele><time>2026-04-12T14:27:28.999Z</time></trkpt><trkpt lat="42.460641439942464" lon="11.397933551279795"><ele>66.0</ele><time>2026-04-12T14:27:29.999Z</time></trkpt><trkpt lat="42.460597598349025" lon="11.398045233666458"><ele>65.83333333333333</ele><time>2026-04-12T14:27:30.999Z</time></trkpt><trkpt lat="42.4605565559072" lon="11.398154663739579"><ele>65.66666666666667</ele><time>2026-04-12T14:27:31.999Z</time></trkpt><trkpt lat="42.46051557494123" lon="11.398264675555556"><ele>65.5</ele><time>2026-04-12T14:27:32.999Z</time></trkpt><trkpt lat="42.46047328406791" lon="11.398378203808777"><ele>65.33333333333334</ele><time>2026-04-12T14:27:33.999Z</time></trkpt><trkpt lat="42.460434770321726" lon="11.39847779749786"><ele>65.16666666666667</ele><time>2026-04-12T14:27:34.999Z</time></trkpt><trkpt lat="42.460395126512914" lon="11.398579731498383"><ele>65.0</ele><time>2026-04-12T14:27:35.999Z</time></trkpt><trkpt lat="42.46035589255713" lon="11.398687703641041"><ele>65.0</ele><time>2026-04-12T14:27:36.999Z</time></trkpt><trkpt lat="42.460318025533866" lon="11.398802137908458"><ele>65.0</ele><time>2026-04-12T14:27:37.999Z</time></trkpt><trkpt lat="42.46028032150733" lon="11.39892855573329"><ele>65.0</ele><time>2026-04-12T14:27:38.999Z</time></trkpt><trkpt lat="42.46024260050226" lon="11.39905839982944"><ele>65.0</ele><time>2026-04-12T14:27:39.999Z</time></trkpt><trkpt lat="42.46021075251868" lon="11.399168027646034"><ele>65.0</ele><time>2026-04-12T14:27:40.999Z</time></trkpt><trkpt lat="42.46018204892326" lon="11.39926733019134"><ele>65.16666666666667</ele><time>2026-04-12T14:27:41.999Z</time></trkpt><trkpt lat="42.460153741638415" lon="11.399365904624478"><ele>65.33333333333334</ele><time>2026-04-12T14:27:42.999Z</time></trkpt><trkpt lat="42.46012578366169" lon="11.399463262682016"><ele>65.5</ele><time>2026-04-12T14:27:43.999Z</time></trkpt><trkpt lat="42.460092510676645" lon="11.39957912912739"><ele>65.66666666666667</ele><time>2026-04-12T14:27:44.999Z</time></trkpt><trkpt lat="42.46005688552718" lon="11.39970318661542"><ele>65.83333333333333</ele><time>2026-04-12T14:27:45.999Z</time></trkpt><trkpt lat="42.460020881011054" lon="11.399828565061263"><ele>66.0</ele><time>2026-04-12T14:27:46.999Z</time></trkpt><trkpt lat="42.45998178943201" lon="11.399960818666477"><ele>66.0</ele><time>2026-04-12T14:27:47.999Z</time></trkpt><trkpt lat="42.45994652057912" lon="11.400075978912126"><ele>66.0</ele><time>2026-04-12T14:27:48.999Z</time></trkpt><trkpt lat="42.4599137108583" lon="11.400183109822711"><ele>66.0</ele><time>2026-04-12T14:27:49.999Z</time></trkpt><trkpt lat="42.459885085376186" lon="11.400276578106434"><ele>66.0</ele><time>2026-04-12T14:27:51Z</time></trkpt><trkpt lat="42.45985635204452" lon="11.40037039864488"><ele>66.0</ele><time>2026-04-12T14:27:52Z</time></trkpt><trkpt lat="42.459826106017985" lon="11.400469158428368"><ele>66.0</ele><time>2026-04-12T14:27:53Z</time></trkpt><trkpt lat="42.4597950387208" lon="11.400567203154424"><ele>66.0</ele><time>2026-04-12T14:27:54Z</time></trkpt><trkpt lat="42.45977239819923" lon="11.40065792014089"><ele>66.0</ele><time>2026-04-12T14:27:55Z</time></trkpt><trkpt lat="42.45974505945571" lon="11.400828727237382"><ele>66.0</ele><time>2026-04-12T14:27:57Z</time></trkpt><trkpt lat="42.459732951331375" lon="11.400929959909288"><ele>66.0</ele><time>2026-04-12T14:27:58Z</time></trkpt><trkpt lat="42.459735803184095" lon="11.401021639439595"><ele>66.0</ele><time>2026-04-12T14:27:59Z</time></trkpt><trkpt lat="42.45975191923528" lon="11.401127895669068"><ele>66.0</ele><time>2026-04-12T14:28:00Z</time></trkpt><trkpt lat="42.4597618742458" lon="11.401218591551372"><ele>66.0</ele><time>2026-04-12T14:28:01Z</time></trkpt><trkpt lat="42.45975210419248" lon="11.401318071531412"><ele>66.0</ele><time>2026-04-12T14:28:02Z</time></trkpt><trkpt lat="42.45973162384909" lon="11.401431621420468"><ele>66.0</ele><time>2026-04-12T14:28:03Z</time></trkpt><trkpt lat="42.45969227610056" lon="11.401534237122025"><ele>66.0</ele><time>2026-04-12T14:28:04Z</time></trkpt><trkpt lat="42.45967121160068" lon="11.401646329881341"><ele>66.0</ele><time>2026-04-12T14:28:05Z</time></trkpt><trkpt lat="42.459653065737974" lon="11.401771820007644"><ele>66.0</ele><time>2026-04-12T14:28:06Z</time></trkpt><trkpt lat="42.45963950229733" lon="11.401896578198503"><ele>66.16666666666667</ele><time>2026-04-12T14:28:07Z</time></trkpt><trkpt lat="42.459627307147976" lon="11.402012678485331"><ele>66.33333333333333</ele><time>2026-04-12T14:28:08Z</time></trkpt><trkpt lat="42.45960841217559" lon="11.402133646162437"><ele>66.5</ele><time>2026-04-12T14:28:09Z</time></trkpt><trkpt lat="42.45957938436888" lon="11.402239274843543"><ele>66.66666666666666</ele><time>2026-04-12T14:28:10Z</time></trkpt><trkpt lat="42.459540594450715" lon="11.402348425148196"><ele>66.83333333333333</ele><time>2026-04-12T14:28:11Z</time></trkpt><trkpt lat="42.45950273768981" lon="11.402449186218316"><ele>67.0</ele><time>2026-04-12T14:28:12Z</time></trkpt><trkpt lat="42.459462636857545" lon="11.402555351941587"><ele>66.16666666666666</ele><time>2026-04-12T14:28:13Z</time></trkpt><trkpt lat="42.4594223739312" lon="11.402659091970422"><ele>65.33333333333333</ele><time>2026-04-12T14:28:14Z</time></trkpt><trkpt lat="42.45938046675198" lon="11.40276520768408"><ele>64.5</ele><time>2026-04-12T14:28:15Z</time></trkpt><trkpt lat="42.45933873927228" lon="11.402870868451638"><ele>63.66666666666667</ele><time>2026-04-12T14:28:16Z</time></trkpt><trkpt lat="42.459303004039974" lon="11.402981604523438"><ele>62.833333333333336</ele><time>2026-04-12T14:28:17Z</time></trkpt><trkpt lat="42.45926448982148" lon="11.403098018863508"><ele>62.0</ele><time>2026-04-12T14:28:18Z</time></trkpt><trkpt lat="42.459207168198894" lon="11.403191536754541"><ele>62.0</ele><time>2026-04-12T14:28:19Z</time></trkpt><trkpt lat="42.45916148253548" lon="11.403302480823593"><ele>62.0</ele><time>2026-04-12T14:28:20Z</time></trkpt><trkpt lat="42.45911647388348" lon="11.40341474680779"><ele>62.0</ele><time>2026-04-12T14:28:21Z</time></trkpt><trkpt lat="42.45907075254199" lon="11.403532211750791"><ele>62.0</ele><time>2026-04-12T14:28:22Z</time></trkpt><trkpt lat="42.45903704519552" lon="11.403666898024328"><ele>62.0</ele><time>2026-04-12T14:28:23Z</time></trkpt><trkpt lat="42.458985284704305" lon="11.403794244851372"><ele>61.50000000000001</ele><time>2026-04-12T14:28:24Z</time></trkpt><trkpt lat="42.45893996104232" lon="11.40392013600717"><ele>61.0</ele><time>2026-04-12T14:28:25Z</time></trkpt><trkpt lat="42.4588985843219" lon="11.404019201079238"><ele>60.5</ele><time>2026-04-12T14:28:26Z</time></trkpt><trkpt lat="42.45886704324695" lon="11.404114247267461"><ele>60.0</ele><time>2026-04-12T14:28:27Z</time></trkpt><trkpt lat="42.458810975117686" lon="11.40421167078641"><ele>59.50000000000001</ele><time>2026-04-12T14:28:28Z</time></trkpt><trkpt lat="42.45876820258023" lon="11.40432058809067"><ele>59.0</ele><time>2026-04-12T14:28:29Z</time></trkpt><trkpt lat="42.458725962038024" lon="11.404429222590231"><ele>59.0</ele><time>2026-04-12T14:28:30Z</time></trkpt><trkpt lat="42.458689553597544" lon="11.404524274028418"><ele>59.00000000000001</ele><time>2026-04-12T14:28:31Z</time></trkpt><trkpt lat="42.458659231704964" lon="11.404651651702258"><ele>59.00000000000001</ele><time>2026-04-12T14:28:32Z</time></trkpt><trkpt lat="42.45860373785223" lon="11.404770331864162"><ele>59.0</ele><time>2026-04-12T14:28:33Z</time></trkpt><trkpt lat="42.458565226517656" lon="11.404891169722324"><ele>59.0</ele><time>2026-04-12T14:28:34Z</time></trkpt><trkpt lat="42.458517742314946" lon="11.405005619314192"><ele>59.0</ele><time>2026-04-12T14:28:35Z</time></trkpt><trkpt lat="42.45846001759723" lon="11.405122721249418"><ele>59.00000000000001</ele><time>2026-04-12T14:28:36Z</time></trkpt><trkpt lat="42.45842759950478" lon="11.405257379452113"><ele>59.00000000000001</ele><time>2026-04-12T14:28:37Z</time></trkpt><trkpt lat="42.458377264133595" lon="11.405373525204054"><ele>59.0</ele><time>2026-04-12T14:28:38Z</time></trkpt><trkpt lat="42.45836807465474" lon="11.405521308671702"><ele>59.0</ele><time>2026-04-12T14:28:39Z</time></trkpt><trkpt lat="42.45834206879024" lon="11.405665918491835"><ele>59.6</ele><time>2026-04-12T14:28:40Z</time></trkpt><trkpt lat="42.45828937699379" lon="11.40581120887335"><ele>60.2</ele><time>2026-04-12T14:28:41Z</time></trkpt><trkpt lat="42.458237622473064" lon="11.405956110107544"><ele>60.800000000000004</ele><time>2026-04-12T14:28:42Z</time></trkpt><trkpt lat="42.45819450551556" lon="11.406076803347522"><ele>61.400000000000006</ele><time>2026-04-12T14:28:43Z</time></trkpt><trkpt lat="42.45815813639026" lon="11.40616411524767"><ele>62.0</ele><time>2026-04-12T14:28:44Z</time></trkpt><trkpt lat="42.4580724573064" lon="11.40627647568808"><ele>62.0</ele><time>2026-04-12T14:28:46Z</time></trkpt><trkpt lat="42.457962349073426" lon="11.406293779131772"><ele>62.0</ele><time>2026-04-12T14:28:48Z</time></trkpt><trkpt lat="42.45789611833057" lon="11.406316774739603"><ele>62.0</ele><time>2026-04-12T14:28:49Z</time></trkpt><trkpt lat="42.45775736299352" lon="11.40636792477419"><ele>62.0</ele><time>2026-04-12T14:28:51Z</time></trkpt><trkpt lat="42.457689917589846" lon="11.406392062793783"><ele>62.0</ele><time>2026-04-12T14:28:52Z</time></trkpt><trkpt lat="42.457593188812154" lon="11.406419256634733"><ele>62.6</ele><time>2026-04-12T14:28:54Z</time></trkpt><trkpt lat="42.45751925085632" lon="11.40645393265784"><ele>63.2</ele><time>2026-04-12T14:28:56Z</time></trkpt><trkpt lat="42.45752100694122" lon="11.40664092000689"><ele>63.8</ele><time>2026-04-12T14:28:57Z</time></trkpt><trkpt lat="42.45751361241243" lon="11.406764325556612"><ele>64.4</ele><time>2026-04-12T14:28:58Z</time></trkpt><trkpt lat="42.45748579134023" lon="11.406884553306389"><ele>65.0</ele><time>2026-04-12T14:28:59Z</time></trkpt><trkpt lat="42.4574960406305" lon="11.407022766388039"><ele>65.8</ele><time>2026-04-12T14:29:00Z</time></trkpt><trkpt lat="42.457496118079675" lon="11.407161588567176"><ele>66.6</ele><time>2026-04-12T14:29:01Z</time></trkpt><trkpt lat="42.45748394584633" lon="11.407302873831648"><ele>67.4</ele><time>2026-04-12T14:29:02Z</time></trkpt><trkpt lat="42.45748174646282" lon="11.407437252114581"><ele>68.2</ele><time>2026-04-12T14:29:03Z</time></trkpt><trkpt lat="42.457465368285824" lon="11.407552847500776"><ele>69.0</ele><time>2026-04-12T14:29:04Z</time></trkpt><trkpt lat="42.457427271018304" lon="11.407675557846558"><ele>69.0</ele><time>2026-04-12T14:29:05Z</time></trkpt><trkpt lat="42.457384062748815" lon="11.407786710821332"><ele>69.0</ele><time>2026-04-12T14:29:06Z</time></trkpt><trkpt lat="42.45734682647118" lon="11.407887991945074"><ele>69.0</ele><time>2026-04-12T14:29:07Z</time></trkpt><trkpt lat="42.45732371640799" lon="11.407979891178636"><ele>69.0</ele><time>2026-04-12T14:29:08Z</time></trkpt><trkpt lat="42.45733925526133" lon="11.408102273137416"><ele>69.0</ele><time>2026-04-12T14:29:09Z</time></trkpt><trkpt lat="42.45741392308161" lon="11.408201081037634"><ele>69.0</ele><time>2026-04-12T14:29:09.999Z</time></trkpt><trkpt lat="42.45745360255341" lon="11.408315018799609"><ele>70.0</ele><time>2026-04-12T14:29:10.999Z</time></trkpt><trkpt lat="42.45750310921036" lon="11.408429093453442"><ele>71.0</ele><time>2026-04-12T14:29:11.999Z</time></trkpt><trkpt lat="42.457553399880815" lon="11.408543953265797"><ele>72.0</ele><time>2026-04-12T14:29:12.999Z</time></trkpt><trkpt lat="42.45760204123114" lon="11.408653829477423"><ele>73.0</ele><time>2026-04-12T14:29:13.999Z</time></trkpt><trkpt lat="42.45765247428366" lon="11.40876654564358"><ele>74.0</ele><time>2026-04-12T14:29:14.999Z</time></trkpt><trkpt lat="42.45770257895029" lon="11.40887629327982"><ele>74.5</ele><time>2026-04-12T14:29:15.999Z</time></trkpt><trkpt lat="42.45775937096884" lon="11.40899689003169"><ele>75.0</ele><time>2026-04-12T14:29:16.999Z</time></trkpt><trkpt lat="42.45781243045965" lon="11.409105882956627"><ele>75.5</ele><time>2026-04-12T14:29:17.999Z</time></trkpt><trkpt lat="42.457862862675434" lon="11.409207217524441"><ele>76.0</ele><time>2026-04-12T14:29:18.999Z</time></trkpt><trkpt lat="42.45790324485973" lon="11.409295616010594"><ele>76.5</ele><time>2026-04-12T14:29:19.999Z</time></trkpt><trkpt lat="42.457945193245315" lon="11.409386513277298"><ele>77.0</ele><time>2026-04-12T14:29:20.999Z</time></trkpt><trkpt lat="42.457992778691775" lon="11.40948023405418"><ele>77.0</ele><time>2026-04-12T14:29:21.999Z</time></trkpt><trkpt lat="42.45806905012072" lon="11.409556526896154"><ele>77.0</ele><time>2026-04-12T14:29:22.999Z</time></trkpt><trkpt lat="42.45815687043234" lon="11.40962978606015"><ele>77.0</ele><time>2026-04-12T14:29:23.999Z</time></trkpt><trkpt lat="42.45826003348867" lon="11.409692839477252"><ele>77.0</ele><time>2026-04-12T14:29:24.999Z</time></trkpt><trkpt lat="42.45836839670581" lon="11.409755082055609"><ele>77.0</ele><time>2026-04-12T14:29:25.999Z</time></trkpt><trkpt lat="42.458484562769605" lon="11.409810906788543"><ele>78.0</ele><time>2026-04-12T14:29:26.999Z</time></trkpt><trkpt lat="42.458583892176" lon="11.409866544436728"><ele>79.0</ele><time>2026-04-12T14:29:27.999Z</time></trkpt><trkpt lat="42.458671196718925" lon="11.40991719251254"><ele>80.0</ele><time>2026-04-12T14:29:28.999Z</time></trkpt><trkpt lat="42.45875632320172" lon="11.409969211851909"><ele>81.0</ele><time>2026-04-12T14:29:29.999Z</time></trkpt><trkpt lat="42.45882640793668" lon="11.410016249417337"><ele>82.0</ele><time>2026-04-12T14:29:30.999Z</time></trkpt><trkpt lat="42.458891245565226" lon="11.410059398038424"><ele>83.0</ele><time>2026-04-12T14:29:31.999Z</time></trkpt><trkpt lat="42.458985783104545" lon="11.410107883234643"><ele>83.0</ele><time>2026-04-12T14:29:33.999Z</time></trkpt><trkpt lat="42.459087943016584" lon="11.410155466573338"><ele>83.0</ele><time>2026-04-12T14:29:36.999Z</time></trkpt><trkpt lat="42.45913375184511" lon="11.410247809766055"><ele>83.0</ele><time>2026-04-12T14:29:37.999Z</time></trkpt><trkpt lat="42.45918550814538" lon="11.410329868808505"><ele>83.0</ele><time>2026-04-12T14:29:38.999Z</time></trkpt><trkpt lat="42.459237942016294" lon="11.410421418249333"><ele>83.0</ele><time>2026-04-12T14:29:39.999Z</time></trkpt><trkpt lat="42.45929532697089" lon="11.410522584563973"><ele>83.0</ele><time>2026-04-12T14:29:40.999Z</time></trkpt><trkpt lat="42.45936148295718" lon="11.410630633361782"><ele>83.75</ele><time>2026-04-12T14:29:41.999Z</time></trkpt><trkpt lat="42.45942947531567" lon="11.410743601985265"><ele>84.5</ele><time>2026-04-12T14:29:42.999Z</time></trkpt><trkpt lat="42.45950287492427" lon="11.410863845960442"><ele>85.25</ele><time>2026-04-12T14:29:43.999Z</time></trkpt><trkpt lat="42.459576765250326" lon="11.410983296783025"><ele>86.0</ele><time>2026-04-12T14:29:44.999Z</time></trkpt><trkpt lat="42.45965027219216" lon="11.411109009260718"><ele>86.0</ele><time>2026-04-12T14:29:45.999Z</time></trkpt><trkpt lat="42.459731858262714" lon="11.41124686226252"><ele>86.0</ele><time>2026-04-12T14:29:46.999Z</time></trkpt><trkpt lat="42.45981896818289" lon="11.411395163589292"><ele>86.0</ele><time>2026-04-12T14:29:47.999Z</time></trkpt><trkpt lat="42.4598576897371" lon="11.411471001019981"><ele>86.0</ele><time>2026-04-12T14:29:48.999Z</time></trkpt><trkpt lat="42.45991759222009" lon="11.411615175667773"><ele>87.75</ele><time>2026-04-12T14:29:49.999Z</time></trkpt><trkpt lat="42.45996922292297" lon="11.411767702376515"><ele>89.5</ele><time>2026-04-12T14:29:50.999Z</time></trkpt><trkpt lat="42.460004985998374" lon="11.411932371687142"><ele>91.25</ele><time>2026-04-12T14:29:51.999Z</time></trkpt><trkpt lat="42.46004667283097" lon="11.412090218367418"><ele>93.0</ele><time>2026-04-12T14:29:52.999Z</time></trkpt><trkpt lat="42.46008737650509" lon="11.412251618811883"><ele>95.0</ele><time>2026-04-12T14:29:53.999Z</time></trkpt><trkpt lat="42.46013222704802" lon="11.41241637185714"><ele>97.0</ele><time>2026-04-12T14:29:54.999Z</time></trkpt><trkpt lat="42.460180385873215" lon="11.412583612967731"><ele>99.0</ele><time>2026-04-12T14:29:55.999Z</time></trkpt><trkpt lat="42.46022971096996" lon="11.412754143609769"><ele>101.0</ele><time>2026-04-12T14:29:57Z</time></trkpt><trkpt lat="42.46028010203407" lon="11.412925263663192"><ele>100.25</ele><time>2026-04-12T14:29:58Z</time></trkpt><trkpt lat="42.460337523380204" lon="11.413085129687401"><ele>99.5</ele><time>2026-04-12T14:29:59Z</time></trkpt><trkpt lat="42.46039766029739" lon="11.413230515529861"><ele>98.75</ele><time>2026-04-12T14:30:00Z</time></trkpt><trkpt lat="42.460458820927556" lon="11.413368063166196"><ele>98.0</ele><time>2026-04-12T14:30:01Z</time></trkpt><trkpt lat="42.46051269982288" lon="11.413497998087156"><ele>98.0</ele><time>2026-04-12T14:30:02Z</time></trkpt><trkpt lat="42.460566646763276" lon="11.413624046538473"><ele>98.0</ele><time>2026-04-12T14:30:03Z</time></trkpt><trkpt lat="42.46062058066649" lon="11.413754922805138"><ele>98.0</ele><time>2026-04-12T14:30:04Z</time></trkpt><trkpt lat="42.46064246207168" lon="11.413906449883063"><ele>98.0</ele><time>2026-04-12T14:30:05Z</time></trkpt><trkpt lat="42.46066579417046" lon="11.414064940276942"><ele>99.5</ele><time>2026-04-12T14:30:06Z</time></trkpt><trkpt lat="42.460678366602615" lon="11.414230139243092"><ele>101.0</ele><time>2026-04-12T14:30:07Z</time></trkpt><trkpt lat="42.46068429308413" lon="11.414391050024078"><ele>102.5</ele><time>2026-04-12T14:30:08Z</time></trkpt><trkpt lat="42.46068668240953" lon="11.414537619768886"><ele>104.0</ele><time>2026-04-12T14:30:09Z</time></trkpt><trkpt lat="42.460682661165855" lon="11.414682109430508"><ele>104.2</ele><time>2026-04-12T14:30:10Z</time></trkpt><trkpt lat="42.460659818621714" lon="11.414826294411224"><ele>104.4</ele><time>2026-04-12T14:30:11Z</time></trkpt><trkpt lat="42.46061890099465" lon="11.414956258332335"><ele>104.6</ele><time>2026-04-12T14:30:12Z</time></trkpt><trkpt lat="42.46055364298212" lon="11.415063373962024"><ele>104.8</ele><time>2026-04-12T14:30:13Z</time></trkpt><trkpt lat="42.460472040442966" lon="11.41517475478096"><ele>105.0</ele><time>2026-04-12T14:30:14Z</time></trkpt><trkpt lat="42.46037129758694" lon="11.415286735116448"><ele>108.33333333333334</ele><time>2026-04-12T14:30:15Z</time></trkpt><trkpt lat="42.460247784473765" lon="11.415418771209014"><ele>111.66666666666667</ele><time>2026-04-12T14:30:16Z</time></trkpt><trkpt lat="42.4601192527971" lon="11.415552835348747"><ele>115.0</ele><time>2026-04-12T14:30:17Z</time></trkpt><trkpt lat="42.459977829084295" lon="11.415700346607688"><ele>115.0</ele><time>2026-04-12T14:30:18Z</time></trkpt><trkpt lat="42.45983607580608" lon="11.415848201615994"><ele>115.0</ele><time>2026-04-12T14:30:19Z</time></trkpt><trkpt lat="42.45970016317537" lon="11.415984350378768"><ele>115.0</ele><time>2026-04-12T14:30:20Z</time></trkpt><trkpt lat="42.45954255623206" lon="11.416133847705911"><ele>116.66666666666667</ele><time>2026-04-12T14:30:21Z</time></trkpt><trkpt lat="42.45938488290562" lon="11.416266899838048"><ele>118.33333333333334</ele><time>2026-04-12T14:30:22Z</time></trkpt><trkpt lat="42.459226107495105" lon="11.416389141618234"><ele>120.0</ele><time>2026-04-12T14:30:23Z</time></trkpt><trkpt lat="42.459081305049345" lon="11.416522992692325"><ele>121.66666666666666</ele><time>2026-04-12T14:30:24Z</time></trkpt><trkpt lat="42.45893169741676" lon="11.416658921827828"><ele>123.33333333333333</ele><time>2026-04-12T14:30:25Z</time></trkpt><trkpt lat="42.45880342263444" lon="11.41683397959033"><ele>125.0</ele><time>2026-04-12T14:30:26Z</time></trkpt><trkpt lat="42.458692783375625" lon="11.41704046586245"><ele>127.0</ele><time>2026-04-12T14:30:27Z</time></trkpt><trkpt lat="42.45858359584976" lon="11.417251712946587"><ele>129.0</ele><time>2026-04-12T14:30:28Z</time></trkpt><trkpt lat="42.45847183142076" lon="11.417474258726338"><ele>131.0</ele><time>2026-04-12T14:30:29Z</time></trkpt><trkpt lat="42.458371781864166" lon="11.417668625130826"><ele>131.0</ele><time>2026-04-12T14:30:30Z</time></trkpt><trkpt lat="42.458277120713554" lon="11.417882427013952"><ele>131.0</ele><time>2026-04-12T14:30:31Z</time></trkpt><trkpt lat="42.4581525675821" lon="11.418066103334533"><ele>131.0</ele><time>2026-04-12T14:30:32Z</time></trkpt><trkpt lat="42.458034605313536" lon="11.418256699854439"><ele>132.33333333333331</ele><time>2026-04-12T14:30:33Z</time></trkpt><trkpt lat="42.457932734059476" lon="11.41845462801498"><ele>133.66666666666666</ele><time>2026-04-12T14:30:34Z</time></trkpt><trkpt lat="42.457813019100634" lon="11.418638935886323"><ele>135.0</ele><time>2026-04-12T14:30:35Z</time></trkpt><trkpt lat="42.457700158144945" lon="11.418820187132004"><ele>138.33333333333334</ele><time>2026-04-12T14:30:36Z</time></trkpt><trkpt lat="42.45757218677734" lon="11.418993154130142"><ele>141.66666666666669</ele><time>2026-04-12T14:30:37Z</time></trkpt><trkpt lat="42.45746641608008" lon="11.419168905697038"><ele>145.0</ele><time>2026-04-12T14:30:38Z</time></trkpt><trkpt lat="42.45737919350203" lon="11.419358382362594"><ele>145.0</ele><time>2026-04-12T14:30:39Z</time></trkpt><trkpt lat="42.45728504510433" lon="11.419547925791136"><ele>145.0</ele><time>2026-04-12T14:30:40Z</time></trkpt><trkpt lat="42.457205393339585" lon="11.419758034752364"><ele>145.0</ele><time>2026-04-12T14:30:41Z</time></trkpt><trkpt lat="42.457114157896086" lon="11.419959527416768"><ele>145.33333333333334</ele><time>2026-04-12T14:30:42Z</time></trkpt><trkpt lat="42.45703503944321" lon="11.420166968031358"><ele>145.66666666666666</ele><time>2026-04-12T14:30:43Z</time></trkpt><trkpt lat="42.456954137827644" lon="11.420379083468994"><ele>146.0</ele><time>2026-04-12T14:30:44Z</time></trkpt><trkpt lat="42.456875817946646" lon="11.420584429963537"><ele>146.66666666666666</ele><time>2026-04-12T14:30:45Z</time></trkpt><trkpt lat="42.45679861306729" lon="11.420786853513238"><ele>147.33333333333334</ele><time>2026-04-12T14:30:46Z</time></trkpt><trkpt lat="42.4567352927126" lon="11.420998715724062"><ele>148.0</ele><time>2026-04-12T14:30:47Z</time></trkpt><trkpt lat="42.45664284886719" lon="11.42118169813722"><ele>151.33333333333334</ele><time>2026-04-12T14:30:48Z</time></trkpt><trkpt lat="42.456557085249145" lon="11.421365713498153"><ele>154.66666666666666</ele><time>2026-04-12T14:30:49Z</time></trkpt><trkpt lat="42.45646452789693" lon="11.421538862582972"><ele>158.0</ele><time>2026-04-12T14:30:50Z</time></trkpt><trkpt lat="42.45638254254101" lon="11.421730423296244"><ele>157.66666666666666</ele><time>2026-04-12T14:30:51Z</time></trkpt><trkpt lat="42.45628274470659" lon="11.421899169897735"><ele>157.33333333333334</ele><time>2026-04-12T14:30:52Z</time></trkpt><trkpt lat="42.456191521820074" lon="11.422076129590957"><ele>157.0</ele><time>2026-04-12T14:30:53Z</time></trkpt><trkpt lat="42.45612186642515" lon="11.42225974708856"><ele>155.5</ele><time>2026-04-12T14:30:54Z</time></trkpt><trkpt lat="42.45604003284375" lon="11.422432519483557"><ele>154.0</ele><time>2026-04-12T14:30:55Z</time></trkpt><trkpt lat="42.45598868733037" lon="11.422586711131034"><ele>152.5</ele><time>2026-04-12T14:30:56Z</time></trkpt><trkpt lat="42.455938079229725" lon="11.422743313143423"><ele>151.0</ele><time>2026-04-12T14:30:57Z</time></trkpt><trkpt lat="42.45590751390143" lon="11.422890513769127"><ele>151.8</ele><time>2026-04-12T14:30:58Z</time></trkpt><trkpt lat="42.455849337498" lon="11.423016039688319"><ele>152.6</ele><time>2026-04-12T14:30:59Z</time></trkpt><trkpt lat="42.455777227433934" lon="11.42313218601703"><ele>153.4</ele><time>2026-04-12T14:31:00Z</time></trkpt><trkpt lat="42.45568812395197" lon="11.423219772771766"><ele>154.2</ele><time>2026-04-12T14:31:01Z</time></trkpt><trkpt lat="42.45557887047931" lon="11.423269277055157"><ele>155.0</ele><time>2026-04-12T14:31:02Z</time></trkpt><trkpt lat="42.45546129921012" lon="11.423300946048903"><ele>155.25</ele><time>2026-04-12T14:31:03Z</time></trkpt><trkpt lat="42.45534085607112" lon="11.423340083206456"><ele>155.5</ele><time>2026-04-12T14:31:04Z</time></trkpt><trkpt lat="42.45521654755942" lon="11.423378179023365"><ele>155.75</ele><time>2026-04-12T14:31:05Z</time></trkpt><trkpt lat="42.45508569180274" lon="11.42341890987935"><ele>156.0</ele><time>2026-04-12T14:31:06Z</time></trkpt><trkpt lat="42.45495288068812" lon="11.423462071727979"><ele>156.0</ele><time>2026-04-12T14:31:07Z</time></trkpt><trkpt lat="42.454816176624014" lon="11.423513497202045"><ele>156.0</ele><time>2026-04-12T14:31:08Z</time></trkpt><trkpt lat="42.454678128025286" lon="11.423564242421234"><ele>156.0</ele><time>2026-04-12T14:31:09Z</time></trkpt><trkpt lat="42.45453481854959" lon="11.423609059543942"><ele>156.0</ele><time>2026-04-12T14:31:10Z</time></trkpt><trkpt lat="42.45439405572525" lon="11.42365020606237"><ele>157.4</ele><time>2026-04-12T14:31:11Z</time></trkpt><trkpt lat="42.45425635369403" lon="11.423695127553486"><ele>158.8</ele><time>2026-04-12T14:31:12Z</time></trkpt><trkpt lat="42.45415723126305" lon="11.423728737777596"><ele>160.20000000000002</ele><time>2026-04-12T14:31:13Z</time></trkpt><trkpt lat="42.45409451386833" lon="11.423752828749407"><ele>161.6</ele><time>2026-04-12T14:31:14Z</time></trkpt><trkpt lat="42.45402983267664" lon="11.423822139590206"><ele>163.0</ele><time>2026-04-12T14:31:16Z</time></trkpt><trkpt lat="42.45407999779842" lon="11.423954839021919"><ele>163.60000000000002</ele><time>2026-04-12T14:31:18Z</time></trkpt><trkpt lat="42.45414724057176" lon="11.424006441665801"><ele>164.20000000000002</ele><time>2026-04-12T14:31:19Z</time></trkpt><trkpt lat="42.45422728578299" lon="11.424021474976843"><ele>164.8</ele><time>2026-04-12T14:31:20Z</time></trkpt><trkpt lat="42.4543272260456" lon="11.424023994917588"><ele>165.4</ele><time>2026-04-12T14:31:20.999Z</time></trkpt><trkpt lat="42.454428305813" lon="11.424030004860224"><ele>166.0</ele><time>2026-04-12T14:31:21.999Z</time></trkpt><trkpt lat="42.45453223695895" lon="11.424035751940051"><ele>166.4</ele><time>2026-04-12T14:31:22.999Z</time></trkpt><trkpt lat="42.45463408869375" lon="11.424038918173174"><ele>166.8</ele><time>2026-04-12T14:31:23.999Z</time></trkpt><trkpt lat="42.45473387087163" lon="11.424042266377892"><ele>167.20000000000002</ele><time>2026-04-12T14:31:24.999Z</time></trkpt><trkpt lat="42.454828017730044" lon="11.424062956633763"><ele>167.60000000000002</ele><time>2026-04-12T14:31:25.999Z</time></trkpt><trkpt lat="42.45492118667019" lon="11.424098482185116"><ele>168.0</ele><time>2026-04-12T14:31:26.999Z</time></trkpt><trkpt lat="42.455010429122396" lon="11.42415116192143"><ele>168.0</ele><time>2026-04-12T14:31:27.999Z</time></trkpt><trkpt lat="42.455100092937094" lon="11.424208288174446"><ele>168.0</ele><time>2026-04-12T14:31:28.999Z</time></trkpt><trkpt lat="42.45518111353379" lon="11.42426666930041"><ele>168.0</ele><time>2026-04-12T14:31:29.999Z</time></trkpt><trkpt lat="42.4552656652417" lon="11.424333489661665"><ele>168.0</ele><time>2026-04-12T14:31:30.999Z</time></trkpt><trkpt lat="42.45534896603104" lon="11.424404872161146"><ele>168.0</ele><time>2026-04-12T14:31:31.999Z</time></trkpt><trkpt lat="42.455434638692815" lon="11.424487936899915"><ele>167.60000000000002</ele><time>2026-04-12T14:31:32.999Z</time></trkpt><trkpt lat="42.45551750117764" lon="11.424572657675494"><ele>167.20000000000002</ele><time>2026-04-12T14:31:33.999Z</time></trkpt><trkpt lat="42.45560814682647" lon="11.424659560200887"><ele>166.8</ele><time>2026-04-12T14:31:34.999Z</time></trkpt><trkpt lat="42.45569484075501" lon="11.424759126329961"><ele>166.4</ele><time>2026-04-12T14:31:35.999Z</time></trkpt><trkpt lat="42.455773328792354" lon="11.424861313384271"><ele>166.0</ele><time>2026-04-12T14:31:36.999Z</time></trkpt><trkpt lat="42.455839305291015" lon="11.424955735313864"><ele>167.4</ele><time>2026-04-12T14:31:37.999Z</time></trkpt><trkpt lat="42.45590853124764" lon="11.425038307053269"><ele>168.8</ele><time>2026-04-12T14:31:38.999Z</time></trkpt><trkpt lat="42.455990919902135" lon="11.425097959002938"><ele>170.20000000000002</ele><time>2026-04-12T14:31:39.999Z</time></trkpt><trkpt lat="42.45607774718028" lon="11.425153906016886"><ele>171.60000000000002</ele><time>2026-04-12T14:31:40.999Z</time></trkpt><trkpt lat="42.45615993590513" lon="11.42522941974211"><ele>173.0</ele><time>2026-04-12T14:31:41.999Z</time></trkpt><trkpt lat="42.4562186496452" lon="11.4253090232917"><ele>173.4</ele><time>2026-04-12T14:31:42.999Z</time></trkpt><trkpt lat="42.45630358533694" lon="11.425394455974109"><ele>173.8</ele><time>2026-04-12T14:31:49.999Z</time></trkpt><trkpt lat="42.45636357940646" lon="11.42556676994845"><ele>174.2</ele><time>2026-04-12T14:31:51.999Z</time></trkpt><trkpt lat="42.45639287480268" lon="11.42565103291049"><ele>174.6</ele><time>2026-04-12T14:31:52.999Z</time></trkpt><trkpt lat="42.45642505810418" lon="11.425743452573771"><ele>175.0</ele><time>2026-04-12T14:31:53.999Z</time></trkpt><trkpt lat="42.45647351041468" lon="11.425819493153409"><ele>175.16666666666669</ele><time>2026-04-12T14:31:54.999Z</time></trkpt><trkpt lat="42.45653424067534" lon="11.425894884683842"><ele>175.33333333333334</ele><time>2026-04-12T14:31:55.999Z</time></trkpt><trkpt lat="42.45658793252523" lon="11.425987331402784"><ele>175.5</ele><time>2026-04-12T14:31:56.999Z</time></trkpt><trkpt lat="42.45662825273959" lon="11.426076105880783"><ele>175.66666666666666</ele><time>2026-04-12T14:31:57.999Z</time></trkpt><trkpt lat="42.4566744646158" lon="11.426159973451957"><ele>175.83333333333331</ele><time>2026-04-12T14:31:58.999Z</time></trkpt><trkpt lat="42.45672901519116" lon="11.42622771771861"><ele>176.0</ele><time>2026-04-12T14:31:59.999Z</time></trkpt><trkpt lat="42.45676820691317" lon="11.426314495316875"><ele>176.0</ele><time>2026-04-12T14:32:00.999Z</time></trkpt><trkpt lat="42.45680015036883" lon="11.426399702815129"><ele>176.0</ele><time>2026-04-12T14:32:01.999Z</time></trkpt><trkpt lat="42.4568246661655" lon="11.426486658875433"><ele>176.0</ele><time>2026-04-12T14:32:03Z</time></trkpt><trkpt lat="42.45685294416901" lon="11.426590996218488"><ele>176.0</ele><time>2026-04-12T14:32:04Z</time></trkpt><trkpt lat="42.45689197007413" lon="11.42667958285273"><ele>176.0</ele><time>2026-04-12T14:32:05Z</time></trkpt><trkpt lat="42.45693738376596" lon="11.426773148329762"><ele>176.0</ele><time>2026-04-12T14:32:06Z</time></trkpt><trkpt lat="42.456971316666326" lon="11.426873895049514"><ele>176.0</ele><time>2026-04-12T14:32:07Z</time></trkpt><trkpt lat="42.456994820156844" lon="11.426970996429699"><ele>176.0</ele><time>2026-04-12T14:32:08Z</time></trkpt><trkpt lat="42.45701465105391" lon="11.427080620927894"><ele>176.0</ele><time>2026-04-12T14:32:09Z</time></trkpt><trkpt lat="42.45702869942527" lon="11.42719482871897"><ele>176.0</ele><time>2026-04-12T14:32:10Z</time></trkpt><trkpt lat="42.45704102437546" lon="11.427306555149716"><ele>176.0</ele><time>2026-04-12T14:32:11Z</time></trkpt><trkpt lat="42.45705491852921" lon="11.427420853024199"><ele>176.0</ele><time>2026-04-12T14:32:12Z</time></trkpt><trkpt lat="42.457061641081594" lon="11.42754688763963"><ele>175.66666666666666</ele><time>2026-04-12T14:32:13Z</time></trkpt><trkpt lat="42.45706633756068" lon="11.427675009113376"><ele>175.33333333333331</ele><time>2026-04-12T14:32:14Z</time></trkpt><trkpt lat="42.45707845741392" lon="11.42780727421033"><ele>175.0</ele><time>2026-04-12T14:32:15Z</time></trkpt><trkpt lat="42.45709818051205" lon="11.427930044555703"><ele>174.66666666666666</ele><time>2026-04-12T14:32:16Z</time></trkpt><trkpt lat="42.457113365498564" lon="11.428034607993588"><ele>174.33333333333334</ele><time>2026-04-12T14:32:17Z</time></trkpt><trkpt lat="42.457121174416514" lon="11.428131744783588"><ele>174.0</ele><time>2026-04-12T14:32:18Z</time></trkpt><trkpt lat="42.45712766893139" lon="11.428237229219727"><ele>173.5</ele><time>2026-04-12T14:32:19Z</time></trkpt><trkpt lat="42.45712203090806" lon="11.428350253570862"><ele>173.0</ele><time>2026-04-12T14:32:20Z</time></trkpt><trkpt lat="42.45710746678107" lon="11.428465963778734"><ele>172.5</ele><time>2026-04-12T14:32:21Z</time></trkpt><trkpt lat="42.4570822528824" lon="11.428571660707"><ele>172.0</ele><time>2026-04-12T14:32:22Z</time></trkpt><trkpt lat="42.4570587067785" lon="11.428685577162092"><ele>171.5</ele><time>2026-04-12T14:32:23Z</time></trkpt><trkpt lat="42.45704163006401" lon="11.428792447265174"><ele>171.0</ele><time>2026-04-12T14:32:24Z</time></trkpt><trkpt lat="42.45703592051519" lon="11.428903612228686"><ele>171.0</ele><time>2026-04-12T14:32:25Z</time></trkpt><trkpt lat="42.457044083066485" lon="11.429023521526334"><ele>171.0</ele><time>2026-04-12T14:32:26Z</time></trkpt><trkpt lat="42.457056148490274" lon="11.429141952955357"><ele>171.0</ele><time>2026-04-12T14:32:27Z</time></trkpt><trkpt lat="42.45706296443921" lon="11.42925000977576"><ele>171.0</ele><time>2026-04-12T14:32:28Z</time></trkpt><trkpt lat="42.45707166114812" lon="11.429341131349565"><ele>171.0</ele><time>2026-04-12T14:32:29Z</time></trkpt><trkpt lat="42.45709752347392" lon="11.429421692785576"><ele>171.0</ele><time>2026-04-12T14:32:30Z</time></trkpt><trkpt lat="42.45715226012274" lon="11.42956049088297"><ele>171.20000000000002</ele><time>2026-04-12T14:32:32Z</time></trkpt><trkpt lat="42.45722091772573" lon="11.429684967181949"><ele>171.4</ele><time>2026-04-12T14:32:34Z</time></trkpt><trkpt lat="42.457249204728846" lon="11.429771355590223"><ele>171.6</ele><time>2026-04-12T14:32:35Z</time></trkpt><trkpt lat="42.45732818321923" lon="11.429896469561298"><ele>171.8</ele><time>2026-04-12T14:32:37Z</time></trkpt><trkpt lat="42.45740826750524" lon="11.429971091550863"><ele>172.0</ele><time>2026-04-12T14:32:39Z</time></trkpt><trkpt lat="42.457517038961626" lon="11.430015193149577"><ele>172.0</ele><time>2026-04-12T14:32:40Z</time></trkpt><trkpt lat="42.45763064089232" lon="11.429997598113921"><ele>172.0</ele><time>2026-04-12T14:32:41Z</time></trkpt><trkpt lat="42.4577154157622" lon="11.429985156593577"><ele>172.0</ele><time>2026-04-12T14:32:42Z</time></trkpt><trkpt lat="42.45778562470264" lon="11.429974852894846"><ele>172.0</ele><time>2026-04-12T14:32:43Z</time></trkpt><trkpt lat="42.45786733765396" lon="11.429957659112008"><ele>172.0</ele><time>2026-04-12T14:32:44Z</time></trkpt><trkpt lat="42.45793945168847" lon="11.429930951835098"><ele>172.0</ele><time>2026-04-12T14:32:45Z</time></trkpt><trkpt lat="42.45805595099707" lon="11.429878290244215"><ele>172.0</ele><time>2026-04-12T14:32:47Z</time></trkpt><trkpt lat="42.45817486058718" lon="11.429848206818551"><ele>172.0</ele><time>2026-04-12T14:32:49Z</time></trkpt><trkpt lat="42.458286700469145" lon="11.42983107437043"><ele>172.0</ele><time>2026-04-12T14:32:51Z</time></trkpt><trkpt lat="42.45835009923022" lon="11.429827672285963"><ele>172.0</ele><time>2026-04-12T14:32:52Z</time></trkpt><trkpt lat="42.45842213585065" lon="11.429830732359614"><ele>172.0</ele><time>2026-04-12T14:32:53Z</time></trkpt><trkpt lat="42.45853324935476" lon="11.429856253245696"><ele>172.0</ele><time>2026-04-12T14:32:55Z</time></trkpt><trkpt lat="42.458593854618364" lon="11.429883388267303"><ele>172.0</ele><time>2026-04-12T14:32:56Z</time></trkpt><trkpt lat="42.45864648491406" lon="11.429959075169563"><ele>172.0</ele><time>2026-04-12T14:32:57Z</time></trkpt><trkpt lat="42.45870522551734" lon="11.430104737884312"><ele>172.0</ele><time>2026-04-12T14:32:59Z</time></trkpt><trkpt lat="42.458698561523526" lon="11.430203294662396"><ele>172.0</ele><time>2026-04-12T14:33:00Z</time></trkpt><trkpt lat="42.45868197907718" lon="11.430306038342941"><ele>172.0</ele><time>2026-04-12T14:33:01Z</time></trkpt><trkpt lat="42.45866139905854" lon="11.430402762250221"><ele>171.39999999999998</ele><time>2026-04-12T14:33:02Z</time></trkpt><trkpt lat="42.45862457596829" lon="11.430570334666925"><ele>170.79999999999998</ele><time>2026-04-12T14:33:04Z</time></trkpt><trkpt lat="42.45867989311532" lon="11.43069722737416"><ele>170.2</ele><time>2026-04-12T14:33:06Z</time></trkpt><trkpt lat="42.45872448106494" lon="11.430769894168797"><ele>169.6</ele><time>2026-04-12T14:33:07Z</time></trkpt><trkpt lat="42.45876495346596" lon="11.430888129170823"><ele>169.0</ele><time>2026-04-12T14:33:10Z</time></trkpt><trkpt lat="42.458790975689666" lon="11.430967622153645"><ele>171.66666666666669</ele><time>2026-04-12T14:33:11Z</time></trkpt><trkpt lat="42.458832550167834" lon="11.431101930152145"><ele>174.33333333333334</ele><time>2026-04-12T14:33:12.999Z</time></trkpt><trkpt lat="42.45885667188074" lon="11.431187615279947"><ele>177.0</ele><time>2026-04-12T14:33:13.999Z</time></trkpt><trkpt lat="42.45889851566269" lon="11.431277123428313"><ele>179.66666666666666</ele><time>2026-04-12T14:33:14.999Z</time></trkpt><trkpt lat="42.45894476122019" lon="11.431337960090001"><ele>182.33333333333331</ele><time>2026-04-12T14:33:15.999Z</time></trkpt><trkpt lat="42.45901800628389" lon="11.43138137357726"><ele>185.0</ele><time>2026-04-12T14:33:16.999Z</time></trkpt><trkpt lat="42.45909135110216" lon="11.43140194332962"><ele>185.2</ele><time>2026-04-12T14:33:17.999Z</time></trkpt><trkpt lat="42.45915545566044" lon="11.43143372481149"><ele>185.4</ele><time>2026-04-12T14:33:18.999Z</time></trkpt><trkpt lat="42.45923826607689" lon="11.431449751403633"><ele>185.60000000000002</ele><time>2026-04-12T14:33:19.999Z</time></trkpt><trkpt lat="42.45934439158236" lon="11.431485878278115"><ele>185.8</ele><time>2026-04-12T14:33:21.999Z</time></trkpt><trkpt lat="42.459444938649554" lon="11.431581915241178"><ele>186.0</ele><time>2026-04-12T14:33:23.999Z</time></trkpt><trkpt lat="42.459533807383856" lon="11.431691425705832"><ele>186.0</ele><time>2026-04-12T14:33:25.999Z</time></trkpt><trkpt lat="42.45961314939596" lon="11.431817470805369"><ele>186.0</ele><time>2026-04-12T14:33:27.999Z</time></trkpt><trkpt lat="42.45965938073159" lon="11.431886604678438"><ele>186.0</ele><time>2026-04-12T14:33:28.999Z</time></trkpt><trkpt lat="42.45970413517874" lon="11.431951983787853"><ele>186.0</ele><time>2026-04-12T14:33:29.999Z</time></trkpt><trkpt lat="42.45978796840714" lon="11.432066213543118"><ele>186.0</ele><time>2026-04-12T14:33:31.999Z</time></trkpt><trkpt lat="42.45983883264376" lon="11.432120273903951"><ele>186.0</ele><time>2026-04-12T14:33:34.999Z</time></trkpt><trkpt lat="42.45987624182496" lon="11.43219341276631"><ele>189.25</ele><time>2026-04-12T14:33:56.999Z</time></trkpt><trkpt lat="42.45993095935432" lon="11.432250207899733"><ele>192.5</ele><time>2026-04-12T14:34:02.999Z</time></trkpt><trkpt lat="42.46000032913303" lon="11.432339471124124"><ele>195.75</ele><time>2026-04-12T14:34:05.999Z</time></trkpt><trkpt lat="42.46001271710258" lon="11.432460237867243"><ele>199.0</ele><time>2026-04-12T14:34:07.999Z</time></trkpt><trkpt lat="42.460205934009686" lon="11.432369552982198"><ele>199.0</ele><time>2026-04-12T14:34:09Z</time></trkpt><trkpt lat="42.46031422796798" lon="11.432452615301479"><ele>199.0</ele><time>2026-04-12T14:34:11Z</time></trkpt><trkpt lat="42.46036705596073" lon="11.432500205335204"><ele>199.0</ele><time>2026-04-12T14:34:12Z</time></trkpt><trkpt lat="42.46042607802184" lon="11.432557039635427"><ele>199.0</ele><time>2026-04-12T14:34:13Z</time></trkpt><trkpt lat="42.460529073940215" lon="11.43263378937768"><ele>199.0</ele><time>2026-04-12T14:34:15Z</time></trkpt><trkpt lat="42.46061427597605" lon="11.432733051862742"><ele>200.28571428571428</ele><time>2026-04-12T14:34:17Z</time></trkpt><trkpt lat="42.460668769559845" lon="11.43278629585808"><ele>201.57142857142856</ele><time>2026-04-12T14:34:18Z</time></trkpt><trkpt lat="42.46073809033354" lon="11.432851701202436"><ele>202.85714285714283</ele><time>2026-04-12T14:34:19Z</time></trkpt><trkpt lat="42.460809571850334" lon="11.432903682275974"><ele>204.14285714285714</ele><time>2026-04-12T14:34:20Z</time></trkpt><trkpt lat="42.460878645376404" lon="11.432955976458121"><ele>205.42857142857144</ele><time>2026-04-12T14:34:21Z</time></trkpt><trkpt lat="42.46093917696984" lon="11.432991378118178"><ele>206.7142857142857</ele><time>2026-04-12T14:34:22Z</time></trkpt><trkpt lat="42.461001153321135" lon="11.433035977000772"><ele>208.0</ele><time>2026-04-12T14:34:23Z</time></trkpt><trkpt lat="42.46105670434503" lon="11.433088344717575"><ele>210.49999999999997</ele><time>2026-04-12T14:34:24Z</time></trkpt><trkpt lat="42.4611739214891" lon="11.433158192366458"><ele>213.0</ele><time>2026-04-12T14:34:26Z</time></trkpt><trkpt lat="42.46124658291644" lon="11.433196847390969"><ele>215.5</ele><time>2026-04-12T14:34:27Z</time></trkpt><trkpt lat="42.46130577742209" lon="11.433238787523566"><ele>218.0</ele><time>2026-04-12T14:34:28Z</time></trkpt><trkpt lat="42.4613633996256" lon="11.433290930895705"><ele>220.49999999999997</ele><time>2026-04-12T14:34:29Z</time></trkpt><trkpt lat="42.46141885519644" lon="11.433360367175851"><ele>223.0</ele><time>2026-04-12T14:34:30Z</time></trkpt><trkpt lat="42.46153193872591" lon="11.433482645356131"><ele>222.99999999999997</ele><time>2026-04-12T14:34:32Z</time></trkpt><trkpt lat="42.46160082734237" lon="11.433547397529011"><ele>223.0</ele><time>2026-04-12T14:34:33Z</time></trkpt><trkpt lat="42.46166373432442" lon="11.433595560981948"><ele>223.0</ele><time>2026-04-12T14:34:34Z</time></trkpt><trkpt lat="42.46177074538227" lon="11.433670728974608"><ele>223.0</ele><time>2026-04-12T14:34:36Z</time></trkpt><trkpt lat="42.46183714802782" lon="11.433726027357435"><ele>222.99999999999997</ele><time>2026-04-12T14:34:37Z</time></trkpt><trkpt lat="42.4619022119038" lon="11.433751691854567"><ele>223.0</ele><time>2026-04-12T14:34:38Z</time></trkpt><trkpt lat="42.46197281744133" lon="11.43377434820832"><ele>222.99999999999997</ele><time>2026-04-12T14:34:39Z</time></trkpt><trkpt lat="42.462052251690125" lon="11.433779746853858"><ele>223.0</ele><time>2026-04-12T14:34:40Z</time></trkpt><trkpt lat="42.46212902837778" lon="11.433790968841395"><ele>223.0</ele><time>2026-04-12T14:34:41Z</time></trkpt><trkpt lat="42.46220470145143" lon="11.433809054293354"><ele>223.0</ele><time>2026-04-12T14:34:42Z</time></trkpt><trkpt lat="42.46227503610709" lon="11.433807413641379"><ele>222.99999999999997</ele><time>2026-04-12T14:34:43Z</time></trkpt><trkpt lat="42.46233991360404" lon="11.43382724267279"><ele>223.0</ele><time>2026-04-12T14:34:44Z</time></trkpt><trkpt lat="42.46243263438972" lon="11.43385596071719"><ele>228.60000000000002</ele><time>2026-04-12T14:34:46Z</time></trkpt><trkpt lat="42.46244073397296" lon="11.433974411364453"><ele>234.20000000000002</ele><time>2026-04-12T14:34:49Z</time></trkpt><trkpt lat="42.462336983305235" lon="11.434012168116093"><ele>239.8</ele><time>2026-04-12T14:34:51Z</time></trkpt><trkpt lat="42.46223049136418" lon="11.434091313856484"><ele>245.4</ele><time>2026-04-12T14:34:53Z</time></trkpt><trkpt lat="42.46215874912838" lon="11.434213624974678"><ele>251.0</ele><time>2026-04-12T14:34:55Z</time></trkpt><trkpt lat="42.462127776924405" lon="11.4342998021855"><ele>251.4285714285714</ele><time>2026-04-12T14:34:56Z</time></trkpt><trkpt lat="42.46210207300487" lon="11.434381650577613"><ele>251.85714285714283</ele><time>2026-04-12T14:34:57Z</time></trkpt><trkpt lat="42.46208659684308" lon="11.434465818533395"><ele>252.28571428571428</ele><time>2026-04-12T14:34:58Z</time></trkpt><trkpt lat="42.46209171622199" lon="11.434555601742879"><ele>252.7142857142857</ele><time>2026-04-12T14:34:59Z</time></trkpt><trkpt lat="42.46209733945831" lon="11.434643803300798"><ele>253.1428571428571</ele><time>2026-04-12T14:35:00Z</time></trkpt><trkpt lat="42.462107328167335" lon="11.434739800367307"><ele>253.57142857142858</ele><time>2026-04-12T14:35:01Z</time></trkpt><trkpt lat="42.46213845728896" lon="11.434818179963454"><ele>254.0</ele><time>2026-04-12T14:35:03Z</time></trkpt><trkpt lat="42.462091552725894" lon="11.43488437918835"><ele>254.00000000000003</ele><time>2026-04-12T14:35:11Z</time></trkpt><trkpt lat="42.46200145541187" lon="11.434800582770256"><ele>254.0</ele><time>2026-04-12T14:35:13Z</time></trkpt><trkpt lat="42.46192663861546" lon="11.434776182015362"><ele>254.0</ele><time>2026-04-12T14:35:14Z</time></trkpt><trkpt lat="42.46185007953134" lon="11.4347711929205"><ele>254.0</ele><time>2026-04-12T14:35:15Z</time></trkpt><trkpt lat="42.46176987404842" lon="11.43476670964287"><ele>254.00000000000003</ele><time>2026-04-12T14:35:16Z</time></trkpt><trkpt lat="42.46167123675739" lon="11.4347772987594"><ele>254.0</ele><time>2026-04-12T14:35:17Z</time></trkpt><trkpt lat="42.46157318768437" lon="11.434768751281197"><ele>254.00000000000003</ele><time>2026-04-12T14:35:18Z</time></trkpt><trkpt lat="42.461483533551494" lon="11.434787182609734"><ele>254.0</ele><time>2026-04-12T14:35:19Z</time></trkpt><trkpt lat="42.461399910474114" lon="11.434765006619473"><ele>254.0</ele><time>2026-04-12T14:35:20Z</time></trkpt><trkpt lat="42.46131870106705" lon="11.434763538978075"><ele>254.0</ele><time>2026-04-12T14:35:21Z</time></trkpt><trkpt lat="42.46120460622524" lon="11.43476861391235"><ele>254.00000000000003</ele><time>2026-04-12T14:35:23Z</time></trkpt><trkpt lat="42.461141958286426" lon="11.434787217818082"><ele>254.0</ele><time>2026-04-12T14:35:24Z</time></trkpt><trkpt lat="42.46108184220491" lon="11.434820027510993"><ele>255.0</ele><time>2026-04-12T14:35:25Z</time></trkpt><trkpt lat="42.46102694385329" lon="11.43486700923401"><ele>256.0</ele><time>2026-04-12T14:35:26Z</time></trkpt><trkpt lat="42.460984566908756" lon="11.4349624181077"><ele>257.0</ele><time>2026-04-12T14:35:27Z</time></trkpt><trkpt lat="42.46093363915095" lon="11.43503330869812"><ele>258.0</ele><time>2026-04-12T14:35:28Z</time></trkpt><trkpt lat="42.46086940978944" lon="11.435076969916425"><ele>259.0</ele><time>2026-04-12T14:35:29Z</time></trkpt><trkpt lat="42.4607954747905" lon="11.435124816370251"><ele>260.0</ele><time>2026-04-12T14:35:30Z</time></trkpt><trkpt lat="42.46072880279645" lon="11.435167912440502"><ele>261.0</ele><time>2026-04-12T14:35:31Z</time></trkpt><trkpt lat="42.46064277466314" lon="11.435212450262382"><ele>261.0</ele><time>2026-04-12T14:35:32Z</time></trkpt><trkpt lat="42.46055620110189" lon="11.435249205339396"><ele>261.0</ele><time>2026-04-12T14:35:33Z</time></trkpt><trkpt lat="42.46047608187358" lon="11.435280113318596"><ele>261.0</ele><time>2026-04-12T14:35:34Z</time></trkpt><trkpt lat="42.46040384796718" lon="11.435310263363622"><ele>261.0</ele><time>2026-04-12T14:35:35Z</time></trkpt><trkpt lat="42.46033898205909" lon="11.435364340520897"><ele>261.0</ele><time>2026-04-12T14:35:36Z</time></trkpt><trkpt lat="42.460261605856346" lon="11.435402005285647"><ele>261.0</ele><time>2026-04-12T14:35:36.999Z</time></trkpt><trkpt lat="42.46018510328052" lon="11.43545189268726"><ele>260.3333333333333</ele><time>2026-04-12T14:35:37.999Z</time></trkpt><trkpt lat="42.46010302118922" lon="11.435503803416418"><ele>259.6666666666667</ele><time>2026-04-12T14:35:38.999Z</time></trkpt><trkpt lat="42.460023933543994" lon="11.43555355529565"><ele>259.0</ele><time>2026-04-12T14:35:39.999Z</time></trkpt><trkpt lat="42.45996014532014" lon="11.435622074839983"><ele>258.33333333333337</ele><time>2026-04-12T14:35:40.999Z</time></trkpt><trkpt lat="42.459892659654905" lon="11.435659224186212"><ele>257.6666666666667</ele><time>2026-04-12T14:35:41.999Z</time></trkpt><trkpt lat="42.459838371788095" lon="11.435739130919908"><ele>257.0</ele><time>2026-04-12T14:35:42.999Z</time></trkpt><trkpt lat="42.4597758446299" lon="11.43581935884996"><ele>257.0</ele><time>2026-04-12T14:35:43.999Z</time></trkpt><trkpt lat="42.45971474904584" lon="11.435886344328356"><ele>257.0</ele><time>2026-04-12T14:35:44.999Z</time></trkpt><trkpt lat="42.45964402737897" lon="11.435929265857148"><ele>257.0</ele><time>2026-04-12T14:35:45.999Z</time></trkpt><trkpt lat="42.45958163546124" lon="11.435983998147735"><ele>257.0</ele><time>2026-04-12T14:35:46.999Z</time></trkpt><trkpt lat="42.45952212345197" lon="11.436062272871766"><ele>257.0</ele><time>2026-04-12T14:35:47.999Z</time></trkpt><trkpt lat="42.45944922013584" lon="11.436124992404935"><ele>257.0</ele><time>2026-04-12T14:35:48.999Z</time></trkpt><trkpt lat="42.45939767698997" lon="11.43619700802015"><ele>257.0</ele><time>2026-04-12T14:35:49.999Z</time></trkpt><trkpt lat="42.459319762602235" lon="11.436276526808424"><ele>257.0</ele><time>2026-04-12T14:35:50.999Z</time></trkpt><trkpt lat="42.45926369357553" lon="11.43635253207716"><ele>257.0</ele><time>2026-04-12T14:35:51.999Z</time></trkpt><trkpt lat="42.459214691835996" lon="11.436417130079425"><ele>257.0</ele><time>2026-04-12T14:35:52.999Z</time></trkpt><trkpt lat="42.45915538136575" lon="11.43648789581812"><ele>257.0</ele><time>2026-04-12T14:35:53.999Z</time></trkpt><trkpt lat="42.45908973207539" lon="11.436562159245522"><ele>257.0</ele><time>2026-04-12T14:35:54.999Z</time></trkpt><trkpt lat="42.459024525705786" lon="11.436635921383061"><ele>257.0</ele><time>2026-04-12T14:35:55.999Z</time></trkpt><trkpt lat="42.45895651687957" lon="11.436706869082718"><ele>257.0</ele><time>2026-04-12T14:35:56.999Z</time></trkpt><trkpt lat="42.458887636786535" lon="11.436776578153248"><ele>257.0</ele><time>2026-04-12T14:35:57.999Z</time></trkpt><trkpt lat="42.45881439950513" lon="11.436849815525811"><ele>257.0</ele><time>2026-04-12T14:35:58.999Z</time></trkpt><trkpt lat="42.45875204916057" lon="11.436940627555746"><ele>257.0</ele><time>2026-04-12T14:35:59.999Z</time></trkpt><trkpt lat="42.458673715230255" lon="11.437001070243541"><ele>257.0</ele><time>2026-04-12T14:36:00.999Z</time></trkpt><trkpt lat="42.458614000356334" lon="11.437081512308195"><ele>257.33333333333337</ele><time>2026-04-12T14:36:01.999Z</time></trkpt><trkpt lat="42.458568031556545" lon="11.437150940451644"><ele>257.6666666666667</ele><time>2026-04-12T14:36:02.999Z</time></trkpt><trkpt lat="42.458517522929725" lon="11.437252216781165"><ele>258.0</ele><time>2026-04-12T14:36:03.999Z</time></trkpt><trkpt lat="42.45848728625382" lon="11.43734239222531"><ele>258.3333333333333</ele><time>2026-04-12T14:36:04.999Z</time></trkpt><trkpt lat="42.458457027858785" lon="11.43743201821864"><ele>258.66666666666663</ele><time>2026-04-12T14:36:05.999Z</time></trkpt><trkpt lat="42.458410048733306" lon="11.437513518484922"><ele>259.0</ele><time>2026-04-12T14:36:06.999Z</time></trkpt><trkpt lat="42.45837540620998" lon="11.43760328707414"><ele>259.0</ele><time>2026-04-12T14:36:07.999Z</time></trkpt><trkpt lat="42.45834012020982" lon="11.437693956348882"><ele>259.0</ele><time>2026-04-12T14:36:08.999Z</time></trkpt><trkpt lat="42.45829850268316" lon="11.437798720263508"><ele>259.0</ele><time>2026-04-12T14:36:09.999Z</time></trkpt><trkpt lat="42.45825980342756" lon="11.437894437609703"><ele>259.0</ele><time>2026-04-12T14:36:10.999Z</time></trkpt><trkpt lat="42.45822305564143" lon="11.437979339229786"><ele>259.0</ele><time>2026-04-12T14:36:11.999Z</time></trkpt><trkpt lat="42.45817831547783" lon="11.438077861742425"><ele>259.0</ele><time>2026-04-12T14:36:12.999Z</time></trkpt><trkpt lat="42.45813307924128" lon="11.43817242898598"><ele>258.16666666666663</ele><time>2026-04-12T14:36:13.999Z</time></trkpt><trkpt lat="42.4580820372963" lon="11.438270010178499"><ele>257.3333333333333</ele><time>2026-04-12T14:36:15Z</time></trkpt><trkpt lat="42.45805368397585" lon="11.438362023639435"><ele>256.5</ele><time>2026-04-12T14:36:16Z</time></trkpt><trkpt lat="42.45796944950673" lon="11.438487196714416"><ele>255.66666666666669</ele><time>2026-04-12T14:36:18Z</time></trkpt><trkpt lat="42.45794557242047" lon="11.438571584814811"><ele>254.83333333333334</ele><time>2026-04-12T14:36:19.001Z</time></trkpt><trkpt lat="42.4579058027117" lon="11.438638420004688"><ele>254.0</ele><time>2026-04-12T14:36:20.001Z</time></trkpt><trkpt lat="42.457870911282775" lon="11.438767859110282"><ele>251.79999999999998</ele><time>2026-04-12T14:36:22.001Z</time></trkpt><trkpt lat="42.45781607718227" lon="11.438884801937725"><ele>249.59999999999997</ele><time>2026-04-12T14:36:24.001Z</time></trkpt><trkpt lat="42.4577755029646" lon="11.438992028972585"><ele>247.4</ele><time>2026-04-12T14:36:26.001Z</time></trkpt><trkpt lat="42.45773423301099" lon="11.439101094596321"><ele>245.2</ele><time>2026-04-12T14:36:28.001Z</time></trkpt><trkpt lat="42.45769471233569" lon="11.439208814217226"><ele>243.0</ele><time>2026-04-12T14:36:30Z</time></trkpt><trkpt lat="42.45766840950965" lon="11.439332983749686"><ele>243.0</ele><time>2026-04-12T14:36:32Z</time></trkpt><trkpt lat="42.45760214353398" lon="11.439510678698973"><ele>243.0</ele><time>2026-04-12T14:36:35Z</time></trkpt><trkpt lat="42.45756832702022" lon="11.439587532238974"><ele>243.0</ele><time>2026-04-12T14:36:37Z</time></trkpt><trkpt lat="42.457485223250515" lon="11.439617867598454"><ele>243.0</ele><time>2026-04-12T14:36:40Z</time></trkpt><trkpt lat="42.45739815260469" lon="11.439576252293977"><ele>243.0</ele><time>2026-04-12T14:36:42Z</time></trkpt><trkpt lat="42.457336166795415" lon="11.439542997071149"><ele>243.0</ele><time>2026-04-12T14:36:43Z</time></trkpt><trkpt lat="42.457261043690025" lon="11.439488465010983"><ele>243.0</ele><time>2026-04-12T14:36:44Z</time></trkpt><trkpt lat="42.45719843245499" lon="11.439430104357218"><ele>243.0</ele><time>2026-04-12T14:36:45Z</time></trkpt><trkpt lat="42.45714492353933" lon="11.43937254584983"><ele>243.0</ele><time>2026-04-12T14:36:46Z</time></trkpt><trkpt lat="42.457094072464834" lon="11.439321778952747"><ele>243.0</ele><time>2026-04-12T14:36:47Z</time></trkpt><trkpt lat="42.457005446707015" lon="11.439194278280452"><ele>243.0</ele><time>2026-04-12T14:36:49Z</time></trkpt><trkpt lat="42.456959577152574" lon="11.439114778154819"><ele>239.66666666666666</ele><time>2026-04-12T14:36:50Z</time></trkpt><trkpt lat="42.456909567033286" lon="11.439027473223746"><ele>236.33333333333331</ele><time>2026-04-12T14:36:51Z</time></trkpt><trkpt lat="42.45685680574726" lon="11.438937412577198"><ele>233.0</ele><time>2026-04-12T14:36:52Z</time></trkpt><trkpt lat="42.45680700532459" lon="11.438856137609429"><ele>229.66666666666666</ele><time>2026-04-12T14:36:53Z</time></trkpt><trkpt lat="42.45676367060996" lon="11.438788890043709"><ele>226.33333333333331</ele><time>2026-04-12T14:36:54Z</time></trkpt><trkpt lat="42.456712917789304" lon="11.438715526902147"><ele>223.0</ele><time>2026-04-12T14:36:55Z</time></trkpt><trkpt lat="42.45662152801237" lon="11.438597768969794"><ele>222.2</ele><time>2026-04-12T14:36:57Z</time></trkpt><trkpt lat="42.45653046606252" lon="11.438500335360184"><ele>221.4</ele><time>2026-04-12T14:36:59Z</time></trkpt><trkpt lat="42.456450983310226" lon="11.438414708207613"><ele>220.59999999999997</ele><time>2026-04-12T14:37:01Z</time></trkpt><trkpt lat="42.45636651352835" lon="11.43833953892484"><ele>219.79999999999998</ele><time>2026-04-12T14:37:03Z</time></trkpt><trkpt lat="42.45627218370391" lon="11.438280704906873"><ele>219.0</ele><time>2026-04-12T14:37:05Z</time></trkpt><trkpt lat="42.45615942272464" lon="11.438317939998388"><ele>216.16666666666666</ele><time>2026-04-12T14:37:07Z</time></trkpt><trkpt lat="42.45608425928485" lon="11.438326154592467"><ele>213.33333333333331</ele><time>2026-04-12T14:37:09Z</time></trkpt><trkpt lat="42.4560118406787" lon="11.438322821431045"><ele>210.5</ele><time>2026-04-12T14:37:16Z</time></trkpt><trkpt lat="42.45597701087833" lon="11.438493313796236"><ele>207.66666666666666</ele><time>2026-04-12T14:37:17Z</time></trkpt><trkpt lat="42.455961325675865" lon="11.438578385460458"><ele>204.83333333333331</ele><time>2026-04-12T14:37:18Z</time></trkpt><trkpt lat="42.45592099609856" lon="11.43867900315081"><ele>202.0</ele><time>2026-04-12T14:37:19Z</time></trkpt><trkpt lat="42.455898409717896" lon="11.438780617632226"><ele>202.6</ele><time>2026-04-12T14:37:20Z</time></trkpt><trkpt lat="42.455871914306435" lon="11.438903205549087"><ele>203.2</ele><time>2026-04-12T14:37:21Z</time></trkpt><trkpt lat="42.455840955473754" lon="11.439029974686319"><ele>203.8</ele><time>2026-04-12T14:37:22Z</time></trkpt><trkpt lat="42.455803807635256" lon="11.439181945147725"><ele>204.4</ele><time>2026-04-12T14:37:23Z</time></trkpt><trkpt lat="42.45576357492748" lon="11.43934653564551"><ele>205.0</ele><time>2026-04-12T14:37:24Z</time></trkpt><trkpt lat="42.455729771471646" lon="11.439484824313698"><ele>204.99999999999997</ele><time>2026-04-12T14:37:25Z</time></trkpt><trkpt lat="42.45569938639035" lon="11.439609128595414"><ele>205.0</ele><time>2026-04-12T14:37:26Z</time></trkpt><trkpt lat="42.4556722740516" lon="11.439720044157632"><ele>205.0</ele><time>2026-04-12T14:37:27Z</time></trkpt><trkpt lat="42.45566232534675" lon="11.4398309180265"><ele>205.0</ele><time>2026-04-12T14:37:28Z</time></trkpt><trkpt lat="42.45562919331261" lon="11.43992382087834"><ele>204.99999999999997</ele><time>2026-04-12T14:37:29Z</time></trkpt><trkpt lat="42.45559861703393" lon="11.440021372295925"><ele>205.0</ele><time>2026-04-12T14:37:30Z</time></trkpt><trkpt lat="42.45557449125624" lon="11.440120069955958"><ele>205.2857142857143</ele><time>2026-04-12T14:37:31Z</time></trkpt><trkpt lat="42.45555064305546" lon="11.440217632054255"><ele>205.57142857142856</ele><time>2026-04-12T14:37:32Z</time></trkpt><trkpt lat="42.45552568319338" lon="11.44032011204098"><ele>205.85714285714286</ele><time>2026-04-12T14:37:33Z</time></trkpt><trkpt lat="42.45550161389055" lon="11.440419497534982"><ele>206.14285714285717</ele><time>2026-04-12T14:37:34Z</time></trkpt><trkpt lat="42.455478556360895" lon="11.440514705265"><ele>206.42857142857144</ele><time>2026-04-12T14:37:35Z</time></trkpt><trkpt lat="42.45547252774735" lon="11.440608819931942"><ele>206.71428571428572</ele><time>2026-04-12T14:37:36Z</time></trkpt><trkpt lat="42.45544996008135" lon="11.44069848203552"><ele>207.0</ele><time>2026-04-12T14:37:37Z</time></trkpt><trkpt lat="42.455432602117" lon="11.440781103491787"><ele>204.8</ele><time>2026-04-12T14:37:38Z</time></trkpt><trkpt lat="42.45542653430354" lon="11.440866173051335"><ele>202.6</ele><time>2026-04-12T14:37:39Z</time></trkpt><trkpt lat="42.455423287018064" lon="11.440969928739948"><ele>200.4</ele><time>2026-04-12T14:37:40Z</time></trkpt><trkpt lat="42.45543274285606" lon="11.441092572146774"><ele>198.20000000000002</ele><time>2026-04-12T14:37:41Z</time></trkpt><trkpt lat="42.455446208157916" lon="11.441231585306907"><ele>196.0</ele><time>2026-04-12T14:37:42Z</time></trkpt><trkpt lat="42.45546131554728" lon="11.44139026506721"><ele>196.0</ele><time>2026-04-12T14:37:43Z</time></trkpt><trkpt lat="42.45547936115554" lon="11.441557393360856"><ele>196.0</ele><time>2026-04-12T14:37:44Z</time></trkpt><trkpt lat="42.45550219372492" lon="11.441719262586748"><ele>196.0</ele><time>2026-04-12T14:37:45Z</time></trkpt><trkpt lat="42.45551940284791" lon="11.441872844486506"><ele>196.0</ele><time>2026-04-12T14:37:46Z</time></trkpt><trkpt lat="42.455521161744066" lon="11.44203513996117"><ele>195.0</ele><time>2026-04-12T14:37:47Z</time></trkpt><trkpt lat="42.45553596347304" lon="11.442194816722354"><ele>194.0</ele><time>2026-04-12T14:37:48Z</time></trkpt><trkpt lat="42.45556450300802" lon="11.442357111124725"><ele>193.0</ele><time>2026-04-12T14:37:49Z</time></trkpt><trkpt lat="42.45556085140287" lon="11.442515810033186"><ele>192.0</ele><time>2026-04-12T14:37:50Z</time></trkpt><trkpt lat="42.4555840657563" lon="11.442677605622976"><ele>192.0</ele><time>2026-04-12T14:37:51Z</time></trkpt><trkpt lat="42.45559536798273" lon="11.44282741895858"><ele>192.0</ele><time>2026-04-12T14:37:52Z</time></trkpt><trkpt lat="42.45560334118196" lon="11.442972309412124"><ele>192.0</ele><time>2026-04-12T14:37:53Z</time></trkpt><trkpt lat="42.455601438931915" lon="11.443112737927246"><ele>192.0</ele><time>2026-04-12T14:37:53.999Z</time></trkpt><trkpt lat="42.455610555759826" lon="11.443243861282534"><ele>192.0</ele><time>2026-04-12T14:37:54.999Z</time></trkpt><trkpt lat="42.455636997054505" lon="11.443373143201892"><ele>191.2</ele><time>2026-04-12T14:37:55.999Z</time></trkpt><trkpt lat="42.45563924619968" lon="11.44349625611748"><ele>190.39999999999998</ele><time>2026-04-12T14:37:56.999Z</time></trkpt><trkpt lat="42.45564035573117" lon="11.443617598319847"><ele>189.60000000000002</ele><time>2026-04-12T14:37:57.999Z</time></trkpt><trkpt lat="42.45565360313506" lon="11.44375950689182"><ele>188.8</ele><time>2026-04-12T14:37:58.999Z</time></trkpt><trkpt lat="42.45566691432236" lon="11.443906348748843"><ele>188.0</ele><time>2026-04-12T14:37:59.999Z</time></trkpt><trkpt lat="42.45568037794495" lon="11.444054872200246"><ele>186.8</ele><time>2026-04-12T14:38:00.999Z</time></trkpt><trkpt lat="42.455691913201335" lon="11.444204900517166"><ele>185.60000000000002</ele><time>2026-04-12T14:38:01.999Z</time></trkpt><trkpt lat="42.455702883390934" lon="11.444352787404432"><ele>184.39999999999998</ele><time>2026-04-12T14:38:02.999Z</time></trkpt><trkpt lat="42.45571265926507" lon="11.444490519909378"><ele>183.2</ele><time>2026-04-12T14:38:03.999Z</time></trkpt><trkpt lat="42.45573822872138" lon="11.444620588455598"><ele>182.0</ele><time>2026-04-12T14:38:04.999Z</time></trkpt><trkpt lat="42.45573291160406" lon="11.444775855571294"><ele>181.39999999999998</ele><time>2026-04-12T14:38:05.999Z</time></trkpt><trkpt lat="42.45574413460233" lon="11.44491927869269"><ele>180.79999999999998</ele><time>2026-04-12T14:38:06.999Z</time></trkpt><trkpt lat="42.45575498947646" lon="11.445055599816415"><ele>180.2</ele><time>2026-04-12T14:38:07.999Z</time></trkpt><trkpt lat="42.45576777037557" lon="11.445184262888212"><ele>179.6</ele><time>2026-04-12T14:38:08.999Z</time></trkpt><trkpt lat="42.455779845924994" lon="11.44530922451101"><ele>179.0</ele><time>2026-04-12T14:38:09.999Z</time></trkpt><trkpt lat="42.45579287627498" lon="11.445444066666909"><ele>177.6</ele><time>2026-04-12T14:38:10.999Z</time></trkpt><trkpt lat="42.45580609598354" lon="11.445580868384061"><ele>176.2</ele><time>2026-04-12T14:38:11.999Z</time></trkpt><trkpt lat="42.45581764241226" lon="11.445714376865874"><ele>174.79999999999998</ele><time>2026-04-12T14:38:12.999Z</time></trkpt><trkpt lat="42.455829128972546" lon="11.445848058987357"><ele>173.39999999999998</ele><time>2026-04-12T14:38:13.999Z</time></trkpt><trkpt lat="42.455855535357806" lon="11.445976752724551"><ele>172.0</ele><time>2026-04-12T14:38:14.999Z</time></trkpt><trkpt lat="42.455863783330045" lon="11.446116270067861"><ele>172.0</ele><time>2026-04-12T14:38:15.999Z</time></trkpt><trkpt lat="42.45587885247701" lon="11.446261475408033"><ele>172.0</ele><time>2026-04-12T14:38:16.999Z</time></trkpt><trkpt lat="42.45587579868961" lon="11.446404996395449"><ele>172.0</ele><time>2026-04-12T14:38:17.999Z</time></trkpt><trkpt lat="42.45588708944356" lon="11.446533828950216"><ele>172.0</ele><time>2026-04-12T14:38:18.999Z</time></trkpt><trkpt lat="42.455898331562885" lon="11.446662106637199"><ele>172.0</ele><time>2026-04-12T14:38:19.999Z</time></trkpt><trkpt lat="42.455907411045175" lon="11.446793201469598"><ele>171.6</ele><time>2026-04-12T14:38:21.001Z</time></trkpt><trkpt lat="42.45591607663149" lon="11.446916968931871"><ele>171.2</ele><time>2026-04-12T14:38:22.001Z</time></trkpt><trkpt lat="42.45592635781708" lon="11.447040493328938"><ele>170.8</ele><time>2026-04-12T14:38:23.001Z</time></trkpt><trkpt lat="42.45593760008226" lon="11.447168610779269"><ele>170.4</ele><time>2026-04-12T14:38:24.001Z</time></trkpt><trkpt lat="42.455948392720515" lon="11.447286783383467"><ele>170.0</ele><time>2026-04-12T14:38:25.001Z</time></trkpt><trkpt lat="42.455959387774094" lon="11.44740717229666"><ele>168.6</ele><time>2026-04-12T14:38:26.001Z</time></trkpt><trkpt lat="42.45596853482723" lon="11.44751667732369"><ele>167.2</ele><time>2026-04-12T14:38:27.001Z</time></trkpt><trkpt lat="42.455977625100154" lon="11.447650275442696"><ele>165.8</ele><time>2026-04-12T14:38:28.001Z</time></trkpt><trkpt lat="42.45598629228686" lon="11.447777486872988"><ele>164.4</ele><time>2026-04-12T14:38:29.001Z</time></trkpt><trkpt lat="42.45599521882681" lon="11.447907658806022"><ele>163.0</ele><time>2026-04-12T14:38:30.001Z</time></trkpt><trkpt lat="42.45600453581859" lon="11.448043524542822"><ele>160.6</ele><time>2026-04-12T14:38:31.001Z</time></trkpt><trkpt lat="42.45601569791687" lon="11.448180375502314"><ele>158.20000000000002</ele><time>2026-04-12T14:38:32.001Z</time></trkpt><trkpt lat="42.45602710470208" lon="11.448310054775341"><ele>155.8</ele><time>2026-04-12T14:38:33.001Z</time></trkpt><trkpt lat="42.45603856756294" lon="11.448439011997147"><ele>153.4</ele><time>2026-04-12T14:38:34.001Z</time></trkpt><trkpt lat="42.45605006723109" lon="11.448568383302216"><ele>151.0</ele><time>2026-04-12T14:38:35.001Z</time></trkpt><trkpt lat="42.456062482932566" lon="11.448708059983629"><ele>149.2</ele><time>2026-04-12T14:38:36.001Z</time></trkpt><trkpt lat="42.45609170391552" lon="11.448850018315603"><ele>147.39999999999998</ele><time>2026-04-12T14:38:37.001Z</time></trkpt><trkpt lat="42.456097019568794" lon="11.448984412613973"><ele>145.6</ele><time>2026-04-12T14:38:38Z</time></trkpt><trkpt lat="42.45610962624111" lon="11.449112202623935"><ele>143.79999999999998</ele><time>2026-04-12T14:38:39Z</time></trkpt><trkpt lat="42.45611881826021" lon="11.449233331554327"><ele>142.0</ele><time>2026-04-12T14:38:40Z</time></trkpt><trkpt lat="42.456127778067966" lon="11.449350660210246"><ele>142.0</ele><time>2026-04-12T14:38:41Z</time></trkpt><trkpt lat="42.45613731430415" lon="11.44946859447124"><ele>142.0</ele><time>2026-04-12T14:38:42Z</time></trkpt><trkpt lat="42.45614315068197" lon="11.449594081863559"><ele>142.0</ele><time>2026-04-12T14:38:43Z</time></trkpt><trkpt lat="42.45615347459075" lon="11.449728414609362"><ele>142.0</ele><time>2026-04-12T14:38:44Z</time></trkpt><trkpt lat="42.456162574464386" lon="11.449864904177797"><ele>142.0</ele><time>2026-04-12T14:38:45Z</time></trkpt><trkpt lat="42.45617440305124" lon="11.45000299480646"><ele>141.0</ele><time>2026-04-12T14:38:46Z</time></trkpt><trkpt lat="42.45618031046567" lon="11.450129755946941"><ele>140.0</ele><time>2026-04-12T14:38:47Z</time></trkpt><trkpt lat="42.456193990432375" lon="11.450252083803257"><ele>139.0</ele><time>2026-04-12T14:38:48Z</time></trkpt><trkpt lat="42.45620582687546" lon="11.45037428061885"><ele>138.0</ele><time>2026-04-12T14:38:49Z</time></trkpt><trkpt lat="42.45621819886342" lon="11.450487155987444"><ele>137.0</ele><time>2026-04-12T14:38:50Z</time></trkpt><trkpt lat="42.45622714350307" lon="11.450602160771481"><ele>136.0</ele><time>2026-04-12T14:38:51Z</time></trkpt><trkpt lat="42.45623791432503" lon="11.450718587398342"><ele>134.83333333333334</ele><time>2026-04-12T14:38:52Z</time></trkpt><trkpt lat="42.45625207825033" lon="11.450836068839894"><ele>133.66666666666669</ele><time>2026-04-12T14:38:53Z</time></trkpt><trkpt lat="42.45626221646055" lon="11.450940741320135"><ele>132.5</ele><time>2026-04-12T14:38:54Z</time></trkpt><trkpt lat="42.456272140277704" lon="11.45104798538412"><ele>131.33333333333334</ele><time>2026-04-12T14:38:55Z</time></trkpt><trkpt lat="42.4562754215246" lon="11.451150630766842"><ele>130.16666666666666</ele><time>2026-04-12T14:38:56Z</time></trkpt><trkpt lat="42.4562869251565" lon="11.45124749083736"><ele>129.0</ele><time>2026-04-12T14:38:57Z</time></trkpt><trkpt lat="42.45629501806716" lon="11.451341192117557"><ele>127.83333333333333</ele><time>2026-04-12T14:38:58Z</time></trkpt><trkpt lat="42.45628789201829" lon="11.451433267183582"><ele>126.66666666666666</ele><time>2026-04-12T14:38:59Z</time></trkpt><trkpt lat="42.45630839693674" lon="11.451567087968751"><ele>125.5</ele><time>2026-04-12T14:39:01Z</time></trkpt><trkpt lat="42.45628887346704" lon="11.451649851367772"><ele>124.33333333333333</ele><time>2026-04-12T14:39:03Z</time></trkpt><trkpt lat="42.45623254107102" lon="11.451694853601042"><ele>123.16666666666666</ele><time>2026-04-12T14:39:07Z</time></trkpt><trkpt lat="42.45614623328199" lon="11.451590510067414"><ele>122.0</ele><time>2026-04-12T14:39:08Z</time></trkpt><trkpt lat="42.456076079678304" lon="11.451543097741752"><ele>121.8</ele><time>2026-04-12T14:39:09Z</time></trkpt><trkpt lat="42.45599543158088" lon="11.45147269374003"><ele>121.6</ele><time>2026-04-12T14:39:10Z</time></trkpt><trkpt lat="42.455928266771544" lon="11.451388423063607"><ele>121.39999999999999</ele><time>2026-04-12T14:39:11Z</time></trkpt><trkpt lat="42.45583927842694" lon="11.451306569884144"><ele>121.19999999999999</ele><time>2026-04-12T14:39:12Z</time></trkpt><trkpt lat="42.45574436816837" lon="11.45121964661933"><ele>121.0</ele><time>2026-04-12T14:39:13Z</time></trkpt><trkpt lat="42.455632986245035" lon="11.451141851894768"><ele>120.5</ele><time>2026-04-12T14:39:14Z</time></trkpt><trkpt lat="42.455529318109505" lon="11.451045661353191"><ele>120.0</ele><time>2026-04-12T14:39:15Z</time></trkpt><trkpt lat="42.45542773200041" lon="11.450952769787362"><ele>119.5</ele><time>2026-04-12T14:39:16Z</time></trkpt><trkpt lat="42.45531425472443" lon="11.45084593231398"><ele>119.0</ele><time>2026-04-12T14:39:17Z</time></trkpt><trkpt lat="42.45520922234427" lon="11.450734531142285"><ele>119.0</ele><time>2026-04-12T14:39:18Z</time></trkpt><trkpt lat="42.45509060648955" lon="11.450629124254553"><ele>119.0</ele><time>2026-04-12T14:39:19Z</time></trkpt><trkpt lat="42.454974045245734" lon="11.450530225387032"><ele>119.0</ele><time>2026-04-12T14:39:20Z</time></trkpt><trkpt lat="42.45486501812778" lon="11.450450601551275"><ele>119.0</ele><time>2026-04-12T14:39:21Z</time></trkpt><trkpt lat="42.454759368086656" lon="11.45037271914416"><ele>120.5</ele><time>2026-04-12T14:39:22Z</time></trkpt><trkpt lat="42.45462972516354" lon="11.450313534274942"><ele>122.0</ele><time>2026-04-12T14:39:23Z</time></trkpt><trkpt lat="42.45448560965041" lon="11.450276579594261"><ele>123.5</ele><time>2026-04-12T14:39:24Z</time></trkpt><trkpt lat="42.45434090609793" lon="11.45025767611575"><ele>125.0</ele><time>2026-04-12T14:39:25Z</time></trkpt><trkpt lat="42.45419494716933" lon="11.450254856181255"><ele>125.0</ele><time>2026-04-12T14:39:26Z</time></trkpt><trkpt lat="42.45405032291768" lon="11.450262164777598"><ele>125.0</ele><time>2026-04-12T14:39:27Z</time></trkpt><trkpt lat="42.45391237080914" lon="11.450275000835152"><ele>125.0</ele><time>2026-04-12T14:39:28Z</time></trkpt><trkpt lat="42.453783345204506" lon="11.450306991028858"><ele>125.0</ele><time>2026-04-12T14:39:29Z</time></trkpt><trkpt lat="42.453663484694246" lon="11.450369355683167"><ele>124.0</ele><time>2026-04-12T14:39:30Z</time></trkpt><trkpt lat="42.45354508619036" lon="11.450446656826303"><ele>123.0</ele><time>2026-04-12T14:39:31Z</time></trkpt><trkpt lat="42.45343028483923" lon="11.450546984764166"><ele>122.0</ele><time>2026-04-12T14:39:32Z</time></trkpt><trkpt lat="42.45331583716675" lon="11.450656543386783"><ele>121.0</ele><time>2026-04-12T14:39:33Z</time></trkpt><trkpt lat="42.45318860587862" lon="11.450747267284713"><ele>120.0</ele><time>2026-04-12T14:39:34Z</time></trkpt><trkpt lat="42.45307548299342" lon="11.450874030647558"><ele>119.0</ele><time>2026-04-12T14:39:35Z</time></trkpt><trkpt lat="42.45294355556993" lon="11.450989936513064"><ele>118.0</ele><time>2026-04-12T14:39:36Z</time></trkpt><trkpt lat="42.452812706297784" lon="11.4511065677579"><ele>117.5</ele><time>2026-04-12T14:39:37Z</time></trkpt><trkpt lat="42.45269036820257" lon="11.451215549155014"><ele>117.0</ele><time>2026-04-12T14:39:38Z</time></trkpt><trkpt lat="42.45257999022325" lon="11.45131088440596"><ele>116.5</ele><time>2026-04-12T14:39:39Z</time></trkpt><trkpt lat="42.45246540810841" lon="11.45141224706476"><ele>116.0</ele><time>2026-04-12T14:39:40Z</time></trkpt><trkpt lat="42.45236593394802" lon="11.451502774600112"><ele>116.0</ele><time>2026-04-12T14:39:41Z</time></trkpt><trkpt lat="42.45226183719792" lon="11.451582140488306"><ele>116.0</ele><time>2026-04-12T14:39:42Z</time></trkpt><trkpt lat="42.452170103814254" lon="11.451663503272881"><ele>116.0</ele><time>2026-04-12T14:39:43Z</time></trkpt><trkpt lat="42.45208621324242" lon="11.45173425145003"><ele>116.0</ele><time>2026-04-12T14:39:44Z</time></trkpt><trkpt lat="42.45202816218155" lon="11.451805100201"><ele>116.0</ele><time>2026-04-12T14:39:45Z</time></trkpt><trkpt lat="42.45191848827918" lon="11.451861190475016"><ele>116.0</ele><time>2026-04-12T14:39:47Z</time></trkpt><trkpt lat="42.45178941279317" lon="11.45187587309858"><ele>116.0</ele><time>2026-04-12T14:39:49Z</time></trkpt><trkpt lat="42.451734693525815" lon="11.452054587028432"><ele>116.0</ele><time>2026-04-12T14:39:50Z</time></trkpt><trkpt lat="42.45165153680145" lon="11.452148778227365"><ele>116.0</ele><time>2026-04-12T14:39:51Z</time></trkpt><trkpt lat="42.451558475833814" lon="11.452246797861175"><ele>115.75</ele><time>2026-04-12T14:39:52Z</time></trkpt><trkpt lat="42.45146641675641" lon="11.452358780737285"><ele>115.5</ele><time>2026-04-12T14:39:53Z</time></trkpt><trkpt lat="42.45136256933332" lon="11.452459331793321"><ele>115.25</ele><time>2026-04-12T14:39:54Z</time></trkpt><trkpt lat="42.45125547094228" lon="11.452573074331452"><ele>115.0</ele><time>2026-04-12T14:39:55Z</time></trkpt><trkpt lat="42.45114403044243" lon="11.452698008038286"><ele>115.25</ele><time>2026-04-12T14:39:56Z</time></trkpt><trkpt lat="42.45103513757113" lon="11.45283185583031"><ele>115.5</ele><time>2026-04-12T14:39:57Z</time></trkpt><trkpt lat="42.45093319924204" lon="11.452967419898023"><ele>115.75</ele><time>2026-04-12T14:39:57.999Z</time></trkpt><trkpt lat="42.45083234039161" lon="11.453114479945825"><ele>116.0</ele><time>2026-04-12T14:39:58.999Z</time></trkpt><trkpt lat="42.45073648312947" lon="11.453259070993884"><ele>116.0</ele><time>2026-04-12T14:39:59.999Z</time></trkpt><trkpt lat="42.45064247108547" lon="11.453410908049314"><ele>116.0</ele><time>2026-04-12T14:40:00.999Z</time></trkpt><trkpt lat="42.45053560501946" lon="11.453542830179044"><ele>116.0</ele><time>2026-04-12T14:40:01.999Z</time></trkpt><trkpt lat="42.450448413169696" lon="11.453703531328156"><ele>116.0</ele><time>2026-04-12T14:40:02.999Z</time></trkpt><trkpt lat="42.45035283944226" lon="11.453846470645457"><ele>116.75</ele><time>2026-04-12T14:40:03.999Z</time></trkpt><trkpt lat="42.450253505592585" lon="11.45399176095214"><ele>117.5</ele><time>2026-04-12T14:40:04.999Z</time></trkpt><trkpt lat="42.45015845722997" lon="11.454134370909559"><ele>118.25</ele><time>2026-04-12T14:40:05.999Z</time></trkpt><trkpt lat="42.4500503230515" lon="11.454279831844582"><ele>119.0</ele><time>2026-04-12T14:40:06.999Z</time></trkpt><trkpt lat="42.44993106794536" lon="11.454398296299594"><ele>119.0</ele><time>2026-04-12T14:40:07.999Z</time></trkpt><trkpt lat="42.44981597642699" lon="11.454535623784663"><ele>119.0</ele><time>2026-04-12T14:40:08.999Z</time></trkpt><trkpt lat="42.44970958083318" lon="11.454688457786261"><ele>119.0</ele><time>2026-04-12T14:40:09.999Z</time></trkpt><trkpt lat="42.44959183379954" lon="11.454826304836567"><ele>117.66666666666666</ele><time>2026-04-12T14:40:10.999Z</time></trkpt><trkpt lat="42.449481372249956" lon="11.454961402547353"><ele>116.33333333333334</ele><time>2026-04-12T14:40:11.999Z</time></trkpt><trkpt lat="42.44934891216437" lon="11.455076624301347"><ele>115.0</ele><time>2026-04-12T14:40:12.999Z</time></trkpt><trkpt lat="42.44921930815793" lon="11.455190609577098"><ele>115.0</ele><time>2026-04-12T14:40:13.999Z</time></trkpt><trkpt lat="42.449077757631756" lon="11.455311645333467"><ele>115.0</ele><time>2026-04-12T14:40:14.999Z</time></trkpt><trkpt lat="42.44894289246993" lon="11.455449953675874"><ele>115.0</ele><time>2026-04-12T14:40:15.999Z</time></trkpt><trkpt lat="42.448799408883666" lon="11.455565749052903"><ele>112.33333333333334</ele><time>2026-04-12T14:40:16.999Z</time></trkpt><trkpt lat="42.44864760433793" lon="11.455651625246961"><ele>109.66666666666666</ele><time>2026-04-12T14:40:17.999Z</time></trkpt><trkpt lat="42.44850203780823" lon="11.455752570334635"><ele>107.0</ele><time>2026-04-12T14:40:18.999Z</time></trkpt><trkpt lat="42.44835752016471" lon="11.4558394107791"><ele>107.0</ele><time>2026-04-12T14:40:19.999Z</time></trkpt><trkpt lat="42.44822702616966" lon="11.45592508215225"><ele>107.0</ele><time>2026-04-12T14:40:20.999Z</time></trkpt><trkpt lat="42.448101055787156" lon="11.456007783899432"><ele>107.0</ele><time>2026-04-12T14:40:21.999Z</time></trkpt><trkpt lat="42.447979236316115" lon="11.456090086092008"><ele>107.0</ele><time>2026-04-12T14:40:22.999Z</time></trkpt><trkpt lat="42.44786099155333" lon="11.456172626625847"><ele>105.75</ele><time>2026-04-12T14:40:23.999Z</time></trkpt><trkpt lat="42.44773881176346" lon="11.456254923783348"><ele>104.5</ele><time>2026-04-12T14:40:24.999Z</time></trkpt><trkpt lat="42.447615661995265" lon="11.456321773013586"><ele>103.25</ele><time>2026-04-12T14:40:25.999Z</time></trkpt><trkpt lat="42.44748740625968" lon="11.456363756722938"><ele>102.0</ele><time>2026-04-12T14:40:27.001Z</time></trkpt><trkpt lat="42.44736243912574" lon="11.45639375159965"><ele>101.5</ele><time>2026-04-12T14:40:28.001Z</time></trkpt><trkpt lat="42.447235975346125" lon="11.456447629901367"><ele>101.0</ele><time>2026-04-12T14:40:29.001Z</time></trkpt><trkpt lat="42.44710840951005" lon="11.456508397762686"><ele>100.5</ele><time>2026-04-12T14:40:30.001Z</time></trkpt><trkpt lat="42.446990237869315" lon="11.456619916436058"><ele>100.0</ele><time>2026-04-12T14:40:31.001Z</time></trkpt><trkpt lat="42.44687897345452" lon="11.456751044809032"><ele>100.0</ele><time>2026-04-12T14:40:32.001Z</time></trkpt><trkpt lat="42.44677086971369" lon="11.45689861537289"><ele>100.0</ele><time>2026-04-12T14:40:33.001Z</time></trkpt><trkpt lat="42.44666084303196" lon="11.457050404682088"><ele>100.0</ele><time>2026-04-12T14:40:34.001Z</time></trkpt><trkpt lat="42.446557926147925" lon="11.45720103080729"><ele>100.25</ele><time>2026-04-12T14:40:35.001Z</time></trkpt><trkpt lat="42.44644667007741" lon="11.457319121371494"><ele>100.5</ele><time>2026-04-12T14:40:36.001Z</time></trkpt><trkpt lat="42.44633980540066" lon="11.45744188385492"><ele>100.75</ele><time>2026-04-12T14:40:37.001Z</time></trkpt><trkpt lat="42.44624120019939" lon="11.457580367123642"><ele>101.0</ele><time>2026-04-12T14:40:38.001Z</time></trkpt><trkpt lat="42.44612684397118" lon="11.457708073221175"><ele>101.33333333333333</ele><time>2026-04-12T14:40:39.001Z</time></trkpt><trkpt lat="42.44600251974243" lon="11.457826183040138"><ele>101.66666666666666</ele><time>2026-04-12T14:40:40.001Z</time></trkpt><trkpt lat="42.44588827655048" lon="11.457962642458735"><ele>102.0</ele><time>2026-04-12T14:40:41.001Z</time></trkpt><trkpt lat="42.44577640422268" lon="11.458102027110467"><ele>102.0</ele><time>2026-04-12T14:40:42Z</time></trkpt><trkpt lat="42.44568636163614" lon="11.458265710475581"><ele>102.0</ele><time>2026-04-12T14:40:43Z</time></trkpt><trkpt lat="42.44559397558255" lon="11.45841112897116"><ele>102.0</ele><time>2026-04-12T14:40:44Z</time></trkpt><trkpt lat="42.44550157947275" lon="11.458558328823521"><ele>102.0</ele><time>2026-04-12T14:40:45Z</time></trkpt><trkpt lat="42.44540895101997" lon="11.458709247731713"><ele>102.25</ele><time>2026-04-12T14:40:46Z</time></trkpt><trkpt lat="42.445318520887454" lon="11.458854961857238"><ele>102.5</ele><time>2026-04-12T14:40:47Z</time></trkpt><trkpt lat="42.44522790988194" lon="11.459004257980705"><ele>102.75</ele><time>2026-04-12T14:40:48Z</time></trkpt><trkpt lat="42.44513566866357" lon="11.459156521606293"><ele>103.0</ele><time>2026-04-12T14:40:49Z</time></trkpt><trkpt lat="42.44504619805787" lon="11.459298566015189"><ele>103.0</ele><time>2026-04-12T14:40:50Z</time></trkpt><trkpt lat="42.444958079006945" lon="11.459447073467246"><ele>103.0</ele><time>2026-04-12T14:40:51Z</time></trkpt><trkpt lat="42.44485336093766" lon="11.459581223770224"><ele>103.0</ele><time>2026-04-12T14:40:52Z</time></trkpt><trkpt lat="42.44477474369403" lon="11.459737008880772"><ele>103.0</ele><time>2026-04-12T14:40:53Z</time></trkpt><trkpt lat="42.44468091887106" lon="11.459880410661189"><ele>102.0</ele><time>2026-04-12T14:40:54Z</time></trkpt><trkpt lat="42.444590481237256" lon="11.460030026642405"><ele>101.0</ele><time>2026-04-12T14:40:55Z</time></trkpt><trkpt lat="42.44450556883728" lon="11.460180429322387"><ele>100.0</ele><time>2026-04-12T14:40:56Z</time></trkpt><trkpt lat="42.44443544216236" lon="11.4603267065192"><ele>99.0</ele><time>2026-04-12T14:40:57Z</time></trkpt><trkpt lat="42.44438085344765" lon="11.460452231067924"><ele>99.0</ele><time>2026-04-12T14:40:58Z</time></trkpt><trkpt lat="42.44432957989549" lon="11.460549917373669"><ele>99.0</ele><time>2026-04-12T14:40:59Z</time></trkpt><trkpt lat="42.44429667469579" lon="11.460635302887558"><ele>99.0</ele><time>2026-04-12T14:41:00Z</time></trkpt><trkpt lat="42.44425277143713" lon="11.460758791084949"><ele>99.0</ele><time>2026-04-12T14:41:02Z</time></trkpt><trkpt lat="42.44443397560305" lon="11.460934068527914"><ele>99.0</ele><time>2026-04-12T14:41:04Z</time></trkpt><trkpt lat="42.44451476408924" lon="11.46099032610561"><ele>99.0</ele><time>2026-04-12T14:41:05Z</time></trkpt><trkpt lat="42.444592249111835" lon="11.461064385293597"><ele>99.0</ele><time>2026-04-12T14:41:06Z</time></trkpt><trkpt lat="42.44467638590084" lon="11.461146019831702"><ele>99.0</ele><time>2026-04-12T14:41:07Z</time></trkpt><trkpt lat="42.44476472885229" lon="11.46122305444822"><ele>99.0</ele><time>2026-04-12T14:41:08Z</time></trkpt><trkpt lat="42.44485985668578" lon="11.461308357006885"><ele>99.6</ele><time>2026-04-12T14:41:09Z</time></trkpt><trkpt lat="42.44495727347689" lon="11.461392210866572"><ele>100.2</ele><time>2026-04-12T14:41:10Z</time></trkpt><trkpt lat="42.44505027220949" lon="11.461473416621777"><ele>100.8</ele><time>2026-04-12T14:41:11Z</time></trkpt><trkpt lat="42.44513643832472" lon="11.461556455929513"><ele>101.39999999999999</ele><time>2026-04-12T14:41:12Z</time></trkpt><trkpt lat="42.44521283934131" lon="11.461640226238005"><ele>102.0</ele><time>2026-04-12T14:41:13Z</time></trkpt><trkpt lat="42.44527062329493" lon="11.461728607517939"><ele>102.0</ele><time>2026-04-12T14:41:14Z</time></trkpt><trkpt lat="42.44532657494005" lon="11.461806179321735"><ele>102.0</ele><time>2026-04-12T14:41:15Z</time></trkpt><trkpt lat="42.4454014477834" lon="11.461904259992613"><ele>102.0</ele><time>2026-04-12T14:41:17Z</time></trkpt><trkpt lat="42.445484887847236" lon="11.462048596116611"><ele>102.0</ele><time>2026-04-12T14:41:18Z</time></trkpt><trkpt lat="42.445554753680526" lon="11.462156564003028"><ele>102.0</ele><time>2026-04-12T14:41:19Z</time></trkpt><trkpt lat="42.44562336672931" lon="11.462269288561947"><ele>100.75</ele><time>2026-04-12T14:41:20Z</time></trkpt><trkpt lat="42.445702685009095" lon="11.462393856967344"><ele>99.5</ele><time>2026-04-12T14:41:21Z</time></trkpt><trkpt lat="42.445783699455774" lon="11.462523904363497"><ele>98.25</ele><time>2026-04-12T14:41:22Z</time></trkpt><trkpt lat="42.445858249139704" lon="11.462645845338493"><ele>97.0</ele><time>2026-04-12T14:41:23Z</time></trkpt><trkpt lat="42.44591854829703" lon="11.462788675217293"><ele>96.75</ele><time>2026-04-12T14:41:24Z</time></trkpt><trkpt lat="42.445952451326626" lon="11.462958741029967"><ele>96.5</ele><time>2026-04-12T14:41:25Z</time></trkpt><trkpt lat="42.44594494397163" lon="11.46313228028067"><ele>96.25</ele><time>2026-04-12T14:41:26Z</time></trkpt><trkpt lat="42.44595196694316" lon="11.46331718137448"><ele>96.0</ele><time>2026-04-12T14:41:27Z</time></trkpt><trkpt lat="42.44597033612191" lon="11.463504860693668"><ele>96.0</ele><time>2026-04-12T14:41:28Z</time></trkpt><trkpt lat="42.44597693327997" lon="11.463691524105478"><ele>96.0</ele><time>2026-04-12T14:41:29Z</time></trkpt><trkpt lat="42.44599047343575" lon="11.463869638614405"><ele>96.0</ele><time>2026-04-12T14:41:30Z</time></trkpt><trkpt lat="42.44601791026791" lon="11.464045503284462"><ele>96.0</ele><time>2026-04-12T14:41:31Z</time></trkpt><trkpt lat="42.44607997112309" lon="11.464227268320691"><ele>95.66666666666667</ele><time>2026-04-12T14:41:32Z</time></trkpt><trkpt lat="42.446162858894624" lon="11.464408665299707"><ele>95.33333333333334</ele><time>2026-04-12T14:41:33Z</time></trkpt><trkpt lat="42.44624600067007" lon="11.464586169706878"><ele>95.0</ele><time>2026-04-12T14:41:34Z</time></trkpt><trkpt lat="42.446318536738346" lon="11.46476594751896"><ele>94.5</ele><time>2026-04-12T14:41:35Z</time></trkpt><trkpt lat="42.44638822186366" lon="11.464946978093892"><ele>94.0</ele><time>2026-04-12T14:41:36Z</time></trkpt><trkpt lat="42.44645296028699" lon="11.465106530882371"><ele>93.5</ele><time>2026-04-12T14:41:37Z</time></trkpt><trkpt lat="42.446526325092826" lon="11.465252783705418"><ele>93.0</ele><time>2026-04-12T14:41:38Z</time></trkpt><trkpt lat="42.44661188610408" lon="11.465383171775182"><ele>92.33333333333333</ele><time>2026-04-12T14:41:39Z</time></trkpt><trkpt lat="42.44670859260837" lon="11.46552706277017"><ele>91.66666666666666</ele><time>2026-04-12T14:41:40Z</time></trkpt><trkpt lat="42.44681785193424" lon="11.465686905627662"><ele>91.0</ele><time>2026-04-12T14:41:41Z</time></trkpt><trkpt lat="42.44691839276958" lon="11.46583715077204"><ele>91.0</ele><time>2026-04-12T14:41:42Z</time></trkpt><trkpt lat="42.44700673777449" lon="11.465977162095871"><ele>91.0</ele><time>2026-04-12T14:41:43Z</time></trkpt><trkpt lat="42.44709502369253" lon="11.466112193345383"><ele>91.0</ele><time>2026-04-12T14:41:44Z</time></trkpt><trkpt lat="42.447183365207" lon="11.466236685082077"><ele>91.0</ele><time>2026-04-12T14:41:45Z</time></trkpt><trkpt lat="42.447278407838745" lon="11.466335023191764"><ele>87.66666666666666</ele><time>2026-04-12T14:41:46Z</time></trkpt><trkpt lat="42.44739866257669" lon="11.466414988580404"><ele>84.33333333333333</ele><time>2026-04-12T14:41:47Z</time></trkpt><trkpt lat="42.447543467483015" lon="11.466478485324902"><ele>81.0</ele><time>2026-04-12T14:41:48Z</time></trkpt><trkpt lat="42.447704235451226" lon="11.466533013107112"><ele>81.0</ele><time>2026-04-12T14:41:49Z</time></trkpt><trkpt lat="42.447862535286795" lon="11.466589197906426"><ele>81.0</ele><time>2026-04-12T14:41:50Z</time></trkpt><trkpt lat="42.44801343810273" lon="11.466649984290079"><ele>81.0</ele><time>2026-04-12T14:41:51Z</time></trkpt><trkpt lat="42.44815656998012" lon="11.46672104813594"><ele>80.25</ele><time>2026-04-12T14:41:52Z</time></trkpt><trkpt lat="42.44829170690883" lon="11.466783710911042"><ele>79.5</ele><time>2026-04-12T14:41:53Z</time></trkpt><trkpt lat="42.44841155927722" lon="11.466836371218484"><ele>78.75</ele><time>2026-04-12T14:41:54Z</time></trkpt><trkpt lat="42.44852046405975" lon="11.466884287698146"><ele>78.0</ele><time>2026-04-12T14:41:55Z</time></trkpt><trkpt lat="42.448616137519465" lon="11.466944260932843"><ele>78.0</ele><time>2026-04-12T14:41:56Z</time></trkpt><trkpt lat="42.44873878582968" lon="11.466929867618646"><ele>78.0</ele><time>2026-04-12T14:41:57Z</time></trkpt><trkpt lat="42.44886153518388" lon="11.466895429800985"><ele>78.0</ele><time>2026-04-12T14:41:58Z</time></trkpt><trkpt lat="42.448997926679276" lon="11.466843907501042"><ele>78.0</ele><time>2026-04-12T14:41:59Z</time></trkpt><trkpt lat="42.44914050279179" lon="11.46680530037999"><ele>77.66666666666667</ele><time>2026-04-12T14:41:59.999Z</time></trkpt><trkpt lat="42.44929458729394" lon="11.466773421358242"><ele>77.33333333333334</ele><time>2026-04-12T14:42:00.999Z</time></trkpt><trkpt lat="42.44944653343475" lon="11.46674270449974"><ele>77.0</ele><time>2026-04-12T14:42:01.999Z</time></trkpt><trkpt lat="42.449596554790794" lon="11.466708487190951"><ele>78.0</ele><time>2026-04-12T14:42:02.999Z</time></trkpt><trkpt lat="42.44975130056604" lon="11.466671219435653"><ele>79.0</ele><time>2026-04-12T14:42:03.999Z</time></trkpt><trkpt lat="42.449905797968675" lon="11.466633806745671"><ele>80.0</ele><time>2026-04-12T14:42:04.999Z</time></trkpt><trkpt lat="42.450060414644675" lon="11.466601387565746"><ele>80.0</ele><time>2026-04-12T14:42:05.999Z</time></trkpt><trkpt lat="42.45021323112933" lon="11.466572716066002"><ele>80.0</ele><time>2026-04-12T14:42:06.999Z</time></trkpt><trkpt lat="42.450370658394235" lon="11.466541267518394"><ele>80.0</ele><time>2026-04-12T14:42:07.999Z</time></trkpt><trkpt lat="42.45051949186828" lon="11.466505739705353"><ele>83.0</ele><time>2026-04-12T14:42:08.999Z</time></trkpt><trkpt lat="42.450669915400255" lon="11.466469196170163"><ele>86.0</ele><time>2026-04-12T14:42:09.999Z</time></trkpt><trkpt lat="42.450817597189165" lon="11.46643505364443"><ele>89.0</ele><time>2026-04-12T14:42:10.999Z</time></trkpt><trkpt lat="42.45096623966687" lon="11.466401894019741"><ele>89.0</ele><time>2026-04-12T14:42:11.999Z</time></trkpt><trkpt lat="42.45111635345054" lon="11.466389373590642"><ele>89.0</ele><time>2026-04-12T14:42:12.999Z</time></trkpt><trkpt lat="42.45125797573488" lon="11.466337399904324"><ele>89.0</ele><time>2026-04-12T14:42:13.999Z</time></trkpt><trkpt lat="42.45140909608314" lon="11.466307372396265"><ele>90.5</ele><time>2026-04-12T14:42:14.999Z</time></trkpt><trkpt lat="42.45154667951397" lon="11.466274339868793"><ele>92.0</ele><time>2026-04-12T14:42:15.999Z</time></trkpt><trkpt lat="42.45168270621018" lon="11.466264527685677"><ele>93.5</ele><time>2026-04-12T14:42:16.999Z</time></trkpt><trkpt lat="42.451807663092374" lon="11.46623878031243"><ele>95.0</ele><time>2026-04-12T14:42:17.999Z</time></trkpt><trkpt lat="42.45192242840179" lon="11.466203445365204"><ele>95.0</ele><time>2026-04-12T14:42:18.999Z</time></trkpt><trkpt lat="42.45204671612041" lon="11.466172417540523"><ele>95.0</ele><time>2026-04-12T14:42:19.999Z</time></trkpt><trkpt lat="42.45218059168476" lon="11.466146913875699"><ele>95.0</ele><time>2026-04-12T14:42:20.999Z</time></trkpt><trkpt lat="42.45231018033623" lon="11.466121501524858"><ele>95.0</ele><time>2026-04-12T14:42:21.999Z</time></trkpt><trkpt lat="42.45243843174461" lon="11.466092060237093"><ele>96.0</ele><time>2026-04-12T14:42:22.999Z</time></trkpt><trkpt lat="42.45254718391134" lon="11.46607277930635"><ele>97.0</ele><time>2026-04-12T14:42:23.999Z</time></trkpt><trkpt lat="42.45264267701771" lon="11.466058853152093"><ele>98.0</ele><time>2026-04-12T14:42:24.999Z</time></trkpt><trkpt lat="42.45272507221884" lon="11.466045896057222"><ele>99.0</ele><time>2026-04-12T14:42:25.999Z</time></trkpt><trkpt lat="42.452805140237864" lon="11.46603308043241"><ele>99.99999999999999</ele><time>2026-04-12T14:42:26.999Z</time></trkpt><trkpt lat="42.45287440381021" lon="11.466013347894856"><ele>101.0</ele><time>2026-04-12T14:42:27.999Z</time></trkpt><trkpt lat="42.45299064247331" lon="11.466023300287866"><ele>101.19999999999999</ele><time>2026-04-12T14:42:29.999Z</time></trkpt><trkpt lat="42.4530314701684" lon="11.466190147731762"><ele>101.39999999999999</ele><time>2026-04-12T14:42:32Z</time></trkpt><trkpt lat="42.45304094974872" lon="11.466316320013604"><ele>101.6</ele><time>2026-04-12T14:42:33Z</time></trkpt><trkpt lat="42.453059027280716" lon="11.46644867401297"><ele>101.8</ele><time>2026-04-12T14:42:34Z</time></trkpt><trkpt lat="42.45306498729137" lon="11.46660217910568"><ele>102.0</ele><time>2026-04-12T14:42:35Z</time></trkpt><trkpt lat="42.45307633123771" lon="11.46677066309712"><ele>100.75</ele><time>2026-04-12T14:42:36Z</time></trkpt><trkpt lat="42.453089232210395" lon="11.466946010082967"><ele>99.5</ele><time>2026-04-12T14:42:37Z</time></trkpt><trkpt lat="42.45310608213338" lon="11.467134722368357"><ele>98.25</ele><time>2026-04-12T14:42:38Z</time></trkpt><trkpt lat="42.45312173176017" lon="11.467341221044313"><ele>97.0</ele><time>2026-04-12T14:42:39Z</time></trkpt><trkpt lat="42.45313333507973" lon="11.467547178550692"><ele>95.33333333333334</ele><time>2026-04-12T14:42:40Z</time></trkpt><trkpt lat="42.453149765002564" lon="11.467753583261665"><ele>93.66666666666667</ele><time>2026-04-12T14:42:41Z</time></trkpt><trkpt lat="42.4531690923754" lon="11.467952388535377"><ele>92.0</ele><time>2026-04-12T14:42:42Z</time></trkpt><trkpt lat="42.45318109247032" lon="11.468160435399197"><ele>90.33333333333334</ele><time>2026-04-12T14:42:43Z</time></trkpt><trkpt lat="42.453194435947836" lon="11.468369091560243"><ele>88.66666666666667</ele><time>2026-04-12T14:42:44Z</time></trkpt><trkpt lat="42.453207562704094" lon="11.46858260705079"><ele>87.0</ele><time>2026-04-12T14:42:45Z</time></trkpt><trkpt lat="42.45322510386846" lon="11.468790105196689"><ele>86.33333333333333</ele><time>2026-04-12T14:42:46Z</time></trkpt><trkpt lat="42.45324293894829" lon="11.468992199007406"><ele>85.66666666666666</ele><time>2026-04-12T14:42:47Z</time></trkpt><trkpt lat="42.453263577887" lon="11.46920300398192"><ele>85.0</ele><time>2026-04-12T14:42:48Z</time></trkpt><trkpt lat="42.45328949042237" lon="11.46940966607516"><ele>86.66666666666666</ele><time>2026-04-12T14:42:49Z</time></trkpt><trkpt lat="42.45331773318291" lon="11.469619797888495"><ele>88.33333333333333</ele><time>2026-04-12T14:42:50Z</time></trkpt><trkpt lat="42.453355909060946" lon="11.469844387395185"><ele>90.0</ele><time>2026-04-12T14:42:51Z</time></trkpt><trkpt lat="42.453387385950144" lon="11.470060634896665"><ele>90.0</ele><time>2026-04-12T14:42:52Z</time></trkpt><trkpt lat="42.453417628472565" lon="11.470277334200532"><ele>90.0</ele><time>2026-04-12T14:42:53Z</time></trkpt><trkpt lat="42.45345086415528" lon="11.470497076249623"><ele>90.0</ele><time>2026-04-12T14:42:54Z</time></trkpt><trkpt lat="42.4534817076047" lon="11.470721855125388"><ele>90.33333333333333</ele><time>2026-04-12T14:42:55Z</time></trkpt><trkpt lat="42.45351666292416" lon="11.470938067663194"><ele>90.66666666666666</ele><time>2026-04-12T14:42:56Z</time></trkpt><trkpt lat="42.4535555263797" lon="11.471157232239587"><ele>91.0</ele><time>2026-04-12T14:42:57Z</time></trkpt><trkpt lat="42.45359880771685" lon="11.471382460851675"><ele>91.0</ele><time>2026-04-12T14:42:58Z</time></trkpt><trkpt lat="42.45364534049737" lon="11.47159898711831"><ele>91.0</ele><time>2026-04-12T14:42:59Z</time></trkpt><trkpt lat="42.45369179365602" lon="11.47181493005847"><ele>91.0</ele><time>2026-04-12T14:43:00Z</time></trkpt><trkpt lat="42.453742043422764" lon="11.472030363801718"><ele>96.0</ele><time>2026-04-12T14:43:01Z</time></trkpt><trkpt lat="42.45379396450793" lon="11.472254873600868"><ele>101.0</ele><time>2026-04-12T14:43:02Z</time></trkpt><trkpt lat="42.45383936963165" lon="11.472469829843384"><ele>106.0</ele><time>2026-04-12T14:43:03Z</time></trkpt><trkpt lat="42.4538904327121" lon="11.472686465292112"><ele>106.0</ele><time>2026-04-12T14:43:04Z</time></trkpt><trkpt lat="42.45393841832395" lon="11.472895340191098"><ele>106.0</ele><time>2026-04-12T14:43:05Z</time></trkpt><trkpt lat="42.45398289740768" lon="11.473105013853003"><ele>106.0</ele><time>2026-04-12T14:43:06Z</time></trkpt><trkpt lat="42.45402716795662" lon="11.473320848435996"><ele>105.75</ele><time>2026-04-12T14:43:07Z</time></trkpt><trkpt lat="42.45406870943147" lon="11.473515517784682"><ele>105.5</ele><time>2026-04-12T14:43:08Z</time></trkpt><trkpt lat="42.454112512685" lon="11.473715736333572"><ele>105.25</ele><time>2026-04-12T14:43:09Z</time></trkpt><trkpt lat="42.45415327203491" lon="11.473897291459147"><ele>105.0</ele><time>2026-04-12T14:43:10Z</time></trkpt><trkpt lat="42.45421208621294" lon="11.474073432817214"><ele>105.66666666666666</ele><time>2026-04-12T14:43:11Z</time></trkpt><trkpt lat="42.45428605024401" lon="11.474233182337404"><ele>106.33333333333333</ele><time>2026-04-12T14:43:12Z</time></trkpt><trkpt lat="42.45439207510545" lon="11.474386506542396"><ele>107.0</ele><time>2026-04-12T14:43:13Z</time></trkpt><trkpt lat="42.45451169911607" lon="11.47453820957226"><ele>106.75</ele><time>2026-04-12T14:43:14Z</time></trkpt><trkpt lat="42.45462231296341" lon="11.47469658769891"><ele>106.5</ele><time>2026-04-12T14:43:15Z</time></trkpt><trkpt lat="42.454724572069544" lon="11.474845984955524"><ele>106.25</ele><time>2026-04-12T14:43:16Z</time></trkpt><trkpt lat="42.45481950168427" lon="11.47497845294189"><ele>106.0</ele><time>2026-04-12T14:43:17Z</time></trkpt><trkpt lat="42.45490899285961" lon="11.475094492012126"><ele>106.0</ele><time>2026-04-12T14:43:18Z</time></trkpt><trkpt lat="42.45500355140622" lon="11.475176600617068"><ele>106.0</ele><time>2026-04-12T14:43:19Z</time></trkpt><trkpt lat="42.45512007407734" lon="11.475235082065296"><ele>106.0</ele><time>2026-04-12T14:43:20Z</time></trkpt><trkpt lat="42.45524573766671" lon="11.475277708241485"><ele>106.0</ele><time>2026-04-12T14:43:21Z</time></trkpt><trkpt lat="42.45537263351641" lon="11.475316374836446"><ele>106.0</ele><time>2026-04-12T14:43:22Z</time></trkpt><trkpt lat="42.45550968032421" lon="11.475377227188622"><ele>106.0</ele><time>2026-04-12T14:43:23Z</time></trkpt><trkpt lat="42.45563406884696" lon="11.475430534006945"><ele>106.0</ele><time>2026-04-12T14:43:24Z</time></trkpt><trkpt lat="42.45574837876866" lon="11.475485486032502"><ele>106.0</ele><time>2026-04-12T14:43:25Z</time></trkpt><trkpt lat="42.45585294970591" lon="11.47554651113438"><ele>106.0</ele><time>2026-04-12T14:43:26Z</time></trkpt><trkpt lat="42.455956639831896" lon="11.475625835896983"><ele>106.0</ele><time>2026-04-12T14:43:27Z</time></trkpt><trkpt lat="42.45604489125178" lon="11.47569785839843"><ele>106.0</ele><time>2026-04-12T14:43:28Z</time></trkpt><trkpt lat="42.456126128898944" lon="11.475757506371782"><ele>106.0</ele><time>2026-04-12T14:43:29Z</time></trkpt><trkpt lat="42.45620196674001" lon="11.475802931365232"><ele>106.0</ele><time>2026-04-12T14:43:30Z</time></trkpt><trkpt lat="42.45628009263189" lon="11.475830032418266"><ele>105.6</ele><time>2026-04-12T14:43:31Z</time></trkpt><trkpt lat="42.45637259699012" lon="11.475848636140622"><ele>105.19999999999999</ele><time>2026-04-12T14:43:32Z</time></trkpt><trkpt lat="42.45647013978627" lon="11.475873263036794"><ele>104.80000000000001</ele><time>2026-04-12T14:43:33Z</time></trkpt><trkpt lat="42.45655754527936" lon="11.475904173561128"><ele>104.4</ele><time>2026-04-12T14:43:34Z</time></trkpt><trkpt lat="42.45663209405034" lon="11.475931525637787"><ele>104.0</ele><time>2026-04-12T14:43:35Z</time></trkpt><trkpt lat="42.45671774781047" lon="11.47597228267215"><ele>103.99999999999999</ele><time>2026-04-12T14:43:36Z</time></trkpt><trkpt lat="42.45679685928274" lon="11.476020047070957"><ele>104.0</ele><time>2026-04-12T14:43:37Z</time></trkpt><trkpt lat="42.45688141445507" lon="11.476068991962254"><ele>104.0</ele><time>2026-04-12T14:43:38Z</time></trkpt><trkpt lat="42.45696041319209" lon="11.476100893440393"><ele>104.0</ele><time>2026-04-12T14:43:39Z</time></trkpt><trkpt lat="42.45703500002687" lon="11.476116160650935"><ele>103.99999999999999</ele><time>2026-04-12T14:43:40Z</time></trkpt><trkpt lat="42.45710379276569" lon="11.476129185838339"><ele>104.0</ele><time>2026-04-12T14:43:41Z</time></trkpt><trkpt lat="42.4571803015583" lon="11.476144790275935"><ele>102.83333333333333</ele><time>2026-04-12T14:43:42Z</time></trkpt><trkpt lat="42.45726895410612" lon="11.476163992213738"><ele>101.66666666666666</ele><time>2026-04-12T14:43:43Z</time></trkpt><trkpt lat="42.45735236153209" lon="11.476186137496276"><ele>100.5</ele><time>2026-04-12T14:43:44Z</time></trkpt><trkpt lat="42.45743902773729" lon="11.476211030039796"><ele>99.33333333333334</ele><time>2026-04-12T14:43:45Z</time></trkpt><trkpt lat="42.45752200909505" lon="11.47623583892423"><ele>98.16666666666667</ele><time>2026-04-12T14:43:46Z</time></trkpt><trkpt lat="42.45760836248316" lon="11.476252550065288"><ele>97.0</ele><time>2026-04-12T14:43:47Z</time></trkpt><trkpt lat="42.45767413505765" lon="11.476268390902142"><ele>96.66666666666667</ele><time>2026-04-12T14:43:48Z</time></trkpt><trkpt lat="42.457746182281554" lon="11.476273636894094"><ele>96.33333333333334</ele><time>2026-04-12T14:43:49Z</time></trkpt><trkpt lat="42.45783209849652" lon="11.476278479707748"><ele>96.0</ele><time>2026-04-12T14:43:50Z</time></trkpt><trkpt lat="42.457895781859" lon="11.47628541315667"><ele>95.66666666666667</ele><time>2026-04-12T14:43:51Z</time></trkpt><trkpt lat="42.4579591361673" lon="11.476289358741226"><ele>95.33333333333334</ele><time>2026-04-12T14:43:52Z</time></trkpt><trkpt lat="42.45808660096027" lon="11.476289113532156"><ele>95.0</ele><time>2026-04-12T14:43:54Z</time></trkpt><trkpt lat="42.458164924661496" lon="11.476261293525718"><ele>95.0</ele><time>2026-04-12T14:43:55Z</time></trkpt><trkpt lat="42.45824884062441" lon="11.476235393411699"><ele>95.0</ele><time>2026-04-12T14:43:56Z</time></trkpt><trkpt lat="42.45832310933886" lon="11.47624813400889"><ele>95.0</ele><time>2026-04-12T14:43:57Z</time></trkpt><trkpt lat="42.45840040257479" lon="11.476280156117834"><ele>95.0</ele><time>2026-04-12T14:43:58Z</time></trkpt><trkpt lat="42.458484442337756" lon="11.476296781423093"><ele>95.0</ele><time>2026-04-12T14:43:59Z</time></trkpt><trkpt lat="42.45857653518713" lon="11.476312218991637"><ele>95.0</ele><time>2026-04-12T14:44:00Z</time></trkpt><trkpt lat="42.458670853097416" lon="11.47632773793816"><ele>94.66666666666667</ele><time>2026-04-12T14:44:00.999Z</time></trkpt><trkpt lat="42.458755265740166" lon="11.476353100736114"><ele>94.33333333333334</ele><time>2026-04-12T14:44:01.999Z</time></trkpt><trkpt lat="42.45883792589619" lon="11.476369934516395"><ele>94.0</ele><time>2026-04-12T14:44:02.999Z</time></trkpt><trkpt lat="42.45891682509406" lon="11.476389663834027"><ele>93.66666666666667</ele><time>2026-04-12T14:44:03.999Z</time></trkpt><trkpt lat="42.45899186828272" lon="11.476412309944237"><ele>93.33333333333333</ele><time>2026-04-12T14:44:04.999Z</time></trkpt><trkpt lat="42.45905373643399" lon="11.47644476846714"><ele>93.0</ele><time>2026-04-12T14:44:05.999Z</time></trkpt><trkpt lat="42.45910884145016" lon="11.476488637465028"><ele>93.0</ele><time>2026-04-12T14:44:06.999Z</time></trkpt><trkpt lat="42.45915738840723" lon="11.476553155175184"><ele>93.0</ele><time>2026-04-12T14:44:07.999Z</time></trkpt><trkpt lat="42.459203165248184" lon="11.476634888644895"><ele>93.0</ele><time>2026-04-12T14:44:08.999Z</time></trkpt><trkpt lat="42.459238119915284" lon="11.476743054446592"><ele>93.0</ele><time>2026-04-12T14:44:09.999Z</time></trkpt><trkpt lat="42.459272967051795" lon="11.476836074760069"><ele>93.0</ele><time>2026-04-12T14:44:10.999Z</time></trkpt><trkpt lat="42.45930690924577" lon="11.4769225480645"><ele>93.0</ele><time>2026-04-12T14:44:11.999Z</time></trkpt><trkpt lat="42.45935302070845" lon="11.47701938384162"><ele>92.5</ele><time>2026-04-12T14:44:12.999Z</time></trkpt><trkpt lat="42.45939470997552" lon="11.477113475702215"><ele>92.0</ele><time>2026-04-12T14:44:13.999Z</time></trkpt><trkpt lat="42.45944226738544" lon="11.47721541677822"><ele>91.5</ele><time>2026-04-12T14:44:14.999Z</time></trkpt><trkpt lat="42.45948557951775" lon="11.477303107677898"><ele>91.0</ele><time>2026-04-12T14:44:15.999Z</time></trkpt><trkpt lat="42.45952956868661" lon="11.477380330180416"><ele>90.5</ele><time>2026-04-12T14:44:16.999Z</time></trkpt><trkpt lat="42.45956098044043" lon="11.477469298253062"><ele>90.0</ele><time>2026-04-12T14:44:17.999Z</time></trkpt><trkpt lat="42.459593764995894" lon="11.47755525719624"><ele>90.33333333333333</ele><time>2026-04-12T14:44:18.999Z</time></trkpt><trkpt lat="42.45963374809855" lon="11.4776606034547"><ele>90.66666666666667</ele><time>2026-04-12T14:44:19.999Z</time></trkpt><trkpt lat="42.459670667800324" lon="11.477764632641936"><ele>91.0</ele><time>2026-04-12T14:44:20.999Z</time></trkpt><trkpt lat="42.45971153423605" lon="11.477836074369185"><ele>91.33333333333334</ele><time>2026-04-12T14:44:21.999Z</time></trkpt><trkpt lat="42.4597392305771" lon="11.477916699749652"><ele>91.66666666666667</ele><time>2026-04-12T14:44:22.999Z</time></trkpt><trkpt lat="42.45977967559202" lon="11.478002145053418"><ele>92.0</ele><time>2026-04-12T14:44:23.999Z</time></trkpt><trkpt lat="42.459816811637026" lon="11.478089185308251"><ele>92.0</ele><time>2026-04-12T14:44:24.999Z</time></trkpt><trkpt lat="42.45985352697838" lon="11.47817068549419"><ele>92.0</ele><time>2026-04-12T14:44:25.999Z</time></trkpt><trkpt lat="42.459891518026545" lon="11.478249156433403"><ele>92.0</ele><time>2026-04-12T14:44:26.999Z</time></trkpt><trkpt lat="42.459928135968156" lon="11.478333169115007"><ele>92.0</ele><time>2026-04-12T14:44:27.999Z</time></trkpt><trkpt lat="42.459990938333576" lon="11.478480096393106"><ele>92.0</ele><time>2026-04-12T14:44:29.999Z</time></trkpt><trkpt lat="42.460031298075236" lon="11.478566390220367"><ele>92.0</ele><time>2026-04-12T14:44:30.999Z</time></trkpt><trkpt lat="42.460074139423426" lon="11.478645821590415"><ele>92.0</ele><time>2026-04-12T14:44:31.999Z</time></trkpt><trkpt lat="42.46010886423632" lon="11.478730327477658"><ele>92.0</ele><time>2026-04-12T14:44:32.999Z</time></trkpt><trkpt lat="42.46014442934391" lon="11.478817633081196"><ele>92.0</ele><time>2026-04-12T14:44:33.999Z</time></trkpt><trkpt lat="42.46018816947634" lon="11.4788992359896"><ele>92.0</ele><time>2026-04-12T14:44:34.999Z</time></trkpt><trkpt lat="42.4602311347048" lon="11.478982492855996"><ele>92.0</ele><time>2026-04-12T14:44:35.999Z</time></trkpt><trkpt lat="42.460274747642885" lon="11.479064387299765"><ele>92.0</ele><time>2026-04-12T14:44:36.999Z</time></trkpt><trkpt lat="42.46031087571028" lon="11.479152179102607"><ele>92.0</ele><time>2026-04-12T14:44:38Z</time></trkpt><trkpt lat="42.460339048395284" lon="11.479243324616977"><ele>92.16666666666667</ele><time>2026-04-12T14:44:39Z</time></trkpt><trkpt lat="42.46037619929467" lon="11.479338624906093"><ele>92.33333333333334</ele><time>2026-04-12T14:44:40Z</time></trkpt><trkpt lat="42.46042324144062" lon="11.479431738437873"><ele>92.5</ele><time>2026-04-12T14:44:41Z</time></trkpt><trkpt lat="42.460460578024296" lon="11.479517341272834"><ele>92.66666666666667</ele><time>2026-04-12T14:44:42Z</time></trkpt><trkpt lat="42.4604996664586" lon="11.479603795367366"><ele>92.83333333333333</ele><time>2026-04-12T14:44:43Z</time></trkpt><trkpt lat="42.46053153650953" lon="11.479686787678375"><ele>93.0</ele><time>2026-04-12T14:44:44Z</time></trkpt><trkpt lat="42.460595911980796" lon="11.479838203686986"><ele>93.0</ele><time>2026-04-12T14:44:46Z</time></trkpt><trkpt lat="42.460618974624666" lon="11.479928437778073"><ele>93.0</ele><time>2026-04-12T14:44:47Z</time></trkpt><trkpt lat="42.460645384042884" lon="11.480011675321375"><ele>93.0</ele><time>2026-04-12T14:44:48Z</time></trkpt><trkpt lat="42.46071535776974" lon="11.48014835913688"><ele>93.0</ele><time>2026-04-12T14:44:50Z</time></trkpt><trkpt lat="42.46075703106088" lon="11.480260179704874"><ele>93.0</ele><time>2026-04-12T14:44:52Z</time></trkpt><trkpt lat="42.46080489107692" lon="11.480390369397844"><ele>92.60000000000001</ele><time>2026-04-12T14:44:54Z</time></trkpt><trkpt lat="42.460853095756434" lon="11.48051261944846"><ele>92.2</ele><time>2026-04-12T14:44:56Z</time></trkpt><trkpt lat="42.460897449392085" lon="11.480611184546904"><ele>91.8</ele><time>2026-04-12T14:44:58Z</time></trkpt><trkpt lat="42.46093976627045" lon="11.480721989029908"><ele>91.4</ele><time>2026-04-12T14:45:00Z</time></trkpt><trkpt lat="42.46099179787829" lon="11.480848209601223"><ele>91.0</ele><time>2026-04-12T14:45:02Z</time></trkpt><trkpt lat="42.4610325683991" lon="11.480927653438513"><ele>91.0</ele><time>2026-04-12T14:45:04Z</time></trkpt><trkpt lat="42.46107915255927" lon="11.481050377384529"><ele>91.0</ele><time>2026-04-12T14:45:07Z</time></trkpt><trkpt lat="42.461155867571286" lon="11.481154635461802"><ele>91.0</ele><time>2026-04-12T14:45:09Z</time></trkpt><trkpt lat="42.46125262256377" lon="11.481221957278427"><ele>91.0</ele><time>2026-04-12T14:45:11Z</time></trkpt><trkpt lat="42.46135269396669" lon="11.481281340119516"><ele>91.0</ele><time>2026-04-12T14:45:13Z</time></trkpt><trkpt lat="42.46141073386618" lon="11.481322249329775"><ele>91.33333333333333</ele><time>2026-04-12T14:45:15Z</time></trkpt><trkpt lat="42.46147597439258" lon="11.481356154422016"><ele>91.66666666666666</ele><time>2026-04-12T14:45:23Z</time></trkpt><trkpt lat="42.46153916533042" lon="11.481400218671348"><ele>92.0</ele><time>2026-04-12T14:45:26Z</time></trkpt><trkpt lat="42.46160065650668" lon="11.481444388097577"><ele>92.33333333333333</ele><time>2026-04-12T14:45:29Z</time></trkpt><trkpt lat="42.461712249859936" lon="11.481502244870253"><ele>92.66666666666667</ele><time>2026-04-12T14:45:32Z</time></trkpt><trkpt lat="42.46181876066198" lon="11.481573591884368"><ele>93.0</ele><time>2026-04-12T14:45:34Z</time></trkpt><trkpt lat="42.46192042924217" lon="11.481644514985053"><ele>93.0</ele><time>2026-04-12T14:45:36Z</time></trkpt><trkpt lat="42.46202081028172" lon="11.481716217382361"><ele>93.0</ele><time>2026-04-12T14:45:38Z</time></trkpt><trkpt lat="42.462134826616854" lon="11.481767919822994"><ele>93.0</ele><time>2026-04-12T14:45:40Z</time></trkpt><trkpt lat="42.462235726443154" lon="11.481796221549365"><ele>93.0</ele><time>2026-04-12T14:45:42Z</time></trkpt><trkpt lat="42.46231778377743" lon="11.481834408349089"><ele>93.0</ele><time>2026-04-12T14:45:44Z</time></trkpt><trkpt lat="42.46242451357088" lon="11.481866926839729"><ele>94.2</ele><time>2026-04-12T14:45:46Z</time></trkpt><trkpt lat="42.462532544746686" lon="11.481847236793435"><ele>95.4</ele><time>2026-04-12T14:45:48Z</time></trkpt><trkpt lat="42.462622531076654" lon="11.481813922798187"><ele>96.60000000000001</ele><time>2026-04-12T14:45:50Z</time></trkpt><trkpt lat="42.46272839729086" lon="11.481778647502853"><ele>97.80000000000001</ele><time>2026-04-12T14:45:52Z</time></trkpt><trkpt lat="42.462829922704806" lon="11.481750919058744"><ele>99.0</ele><time>2026-04-12T14:45:54Z</time></trkpt><trkpt lat="42.4629142479398" lon="11.481759185586288"><ele>99.83333333333333</ele><time>2026-04-12T14:45:56Z</time></trkpt><trkpt lat="42.462984342933474" lon="11.48179781531024"><ele>100.66666666666666</ele><time>2026-04-12T14:45:58Z</time></trkpt><trkpt lat="42.46304013004146" lon="11.481898152126645"><ele>101.5</ele><time>2026-04-12T14:46:00Z</time></trkpt><trkpt lat="42.46308168523238" lon="11.482025536516133"><ele>102.33333333333333</ele><time>2026-04-12T14:46:02Z</time></trkpt><trkpt lat="42.46309870519796" lon="11.482146681070095"><ele>103.16666666666666</ele><time>2026-04-12T14:46:05Z</time></trkpt><trkpt lat="42.463106367510655" lon="11.48225895109003"><ele>104.0</ele><time>2026-04-12T14:46:07Z</time></trkpt><trkpt lat="42.46312779515047" lon="11.482371487164297"><ele>104.0</ele><time>2026-04-12T14:46:10Z</time></trkpt><trkpt lat="42.46315039268685" lon="11.48249223830871"><ele>104.0</ele><time>2026-04-12T14:46:11.999Z</time></trkpt><trkpt lat="42.46316881253118" lon="11.482618501959148"><ele>104.0</ele><time>2026-04-12T14:46:13.999Z</time></trkpt><trkpt lat="42.463183061472265" lon="11.482735588981855"><ele>104.0</ele><time>2026-04-12T14:46:15.999Z</time></trkpt><trkpt lat="42.46319702187991" lon="11.4828872145347"><ele>104.0</ele><time>2026-04-12T14:46:17.999Z</time></trkpt><trkpt lat="42.463219441391736" lon="11.483042999993643"><ele>103.4</ele><time>2026-04-12T14:46:19.999Z</time></trkpt><trkpt lat="42.463235738661304" lon="11.483183447996275"><ele>102.80000000000001</ele><time>2026-04-12T14:46:21.999Z</time></trkpt><trkpt lat="42.463251633672776" lon="11.48332472936156"><ele>102.19999999999999</ele><time>2026-04-12T14:46:23.999Z</time></trkpt><trkpt lat="42.46328057248647" lon="11.483458478749236"><ele>101.6</ele><time>2026-04-12T14:46:25.999Z</time></trkpt><trkpt lat="42.46331282639212" lon="11.48358333567256"><ele>101.0</ele><time>2026-04-12T14:46:27.999Z</time></trkpt><trkpt lat="42.46335142622305" lon="11.483687114694769"><ele>100.33333333333333</ele><time>2026-04-12T14:46:29.999Z</time></trkpt><trkpt lat="42.46340337352139" lon="11.483823922034285"><ele>99.66666666666666</ele><time>2026-04-12T14:46:31.999Z</time></trkpt><trkpt lat="42.463436034283575" lon="11.48389970682645"><ele>99.0</ele><time>2026-04-12T14:46:32.999Z</time></trkpt><trkpt lat="42.463471964158316" lon="11.483982107312732"><ele>98.33333333333334</ele><time>2026-04-12T14:46:33.999Z</time></trkpt><trkpt lat="42.463506082315995" lon="11.484057762894434"><ele>97.66666666666667</ele><time>2026-04-12T14:46:34.999Z</time></trkpt><trkpt lat="42.46355558227059" lon="11.484193015109554"><ele>97.0</ele><time>2026-04-12T14:46:36.999Z</time></trkpt><trkpt lat="42.46360787001259" lon="11.484314091355946"><ele>97.00000000000001</ele><time>2026-04-12T14:46:38.999Z</time></trkpt><trkpt lat="42.46363939492885" lon="11.484389513623944"><ele>97.0</ele><time>2026-04-12T14:46:40.999Z</time></trkpt><trkpt lat="42.46370924435052" lon="11.484480173111034"><ele>97.0</ele><time>2026-04-12T14:46:45Z</time></trkpt><trkpt lat="42.46377054891522" lon="11.484503823516846"><ele>97.0</ele><time>2026-04-12T14:46:47Z</time></trkpt><trkpt lat="42.463856314921905" lon="11.4845928031471"><ele>97.00000000000001</ele><time>2026-04-12T14:46:50Z</time></trkpt><trkpt lat="42.46389126550081" lon="11.484685979980963"><ele>97.0</ele><time>2026-04-12T14:46:52Z</time></trkpt><trkpt lat="42.463937174116275" lon="11.484797635588984"><ele>97.39999999999999</ele><time>2026-04-12T14:46:54Z</time></trkpt><trkpt lat="42.463991002385484" lon="11.484933894165602"><ele>97.8</ele><time>2026-04-12T14:46:56Z</time></trkpt><trkpt lat="42.464062397911626" lon="11.485048080285546"><ele>98.2</ele><time>2026-04-12T14:46:58Z</time></trkpt><trkpt lat="42.46410693533541" lon="11.485112683814538"><ele>98.6</ele><time>2026-04-12T14:46:59Z</time></trkpt><trkpt lat="42.46417798794451" lon="11.485225608744697"><ele>99.0</ele><time>2026-04-12T14:47:01Z</time></trkpt><trkpt lat="42.46424685153541" lon="11.485347153670821"><ele>99.2</ele><time>2026-04-12T14:47:03Z</time></trkpt><trkpt lat="42.464309462982875" lon="11.485468714201197"><ele>99.4</ele><time>2026-04-12T14:47:05Z</time></trkpt><trkpt lat="42.46434251835009" lon="11.485588092951906"><ele>99.6</ele><time>2026-04-12T14:47:07Z</time></trkpt><trkpt lat="42.46436759456453" lon="11.485740342057591"><ele>99.8</ele><time>2026-04-12T14:47:09Z</time></trkpt><trkpt lat="42.464401097983504" lon="11.485863611527847"><ele>100.0</ele><time>2026-04-12T14:47:11Z</time></trkpt><trkpt lat="42.464442515862544" lon="11.485973557642847"><ele>100.00000000000001</ele><time>2026-04-12T14:47:13Z</time></trkpt><trkpt lat="42.464467230680675" lon="11.486070433821405"><ele>100.0</ele><time>2026-04-12T14:47:15Z</time></trkpt><trkpt lat="42.464490194898175" lon="11.486178759371056"><ele>100.0</ele><time>2026-04-12T14:47:17Z</time></trkpt><trkpt lat="42.46452895086964" lon="11.486258645390745"><ele>100.0</ele><time>2026-04-12T14:47:26Z</time></trkpt><trkpt lat="42.46460696651747" lon="11.48626386332225"><ele>100.00000000000001</ele><time>2026-04-12T14:47:28Z</time></trkpt><trkpt lat="42.46470995131101" lon="11.486259848387753"><ele>100.0</ele><time>2026-04-12T14:47:30Z</time></trkpt><trkpt lat="42.46478821202424" lon="11.486265900322872"><ele>101.16666666666667</ele><time>2026-04-12T14:47:31Z</time></trkpt><trkpt lat="42.46486918664817" lon="11.486278442110088"><ele>102.33333333333334</ele><time>2026-04-12T14:47:32Z</time></trkpt><trkpt lat="42.464947647530956" lon="11.486288844967692"><ele>103.5</ele><time>2026-04-12T14:47:33Z</time></trkpt><trkpt lat="42.46503672644725" lon="11.48630055932054"><ele>104.66666666666666</ele><time>2026-04-12T14:47:34Z</time></trkpt><trkpt lat="42.465123853517284" lon="11.48631511820499"><ele>105.83333333333333</ele><time>2026-04-12T14:47:35Z</time></trkpt><trkpt lat="42.465217573391094" lon="11.486328711805024"><ele>107.0</ele><time>2026-04-12T14:47:36Z</time></trkpt><trkpt lat="42.4653133654358" lon="11.486343228695501"><ele>106.99999999999999</ele><time>2026-04-12T14:47:37Z</time></trkpt><trkpt lat="42.46541052840147" lon="11.486361585137605"><ele>107.0</ele><time>2026-04-12T14:47:38Z</time></trkpt><trkpt lat="42.46550613856007" lon="11.486385336353138"><ele>107.0</ele><time>2026-04-12T14:47:39Z</time></trkpt><trkpt lat="42.465582648062714" lon="11.486398105833954"><ele>107.0</ele><time>2026-04-12T14:47:40Z</time></trkpt><trkpt lat="42.46566902680387" lon="11.48641501856269"><ele>106.99999999999999</ele><time>2026-04-12T14:47:41Z</time></trkpt><trkpt lat="42.46574743395591" lon="11.486435449913719"><ele>107.0</ele><time>2026-04-12T14:47:42Z</time></trkpt><trkpt lat="42.465814692549394" lon="11.486451686034574"><ele>107.66666666666666</ele><time>2026-04-12T14:47:43Z</time></trkpt><trkpt lat="42.465883905639316" lon="11.486465422744471"><ele>108.33333333333333</ele><time>2026-04-12T14:47:44Z</time></trkpt><trkpt lat="42.46595043636757" lon="11.48648052207441"><ele>109.0</ele><time>2026-04-12T14:47:45Z</time></trkpt><trkpt lat="42.466024830541485" lon="11.486493156194943"><ele>109.66666666666666</ele><time>2026-04-12T14:47:46Z</time></trkpt><trkpt lat="42.46610224628518" lon="11.486517783342999"><ele>110.33333333333333</ele><time>2026-04-12T14:47:47Z</time></trkpt><trkpt lat="42.4661872852654" lon="11.486520419452333"><ele>111.0</ele><time>2026-04-12T14:47:48Z</time></trkpt><trkpt lat="42.46627552522502" lon="11.48652315478331"><ele>111.4</ele><time>2026-04-12T14:47:49Z</time></trkpt><trkpt lat="42.46635604659363" lon="11.486536105073696"><ele>111.8</ele><time>2026-04-12T14:47:50Z</time></trkpt><trkpt lat="42.466446673441595" lon="11.486543058716295"><ele>112.20000000000002</ele><time>2026-04-12T14:47:51Z</time></trkpt><trkpt lat="42.46654546864501" lon="11.486567287227055"><ele>112.60000000000001</ele><time>2026-04-12T14:47:52Z</time></trkpt><trkpt lat="42.46666634799161" lon="11.486601149626098"><ele>113.0</ele><time>2026-04-12T14:47:53Z</time></trkpt><trkpt lat="42.46677506728761" lon="11.486638738205317"><ele>113.0</ele><time>2026-04-12T14:47:54Z</time></trkpt><trkpt lat="42.46687038078848" lon="11.486674866892821"><ele>113.00000000000001</ele><time>2026-04-12T14:47:55Z</time></trkpt><trkpt lat="42.46696599344696" lon="11.486708755863075"><ele>113.00000000000001</ele><time>2026-04-12T14:47:56Z</time></trkpt><trkpt lat="42.46706603729783" lon="11.486724708474481"><ele>113.0</ele><time>2026-04-12T14:47:57Z</time></trkpt><trkpt lat="42.46716429634485" lon="11.486722454335105"><ele>113.0</ele><time>2026-04-12T14:47:58Z</time></trkpt><trkpt lat="42.467253786549925" lon="11.4867174060167"><ele>112.60000000000001</ele><time>2026-04-12T14:47:59Z</time></trkpt><trkpt lat="42.46734701914216" lon="11.48671574677314"><ele>112.20000000000002</ele><time>2026-04-12T14:48:00Z</time></trkpt><trkpt lat="42.46743550240451" lon="11.486713865489534"><ele>111.8</ele><time>2026-04-12T14:48:01Z</time></trkpt><trkpt lat="42.4675321536363" lon="11.486720024402718"><ele>111.4</ele><time>2026-04-12T14:48:02Z</time></trkpt><trkpt lat="42.46762210150971" lon="11.48672372554863"><ele>111.0</ele><time>2026-04-12T14:48:03Z</time></trkpt><trkpt lat="42.46771584581235" lon="11.486732773846263"><ele>111.0</ele><time>2026-04-12T14:48:04Z</time></trkpt><trkpt lat="42.46780841544512" lon="11.486750035543253"><ele>111.0</ele><time>2026-04-12T14:48:05Z</time></trkpt><trkpt lat="42.46791286213578" lon="11.48680202161268"><ele>111.0</ele><time>2026-04-12T14:48:06Z</time></trkpt><trkpt lat="42.468025331722174" lon="11.486821452599257"><ele>111.0</ele><time>2026-04-12T14:48:07Z</time></trkpt><trkpt lat="42.468127536350316" lon="11.486877261177769"><ele>111.0</ele><time>2026-04-12T14:48:08Z</time></trkpt><trkpt lat="42.468243184118286" lon="11.486905787021874"><ele>111.6</ele><time>2026-04-12T14:48:09Z</time></trkpt><trkpt lat="42.46835699427941" lon="11.486932178663778"><ele>112.19999999999999</ele><time>2026-04-12T14:48:09.999Z</time></trkpt><trkpt lat="42.46847669190306" lon="11.48695060658734"><ele>112.80000000000001</ele><time>2026-04-12T14:48:10.999Z</time></trkpt><trkpt lat="42.4685857491508" lon="11.486984116434188"><ele>113.4</ele><time>2026-04-12T14:48:11.999Z</time></trkpt><trkpt lat="42.46867513384866" lon="11.487012288888492"><ele>114.0</ele><time>2026-04-12T14:48:12.999Z</time></trkpt><trkpt lat="42.46877253973879" lon="11.487048806247882"><ele>114.4</ele><time>2026-04-12T14:48:13.999Z</time></trkpt><trkpt lat="42.468867603970835" lon="11.487082716667025"><ele>114.80000000000001</ele><time>2026-04-12T14:48:14.999Z</time></trkpt><trkpt lat="42.46895288803666" lon="11.487124820077131"><ele>115.19999999999999</ele><time>2026-04-12T14:48:15.999Z</time></trkpt><trkpt lat="42.46904465153528" lon="11.487195582895867"><ele>115.6</ele><time>2026-04-12T14:48:16.999Z</time></trkpt><trkpt lat="42.469129437350325" lon="11.487274058744097"><ele>116.0</ele><time>2026-04-12T14:48:17.999Z</time></trkpt><trkpt lat="42.469207813043596" lon="11.487363313180381"><ele>116.4</ele><time>2026-04-12T14:48:18.999Z</time></trkpt><trkpt lat="42.46929186599042" lon="11.487464505371696"><ele>116.8</ele><time>2026-04-12T14:48:19.999Z</time></trkpt><trkpt lat="42.469376337043556" lon="11.487559249326386"><ele>117.20000000000002</ele><time>2026-04-12T14:48:20.999Z</time></trkpt><trkpt lat="42.46946310214275" lon="11.487643331319237"><ele>117.60000000000001</ele><time>2026-04-12T14:48:21.999Z</time></trkpt><trkpt lat="42.469538364049995" lon="11.487731119587812"><ele>118.0</ele><time>2026-04-12T14:48:22.999Z</time></trkpt><trkpt lat="42.4696009419211" lon="11.487827110970644"><ele>118.00000000000001</ele><time>2026-04-12T14:48:23.999Z</time></trkpt><trkpt lat="42.46965453105985" lon="11.48791498703587"><ele>118.0</ele><time>2026-04-12T14:48:24.999Z</time></trkpt><trkpt lat="42.46972354840973" lon="11.487996490957416"><ele>118.0</ele><time>2026-04-12T14:48:25.999Z</time></trkpt><trkpt lat="42.469798503496015" lon="11.488045495188679"><ele>118.0</ele><time>2026-04-12T14:48:26.999Z</time></trkpt><trkpt lat="42.46988774192626" lon="11.488060579951998"><ele>118.00000000000001</ele><time>2026-04-12T14:48:27.999Z</time></trkpt><trkpt lat="42.469987661455086" lon="11.488054556723716"><ele>118.0</ele><time>2026-04-12T14:48:28.999Z</time></trkpt><trkpt lat="42.47007790113969" lon="11.488064570175968"><ele>118.83333333333334</ele><time>2026-04-12T14:48:29.999Z</time></trkpt><trkpt lat="42.47017106734839" lon="11.488029239064273"><ele>119.66666666666667</ele><time>2026-04-12T14:48:30.999Z</time></trkpt><trkpt lat="42.47026338616306" lon="11.488014143176267"><ele>120.5</ele><time>2026-04-12T14:48:31.999Z</time></trkpt><trkpt lat="42.47034935113733" lon="11.488004704958781"><ele>121.33333333333334</ele><time>2026-04-12T14:48:32.999Z</time></trkpt><trkpt lat="42.47043139772592" lon="11.48800698742852"><ele>122.16666666666667</ele><time>2026-04-12T14:48:33.999Z</time></trkpt><trkpt lat="42.47051872044636" lon="11.488016867441392"><ele>123.0</ele><time>2026-04-12T14:48:34.999Z</time></trkpt><trkpt lat="42.470606297373166" lon="11.488064172946576"><ele>123.0</ele><time>2026-04-12T14:48:35.999Z</time></trkpt><trkpt lat="42.470698520078244" lon="11.488096159140238"><ele>123.00000000000001</ele><time>2026-04-12T14:48:36.999Z</time></trkpt><trkpt lat="42.47079847661305" lon="11.488124540461726"><ele>123.00000000000001</ele><time>2026-04-12T14:48:37.999Z</time></trkpt><trkpt lat="42.47090594540735" lon="11.488140331642066"><ele>123.0</ele><time>2026-04-12T14:48:38.999Z</time></trkpt><trkpt lat="42.471020216347604" lon="11.488140186365467"><ele>123.0</ele><time>2026-04-12T14:48:39.999Z</time></trkpt><trkpt lat="42.47113745722418" lon="11.48813486897754"><ele>123.0</ele><time>2026-04-12T14:48:40.999Z</time></trkpt><trkpt lat="42.471255738727685" lon="11.488128372475895"><ele>123.0</ele><time>2026-04-12T14:48:41.999Z</time></trkpt><trkpt lat="42.4713800033016" lon="11.488132165838458"><ele>123.0</ele><time>2026-04-12T14:48:42.999Z</time></trkpt><trkpt lat="42.47150402166357" lon="11.488113389186063"><ele>123.0</ele><time>2026-04-12T14:48:43.999Z</time></trkpt><trkpt lat="42.471614366153" lon="11.488095357938796"><ele>122.60000000000001</ele><time>2026-04-12T14:48:44.999Z</time></trkpt><trkpt lat="42.47171794480062" lon="11.488079314828322"><ele>122.20000000000002</ele><time>2026-04-12T14:48:45.999Z</time></trkpt><trkpt lat="42.47181858728767" lon="11.48807151135071"><ele>121.8</ele><time>2026-04-12T14:48:46.999Z</time></trkpt><trkpt lat="42.471924018410164" lon="11.488072660805232"><ele>121.4</ele><time>2026-04-12T14:48:47.999Z</time></trkpt><trkpt lat="42.47202621173283" lon="11.488075849548482"><ele>121.0</ele><time>2026-04-12T14:48:48.999Z</time></trkpt><trkpt lat="42.472103748048674" lon="11.488093965736828"><ele>120.8</ele><time>2026-04-12T14:48:50Z</time></trkpt><trkpt lat="42.47221513459284" lon="11.488129906075276"><ele>120.6</ele><time>2026-04-12T14:48:52Z</time></trkpt><trkpt lat="42.47233950137777" lon="11.488176398721206"><ele>120.4</ele><time>2026-04-12T14:48:54Z</time></trkpt><trkpt lat="42.472409222327684" lon="11.488177025521662"><ele>120.2</ele><time>2026-04-12T14:48:55Z</time></trkpt><trkpt lat="42.4724735878043" lon="11.488222440119202"><ele>120.0</ele><time>2026-04-12T14:48:56Z</time></trkpt><trkpt lat="42.47254337935583" lon="11.488243306095717"><ele>120.0</ele><time>2026-04-12T14:48:57Z</time></trkpt><trkpt lat="42.47262119898143" lon="11.488275099111982"><ele>120.0</ele><time>2026-04-12T14:48:58Z</time></trkpt><trkpt lat="42.47269965180928" lon="11.48829620990831"><ele>120.0</ele><time>2026-04-12T14:48:59Z</time></trkpt><trkpt lat="42.47277785878015" lon="11.488308188823728"><ele>120.0</ele><time>2026-04-12T14:49:00Z</time></trkpt><trkpt lat="42.472853214332325" lon="11.488336459943223"><ele>120.0</ele><time>2026-04-12T14:49:01Z</time></trkpt><trkpt lat="42.47292704324432" lon="11.488378548086914"><ele>120.0</ele><time>2026-04-12T14:49:02Z</time></trkpt><trkpt lat="42.47299388489189" lon="11.488428733670634"><ele>120.16666666666667</ele><time>2026-04-12T14:49:03Z</time></trkpt><trkpt lat="42.47306499535269" lon="11.48848661469019"><ele>120.33333333333334</ele><time>2026-04-12T14:49:04Z</time></trkpt><trkpt lat="42.47313055932588" lon="11.48855650430407"><ele>120.5</ele><time>2026-04-12T14:49:05Z</time></trkpt><trkpt lat="42.47319067785779" lon="11.488628846717859"><ele>120.66666666666667</ele><time>2026-04-12T14:49:06Z</time></trkpt><trkpt lat="42.47325450893917" lon="11.48870285024245"><ele>120.83333333333334</ele><time>2026-04-12T14:49:07Z</time></trkpt><trkpt lat="42.473316488099286" lon="11.488781350227546"><ele>121.0</ele><time>2026-04-12T14:49:08Z</time></trkpt><trkpt lat="42.47337536796869" lon="11.4888492082907"><ele>121.00000000000001</ele><time>2026-04-12T14:49:09Z</time></trkpt><trkpt lat="42.47343331655935" lon="11.488922441991729"><ele>121.0</ele><time>2026-04-12T14:49:10Z</time></trkpt><trkpt lat="42.47349341303004" lon="11.488989905286182"><ele>121.0</ele><time>2026-04-12T14:49:11Z</time></trkpt><trkpt lat="42.473548746421" lon="11.489055662969802"><ele>121.0</ele><time>2026-04-12T14:49:12Z</time></trkpt><trkpt lat="42.47360068431755" lon="11.48911761847287"><ele>121.00000000000001</ele><time>2026-04-12T14:49:13Z</time></trkpt><trkpt lat="42.47369449829027" lon="11.489229418129995"><ele>121.0</ele><time>2026-04-12T14:49:15Z</time></trkpt><trkpt lat="42.473747591416085" lon="11.489280636224686"><ele>120.33333333333334</ele><time>2026-04-12T14:49:16Z</time></trkpt><trkpt lat="42.47379794478052" lon="11.489337648774686"><ele>119.66666666666667</ele><time>2026-04-12T14:49:17Z</time></trkpt><trkpt lat="42.47389469635283" lon="11.48946413646904"><ele>119.0</ele><time>2026-04-12T14:49:19Z</time></trkpt><trkpt lat="42.47395446719516" lon="11.489522346733867"><ele>118.33333333333334</ele><time>2026-04-12T14:49:20Z</time></trkpt><trkpt lat="42.47401534791774" lon="11.489569869423198"><ele>117.66666666666667</ele><time>2026-04-12T14:49:21Z</time></trkpt><trkpt lat="42.47408193321189" lon="11.489606041635456"><ele>117.0</ele><time>2026-04-12T14:49:22Z</time></trkpt><trkpt lat="42.47415689840306" lon="11.48963424742578"><ele>117.0</ele><time>2026-04-12T14:49:23Z</time></trkpt><trkpt lat="42.474235332277956" lon="11.489656601387706"><ele>117.0</ele><time>2026-04-12T14:49:24Z</time></trkpt><trkpt lat="42.47430873296479" lon="11.489675530672693"><ele>117.0</ele><time>2026-04-12T14:49:25Z</time></trkpt><trkpt lat="42.47439421638655" lon="11.48970302179176"><ele>117.0</ele><time>2026-04-12T14:49:26Z</time></trkpt><trkpt lat="42.474470355326815" lon="11.489736058023809"><ele>117.0</ele><time>2026-04-12T14:49:27Z</time></trkpt><trkpt lat="42.474549453452234" lon="11.489768249537422"><ele>117.0</ele><time>2026-04-12T14:49:28Z</time></trkpt><trkpt lat="42.474627832083875" lon="11.489798001696128"><ele>116.39999999999999</ele><time>2026-04-12T14:49:29Z</time></trkpt><trkpt lat="42.474713378635876" lon="11.489822401927974"><ele>115.79999999999998</ele><time>2026-04-12T14:49:30Z</time></trkpt><trkpt lat="42.474796481206184" lon="11.48984939838836"><ele>115.2</ele><time>2026-04-12T14:49:31Z</time></trkpt><trkpt lat="42.47489057986611" lon="11.489881434558312"><ele>114.6</ele><time>2026-04-12T14:49:32Z</time></trkpt><trkpt lat="42.474976087841426" lon="11.48990941358239"><ele>114.0</ele><time>2026-04-12T14:49:33Z</time></trkpt><trkpt lat="42.47507586171666" lon="11.489950838377013"><ele>114.0</ele><time>2026-04-12T14:49:34Z</time></trkpt><trkpt lat="42.47517732792591" lon="11.489986192585988"><ele>114.0</ele><time>2026-04-12T14:49:35Z</time></trkpt><trkpt lat="42.47527654167806" lon="11.490019559666107"><ele>114.0</ele><time>2026-04-12T14:49:36Z</time></trkpt><trkpt lat="42.475374319020844" lon="11.490048986924656"><ele>114.0</ele><time>2026-04-12T14:49:36.999Z</time></trkpt><trkpt lat="42.475467588427875" lon="11.490078046026177"><ele>114.0</ele><time>2026-04-12T14:49:37.999Z</time></trkpt><trkpt lat="42.475563489977226" lon="11.490121594132807"><ele>114.6</ele><time>2026-04-12T14:49:38.999Z</time></trkpt><trkpt lat="42.475666245830105" lon="11.490161330773708"><ele>115.2</ele><time>2026-04-12T14:49:39.999Z</time></trkpt><trkpt lat="42.475766586370774" lon="11.490200646662313"><ele>115.79999999999998</ele><time>2026-04-12T14:49:40.999Z</time></trkpt><trkpt lat="42.475867718830195" lon="11.490231218258838"><ele>116.39999999999999</ele><time>2026-04-12T14:49:41.999Z</time></trkpt><trkpt lat="42.47597014766834" lon="11.490268890450702"><ele>117.0</ele><time>2026-04-12T14:49:42.999Z</time></trkpt><trkpt lat="42.476068472285974" lon="11.490299010724996"><ele>117.0</ele><time>2026-04-12T14:49:43.999Z</time></trkpt><trkpt lat="42.47617572130803" lon="11.490332906732478"><ele>116.99999999999999</ele><time>2026-04-12T14:49:44.999Z</time></trkpt><trkpt lat="42.476278983456766" lon="11.490366702938593"><ele>116.99999999999999</ele><time>2026-04-12T14:49:45.999Z</time></trkpt><trkpt lat="42.47637996468342" lon="11.490397231246384"><ele>117.0</ele><time>2026-04-12T14:49:46.999Z</time></trkpt><trkpt lat="42.47647845932266" lon="11.490421345411074"><ele>117.0</ele><time>2026-04-12T14:49:47.999Z</time></trkpt><trkpt lat="42.47657367285003" lon="11.490457956184112"><ele>117.8</ele><time>2026-04-12T14:49:48.999Z</time></trkpt><trkpt lat="42.47667325079041" lon="11.490494942052113"><ele>118.6</ele><time>2026-04-12T14:49:49.999Z</time></trkpt><trkpt lat="42.476772988027626" lon="11.49052921487565"><ele>119.39999999999999</ele><time>2026-04-12T14:49:50.999Z</time></trkpt><trkpt lat="42.476873464542805" lon="11.490562236316425"><ele>120.19999999999999</ele><time>2026-04-12T14:49:51.999Z</time></trkpt><trkpt lat="42.476971472426776" lon="11.490592620086845"><ele>121.0</ele><time>2026-04-12T14:49:52.999Z</time></trkpt><trkpt lat="42.477070251399816" lon="11.490626501792823"><ele>120.19999999999999</ele><time>2026-04-12T14:49:53.999Z</time></trkpt><trkpt lat="42.477168528782734" lon="11.490657058218652"><ele>119.39999999999999</ele><time>2026-04-12T14:49:54.999Z</time></trkpt><trkpt lat="42.47726385895524" lon="11.490689464121441"><ele>118.6</ele><time>2026-04-12T14:49:55.999Z</time></trkpt><trkpt lat="42.47736008579734" lon="11.49072219630692"><ele>117.8</ele><time>2026-04-12T14:49:56.999Z</time></trkpt><trkpt lat="42.477447455404636" lon="11.490752766589502"><ele>117.0</ele><time>2026-04-12T14:49:57.999Z</time></trkpt><trkpt lat="42.47753917225317" lon="11.490792553576606"><ele>117.0</ele><time>2026-04-12T14:49:58.999Z</time></trkpt><trkpt lat="42.477621566751054" lon="11.490840935342733"><ele>116.99999999999999</ele><time>2026-04-12T14:49:59.999Z</time></trkpt><trkpt lat="42.477710435099446" lon="11.490908353619986"><ele>116.99999999999999</ele><time>2026-04-12T14:50:00.999Z</time></trkpt><trkpt lat="42.47778115807596" lon="11.490990898935292"><ele>117.0</ele><time>2026-04-12T14:50:01.999Z</time></trkpt><trkpt lat="42.47785358065618" lon="11.491085580716094"><ele>117.0</ele><time>2026-04-12T14:50:02.999Z</time></trkpt><trkpt lat="42.4779320181696" lon="11.491199248155771"><ele>118.5</ele><time>2026-04-12T14:50:03.999Z</time></trkpt><trkpt lat="42.47800245961764" lon="11.491338354622854"><ele>120.0</ele><time>2026-04-12T14:50:04.999Z</time></trkpt><trkpt lat="42.47806530083235" lon="11.491451499952822"><ele>121.5</ele><time>2026-04-12T14:50:05.999Z</time></trkpt><trkpt lat="42.47812783818257" lon="11.49159575822644"><ele>123.0</ele><time>2026-04-12T14:50:06.999Z</time></trkpt><trkpt lat="42.478188943074954" lon="11.491732127224626"><ele>123.0</ele><time>2026-04-12T14:50:07.999Z</time></trkpt><trkpt lat="42.4782423760509" lon="11.491853233401482"><ele>123.00000000000001</ele><time>2026-04-12T14:50:08.999Z</time></trkpt><trkpt lat="42.47830183846434" lon="11.491974186079219"><ele>123.00000000000001</ele><time>2026-04-12T14:50:09.999Z</time></trkpt><trkpt lat="42.4783590166917" lon="11.492087439624777"><ele>123.0</ele><time>2026-04-12T14:50:10.999Z</time></trkpt><trkpt lat="42.478414808368086" lon="11.49222496677073"><ele>123.0</ele><time>2026-04-12T14:50:11.999Z</time></trkpt><trkpt lat="42.4784786830165" lon="11.49233725285993"><ele>123.33333333333333</ele><time>2026-04-12T14:50:12.999Z</time></trkpt><trkpt lat="42.478543616806185" lon="11.4924340785332"><ele>123.66666666666666</ele><time>2026-04-12T14:50:13.999Z</time></trkpt><trkpt lat="42.4786107297681" lon="11.492516154506669"><ele>124.0</ele><time>2026-04-12T14:50:14.999Z</time></trkpt><trkpt lat="42.47867288061509" lon="11.49257673727424"><ele>124.33333333333333</ele><time>2026-04-12T14:50:15.999Z</time></trkpt><trkpt lat="42.47873334793972" lon="11.492643630197122"><ele>124.66666666666666</ele><time>2026-04-12T14:50:16.999Z</time></trkpt><trkpt lat="42.47878421116364" lon="11.492747071655788"><ele>125.0</ele><time>2026-04-12T14:50:17.999Z</time></trkpt><trkpt lat="42.47881548205245" lon="11.4928598050633"><ele>125.0</ele><time>2026-04-12T14:50:18.999Z</time></trkpt><trkpt lat="42.47885867900181" lon="11.492958967756126"><ele>125.0</ele><time>2026-04-12T14:50:19.999Z</time></trkpt><trkpt lat="42.47890687830111" lon="11.493078533150419"><ele>125.0</ele><time>2026-04-12T14:50:20.999Z</time></trkpt><trkpt lat="42.478945729778" lon="11.493208012737085"><ele>125.0</ele><time>2026-04-12T14:50:21.999Z</time></trkpt><trkpt lat="42.47897626207217" lon="11.493350203483311"><ele>125.0</ele><time>2026-04-12T14:50:22.999Z</time></trkpt><trkpt lat="42.47900781693394" lon="11.4934870390799"><ele>125.0</ele><time>2026-04-12T14:50:23.999Z</time></trkpt><trkpt lat="42.47905271602523" lon="11.493617244801579"><ele>125.0</ele><time>2026-04-12T14:50:24.999Z</time></trkpt><trkpt lat="42.4791115524556" lon="11.493749282753747"><ele>125.0</ele><time>2026-04-12T14:50:25.999Z</time></trkpt><trkpt lat="42.479178578660374" lon="11.493873259751615"><ele>125.0</ele><time>2026-04-12T14:50:26.999Z</time></trkpt><trkpt lat="42.4792480095445" lon="11.493995433320338"><ele>125.0</ele><time>2026-04-12T14:50:27.999Z</time></trkpt><trkpt lat="42.47932733029474" lon="11.494120794683246"><ele>125.0</ele><time>2026-04-12T14:50:28.998Z</time></trkpt><trkpt lat="42.47941077596206" lon="11.494244990179425"><ele>125.0</ele><time>2026-04-12T14:50:29.998Z</time></trkpt><trkpt lat="42.479485210174296" lon="11.494371947025897"><ele>125.0</ele><time>2026-04-12T14:50:30.998Z</time></trkpt><trkpt lat="42.47955955368901" lon="11.49449385982206"><ele>125.0</ele><time>2026-04-12T14:50:31.998Z</time></trkpt><trkpt lat="42.47964462925079" lon="11.49461400344667"><ele>125.75</ele><time>2026-04-12T14:50:32.998Z</time></trkpt><trkpt lat="42.479720951043674" lon="11.494754994669425"><ele>126.5</ele><time>2026-04-12T14:50:33.998Z</time></trkpt><trkpt lat="42.47978049508113" lon="11.494903382139379"><ele>127.25</ele><time>2026-04-12T14:50:34.998Z</time></trkpt><trkpt lat="42.47981560183104" lon="11.495058375435189"><ele>128.0</ele><time>2026-04-12T14:50:35.998Z</time></trkpt><trkpt lat="42.47985433636339" lon="11.495222648750364"><ele>128.0</ele><time>2026-04-12T14:50:36.998Z</time></trkpt><trkpt lat="42.47989249712953" lon="11.495376686018533"><ele>128.0</ele><time>2026-04-12T14:50:37.998Z</time></trkpt><trkpt lat="42.479939049375105" lon="11.495530696833285"><ele>128.0</ele><time>2026-04-12T14:50:38.998Z</time></trkpt><trkpt lat="42.47997636064497" lon="11.495687260891088"><ele>128.0</ele><time>2026-04-12T14:50:39.998Z</time></trkpt><trkpt lat="42.47999949121512" lon="11.495825614679182"><ele>127.99999999999999</ele><time>2026-04-12T14:50:40.998Z</time></trkpt><trkpt lat="42.480022733937815" lon="11.495947579989686"><ele>128.0</ele><time>2026-04-12T14:50:41.998Z</time></trkpt><trkpt lat="42.48004873080228" lon="11.496070119906742"><ele>128.0</ele><time>2026-04-12T14:50:42.998Z</time></trkpt><trkpt lat="42.48007454605628" lon="11.496179690203792"><ele>128.0</ele><time>2026-04-12T14:50:43.998Z</time></trkpt><trkpt lat="42.48009877144341" lon="11.496284828343454"><ele>127.99999999999999</ele><time>2026-04-12T14:50:44.998Z</time></trkpt><trkpt lat="42.480140536427086" lon="11.496359887736158"><ele>128.0</ele><time>2026-04-12T14:50:45.998Z</time></trkpt><trkpt lat="42.480178145429456" lon="11.496439608901984"><ele>127.99999999999999</ele><time>2026-04-12T14:50:46.998Z</time></trkpt><trkpt lat="42.480204060953156" lon="11.496541299254512"><ele>128.0</ele><time>2026-04-12T14:50:47.998Z</time></trkpt><trkpt lat="42.48020548336459" lon="11.496659683631348"><ele>128.0</ele><time>2026-04-12T14:50:48.998Z</time></trkpt><trkpt lat="42.48019750490418" lon="11.496780049699574"><ele>128.0</ele><time>2026-04-12T14:50:49.998Z</time></trkpt><trkpt lat="42.480167630134936" lon="11.496896630732504"><ele>127.99999999999999</ele><time>2026-04-12T14:50:50.998Z</time></trkpt><trkpt lat="42.48011248440673" lon="11.49698188239181"><ele>128.0</ele><time>2026-04-12T14:50:51.998Z</time></trkpt><trkpt lat="42.48004847958188" lon="11.497061164314463"><ele>128.83333333333331</ele><time>2026-04-12T14:50:52.998Z</time></trkpt><trkpt lat="42.479989061295" lon="11.497138581933324"><ele>129.66666666666666</ele><time>2026-04-12T14:50:53.998Z</time></trkpt><trkpt lat="42.47994568728456" lon="11.497231073252436"><ele>130.5</ele><time>2026-04-12T14:50:54.998Z</time></trkpt><trkpt lat="42.479910418291674" lon="11.497328184271712"><ele>131.33333333333334</ele><time>2026-04-12T14:50:56Z</time></trkpt><trkpt lat="42.47989693458654" lon="11.497439998952606"><ele>132.16666666666669</ele><time>2026-04-12T14:50:57Z</time></trkpt><trkpt lat="42.479876647293935" lon="11.49756396321462"><ele>133.0</ele><time>2026-04-12T14:50:58Z</time></trkpt><trkpt lat="42.47984913172581" lon="11.49767962335591"><ele>133.0</ele><time>2026-04-12T14:50:59Z</time></trkpt><trkpt lat="42.47981810996494" lon="11.497778111085966"><ele>133.0</ele><time>2026-04-12T14:51:00Z</time></trkpt><trkpt lat="42.47980165163297" lon="11.497890047959737"><ele>133.0</ele><time>2026-04-12T14:51:01Z</time></trkpt><trkpt lat="42.47979633218918" lon="11.498000071442423"><ele>133.0</ele><time>2026-04-12T14:51:02Z</time></trkpt><trkpt lat="42.479792623198534" lon="11.498103932134732"><ele>133.0</ele><time>2026-04-12T14:51:03Z</time></trkpt><trkpt lat="42.47977888552339" lon="11.498197975077815"><ele>133.0</ele><time>2026-04-12T14:51:04Z</time></trkpt><trkpt lat="42.47981769002488" lon="11.49836837334727"><ele>134.20000000000002</ele><time>2026-04-12T14:51:06Z</time></trkpt><trkpt lat="42.47985853631627" lon="11.498459653619667"><ele>135.4</ele><time>2026-04-12T14:51:07Z</time></trkpt><trkpt lat="42.47989220498173" lon="11.498578568633658"><ele>136.60000000000002</ele><time>2026-04-12T14:51:08Z</time></trkpt><trkpt lat="42.47992242140082" lon="11.498687172044642"><ele>137.8</ele><time>2026-04-12T14:51:09Z</time></trkpt><trkpt lat="42.47994577297751" lon="11.498796183499769"><ele>139.0</ele><time>2026-04-12T14:51:10Z</time></trkpt><trkpt lat="42.480013225103896" lon="11.498955490923528"><ele>139.16666666666669</ele><time>2026-04-12T14:51:12Z</time></trkpt><trkpt lat="42.480067076410535" lon="11.499030320841026"><ele>139.33333333333334</ele><time>2026-04-12T14:51:13Z</time></trkpt><trkpt lat="42.48013384622795" lon="11.49909739647932"><ele>139.5</ele><time>2026-04-12T14:51:14Z</time></trkpt><trkpt lat="42.48020418525976" lon="11.499163042709295"><ele>139.66666666666666</ele><time>2026-04-12T14:51:15Z</time></trkpt><trkpt lat="42.48027940620933" lon="11.499231079509835"><ele>139.83333333333331</ele><time>2026-04-12T14:51:15.999Z</time></trkpt><trkpt lat="42.48034912127076" lon="11.499304990712284"><ele>140.0</ele><time>2026-04-12T14:51:16.999Z</time></trkpt><trkpt lat="42.480419196199534" lon="11.499374727568304"><ele>141.0</ele><time>2026-04-12T14:51:17.999Z</time></trkpt><trkpt lat="42.4804753556782" lon="11.49945734194819"><ele>142.0</ele><time>2026-04-12T14:51:18.999Z</time></trkpt><trkpt lat="42.48054159728847" lon="11.49951529197886"><ele>143.0</ele><time>2026-04-12T14:51:19.999Z</time></trkpt><trkpt lat="42.48060152362894" lon="11.499602020883032"><ele>144.0</ele><time>2026-04-12T14:51:20.999Z</time></trkpt><trkpt lat="42.48067580310382" lon="11.499687620294043"><ele>145.0</ele><time>2026-04-12T14:51:21.999Z</time></trkpt><trkpt lat="42.48075444013316" lon="11.499777642689857"><ele>145.8</ele><time>2026-04-12T14:51:22.999Z</time></trkpt><trkpt lat="42.480831507868594" lon="11.499881117262788"><ele>146.6</ele><time>2026-04-12T14:51:23.999Z</time></trkpt><trkpt lat="42.480902120229" lon="11.499986994793263"><ele>147.4</ele><time>2026-04-12T14:51:24.999Z</time></trkpt><trkpt lat="42.48098440207934" lon="11.50008418756319"><ele>148.2</ele><time>2026-04-12T14:51:25.999Z</time></trkpt><trkpt lat="42.48105966405625" lon="11.500182928533432"><ele>149.0</ele><time>2026-04-12T14:51:26.999Z</time></trkpt><trkpt lat="42.48112349921084" lon="11.500280129775879"><ele>149.0</ele><time>2026-04-12T14:51:27.999Z</time></trkpt><trkpt lat="42.481181392086484" lon="11.50038226418043"><ele>149.0</ele><time>2026-04-12T14:51:28.999Z</time></trkpt><trkpt lat="42.481229852049985" lon="11.500492260731766"><ele>149.0</ele><time>2026-04-12T14:51:29.999Z</time></trkpt><trkpt lat="42.48127378498792" lon="11.50060341274832"><ele>149.0</ele><time>2026-04-12T14:51:30.999Z</time></trkpt><trkpt lat="42.48130009122217" lon="11.500718605874056"><ele>149.0</ele><time>2026-04-12T14:51:31.999Z</time></trkpt><trkpt lat="42.481314094457844" lon="11.500827659504688"><ele>150.0</ele><time>2026-04-12T14:51:32.999Z</time></trkpt><trkpt lat="42.48133341986026" lon="11.500945428968457"><ele>151.0</ele><time>2026-04-12T14:51:33.999Z</time></trkpt><trkpt lat="42.481353074415125" lon="11.501067951221017"><ele>152.0</ele><time>2026-04-12T14:51:34.999Z</time></trkpt><trkpt lat="42.481384698082486" lon="11.501187452878131"><ele>153.0</ele><time>2026-04-12T14:51:35.999Z</time></trkpt><trkpt lat="42.48141453987928" lon="11.50131213184927"><ele>154.0</ele><time>2026-04-12T14:51:36.999Z</time></trkpt><trkpt lat="42.48144345237752" lon="11.501428669156128"><ele>154.57142857142858</ele><time>2026-04-12T14:51:37.999Z</time></trkpt><trkpt lat="42.48146308674083" lon="11.501528393774127"><ele>155.14285714285714</ele><time>2026-04-12T14:51:38.999Z</time></trkpt><trkpt lat="42.481478148303054" lon="11.501621387826521"><ele>155.71428571428572</ele><time>2026-04-12T14:51:39.999Z</time></trkpt><trkpt lat="42.48150101194337" lon="11.501721821883663"><ele>156.28571428571428</ele><time>2026-04-12T14:51:40.999Z</time></trkpt><trkpt lat="42.48153566297538" lon="11.501810270365668"><ele>156.85714285714286</ele><time>2026-04-12T14:51:41.999Z</time></trkpt><trkpt lat="42.481593604056386" lon="11.501869219363915"><ele>157.42857142857144</ele><time>2026-04-12T14:51:42.999Z</time></trkpt><trkpt lat="42.481664606311675" lon="11.501912822889713"><ele>158.0</ele><time>2026-04-12T14:51:43.999Z</time></trkpt><trkpt lat="42.48174614761335" lon="11.50193734456785"><ele>158.0</ele><time>2026-04-12T14:51:44.999Z</time></trkpt><trkpt lat="42.48182452580621" lon="11.50193795625134"><ele>158.0</ele><time>2026-04-12T14:51:45.999Z</time></trkpt><trkpt lat="42.48188449150937" lon="11.50191185367281"><ele>158.0</ele><time>2026-04-12T14:51:46.999Z</time></trkpt><trkpt lat="42.48196606943577" lon="11.501764694698325"><ele>158.0</ele><time>2026-04-12T14:51:48.999Z</time></trkpt><trkpt lat="42.48199617409587" lon="11.50167463138191"><ele>158.0</ele><time>2026-04-12T14:51:49.999Z</time></trkpt><trkpt lat="42.482031971229716" lon="11.501557716924399"><ele>158.0</ele><time>2026-04-12T14:51:50.999Z</time></trkpt><trkpt lat="42.48206588257441" lon="11.501446232265039"><ele>158.0</ele><time>2026-04-12T14:51:51.999Z</time></trkpt><trkpt lat="42.48209732983718" lon="11.501351726279658"><ele>158.0</ele><time>2026-04-12T14:51:52.999Z</time></trkpt><trkpt lat="42.48213925096808" lon="11.501285121823718"><ele>158.0</ele><time>2026-04-12T14:51:53.999Z</time></trkpt><trkpt lat="42.482251120820635" lon="11.50124307219444"><ele>158.0</ele><time>2026-04-12T14:51:55.999Z</time></trkpt><trkpt lat="42.482355101174406" lon="11.501326494393885"><ele>158.0</ele><time>2026-04-12T14:51:57.999Z</time></trkpt><trkpt lat="42.48239478622471" lon="11.501409897349752"><ele>159.2</ele><time>2026-04-12T14:51:58.999Z</time></trkpt><trkpt lat="42.48244430164768" lon="11.501490468650825"><ele>160.4</ele><time>2026-04-12T14:51:59.999Z</time></trkpt><trkpt lat="42.48249211610016" lon="11.501563833513956"><ele>161.6</ele><time>2026-04-12T14:52:00.999Z</time></trkpt><trkpt lat="42.48256832049429" lon="11.501676581219675"><ele>162.79999999999998</ele><time>2026-04-12T14:52:02.999Z</time></trkpt><trkpt lat="42.48267018535054" lon="11.501766745738589"><ele>164.0</ele><time>2026-04-12T14:52:04.999Z</time></trkpt><trkpt lat="42.48279966251674" lon="11.501832014025764"><ele>164.0</ele><time>2026-04-12T14:52:06.999Z</time></trkpt><trkpt lat="42.48286257181609" lon="11.50186224953161"><ele>164.0</ele><time>2026-04-12T14:52:07.999Z</time></trkpt><trkpt lat="42.48292619594482" lon="11.501913331721731"><ele>164.0</ele><time>2026-04-12T14:52:08.999Z</time></trkpt><trkpt lat="42.48298062748604" lon="11.501979236648545"><ele>164.0</ele><time>2026-04-12T14:52:09.999Z</time></trkpt><trkpt lat="42.483030311770335" lon="11.502055058071115"><ele>164.0</ele><time>2026-04-12T14:52:10.999Z</time></trkpt><trkpt lat="42.48311375549737" lon="11.502164182235825"><ele>164.0</ele><time>2026-04-12T14:52:12.999Z</time></trkpt><trkpt lat="42.48313444262478" lon="11.502301518282389"><ele>165.33333333333331</ele><time>2026-04-12T14:52:14.999Z</time></trkpt><trkpt lat="42.483135654725515" lon="11.502387343576286"><ele>166.66666666666666</ele><time>2026-04-12T14:52:15.999Z</time></trkpt><trkpt lat="42.48315092031437" lon="11.5024715339347"><ele>168.0</ele><time>2026-04-12T14:52:16.999Z</time></trkpt><trkpt lat="42.483176235632236" lon="11.502561458650614"><ele>169.33333333333334</ele><time>2026-04-12T14:52:17.999Z</time></trkpt><trkpt lat="42.48321692808274" lon="11.502658803687375"><ele>170.66666666666669</ele><time>2026-04-12T14:52:18.999Z</time></trkpt><trkpt lat="42.48326077486713" lon="11.502761273289162"><ele>172.0</ele><time>2026-04-12T14:52:19.999Z</time></trkpt><trkpt lat="42.48330398285873" lon="11.502861330023002"><ele>174.39999999999998</ele><time>2026-04-12T14:52:20.999Z</time></trkpt><trkpt lat="42.483360514832505" lon="11.50295614324329"><ele>176.79999999999998</ele><time>2026-04-12T14:52:21.999Z</time></trkpt><trkpt lat="42.48341908384211" lon="11.503043454846472"><ele>179.2</ele><time>2026-04-12T14:52:22.999Z</time></trkpt><trkpt lat="42.48349015414335" lon="11.503108521566451"><ele>181.6</ele><time>2026-04-12T14:52:23.999Z</time></trkpt><trkpt lat="42.483554107772875" lon="11.50316215466665"><ele>184.0</ele><time>2026-04-12T14:52:24.999Z</time></trkpt><trkpt lat="42.48361430076448" lon="11.503297092898867"><ele>184.0</ele><time>2026-04-12T14:52:26.999Z</time></trkpt><trkpt lat="42.48370555883974" lon="11.503461370220226"><ele>184.0</ele><time>2026-04-12T14:52:28.999Z</time></trkpt><trkpt lat="42.483767450593035" lon="11.503534556488265"><ele>184.0</ele><time>2026-04-12T14:52:29.999Z</time></trkpt><trkpt lat="42.48383704078383" lon="11.503590612433019"><ele>184.0</ele><time>2026-04-12T14:52:30.999Z</time></trkpt><trkpt lat="42.483899440193234" lon="11.503646893920827"><ele>184.0</ele><time>2026-04-12T14:52:31.999Z</time></trkpt><trkpt lat="42.48396616806704" lon="11.50371431421395"><ele>184.66666666666669</ele><time>2026-04-12T14:52:32.999Z</time></trkpt><trkpt lat="42.484025308019355" lon="11.50376162485658"><ele>185.33333333333334</ele><time>2026-04-12T14:52:33.999Z</time></trkpt><trkpt lat="42.484087901830954" lon="11.503813490568806"><ele>186.0</ele><time>2026-04-12T14:52:34.999Z</time></trkpt><trkpt lat="42.48415263834847" lon="11.503863628873178"><ele>186.66666666666666</ele><time>2026-04-12T14:52:35.999Z</time></trkpt><trkpt lat="42.484213137377225" lon="11.503937697572127"><ele>187.33333333333331</ele><time>2026-04-12T14:52:36.999Z</time></trkpt><trkpt lat="42.484266461512675" lon="11.504020354931317"><ele>188.0</ele><time>2026-04-12T14:52:37.999Z</time></trkpt><trkpt lat="42.48431617050948" lon="11.50409240973072"><ele>188.0</ele><time>2026-04-12T14:52:38.998Z</time></trkpt><trkpt lat="42.484362184526844" lon="11.504172181490546"><ele>188.0</ele><time>2026-04-12T14:52:39.998Z</time></trkpt><trkpt lat="42.48440228358185" lon="11.504244061361769"><ele>188.0</ele><time>2026-04-12T14:52:40.998Z</time></trkpt><trkpt lat="42.48443111983287" lon="11.50432726815683"><ele>188.0</ele><time>2026-04-12T14:52:41.998Z</time></trkpt><trkpt lat="42.484455144885494" lon="11.504413180720393"><ele>188.0</ele><time>2026-04-12T14:52:42.998Z</time></trkpt><trkpt lat="42.48448186396598" lon="11.504516728846518"><ele>188.0</ele><time>2026-04-12T14:52:43.998Z</time></trkpt><trkpt lat="42.48452266446093" lon="11.504608135767867"><ele>188.0</ele><time>2026-04-12T14:52:44.998Z</time></trkpt><trkpt lat="42.48456897137237" lon="11.504699825895486"><ele>188.0</ele><time>2026-04-12T14:52:45.998Z</time></trkpt><trkpt lat="42.48461572918296" lon="11.504818204487341"><ele>188.0</ele><time>2026-04-12T14:52:46.998Z</time></trkpt><trkpt lat="42.48465979664764" lon="11.504946961718042"><ele>188.0</ele><time>2026-04-12T14:52:47.998Z</time></trkpt><trkpt lat="42.484705169723426" lon="11.505072557400835"><ele>188.0</ele><time>2026-04-12T14:52:48.998Z</time></trkpt><trkpt lat="42.48474486264635" lon="11.505192452636328"><ele>188.0</ele><time>2026-04-12T14:52:49.998Z</time></trkpt><trkpt lat="42.48479360062721" lon="11.505302035746034"><ele>189.2</ele><time>2026-04-12T14:52:50.998Z</time></trkpt><trkpt lat="42.48484806557291" lon="11.505420805534436"><ele>190.4</ele><time>2026-04-12T14:52:51.998Z</time></trkpt><trkpt lat="42.48489920114564" lon="11.505537463830253"><ele>191.6</ele><time>2026-04-12T14:52:52.998Z</time></trkpt><trkpt lat="42.48495071588367" lon="11.505649892923376"><ele>192.79999999999998</ele><time>2026-04-12T14:52:53.998Z</time></trkpt><trkpt lat="42.485000943644145" lon="11.505747781315884"><ele>194.0</ele><time>2026-04-12T14:52:54.998Z</time></trkpt><trkpt lat="42.48505275675788" lon="11.505843146643382"><ele>194.00000000000003</ele><time>2026-04-12T14:52:55.998Z</time></trkpt><trkpt lat="42.48510789340972" lon="11.505924394873388"><ele>194.0</ele><time>2026-04-12T14:52:56.998Z</time></trkpt><trkpt lat="42.48516981256122" lon="11.505990640926463"><ele>194.0</ele><time>2026-04-12T14:52:57.998Z</time></trkpt><trkpt lat="42.485242539290546" lon="11.506038514420563"><ele>194.0</ele><time>2026-04-12T14:52:58.998Z</time></trkpt><trkpt lat="42.485317326207486" lon="11.506058526855771"><ele>194.00000000000003</ele><time>2026-04-12T14:52:59.998Z</time></trkpt><trkpt lat="42.48540498429684" lon="11.506062889851803"><ele>194.0</ele><time>2026-04-12T14:53:00.998Z</time></trkpt><trkpt lat="42.48548773297034" lon="11.50605843171309"><ele>194.28571428571428</ele><time>2026-04-12T14:53:02Z</time></trkpt><trkpt lat="42.48555886949982" lon="11.506071883965479"><ele>194.57142857142858</ele><time>2026-04-12T14:53:03Z</time></trkpt><trkpt lat="42.48562090332502" lon="11.506111740915655"><ele>194.85714285714286</ele><time>2026-04-12T14:53:04Z</time></trkpt><trkpt lat="42.485673301737556" lon="11.506172677486825"><ele>195.14285714285714</ele><time>2026-04-12T14:53:05Z</time></trkpt><trkpt lat="42.48573338927002" lon="11.506237846959497"><ele>195.42857142857144</ele><time>2026-04-12T14:53:06Z</time></trkpt><trkpt lat="42.4857951330612" lon="11.506303089980642"><ele>195.71428571428572</ele><time>2026-04-12T14:53:07Z</time></trkpt><trkpt lat="42.48584787419158" lon="11.506364283982006"><ele>196.0</ele><time>2026-04-12T14:53:08Z</time></trkpt><trkpt lat="42.48589212861439" lon="11.506437438914775"><ele>195.99999999999997</ele><time>2026-04-12T14:53:09Z</time></trkpt><trkpt lat="42.48591456227573" lon="11.506523894900251"><ele>196.0</ele><time>2026-04-12T14:53:10Z</time></trkpt><trkpt lat="42.48592752163807" lon="11.506624943464036"><ele>196.0</ele><time>2026-04-12T14:53:11Z</time></trkpt><trkpt lat="42.485930641483584" lon="11.506739747525343"><ele>196.0</ele><time>2026-04-12T14:53:12Z</time></trkpt><trkpt lat="42.48590907463924" lon="11.5068442894556"><ele>195.99999999999997</ele><time>2026-04-12T14:53:13Z</time></trkpt><trkpt lat="42.485872713666986" lon="11.506953633201578"><ele>196.0</ele><time>2026-04-12T14:53:14Z</time></trkpt><trkpt lat="42.485845491185906" lon="11.507060141055893"><ele>196.28571428571428</ele><time>2026-04-12T14:53:15Z</time></trkpt><trkpt lat="42.4858299822619" lon="11.50715039221006"><ele>196.57142857142856</ele><time>2026-04-12T14:53:16Z</time></trkpt><trkpt lat="42.48583177289064" lon="11.507239121012717"><ele>196.85714285714286</ele><time>2026-04-12T14:53:17Z</time></trkpt><trkpt lat="42.48585550765631" lon="11.507332487048176"><ele>197.14285714285714</ele><time>2026-04-12T14:53:18Z</time></trkpt><trkpt lat="42.48589450803134" lon="11.50741255895044"><ele>197.42857142857142</ele><time>2026-04-12T14:53:19Z</time></trkpt><trkpt lat="42.48595365096745" lon="11.507485855242116"><ele>197.71428571428572</ele><time>2026-04-12T14:53:20Z</time></trkpt><trkpt lat="42.48601859281087" lon="11.507529487489322"><ele>198.0</ele><time>2026-04-12T14:53:21Z</time></trkpt><trkpt lat="42.48609589552727" lon="11.507565743508895"><ele>198.0</ele><time>2026-04-12T14:53:22Z</time></trkpt><trkpt lat="42.48617684937357" lon="11.507594636184733"><ele>198.0</ele><time>2026-04-12T14:53:23Z</time></trkpt><trkpt lat="42.486259925411005" lon="11.507631916305225"><ele>198.0</ele><time>2026-04-12T14:53:24Z</time></trkpt><trkpt lat="42.486330559299866" lon="11.507665098447827"><ele>198.0</ele><time>2026-04-12T14:53:24.999Z</time></trkpt><trkpt lat="42.48640171220019" lon="11.507701880461411"><ele>198.0</ele><time>2026-04-12T14:53:25.999Z</time></trkpt><trkpt lat="42.48647446471647" lon="11.50773892232742"><ele>198.0</ele><time>2026-04-12T14:53:26.999Z</time></trkpt><trkpt lat="42.48655321327349" lon="11.507766255592134"><ele>199.0</ele><time>2026-04-12T14:53:27.999Z</time></trkpt><trkpt lat="42.48663268695495" lon="11.507773758280232"><ele>200.0</ele><time>2026-04-12T14:53:28.999Z</time></trkpt><trkpt lat="42.48670812432124" lon="11.50776411694801"><ele>201.0</ele><time>2026-04-12T14:53:29.999Z</time></trkpt><trkpt lat="42.48677367843622" lon="11.507765816436091"><ele>202.0</ele><time>2026-04-12T14:53:30.999Z</time></trkpt><trkpt lat="42.48683151595546" lon="11.507808976033637"><ele>203.0</ele><time>2026-04-12T14:53:31.999Z</time></trkpt><trkpt lat="42.48688070683578" lon="11.507888259746135"><ele>204.0</ele><time>2026-04-12T14:53:32.999Z</time></trkpt><trkpt lat="42.48691627406907" lon="11.507990368200938"><ele>205.0</ele><time>2026-04-12T14:53:33.999Z</time></trkpt><trkpt lat="42.486948016318756" lon="11.508101384987233"><ele>205.66666666666666</ele><time>2026-04-12T14:53:34.999Z</time></trkpt><trkpt lat="42.486987901102324" lon="11.508209904729888"><ele>206.33333333333331</ele><time>2026-04-12T14:53:35.999Z</time></trkpt><trkpt lat="42.4870319983124" lon="11.508287746543296"><ele>207.0</ele><time>2026-04-12T14:53:36.999Z</time></trkpt><trkpt lat="42.48709278414623" lon="11.508346965524586"><ele>207.66666666666669</ele><time>2026-04-12T14:53:37.999Z</time></trkpt><trkpt lat="42.48716483115737" lon="11.508375598608882"><ele>208.33333333333334</ele><time>2026-04-12T14:53:38.999Z</time></trkpt><trkpt lat="42.487250359376766" lon="11.508407343323347"><ele>209.0</ele><time>2026-04-12T14:53:39.999Z</time></trkpt><trkpt lat="42.487335473727434" lon="11.508457189555944"><ele>210.39999999999998</ele><time>2026-04-12T14:53:40.999Z</time></trkpt><trkpt lat="42.48742319170396" lon="11.508503180864514"><ele>211.8</ele><time>2026-04-12T14:53:41.999Z</time></trkpt><trkpt lat="42.48751366568963" lon="11.508534278571107"><ele>213.20000000000002</ele><time>2026-04-12T14:53:42.999Z</time></trkpt><trkpt lat="42.4875954137044" lon="11.508558459543805"><ele>214.60000000000002</ele><time>2026-04-12T14:53:43.999Z</time></trkpt><trkpt lat="42.487682134586535" lon="11.508608166466153"><ele>216.0</ele><time>2026-04-12T14:53:44.999Z</time></trkpt><trkpt lat="42.4877547766957" lon="11.508683491028075"><ele>215.4</ele><time>2026-04-12T14:53:45.999Z</time></trkpt><trkpt lat="42.487823079773875" lon="11.508783457323036"><ele>214.8</ele><time>2026-04-12T14:53:46.999Z</time></trkpt><trkpt lat="42.48788715028552" lon="11.50889260385027"><ele>214.20000000000002</ele><time>2026-04-12T14:53:47.999Z</time></trkpt><trkpt lat="42.48795606449179" lon="11.509010334702124"><ele>213.60000000000002</ele><time>2026-04-12T14:53:48.999Z</time></trkpt><trkpt lat="42.48803540865332" lon="11.509108651061014"><ele>213.0</ele><time>2026-04-12T14:53:49.999Z</time></trkpt><trkpt lat="42.48813470700234" lon="11.509194298178654"><ele>214.5</ele><time>2026-04-12T14:53:50.999Z</time></trkpt><trkpt lat="42.4882315299937" lon="11.509265289533158"><ele>216.0</ele><time>2026-04-12T14:53:51.999Z</time></trkpt><trkpt lat="42.488322596148926" lon="11.509347125501966"><ele>217.5</ele><time>2026-04-12T14:53:52.999Z</time></trkpt><trkpt lat="42.48840816950513" lon="11.509434431590575"><ele>219.0</ele><time>2026-04-12T14:53:53.999Z</time></trkpt><trkpt lat="42.4885124900751" lon="11.509528393349433"><ele>219.2</ele><time>2026-04-12T14:53:54.999Z</time></trkpt><trkpt lat="42.488601728318734" lon="11.50961589104039"><ele>219.39999999999998</ele><time>2026-04-12T14:53:55.999Z</time></trkpt><trkpt lat="42.48868932124076" lon="11.50968333120528"><ele>219.6</ele><time>2026-04-12T14:53:56.999Z</time></trkpt><trkpt lat="42.48877723297961" lon="11.50973686379775"><ele>219.8</ele><time>2026-04-12T14:53:57.999Z</time></trkpt><trkpt lat="42.488867185418705" lon="11.509810151221306"><ele>220.0</ele><time>2026-04-12T14:53:58.999Z</time></trkpt><trkpt lat="42.48896792066115" lon="11.509911824048288"><ele>220.16666666666666</ele><time>2026-04-12T14:53:59.999Z</time></trkpt><trkpt lat="42.489044093568346" lon="11.51001213401815"><ele>220.33333333333331</ele><time>2026-04-12T14:54:00.999Z</time></trkpt><trkpt lat="42.489113877868576" lon="11.51009250306004"><ele>220.5</ele><time>2026-04-12T14:54:01.999Z</time></trkpt><trkpt lat="42.48918133562237" lon="11.51015960457349"><ele>220.66666666666669</ele><time>2026-04-12T14:54:02.999Z</time></trkpt><trkpt lat="42.48923149443503" lon="11.51023650496941"><ele>220.83333333333334</ele><time>2026-04-12T14:54:03.999Z</time></trkpt><trkpt lat="42.48927742952729" lon="11.510339914314985"><ele>221.0</ele><time>2026-04-12T14:54:04.999Z</time></trkpt><trkpt lat="42.48932159764846" lon="11.510470109132452"><ele>221.0</ele><time>2026-04-12T14:54:05.999Z</time></trkpt><trkpt lat="42.48937223117722" lon="11.510608521116128"><ele>221.00000000000003</ele><time>2026-04-12T14:54:06.999Z</time></trkpt><trkpt lat="42.48942659953" lon="11.510736633908827"><ele>221.00000000000003</ele><time>2026-04-12T14:54:07.999Z</time></trkpt><trkpt lat="42.489486167295716" lon="11.510846644566609"><ele>221.0</ele><time>2026-04-12T14:54:08.999Z</time></trkpt><trkpt lat="42.489543566071326" lon="11.510951852598811"><ele>221.0</ele><time>2026-04-12T14:54:09.999Z</time></trkpt><trkpt lat="42.489608862292435" lon="11.511052731318133"><ele>219.0</ele><time>2026-04-12T14:54:10.999Z</time></trkpt><trkpt lat="42.48967273194756" lon="11.511159377701917"><ele>217.00000000000003</ele><time>2026-04-12T14:54:11.999Z</time></trkpt><trkpt lat="42.48973513190138" lon="11.511258944923549"><ele>215.0</ele><time>2026-04-12T14:54:12.999Z</time></trkpt><trkpt lat="42.48979860446202" lon="11.511353116072726"><ele>213.0</ele><time>2026-04-12T14:54:13.999Z</time></trkpt><trkpt lat="42.48985185101596" lon="11.511451108695358"><ele>211.0</ele><time>2026-04-12T14:54:14.999Z</time></trkpt><trkpt lat="42.489903184781326" lon="11.511548572457801"><ele>211.0</ele><time>2026-04-12T14:54:15.999Z</time></trkpt><trkpt lat="42.48995054733763" lon="11.511649516790573"><ele>211.0</ele><time>2026-04-12T14:54:16.999Z</time></trkpt><trkpt lat="42.48999277831382" lon="11.511742453930218"><ele>211.0</ele><time>2026-04-12T14:54:17.999Z</time></trkpt><trkpt lat="42.49003779110057" lon="11.511833239309691"><ele>211.0</ele><time>2026-04-12T14:54:18.999Z</time></trkpt><trkpt lat="42.49009997595473" lon="11.51193557945612"><ele>211.0</ele><time>2026-04-12T14:54:19.999Z</time></trkpt><trkpt lat="42.4901822444487" lon="11.512021602784753"><ele>210.16666666666666</ele><time>2026-04-12T14:54:20.999Z</time></trkpt><trkpt lat="42.49024764649726" lon="11.512102491594527"><ele>209.33333333333331</ele><time>2026-04-12T14:54:21.999Z</time></trkpt><trkpt lat="42.490313074050064" lon="11.512161258191615"><ele>208.5</ele><time>2026-04-12T14:54:22.999Z</time></trkpt><trkpt lat="42.49038433820156" lon="11.51219519507236"><ele>207.66666666666669</ele><time>2026-04-12T14:54:23.999Z</time></trkpt><trkpt lat="42.49046648376137" lon="11.51221030819861"><ele>206.83333333333334</ele><time>2026-04-12T14:54:24.999Z</time></trkpt><trkpt lat="42.49054295468708" lon="11.512212628323852"><ele>206.0</ele><time>2026-04-12T14:54:25.999Z</time></trkpt><trkpt lat="42.490622035449526" lon="11.512216866369142"><ele>206.00000000000003</ele><time>2026-04-12T14:54:26.999Z</time></trkpt><trkpt lat="42.49070489486373" lon="11.512210447161701"><ele>206.0</ele><time>2026-04-12T14:54:27.999Z</time></trkpt><trkpt lat="42.49078209774434" lon="11.512183462434969"><ele>206.0</ele><time>2026-04-12T14:54:28.999Z</time></trkpt><trkpt lat="42.49085471702438" lon="11.512191593274007"><ele>206.0</ele><time>2026-04-12T14:54:29.999Z</time></trkpt><trkpt lat="42.490932376564395" lon="11.5122093373716"><ele>206.00000000000003</ele><time>2026-04-12T14:54:30.999Z</time></trkpt><trkpt lat="42.491032090359475" lon="11.512224687063673"><ele>206.0</ele><time>2026-04-12T14:54:31.999Z</time></trkpt><trkpt lat="42.49113147109807" lon="11.512229518554184"><ele>206.0</ele><time>2026-04-12T14:54:32.999Z</time></trkpt><trkpt lat="42.49122885388951" lon="11.512245693794664"><ele>206.0</ele><time>2026-04-12T14:54:33.999Z</time></trkpt><trkpt lat="42.49133154916712" lon="11.51226755535294"><ele>206.0</ele><time>2026-04-12T14:54:34.999Z</time></trkpt><trkpt lat="42.49143531142713" lon="11.51228004765406"><ele>206.0</ele><time>2026-04-12T14:54:35.999Z</time></trkpt><trkpt lat="42.49153142042895" lon="11.512293271362555"><ele>206.0</ele><time>2026-04-12T14:54:36.999Z</time></trkpt><trkpt lat="42.49162220250304" lon="11.51230448804714"><ele>206.4</ele><time>2026-04-12T14:54:37.999Z</time></trkpt><trkpt lat="42.49171404237973" lon="11.512325103405395"><ele>206.8</ele><time>2026-04-12T14:54:38.999Z</time></trkpt><trkpt lat="42.49180755802548" lon="11.512364794459188"><ele>207.20000000000002</ele><time>2026-04-12T14:54:39.999Z</time></trkpt><trkpt lat="42.49189617019358" lon="11.512416393826456"><ele>207.60000000000002</ele><time>2026-04-12T14:54:40.999Z</time></trkpt><trkpt lat="42.49198083488349" lon="11.51247335146637"><ele>208.0</ele><time>2026-04-12T14:54:41.999Z</time></trkpt><trkpt lat="42.49206956442929" lon="11.51251663488499"><ele>209.0</ele><time>2026-04-12T14:54:42.999Z</time></trkpt><trkpt lat="42.49215951280847" lon="11.512544804989023"><ele>210.0</ele><time>2026-04-12T14:54:43.998Z</time></trkpt><trkpt lat="42.492249043643184" lon="11.512564179741894"><ele>211.0</ele><time>2026-04-12T14:54:44.998Z</time></trkpt><trkpt lat="42.492343358007346" lon="11.512578699656485"><ele>212.0</ele><time>2026-04-12T14:54:45.998Z</time></trkpt><trkpt lat="42.49243622456503" lon="11.512596466315452"><ele>213.0</ele><time>2026-04-12T14:54:46.998Z</time></trkpt><trkpt lat="42.49252268302632" lon="11.512616460072818"><ele>213.0</ele><time>2026-04-12T14:54:47.998Z</time></trkpt><trkpt lat="42.49261864878692" lon="11.512626077023928"><ele>213.0</ele><time>2026-04-12T14:54:48.998Z</time></trkpt><trkpt lat="42.49271310247926" lon="11.512632435405731"><ele>213.0</ele><time>2026-04-12T14:54:49.998Z</time></trkpt><trkpt lat="42.49280207218902" lon="11.512647998605733"><ele>213.0</ele><time>2026-04-12T14:54:50.998Z</time></trkpt><trkpt lat="42.49288855547643" lon="11.512676752992435"><ele>213.0</ele><time>2026-04-12T14:54:51.998Z</time></trkpt><trkpt lat="42.49296956049614" lon="11.512720095362148"><ele>213.33333333333334</ele><time>2026-04-12T14:54:52.998Z</time></trkpt><trkpt lat="42.49305465561025" lon="11.512781701243632"><ele>213.66666666666669</ele><time>2026-04-12T14:54:53.998Z</time></trkpt><trkpt lat="42.49313365799685" lon="11.512844370585684"><ele>214.0</ele><time>2026-04-12T14:54:54.998Z</time></trkpt><trkpt lat="42.49321673794001" lon="11.51290242317439"><ele>214.33333333333334</ele><time>2026-04-12T14:54:55.998Z</time></trkpt><trkpt lat="42.493292907631336" lon="11.512954451004534"><ele>214.66666666666669</ele><time>2026-04-12T14:54:56.998Z</time></trkpt><trkpt lat="42.49336355230653" lon="11.5130057858094"><ele>215.0</ele><time>2026-04-12T14:54:57.998Z</time></trkpt><trkpt lat="42.49343036873586" lon="11.513033175591502"><ele>215.50000000000003</ele><time>2026-04-12T14:54:58.998Z</time></trkpt><trkpt lat="42.49349444431023" lon="11.513070619726674"><ele>216.0</ele><time>2026-04-12T14:54:59.998Z</time></trkpt><trkpt lat="42.4935567483451" lon="11.51313053486358"><ele>216.5</ele><time>2026-04-12T14:55:00.998Z</time></trkpt><trkpt lat="42.49362141811285" lon="11.513202271807902"><ele>217.0</ele><time>2026-04-12T14:55:01.998Z</time></trkpt><trkpt lat="42.49368525015341" lon="11.51327611309966"><ele>217.50000000000003</ele><time>2026-04-12T14:55:02.998Z</time></trkpt><trkpt lat="42.493751972771136" lon="11.513348295541105"><ele>218.0</ele><time>2026-04-12T14:55:03.998Z</time></trkpt><trkpt lat="42.49381862590952" lon="11.513421698271015"><ele>218.00000000000003</ele><time>2026-04-12T14:55:04.998Z</time></trkpt><trkpt lat="42.49388366380495" lon="11.513499933694197"><ele>218.0</ele><time>2026-04-12T14:55:05.998Z</time></trkpt><trkpt lat="42.49394080372923" lon="11.513565958043303"><ele>218.0</ele><time>2026-04-12T14:55:06.998Z</time></trkpt><trkpt lat="42.49399383830947" lon="11.513636495793655"><ele>218.0</ele><time>2026-04-12T14:55:08Z</time></trkpt><trkpt lat="42.49405149770273" lon="11.513709078001261"><ele>218.00000000000003</ele><time>2026-04-12T14:55:09Z</time></trkpt><trkpt lat="42.49411562135402" lon="11.51377998628975"><ele>218.0</ele><time>2026-04-12T14:55:10Z</time></trkpt><trkpt lat="42.4941817177561" lon="11.513854435142951"><ele>218.00000000000003</ele><time>2026-04-12T14:55:11Z</time></trkpt><trkpt lat="42.494253845708634" lon="11.513932506433724"><ele>218.0</ele><time>2026-04-12T14:55:12Z</time></trkpt><trkpt lat="42.49431868387511" lon="11.514003452714617"><ele>218.0</ele><time>2026-04-12T14:55:13Z</time></trkpt><trkpt lat="42.49438928035801" lon="11.514077687586896"><ele>218.0</ele><time>2026-04-12T14:55:14Z</time></trkpt><trkpt lat="42.494463189231126" lon="11.514148913227286"><ele>218.00000000000003</ele><time>2026-04-12T14:55:15Z</time></trkpt><trkpt lat="42.494537905186014" lon="11.514223342595795"><ele>218.0</ele><time>2026-04-12T14:55:16Z</time></trkpt><trkpt lat="42.494621537332115" lon="11.51430151597415"><ele>218.0</ele><time>2026-04-12T14:55:17Z</time></trkpt><trkpt lat="42.494636866514035" lon="11.514476166016792"><ele>218.0</ele><time>2026-04-12T14:55:18Z</time></trkpt><trkpt lat="42.49471996005406" lon="11.514541025566947"><ele>218.0</ele><time>2026-04-12T14:55:19Z</time></trkpt><trkpt lat="42.49481698965696" lon="11.514569340856935"><ele>218.0</ele><time>2026-04-12T14:55:20Z</time></trkpt><trkpt lat="42.49488159593733" lon="11.514594322430437"><ele>218.0</ele><time>2026-04-12T14:55:21Z</time></trkpt><trkpt lat="42.494947540944715" lon="11.514622269804311"><ele>218.2</ele><time>2026-04-12T14:55:22Z</time></trkpt><trkpt lat="42.49501605521841" lon="11.514653308482394"><ele>218.4</ele><time>2026-04-12T14:55:23Z</time></trkpt><trkpt lat="42.495123563990695" lon="11.514726863704299"><ele>218.59999999999997</ele><time>2026-04-12T14:55:25Z</time></trkpt><trkpt lat="42.49520476346419" lon="11.514750193907998"><ele>218.79999999999998</ele><time>2026-04-12T14:55:26Z</time></trkpt><trkpt lat="42.49529039446426" lon="11.514791835005036"><ele>219.0</ele><time>2026-04-12T14:55:27Z</time></trkpt><trkpt lat="42.49537802791091" lon="11.514829836784607"><ele>219.6</ele><time>2026-04-12T14:55:28Z</time></trkpt><trkpt lat="42.4954701817996" lon="11.514875887253188"><ele>220.2</ele><time>2026-04-12T14:55:28.999Z</time></trkpt><trkpt lat="42.49556515061709" lon="11.514920916905234"><ele>220.79999999999998</ele><time>2026-04-12T14:55:29.999Z</time></trkpt><trkpt lat="42.49565341572984" lon="11.514967989348403"><ele>221.39999999999998</ele><time>2026-04-12T14:55:30.999Z</time></trkpt><trkpt lat="42.495741655727144" lon="11.51502562559793"><ele>222.0</ele><time>2026-04-12T14:55:31.999Z</time></trkpt><trkpt lat="42.49582414633904" lon="11.515080828967166"><ele>222.0</ele><time>2026-04-12T14:55:32.999Z</time></trkpt><trkpt lat="42.49591050197979" lon="11.515127109027176"><ele>222.0</ele><time>2026-04-12T14:55:33.999Z</time></trkpt><trkpt lat="42.49599266903847" lon="11.515175237125272"><ele>222.0</ele><time>2026-04-12T14:55:34.999Z</time></trkpt><trkpt lat="42.49606449795109" lon="11.515223805514873"><ele>222.0</ele><time>2026-04-12T14:55:35.999Z</time></trkpt><trkpt lat="42.4961262048863" lon="11.515256725043455"><ele>222.0</ele><time>2026-04-12T14:55:36.999Z</time></trkpt><trkpt lat="42.49619349160789" lon="11.515277851913751"><ele>222.0</ele><time>2026-04-12T14:55:37.999Z</time></trkpt><trkpt lat="42.49626712617915" lon="11.515275043080083"><ele>222.33333333333334</ele><time>2026-04-12T14:55:38.999Z</time></trkpt><trkpt lat="42.496343957445916" lon="11.51525895917065"><ele>222.66666666666669</ele><time>2026-04-12T14:55:39.999Z</time></trkpt><trkpt lat="42.49640934053183" lon="11.51522640535169"><ele>223.0</ele><time>2026-04-12T14:55:40.999Z</time></trkpt><trkpt lat="42.49647373554385" lon="11.515198270662498"><ele>223.33333333333334</ele><time>2026-04-12T14:55:41.999Z</time></trkpt><trkpt lat="42.496557753902515" lon="11.515170135650266"><ele>223.66666666666669</ele><time>2026-04-12T14:55:42.999Z</time></trkpt><trkpt lat="42.49663618034851" lon="11.515148922635563"><ele>224.0</ele><time>2026-04-12T14:55:43.999Z</time></trkpt><trkpt lat="42.49671800136982" lon="11.515123844055157"><ele>224.00000000000003</ele><time>2026-04-12T14:55:44.999Z</time></trkpt><trkpt lat="42.49680092974137" lon="11.515106700433844"><ele>224.0</ele><time>2026-04-12T14:55:45.999Z</time></trkpt><trkpt lat="42.496888572022065" lon="11.515103513396648"><ele>224.0</ele><time>2026-04-12T14:55:46.999Z</time></trkpt><trkpt lat="42.49698032906246" lon="11.515098982641407"><ele>224.0</ele><time>2026-04-12T14:55:47.999Z</time></trkpt><trkpt lat="42.49706824153886" lon="11.515108615859104"><ele>224.00000000000003</ele><time>2026-04-12T14:55:48.999Z</time></trkpt><trkpt lat="42.497161645070456" lon="11.51510719592081"><ele>224.0</ele><time>2026-04-12T14:55:49.999Z</time></trkpt><trkpt lat="42.497246572162354" lon="11.51508690909906"><ele>224.33333333333334</ele><time>2026-04-12T14:55:50.999Z</time></trkpt><trkpt lat="42.49731471020837" lon="11.515063644470493"><ele>224.66666666666669</ele><time>2026-04-12T14:55:51.999Z</time></trkpt><trkpt lat="42.49737955029011" lon="11.515044906258774"><ele>225.0</ele><time>2026-04-12T14:55:52.999Z</time></trkpt><trkpt lat="42.49745906263538" lon="11.51502810478053"><ele>225.33333333333331</ele><time>2026-04-12T14:55:53.999Z</time></trkpt><trkpt lat="42.497538399528715" lon="11.51500015802502"><ele>225.66666666666666</ele><time>2026-04-12T14:55:54.999Z</time></trkpt><trkpt lat="42.49762052186307" lon="11.514966938146374"><ele>226.0</ele><time>2026-04-12T14:55:55.999Z</time></trkpt><trkpt lat="42.49770214466824" lon="11.514936323114226"><ele>225.99999999999997</ele><time>2026-04-12T14:55:56.999Z</time></trkpt><trkpt lat="42.49778042679391" lon="11.514898589437223"><ele>226.0</ele><time>2026-04-12T14:55:57.999Z</time></trkpt><trkpt lat="42.4978571183352" lon="11.514867203990327"><ele>226.0</ele><time>2026-04-12T14:55:58.999Z</time></trkpt><trkpt lat="42.49793573149055" lon="11.51485549220175"><ele>226.0</ele><time>2026-04-12T14:55:59.999Z</time></trkpt><trkpt lat="42.49800662446577" lon="11.514835329706889"><ele>225.99999999999997</ele><time>2026-04-12T14:56:00.999Z</time></trkpt><trkpt lat="42.498103943082086" lon="11.51488751955362"><ele>226.0</ele><time>2026-04-12T14:56:01.999Z</time></trkpt><trkpt lat="42.49819996861756" lon="11.514915943114069"><ele>227.25</ele><time>2026-04-12T14:56:02.999Z</time></trkpt><trkpt lat="42.49830250543604" lon="11.514930741681054"><ele>228.5</ele><time>2026-04-12T14:56:03.999Z</time></trkpt><trkpt lat="42.49841874300175" lon="11.51494610925021"><ele>229.75</ele><time>2026-04-12T14:56:04.999Z</time></trkpt><trkpt lat="42.49853471544532" lon="11.514951734285628"><ele>231.0</ele><time>2026-04-12T14:56:05.999Z</time></trkpt><trkpt lat="42.49865132022082" lon="11.51494529450652"><ele>231.8</ele><time>2026-04-12T14:56:06.999Z</time></trkpt><trkpt lat="42.498757915243495" lon="11.514944353378004"><ele>232.60000000000002</ele><time>2026-04-12T14:56:07.999Z</time></trkpt><trkpt lat="42.49885984604728" lon="11.514923399284164"><ele>233.4</ele><time>2026-04-12T14:56:08.999Z</time></trkpt><trkpt lat="42.49896657488878" lon="11.514905706498528"><ele>234.2</ele><time>2026-04-12T14:56:09.999Z</time></trkpt><trkpt lat="42.499078502420105" lon="11.514900091663868"><ele>235.0</ele><time>2026-04-12T14:56:10.999Z</time></trkpt><trkpt lat="42.49919951575645" lon="11.514889152120277"><ele>235.0</ele><time>2026-04-12T14:56:11.999Z</time></trkpt><trkpt lat="42.4993040855374" lon="11.514886495362989"><ele>235.0</ele><time>2026-04-12T14:56:12.999Z</time></trkpt><trkpt lat="42.49938957103536" lon="11.51488970808257"><ele>235.0</ele><time>2026-04-12T14:56:13.999Z</time></trkpt><trkpt lat="42.499490151049464" lon="11.514901662030844"><ele>235.0</ele><time>2026-04-12T14:56:14.999Z</time></trkpt><trkpt lat="42.49958580555867" lon="11.514913986212669"><ele>235.0</ele><time>2026-04-12T14:56:15.999Z</time></trkpt><trkpt lat="42.49967466616349" lon="11.514916191047886"><ele>234.6</ele><time>2026-04-12T14:56:16.999Z</time></trkpt><trkpt lat="42.49976833569942" lon="11.514918597486227"><ele>234.2</ele><time>2026-04-12T14:56:17.999Z</time></trkpt><trkpt lat="42.49986516736313" lon="11.514918112662537"><ele>233.8</ele><time>2026-04-12T14:56:18.999Z</time></trkpt><trkpt lat="42.499959311080495" lon="11.514925013425055"><ele>233.4</ele><time>2026-04-12T14:56:19.999Z</time></trkpt><trkpt lat="42.500063409885854" lon="11.514930712565087"><ele>233.0</ele><time>2026-04-12T14:56:20.999Z</time></trkpt><trkpt lat="42.500160782095804" lon="11.514929278678547"><ele>233.00000000000003</ele><time>2026-04-12T14:56:21.999Z</time></trkpt><trkpt lat="42.50025376130865" lon="11.514936338076586"><ele>233.0</ele><time>2026-04-12T14:56:22.999Z</time></trkpt><trkpt lat="42.500352296971606" lon="11.514929068820763"><ele>233.0</ele><time>2026-04-12T14:56:23.999Z</time></trkpt><trkpt lat="42.50043878081399" lon="11.514931004738312"><ele>233.0</ele><time>2026-04-12T14:56:24.999Z</time></trkpt><trkpt lat="42.50050765723887" lon="11.514927311727917"><ele>233.00000000000003</ele><time>2026-04-12T14:56:25.999Z</time></trkpt><trkpt lat="42.50058765541303" lon="11.51491967162443"><ele>233.0</ele><time>2026-04-12T14:56:26.999Z</time></trkpt><trkpt lat="42.500664401587535" lon="11.514892595911052"><ele>231.83333333333334</ele><time>2026-04-12T14:56:27.999Z</time></trkpt><trkpt lat="42.500747109523346" lon="11.514857473073695"><ele>230.66666666666669</ele><time>2026-04-12T14:56:28.999Z</time></trkpt><trkpt lat="42.50083192690108" lon="11.514811291248083"><ele>229.5</ele><time>2026-04-12T14:56:29.999Z</time></trkpt><trkpt lat="42.500911353021806" lon="11.514758166739322"><ele>228.33333333333331</ele><time>2026-04-12T14:56:30.999Z</time></trkpt><trkpt lat="42.50099146275288" lon="11.514708360468227"><ele>227.16666666666666</ele><time>2026-04-12T14:56:31.999Z</time></trkpt><trkpt lat="42.50107407418323" lon="11.514665993271052"><ele>226.0</ele><time>2026-04-12T14:56:32.999Z</time></trkpt><trkpt lat="42.50114997468346" lon="11.514628919208198"><ele>225.99999999999997</ele><time>2026-04-12T14:56:33.999Z</time></trkpt><trkpt lat="42.50122266108536" lon="11.514593466702499"><ele>226.0</ele><time>2026-04-12T14:56:34.999Z</time></trkpt><trkpt lat="42.50130552776604" lon="11.514556028015466"><ele>226.0</ele><time>2026-04-12T14:56:35.999Z</time></trkpt><trkpt lat="42.50139059251865" lon="11.514508950066759"><ele>226.0</ele><time>2026-04-12T14:56:36.999Z</time></trkpt><trkpt lat="42.50146738098983" lon="11.514439092861826"><ele>225.99999999999997</ele><time>2026-04-12T14:56:37.999Z</time></trkpt><trkpt lat="42.50154478383432" lon="11.514357906056656"><ele>226.0</ele><time>2026-04-12T14:56:38.999Z</time></trkpt><trkpt lat="42.5016269792934" lon="11.51427321305834"><ele>224.4</ele><time>2026-04-12T14:56:39.999Z</time></trkpt><trkpt lat="42.50171129169403" lon="11.514182381116315"><ele>222.8</ele><time>2026-04-12T14:56:40.999Z</time></trkpt><trkpt lat="42.501789516134586" lon="11.514086162160925"><ele>221.20000000000002</ele><time>2026-04-12T14:56:41.999Z</time></trkpt><trkpt lat="42.501872086538086" lon="11.513992549325128"><ele>219.60000000000002</ele><time>2026-04-12T14:56:42.999Z</time></trkpt><trkpt lat="42.50195197397517" lon="11.513902708412514"><ele>218.0</ele><time>2026-04-12T14:56:43.999Z</time></trkpt><trkpt lat="42.50203348223471" lon="11.513800947812003"><ele>217.0</ele><time>2026-04-12T14:56:44.999Z</time></trkpt><trkpt lat="42.50210752274538" lon="11.513721265221605"><ele>216.0</ele><time>2026-04-12T14:56:45.999Z</time></trkpt><trkpt lat="42.50219973694056" lon="11.513650963208722"><ele>215.0</ele><time>2026-04-12T14:56:46.999Z</time></trkpt><trkpt lat="42.5022992502021" lon="11.513588967507989"><ele>214.0</ele><time>2026-04-12T14:56:47.999Z</time></trkpt><trkpt lat="42.50240559395186" lon="11.513531152234986"><ele>213.0</ele><time>2026-04-12T14:56:48.999Z</time></trkpt><trkpt lat="42.5025219196308" lon="11.51347854972542"><ele>213.0</ele><time>2026-04-12T14:56:49.999Z</time></trkpt><trkpt lat="42.502645157864315" lon="11.513425144224321"><ele>213.0</ele><time>2026-04-12T14:56:50.998Z</time></trkpt><trkpt lat="42.50276524498604" lon="11.513365466668317"><ele>213.0</ele><time>2026-04-12T14:56:51.998Z</time></trkpt><trkpt lat="42.50289241068754" lon="11.513304174664677"><ele>213.0</ele><time>2026-04-12T14:56:52.998Z</time></trkpt><trkpt lat="42.503023728733595" lon="11.513244834515806"><ele>211.75</ele><time>2026-04-12T14:56:53.998Z</time></trkpt><trkpt lat="42.5031510724077" lon="11.513186880401234"><ele>210.5</ele><time>2026-04-12T14:56:54.998Z</time></trkpt><trkpt lat="42.50328134714365" lon="11.513127257738581"><ele>209.25</ele><time>2026-04-12T14:56:55.998Z</time></trkpt><trkpt lat="42.503413932146174" lon="11.51307354396854"><ele>208.0</ele><time>2026-04-12T14:56:56.998Z</time></trkpt><trkpt lat="42.50354082511205" lon="11.513027685194047"><ele>208.0</ele><time>2026-04-12T14:56:57.998Z</time></trkpt><trkpt lat="42.50365615022757" lon="11.512988919981327"><ele>208.0</ele><time>2026-04-12T14:56:58.998Z</time></trkpt><trkpt lat="42.50378182007152" lon="11.51294912061451"><ele>208.0</ele><time>2026-04-12T14:56:59.998Z</time></trkpt><trkpt lat="42.50389073872469" lon="11.512894559363442"><ele>208.0</ele><time>2026-04-12T14:57:00.998Z</time></trkpt><trkpt lat="42.50400262264054" lon="11.512841324822318"><ele>208.8</ele><time>2026-04-12T14:57:01.998Z</time></trkpt><trkpt lat="42.50410591539517" lon="11.51278653092709"><ele>209.60000000000002</ele><time>2026-04-12T14:57:02.998Z</time></trkpt><trkpt lat="42.50419649856753" lon="11.512738130317922"><ele>210.39999999999998</ele><time>2026-04-12T14:57:03.998Z</time></trkpt><trkpt lat="42.50430602479685" lon="11.512687725148178"><ele>211.2</ele><time>2026-04-12T14:57:04.998Z</time></trkpt><trkpt lat="42.50441695087004" lon="11.512630070667779"><ele>212.0</ele><time>2026-04-12T14:57:05.998Z</time></trkpt><trkpt lat="42.50451457673328" lon="11.512569617602951"><ele>212.8</ele><time>2026-04-12T14:57:06.998Z</time></trkpt><trkpt lat="42.50460821460616" lon="11.512496902994409"><ele>213.6</ele><time>2026-04-12T14:57:07.998Z</time></trkpt><trkpt lat="42.504693482540546" lon="11.512435252302776"><ele>214.40000000000003</ele><time>2026-04-12T14:57:08.998Z</time></trkpt><trkpt lat="42.50477355480208" lon="11.512401699197122"><ele>215.20000000000002</ele><time>2026-04-12T14:57:09.998Z</time></trkpt><trkpt lat="42.504857659357334" lon="11.512379947595123"><ele>216.0</ele><time>2026-04-12T14:57:10.998Z</time></trkpt><trkpt lat="42.50494894104249" lon="11.512374296510181"><ele>216.0</ele><time>2026-04-12T14:57:11.998Z</time></trkpt><trkpt lat="42.50504594630034" lon="11.512372411966862"><ele>216.00000000000003</ele><time>2026-04-12T14:57:12.998Z</time></trkpt><trkpt lat="42.505144219925114" lon="11.51236095292426"><ele>216.00000000000003</ele><time>2026-04-12T14:57:14Z</time></trkpt><trkpt lat="42.50523866033274" lon="11.512314746451805"><ele>216.0</ele><time>2026-04-12T14:57:15Z</time></trkpt><trkpt lat="42.50532946578784" lon="11.512248606769083"><ele>216.0</ele><time>2026-04-12T14:57:16Z</time></trkpt><trkpt lat="42.505419903163705" lon="11.512171531162096"><ele>215.60000000000002</ele><time>2026-04-12T14:57:17Z</time></trkpt><trkpt lat="42.50550241480524" lon="11.512091009203953"><ele>215.20000000000002</ele><time>2026-04-12T14:57:18Z</time></trkpt><trkpt lat="42.50559082490308" lon="11.511998861181883"><ele>214.79999999999998</ele><time>2026-04-12T14:57:19Z</time></trkpt><trkpt lat="42.50567008501931" lon="11.511889552257193"><ele>214.39999999999998</ele><time>2026-04-12T14:57:20Z</time></trkpt><trkpt lat="42.50574946065184" lon="11.511769948738346"><ele>214.0</ele><time>2026-04-12T14:57:21Z</time></trkpt><trkpt lat="42.50583035176952" lon="11.51165076594954"><ele>214.0</ele><time>2026-04-12T14:57:22Z</time></trkpt><trkpt lat="42.50591615397319" lon="11.511538102047957"><ele>214.0</ele><time>2026-04-12T14:57:23Z</time></trkpt><trkpt lat="42.50600503451059" lon="11.511427251490321"><ele>214.0</ele><time>2026-04-12T14:57:24Z</time></trkpt><trkpt lat="42.50608391967131" lon="11.511323147110996"><ele>214.0</ele><time>2026-04-12T14:57:25Z</time></trkpt><trkpt lat="42.506160843419096" lon="11.511232126468162"><ele>213.6</ele><time>2026-04-12T14:57:26Z</time></trkpt><trkpt lat="42.50623167403278" lon="11.511142589887385"><ele>213.2</ele><time>2026-04-12T14:57:27Z</time></trkpt><trkpt lat="42.50630451670909" lon="11.511047894783752"><ele>212.79999999999998</ele><time>2026-04-12T14:57:28Z</time></trkpt><trkpt lat="42.50637629838446" lon="11.5109658713062"><ele>212.39999999999998</ele><time>2026-04-12T14:57:29Z</time></trkpt><trkpt lat="42.506449850908275" lon="11.510878294732922"><ele>212.0</ele><time>2026-04-12T14:57:30Z</time></trkpt><trkpt lat="42.50651776296241" lon="11.510779331742734"><ele>212.0</ele><time>2026-04-12T14:57:31Z</time></trkpt><trkpt lat="42.50659461881084" lon="11.510697616815337"><ele>212.0</ele><time>2026-04-12T14:57:32Z</time></trkpt><trkpt lat="42.50668023441607" lon="11.510627197587603"><ele>212.0</ele><time>2026-04-12T14:57:33Z</time></trkpt><trkpt lat="42.506766849562744" lon="11.510530184008918"><ele>212.0</ele><time>2026-04-12T14:57:34Z</time></trkpt><trkpt lat="42.5068558702002" lon="11.510430171928675"><ele>212.0</ele><time>2026-04-12T14:57:35Z</time></trkpt><trkpt lat="42.50694495452145" lon="11.5103482755462"><ele>210.8</ele><time>2026-04-12T14:57:36Z</time></trkpt><trkpt lat="42.5070222737621" lon="11.510265240352368"><ele>209.6</ele><time>2026-04-12T14:57:37Z</time></trkpt><trkpt lat="42.50708407110822" lon="11.51016346090966"><ele>208.4</ele><time>2026-04-12T14:57:38Z</time></trkpt><trkpt lat="42.50714085020215" lon="11.51006232008429"><ele>207.20000000000002</ele><time>2026-04-12T14:57:38.999Z</time></trkpt><trkpt lat="42.50719355916714" lon="11.509973044137261"><ele>206.0</ele><time>2026-04-12T14:57:39.999Z</time></trkpt><trkpt lat="42.507265906811156" lon="11.509927821636557"><ele>206.00000000000003</ele><time>2026-04-12T14:57:40.999Z</time></trkpt><trkpt lat="42.50732751544325" lon="11.50986459325297"><ele>206.0</ele><time>2026-04-12T14:57:41.999Z</time></trkpt><trkpt lat="42.50739689764275" lon="11.509810072033053"><ele>206.0</ele><time>2026-04-12T14:57:42.999Z</time></trkpt><trkpt lat="42.50746317227887" lon="11.509755232917579"><ele>206.0</ele><time>2026-04-12T14:57:43.999Z</time></trkpt><trkpt lat="42.50753855250114" lon="11.509714275951286"><ele>206.00000000000003</ele><time>2026-04-12T14:57:44.999Z</time></trkpt><trkpt lat="42.50761578686583" lon="11.509712675209155"><ele>206.0</ele><time>2026-04-12T14:57:45.999Z</time></trkpt><trkpt lat="42.50769864852465" lon="11.509725976164011"><ele>206.00000000000003</ele><time>2026-04-12T14:57:46.999Z</time></trkpt><trkpt lat="42.507791711257745" lon="11.509740637298961"><ele>206.0</ele><time>2026-04-12T14:57:47.999Z</time></trkpt><trkpt lat="42.507881030297405" lon="11.509763970138053"><ele>206.0</ele><time>2026-04-12T14:57:48.999Z</time></trkpt><trkpt lat="42.507962912827246" lon="11.509802386866063"><ele>206.0</ele><time>2026-04-12T14:57:49.999Z</time></trkpt><trkpt lat="42.5080358100677" lon="11.509841667515008"><ele>206.00000000000003</ele><time>2026-04-12T14:57:50.999Z</time></trkpt><trkpt lat="42.50810465532742" lon="11.509888175263663"><ele>206.0</ele><time>2026-04-12T14:57:51.999Z</time></trkpt><trkpt lat="42.50816969664143" lon="11.509945958516017"><ele>205.16666666666669</ele><time>2026-04-12T14:57:52.999Z</time></trkpt><trkpt lat="42.50823752267632" lon="11.510025428408852"><ele>204.33333333333334</ele><time>2026-04-12T14:57:53.999Z</time></trkpt><trkpt lat="42.5083000490463" lon="11.51011305058915"><ele>203.5</ele><time>2026-04-12T14:57:54.999Z</time></trkpt><trkpt lat="42.50836597255088" lon="11.510202945140966"><ele>202.66666666666669</ele><time>2026-04-12T14:57:55.999Z</time></trkpt><trkpt lat="42.508426518326594" lon="11.51027630242362"><ele>201.83333333333334</ele><time>2026-04-12T14:57:56.999Z</time></trkpt><trkpt lat="42.50848893018229" lon="11.510343657393307"><ele>201.0</ele><time>2026-04-12T14:57:57.999Z</time></trkpt><trkpt lat="42.508545836186684" lon="11.510407559814245"><ele>201.16666666666666</ele><time>2026-04-12T14:57:58.999Z</time></trkpt><trkpt lat="42.508595319142294" lon="11.510468540094822"><ele>201.33333333333331</ele><time>2026-04-12T14:57:59.999Z</time></trkpt><trkpt lat="42.50864775890342" lon="11.510534878001828"><ele>201.5</ele><time>2026-04-12T14:58:00.999Z</time></trkpt><trkpt lat="42.50870380071498" lon="11.510599338888177"><ele>201.66666666666666</ele><time>2026-04-12T14:58:01.999Z</time></trkpt><trkpt lat="42.5087674960586" lon="11.510660974449012"><ele>201.83333333333331</ele><time>2026-04-12T14:58:02.999Z</time></trkpt><trkpt lat="42.50884469225054" lon="11.510729646829484"><ele>202.0</ele><time>2026-04-12T14:58:03.999Z</time></trkpt><trkpt lat="42.50893442394541" lon="11.510791646802582"><ele>200.2</ele><time>2026-04-12T14:58:04.999Z</time></trkpt><trkpt lat="42.509028217798075" lon="11.510842874978573"><ele>198.39999999999998</ele><time>2026-04-12T14:58:05.999Z</time></trkpt><trkpt lat="42.50912829366326" lon="11.510898100429282"><ele>196.60000000000002</ele><time>2026-04-12T14:58:06.999Z</time></trkpt><trkpt lat="42.50922368879176" lon="11.510949242047083"><ele>194.8</ele><time>2026-04-12T14:58:07.999Z</time></trkpt><trkpt lat="42.509314773061185" lon="11.510992481833847"><ele>193.0</ele><time>2026-04-12T14:58:08.999Z</time></trkpt><trkpt lat="42.50940576201673" lon="11.511030613403726"><ele>193.0</ele><time>2026-04-12T14:58:09.999Z</time></trkpt><trkpt lat="42.50948537150477" lon="11.5110617969518"><ele>193.0</ele><time>2026-04-12T14:58:10.999Z</time></trkpt><trkpt lat="42.50956407745165" lon="11.511101281766354"><ele>193.0</ele><time>2026-04-12T14:58:11.999Z</time></trkpt><trkpt lat="42.50963328852427" lon="11.511162587240658"><ele>193.0</ele><time>2026-04-12T14:58:12.999Z</time></trkpt><trkpt lat="42.509705319004446" lon="11.511253529849903"><ele>193.0</ele><time>2026-04-12T14:58:13.999Z</time></trkpt><trkpt lat="42.50977966167216" lon="11.511360513036758"><ele>191.2</ele><time>2026-04-12T14:58:14.999Z</time></trkpt><trkpt lat="42.509855709903505" lon="11.511472335184926"><ele>189.4</ele><time>2026-04-12T14:58:15.999Z</time></trkpt><trkpt lat="42.50992277804739" lon="11.511567539917019"><ele>187.6</ele><time>2026-04-12T14:58:16.999Z</time></trkpt><trkpt lat="42.5099862501089" lon="11.51164922420326"><ele>185.79999999999998</ele><time>2026-04-12T14:58:17.999Z</time></trkpt><trkpt lat="42.51004753403906" lon="11.511730322820796"><ele>184.0</ele><time>2026-04-12T14:58:18.999Z</time></trkpt><trkpt lat="42.510106012361874" lon="11.511806291655539"><ele>184.0</ele><time>2026-04-12T14:58:19.999Z</time></trkpt><trkpt lat="42.51015679118107" lon="11.511875310749897"><ele>184.0</ele><time>2026-04-12T14:58:20.999Z</time></trkpt><trkpt lat="42.51020221260194" lon="11.511947112048466"><ele>184.0</ele><time>2026-04-12T14:58:21.999Z</time></trkpt><trkpt lat="42.51024452192679" lon="11.512015518018156"><ele>184.0</ele><time>2026-04-12T14:58:22.999Z</time></trkpt><trkpt lat="42.51029137742476" lon="11.512074306335212"><ele>184.0</ele><time>2026-04-12T14:58:23.999Z</time></trkpt><trkpt lat="42.51036098301729" lon="11.51217139204277"><ele>184.0</ele><time>2026-04-12T14:58:25.999Z</time></trkpt><trkpt lat="42.510403144040616" lon="11.512247720498465"><ele>184.0</ele><time>2026-04-12T14:58:28.999Z</time></trkpt><trkpt lat="42.51033856338983" lon="11.512354477351863"><ele>183.39999999999998</ele><time>2026-04-12T14:58:31.999Z</time></trkpt><trkpt lat="42.510277476662104" lon="11.512415291948727"><ele>182.8</ele><time>2026-04-12T14:58:32.999Z</time></trkpt><trkpt lat="42.510243362208584" lon="11.51252434846403"><ele>182.2</ele><time>2026-04-12T14:58:33.999Z</time></trkpt><trkpt lat="42.51019498100854" lon="11.512625383041733"><ele>181.60000000000002</ele><time>2026-04-12T14:58:34.999Z</time></trkpt><trkpt lat="42.51013890611591" lon="11.512734351736647"><ele>181.0</ele><time>2026-04-12T14:58:35.999Z</time></trkpt><trkpt lat="42.51007600796652" lon="11.512851285338598"><ele>181.0</ele><time>2026-04-12T14:58:36.999Z</time></trkpt><trkpt lat="42.510001813934025" lon="11.51298651653168"><ele>181.0</ele><time>2026-04-12T14:58:37.999Z</time></trkpt><trkpt lat="42.509926498293225" lon="11.513128808465323"><ele>181.0</ele><time>2026-04-12T14:58:38.999Z</time></trkpt><trkpt lat="42.50985925895307" lon="11.51326742406477"><ele>181.0</ele><time>2026-04-12T14:58:39.999Z</time></trkpt><trkpt lat="42.509790066380226" lon="11.513399511395201"><ele>181.0</ele><time>2026-04-12T14:58:40.999Z</time></trkpt><trkpt lat="42.509743018509525" lon="11.513477905108093"><ele>181.0</ele><time>2026-04-12T14:58:41.999Z</time></trkpt><trkpt lat="42.50967033587695" lon="11.513620759464693"><ele>181.0</ele><time>2026-04-12T14:58:42.999Z</time></trkpt><trkpt lat="42.5095948303661" lon="11.513761981728756"><ele>181.0</ele><time>2026-04-12T14:58:43.999Z</time></trkpt><trkpt lat="42.50951632565457" lon="11.513912875680612"><ele>180.25</ele><time>2026-04-12T14:58:44.999Z</time></trkpt><trkpt lat="42.50943405280365" lon="11.514063806672898"><ele>179.5</ele><time>2026-04-12T14:58:45.999Z</time></trkpt><trkpt lat="42.50935744281655" lon="11.514222942530596"><ele>178.75</ele><time>2026-04-12T14:58:46.999Z</time></trkpt><trkpt lat="42.509279748562165" lon="11.51437337224953"><ele>178.0</ele><time>2026-04-12T14:58:47.999Z</time></trkpt><trkpt lat="42.50920129535381" lon="11.51452217872083"><ele>178.5</ele><time>2026-04-12T14:58:48.999Z</time></trkpt><trkpt lat="42.50912065081222" lon="11.514666729448244"><ele>179.0</ele><time>2026-04-12T14:58:49.999Z</time></trkpt><trkpt lat="42.50904722664579" lon="11.514819255823204"><ele>179.5</ele><time>2026-04-12T14:58:50.999Z</time></trkpt><trkpt lat="42.508970690940686" lon="11.514978616742912"><ele>180.0</ele><time>2026-04-12T14:58:51.999Z</time></trkpt><trkpt lat="42.508891130640585" lon="11.515132022056621"><ele>180.0</ele><time>2026-04-12T14:58:52.999Z</time></trkpt><trkpt lat="42.508803334381405" lon="11.515293620644266"><ele>180.0</ele><time>2026-04-12T14:58:53.999Z</time></trkpt><trkpt lat="42.50871733744433" lon="11.515462430236468"><ele>180.0</ele><time>2026-04-12T14:58:54.999Z</time></trkpt><trkpt lat="42.508610683970225" lon="11.515627918505013"><ele>177.66666666666666</ele><time>2026-04-12T14:58:55.999Z</time></trkpt><trkpt lat="42.50852632497514" lon="11.515824156532322"><ele>175.33333333333331</ele><time>2026-04-12T14:58:56.999Z</time></trkpt><trkpt lat="42.50842641043728" lon="11.516013068763556"><ele>173.0</ele><time>2026-04-12T14:58:57.999Z</time></trkpt><trkpt lat="42.50831799874651" lon="11.516206227764583"><ele>173.66666666666666</ele><time>2026-04-12T14:58:58.999Z</time></trkpt><trkpt lat="42.508210036447345" lon="11.516413250885408"><ele>174.33333333333334</ele><time>2026-04-12T14:58:59.999Z</time></trkpt><trkpt lat="42.508104442958725" lon="11.516619648317354"><ele>175.0</ele><time>2026-04-12T14:59:00.998Z</time></trkpt><trkpt lat="42.507990947031516" lon="11.516811050249089"><ele>173.33333333333334</ele><time>2026-04-12T14:59:01.998Z</time></trkpt><trkpt lat="42.50789973614338" lon="11.517017864644865"><ele>171.66666666666666</ele><time>2026-04-12T14:59:02.998Z</time></trkpt><trkpt lat="42.50779098506511" lon="11.517219937198412"><ele>170.0</ele><time>2026-04-12T14:59:03.998Z</time></trkpt><trkpt lat="42.507688071599766" lon="11.517415239323517"><ele>170.0</ele><time>2026-04-12T14:59:04.998Z</time></trkpt><trkpt lat="42.50758474196162" lon="11.517620257217935"><ele>170.0</ele><time>2026-04-12T14:59:05.998Z</time></trkpt><trkpt lat="42.50747028507622" lon="11.517806253776568"><ele>170.0</ele><time>2026-04-12T14:59:06.998Z</time></trkpt><trkpt lat="42.50736735290664" lon="11.518032971336744"><ele>170.33333333333331</ele><time>2026-04-12T14:59:07.998Z</time></trkpt><trkpt lat="42.50725102118232" lon="11.518246251839596"><ele>170.66666666666666</ele><time>2026-04-12T14:59:08.998Z</time></trkpt><trkpt lat="42.50714246983026" lon="11.51847029322677"><ele>171.0</ele><time>2026-04-12T14:59:09.998Z</time></trkpt><trkpt lat="42.50701419062879" lon="11.518681430171046"><ele>170.66666666666666</ele><time>2026-04-12T14:59:10.998Z</time></trkpt><trkpt lat="42.50689926446468" lon="11.518883780109906"><ele>170.33333333333331</ele><time>2026-04-12T14:59:11.998Z</time></trkpt><trkpt lat="42.506795067129914" lon="11.51908763158438"><ele>170.0</ele><time>2026-04-12T14:59:12.998Z</time></trkpt><trkpt lat="42.50667210557515" lon="11.519269261979709"><ele>170.0</ele><time>2026-04-12T14:59:13.998Z</time></trkpt><trkpt lat="42.50654192640101" lon="11.519443985208268"><ele>170.0</ele><time>2026-04-12T14:59:14.998Z</time></trkpt><trkpt lat="42.50640944258033" lon="11.519605481770187"><ele>170.0</ele><time>2026-04-12T14:59:15.998Z</time></trkpt><trkpt lat="42.50627967446024" lon="11.519761302854523"><ele>170.33333333333331</ele><time>2026-04-12T14:59:16.998Z</time></trkpt><trkpt lat="42.50615053392186" lon="11.519922020753981"><ele>170.66666666666666</ele><time>2026-04-12T14:59:17.998Z</time></trkpt><trkpt lat="42.506027651027225" lon="11.520083151442186"><ele>171.0</ele><time>2026-04-12T14:59:18.998Z</time></trkpt><trkpt lat="42.50590172881535" lon="11.520247727362232"><ele>172.33333333333334</ele><time>2026-04-12T14:59:20Z</time></trkpt><trkpt lat="42.50577547469097" lon="11.520404755040827"><ele>173.66666666666669</ele><time>2026-04-12T14:59:21Z</time></trkpt><trkpt lat="42.50564382380453" lon="11.520564799287056"><ele>175.0</ele><time>2026-04-12T14:59:22Z</time></trkpt><trkpt lat="42.505514783360134" lon="11.52072766249331"><ele>172.33333333333334</ele><time>2026-04-12T14:59:23Z</time></trkpt><trkpt lat="42.5053849714341" lon="11.520892919598298"><ele>169.66666666666666</ele><time>2026-04-12T14:59:24Z</time></trkpt><trkpt lat="42.50525628139447" lon="11.521051275159087"><ele>167.0</ele><time>2026-04-12T14:59:25Z</time></trkpt><trkpt lat="42.50513073605275" lon="11.52120266814047"><ele>168.66666666666666</ele><time>2026-04-12T14:59:26Z</time></trkpt><trkpt lat="42.50500398250829" lon="11.521361787465858"><ele>170.33333333333334</ele><time>2026-04-12T14:59:27Z</time></trkpt><trkpt lat="42.504879043055624" lon="11.52152551002308"><ele>172.0</ele><time>2026-04-12T14:59:28Z</time></trkpt><trkpt lat="42.50475230402833" lon="11.521690975297082"><ele>172.0</ele><time>2026-04-12T14:59:29Z</time></trkpt><trkpt lat="42.504613812727854" lon="11.521836381882824"><ele>172.0</ele><time>2026-04-12T14:59:30Z</time></trkpt><trkpt lat="42.504482372568205" lon="11.52200574733845"><ele>172.0</ele><time>2026-04-12T14:59:31Z</time></trkpt><trkpt lat="42.50435889103144" lon="11.522193070242285"><ele>170.66666666666669</ele><time>2026-04-12T14:59:32Z</time></trkpt><trkpt lat="42.5042294331987" lon="11.522356713024303"><ele>169.33333333333334</ele><time>2026-04-12T14:59:33Z</time></trkpt><trkpt lat="42.50409053666185" lon="11.52252660638843"><ele>168.0</ele><time>2026-04-12T14:59:34Z</time></trkpt><trkpt lat="42.503953209693506" lon="11.522701541123283"><ele>168.0</ele><time>2026-04-12T14:59:35Z</time></trkpt><trkpt lat="42.50380984377506" lon="11.522886143569343"><ele>168.0</ele><time>2026-04-12T14:59:36Z</time></trkpt><trkpt lat="42.50366268170513" lon="11.52307703033994"><ele>168.0</ele><time>2026-04-12T14:59:37Z</time></trkpt><trkpt lat="42.50350973114102" lon="11.523274093449682"><ele>166.66666666666666</ele><time>2026-04-12T14:59:38Z</time></trkpt><trkpt lat="42.503352418242166" lon="11.523476157668759"><ele>165.33333333333331</ele><time>2026-04-12T14:59:39Z</time></trkpt><trkpt lat="42.503197543089904" lon="11.523673498864245"><ele>164.0</ele><time>2026-04-12T14:59:40Z</time></trkpt><trkpt lat="42.503033524648835" lon="11.523853108501113"><ele>165.33333333333331</ele><time>2026-04-12T14:59:41Z</time></trkpt><trkpt lat="42.50289904323055" lon="11.524051520103981"><ele>166.66666666666666</ele><time>2026-04-12T14:59:42Z</time></trkpt><trkpt lat="42.502755826216" lon="11.524233856851039"><ele>168.0</ele><time>2026-04-12T14:59:43Z</time></trkpt><trkpt lat="42.50260553991718" lon="11.524394457872205"><ele>168.0</ele><time>2026-04-12T14:59:44Z</time></trkpt><trkpt lat="42.50246803409562" lon="11.52456838632582"><ele>168.0</ele><time>2026-04-12T14:59:45Z</time></trkpt><trkpt lat="42.50234370361199" lon="11.524751723829976"><ele>168.0</ele><time>2026-04-12T14:59:45.999Z</time></trkpt><trkpt lat="42.50221076217981" lon="11.52491650564627"><ele>166.66666666666666</ele><time>2026-04-12T14:59:46.999Z</time></trkpt><trkpt lat="42.50207766038379" lon="11.525088414660454"><ele>165.33333333333331</ele><time>2026-04-12T14:59:47.999Z</time></trkpt><trkpt lat="42.5019511443282" lon="11.525255835297777"><ele>164.0</ele><time>2026-04-12T14:59:48.999Z</time></trkpt><trkpt lat="42.501828373445015" lon="11.525433043035093"><ele>164.0</ele><time>2026-04-12T14:59:49.999Z</time></trkpt><trkpt lat="42.50170504246547" lon="11.525620132227472"><ele>164.0</ele><time>2026-04-12T14:59:50.999Z</time></trkpt><trkpt lat="42.501596249023514" lon="11.525814649491268"><ele>164.0</ele><time>2026-04-12T14:59:51.999Z</time></trkpt><trkpt lat="42.50148838903943" lon="11.526021883463248"><ele>164.0</ele><time>2026-04-12T14:59:52.999Z</time></trkpt><trkpt lat="42.50138861517004" lon="11.526223949935977"><ele>164.0</ele><time>2026-04-12T14:59:53.999Z</time></trkpt><trkpt lat="42.50128323298019" lon="11.526392363136656"><ele>164.0</ele><time>2026-04-12T14:59:54.999Z</time></trkpt><trkpt lat="42.50119978717013" lon="11.52657102654577"><ele>163.5</ele><time>2026-04-12T14:59:55.999Z</time></trkpt><trkpt lat="42.50113075754367" lon="11.526750585501759"><ele>163.0</ele><time>2026-04-12T14:59:56.999Z</time></trkpt><trkpt lat="42.50109779607371" lon="11.526946481760497"><ele>162.5</ele><time>2026-04-12T14:59:57.999Z</time></trkpt><trkpt lat="42.50107383704594" lon="11.527148653380468"><ele>162.0</ele><time>2026-04-12T14:59:58.999Z</time></trkpt><trkpt lat="42.501059962986574" lon="11.527362351534126"><ele>161.33333333333334</ele><time>2026-04-12T14:59:59.999Z</time></trkpt><trkpt lat="42.5010469912137" lon="11.527577777279546"><ele>160.66666666666669</ele><time>2026-04-12T15:00:00.999Z</time></trkpt><trkpt lat="42.50103264366189" lon="11.527784972588604"><ele>160.0</ele><time>2026-04-12T15:00:01.999Z</time></trkpt><trkpt lat="42.50102288901172" lon="11.527986210750917"><ele>159.0</ele><time>2026-04-12T15:00:02.999Z</time></trkpt><trkpt lat="42.50101709105049" lon="11.52816878043188"><ele>158.0</ele><time>2026-04-12T15:00:03.999Z</time></trkpt><trkpt lat="42.501011779780654" lon="11.528354738841383"><ele>157.0</ele><time>2026-04-12T15:00:04.999Z</time></trkpt><trkpt lat="42.501002209369226" lon="11.528530367696318"><ele>156.0</ele><time>2026-04-12T15:00:05.999Z</time></trkpt><trkpt lat="42.50099554512376" lon="11.528683890881094"><ele>156.0</ele><time>2026-04-12T15:00:06.999Z</time></trkpt><trkpt lat="42.50098419474092" lon="11.528835862528286"><ele>156.0</ele><time>2026-04-12T15:00:07.999Z</time></trkpt><trkpt lat="42.500962159086505" lon="11.528973840505397"><ele>156.0</ele><time>2026-04-12T15:00:08.999Z</time></trkpt><trkpt lat="42.50092217731117" lon="11.529116478065863"><ele>156.0</ele><time>2026-04-12T15:00:09.999Z</time></trkpt><trkpt lat="42.50086036805318" lon="11.529247460927692"><ele>156.0</ele><time>2026-04-12T15:00:10.999Z</time></trkpt><trkpt lat="42.500808931132305" lon="11.529381788224082"><ele>156.0</ele><time>2026-04-12T15:00:11.999Z</time></trkpt><trkpt lat="42.500760260888356" lon="11.529500896808237"><ele>156.0</ele><time>2026-04-12T15:00:12.999Z</time></trkpt><trkpt lat="42.50070758006378" lon="11.529625923694875"><ele>156.0</ele><time>2026-04-12T15:00:13.999Z</time></trkpt><trkpt lat="42.50064910289592" lon="11.52976470655991"><ele>156.0</ele><time>2026-04-12T15:00:14.999Z</time></trkpt><trkpt lat="42.50058736558209" lon="11.5299133249248"><ele>156.0</ele><time>2026-04-12T15:00:15.999Z</time></trkpt><trkpt lat="42.50052261516367" lon="11.530069408059646"><ele>156.0</ele><time>2026-04-12T15:00:16.999Z</time></trkpt><trkpt lat="42.50045432450974" lon="11.53023402477015"><ele>156.0</ele><time>2026-04-12T15:00:17.999Z</time></trkpt><trkpt lat="42.50038967475801" lon="11.53038986514568"><ele>156.0</ele><time>2026-04-12T15:00:18.999Z</time></trkpt><trkpt lat="42.50032421622462" lon="11.530547654985133"><ele>155.75</ele><time>2026-04-12T15:00:19.999Z</time></trkpt><trkpt lat="42.50025988782701" lon="11.530702769287707"><ele>155.5</ele><time>2026-04-12T15:00:20.999Z</time></trkpt><trkpt lat="42.50019764725085" lon="11.530854262997824"><ele>155.25</ele><time>2026-04-12T15:00:21.999Z</time></trkpt><trkpt lat="42.50013023261199" lon="11.531018350396655"><ele>155.0</ele><time>2026-04-12T15:00:22.999Z</time></trkpt><trkpt lat="42.50006564836329" lon="11.531172449754795"><ele>155.5</ele><time>2026-04-12T15:00:23.999Z</time></trkpt><trkpt lat="42.499997332886494" lon="11.531332942593139"><ele>156.0</ele><time>2026-04-12T15:00:24.999Z</time></trkpt><trkpt lat="42.49992727983816" lon="11.531495156506272"><ele>156.5</ele><time>2026-04-12T15:00:25.999Z</time></trkpt><trkpt lat="42.49986089489304" lon="11.53164351857345"><ele>157.0</ele><time>2026-04-12T15:00:26.999Z</time></trkpt><trkpt lat="42.499786756947934" lon="11.531797002704767"><ele>157.0</ele><time>2026-04-12T15:00:27.999Z</time></trkpt><trkpt lat="42.49972323503921" lon="11.531952637152587"><ele>157.0</ele><time>2026-04-12T15:00:28.999Z</time></trkpt><trkpt lat="42.499641997510615" lon="11.532112810294365"><ele>157.0</ele><time>2026-04-12T15:00:29.999Z</time></trkpt><trkpt lat="42.499545393128514" lon="11.532256132328522"><ele>157.0</ele><time>2026-04-12T15:00:30.999Z</time></trkpt><trkpt lat="42.49946751378465" lon="11.53239643862105"><ele>156.75</ele><time>2026-04-12T15:00:31.999Z</time></trkpt><trkpt lat="42.49939229059078" lon="11.532531211895876"><ele>156.5</ele><time>2026-04-12T15:00:32.999Z</time></trkpt><trkpt lat="42.49932299826196" lon="11.532655359243924"><ele>156.25</ele><time>2026-04-12T15:00:33.999Z</time></trkpt><trkpt lat="42.499252623261775" lon="11.532780452029497"><ele>156.0</ele><time>2026-04-12T15:00:34.999Z</time></trkpt><trkpt lat="42.49918008358992" lon="11.5329079833921"><ele>156.0</ele><time>2026-04-12T15:00:35.999Z</time></trkpt><trkpt lat="42.49910390362701" lon="11.533041620547344"><ele>156.0</ele><time>2026-04-12T15:00:36.999Z</time></trkpt><trkpt lat="42.49902518783187" lon="11.53318185337897"><ele>156.0</ele><time>2026-04-12T15:00:37.999Z</time></trkpt><trkpt lat="42.49894430746355" lon="11.533328927837875"><ele>156.0</ele><time>2026-04-12T15:00:38.999Z</time></trkpt><trkpt lat="42.498862437580456" lon="11.53348852684392"><ele>156.0</ele><time>2026-04-12T15:00:39.999Z</time></trkpt><trkpt lat="42.49878246793017" lon="11.533656638545255"><ele>156.0</ele><time>2026-04-12T15:00:40.999Z</time></trkpt><trkpt lat="42.498704184231904" lon="11.533825749411815"><ele>156.0</ele><time>2026-04-12T15:00:41.999Z</time></trkpt><trkpt lat="42.49862926899407" lon="11.533997461636321"><ele>156.0</ele><time>2026-04-12T15:00:42.999Z</time></trkpt><trkpt lat="42.49855335065308" lon="11.534171743345043"><ele>156.0</ele><time>2026-04-12T15:00:43.999Z</time></trkpt><trkpt lat="42.498478616626684" lon="11.534346143151764"><ele>156.0</ele><time>2026-04-12T15:00:44.999Z</time></trkpt><trkpt lat="42.49840372371113" lon="11.534520913725853"><ele>156.0</ele><time>2026-04-12T15:00:45.999Z</time></trkpt><trkpt lat="42.498329193711825" lon="11.53469483740775"><ele>156.0</ele><time>2026-04-12T15:00:46.999Z</time></trkpt><trkpt lat="42.4982558559757" lon="11.534868081905179"><ele>156.0</ele><time>2026-04-12T15:00:47.999Z</time></trkpt><trkpt lat="42.4981877278599" lon="11.535029666277667"><ele>156.0</ele><time>2026-04-12T15:00:48.999Z</time></trkpt><trkpt lat="42.49811969033704" lon="11.535191035791366"><ele>156.0</ele><time>2026-04-12T15:00:49.999Z</time></trkpt><trkpt lat="42.49805054902586" lon="11.53535784109564"><ele>156.0</ele><time>2026-04-12T15:00:50.999Z</time></trkpt><trkpt lat="42.497974896997704" lon="11.535544908816734"><ele>152.33333333333334</ele><time>2026-04-12T15:00:51.999Z</time></trkpt><trkpt lat="42.49789769747537" lon="11.535740797154785"><ele>148.66666666666669</ele><time>2026-04-12T15:00:52.999Z</time></trkpt><trkpt lat="42.497826975442834" lon="11.535924244627763"><ele>145.0</ele><time>2026-04-12T15:00:53.999Z</time></trkpt><trkpt lat="42.49775962333557" lon="11.536098950870258"><ele>145.25</ele><time>2026-04-12T15:00:54.999Z</time></trkpt><trkpt lat="42.497695669487676" lon="11.536272619652902"><ele>145.5</ele><time>2026-04-12T15:00:55.999Z</time></trkpt><trkpt lat="42.497632767536416" lon="11.536461161776263"><ele>145.75</ele><time>2026-04-12T15:00:56.999Z</time></trkpt><trkpt lat="42.49757854584712" lon="11.536645758687719"><ele>146.0</ele><time>2026-04-12T15:00:57.999Z</time></trkpt><trkpt lat="42.497530070675296" lon="11.536823842591714"><ele>146.0</ele><time>2026-04-12T15:00:58.999Z</time></trkpt><trkpt lat="42.49748260690169" lon="11.536998210830024"><ele>146.0</ele><time>2026-04-12T15:00:59.999Z</time></trkpt><trkpt lat="42.497430926513914" lon="11.537180914136801"><ele>146.0</ele><time>2026-04-12T15:01:00.999Z</time></trkpt><trkpt lat="42.49738285969417" lon="11.53735020483201"><ele>146.0</ele><time>2026-04-12T15:01:01.999Z</time></trkpt><trkpt lat="42.49732983709158" lon="11.537532622874968"><ele>147.0</ele><time>2026-04-12T15:01:02.999Z</time></trkpt><trkpt lat="42.49727344798283" lon="11.537699670742974"><ele>148.0</ele><time>2026-04-12T15:01:03.999Z</time></trkpt><trkpt lat="42.49721265693212" lon="11.537874935924956"><ele>149.0</ele><time>2026-04-12T15:01:04.999Z</time></trkpt><trkpt lat="42.4971506139969" lon="11.538052041860155"><ele>150.0</ele><time>2026-04-12T15:01:05.999Z</time></trkpt><trkpt lat="42.49708591858199" lon="11.538236719511174"><ele>149.0</ele><time>2026-04-12T15:01:06.998Z</time></trkpt><trkpt lat="42.49702335790572" lon="11.538414879058807"><ele>148.0</ele><time>2026-04-12T15:01:07.998Z</time></trkpt><trkpt lat="42.49696496838062" lon="11.538580329492873"><ele>147.0</ele><time>2026-04-12T15:01:08.998Z</time></trkpt><trkpt lat="42.49690890488245" lon="11.53873918927076"><ele>146.0</ele><time>2026-04-12T15:01:09.998Z</time></trkpt><trkpt lat="42.49685113035838" lon="11.538902897029034"><ele>145.25</ele><time>2026-04-12T15:01:10.998Z</time></trkpt><trkpt lat="42.49679711428955" lon="11.539055954990602"><ele>144.5</ele><time>2026-04-12T15:01:11.998Z</time></trkpt><trkpt lat="42.49674563261993" lon="11.53920092519574"><ele>143.75</ele><time>2026-04-12T15:01:12.998Z</time></trkpt><trkpt lat="42.496692730152546" lon="11.539346116321344"><ele>143.0</ele><time>2026-04-12T15:01:13.998Z</time></trkpt><trkpt lat="42.49663794092867" lon="11.539496485869867"><ele>143.25</ele><time>2026-04-12T15:01:14.998Z</time></trkpt><trkpt lat="42.49658203611565" lon="11.539649917026315"><ele>143.5</ele><time>2026-04-12T15:01:15.998Z</time></trkpt><trkpt lat="42.496522760819694" lon="11.539796324831762"><ele>143.75</ele><time>2026-04-12T15:01:16.998Z</time></trkpt><trkpt lat="42.4964548079232" lon="11.539929790668262"><ele>144.0</ele><time>2026-04-12T15:01:17.998Z</time></trkpt><trkpt lat="42.496377453296276" lon="11.540046551052285"><ele>144.0</ele><time>2026-04-12T15:01:18.998Z</time></trkpt><trkpt lat="42.496288067433504" lon="11.540158379746575"><ele>144.0</ele><time>2026-04-12T15:01:19.998Z</time></trkpt><trkpt lat="42.49619132707185" lon="11.540262326144623"><ele>144.0</ele><time>2026-04-12T15:01:20.998Z</time></trkpt><trkpt lat="42.49609014621825" lon="11.540366789597266"><ele>144.0</ele><time>2026-04-12T15:01:21.998Z</time></trkpt><trkpt lat="42.49599633889493" lon="11.540484919680178"><ele>145.5</ele><time>2026-04-12T15:01:22.998Z</time></trkpt><trkpt lat="42.49589250562334" lon="11.540586923544534"><ele>147.0</ele><time>2026-04-12T15:01:23.998Z</time></trkpt><trkpt lat="42.49578419276796" lon="11.540697045258662"><ele>148.5</ele><time>2026-04-12T15:01:24.998Z</time></trkpt><trkpt lat="42.49566441738527" lon="11.540790746032261"><ele>150.0</ele><time>2026-04-12T15:01:26Z</time></trkpt><trkpt lat="42.49555305498603" lon="11.54090178457153"><ele>150.0</ele><time>2026-04-12T15:01:27Z</time></trkpt><trkpt lat="42.49544323218743" lon="11.541011288164302"><ele>150.0</ele><time>2026-04-12T15:01:28Z</time></trkpt><trkpt lat="42.495341488777306" lon="11.541134421404587"><ele>150.0</ele><time>2026-04-12T15:01:29Z</time></trkpt><trkpt lat="42.49523558253932" lon="11.541238643536827"><ele>150.0</ele><time>2026-04-12T15:01:30Z</time></trkpt><trkpt lat="42.495134163870404" lon="11.541342160346861"><ele>149.5</ele><time>2026-04-12T15:01:31Z</time></trkpt><trkpt lat="42.4950335048694" lon="11.541446929309814"><ele>149.0</ele><time>2026-04-12T15:01:32Z</time></trkpt><trkpt lat="42.494931860015825" lon="11.541548739338522"><ele>148.5</ele><time>2026-04-12T15:01:33Z</time></trkpt><trkpt lat="42.49482928583636" lon="11.541655270822668"><ele>148.0</ele><time>2026-04-12T15:01:34Z</time></trkpt><trkpt lat="42.49472381786321" lon="11.541768329623611"><ele>148.0</ele><time>2026-04-12T15:01:35Z</time></trkpt><trkpt lat="42.49461918500596" lon="11.541890100800302"><ele>148.0</ele><time>2026-04-12T15:01:36Z</time></trkpt><trkpt lat="42.4945176046489" lon="11.542019387899268"><ele>148.0</ele><time>2026-04-12T15:01:37Z</time></trkpt><trkpt lat="42.4944151865542" lon="11.54215804946514"><ele>148.0</ele><time>2026-04-12T15:01:38Z</time></trkpt><trkpt lat="42.49431722770413" lon="11.542305257592178"><ele>145.66666666666669</ele><time>2026-04-12T15:01:39Z</time></trkpt><trkpt lat="42.4942045221666" lon="11.542442546890028"><ele>143.33333333333334</ele><time>2026-04-12T15:01:40Z</time></trkpt><trkpt lat="42.49409997238765" lon="11.542599656929196"><ele>141.0</ele><time>2026-04-12T15:01:41Z</time></trkpt><trkpt lat="42.49400708346956" lon="11.5427701000075"><ele>139.66666666666666</ele><time>2026-04-12T15:01:42Z</time></trkpt><trkpt lat="42.493897181418085" lon="11.542934833946358"><ele>138.33333333333331</ele><time>2026-04-12T15:01:43Z</time></trkpt><trkpt lat="42.49378206633776" lon="11.543075027353476"><ele>137.0</ele><time>2026-04-12T15:01:44Z</time></trkpt><trkpt lat="42.493680722912195" lon="11.543226843299797"><ele>137.0</ele><time>2026-04-12T15:01:45Z</time></trkpt><trkpt lat="42.49360120320333" lon="11.543379202989982"><ele>137.0</ele><time>2026-04-12T15:01:46Z</time></trkpt><trkpt lat="42.49350336488128" lon="11.543493803303287"><ele>137.0</ele><time>2026-04-12T15:01:47Z</time></trkpt><trkpt lat="42.49343676866774" lon="11.543626902124764"><ele>137.0</ele><time>2026-04-12T15:01:48Z</time></trkpt><trkpt lat="42.49335438799211" lon="11.543746129982711"><ele>137.4</ele><time>2026-04-12T15:01:49Z</time></trkpt><trkpt lat="42.49327598864414" lon="11.543866165858391"><ele>137.79999999999998</ele><time>2026-04-12T15:01:50Z</time></trkpt><trkpt lat="42.49318986372446" lon="11.543957853525423"><ele>138.2</ele><time>2026-04-12T15:01:51Z</time></trkpt><trkpt lat="42.493124056451755" lon="11.544071154892903"><ele>138.6</ele><time>2026-04-12T15:01:52Z</time></trkpt><trkpt lat="42.49302374644164" lon="11.544142104472535"><ele>139.0</ele><time>2026-04-12T15:01:53Z</time></trkpt><trkpt lat="42.4929218944423" lon="11.54420094355241"><ele>139.0</ele><time>2026-04-12T15:01:53.999Z</time></trkpt><trkpt lat="42.49279349072754" lon="11.544249104291204"><ele>139.0</ele><time>2026-04-12T15:01:54.999Z</time></trkpt><trkpt lat="42.49267107265483" lon="11.54428422809231"><ele>139.0</ele><time>2026-04-12T15:01:55.999Z</time></trkpt><trkpt lat="42.49254859139873" lon="11.54431867132683"><ele>139.0</ele><time>2026-04-12T15:01:56.999Z</time></trkpt><trkpt lat="42.492420908002465" lon="11.544354999378296"><ele>139.0</ele><time>2026-04-12T15:01:57.999Z</time></trkpt><trkpt lat="42.49229307758823" lon="11.544391369270011"><ele>139.0</ele><time>2026-04-12T15:01:58.999Z</time></trkpt><trkpt lat="42.49216511279464" lon="11.544427777367856"><ele>139.0</ele><time>2026-04-12T15:01:59.999Z</time></trkpt><trkpt lat="42.49204150207962" lon="11.544462946687775"><ele>139.0</ele><time>2026-04-12T15:02:00.999Z</time></trkpt><trkpt lat="42.49192977992574" lon="11.544512681824159"><ele>139.75</ele><time>2026-04-12T15:02:01.999Z</time></trkpt><trkpt lat="42.49181615695735" lon="11.544540425552"><ele>140.5</ele><time>2026-04-12T15:02:02.999Z</time></trkpt><trkpt lat="42.491711617002686" lon="11.544583584340767"><ele>141.25</ele><time>2026-04-12T15:02:03.999Z</time></trkpt><trkpt lat="42.491608636325104" lon="11.544656893167103"><ele>142.0</ele><time>2026-04-12T15:02:04.999Z</time></trkpt><trkpt lat="42.49150993433536" lon="11.544755363776382"><ele>142.0</ele><time>2026-04-12T15:02:05.999Z</time></trkpt><trkpt lat="42.49142014966522" lon="11.544871499435901"><ele>142.0</ele><time>2026-04-12T15:02:06.999Z</time></trkpt><trkpt lat="42.491343445685246" lon="11.545003226009493"><ele>142.0</ele><time>2026-04-12T15:02:07.999Z</time></trkpt><trkpt lat="42.49126143873764" lon="11.545128155535231"><ele>142.0</ele><time>2026-04-12T15:02:08.999Z</time></trkpt><trkpt lat="42.49116814034464" lon="11.54525449724819"><ele>140.5</ele><time>2026-04-12T15:02:09.999Z</time></trkpt><trkpt lat="42.491069965366705" lon="11.5453883750041"><ele>139.0</ele><time>2026-04-12T15:02:10.999Z</time></trkpt><trkpt lat="42.49096885767846" lon="11.545513718031719"><ele>137.5</ele><time>2026-04-12T15:02:11.999Z</time></trkpt><trkpt lat="42.49086742814927" lon="11.545640445227624"><ele>136.0</ele><time>2026-04-12T15:02:12.999Z</time></trkpt><trkpt lat="42.49077162563656" lon="11.545766195666195"><ele>136.0</ele><time>2026-04-12T15:02:13.999Z</time></trkpt><trkpt lat="42.49067231415" lon="11.545896007190597"><ele>136.0</ele><time>2026-04-12T15:02:14.999Z</time></trkpt><trkpt lat="42.49056318529663" lon="11.546008422617513"><ele>136.0</ele><time>2026-04-12T15:02:15.999Z</time></trkpt><trkpt lat="42.49046672580039" lon="11.546161036573656"><ele>136.0</ele><time>2026-04-12T15:02:16.999Z</time></trkpt><trkpt lat="42.49035452328741" lon="11.546301502441276"><ele>135.33333333333334</ele><time>2026-04-12T15:02:17.999Z</time></trkpt><trkpt lat="42.49024459417922" lon="11.546446035718953"><ele>134.66666666666666</ele><time>2026-04-12T15:02:18.999Z</time></trkpt><trkpt lat="42.49012160184332" lon="11.546578292612168"><ele>134.0</ele><time>2026-04-12T15:02:19.999Z</time></trkpt><trkpt lat="42.49001289129587" lon="11.546719081205653"><ele>134.0</ele><time>2026-04-12T15:02:20.999Z</time></trkpt><trkpt lat="42.48991574392216" lon="11.546875405828251"><ele>134.0</ele><time>2026-04-12T15:02:21.999Z</time></trkpt><trkpt lat="42.489798203698655" lon="11.546997047147839"><ele>134.0</ele><time>2026-04-12T15:02:22.999Z</time></trkpt><trkpt lat="42.489692391264" lon="11.547133298195464"><ele>134.0</ele><time>2026-04-12T15:02:23.999Z</time></trkpt><trkpt lat="42.48958484406908" lon="11.547271783077942"><ele>133.5</ele><time>2026-04-12T15:02:24.999Z</time></trkpt><trkpt lat="42.48947688430006" lon="11.547409048975954"><ele>133.0</ele><time>2026-04-12T15:02:25.999Z</time></trkpt><trkpt lat="42.48936986595311" lon="11.547547058128478"><ele>132.5</ele><time>2026-04-12T15:02:26.999Z</time></trkpt><trkpt lat="42.4892639159997" lon="11.547683689495729"><ele>132.0</ele><time>2026-04-12T15:02:27.999Z</time></trkpt><trkpt lat="42.4891523202911" lon="11.547827695081267"><ele>132.66666666666666</ele><time>2026-04-12T15:02:28.999Z</time></trkpt><trkpt lat="42.489042392135055" lon="11.547969617641524"><ele>133.33333333333331</ele><time>2026-04-12T15:02:29.999Z</time></trkpt><trkpt lat="42.48892923401479" lon="11.548115710262689"><ele>134.0</ele><time>2026-04-12T15:02:30.999Z</time></trkpt><trkpt lat="42.48881938984307" lon="11.54825752434961"><ele>134.0</ele><time>2026-04-12T15:02:31.999Z</time></trkpt><trkpt lat="42.48871098807639" lon="11.548397472744377"><ele>134.0</ele><time>2026-04-12T15:02:32.999Z</time></trkpt><trkpt lat="42.488603822632484" lon="11.548535823443228"><ele>134.0</ele><time>2026-04-12T15:02:33.999Z</time></trkpt><trkpt lat="42.48849878192797" lon="11.548671431089598"><ele>134.0</ele><time>2026-04-12T15:02:34.999Z</time></trkpt><trkpt lat="42.48839286085864" lon="11.54880817532251"><ele>134.0</ele><time>2026-04-12T15:02:35.999Z</time></trkpt><trkpt lat="42.4882867629349" lon="11.548945147998394"><ele>134.0</ele><time>2026-04-12T15:02:36.999Z</time></trkpt><trkpt lat="42.48817978909208" lon="11.549081741499496"><ele>134.0</ele><time>2026-04-12T15:02:37.999Z</time></trkpt><trkpt lat="42.488072363699324" lon="11.549219668405982"><ele>134.0</ele><time>2026-04-12T15:02:38.999Z</time></trkpt><trkpt lat="42.48796436077002" lon="11.549358337204024"><ele>132.33333333333331</ele><time>2026-04-12T15:02:39.999Z</time></trkpt><trkpt lat="42.48785137516891" lon="11.549503403032126"><ele>130.66666666666666</ele><time>2026-04-12T15:02:40.999Z</time></trkpt><trkpt lat="42.48774600809514" lon="11.549666269409808"><ele>129.0</ele><time>2026-04-12T15:02:41.999Z</time></trkpt><trkpt lat="42.48764137216621" lon="11.549793246524294"><ele>129.0</ele><time>2026-04-12T15:02:42.999Z</time></trkpt><trkpt lat="42.48753625654711" lon="11.549900425019374"><ele>129.0</ele><time>2026-04-12T15:02:43.999Z</time></trkpt><trkpt lat="42.48742923189781" lon="11.550023032460762"><ele>129.0</ele><time>2026-04-12T15:02:44.999Z</time></trkpt><trkpt lat="42.48731645326642" lon="11.550143015770926"><ele>129.0</ele><time>2026-04-12T15:02:45.999Z</time></trkpt><trkpt lat="42.48720043149433" lon="11.550260873761399"><ele>129.0</ele><time>2026-04-12T15:02:46.999Z</time></trkpt><trkpt lat="42.4870955334944" lon="11.550366036667697"><ele>129.0</ele><time>2026-04-12T15:02:47.999Z</time></trkpt><trkpt lat="42.48699183473595" lon="11.550467920471641"><ele>129.0</ele><time>2026-04-12T15:02:48.999Z</time></trkpt><trkpt lat="42.48689123501725" lon="11.550565611230182"><ele>129.0</ele><time>2026-04-12T15:02:49.999Z</time></trkpt><trkpt lat="42.486793077638815" lon="11.550660930270489"><ele>129.75</ele><time>2026-04-12T15:02:50.999Z</time></trkpt><trkpt lat="42.48669058529631" lon="11.550760458927513"><ele>130.5</ele><time>2026-04-12T15:02:51.999Z</time></trkpt><trkpt lat="42.48658362055634" lon="11.550864612717648"><ele>131.25</ele><time>2026-04-12T15:02:52.999Z</time></trkpt><trkpt lat="42.48648161609495" lon="11.550964770384963"><ele>132.0</ele><time>2026-04-12T15:02:53.999Z</time></trkpt><trkpt lat="42.48638751449659" lon="11.551057166921138"><ele>132.0</ele><time>2026-04-12T15:02:54.999Z</time></trkpt><trkpt lat="42.48630305803443" lon="11.551140093099573"><ele>132.0</ele><time>2026-04-12T15:02:55.999Z</time></trkpt><trkpt lat="42.48622620594503" lon="11.551215552692977"><ele>132.0</ele><time>2026-04-12T15:02:56.999Z</time></trkpt><trkpt lat="42.48612306078487" lon="11.551316828937413"><ele>132.0</ele><time>2026-04-12T15:02:57.999Z</time></trkpt><trkpt lat="42.486029057876735" lon="11.551409859171466"><ele>132.0</ele><time>2026-04-12T15:02:58.999Z</time></trkpt><trkpt lat="42.48594663020916" lon="11.551492893812052"><ele>132.6</ele><time>2026-04-12T15:02:59.999Z</time></trkpt><trkpt lat="42.48586926294979" lon="11.551570830796688"><ele>133.2</ele><time>2026-04-12T15:03:00.999Z</time></trkpt><trkpt lat="42.485799784449945" lon="11.551661413829569"><ele>133.8</ele><time>2026-04-12T15:03:01.999Z</time></trkpt><trkpt lat="42.48571338056157" lon="11.551740088477999"><ele>134.4</ele><time>2026-04-12T15:03:02.999Z</time></trkpt><trkpt lat="42.48563388500796" lon="11.551833301023272"><ele>135.0</ele><time>2026-04-12T15:03:03.999Z</time></trkpt><trkpt lat="42.48555704547326" lon="11.55194259357199"><ele>134.25</ele><time>2026-04-12T15:03:04.999Z</time></trkpt><trkpt lat="42.48548179342564" lon="11.552064855704598"><ele>133.5</ele><time>2026-04-12T15:03:05.999Z</time></trkpt><trkpt lat="42.485411373138646" lon="11.55218701326179"><ele>132.75</ele><time>2026-04-12T15:03:06.999Z</time></trkpt><trkpt lat="42.48535129688218" lon="11.552332949192332"><ele>132.0</ele><time>2026-04-12T15:03:07.999Z</time></trkpt><trkpt lat="42.485306302386114" lon="11.552482385855066"><ele>132.0</ele><time>2026-04-12T15:03:08.999Z</time></trkpt><trkpt lat="42.48526544320688" lon="11.552625671065574"><ele>132.0</ele><time>2026-04-12T15:03:09.999Z</time></trkpt><trkpt lat="42.48522571255811" lon="11.552772397380902"><ele>132.0</ele><time>2026-04-12T15:03:10.999Z</time></trkpt><trkpt lat="42.48519202646582" lon="11.552930014558505"><ele>132.0</ele><time>2026-04-12T15:03:11.999Z</time></trkpt><trkpt lat="42.48515854230487" lon="11.55307901911386"><ele>133.4</ele><time>2026-04-12T15:03:12.999Z</time></trkpt><trkpt lat="42.48512961541205" lon="11.553215119863747"><ele>134.79999999999998</ele><time>2026-04-12T15:03:13.998Z</time></trkpt><trkpt lat="42.48510238275479" lon="11.553344327406665"><ele>136.2</ele><time>2026-04-12T15:03:14.998Z</time></trkpt><trkpt lat="42.48507680204105" lon="11.553460231603788"><ele>137.6</ele><time>2026-04-12T15:03:15.998Z</time></trkpt><trkpt lat="42.48504582841406" lon="11.553585056110329"><ele>139.0</ele><time>2026-04-12T15:03:16.998Z</time></trkpt><trkpt lat="42.4850132590547" lon="11.55371324096078"><ele>140.5</ele><time>2026-04-12T15:03:17.998Z</time></trkpt><trkpt lat="42.48497310737356" lon="11.553856487105184"><ele>142.0</ele><time>2026-04-12T15:03:18.998Z</time></trkpt><trkpt lat="42.484941426661784" lon="11.554002012692578"><ele>143.5</ele><time>2026-04-12T15:03:19.998Z</time></trkpt><trkpt lat="42.48488830553809" lon="11.554153765913926"><ele>145.0</ele><time>2026-04-12T15:03:20.998Z</time></trkpt><trkpt lat="42.48482537098858" lon="11.554309813372717"><ele>145.0</ele><time>2026-04-12T15:03:21.998Z</time></trkpt><trkpt lat="42.484760271481235" lon="11.554466629569283"><ele>145.0</ele><time>2026-04-12T15:03:22.998Z</time></trkpt><trkpt lat="42.48468468742861" lon="11.55461386888897"><ele>145.0</ele><time>2026-04-12T15:03:23.998Z</time></trkpt><trkpt lat="42.48461143809309" lon="11.554757953034077"><ele>145.0</ele><time>2026-04-12T15:03:24.998Z</time></trkpt><trkpt lat="42.484529297407256" lon="11.554892655111372"><ele>145.0</ele><time>2026-04-12T15:03:25.998Z</time></trkpt><trkpt lat="42.48444327230845" lon="11.555023337018614"><ele>145.0</ele><time>2026-04-12T15:03:26.998Z</time></trkpt><trkpt lat="42.484344001208605" lon="11.55514167328148"><ele>145.0</ele><time>2026-04-12T15:03:27.998Z</time></trkpt><trkpt lat="42.48424688040806" lon="11.555251697224833"><ele>145.0</ele><time>2026-04-12T15:03:28.998Z</time></trkpt><trkpt lat="42.48415343475628" lon="11.555350237931727"><ele>145.0</ele><time>2026-04-12T15:03:29.998Z</time></trkpt><trkpt lat="42.48408131480352" lon="11.555417441810459"><ele>145.0</ele><time>2026-04-12T15:03:30.998Z</time></trkpt><trkpt lat="42.48402087265735" lon="11.55546538692482"><ele>145.0</ele><time>2026-04-12T15:03:32Z</time></trkpt><trkpt lat="42.483937839888775" lon="11.55546110064282"><ele>145.0</ele><time>2026-04-12T15:03:34Z</time></trkpt><trkpt lat="42.48381502137243" lon="11.555329249107503"><ele>145.0</ele><time>2026-04-12T15:03:37Z</time></trkpt><trkpt lat="42.483748456692126" lon="11.555177357532392"><ele>145.33333333333334</ele><time>2026-04-12T15:03:39Z</time></trkpt><trkpt lat="42.48370398843484" lon="11.555099412193066"><ele>145.66666666666669</ele><time>2026-04-12T15:03:40Z</time></trkpt><trkpt lat="42.48366433603177" lon="11.555012223273568"><ele>146.0</ele><time>2026-04-12T15:03:41Z</time></trkpt><trkpt lat="42.483619900056745" lon="11.55491834730775"><ele>146.33333333333334</ele><time>2026-04-12T15:03:42Z</time></trkpt><trkpt lat="42.48357872063766" lon="11.554829191774353"><ele>146.66666666666666</ele><time>2026-04-12T15:03:43Z</time></trkpt><trkpt lat="42.48352024994017" lon="11.55475766427527"><ele>147.0</ele><time>2026-04-12T15:03:44Z</time></trkpt><trkpt lat="42.483462923029734" lon="11.55470318834178"><ele>147.0</ele><time>2026-04-12T15:03:45Z</time></trkpt><trkpt lat="42.48335150895653" lon="11.554656692261332"><ele>147.0</ele><time>2026-04-12T15:03:47Z</time></trkpt><trkpt lat="42.48327747041023" lon="11.554643584408783"><ele>147.0</ele><time>2026-04-12T15:03:48Z</time></trkpt><trkpt lat="42.483196523899174" lon="11.554623024653896"><ele>147.0</ele><time>2026-04-12T15:03:49Z</time></trkpt><trkpt lat="42.48310816034909" lon="11.554603780454451"><ele>147.0</ele><time>2026-04-12T15:03:50Z</time></trkpt><trkpt lat="42.48302106489391" lon="11.554575649617847"><ele>147.0</ele><time>2026-04-12T15:03:51Z</time></trkpt><trkpt lat="42.48293507947525" lon="11.554547117058762"><ele>147.0</ele><time>2026-04-12T15:03:52Z</time></trkpt><trkpt lat="42.48284826824311" lon="11.554518550572109"><ele>147.0</ele><time>2026-04-12T15:03:53Z</time></trkpt><trkpt lat="42.4827733507532" lon="11.554492157882855"><ele>147.0</ele><time>2026-04-12T15:03:54Z</time></trkpt><trkpt lat="42.482697517175595" lon="11.554459933941484"><ele>147.0</ele><time>2026-04-12T15:03:55Z</time></trkpt><trkpt lat="42.48262681773159" lon="11.554431203675597"><ele>147.0</ele><time>2026-04-12T15:03:55.999Z</time></trkpt><trkpt lat="42.48254722822974" lon="11.554396254691234"><ele>145.16666666666666</ele><time>2026-04-12T15:03:56.999Z</time></trkpt><trkpt lat="42.48247473071173" lon="11.554363634182394"><ele>143.33333333333334</ele><time>2026-04-12T15:03:57.999Z</time></trkpt><trkpt lat="42.48240395972418" lon="11.55433696478836"><ele>141.5</ele><time>2026-04-12T15:03:58.999Z</time></trkpt><trkpt lat="42.48232646042528" lon="11.55431620462345"><ele>139.66666666666669</ele><time>2026-04-12T15:03:59.999Z</time></trkpt><trkpt lat="42.482251874836955" lon="11.554324113295639"><ele>137.83333333333334</ele><time>2026-04-12T15:04:00.999Z</time></trkpt><trkpt lat="42.482171345960865" lon="11.554338917239733"><ele>136.0</ele><time>2026-04-12T15:04:01.999Z</time></trkpt><trkpt lat="42.48207343699303" lon="11.554374213743966"><ele>135.0</ele><time>2026-04-12T15:04:03.999Z</time></trkpt><trkpt lat="42.481992644705315" lon="11.55431714353785"><ele>134.0</ele><time>2026-04-12T15:04:05.999Z</time></trkpt><trkpt lat="42.48192758661857" lon="11.55438117066404"><ele>133.0</ele><time>2026-04-12T15:12:15Z</time></trkpt><trkpt lat="42.48184735186653" lon="11.554356632512198"><ele>132.0</ele><time>2026-04-12T15:12:23Z</time></trkpt><trkpt lat="42.48173647900502" lon="11.554359565056494"><ele>131.0</ele><time>2026-04-12T15:12:25Z</time></trkpt><trkpt lat="42.481672678759836" lon="11.554368571062732"><ele>130.0</ele><time>2026-04-12T15:12:26Z</time></trkpt><trkpt lat="42.48155582516124" lon="11.554398243554985"><ele>130.0</ele><time>2026-04-12T15:12:28Z</time></trkpt><trkpt lat="42.48145775371856" lon="11.554386945939722"><ele>130.0</ele><time>2026-04-12T15:12:30Z</time></trkpt><trkpt lat="42.481385744004704" lon="11.554395604496625"><ele>130.0</ele><time>2026-04-12T15:12:31Z</time></trkpt><trkpt lat="42.481265657919586" lon="11.554430457644171"><ele>130.0</ele><time>2026-04-12T15:12:33Z</time></trkpt><trkpt lat="42.48120230777581" lon="11.55441815691222"><ele>130.0</ele><time>2026-04-12T15:12:34Z</time></trkpt><trkpt lat="42.481089349520744" lon="11.554432044471495"><ele>128.75</ele><time>2026-04-12T15:12:36Z</time></trkpt><trkpt lat="42.48098067398614" lon="11.554442095404378"><ele>127.5</ele><time>2026-04-12T15:12:37.999Z</time></trkpt><trkpt lat="42.48086143379389" lon="11.5544514745859"><ele>126.25</ele><time>2026-04-12T15:12:39.999Z</time></trkpt><trkpt lat="42.48074347455356" lon="11.554453610907084"><ele>125.0</ele><time>2026-04-12T15:12:41.999Z</time></trkpt><trkpt lat="42.48062815978135" lon="11.554445111101412"><ele>125.0</ele><time>2026-04-12T15:12:43.999Z</time></trkpt><trkpt lat="42.48052928211495" lon="11.554428664264066"><ele>125.0</ele><time>2026-04-12T15:12:45.999Z</time></trkpt><trkpt lat="42.48041588009813" lon="11.554405635327882"><ele>125.0</ele><time>2026-04-12T15:12:47.999Z</time></trkpt><trkpt lat="42.48035166292809" lon="11.554392077964163"><ele>125.0</ele><time>2026-04-12T15:12:48.999Z</time></trkpt><trkpt lat="42.48028360426022" lon="11.554389037329004"><ele>125.0</ele><time>2026-04-12T15:12:49.999Z</time></trkpt><trkpt lat="42.480122892918075" lon="11.554372396094545"><ele>124.6</ele><time>2026-04-12T15:12:52.999Z</time></trkpt><trkpt lat="42.480008085843075" lon="11.554368949947351"><ele>124.2</ele><time>2026-04-12T15:12:54.999Z</time></trkpt><trkpt lat="42.479881885107766" lon="11.554349555994635"><ele>123.80000000000001</ele><time>2026-04-12T15:12:56.999Z</time></trkpt><trkpt lat="42.47981376056946" lon="11.554348312337071"><ele>123.4</ele><time>2026-04-12T15:12:57.999Z</time></trkpt><trkpt lat="42.479701918697444" lon="11.554346270593276"><ele>123.0</ele><time>2026-04-12T15:12:59.999Z</time></trkpt><trkpt lat="42.47958516255077" lon="11.55436617629761"><ele>122.33333333333333</ele><time>2026-04-12T15:13:01.999Z</time></trkpt><trkpt lat="42.47946117653591" lon="11.554364784141123"><ele>121.66666666666666</ele><time>2026-04-12T15:13:03.999Z</time></trkpt><trkpt lat="42.47939210007121" lon="11.554363611376898"><ele>121.0</ele><time>2026-04-12T15:13:04.999Z</time></trkpt><trkpt lat="42.47931538134646" lon="11.554370233204885"><ele>120.33333333333333</ele><time>2026-04-12T15:13:05.999Z</time></trkpt><trkpt lat="42.47923434828337" lon="11.554380785461513"><ele>119.66666666666666</ele><time>2026-04-12T15:13:06.999Z</time></trkpt><trkpt lat="42.47915600784544" lon="11.554391855773334"><ele>119.0</ele><time>2026-04-12T15:13:07.999Z</time></trkpt><trkpt lat="42.47907755458726" lon="11.554408188138408"><ele>118.99999999999999</ele><time>2026-04-12T15:13:08.999Z</time></trkpt><trkpt lat="42.47898415412315" lon="11.554423333379308"><ele>119.0</ele><time>2026-04-12T15:13:09.999Z</time></trkpt><trkpt lat="42.47888817676877" lon="11.554424151321665"><ele>119.0</ele><time>2026-04-12T15:13:10.999Z</time></trkpt><trkpt lat="42.4788079599532" lon="11.554469573392677"><ele>119.0</ele><time>2026-04-12T15:13:11.999Z</time></trkpt><trkpt lat="42.47873817351373" lon="11.554494017676317"><ele>118.99999999999999</ele><time>2026-04-12T15:13:12.999Z</time></trkpt><trkpt lat="42.47867288178491" lon="11.554504310296826"><ele>119.0</ele><time>2026-04-12T15:13:13.999Z</time></trkpt><trkpt lat="42.478587501752585" lon="11.554561032548586"><ele>119.0</ele><time>2026-04-12T15:13:15.999Z</time></trkpt><trkpt lat="42.4785165347315" lon="11.55457042552413"><ele>119.0</ele><time>2026-04-12T15:13:17.999Z</time></trkpt><trkpt lat="42.47842448753538" lon="11.554609936254138"><ele>119.0</ele><time>2026-04-12T15:13:19.999Z</time></trkpt><trkpt lat="42.47831899986214" lon="11.554661264416614"><ele>119.0</ele><time>2026-04-12T15:13:21.999Z</time></trkpt><trkpt lat="42.478196121557296" lon="11.554676878461335"><ele>119.0</ele><time>2026-04-12T15:13:23.999Z</time></trkpt><trkpt lat="42.478076403039324" lon="11.554694997942306"><ele>118.99999999999999</ele><time>2026-04-12T15:13:25.999Z</time></trkpt><trkpt lat="42.47801319746439" lon="11.55466978859661"><ele>119.0</ele><time>2026-04-12T15:13:26.999Z</time></trkpt><trkpt lat="42.47794828809852" lon="11.554664412621918"><ele>119.0</ele><time>2026-04-12T15:13:27.999Z</time></trkpt><trkpt lat="42.47787849352035" lon="11.554689361298353"><ele>119.0</ele><time>2026-04-12T15:13:28.999Z</time></trkpt><trkpt lat="42.47780858615527" lon="11.554685500690956"><ele>118.99999999999999</ele><time>2026-04-12T15:13:29.999Z</time></trkpt><trkpt lat="42.47772493286381" lon="11.554685447130835"><ele>119.0</ele><time>2026-04-12T15:13:30.999Z</time></trkpt><trkpt lat="42.47759502526221" lon="11.554699616991952"><ele>118.99999999999999</ele><time>2026-04-12T15:13:32.999Z</time></trkpt><trkpt lat="42.47752752604221" lon="11.554705250307581"><ele>119.0</ele><time>2026-04-12T15:13:33.999Z</time></trkpt><trkpt lat="42.477443336345935" lon="11.554709990923733"><ele>119.0</ele><time>2026-04-12T15:13:34.999Z</time></trkpt><trkpt lat="42.477318665484724" lon="11.554708888256984"><ele>119.0</ele><time>2026-04-12T15:13:36.999Z</time></trkpt><trkpt lat="42.47725056831229" lon="11.55470748043254"><ele>118.99999999999999</ele><time>2026-04-12T15:13:37.999Z</time></trkpt><trkpt lat="42.47718460546835" lon="11.554704845378497"><ele>119.0</ele><time>2026-04-12T15:13:38.999Z</time></trkpt><trkpt lat="42.47712103783021" lon="11.554701418554426"><ele>119.99999999999999</ele><time>2026-04-12T15:13:39.999Z</time></trkpt><trkpt lat="42.4770567113503" lon="11.55469701747909"><ele>121.0</ele><time>2026-04-12T15:13:40.999Z</time></trkpt><trkpt lat="42.47699081124086" lon="11.554690097646283"><ele>122.0</ele><time>2026-04-12T15:13:41.999Z</time></trkpt><trkpt lat="42.47688433471033" lon="11.554667006128923"><ele>123.0</ele><time>2026-04-12T15:13:43.999Z</time></trkpt><trkpt lat="42.476820856204554" lon="11.554647726334467"><ele>123.99999999999999</ele><time>2026-04-12T15:13:44.999Z</time></trkpt><trkpt lat="42.47677517805313" lon="11.554570039688837"><ele>125.0</ele><time>2026-04-12T15:13:53.999Z</time></trkpt><trkpt lat="42.476728194504275" lon="11.554480041380273"><ele>126.66666666666666</ele><time>2026-04-12T15:13:55.999Z</time></trkpt><trkpt lat="42.47671448182061" lon="11.554393643853873"><ele>128.33333333333331</ele><time>2026-04-12T15:13:57.998Z</time></trkpt><trkpt lat="42.47671296989578" lon="11.554295029044928"><ele>130.0</ele><time>2026-04-12T15:13:59.998Z</time></trkpt><trkpt lat="42.47672489344073" lon="11.55419806031755"><ele>131.66666666666666</ele><time>2026-04-12T15:14:02Z</time></trkpt><trkpt lat="42.476739599534135" lon="11.5541112683358"><ele>133.33333333333334</ele><time>2026-04-12T15:14:04Z</time></trkpt><trkpt lat="42.476750679194026" lon="11.553980983706966"><ele>135.0</ele><time>2026-04-12T15:14:06Z</time></trkpt><trkpt lat="42.47679351773424" lon="11.55385037807172"><ele>135.0</ele><time>2026-04-12T15:14:08Z</time></trkpt><trkpt lat="42.476822870541795" lon="11.55370835004096"><ele>135.0</ele><time>2026-04-12T15:14:10Z</time></trkpt><trkpt lat="42.476836040605534" lon="11.553584417374102"><ele>135.0</ele><time>2026-04-12T15:14:12Z</time></trkpt><trkpt lat="42.476888157657825" lon="11.553459613700394"><ele>135.0</ele><time>2026-04-12T15:14:14Z</time></trkpt><trkpt lat="42.476937337116" lon="11.55336943718885"><ele>135.0</ele><time>2026-04-12T15:14:16Z</time></trkpt><trkpt lat="42.477000108613815" lon="11.553305926178828"><ele>135.5</ele><time>2026-04-12T15:14:26Z</time></trkpt><trkpt lat="42.47707249646895" lon="11.553212868400136"><ele>136.0</ele><time>2026-04-12T15:14:28Z</time></trkpt><trkpt lat="42.477115016148474" lon="11.553100042035537"><ele>136.5</ele><time>2026-04-12T15:14:30Z</time></trkpt><trkpt lat="42.47715083334574" lon="11.552974391058134"><ele>137.0</ele><time>2026-04-12T15:14:32Z</time></trkpt><trkpt lat="42.47713529698859" lon="11.55287068227343"><ele>137.5</ele><time>2026-04-12T15:14:34Z</time></trkpt><trkpt lat="42.4771062563525" lon="11.552785515174243"><ele>138.0</ele><time>2026-04-12T15:14:35Z</time></trkpt><trkpt lat="42.47706056327911" lon="11.552715545464357"><ele>141.6</ele><time>2026-04-12T15:14:36Z</time></trkpt><trkpt lat="42.477006399358594" lon="11.552665466471115"><ele>145.20000000000002</ele><time>2026-04-12T15:14:37Z</time></trkpt><trkpt lat="42.4769076991143" lon="11.552608958869476"><ele>148.8</ele><time>2026-04-12T15:14:39Z</time></trkpt><trkpt lat="42.4768186052997" lon="11.552525530547552"><ele>152.4</ele><time>2026-04-12T15:14:41Z</time></trkpt><trkpt lat="42.47672979042616" lon="11.552464304226104"><ele>156.0</ele><time>2026-04-12T15:14:43Z</time></trkpt><trkpt lat="42.4766810146592" lon="11.552389916744334"><ele>156.0</ele><time>2026-04-12T15:14:45Z</time></trkpt><trkpt lat="42.476657093936126" lon="11.552262661170237"><ele>156.0</ele><time>2026-04-12T15:14:46.999Z</time></trkpt><trkpt lat="42.47659203253682" lon="11.552178901347956"><ele>156.0</ele><time>2026-04-12T15:14:48.999Z</time></trkpt><trkpt lat="42.47649466501676" lon="11.552062903683662"><ele>156.0</ele><time>2026-04-12T15:14:50.999Z</time></trkpt><trkpt lat="42.47639976007245" lon="11.551979688174095"><ele>156.0</ele><time>2026-04-12T15:14:52.999Z</time></trkpt><trkpt lat="42.476306344968805" lon="11.551899436715631"><ele>157.2</ele><time>2026-04-12T15:14:54.999Z</time></trkpt><trkpt lat="42.476250048609295" lon="11.551758539539327"><ele>158.39999999999998</ele><time>2026-04-12T15:14:56.999Z</time></trkpt><trkpt lat="42.47621482964343" lon="11.551676991344968"><ele>159.6</ele><time>2026-04-12T15:14:57.999Z</time></trkpt><trkpt lat="42.47614083664722" lon="11.551532111458208"><ele>160.79999999999998</ele><time>2026-04-12T15:14:59.999Z</time></trkpt><trkpt lat="42.47609355167129" lon="11.551379701915817"><ele>162.0</ele><time>2026-04-12T15:15:01.999Z</time></trkpt><trkpt lat="42.476076718574696" lon="11.551296417873765"><ele>164.2</ele><time>2026-04-12T15:15:02.999Z</time></trkpt><trkpt lat="42.47606865809201" lon="11.551206616746388"><ele>166.39999999999998</ele><time>2026-04-12T15:15:03.999Z</time></trkpt><trkpt lat="42.47605245542678" lon="11.551069550428682"><ele>168.60000000000002</ele><time>2026-04-12T15:15:05.999Z</time></trkpt><trkpt lat="42.47602423623043" lon="11.550964206298186"><ele>170.8</ele><time>2026-04-12T15:15:07.999Z</time></trkpt><trkpt lat="42.47599486904197" lon="11.550843243787135"><ele>173.0</ele><time>2026-04-12T15:15:09.999Z</time></trkpt><trkpt lat="42.47595459525902" lon="11.550696901841631"><ele>173.0</ele><time>2026-04-12T15:15:11.999Z</time></trkpt><trkpt lat="42.47593010532334" lon="11.55059032554134"><ele>173.0</ele><time>2026-04-12T15:15:13.999Z</time></trkpt><trkpt lat="42.47592404260374" lon="11.550443071415163"><ele>173.0</ele><time>2026-04-12T15:15:15.999Z</time></trkpt><trkpt lat="42.47589346775309" lon="11.550313532521066"><ele>173.0</ele><time>2026-04-12T15:15:17.999Z</time></trkpt><trkpt lat="42.47586975336895" lon="11.550187246113087"><ele>173.0</ele><time>2026-04-12T15:15:19.999Z</time></trkpt><trkpt lat="42.475830463886425" lon="11.55002027182384"><ele>175.8</ele><time>2026-04-12T15:15:21.999Z</time></trkpt><trkpt lat="42.475821928903635" lon="11.549935601337568"><ele>178.60000000000002</ele><time>2026-04-12T15:15:22.999Z</time></trkpt><trkpt lat="42.47576996996211" lon="11.549793811236263"><ele>181.39999999999998</ele><time>2026-04-12T15:15:24.999Z</time></trkpt><trkpt lat="42.47570399627125" lon="11.549676359690645"><ele>184.2</ele><time>2026-04-12T15:15:26.999Z</time></trkpt><trkpt lat="42.47566859461528" lon="11.54960342269098"><ele>187.0</ele><time>2026-04-12T15:15:27.999Z</time></trkpt><trkpt lat="42.475588142943984" lon="11.549469853689791"><ele>189.2</ele><time>2026-04-12T15:15:29.999Z</time></trkpt><trkpt lat="42.47553865595653" lon="11.549410687940048"><ele>191.39999999999998</ele><time>2026-04-12T15:15:30.999Z</time></trkpt><trkpt lat="42.475471967439745" lon="11.549284612058898"><ele>193.60000000000002</ele><time>2026-04-12T15:15:32.999Z</time></trkpt><trkpt lat="42.47541209606674" lon="11.549170634091501"><ele>195.8</ele><time>2026-04-12T15:15:34.999Z</time></trkpt><trkpt lat="42.47542692293528" lon="11.549071219270944"><ele>198.0</ele><time>2026-04-12T15:15:36.999Z</time></trkpt><trkpt lat="42.47539333273204" lon="11.548941202173113"><ele>198.0</ele><time>2026-04-12T15:15:38.999Z</time></trkpt><trkpt lat="42.47535893578865" lon="11.54882813956322"><ele>198.0</ele><time>2026-04-12T15:15:40.999Z</time></trkpt><trkpt lat="42.47531119595714" lon="11.548745760719187"><ele>198.0</ele><time>2026-04-12T15:15:42.999Z</time></trkpt><trkpt lat="42.47523596515177" lon="11.548650535966756"><ele>198.0</ele><time>2026-04-12T15:15:44.999Z</time></trkpt><trkpt lat="42.47516421910972" lon="11.548541086084978"><ele>198.0</ele><time>2026-04-12T15:15:46.999Z</time></trkpt><trkpt lat="42.47508367974226" lon="11.548427811483252"><ele>200.16666666666666</ele><time>2026-04-12T15:15:48.999Z</time></trkpt><trkpt lat="42.475052240949815" lon="11.548321173853124"><ele>202.33333333333331</ele><time>2026-04-12T15:15:50.999Z</time></trkpt><trkpt lat="42.47503012064689" lon="11.548215703307472"><ele>204.5</ele><time>2026-04-12T15:15:52.999Z</time></trkpt><trkpt lat="42.47499386980055" lon="11.548065804627775"><ele>206.66666666666666</ele><time>2026-04-12T15:15:54.999Z</time></trkpt><trkpt lat="42.47494996901353" lon="11.547989545179322"><ele>208.83333333333331</ele><time>2026-04-12T15:15:55.999Z</time></trkpt><trkpt lat="42.47491403708278" lon="11.547902952329817"><ele>211.0</ele><time>2026-04-12T15:15:56.999Z</time></trkpt><trkpt lat="42.47484025369493" lon="11.547817809910704"><ele>213.0</ele><time>2026-04-12T15:15:58.999Z</time></trkpt><trkpt lat="42.474759413441674" lon="11.547723680604"><ele>215.0</ele><time>2026-04-12T15:16:00.999Z</time></trkpt><trkpt lat="42.47470946279181" lon="11.54764164147178"><ele>217.00000000000003</ele><time>2026-04-12T15:16:02.999Z</time></trkpt><trkpt lat="42.474631196542816" lon="11.547570918500407"><ele>219.0</ele><time>2026-04-12T15:16:04.998Z</time></trkpt><trkpt lat="42.47456742028386" lon="11.547557054239174"><ele>221.0</ele><time>2026-04-12T15:16:05.998Z</time></trkpt><trkpt lat="42.47445382942406" lon="11.547546935660087"><ele>223.0</ele><time>2026-04-12T15:16:08Z</time></trkpt><trkpt lat="42.47434916089397" lon="11.54752994499669"><ele>225.00000000000003</ele><time>2026-04-12T15:16:10Z</time></trkpt><trkpt lat="42.474242175660144" lon="11.547487073350116"><ele>227.00000000000003</ele><time>2026-04-12T15:16:12Z</time></trkpt><trkpt lat="42.4741260301103" lon="11.547483514475239"><ele>229.0</ele><time>2026-04-12T15:16:14Z</time></trkpt><trkpt lat="42.47403244135152" lon="11.547415429846133"><ele>231.0</ele><time>2026-04-12T15:16:16Z</time></trkpt><trkpt lat="42.47394124411153" lon="11.547346316391783"><ele>231.0</ele><time>2026-04-12T15:16:18Z</time></trkpt><trkpt lat="42.47384139682069" lon="11.547266086323571"><ele>231.00000000000003</ele><time>2026-04-12T15:16:20Z</time></trkpt><trkpt lat="42.4737608558308" lon="11.547192507900935"><ele>231.00000000000003</ele><time>2026-04-12T15:16:22Z</time></trkpt><trkpt lat="42.47364673675426" lon="11.547165207806186"><ele>231.0</ele><time>2026-04-12T15:16:24Z</time></trkpt><trkpt lat="42.47355109968217" lon="11.547208090921108"><ele>231.0</ele><time>2026-04-12T15:16:26Z</time></trkpt><trkpt lat="42.47345505846951" lon="11.547235617108647"><ele>231.75</ele><time>2026-04-12T15:16:28Z</time></trkpt><trkpt lat="42.47334686200673" lon="11.547225362061962"><ele>232.5</ele><time>2026-04-12T15:16:30Z</time></trkpt><trkpt lat="42.473220223834346" lon="11.547201095049362"><ele>233.25</ele><time>2026-04-12T15:16:32Z</time></trkpt><trkpt lat="42.47311370274521" lon="11.547141774776906"><ele>234.0</ele><time>2026-04-12T15:16:34Z</time></trkpt><trkpt lat="42.47301129407327" lon="11.547102612085343"><ele>239.39999999999998</ele><time>2026-04-12T15:16:36Z</time></trkpt><trkpt lat="42.47291784801086" lon="11.547021367966732"><ele>244.79999999999998</ele><time>2026-04-12T15:16:37.999Z</time></trkpt><trkpt lat="42.47281922277575" lon="11.546939510995854"><ele>250.20000000000002</ele><time>2026-04-12T15:16:39.999Z</time></trkpt><trkpt lat="42.472704715677935" lon="11.546897542250417"><ele>255.60000000000002</ele><time>2026-04-12T15:16:41.999Z</time></trkpt><trkpt lat="42.47263379063332" lon="11.546889520213721"><ele>261.0</ele><time>2026-04-12T15:16:42.999Z</time></trkpt><trkpt lat="42.47252203110696" lon="11.546877055129839"><ele>261.0</ele><time>2026-04-12T15:16:44.999Z</time></trkpt><trkpt lat="42.47241686736967" lon="11.546866164230993"><ele>261.0</ele><time>2026-04-12T15:16:46.999Z</time></trkpt><trkpt lat="42.472348179691956" lon="11.546860047244778"><ele>261.0</ele><time>2026-04-12T15:16:47.999Z</time></trkpt><trkpt lat="42.47228481433485" lon="11.546846890648272"><ele>261.0</ele><time>2026-04-12T15:16:48.999Z</time></trkpt><trkpt lat="42.472193467215526" lon="11.546802702542355"><ele>261.0</ele><time>2026-04-12T15:16:50.999Z</time></trkpt><trkpt lat="42.472139755025324" lon="11.546751618439416"><ele>261.0</ele><time>2026-04-12T15:16:51.999Z</time></trkpt><trkpt lat="42.47202125353687" lon="11.546701681381723"><ele>257.6</ele><time>2026-04-12T15:16:53.999Z</time></trkpt><trkpt lat="42.47196048973687" lon="11.546647470107493"><ele>254.20000000000002</ele><time>2026-04-12T15:16:55.999Z</time></trkpt><trkpt lat="42.47189371734945" lon="11.546533149921489"><ele>250.79999999999998</ele><time>2026-04-12T15:16:58.999Z</time></trkpt><trkpt lat="42.471911681228555" lon="11.546418759604784"><ele>247.39999999999998</ele><time>2026-04-12T15:17:00.999Z</time></trkpt><trkpt lat="42.4719228959221" lon="11.546332875021163"><ele>244.0</ele><time>2026-04-12T15:17:02.999Z</time></trkpt><trkpt lat="42.471977142805734" lon="11.546187743424651"><ele>243.75</ele><time>2026-04-12T15:17:04.999Z</time></trkpt><trkpt lat="42.47201056635573" lon="11.54604432108708"><ele>243.5</ele><time>2026-04-12T15:17:06.999Z</time></trkpt><trkpt lat="42.47202433989327" lon="11.545887793555451"><ele>243.25</ele><time>2026-04-12T15:17:08.999Z</time></trkpt><trkpt lat="42.472036787322146" lon="11.545730261913393"><ele>243.0</ele><time>2026-04-12T15:17:10.999Z</time></trkpt><trkpt lat="42.472058978237484" lon="11.545580483653742"><ele>243.0</ele><time>2026-04-12T15:17:12.999Z</time></trkpt><trkpt lat="42.47208282685322" lon="11.545494009406589"><ele>243.0</ele><time>2026-04-12T15:17:13.999Z</time></trkpt><trkpt lat="42.47209638758159" lon="11.545399003569642"><ele>243.0</ele><time>2026-04-12T15:17:14.999Z</time></trkpt><trkpt lat="42.472106104360705" lon="11.54529922412559"><ele>243.0</ele><time>2026-04-12T15:17:15.999Z</time></trkpt><trkpt lat="42.4720894408814" lon="11.545207383416976"><ele>243.0</ele><time>2026-04-12T15:17:16.999Z</time></trkpt><trkpt lat="42.47207672087643" lon="11.545110318584602"><ele>243.0</ele><time>2026-04-12T15:17:17.999Z</time></trkpt><trkpt lat="42.47206348194885" lon="11.544952064647646"><ele>243.60000000000002</ele><time>2026-04-12T15:17:19.999Z</time></trkpt><trkpt lat="42.47205476184433" lon="11.544856875733428"><ele>244.20000000000002</ele><time>2026-04-12T15:17:20.999Z</time></trkpt><trkpt lat="42.472053611734864" lon="11.544757906833842"><ele>244.8</ele><time>2026-04-12T15:17:21.999Z</time></trkpt><trkpt lat="42.472056619592514" lon="11.544665768023096"><ele>245.4</ele><time>2026-04-12T15:17:22.999Z</time></trkpt><trkpt lat="42.47206095924121" lon="11.544524937678538"><ele>246.0</ele><time>2026-04-12T15:17:24.999Z</time></trkpt><trkpt lat="42.47203132959613" lon="11.544343466453014"><ele>246.4</ele><time>2026-04-12T15:17:26.999Z</time></trkpt><trkpt lat="42.47202573254758" lon="11.54417779725899"><ele>246.8</ele><time>2026-04-12T15:17:28.999Z</time></trkpt><trkpt lat="42.47203337464397" lon="11.544028483679154"><ele>247.20000000000002</ele><time>2026-04-12T15:17:30.999Z</time></trkpt><trkpt lat="42.47204650022561" lon="11.543906850404701"><ele>247.60000000000002</ele><time>2026-04-12T15:17:32.999Z</time></trkpt><trkpt lat="42.4720751875644" lon="11.543757534462326"><ele>248.0</ele><time>2026-04-12T15:17:34.999Z</time></trkpt><trkpt lat="42.472116039488114" lon="11.543651330421188"><ele>249.60000000000002</ele><time>2026-04-12T15:17:36.999Z</time></trkpt><trkpt lat="42.47208839785205" lon="11.543529218902014"><ele>251.20000000000002</ele><time>2026-04-12T15:17:38.999Z</time></trkpt><trkpt lat="42.47201100874442" lon="11.54340515309692"><ele>252.8</ele><time>2026-04-12T15:17:40.999Z</time></trkpt><trkpt lat="42.471983898127796" lon="11.54332798124931"><ele>254.4</ele><time>2026-04-12T15:17:41.999Z</time></trkpt><trkpt lat="42.47196948697128" lon="11.543238385451135"><ele>256.0</ele><time>2026-04-12T15:17:42.999Z</time></trkpt><trkpt lat="42.47195391338708" lon="11.543067205019558"><ele>256.0</ele><time>2026-04-12T15:17:44.999Z</time></trkpt><trkpt lat="42.471963453648286" lon="11.542913063195678"><ele>256.0</ele><time>2026-04-12T15:17:46.999Z</time></trkpt><trkpt lat="42.47199217369704" lon="11.542755660804358"><ele>256.0</ele><time>2026-04-12T15:17:48.999Z</time></trkpt><trkpt lat="42.471994255101855" lon="11.542638514300224"><ele>256.0</ele><time>2026-04-12T15:17:50.999Z</time></trkpt><trkpt lat="42.471926363004826" lon="11.542499400648616"><ele>256.0</ele><time>2026-04-12T15:17:52.999Z</time></trkpt><trkpt lat="42.471835753429104" lon="11.542376112196882"><ele>258.16666666666663</ele><time>2026-04-12T15:17:54.999Z</time></trkpt><trkpt lat="42.471788644206846" lon="11.542308957199689"><ele>260.3333333333333</ele><time>2026-04-12T15:17:55.999Z</time></trkpt><trkpt lat="42.47174063030861" lon="11.542244772778677"><ele>262.5</ele><time>2026-04-12T15:17:56.999Z</time></trkpt><trkpt lat="42.471652631679845" lon="11.542122013765532"><ele>264.6666666666667</ele><time>2026-04-12T15:17:58.999Z</time></trkpt><trkpt lat="42.47160646931393" lon="11.542050051360148"><ele>266.83333333333337</ele><time>2026-04-12T15:17:59.998Z</time></trkpt><trkpt lat="42.47156751492727" lon="11.54197473630744"><ele>269.0</ele><time>2026-04-12T15:18:00.998Z</time></trkpt><trkpt lat="42.47153713220258" lon="11.541821093095326"><ele>271.1666666666667</ele><time>2026-04-12T15:18:02.998Z</time></trkpt><trkpt lat="42.47153260710379" lon="11.541723541984481"><ele>273.33333333333337</ele><time>2026-04-12T15:18:03.998Z</time></trkpt><trkpt lat="42.471527740702285" lon="11.541555380312467"><ele>275.5</ele><time>2026-04-12T15:18:05.998Z</time></trkpt><trkpt lat="42.471496588268586" lon="11.541422865199449"><ele>277.6666666666667</ele><time>2026-04-12T15:18:07.998Z</time></trkpt><trkpt lat="42.47146434169821" lon="11.541348825066628"><ele>279.8333333333333</ele><time>2026-04-12T15:18:08.998Z</time></trkpt><trkpt lat="42.47143602597119" lon="11.541271155329085"><ele>282.0</ele><time>2026-04-12T15:18:09.998Z</time></trkpt><trkpt lat="42.471383000104254" lon="11.541213232719421"><ele>281.0</ele><time>2026-04-12T15:18:10.998Z</time></trkpt><trkpt lat="42.47128737819306" lon="11.54114396002772"><ele>280.0</ele><time>2026-04-12T15:18:12.999Z</time></trkpt><trkpt lat="42.47117251814859" lon="11.541081516128708"><ele>279.0</ele><time>2026-04-12T15:18:14.999Z</time></trkpt><trkpt lat="42.47107762190181" lon="11.541017816096929"><ele>278.0</ele><time>2026-04-12T15:18:16.999Z</time></trkpt><trkpt lat="42.471021019022785" lon="11.540957816848534"><ele>277.0</ele><time>2026-04-12T15:18:18.999Z</time></trkpt><trkpt lat="42.470950029102205" lon="11.540869892839757"><ele>277.0</ele><time>2026-04-12T15:18:20.999Z</time></trkpt><trkpt lat="42.470909997766014" lon="11.540740077357494"><ele>277.0</ele><time>2026-04-12T15:18:22.999Z</time></trkpt><trkpt lat="42.470877996121835" lon="11.540650001495573"><ele>277.0</ele><time>2026-04-12T15:18:24.999Z</time></trkpt><trkpt lat="42.470869946442875" lon="11.540530231508964"><ele>277.0</ele><time>2026-04-12T15:18:45.999Z</time></trkpt><trkpt lat="42.47086459451307" lon="11.540390447073976"><ele>277.0</ele><time>2026-04-12T15:18:47.999Z</time></trkpt><trkpt lat="42.47087226984701" lon="11.540305242588268"><ele>277.0</ele><time>2026-04-12T15:18:48.999Z</time></trkpt><trkpt lat="42.47087764802344" lon="11.54020938303954"><ele>276.5</ele><time>2026-04-12T15:18:49.999Z</time></trkpt><trkpt lat="42.470950315656474" lon="11.540050685585525"><ele>276.0</ele><time>2026-04-12T15:18:51.999Z</time></trkpt><trkpt lat="42.47099080835521" lon="11.539959650208852"><ele>275.5</ele><time>2026-04-12T15:18:52.999Z</time></trkpt><trkpt lat="42.47103437798359" lon="11.539873980962115"><ele>275.0</ele><time>2026-04-12T15:18:53.999Z</time></trkpt><trkpt lat="42.471082941622846" lon="11.539792900250541"><ele>274.5</ele><time>2026-04-12T15:18:54.999Z</time></trkpt><trkpt lat="42.47112746297113" lon="11.539704209548061"><ele>274.0</ele><time>2026-04-12T15:18:55.999Z</time></trkpt><trkpt lat="42.47116781436601" lon="11.539611513865843"><ele>273.66666666666663</ele><time>2026-04-12T15:18:56.999Z</time></trkpt><trkpt lat="42.47120567233052" lon="11.539516597258876"><ele>273.3333333333333</ele><time>2026-04-12T15:18:57.999Z</time></trkpt><trkpt lat="42.47122390806183" lon="11.539418814018141"><ele>273.0</ele><time>2026-04-12T15:18:58.999Z</time></trkpt><trkpt lat="42.47122496789124" lon="11.539326710637468"><ele>272.6666666666667</ele><time>2026-04-12T15:18:59.999Z</time></trkpt><trkpt lat="42.471272329892045" lon="11.539189810040043"><ele>272.33333333333337</ele><time>2026-04-12T15:19:01.999Z</time></trkpt><trkpt lat="42.47133263522279" lon="11.539107780989363"><ele>272.0</ele><time>2026-04-12T15:19:03.999Z</time></trkpt><trkpt lat="42.47139448653933" lon="11.539143451844945"><ele>271.33333333333337</ele><time>2026-04-12T15:19:18.999Z</time></trkpt><trkpt lat="42.47146291148431" lon="11.539143779283709"><ele>270.6666666666667</ele><time>2026-04-12T15:19:20.999Z</time></trkpt><trkpt lat="42.47152218150587" lon="11.539062278261659"><ele>270.0</ele><time>2026-04-12T15:19:23.999Z</time></trkpt><trkpt lat="42.47154590120535" lon="11.538949897804867"><ele>269.3333333333333</ele><time>2026-04-12T15:19:25.999Z</time></trkpt><trkpt lat="42.471516377626045" lon="11.538823065613533"><ele>268.66666666666663</ele><time>2026-04-12T15:19:27.999Z</time></trkpt><trkpt lat="42.471487084585895" lon="11.538681492724821"><ele>268.0</ele><time>2026-04-12T15:19:29.999Z</time></trkpt><trkpt lat="42.4714761785573" lon="11.538576812358292"><ele>268.0</ele><time>2026-04-12T15:19:31.999Z</time></trkpt><trkpt lat="42.47143811288229" lon="11.53846089587499"><ele>268.0</ele><time>2026-04-12T15:19:33.999Z</time></trkpt><trkpt lat="42.471412471683635" lon="11.538341978682219"><ele>268.0</ele><time>2026-04-12T15:19:35.999Z</time></trkpt><trkpt lat="42.471375903278464" lon="11.538227540764888"><ele>268.0</ele><time>2026-04-12T15:19:37.999Z</time></trkpt><trkpt lat="42.471325167528725" lon="11.538109235721036"><ele>268.0</ele><time>2026-04-12T15:19:39.999Z</time></trkpt><trkpt lat="42.47126839200094" lon="11.53798357194921"><ele>267.3333333333333</ele><time>2026-04-12T15:19:41.999Z</time></trkpt><trkpt lat="42.47122922322272" lon="11.537915524088804"><ele>266.66666666666663</ele><time>2026-04-12T15:19:42.999Z</time></trkpt><trkpt lat="42.47116541554171" lon="11.537796917731328"><ele>266.0</ele><time>2026-04-12T15:19:44.999Z</time></trkpt><trkpt lat="42.47111980376087" lon="11.53772289193931"><ele>265.3333333333333</ele><time>2026-04-12T15:19:45.999Z</time></trkpt><trkpt lat="42.471038275169924" lon="11.537613988563152"><ele>264.6666666666667</ele><time>2026-04-12T15:19:47.999Z</time></trkpt><trkpt lat="42.47099415593939" lon="11.537549987108822"><ele>264.0</ele><time>2026-04-12T15:19:48.999Z</time></trkpt><trkpt lat="42.47091797769637" lon="11.537442035300579"><ele>264.0</ele><time>2026-04-12T15:19:50.999Z</time></trkpt><trkpt lat="42.470856148134196" lon="11.537322408567265"><ele>264.0</ele><time>2026-04-12T15:19:52.999Z</time></trkpt><trkpt lat="42.47081607465071" lon="11.537255038812466"><ele>264.0</ele><time>2026-04-12T15:19:53.999Z</time></trkpt><trkpt lat="42.47074318007615" lon="11.537149478990312"><ele>264.0</ele><time>2026-04-12T15:19:55.999Z</time></trkpt><trkpt lat="42.47067877457634" lon="11.537040678473694"><ele>264.0</ele><time>2026-04-12T15:19:57.998Z</time></trkpt><trkpt lat="42.47059604025282" lon="11.536905327324067"><ele>259.8</ele><time>2026-04-12T15:19:59.998Z</time></trkpt><trkpt lat="42.47052384826142" lon="11.53678825078843"><ele>255.59999999999997</ele><time>2026-04-12T15:20:01.998Z</time></trkpt><trkpt lat="42.47045979472791" lon="11.53670809563568"><ele>251.4</ele><time>2026-04-12T15:20:03.998Z</time></trkpt><trkpt lat="42.47037778073834" lon="11.53663135031814"><ele>247.2</ele><time>2026-04-12T15:20:05.998Z</time></trkpt><trkpt lat="42.47030189926212" lon="11.536583107265962"><ele>243.0</ele><time>2026-04-12T15:20:07.998Z</time></trkpt><trkpt lat="42.47020856596269" lon="11.536559246171551"><ele>242.5</ele><time>2026-04-12T15:20:09.998Z</time></trkpt><trkpt lat="42.470117267376004" lon="11.536547653279092"><ele>242.0</ele><time>2026-04-12T15:20:11.998Z</time></trkpt><trkpt lat="42.470026572520254" lon="11.536559544573892"><ele>241.5</ele><time>2026-04-12T15:20:13.998Z</time></trkpt><trkpt lat="42.46994077288828" lon="11.536577968239495"><ele>241.0</ele><time>2026-04-12T15:20:15.998Z</time></trkpt><trkpt lat="42.46985024905043" lon="11.536599624430242"><ele>240.5</ele><time>2026-04-12T15:20:17.998Z</time></trkpt><trkpt lat="42.46976496438082" lon="11.536619802313345"><ele>240.0</ele><time>2026-04-12T15:20:19.999Z</time></trkpt><trkpt lat="42.46968781565055" lon="11.536646932658787"><ele>234.8</ele><time>2026-04-12T15:20:21.999Z</time></trkpt><trkpt lat="42.46959669448716" lon="11.536682655533273"><ele>229.6</ele><time>2026-04-12T15:20:23.999Z</time></trkpt><trkpt lat="42.469508945693036" lon="11.536726513691827"><ele>224.39999999999998</ele><time>2026-04-12T15:20:25.999Z</time></trkpt><trkpt lat="42.46942460958568" lon="11.536778387009916"><ele>219.2</ele><time>2026-04-12T15:20:27.999Z</time></trkpt><trkpt lat="42.469340121054415" lon="11.536816439790273"><ele>214.0</ele><time>2026-04-12T15:20:29.999Z</time></trkpt><trkpt lat="42.46925711009941" lon="11.536824702515963"><ele>214.0</ele><time>2026-04-12T15:20:31.999Z</time></trkpt><trkpt lat="42.46915862776673" lon="11.536821239557225"><ele>213.99999999999997</ele><time>2026-04-12T15:20:33.999Z</time></trkpt><trkpt lat="42.46905005148745" lon="11.536838980881033"><ele>213.99999999999997</ele><time>2026-04-12T15:20:35.999Z</time></trkpt><trkpt lat="42.468964062714335" lon="11.536863799182422"><ele>214.0</ele><time>2026-04-12T15:20:37.999Z</time></trkpt><trkpt lat="42.468876988553355" lon="11.536869363489355"><ele>214.0</ele><time>2026-04-12T15:20:39.999Z</time></trkpt><trkpt lat="42.46878905005898" lon="11.536891460426643"><ele>209.6</ele><time>2026-04-12T15:20:41.999Z</time></trkpt><trkpt lat="42.46867669700133" lon="11.53692959606418"><ele>205.2</ele><time>2026-04-12T15:20:43.999Z</time></trkpt><trkpt lat="42.46858056630447" lon="11.536963551575134"><ele>200.79999999999998</ele><time>2026-04-12T15:20:45.999Z</time></trkpt><trkpt lat="42.46848936186989" lon="11.536992131413655"><ele>196.39999999999998</ele><time>2026-04-12T15:20:47.999Z</time></trkpt><trkpt lat="42.46838651428637" lon="11.537010488492944"><ele>192.0</ele><time>2026-04-12T15:20:49.999Z</time></trkpt><trkpt lat="42.46828304372935" lon="11.537000322907048"><ele>192.0</ele><time>2026-04-12T15:20:51.999Z</time></trkpt><trkpt lat="42.46816651959038" lon="11.536985516955168"><ele>192.0</ele><time>2026-04-12T15:20:53.999Z</time></trkpt><trkpt lat="42.4680627762266" lon="11.536970331888124"><ele>192.0</ele><time>2026-04-12T15:20:55.999Z</time></trkpt><trkpt lat="42.46798784107985" lon="11.536954149101481"><ele>192.0</ele><time>2026-04-12T15:20:57.999Z</time></trkpt><trkpt lat="42.46791017300524" lon="11.536938613353154"><ele>192.0</ele><time>2026-04-12T15:20:59.999Z</time></trkpt><trkpt lat="42.4678419700783" lon="11.53690246266904"><ele>192.0</ele><time>2026-04-12T15:21:01.999Z</time></trkpt><trkpt lat="42.46777554949243" lon="11.536906496592204"><ele>189.99999999999997</ele><time>2026-04-12T15:21:03.999Z</time></trkpt><trkpt lat="42.46769988787728" lon="11.536910150058883"><ele>188.0</ele><time>2026-04-12T15:21:05.999Z</time></trkpt><trkpt lat="42.46761720859061" lon="11.536924878934053"><ele>186.0</ele><time>2026-04-12T15:21:08.999Z</time></trkpt><trkpt lat="42.467552450445694" lon="11.536905148649339"><ele>184.0</ele><time>2026-04-12T15:21:11.999Z</time></trkpt><trkpt lat="42.46748562441342" lon="11.536894616743682"><ele>182.0</ele><time>2026-04-12T15:21:20.999Z</time></trkpt><trkpt lat="42.467447579632356" lon="11.536964584793575"><ele>179.99999999999997</ele><time>2026-04-12T15:21:23.999Z</time></trkpt><trkpt lat="42.46738998057856" lon="11.537019649498578"><ele>178.0</ele><time>2026-04-12T15:21:26.999Z</time></trkpt><trkpt lat="42.467334425163045" lon="11.537067357253846"><ele>178.0</ele><time>2026-04-12T15:21:32.999Z</time></trkpt><trkpt lat="42.46738986587374" lon="11.537010264998976"><ele>178.0</ele><time>2026-04-12T15:21:45.999Z</time></trkpt><trkpt lat="42.46744265388086" lon="11.536860100761972"><ele>178.0</ele><time>2026-04-12T15:21:47.999Z</time></trkpt><trkpt lat="42.46750705127136" lon="11.536825895690086"><ele>178.0</ele><time>2026-04-12T15:21:52.999Z</time></trkpt><trkpt lat="42.46751689009679" lon="11.53694082719848"><ele>178.0</ele><time>2026-04-12T15:21:59.999Z</time></trkpt><trkpt lat="42.46747337799598" lon="11.537022339197117"><ele>178.0</ele><time>2026-04-12T15:22:01.999Z</time></trkpt><trkpt lat="42.46742674087764" lon="11.537121002533882"><ele>178.0</ele><time>2026-04-12T15:22:03.999Z</time></trkpt><trkpt lat="42.467392979650555" lon="11.537215672369403"><ele>178.0</ele><time>2026-04-12T15:22:05.999Z</time></trkpt><trkpt lat="42.46734560177751" lon="11.537301430521927"><ele>178.0</ele><time>2026-04-12T15:22:07.999Z</time></trkpt><trkpt lat="42.4672910174029" lon="11.537393379541799"><ele>178.0</ele><time>2026-04-12T15:22:09.999Z</time></trkpt><trkpt lat="42.46723253247499" lon="11.537523253753148"><ele>178.0</ele><time>2026-04-12T15:22:11.999Z</time></trkpt><trkpt lat="42.467162627992515" lon="11.53764296600828"><ele>177.4</ele><time>2026-04-12T15:22:13.998Z</time></trkpt><trkpt lat="42.46706548232924" lon="11.53771060040648"><ele>176.8</ele><time>2026-04-12T15:22:15.998Z</time></trkpt><trkpt lat="42.46703410990683" lon="11.537854133899659"><ele>176.2</ele><time>2026-04-12T15:22:17.998Z</time></trkpt><trkpt lat="42.4669840083298" lon="11.53799629515412"><ele>175.6</ele><time>2026-04-12T15:22:19.998Z</time></trkpt><trkpt lat="42.466936368469874" lon="11.538058566928187"><ele>175.0</ele><time>2026-04-12T15:22:20.998Z</time></trkpt><trkpt lat="42.4668896756773" lon="11.538134536027941"><ele>175.0</ele><time>2026-04-12T15:22:21.998Z</time></trkpt><trkpt lat="42.46682612909592" lon="11.538252897244137"><ele>175.0</ele><time>2026-04-12T15:22:23.998Z</time></trkpt><trkpt lat="42.46674978350037" lon="11.538360478533367"><ele>175.0</ele><time>2026-04-12T15:22:25.999Z</time></trkpt><trkpt lat="42.466698677734485" lon="11.538474953311887"><ele>175.0</ele><time>2026-04-12T15:22:27.999Z</time></trkpt><trkpt lat="42.46664792314615" lon="11.538598931279504"><ele>175.0</ele><time>2026-04-12T15:22:29.999Z</time></trkpt><trkpt lat="42.46661425549153" lon="11.538681240378455"><ele>176.5</ele><time>2026-04-12T15:22:30.999Z</time></trkpt><trkpt lat="42.46657256324315" lon="11.53875648102341"><ele>178.0</ele><time>2026-04-12T15:22:31.999Z</time></trkpt><trkpt lat="42.466504822208144" lon="11.53888161445764"><ele>179.5</ele><time>2026-04-12T15:22:33.999Z</time></trkpt><trkpt lat="42.466491080400566" lon="11.538966675789947"><ele>181.0</ele><time>2026-04-12T15:22:34.999Z</time></trkpt><trkpt lat="42.46641548114139" lon="11.539114412087134"><ele>182.5</ele><time>2026-04-12T15:22:36.999Z</time></trkpt><trkpt lat="42.46637413148366" lon="11.539185904624091"><ele>184.0</ele><time>2026-04-12T15:22:37.999Z</time></trkpt><trkpt lat="42.46633472242598" lon="11.539257433499643"><ele>182.0</ele><time>2026-04-12T15:22:38.999Z</time></trkpt><trkpt lat="42.466265266834604" lon="11.539395366379393"><ele>180.0</ele><time>2026-04-12T15:22:40.999Z</time></trkpt><trkpt lat="42.46622486151218" lon="11.539467228722065"><ele>178.0</ele><time>2026-04-12T15:22:41.999Z</time></trkpt><trkpt lat="42.4661907171424" lon="11.53955423996304"><ele>176.0</ele><time>2026-04-12T15:22:42.999Z</time></trkpt><trkpt lat="42.46615570183084" lon="11.539648916329478"><ele>174.0</ele><time>2026-04-12T15:22:43.999Z</time></trkpt><trkpt lat="42.46611412390529" lon="11.539751284867037"><ele>172.0</ele><time>2026-04-12T15:22:44.999Z</time></trkpt><trkpt lat="42.46606182156561" lon="11.539862180258337"><ele>172.0</ele><time>2026-04-12T15:22:45.999Z</time></trkpt><trkpt lat="42.46599083387598" lon="11.539979392223648"><ele>172.0</ele><time>2026-04-12T15:22:46.999Z</time></trkpt><trkpt lat="42.4659276896243" lon="11.540081777509114"><ele>172.0</ele><time>2026-04-12T15:22:47.999Z</time></trkpt><trkpt lat="42.46588551016053" lon="11.540170905767264"><ele>172.0</ele><time>2026-04-12T15:22:48.999Z</time></trkpt><trkpt lat="42.46584472416075" lon="11.540250161597061"><ele>172.0</ele><time>2026-04-12T15:22:49.999Z</time></trkpt><trkpt lat="42.46577635403523" lon="11.54038873313424"><ele>173.6</ele><time>2026-04-12T15:22:51.999Z</time></trkpt><trkpt lat="42.46569000686042" lon="11.54050480433656"><ele>175.2</ele><time>2026-04-12T15:22:53.999Z</time></trkpt><trkpt lat="42.46562822130302" lon="11.540645296745618"><ele>176.8</ele><time>2026-04-12T15:22:55.999Z</time></trkpt><trkpt lat="42.465589870437896" lon="11.540718920592678"><ele>178.4</ele><time>2026-04-12T15:22:56.999Z</time></trkpt><trkpt lat="42.46552986406136" lon="11.540848489532252"><ele>180.0</ele><time>2026-04-12T15:22:58.999Z</time></trkpt><trkpt lat="42.46550862781911" lon="11.54095004207511"><ele>180.0</ele><time>2026-04-12T15:23:00.999Z</time></trkpt><trkpt lat="42.46552791339075" lon="11.541034741201313"><ele>180.0</ele><time>2026-04-12T15:23:02.999Z</time></trkpt><trkpt lat="42.465553545536046" lon="11.541124182894826"><ele>180.0</ele><time>2026-04-12T15:23:04.999Z</time></trkpt><trkpt lat="42.46552126671644" lon="11.541198319878658"><ele>180.0</ele><time>2026-04-12T15:23:06.999Z</time></trkpt><trkpt lat="42.46551342744188" lon="11.54128870463741"><ele>180.0</ele><time>2026-04-12T15:23:08.999Z</time></trkpt><trkpt lat="42.46549371759562" lon="11.541372820629094"><ele>180.0</ele><time>2026-04-12T15:23:10.999Z</time></trkpt><trkpt lat="42.465562641846496" lon="11.541459798791372"><ele>180.0</ele><time>2026-04-12T15:23:13.999Z</time></trkpt><trkpt lat="42.46567408809686" lon="11.541469971205908"><ele>179.0</ele><time>2026-04-12T15:23:15.999Z</time></trkpt><trkpt lat="42.46574614485548" lon="11.541521168839159"><ele>178.0</ele><time>2026-04-12T15:23:17.999Z</time></trkpt><trkpt lat="42.46579542603095" lon="11.541593055586587"><ele>177.0</ele><time>2026-04-12T15:23:19.999Z</time></trkpt><trkpt lat="42.46578049349947" lon="11.541718868792389"><ele>176.0</ele><time>2026-04-12T15:23:22.999Z</time></trkpt><trkpt lat="42.46569263154003" lon="11.54176897251997"><ele>175.0</ele><time>2026-04-12T15:23:24.999Z</time></trkpt><trkpt lat="42.46560424424476" lon="11.541861885580193"><ele>175.0</ele><time>2026-04-12T15:23:26.999Z</time></trkpt><trkpt lat="42.46556103972225" lon="11.541928033173546"><ele>175.0</ele><time>2026-04-12T15:23:27.999Z</time></trkpt><trkpt lat="42.465513367177635" lon="11.541998849502738"><ele>175.0</ele><time>2026-04-12T15:23:28.999Z</time></trkpt><trkpt lat="42.46546479764299" lon="11.542143611580899"><ele>175.0</ele><time>2026-04-12T15:23:30.999Z</time></trkpt><trkpt lat="42.465443470237595" lon="11.542224092975365"><ele>175.0</ele><time>2026-04-12T15:23:31.999Z</time></trkpt><trkpt lat="42.465419277737396" lon="11.542378975158925"><ele>175.0</ele><time>2026-04-12T15:23:33.999Z</time></trkpt><trkpt lat="42.4654201625894" lon="11.542509839546089"><ele>175.85714285714286</ele><time>2026-04-12T15:23:35.999Z</time></trkpt><trkpt lat="42.46544405511477" lon="11.542597633820401"><ele>176.71428571428572</ele><time>2026-04-12T15:23:36.999Z</time></trkpt><trkpt lat="42.46547020559178" lon="11.542682520043954"><ele>177.57142857142856</ele><time>2026-04-12T15:23:37.999Z</time></trkpt><trkpt lat="42.4654929842775" lon="11.54276456803879"><ele>178.42857142857144</ele><time>2026-04-12T15:23:38.999Z</time></trkpt><trkpt lat="42.465512727556096" lon="11.542856711701583"><ele>179.28571428571428</ele><time>2026-04-12T15:23:39.999Z</time></trkpt><trkpt lat="42.4655772895192" lon="11.542953615967438"><ele>180.14285714285714</ele><time>2026-04-12T15:23:41.999Z</time></trkpt><trkpt lat="42.46562978442977" lon="11.54301962880878"><ele>181.0</ele><time>2026-04-12T15:23:43.999Z</time></trkpt><trkpt lat="42.46565350592511" lon="11.543137230501767"><ele>182.0</ele><time>2026-04-12T15:23:46.999Z</time></trkpt><trkpt lat="42.4655853350443" lon="11.543211279015438"><ele>183.0</ele><time>2026-04-12T15:23:48.999Z</time></trkpt><trkpt lat="42.46548167838786" lon="11.543283462597607"><ele>184.0</ele><time>2026-04-12T15:23:50.999Z</time></trkpt><trkpt lat="42.46537498306873" lon="11.543320620746199"><ele>185.0</ele><time>2026-04-12T15:23:52.999Z</time></trkpt><trkpt lat="42.46528516693099" lon="11.543390422911358"><ele>186.0</ele><time>2026-04-12T15:23:54.999Z</time></trkpt><trkpt lat="42.465239856124505" lon="11.543519816768073"><ele>183.33333333333334</ele><time>2026-04-12T15:23:56.999Z</time></trkpt><trkpt lat="42.46516863120907" lon="11.54362086588075"><ele>180.66666666666666</ele><time>2026-04-12T15:23:58.999Z</time></trkpt><trkpt lat="42.46512584748055" lon="11.54372923672306"><ele>178.0</ele><time>2026-04-12T15:24:00.999Z</time></trkpt><trkpt lat="42.46508617399565" lon="11.543796284882728"><ele>175.33333333333331</ele><time>2026-04-12T15:24:02.999Z</time></trkpt><trkpt lat="42.46503098496994" lon="11.543903106234636"><ele>172.66666666666666</ele><time>2026-04-12T15:24:06.999Z</time></trkpt><trkpt lat="42.46496816356408" lon="11.543860256190358"><ele>170.0</ele><time>2026-04-12T15:24:09.999Z</time></trkpt><trkpt lat="42.46492289772392" lon="11.543781570310175"><ele>170.0</ele><time>2026-04-12T15:24:11.999Z</time></trkpt><trkpt lat="42.464863518668054" lon="11.543747376374522"><ele>170.0</ele><time>2026-04-12T15:24:13.999Z</time></trkpt><trkpt lat="42.464774814364276" lon="11.543712480109521"><ele>170.0</ele><time>2026-04-12T15:24:16.999Z</time></trkpt><trkpt lat="42.46470588379367" lon="11.543697132889454"><ele>170.0</ele><time>2026-04-12T15:24:18.999Z</time></trkpt><trkpt lat="42.46462170912037" lon="11.54369601353658"><ele>170.0</ele><time>2026-04-12T15:24:20.999Z</time></trkpt><trkpt lat="42.464524288924906" lon="11.543688575491256"><ele>170.0</ele><time>2026-04-12T15:24:22.999Z</time></trkpt><trkpt lat="42.464427010633266" lon="11.543668432973384"><ele>166.66666666666666</ele><time>2026-04-12T15:24:24.999Z</time></trkpt><trkpt lat="42.46432920448959" lon="11.54366001781226"><ele>163.33333333333331</ele><time>2026-04-12T15:24:26.999Z</time></trkpt><trkpt lat="42.46423490024265" lon="11.543660347638694"><ele>160.0</ele><time>2026-04-12T15:24:28.999Z</time></trkpt><trkpt lat="42.46414656632806" lon="11.54364268414431"><ele>156.66666666666666</ele><time>2026-04-12T15:24:31Z</time></trkpt><trkpt lat="42.464104668844364" lon="11.543544906956358"><ele>153.33333333333334</ele><time>2026-04-12T15:24:32Z</time></trkpt><trkpt lat="42.464038110562555" lon="11.543555275540585"><ele>150.0</ele><time>2026-04-12T15:24:34Z</time></trkpt><trkpt lat="42.46396191713819" lon="11.543544906950528"><ele>150.0</ele><time>2026-04-12T15:24:36Z</time></trkpt><trkpt lat="42.46389016879102" lon="11.543544906947634"><ele>150.0</ele><time>2026-04-12T15:24:38Z</time></trkpt><trkpt lat="42.4637980518205" lon="11.543547892700175"><ele>150.0</ele><time>2026-04-12T15:24:40Z</time></trkpt><trkpt lat="42.46371187007896" lon="11.543553528671216"><ele>150.0</ele><time>2026-04-12T15:24:42Z</time></trkpt><trkpt lat="42.46363532570532" lon="11.543560686973818"><ele>150.0</ele><time>2026-04-12T15:24:45Z</time></trkpt><trkpt lat="42.46357214432765" lon="11.543568127368333"><ele>150.0</ele><time>2026-04-12T15:24:50Z</time></trkpt><trkpt lat="42.4634785581176" lon="11.54358020551379"><ele>149.0</ele><time>2026-04-12T15:24:52Z</time></trkpt><trkpt lat="42.46335905113264" lon="11.543600913430293"><ele>148.0</ele><time>2026-04-12T15:24:54Z</time></trkpt><trkpt lat="42.46324044283659" lon="11.543635209555658"><ele>147.0</ele><time>2026-04-12T15:24:56Z</time></trkpt><trkpt lat="42.463184629638434" lon="11.54367495300144"><ele>146.0</ele><time>2026-04-12T15:24:57Z</time></trkpt><trkpt lat="42.46311581504048" lon="11.5436909534522"><ele>145.0</ele><time>2026-04-12T15:24:58Z</time></trkpt><trkpt lat="42.463057857158695" lon="11.543742221177421"><ele>144.0</ele><time>2026-04-12T15:24:59Z</time></trkpt><trkpt lat="42.46298694391092" lon="11.543755417677037"><ele>142.4</ele><time>2026-04-12T15:25:00Z</time></trkpt><trkpt lat="42.46292908017385" lon="11.543817530127146"><ele>140.8</ele><time>2026-04-12T15:25:01Z</time></trkpt><trkpt lat="42.46285819156852" lon="11.543847891577485"><ele>139.2</ele><time>2026-04-12T15:25:02Z</time></trkpt><trkpt lat="42.46276765211589" lon="11.543875595375363"><ele>137.6</ele><time>2026-04-12T15:25:04Z</time></trkpt><trkpt lat="42.462652750630916" lon="11.5438963836127"><ele>136.0</ele><time>2026-04-12T15:25:06Z</time></trkpt><trkpt lat="42.4625328171844" lon="11.54394383692863"><ele>136.0</ele><time>2026-04-12T15:25:08Z</time></trkpt><trkpt lat="42.46246177790297" lon="11.543987218396685"><ele>136.0</ele><time>2026-04-12T15:25:09Z</time></trkpt><trkpt lat="42.46239146083518" lon="11.54398510490339"><ele>136.0</ele><time>2026-04-12T15:25:10Z</time></trkpt><trkpt lat="42.462326780671106" lon="11.54399990321599"><ele>136.0</ele><time>2026-04-12T15:25:11Z</time></trkpt><trkpt lat="42.46225640757152" lon="11.544015772073498"><ele>136.0</ele><time>2026-04-12T15:25:12Z</time></trkpt><trkpt lat="42.46217722440246" lon="11.54405541116076"><ele>136.0</ele><time>2026-04-12T15:25:13Z</time></trkpt><trkpt lat="42.462092778350964" lon="11.544083501202492"><ele>135.6</ele><time>2026-04-12T15:25:14Z</time></trkpt><trkpt lat="42.46200194335198" lon="11.544090303034633"><ele>135.2</ele><time>2026-04-12T15:25:15Z</time></trkpt><trkpt lat="42.46190940137244" lon="11.54413336582852"><ele>134.8</ele><time>2026-04-12T15:25:16Z</time></trkpt><trkpt lat="42.461819069971135" lon="11.544161613556978"><ele>134.4</ele><time>2026-04-12T15:25:17Z</time></trkpt><trkpt lat="42.46172227737039" lon="11.544169723843625"><ele>134.0</ele><time>2026-04-12T15:25:17.999Z</time></trkpt><trkpt lat="42.461632302238534" lon="11.544179197936282"><ele>134.0</ele><time>2026-04-12T15:25:18.999Z</time></trkpt><trkpt lat="42.461542727377" lon="11.544187826167061"><ele>134.0</ele><time>2026-04-12T15:25:19.999Z</time></trkpt><trkpt lat="42.46145106837361" lon="11.544200056206813"><ele>134.0</ele><time>2026-04-12T15:25:20.999Z</time></trkpt><trkpt lat="42.46137778580906" lon="11.544210641731752"><ele>134.0</ele><time>2026-04-12T15:25:21.999Z</time></trkpt><trkpt lat="42.46129949418904" lon="11.544222508232945"><ele>134.0</ele><time>2026-04-12T15:25:22.999Z</time></trkpt><trkpt lat="42.461224606063105" lon="11.544257799574009"><ele>134.0</ele><time>2026-04-12T15:25:23.999Z</time></trkpt><trkpt lat="42.46114626568623" lon="11.544253085907778"><ele>133.33333333333331</ele><time>2026-04-12T15:25:24.999Z</time></trkpt><trkpt lat="42.46106797686507" lon="11.544264506093482"><ele>132.66666666666666</ele><time>2026-04-12T15:25:25.999Z</time></trkpt><trkpt lat="42.46098379808921" lon="11.544274194120442"><ele>132.0</ele><time>2026-04-12T15:25:26.999Z</time></trkpt><trkpt lat="42.460897919629836" lon="11.544282625544245"><ele>131.33333333333334</ele><time>2026-04-12T15:25:27.999Z</time></trkpt><trkpt lat="42.46081646625678" lon="11.544290622519451"><ele>130.66666666666669</ele><time>2026-04-12T15:25:28.999Z</time></trkpt><trkpt lat="42.460727478528945" lon="11.544299359207269"><ele>130.0</ele><time>2026-04-12T15:25:29.999Z</time></trkpt><trkpt lat="42.46064298987088" lon="11.544307654182361"><ele>130.0</ele><time>2026-04-12T15:25:30.999Z</time></trkpt><trkpt lat="42.46056064054369" lon="11.544316200662722"><ele>130.0</ele><time>2026-04-12T15:25:31.999Z</time></trkpt><trkpt lat="42.46046989829555" lon="11.544326928186248"><ele>130.0</ele><time>2026-04-12T15:25:32.999Z</time></trkpt><trkpt lat="42.46038483533234" lon="11.544336984307071"><ele>130.0</ele><time>2026-04-12T15:25:33.999Z</time></trkpt><trkpt lat="42.460309492872085" lon="11.544345891274215"><ele>130.0</ele><time>2026-04-12T15:25:34.999Z</time></trkpt><trkpt lat="42.46022531280851" lon="11.544355843018597"><ele>130.0</ele><time>2026-04-12T15:25:35.999Z</time></trkpt><trkpt lat="42.46013996810441" lon="11.544365932447375"><ele>129.4</ele><time>2026-04-12T15:25:36.999Z</time></trkpt><trkpt lat="42.46005321819953" lon="11.544372961047992"><ele>128.8</ele><time>2026-04-12T15:25:37.999Z</time></trkpt><trkpt lat="42.4599643297355" lon="11.54438057433769"><ele>128.2</ele><time>2026-04-12T15:25:38.999Z</time></trkpt><trkpt lat="42.459875579897" lon="11.54438846002459"><ele>127.6</ele><time>2026-04-12T15:25:39.999Z</time></trkpt><trkpt lat="42.45977952804635" lon="11.544399262167557"><ele>127.0</ele><time>2026-04-12T15:25:40.999Z</time></trkpt><trkpt lat="42.45968634608059" lon="11.54441266916566"><ele>126.16666666666667</ele><time>2026-04-12T15:25:41.999Z</time></trkpt><trkpt lat="42.45959784423385" lon="11.544427858516286"><ele>125.33333333333334</ele><time>2026-04-12T15:25:42.999Z</time></trkpt><trkpt lat="42.459520705517946" lon="11.544442342263352"><ele>124.5</ele><time>2026-04-12T15:25:43.999Z</time></trkpt><trkpt lat="42.45944748454791" lon="11.544456090394188"><ele>123.66666666666666</ele><time>2026-04-12T15:25:44.999Z</time></trkpt><trkpt lat="42.45935598255536" lon="11.544473271010352"><ele>122.83333333333333</ele><time>2026-04-12T15:25:45.999Z</time></trkpt><trkpt lat="42.459271217539325" lon="11.544486210654977"><ele>122.0</ele><time>2026-04-12T15:25:46.999Z</time></trkpt><trkpt lat="42.45917828504969" lon="11.54450039460542"><ele>121.99999999999999</ele><time>2026-04-12T15:25:47.999Z</time></trkpt><trkpt lat="42.45909491950147" lon="11.544508820281836"><ele>122.0</ele><time>2026-04-12T15:25:48.999Z</time></trkpt><trkpt lat="42.45902610943488" lon="11.544504713880212"><ele>121.99999999999999</ele><time>2026-04-12T15:25:49.999Z</time></trkpt><trkpt lat="42.458963964540615" lon="11.544483179383741"><ele>121.99999999999999</ele><time>2026-04-12T15:25:50.999Z</time></trkpt><trkpt lat="42.45890119773268" lon="11.544454484282312"><ele>122.0</ele><time>2026-04-12T15:25:51.999Z</time></trkpt><trkpt lat="42.45883778188202" lon="11.544440178265592"><ele>121.99999999999999</ele><time>2026-04-12T15:25:52.999Z</time></trkpt><trkpt lat="42.45876108590462" lon="11.544464123924197"><ele>121.99999999999999</ele><time>2026-04-12T15:25:53.999Z</time></trkpt><trkpt lat="42.45867024076034" lon="11.544470625340635"><ele>121.83333333333333</ele><time>2026-04-12T15:25:54.999Z</time></trkpt><trkpt lat="42.4585743740397" lon="11.544482022617975"><ele>121.66666666666666</ele><time>2026-04-12T15:25:55.999Z</time></trkpt><trkpt lat="42.458482813966725" lon="11.544472583267927"><ele>121.5</ele><time>2026-04-12T15:25:56.999Z</time></trkpt><trkpt lat="42.458401446283645" lon="11.544496122345146"><ele>121.33333333333334</ele><time>2026-04-12T15:25:57.999Z</time></trkpt><trkpt lat="42.458321829322315" lon="11.544495956173213"><ele>121.16666666666667</ele><time>2026-04-12T15:25:58.999Z</time></trkpt><trkpt lat="42.458238971552525" lon="11.544506839710934"><ele>121.0</ele><time>2026-04-12T15:25:59.999Z</time></trkpt><trkpt lat="42.458141226315014" lon="11.544527649826623"><ele>121.0</ele><time>2026-04-12T15:26:00.999Z</time></trkpt><trkpt lat="42.458040413758425" lon="11.544543957089697"><ele>121.0</ele><time>2026-04-12T15:26:01.999Z</time></trkpt><trkpt lat="42.457937901932944" lon="11.54456241560602"><ele>121.0</ele><time>2026-04-12T15:26:02.999Z</time></trkpt><trkpt lat="42.45784177200067" lon="11.544573304773643"><ele>121.0</ele><time>2026-04-12T15:26:03.999Z</time></trkpt><trkpt lat="42.45774733350591" lon="11.544583951317827"><ele>121.0</ele><time>2026-04-12T15:26:04.999Z</time></trkpt><trkpt lat="42.457645760782896" lon="11.544596952299528"><ele>121.0</ele><time>2026-04-12T15:26:05.999Z</time></trkpt><trkpt lat="42.45753807209759" lon="11.544611147376806"><ele>121.0</ele><time>2026-04-12T15:26:06.999Z</time></trkpt><trkpt lat="42.457430740704766" lon="11.54462469167894"><ele>121.0</ele><time>2026-04-12T15:26:07.999Z</time></trkpt><trkpt lat="42.457325597044225" lon="11.544638471676063"><ele>121.0</ele><time>2026-04-12T15:26:08.999Z</time></trkpt><trkpt lat="42.45723162258086" lon="11.544652310203372"><ele>121.0</ele><time>2026-04-12T15:26:09.999Z</time></trkpt><trkpt lat="42.45713966608925" lon="11.544658709351776"><ele>120.6</ele><time>2026-04-12T15:26:10.999Z</time></trkpt><trkpt lat="42.45705098994816" lon="11.544668589402043"><ele>120.19999999999999</ele><time>2026-04-12T15:26:11.999Z</time></trkpt><trkpt lat="42.45695905961907" lon="11.544680335492352"><ele>119.80000000000001</ele><time>2026-04-12T15:26:12.999Z</time></trkpt><trkpt lat="42.45686232432153" lon="11.5446921975365"><ele>119.4</ele><time>2026-04-12T15:26:13.999Z</time></trkpt><trkpt lat="42.45676559311824" lon="11.544704171933901"><ele>119.0</ele><time>2026-04-12T15:26:14.999Z</time></trkpt><trkpt lat="42.45666908450763" lon="11.544694108484599"><ele>118.99999999999999</ele><time>2026-04-12T15:26:15.999Z</time></trkpt><trkpt lat="42.45657174291578" lon="11.544703842641546"><ele>119.0</ele><time>2026-04-12T15:26:16.999Z</time></trkpt><trkpt lat="42.45647750427186" lon="11.54473638631566"><ele>119.0</ele><time>2026-04-12T15:26:17.999Z</time></trkpt><trkpt lat="42.456392747146715" lon="11.544730304387645"><ele>119.0</ele><time>2026-04-12T15:26:18.999Z</time></trkpt><trkpt lat="42.45631556198912" lon="11.54474247907248"><ele>118.99999999999999</ele><time>2026-04-12T15:26:19.999Z</time></trkpt><trkpt lat="42.45623209540485" lon="11.544754656007862"><ele>119.0</ele><time>2026-04-12T15:26:20.999Z</time></trkpt><trkpt lat="42.45615692468502" lon="11.544764594164198"><ele>118.49999999999999</ele><time>2026-04-12T15:26:21.999Z</time></trkpt><trkpt lat="42.456073540221624" lon="11.544775618237189"><ele>118.0</ele><time>2026-04-12T15:26:22.999Z</time></trkpt><trkpt lat="42.455985794686946" lon="11.544787218882636"><ele>117.5</ele><time>2026-04-12T15:26:23.999Z</time></trkpt><trkpt lat="42.45590071041715" lon="11.544798467681936"><ele>117.0</ele><time>2026-04-12T15:26:24.999Z</time></trkpt><trkpt lat="42.455825355081444" lon="11.544829582620817"><ele>116.49999999999999</ele><time>2026-04-12T15:26:25.999Z</time></trkpt><trkpt lat="42.45574700569799" lon="11.544847637731797"><ele>116.0</ele><time>2026-04-12T15:26:26.999Z</time></trkpt><trkpt lat="42.455655934036564" lon="11.54486025041641"><ele>115.99999999999999</ele><time>2026-04-12T15:26:27.999Z</time></trkpt><trkpt lat="42.45557006851613" lon="11.544877203705457"><ele>116.0</ele><time>2026-04-12T15:26:28.999Z</time></trkpt><trkpt lat="42.4554834687465" lon="11.544894870044041"><ele>116.0</ele><time>2026-04-12T15:26:29.999Z</time></trkpt><trkpt lat="42.45539624301202" lon="11.544886805456322"><ele>116.0</ele><time>2026-04-12T15:26:30.999Z</time></trkpt><trkpt lat="42.455304103064215" lon="11.544901864166587"><ele>115.99999999999999</ele><time>2026-04-12T15:26:31.999Z</time></trkpt><trkpt lat="42.45520997870468" lon="11.544917245484651"><ele>116.0</ele><time>2026-04-12T15:26:32.999Z</time></trkpt><trkpt lat="42.45511184263811" lon="11.544932589975652"><ele>114.99999999999999</ele><time>2026-04-12T15:26:33.999Z</time></trkpt><trkpt lat="42.45501127522364" lon="11.54494817610891"><ele>114.0</ele><time>2026-04-12T15:26:34.999Z</time></trkpt><trkpt lat="42.45491971598219" lon="11.544962366153491"><ele>113.0</ele><time>2026-04-12T15:26:35.999Z</time></trkpt><trkpt lat="42.4548388626604" lon="11.544995553046581"><ele>112.0</ele><time>2026-04-12T15:26:37Z</time></trkpt><trkpt lat="42.45475531186203" lon="11.544995492203038"><ele>110.99999999999999</ele><time>2026-04-12T15:26:38Z</time></trkpt><trkpt lat="42.454671021098704" lon="11.545013533067694"><ele>110.0</ele><time>2026-04-12T15:26:39Z</time></trkpt><trkpt lat="42.454585498088264" lon="11.545027574568822"><ele>109.66666666666666</ele><time>2026-04-12T15:26:40Z</time></trkpt><trkpt lat="42.45450122886826" lon="11.545043792312551"><ele>109.33333333333333</ele><time>2026-04-12T15:26:41Z</time></trkpt><trkpt lat="42.45441669323451" lon="11.54504032558286"><ele>109.0</ele><time>2026-04-12T15:26:42Z</time></trkpt><trkpt lat="42.45432333598805" lon="11.545054160317008"><ele>108.66666666666666</ele><time>2026-04-12T15:26:43Z</time></trkpt><trkpt lat="42.45424337290951" lon="11.54506600150926"><ele>108.33333333333333</ele><time>2026-04-12T15:26:44Z</time></trkpt><trkpt lat="42.4541589364831" lon="11.545078505163668"><ele>108.0</ele><time>2026-04-12T15:26:45Z</time></trkpt><trkpt lat="42.45407186068805" lon="11.54509139966376"><ele>108.0</ele><time>2026-04-12T15:26:46Z</time></trkpt><trkpt lat="42.453982149836165" lon="11.545104684378527"><ele>108.00000000000001</ele><time>2026-04-12T15:26:47Z</time></trkpt><trkpt lat="42.4538896528468" lon="11.54511838166711"><ele>108.00000000000001</ele><time>2026-04-12T15:26:48Z</time></trkpt><trkpt lat="42.4537979715376" lon="11.54513195816375"><ele>108.0</ele><time>2026-04-12T15:26:49Z</time></trkpt><trkpt lat="42.45370883369878" lon="11.54516593130649"><ele>108.0</ele><time>2026-04-12T15:26:50Z</time></trkpt><trkpt lat="42.453618838948955" lon="11.545178309827795"><ele>107.4</ele><time>2026-04-12T15:26:51Z</time></trkpt><trkpt lat="42.45351981963646" lon="11.545195699393432"><ele>106.80000000000001</ele><time>2026-04-12T15:26:52Z</time></trkpt><trkpt lat="42.45341307421187" lon="11.545192258360856"><ele>106.2</ele><time>2026-04-12T15:26:53Z</time></trkpt><trkpt lat="42.453306338203454" lon="11.545209189429707"><ele>105.6</ele><time>2026-04-12T15:26:54Z</time></trkpt><trkpt lat="42.453209022693734" lon="11.54524152594912"><ele>105.0</ele><time>2026-04-12T15:26:55Z</time></trkpt><trkpt lat="42.45312794839035" lon="11.545235234002238"><ele>105.0</ele><time>2026-04-12T15:26:56Z</time></trkpt><trkpt lat="42.453048133575244" lon="11.545249706781002"><ele>105.0</ele><time>2026-04-12T15:26:57Z</time></trkpt><trkpt lat="42.452966342625636" lon="11.545291248908184"><ele>105.0</ele><time>2026-04-12T15:26:58Z</time></trkpt><trkpt lat="42.45288989792729" lon="11.54529354553641"><ele>105.0</ele><time>2026-04-12T15:26:59Z</time></trkpt><trkpt lat="42.45282387715803" lon="11.545315675948196"><ele>105.0</ele><time>2026-04-12T15:27:00Z</time></trkpt><trkpt lat="42.4527591744658" lon="11.545354270849392"><ele>105.0</ele><time>2026-04-12T15:27:01Z</time></trkpt><trkpt lat="42.452669416045644" lon="11.545385528640802"><ele>105.0</ele><time>2026-04-12T15:27:02Z</time></trkpt><trkpt lat="42.45257406988197" lon="11.54539279094"><ele>105.0</ele><time>2026-04-12T15:27:03Z</time></trkpt><trkpt lat="42.45248493248509" lon="11.545419000795237"><ele>105.0</ele><time>2026-04-12T15:27:04Z</time></trkpt><trkpt lat="42.45239038584565" lon="11.545446801193911"><ele>105.0</ele><time>2026-04-12T15:27:05Z</time></trkpt><trkpt lat="42.45230434744804" lon="11.545471693156758"><ele>105.0</ele><time>2026-04-12T15:27:06Z</time></trkpt><trkpt lat="42.45222633898828" lon="11.545494071725152"><ele>105.0</ele><time>2026-04-12T15:27:07Z</time></trkpt><trkpt lat="42.452159125592736" lon="11.545512075200483"><ele>105.0</ele><time>2026-04-12T15:27:08Z</time></trkpt><trkpt lat="42.45209500707221" lon="11.545529237074486"><ele>105.0</ele><time>2026-04-12T15:27:09Z</time></trkpt><trkpt lat="42.45202206174041" lon="11.545548761596914"><ele>105.0</ele><time>2026-04-12T15:27:10Z</time></trkpt><trkpt lat="42.451939958462056" lon="11.545585487488683"><ele>105.0</ele><time>2026-04-12T15:27:11Z</time></trkpt><trkpt lat="42.45185882968786" lon="11.545611556160416"><ele>105.0</ele><time>2026-04-12T15:27:12Z</time></trkpt><trkpt lat="42.45178748990237" lon="11.545632286070859"><ele>104.6</ele><time>2026-04-12T15:27:13Z</time></trkpt><trkpt lat="42.451686951338694" lon="11.545665950261274"><ele>104.2</ele><time>2026-04-12T15:27:15Z</time></trkpt><trkpt lat="42.45162343913267" lon="11.545752209353122"><ele>103.80000000000001</ele><time>2026-04-12T15:27:17Z</time></trkpt><trkpt lat="42.45161613981533" lon="11.545910507824402"><ele>103.4</ele><time>2026-04-12T15:27:19Z</time></trkpt><trkpt lat="42.45161403236607" lon="11.546007441454533"><ele>103.0</ele><time>2026-04-12T15:27:20Z</time></trkpt><trkpt lat="42.45162491046311" lon="11.54610235283049"><ele>103.00000000000001</ele><time>2026-04-12T15:27:21Z</time></trkpt><trkpt lat="42.45162366445564" lon="11.546259130693524"><ele>103.0</ele><time>2026-04-12T15:27:23Z</time></trkpt><trkpt lat="42.45162021466624" lon="11.546419194675314"><ele>103.0</ele><time>2026-04-12T15:27:25Z</time></trkpt><trkpt lat="42.45161952397724" lon="11.546524398107177"><ele>103.0</ele><time>2026-04-12T15:27:26Z</time></trkpt><trkpt lat="42.45161729465137" lon="11.546610518171017"><ele>103.00000000000001</ele><time>2026-04-12T15:27:27Z</time></trkpt><trkpt lat="42.451603006371755" lon="11.546706858295925"><ele>103.0</ele><time>2026-04-12T15:27:27.999Z</time></trkpt><trkpt lat="42.45160074071741" lon="11.546806239844788"><ele>103.00000000000001</ele><time>2026-04-12T15:27:28.999Z</time></trkpt><trkpt lat="42.45159685399664" lon="11.546986461635411"><ele>103.0</ele><time>2026-04-12T15:27:30.999Z</time></trkpt><trkpt lat="42.45161001282375" lon="11.547094061529162"><ele>103.0</ele><time>2026-04-12T15:27:31.999Z</time></trkpt><trkpt lat="42.451608301844566" lon="11.54718036405428"><ele>103.0</ele><time>2026-04-12T15:27:32.999Z</time></trkpt><trkpt lat="42.451610000863525" lon="11.547267626493156"><ele>103.00000000000001</ele><time>2026-04-12T15:27:33.999Z</time></trkpt><trkpt lat="42.451607265724725" lon="11.547356751383115"><ele>103.0</ele><time>2026-04-12T15:27:34.999Z</time></trkpt><trkpt lat="42.45159943189713" lon="11.547487092004316"><ele>102.83333333333334</ele><time>2026-04-12T15:27:36.999Z</time></trkpt><trkpt lat="42.45155165336515" lon="11.547567515922253"><ele>102.66666666666667</ele><time>2026-04-12T15:27:38.999Z</time></trkpt><trkpt lat="42.45144419603204" lon="11.547582907450627"><ele>102.5</ele><time>2026-04-12T15:27:40.999Z</time></trkpt><trkpt lat="42.45138027019695" lon="11.547608885773036"><ele>102.33333333333334</ele><time>2026-04-12T15:27:41.999Z</time></trkpt><trkpt lat="42.45131989844782" lon="11.547655042223688"><ele>102.16666666666667</ele><time>2026-04-12T15:27:42.999Z</time></trkpt><trkpt lat="42.45123794439144" lon="11.547663394340574"><ele>102.0</ele><time>2026-04-12T15:27:43.999Z</time></trkpt><trkpt lat="42.45116191181691" lon="11.547691594649047"><ele>101.66666666666667</ele><time>2026-04-12T15:27:44.999Z</time></trkpt><trkpt lat="42.451083762129215" lon="11.547720868098773"><ele>101.33333333333334</ele><time>2026-04-12T15:27:45.999Z</time></trkpt><trkpt lat="42.451004999956616" lon="11.547751452435373"><ele>101.0</ele><time>2026-04-12T15:27:46.999Z</time></trkpt><trkpt lat="42.4509297106314" lon="11.547780688192969"><ele>100.66666666666667</ele><time>2026-04-12T15:27:47.999Z</time></trkpt><trkpt lat="42.45086733039428" lon="11.547807387189458"><ele>100.33333333333334</ele><time>2026-04-12T15:27:48.999Z</time></trkpt><trkpt lat="42.45075836401751" lon="11.54787860201312"><ele>100.0</ele><time>2026-04-12T15:27:50.999Z</time></trkpt><trkpt lat="42.450693828594886" lon="11.547887457623759"><ele>99.50000000000001</ele><time>2026-04-12T15:27:51.999Z</time></trkpt><trkpt lat="42.4505695570392" lon="11.54796177133716"><ele>99.0</ele><time>2026-04-12T15:27:53.999Z</time></trkpt><trkpt lat="42.45050594873595" lon="11.547999648049155"><ele>98.5</ele><time>2026-04-12T15:27:54.999Z</time></trkpt><trkpt lat="42.450416902070046" lon="11.548015665732494"><ele>98.0</ele><time>2026-04-12T15:27:55.999Z</time></trkpt><trkpt lat="42.45034768740029" lon="11.548044490188683"><ele>97.50000000000001</ele><time>2026-04-12T15:27:56.999Z</time></trkpt><trkpt lat="42.45027596412553" lon="11.548069809358257"><ele>97.0</ele><time>2026-04-12T15:27:57.999Z</time></trkpt><trkpt lat="42.45020503902946" lon="11.548087973720175"><ele>96.83333333333334</ele><time>2026-04-12T15:27:58.999Z</time></trkpt><trkpt lat="42.450128790973515" lon="11.548101509339618"><ele>96.66666666666667</ele><time>2026-04-12T15:27:59.999Z</time></trkpt><trkpt lat="42.45005217128266" lon="11.548103911859917"><ele>96.5</ele><time>2026-04-12T15:28:00.999Z</time></trkpt><trkpt lat="42.449986257348286" lon="11.548100816530765"><ele>96.33333333333334</ele><time>2026-04-12T15:28:01.999Z</time></trkpt><trkpt lat="42.44988276573209" lon="11.548095094509032"><ele>96.16666666666667</ele><time>2026-04-12T15:28:03.999Z</time></trkpt><trkpt lat="42.449773854025835" lon="11.548104990235876"><ele>96.0</ele><time>2026-04-12T15:28:05.999Z</time></trkpt><trkpt lat="42.449647014384624" lon="11.548084895619027"><ele>95.66666666666667</ele><time>2026-04-12T15:28:07.999Z</time></trkpt><trkpt lat="42.44958353959158" lon="11.548082640662335"><ele>95.33333333333333</ele><time>2026-04-12T15:28:08.999Z</time></trkpt><trkpt lat="42.44951757181647" lon="11.548076848493146"><ele>95.0</ele><time>2026-04-12T15:28:09.999Z</time></trkpt><trkpt lat="42.44944533730792" lon="11.548048587561139"><ele>94.66666666666666</ele><time>2026-04-12T15:28:10.999Z</time></trkpt><trkpt lat="42.44936671503651" lon="11.548034912745054"><ele>94.33333333333333</ele><time>2026-04-12T15:28:11.999Z</time></trkpt><trkpt lat="42.44925642948007" lon="11.548008413583075"><ele>94.0</ele><time>2026-04-12T15:28:13.999Z</time></trkpt><trkpt lat="42.44914471787597" lon="11.547962443142515"><ele>94.0</ele><time>2026-04-12T15:28:15.999Z</time></trkpt><trkpt lat="42.44904866902969" lon="11.547937859375175"><ele>94.0</ele><time>2026-04-12T15:28:17.999Z</time></trkpt><trkpt lat="42.448979167305815" lon="11.547945669312691"><ele>94.0</ele><time>2026-04-12T15:28:19.999Z</time></trkpt><trkpt lat="42.448949567816655" lon="11.54805343974099"><ele>94.0</ele><time>2026-04-12T15:28:21.999Z</time></trkpt><trkpt lat="42.448906951345606" lon="11.548177861433295"><ele>94.0</ele><time>2026-04-12T15:28:23.999Z</time></trkpt><trkpt lat="42.448895161040504" lon="11.54833353340806"><ele>94.0</ele><time>2026-04-12T15:28:25.999Z</time></trkpt><trkpt lat="42.448870111029365" lon="11.548417032865022"><ele>94.0</ele><time>2026-04-12T15:28:26.999Z</time></trkpt><trkpt lat="42.44882317030995" lon="11.548475875622746"><ele>94.0</ele><time>2026-04-12T15:28:27.999Z</time></trkpt><trkpt lat="42.44873641125197" lon="11.548620095513215"><ele>94.0</ele><time>2026-04-12T15:28:29.999Z</time></trkpt><trkpt lat="42.44867822621049" lon="11.548695428765855"><ele>94.0</ele><time>2026-04-12T15:28:30.999Z</time></trkpt><trkpt lat="42.44862129408909" lon="11.548761451234471"><ele>94.0</ele><time>2026-04-12T15:28:31.999Z</time></trkpt><trkpt lat="42.44857901408447" lon="11.548833015749683"><ele>93.33333333333333</ele><time>2026-04-12T15:28:32.999Z</time></trkpt><trkpt lat="42.44851476964797" lon="11.548868055130733"><ele>92.66666666666666</ele><time>2026-04-12T15:28:33.999Z</time></trkpt><trkpt lat="42.448421323444826" lon="11.548954591370817"><ele>92.0</ele><time>2026-04-12T15:28:35.999Z</time></trkpt><trkpt lat="42.44836215882471" lon="11.548988784054162"><ele>91.33333333333333</ele><time>2026-04-12T15:28:36.999Z</time></trkpt><trkpt lat="42.44829115350533" lon="11.549019240191457"><ele>90.66666666666667</ele><time>2026-04-12T15:28:37.999Z</time></trkpt><trkpt lat="42.44820312618716" lon="11.549055926303655"><ele>90.0</ele><time>2026-04-12T15:28:38.999Z</time></trkpt><trkpt lat="42.448118859782426" lon="11.549113395699822"><ele>90.0</ele><time>2026-04-12T15:28:39.999Z</time></trkpt><trkpt lat="42.44802266911427" lon="11.549131293648928"><ele>90.0</ele><time>2026-04-12T15:28:40.999Z</time></trkpt><trkpt lat="42.44792315002105" lon="11.549173853724053"><ele>90.0</ele><time>2026-04-12T15:28:41.999Z</time></trkpt><trkpt lat="42.447823115801484" lon="11.549216863601034"><ele>90.0</ele><time>2026-04-12T15:28:43Z</time></trkpt><trkpt lat="42.44771942426974" lon="11.549261110144457"><ele>90.0</ele><time>2026-04-12T15:28:44Z</time></trkpt><trkpt lat="42.44761528276584" lon="11.549305271729363"><ele>89.8</ele><time>2026-04-12T15:28:45Z</time></trkpt><trkpt lat="42.447523500763864" lon="11.549344192340552"><ele>89.6</ele><time>2026-04-12T15:28:46Z</time></trkpt><trkpt lat="42.44743289594753" lon="11.549382533200884"><ele>89.4</ele><time>2026-04-12T15:28:47Z</time></trkpt><trkpt lat="42.44734370802459" lon="11.549420010483594"><ele>89.2</ele><time>2026-04-12T15:28:48Z</time></trkpt><trkpt lat="42.44725434916258" lon="11.549457559599894"><ele>89.0</ele><time>2026-04-12T15:28:49Z</time></trkpt><trkpt lat="42.447171418102414" lon="11.549493132203459"><ele>89.16666666666667</ele><time>2026-04-12T15:28:50Z</time></trkpt><trkpt lat="42.447089743056026" lon="11.549528937929088"><ele>89.33333333333334</ele><time>2026-04-12T15:28:51Z</time></trkpt><trkpt lat="42.44701602665346" lon="11.549561254645921"><ele>89.5</ele><time>2026-04-12T15:28:52Z</time></trkpt><trkpt lat="42.44694428344428" lon="11.549592706306882"><ele>89.66666666666667</ele><time>2026-04-12T15:28:53Z</time></trkpt><trkpt lat="42.446877506295955" lon="11.549622263844096"><ele>89.83333333333333</ele><time>2026-04-12T15:28:54Z</time></trkpt><trkpt lat="42.44682238543414" lon="11.54966982345877"><ele>90.0</ele><time>2026-04-12T15:28:55Z</time></trkpt><trkpt lat="42.44674745223962" lon="11.549691322768847"><ele>90.0</ele><time>2026-04-12T15:28:56Z</time></trkpt><trkpt lat="42.44667558773261" lon="11.549727888450334"><ele>90.0</ele><time>2026-04-12T15:28:57Z</time></trkpt><trkpt lat="42.446609721813715" lon="11.549755475383348"><ele>90.0</ele><time>2026-04-12T15:28:58Z</time></trkpt><trkpt lat="42.446542766470515" lon="11.549784584393722"><ele>90.0</ele><time>2026-04-12T15:28:59Z</time></trkpt><trkpt lat="42.4464749116461" lon="11.549816452670632"><ele>90.0</ele><time>2026-04-12T15:29:00Z</time></trkpt><trkpt lat="42.446412300459336" lon="11.549836954591028"><ele>90.0</ele><time>2026-04-12T15:29:01Z</time></trkpt><trkpt lat="42.44634447343849" lon="11.549860862502316"><ele>90.0</ele><time>2026-04-12T15:29:02Z</time></trkpt><trkpt lat="42.44627634104663" lon="11.54986387645698"><ele>89.33333333333333</ele><time>2026-04-12T15:29:03Z</time></trkpt><trkpt lat="42.44621457998713" lon="11.549887348775426"><ele>88.66666666666667</ele><time>2026-04-12T15:29:04Z</time></trkpt><trkpt lat="42.44614518221601" lon="11.549915655218742"><ele>88.0</ele><time>2026-04-12T15:29:05Z</time></trkpt><trkpt lat="42.446081320890876" lon="11.549868620852958"><ele>87.33333333333334</ele><time>2026-04-12T15:29:06Z</time></trkpt><trkpt lat="42.446023606032554" lon="11.549826110622027"><ele>86.66666666666667</ele><time>2026-04-12T15:29:07Z</time></trkpt><trkpt lat="42.44594199378341" lon="11.54978000144444"><ele>86.0</ele><time>2026-04-12T15:29:08Z</time></trkpt><trkpt lat="42.44585037910136" lon="11.549746056198215"><ele>86.0</ele><time>2026-04-12T15:29:09Z</time></trkpt><trkpt lat="42.44576353944463" lon="11.549714131973094"><ele>86.0</ele><time>2026-04-12T15:29:10Z</time></trkpt><trkpt lat="42.44568926447913" lon="11.549677669961262"><ele>86.0</ele><time>2026-04-12T15:29:11Z</time></trkpt><trkpt lat="42.44561084478092" lon="11.549627527296664"><ele>86.0</ele><time>2026-04-12T15:29:12Z</time></trkpt><trkpt lat="42.4455361738789" lon="11.549596046007796"><ele>86.0</ele><time>2026-04-12T15:29:13Z</time></trkpt><trkpt lat="42.445444148222876" lon="11.549589412122998"><ele>86.0</ele><time>2026-04-12T15:29:14Z</time></trkpt><trkpt lat="42.44535077429081" lon="11.549586280310004"><ele>86.0</ele><time>2026-04-12T15:29:15Z</time></trkpt><trkpt lat="42.44526542699459" lon="11.549615687863117"><ele>86.0</ele><time>2026-04-12T15:29:16Z</time></trkpt><trkpt lat="42.44516448060452" lon="11.549614492184503"><ele>86.0</ele><time>2026-04-12T15:29:17Z</time></trkpt><trkpt lat="42.445066588562575" lon="11.549594012539936"><ele>86.0</ele><time>2026-04-12T15:29:18Z</time></trkpt><trkpt lat="42.44496173249754" lon="11.54959401253918"><ele>86.0</ele><time>2026-04-12T15:29:19Z</time></trkpt><trkpt lat="42.44485835093443" lon="11.549594012538716"><ele>86.0</ele><time>2026-04-12T15:29:20Z</time></trkpt><trkpt lat="42.44475599307697" lon="11.54959401253831"><ele>86.0</ele><time>2026-04-12T15:29:21Z</time></trkpt><trkpt lat="42.444653841400296" lon="11.549591573757468"><ele>86.0</ele><time>2026-04-12T15:29:22Z</time></trkpt><trkpt lat="42.444550000189004" lon="11.549587577133689"><ele>86.0</ele><time>2026-04-12T15:29:23Z</time></trkpt><trkpt lat="42.44444016208543" lon="11.54958208522597"><ele>86.0</ele><time>2026-04-12T15:29:24Z</time></trkpt><trkpt lat="42.44432262230426" lon="11.549575534297679"><ele>85.75</ele><time>2026-04-12T15:29:25Z</time></trkpt><trkpt lat="42.444199865707205" lon="11.549568461033928"><ele>85.5</ele><time>2026-04-12T15:29:26Z</time></trkpt><trkpt lat="42.44406977652692" lon="11.549560965258756"><ele>85.25</ele><time>2026-04-12T15:29:27Z</time></trkpt><trkpt lat="42.44393781824074" lon="11.549553361787861"><ele>85.0</ele><time>2026-04-12T15:29:28Z</time></trkpt><trkpt lat="42.44380355982412" lon="11.54954562579106"><ele>83.75</ele><time>2026-04-12T15:29:29Z</time></trkpt><trkpt lat="42.44366574528283" lon="11.549537684877714"><ele>82.5</ele><time>2026-04-12T15:29:30Z</time></trkpt><trkpt lat="42.443525831683594" lon="11.549529623000716"><ele>81.25</ele><time>2026-04-12T15:29:31Z</time></trkpt><trkpt lat="42.44339030411291" lon="11.549521815629825"><ele>80.0</ele><time>2026-04-12T15:29:32Z</time></trkpt><trkpt lat="42.443253224899216" lon="11.549513917092069"><ele>80.0</ele><time>2026-04-12T15:29:33Z</time></trkpt><trkpt lat="42.44310345946758" lon="11.549505873447401"><ele>80.0</ele><time>2026-04-12T15:29:34Z</time></trkpt><trkpt lat="42.44296516417288" lon="11.549501338183944"><ele>80.0</ele><time>2026-04-12T15:29:35Z</time></trkpt><trkpt lat="42.442846156817154" lon="11.549500028811913"><ele>80.0</ele><time>2026-04-12T15:29:36Z</time></trkpt><trkpt lat="42.442730081836864" lon="11.549519817851898"><ele>80.0</ele><time>2026-04-12T15:29:37Z</time></trkpt><trkpt lat="42.442611499243796" lon="11.549494174503641"><ele>80.0</ele><time>2026-04-12T15:29:38Z</time></trkpt><trkpt lat="42.44247449197902" lon="11.549485927328346"><ele>80.0</ele><time>2026-04-12T15:29:39Z</time></trkpt><trkpt lat="42.44233831457477" lon="11.549474304928806"><ele>80.0</ele><time>2026-04-12T15:29:40Z</time></trkpt><trkpt lat="42.442194971966735" lon="11.54946094177269"><ele>79.0</ele><time>2026-04-12T15:29:41Z</time></trkpt><trkpt lat="42.44190398333562" lon="11.549436698051212"><ele>78.0</ele><time>2026-04-12T15:29:43Z</time></trkpt><trkpt lat="42.441762486193014" lon="11.549444578043133"><ele>77.0</ele><time>2026-04-12T15:29:44Z</time></trkpt><trkpt lat="42.44163649594887" lon="11.54942288545668"><ele>77.0</ele><time>2026-04-12T15:29:45Z</time></trkpt><trkpt lat="42.441508966265104" lon="11.549416300039848"><ele>77.0</ele><time>2026-04-12T15:29:46Z</time></trkpt><trkpt lat="42.44139634853051" lon="11.549410484651702"><ele>77.0</ele><time>2026-04-12T15:29:47Z</time></trkpt><trkpt lat="42.44127856990132" lon="11.5494044027629"><ele>77.0</ele><time>2026-04-12T15:29:48Z</time></trkpt><trkpt lat="42.44116584915263" lon="11.549398582054154"><ele>75.75</ele><time>2026-04-12T15:29:49Z</time></trkpt><trkpt lat="42.4410438534687" lon="11.549392282402573"><ele>74.5</ele><time>2026-04-12T15:29:50Z</time></trkpt><trkpt lat="42.44091702078233" lon="11.549406751379149"><ele>73.25</ele><time>2026-04-12T15:29:50.999Z</time></trkpt><trkpt lat="42.4407865690585" lon="11.549399543090464"><ele>72.0</ele><time>2026-04-12T15:29:51.999Z</time></trkpt><trkpt lat="42.44067126528869" lon="11.54938752277919"><ele>72.0</ele><time>2026-04-12T15:29:52.999Z</time></trkpt><trkpt lat="42.440570852812485" lon="11.549383325476825"><ele>72.0</ele><time>2026-04-12T15:29:53.999Z</time></trkpt><trkpt lat="42.44047574031263" lon="11.549381548304016"><ele>72.0</ele><time>2026-04-12T15:29:54.999Z</time></trkpt><trkpt lat="42.4403887142341" lon="11.549373029936893"><ele>72.0</ele><time>2026-04-12T15:29:55.999Z</time></trkpt><trkpt lat="42.44032396510658" lon="11.549368279923126"><ele>72.0</ele><time>2026-04-12T15:29:56.999Z</time></trkpt><trkpt lat="42.44025544643321" lon="11.549342090679149"><ele>72.0</ele><time>2026-04-12T15:29:57.999Z</time></trkpt><trkpt lat="42.44016852124204" lon="11.549335030399376"><ele>71.66666666666667</ele><time>2026-04-12T15:29:59.999Z</time></trkpt><trkpt lat="42.44009213481453" lon="11.54932882611191"><ele>71.33333333333333</ele><time>2026-04-12T15:30:01.999Z</time></trkpt><trkpt lat="42.44004174540704" lon="11.549445853193394"><ele>71.0</ele><time>2026-04-12T15:30:02.999Z</time></trkpt><trkpt lat="42.44000526226964" lon="11.54953068598494"><ele>70.66666666666666</ele><time>2026-04-12T15:30:03.999Z</time></trkpt><trkpt lat="42.4399772162784" lon="11.549632153515574"><ele>70.33333333333333</ele><time>2026-04-12T15:30:04.999Z</time></trkpt><trkpt lat="42.43994516041558" lon="11.549739263793489"><ele>70.0</ele><time>2026-04-12T15:30:05.999Z</time></trkpt><trkpt lat="42.43991325153551" lon="11.549853330677294"><ele>70.0</ele><time>2026-04-12T15:30:06.999Z</time></trkpt><trkpt lat="42.43989221341796" lon="11.549981001564461"><ele>70.0</ele><time>2026-04-12T15:30:07.999Z</time></trkpt><trkpt lat="42.43987220613276" lon="11.550108280395609"><ele>70.0</ele><time>2026-04-12T15:30:08.999Z</time></trkpt><trkpt lat="42.43985043747635" lon="11.550226022115341"><ele>70.0</ele><time>2026-04-12T15:30:09.999Z</time></trkpt><trkpt lat="42.43982651465897" lon="11.550331976714684"><ele>70.0</ele><time>2026-04-12T15:30:10.999Z</time></trkpt><trkpt lat="42.43980759053886" lon="11.550442244728673"><ele>70.0</ele><time>2026-04-12T15:30:11.999Z</time></trkpt><trkpt lat="42.43978539417221" lon="11.550549436181267"><ele>70.0</ele><time>2026-04-12T15:30:12.999Z</time></trkpt><trkpt lat="42.43976028025807" lon="11.550671600152135"><ele>70.0</ele><time>2026-04-12T15:30:13.999Z</time></trkpt><trkpt lat="42.43974017816516" lon="11.550780175311782"><ele>70.0</ele><time>2026-04-12T15:30:14.999Z</time></trkpt><trkpt lat="42.439731925364335" lon="11.550902865108275"><ele>70.0</ele><time>2026-04-12T15:30:15.999Z</time></trkpt><trkpt lat="42.43972432220702" lon="11.55102196814947"><ele>70.0</ele><time>2026-04-12T15:30:16.999Z</time></trkpt><trkpt lat="42.439690039813605" lon="11.551138521018714"><ele>70.0</ele><time>2026-04-12T15:30:17.999Z</time></trkpt><trkpt lat="42.43965996997469" lon="11.55127497306337"><ele>69.25</ele><time>2026-04-12T15:30:18.999Z</time></trkpt><trkpt lat="42.4396210255607" lon="11.551419865112965"><ele>68.5</ele><time>2026-04-12T15:30:19.999Z</time></trkpt><trkpt lat="42.43958508395274" lon="11.551572087639304"><ele>67.75</ele><time>2026-04-12T15:30:20.999Z</time></trkpt><trkpt lat="42.43954614796247" lon="11.55173089847573"><ele>67.0</ele><time>2026-04-12T15:30:21.999Z</time></trkpt><trkpt lat="42.439509318590694" lon="11.55189483514729"><ele>67.25</ele><time>2026-04-12T15:30:22.999Z</time></trkpt><trkpt lat="42.439463481249724" lon="11.552063358294552"><ele>67.5</ele><time>2026-04-12T15:30:23.999Z</time></trkpt><trkpt lat="42.439411158067415" lon="11.552227961387619"><ele>67.75</ele><time>2026-04-12T15:30:24.999Z</time></trkpt><trkpt lat="42.43935658246273" lon="11.552397491205104"><ele>68.0</ele><time>2026-04-12T15:30:25.999Z</time></trkpt><trkpt lat="42.4393038784945" lon="11.552562032528101"><ele>68.0</ele><time>2026-04-12T15:30:26.999Z</time></trkpt><trkpt lat="42.43925546989616" lon="11.552713137324332"><ele>68.0</ele><time>2026-04-12T15:30:27.999Z</time></trkpt><trkpt lat="42.4392194945339" lon="11.552852631184532"><ele>68.0</ele><time>2026-04-12T15:30:28.999Z</time></trkpt><trkpt lat="42.4391850403514" lon="11.552990222385688"><ele>68.0</ele><time>2026-04-12T15:30:29.999Z</time></trkpt><trkpt lat="42.43914230483504" lon="11.553116961104749"><ele>68.0</ele><time>2026-04-12T15:30:30.999Z</time></trkpt><trkpt lat="42.439095207473734" lon="11.553257200781683"><ele>68.2</ele><time>2026-04-12T15:30:31.999Z</time></trkpt><trkpt lat="42.439050170322446" lon="11.553386845646292"><ele>68.4</ele><time>2026-04-12T15:30:32.999Z</time></trkpt><trkpt lat="42.439000129000206" lon="11.553514117388245"><ele>68.60000000000001</ele><time>2026-04-12T15:30:33.999Z</time></trkpt><trkpt lat="42.4389533953816" lon="11.553637161127853"><ele>68.8</ele><time>2026-04-12T15:30:34.999Z</time></trkpt><trkpt lat="42.438905078465275" lon="11.553762707921049"><ele>69.0</ele><time>2026-04-12T15:30:35.999Z</time></trkpt><trkpt lat="42.438854637458704" lon="11.55389470325156"><ele>69.25</ele><time>2026-04-12T15:30:36.999Z</time></trkpt><trkpt lat="42.43880334218658" lon="11.554036614603802"><ele>69.5</ele><time>2026-04-12T15:30:37.999Z</time></trkpt><trkpt lat="42.4387537242453" lon="11.554183047081032"><ele>69.75</ele><time>2026-04-12T15:30:38.999Z</time></trkpt><trkpt lat="42.438702532882914" lon="11.554328764404048"><ele>70.0</ele><time>2026-04-12T15:30:39.999Z</time></trkpt><trkpt lat="42.43866697093795" lon="11.554460819689185"><ele>69.6</ele><time>2026-04-12T15:30:40.999Z</time></trkpt><trkpt lat="42.43864183941198" lon="11.554589587179805"><ele>69.2</ele><time>2026-04-12T15:30:41.999Z</time></trkpt><trkpt lat="42.43862305984391" lon="11.554732458122633"><ele>68.8</ele><time>2026-04-12T15:30:42.999Z</time></trkpt><trkpt lat="42.43861105294452" lon="11.554876377970443"><ele>68.4</ele><time>2026-04-12T15:30:43.999Z</time></trkpt><trkpt lat="42.438607995932905" lon="11.555030039909418"><ele>68.0</ele><time>2026-04-12T15:30:44.999Z</time></trkpt><trkpt lat="42.438615129132614" lon="11.55518005285089"><ele>68.0</ele><time>2026-04-12T15:30:45.999Z</time></trkpt><trkpt lat="42.43863678728682" lon="11.5553157397754"><ele>68.0</ele><time>2026-04-12T15:30:46.999Z</time></trkpt><trkpt lat="42.438661885455744" lon="11.555448955064689"><ele>68.0</ele><time>2026-04-12T15:30:48Z</time></trkpt><trkpt lat="42.438691830995836" lon="11.55558005503206"><ele>68.0</ele><time>2026-04-12T15:30:49Z</time></trkpt><trkpt lat="42.43872637843603" lon="11.55571599301632"><ele>68.0</ele><time>2026-04-12T15:30:50Z</time></trkpt><trkpt lat="42.43876229456405" lon="11.555845336075235"><ele>68.2</ele><time>2026-04-12T15:30:51Z</time></trkpt><trkpt lat="42.43880162769563" lon="11.555963720081841"><ele>68.4</ele><time>2026-04-12T15:30:52Z</time></trkpt><trkpt lat="42.43884114044859" lon="11.556085424963959"><ele>68.60000000000001</ele><time>2026-04-12T15:30:53Z</time></trkpt><trkpt lat="42.43887873255458" lon="11.556222004899526"><ele>68.8</ele><time>2026-04-12T15:30:54Z</time></trkpt><trkpt lat="42.43891485782384" lon="11.55636771200017"><ele>69.0</ele><time>2026-04-12T15:30:55Z</time></trkpt><trkpt lat="42.4389495795436" lon="11.556518857208868"><ele>68.25</ele><time>2026-04-12T15:30:56Z</time></trkpt><trkpt lat="42.43898432067913" lon="11.556671031301065"><ele>67.5</ele><time>2026-04-12T15:30:57Z</time></trkpt><trkpt lat="42.439014227007156" lon="11.556823974356714"><ele>66.75</ele><time>2026-04-12T15:30:58Z</time></trkpt><trkpt lat="42.43904755640423" lon="11.556977991421412"><ele>66.0</ele><time>2026-04-12T15:30:59Z</time></trkpt><trkpt lat="42.439077413747754" lon="11.557126736677478"><ele>65.39999999999999</ele><time>2026-04-12T15:31:00Z</time></trkpt><trkpt lat="42.43909805519911" lon="11.557273667144388"><ele>64.8</ele><time>2026-04-12T15:31:01Z</time></trkpt><trkpt lat="42.4391173312923" lon="11.557418718117484"><ele>64.19999999999999</ele><time>2026-04-12T15:31:02Z</time></trkpt><trkpt lat="42.439138935774544" lon="11.557561941017847"><ele>63.599999999999994</ele><time>2026-04-12T15:31:03Z</time></trkpt><trkpt lat="42.43915714654913" lon="11.557697107008826"><ele>63.0</ele><time>2026-04-12T15:31:04Z</time></trkpt><trkpt lat="42.43916253701629" lon="11.557823451726495"><ele>62.4</ele><time>2026-04-12T15:31:05Z</time></trkpt><trkpt lat="42.43916788212089" lon="11.557959655113034"><ele>61.8</ele><time>2026-04-12T15:31:06Z</time></trkpt><trkpt lat="42.43917440372326" lon="11.558093628510706"><ele>61.2</ele><time>2026-04-12T15:31:07Z</time></trkpt><trkpt lat="42.439151064719695" lon="11.558217117713005"><ele>60.6</ele><time>2026-04-12T15:31:08Z</time></trkpt><trkpt lat="42.43914020236175" lon="11.558329544458772"><ele>60.0</ele><time>2026-04-12T15:31:09Z</time></trkpt><trkpt lat="42.43912871600067" lon="11.558436912534944"><ele>60.0</ele><time>2026-04-12T15:31:10Z</time></trkpt><trkpt lat="42.439124163273" lon="11.558553563389486"><ele>60.0</ele><time>2026-04-12T15:31:11Z</time></trkpt><trkpt lat="42.43910751302147" lon="11.558676383673461"><ele>60.0</ele><time>2026-04-12T15:31:12Z</time></trkpt><trkpt lat="42.43909000219615" lon="11.558778297909761"><ele>60.0</ele><time>2026-04-12T15:31:13Z</time></trkpt><trkpt lat="42.4390804890488" lon="11.558890362536374"><ele>60.0</ele><time>2026-04-12T15:31:14Z</time></trkpt><trkpt lat="42.43907310850364" lon="11.558991978984004"><ele>60.0</ele><time>2026-04-12T15:31:15Z</time></trkpt><trkpt lat="42.43904011609517" lon="11.55910732292037"><ele>59.6</ele><time>2026-04-12T15:31:16Z</time></trkpt><trkpt lat="42.43901601066879" lon="11.559234794565356"><ele>59.2</ele><time>2026-04-12T15:31:17Z</time></trkpt><trkpt lat="42.438988893870324" lon="11.559365922552582"><ele>58.8</ele><time>2026-04-12T15:31:18Z</time></trkpt><trkpt lat="42.438961678039746" lon="11.559490453138665"><ele>58.4</ele><time>2026-04-12T15:31:19Z</time></trkpt><trkpt lat="42.438936264183226" lon="11.55959458662235"><ele>58.0</ele><time>2026-04-12T15:31:20Z</time></trkpt><trkpt lat="42.43890786008392" lon="11.559705168878052"><ele>57.49999999999999</ele><time>2026-04-12T15:31:21Z</time></trkpt><trkpt lat="42.43887944950124" lon="11.55980799261056"><ele>57.0</ele><time>2026-04-12T15:31:22Z</time></trkpt><trkpt lat="42.43885018672227" lon="11.559914915892401"><ele>56.5</ele><time>2026-04-12T15:31:23Z</time></trkpt><trkpt lat="42.43881589513087" lon="11.560043082440043"><ele>56.0</ele><time>2026-04-12T15:31:25Z</time></trkpt><trkpt lat="42.43878358943382" lon="11.560163826605056"><ele>55.49999999999999</ele><time>2026-04-12T15:31:28Z</time></trkpt><trkpt lat="42.4387801629236" lon="11.560273313298469"><ele>55.0</ele><time>2026-04-12T15:31:30Z</time></trkpt><trkpt lat="42.438776313446255" lon="11.560421875139554"><ele>54.8</ele><time>2026-04-12T15:31:32Z</time></trkpt><trkpt lat="42.438787883864634" lon="11.560596010104918"><ele>54.6</ele><time>2026-04-12T15:31:34Z</time></trkpt><trkpt lat="42.438801375330684" lon="11.560689938035361"><ele>54.400000000000006</ele><time>2026-04-12T15:31:35Z</time></trkpt><trkpt lat="42.438836326078025" lon="11.560826809088304"><ele>54.2</ele><time>2026-04-12T15:31:37Z</time></trkpt><trkpt lat="42.438868046252594" lon="11.560978677666238"><ele>54.0</ele><time>2026-04-12T15:31:39Z</time></trkpt><trkpt lat="42.438899695339195" lon="11.561059406448333"><ele>54.333333333333336</ele><time>2026-04-12T15:31:40Z</time></trkpt><trkpt lat="42.4389343188778" lon="11.56113830633198"><ele>54.66666666666667</ele><time>2026-04-12T15:31:41Z</time></trkpt><trkpt lat="42.4389809425953" lon="11.56120588989009"><ele>55.0</ele><time>2026-04-12T15:31:42Z</time></trkpt><trkpt lat="42.439002149579274" lon="11.561294569291626"><ele>55.333333333333336</ele><time>2026-04-12T15:31:43Z</time></trkpt><trkpt lat="42.43901956990676" lon="11.561452193381902"><ele>55.66666666666667</ele><time>2026-04-12T15:31:45Z</time></trkpt><trkpt lat="42.43898831249483" lon="11.561540510467108"><ele>56.0</ele><time>2026-04-12T15:31:46Z</time></trkpt><trkpt lat="42.43896844857048" lon="11.561628811194177"><ele>56.00000000000001</ele><time>2026-04-12T15:31:47Z</time></trkpt><trkpt lat="42.438946681836235" lon="11.561741422036627"><ele>56.0</ele><time>2026-04-12T15:31:48Z</time></trkpt><trkpt lat="42.43890916353444" lon="11.561852482499757"><ele>56.0</ele><time>2026-04-12T15:31:49Z</time></trkpt><trkpt lat="42.43887875539695" lon="11.561962309439318"><ele>56.0</ele><time>2026-04-12T15:31:50Z</time></trkpt><trkpt lat="42.43886331953051" lon="11.562061620755134"><ele>56.00000000000001</ele><time>2026-04-12T15:31:51Z</time></trkpt><trkpt lat="42.43884282556481" lon="11.562179861453096"><ele>56.0</ele><time>2026-04-12T15:31:52Z</time></trkpt><trkpt lat="42.438834081098804" lon="11.562287710599795"><ele>56.833333333333336</ele><time>2026-04-12T15:31:53Z</time></trkpt><trkpt lat="42.438828258408996" lon="11.562390612032386"><ele>57.66666666666667</ele><time>2026-04-12T15:31:54Z</time></trkpt><trkpt lat="42.438826381652305" lon="11.562494091886007"><ele>58.5</ele><time>2026-04-12T15:31:55Z</time></trkpt><trkpt lat="42.438809516744215" lon="11.56259405136827"><ele>59.33333333333333</ele><time>2026-04-12T15:31:55.999Z</time></trkpt><trkpt lat="42.43880965887955" lon="11.562698506382738"><ele>60.166666666666664</ele><time>2026-04-12T15:31:56.999Z</time></trkpt><trkpt lat="42.43877561128353" lon="11.562804473768795"><ele>61.0</ele><time>2026-04-12T15:31:57.999Z</time></trkpt><trkpt lat="42.43875421048339" lon="11.562899050319052"><ele>61.599999999999994</ele><time>2026-04-12T15:31:58.999Z</time></trkpt><trkpt lat="42.438758679597996" lon="11.562999204958919"><ele>62.199999999999996</ele><time>2026-04-12T15:31:59.999Z</time></trkpt><trkpt lat="42.438741666445985" lon="11.563178320002072"><ele>62.800000000000004</ele><time>2026-04-12T15:32:01.999Z</time></trkpt><trkpt lat="42.43874463795845" lon="11.563302778123168"><ele>63.400000000000006</ele><time>2026-04-12T15:32:02.999Z</time></trkpt><trkpt lat="42.438756766582095" lon="11.563405299952151"><ele>64.0</ele><time>2026-04-12T15:32:03.999Z</time></trkpt><trkpt lat="42.438767939683174" lon="11.563519219814683"><ele>63.99999999999999</ele><time>2026-04-12T15:32:04.999Z</time></trkpt><trkpt lat="42.438772074112464" lon="11.563627818587825"><ele>64.0</ele><time>2026-04-12T15:32:05.999Z</time></trkpt><trkpt lat="42.438795316305445" lon="11.563741297501076"><ele>64.0</ele><time>2026-04-12T15:32:06.999Z</time></trkpt><trkpt lat="42.438821291905604" lon="11.563832942868704"><ele>64.0</ele><time>2026-04-12T15:32:07.999Z</time></trkpt><trkpt lat="42.438858389072514" lon="11.563980702822283"><ele>63.99999999999999</ele><time>2026-04-12T15:32:09.999Z</time></trkpt><trkpt lat="42.438877054061706" lon="11.564068560247796"><ele>64.0</ele><time>2026-04-12T15:32:10.999Z</time></trkpt><trkpt lat="42.43889647114925" lon="11.564161134000619"><ele>64.33333333333333</ele><time>2026-04-12T15:32:11.999Z</time></trkpt><trkpt lat="42.438920006946006" lon="11.56426862348017"><ele>64.66666666666666</ele><time>2026-04-12T15:32:12.999Z</time></trkpt><trkpt lat="42.438943287467055" lon="11.564374395610125"><ele>65.0</ele><time>2026-04-12T15:32:13.999Z</time></trkpt><trkpt lat="42.438979759522404" lon="11.564471712163837"><ele>65.33333333333333</ele><time>2026-04-12T15:32:14.999Z</time></trkpt><trkpt lat="42.4389901785914" lon="11.564582993015513"><ele>65.66666666666667</ele><time>2026-04-12T15:32:15.999Z</time></trkpt><trkpt lat="42.439004388333586" lon="11.564686722479198"><ele>66.0</ele><time>2026-04-12T15:32:16.999Z</time></trkpt><trkpt lat="42.43902827747472" lon="11.564792847772477"><ele>66.66666666666667</ele><time>2026-04-12T15:32:17.999Z</time></trkpt><trkpt lat="42.439062058120015" lon="11.56489340092368"><ele>67.33333333333333</ele><time>2026-04-12T15:32:18.999Z</time></trkpt><trkpt lat="42.43909309852374" lon="11.564993379158912"><ele>68.0</ele><time>2026-04-12T15:32:19.999Z</time></trkpt><trkpt lat="42.43912406661971" lon="11.565101511873591"><ele>68.66666666666666</ele><time>2026-04-12T15:32:20.999Z</time></trkpt><trkpt lat="42.43915519984793" lon="11.565211643717936"><ele>69.33333333333333</ele><time>2026-04-12T15:32:21.999Z</time></trkpt><trkpt lat="42.43918617045676" lon="11.565319205297573"><ele>70.0</ele><time>2026-04-12T15:32:22.999Z</time></trkpt><trkpt lat="42.43919917167089" lon="11.565438964172909"><ele>71.33333333333333</ele><time>2026-04-12T15:32:23.999Z</time></trkpt><trkpt lat="42.43922532562169" lon="11.565542485500162"><ele>72.66666666666666</ele><time>2026-04-12T15:32:24.999Z</time></trkpt><trkpt lat="42.43926559637898" lon="11.565643895107208"><ele>74.0</ele><time>2026-04-12T15:32:25.999Z</time></trkpt><trkpt lat="42.43928522294139" lon="11.56573853434246"><ele>75.33333333333333</ele><time>2026-04-12T15:32:26.999Z</time></trkpt><trkpt lat="42.439302628672785" lon="11.565851632950636"><ele>76.66666666666667</ele><time>2026-04-12T15:32:27.999Z</time></trkpt><trkpt lat="42.43932698359624" lon="11.565953779196494"><ele>78.0</ele><time>2026-04-12T15:32:28.999Z</time></trkpt><trkpt lat="42.43935070282861" lon="11.566053259315101"><ele>78.0</ele><time>2026-04-12T15:32:29.999Z</time></trkpt><trkpt lat="42.43937740323042" lon="11.566170027198789"><ele>78.0</ele><time>2026-04-12T15:32:31.999Z</time></trkpt><trkpt lat="42.43939862331239" lon="11.566274087140135"><ele>78.0</ele><time>2026-04-12T15:32:32.999Z</time></trkpt><trkpt lat="42.43941472167696" lon="11.566441881447403"><ele>78.0</ele><time>2026-04-12T15:32:34.999Z</time></trkpt><trkpt lat="42.43940929738412" lon="11.56660757348121"><ele>78.0</ele><time>2026-04-12T15:32:36.999Z</time></trkpt><trkpt lat="42.43939869227259" lon="11.566692182420423"><ele>79.0</ele><time>2026-04-12T15:32:37.999Z</time></trkpt><trkpt lat="42.43938147775689" lon="11.566788175583262"><ele>80.0</ele><time>2026-04-12T15:32:38.999Z</time></trkpt><trkpt lat="42.43935329072878" lon="11.566954853487111"><ele>81.0</ele><time>2026-04-12T15:32:40.999Z</time></trkpt><trkpt lat="42.43932016441627" lon="11.567035704274302"><ele>82.0</ele><time>2026-04-12T15:32:41.999Z</time></trkpt><trkpt lat="42.43929208552099" lon="11.567122314912604"><ele>83.0</ele><time>2026-04-12T15:32:42.999Z</time></trkpt><trkpt lat="42.43924933583641" lon="11.567239601878535"><ele>84.0</ele><time>2026-04-12T15:32:43.999Z</time></trkpt><trkpt lat="42.439218692197805" lon="11.567329780006952"><ele>84.16666666666667</ele><time>2026-04-12T15:32:44.999Z</time></trkpt><trkpt lat="42.43919948517567" lon="11.567441283706243"><ele>84.33333333333333</ele><time>2026-04-12T15:32:45.999Z</time></trkpt><trkpt lat="42.439161958981124" lon="11.567547066741042"><ele>84.5</ele><time>2026-04-12T15:32:46.999Z</time></trkpt><trkpt lat="42.439136898223744" lon="11.567646599207938"><ele>84.66666666666666</ele><time>2026-04-12T15:32:47.999Z</time></trkpt><trkpt lat="42.43912694183703" lon="11.56775207590241"><ele>84.83333333333333</ele><time>2026-04-12T15:32:48.999Z</time></trkpt><trkpt lat="42.43908594845851" lon="11.567845674426872"><ele>85.0</ele><time>2026-04-12T15:32:49.999Z</time></trkpt><trkpt lat="42.43905577211773" lon="11.567955325483524"><ele>85.16666666666666</ele><time>2026-04-12T15:32:50.999Z</time></trkpt><trkpt lat="42.4390295559476" lon="11.568052775490777"><ele>85.33333333333333</ele><time>2026-04-12T15:32:51.999Z</time></trkpt><trkpt lat="42.43901292775433" lon="11.56817009092699"><ele>85.5</ele><time>2026-04-12T15:32:52.999Z</time></trkpt><trkpt lat="42.43897866256165" lon="11.56828574995069"><ele>85.66666666666667</ele><time>2026-04-12T15:32:54Z</time></trkpt><trkpt lat="42.43894299459926" lon="11.568406152287618"><ele>85.83333333333334</ele><time>2026-04-12T15:32:55Z</time></trkpt><trkpt lat="42.438908875673334" lon="11.568519513705652"><ele>86.0</ele><time>2026-04-12T15:32:56Z</time></trkpt><trkpt lat="42.43887270069927" lon="11.568639006451093"><ele>86.16666666666667</ele><time>2026-04-12T15:32:57Z</time></trkpt><trkpt lat="42.43883590224419" lon="11.568767403775412"><ele>86.33333333333334</ele><time>2026-04-12T15:32:58Z</time></trkpt><trkpt lat="42.43879559519516" lon="11.568871200968346"><ele>86.5</ele><time>2026-04-12T15:32:59Z</time></trkpt><trkpt lat="42.438759191932746" lon="11.568978191384769"><ele>86.66666666666667</ele><time>2026-04-12T15:33:00Z</time></trkpt><trkpt lat="42.438737885469" lon="11.569097597343712"><ele>86.83333333333333</ele><time>2026-04-12T15:33:01Z</time></trkpt><trkpt lat="42.43869768591895" lon="11.569196168607755"><ele>87.0</ele><time>2026-04-12T15:33:02Z</time></trkpt><trkpt lat="42.43867031064019" lon="11.569294968668986"><ele>87.19999999999999</ele><time>2026-04-12T15:33:03Z</time></trkpt><trkpt lat="42.43863846788884" lon="11.56940989228063"><ele>87.4</ele><time>2026-04-12T15:33:04Z</time></trkpt><trkpt lat="42.438623843733" lon="11.569523957746359"><ele>87.6</ele><time>2026-04-12T15:33:05Z</time></trkpt><trkpt lat="42.438582116900434" lon="11.569653990277217"><ele>87.80000000000001</ele><time>2026-04-12T15:33:06Z</time></trkpt><trkpt lat="42.43854898517533" lon="11.569784733734956"><ele>88.0</ele><time>2026-04-12T15:33:07Z</time></trkpt><trkpt lat="42.43851268093576" lon="11.56991529037445"><ele>88.0</ele><time>2026-04-12T15:33:08Z</time></trkpt><trkpt lat="42.438465859566406" lon="11.570038303060796"><ele>88.0</ele><time>2026-04-12T15:33:09Z</time></trkpt><trkpt lat="42.43843306269028" lon="11.570164345956197"><ele>88.0</ele><time>2026-04-12T15:33:10Z</time></trkpt><trkpt lat="42.43841318557721" lon="11.57028384804049"><ele>88.0</ele><time>2026-04-12T15:33:11Z</time></trkpt><trkpt lat="42.438386950245665" lon="11.570381961816466"><ele>88.0</ele><time>2026-04-12T15:33:12Z</time></trkpt><trkpt lat="42.43836105014664" lon="11.570478438059641"><ele>88.0</ele><time>2026-04-12T15:33:13Z</time></trkpt><trkpt lat="42.43833555613808" lon="11.570587424596663"><ele>87.66666666666666</ele><time>2026-04-12T15:33:14Z</time></trkpt><trkpt lat="42.43831185854927" lon="11.57069973878053"><ele>87.33333333333333</ele><time>2026-04-12T15:33:15Z</time></trkpt><trkpt lat="42.438288992170946" lon="11.570815924166249"><ele>87.0</ele><time>2026-04-12T15:33:16Z</time></trkpt><trkpt lat="42.43826540183289" lon="11.57092671616427"><ele>86.66666666666667</ele><time>2026-04-12T15:33:17Z</time></trkpt><trkpt lat="42.438240580308744" lon="11.571024053666838"><ele>86.33333333333334</ele><time>2026-04-12T15:33:18Z</time></trkpt><trkpt lat="42.438228735601434" lon="11.571117186426584"><ele>86.0</ele><time>2026-04-12T15:33:19Z</time></trkpt><trkpt lat="42.438202003098375" lon="11.571271385024103"><ele>85.0</ele><time>2026-04-12T15:33:21Z</time></trkpt><trkpt lat="42.43818633697867" lon="11.571362833704496"><ele>84.0</ele><time>2026-04-12T15:33:22Z</time></trkpt><trkpt lat="42.43817208861761" lon="11.571465651954894"><ele>83.0</ele><time>2026-04-12T15:33:23Z</time></trkpt><trkpt lat="42.43814409740329" lon="11.571608685743646"><ele>82.0</ele><time>2026-04-12T15:33:25Z</time></trkpt><trkpt lat="42.43809507688802" lon="11.571738433842897"><ele>81.0</ele><time>2026-04-12T15:33:27Z</time></trkpt><trkpt lat="42.43803568298578" lon="11.5718616485461"><ele>81.0</ele><time>2026-04-12T15:33:29Z</time></trkpt><trkpt lat="42.43797440434483" lon="11.571987411915078"><ele>81.0</ele><time>2026-04-12T15:33:31Z</time></trkpt><trkpt lat="42.43791556892548" lon="11.572120027714432"><ele>81.0</ele><time>2026-04-12T15:33:33Z</time></trkpt><trkpt lat="42.43785796936805" lon="11.572253935680212"><ele>81.0</ele><time>2026-04-12T15:33:35Z</time></trkpt><trkpt lat="42.43782612021101" lon="11.572399878698587"><ele>79.0</ele><time>2026-04-12T15:33:37Z</time></trkpt><trkpt lat="42.43779348663696" lon="11.572566677295558"><ele>77.0</ele><time>2026-04-12T15:33:39Z</time></trkpt><trkpt lat="42.43776991767914" lon="11.57265043309831"><ele>75.0</ele><time>2026-04-12T15:33:40Z</time></trkpt><trkpt lat="42.437754300856774" lon="11.572757104953272"><ele>73.0</ele><time>2026-04-12T15:33:41Z</time></trkpt><trkpt lat="42.437739981774364" lon="11.572866287946484"><ele>71.0</ele><time>2026-04-12T15:33:42Z</time></trkpt><trkpt lat="42.437726268242095" lon="11.57298219683045"><ele>69.0</ele><time>2026-04-12T15:33:43Z</time></trkpt><trkpt lat="42.4377156669799" lon="11.573097380933175"><ele>68.0</ele><time>2026-04-12T15:33:44Z</time></trkpt><trkpt lat="42.43771973696752" lon="11.573211866917413"><ele>67.0</ele><time>2026-04-12T15:33:45Z</time></trkpt><trkpt lat="42.43771038790779" lon="11.573312197289257"><ele>66.0</ele><time>2026-04-12T15:33:46Z</time></trkpt><trkpt lat="42.43771022483036" lon="11.573427614229312"><ele>65.0</ele><time>2026-04-12T15:33:47Z</time></trkpt><trkpt lat="42.43769623168102" lon="11.573522851594603"><ele>64.0</ele><time>2026-04-12T15:33:48Z</time></trkpt><trkpt lat="42.437691874385536" lon="11.573632899837392"><ele>63.0</ele><time>2026-04-12T15:33:49Z</time></trkpt><trkpt lat="42.43767898204373" lon="11.573730490773405"><ele>63.0</ele><time>2026-04-12T15:33:50Z</time></trkpt><trkpt lat="42.437658707767476" lon="11.573818887796056"><ele>63.0</ele><time>2026-04-12T15:33:51Z</time></trkpt><trkpt lat="42.43763409731756" lon="11.573906215753322"><ele>63.0</ele><time>2026-04-12T15:33:52Z</time></trkpt><trkpt lat="42.4375990275867" lon="11.573985402371646"><ele>63.0</ele><time>2026-04-12T15:33:53Z</time></trkpt><trkpt lat="42.43755264155176" lon="11.574064067705462"><ele>63.0</ele><time>2026-04-12T15:33:54Z</time></trkpt><trkpt lat="42.43749732020102" lon="11.574141890377756"><ele>63.0</ele><time>2026-04-12T15:33:55Z</time></trkpt><trkpt lat="42.43745459558427" lon="11.574212390946908"><ele>63.0</ele><time>2026-04-12T15:33:56Z</time></trkpt><trkpt lat="42.43739402605643" lon="11.574346468898533"><ele>63.0</ele><time>2026-04-12T15:33:58Z</time></trkpt><trkpt lat="42.437365104260294" lon="11.574424414914592"><ele>63.0</ele><time>2026-04-12T15:33:59Z</time></trkpt><trkpt lat="42.43732483491284" lon="11.574536074963875"><ele>63.0</ele><time>2026-04-12T15:34:01Z</time></trkpt><trkpt lat="42.4372907762945" lon="11.57463775215389"><ele>63.0</ele><time>2026-04-12T15:34:03.999Z</time></trkpt><trkpt lat="42.43725818288643" lon="11.574735331821666"><ele>63.0</ele><time>2026-04-12T15:34:05.999Z</time></trkpt><trkpt lat="42.43720756749588" lon="11.57488034345842"><ele>63.0</ele><time>2026-04-12T15:34:07.999Z</time></trkpt><trkpt lat="42.43717740691796" lon="11.574961274067608"><ele>63.0</ele><time>2026-04-12T15:34:09.999Z</time></trkpt><trkpt lat="42.43714734942068" lon="11.575075663190471"><ele>63.0</ele><time>2026-04-12T15:34:11.999Z</time></trkpt><trkpt lat="42.43713692336121" lon="11.575183037581958"><ele>63.0</ele><time>2026-04-12T15:34:13.999Z</time></trkpt><trkpt lat="42.43713634578396" lon="11.575268804419299"><ele>63.0</ele><time>2026-04-12T15:34:23.999Z</time></trkpt><trkpt lat="42.437155338250676" lon="11.575352846714072"><ele>63.0</ele><time>2026-04-12T15:34:35.999Z</time></trkpt><trkpt lat="42.43714696559384" lon="11.575445672522752"><ele>63.0</ele><time>2026-04-12T15:34:47.999Z</time></trkpt><trkpt lat="42.437173206203425" lon="11.575594320758166"><ele>63.833333333333336</ele><time>2026-04-12T15:34:49.999Z</time></trkpt><trkpt lat="42.43719744815728" lon="11.575717157618733"><ele>64.66666666666667</ele><time>2026-04-12T15:34:51.999Z</time></trkpt><trkpt lat="42.43721407681651" lon="11.575807305207748"><ele>65.5</ele><time>2026-04-12T15:34:52.999Z</time></trkpt><trkpt lat="42.437261148566954" lon="11.575979988126662"><ele>66.33333333333334</ele><time>2026-04-12T15:34:54.999Z</time></trkpt><trkpt lat="42.437270106750006" lon="11.576075673633305"><ele>67.16666666666667</ele><time>2026-04-12T15:34:55.999Z</time></trkpt><trkpt lat="42.43728426949384" lon="11.576167359614082"><ele>68.0</ele><time>2026-04-12T15:34:56.999Z</time></trkpt><trkpt lat="42.43727984277731" lon="11.576261354627722"><ele>68.71428571428571</ele><time>2026-04-12T15:34:57.999Z</time></trkpt><trkpt lat="42.43728827263694" lon="11.576354576316326"><ele>69.42857142857143</ele><time>2026-04-12T15:34:58.999Z</time></trkpt><trkpt lat="42.43731301060307" lon="11.57644867717186"><ele>70.14285714285714</ele><time>2026-04-12T15:35:00Z</time></trkpt><trkpt lat="42.43732830707699" lon="11.576547288468435"><ele>70.85714285714286</ele><time>2026-04-12T15:35:01Z</time></trkpt><trkpt lat="42.43736292798046" lon="11.57663893925067"><ele>71.57142857142857</ele><time>2026-04-12T15:35:02Z</time></trkpt><trkpt lat="42.437376643312426" lon="11.57674201679968"><ele>72.28571428571428</ele><time>2026-04-12T15:35:03Z</time></trkpt><trkpt lat="42.43739610296179" lon="11.576832782916084"><ele>73.0</ele><time>2026-04-12T15:35:04Z</time></trkpt><trkpt lat="42.43740604171217" lon="11.576918531825983"><ele>73.33333333333333</ele><time>2026-04-12T15:35:05Z</time></trkpt><trkpt lat="42.43740182678762" lon="11.577077439001005"><ele>73.66666666666666</ele><time>2026-04-12T15:35:07Z</time></trkpt><trkpt lat="42.43738740626979" lon="11.577241445381011"><ele>74.0</ele><time>2026-04-12T15:35:09Z</time></trkpt><trkpt lat="42.43737779572436" lon="11.577328719191202"><ele>74.33333333333333</ele><time>2026-04-12T15:35:10Z</time></trkpt><trkpt lat="42.437367127398005" lon="11.57742559875781"><ele>74.66666666666667</ele><time>2026-04-12T15:35:11Z</time></trkpt><trkpt lat="42.43735669353078" lon="11.57752034918599"><ele>75.0</ele><time>2026-04-12T15:35:12Z</time></trkpt><trkpt lat="42.43733822686577" lon="11.577688045833472"><ele>75.0</ele><time>2026-04-12T15:35:14Z</time></trkpt><trkpt lat="42.437321654026974" lon="11.577838544545664"><ele>75.0</ele><time>2026-04-12T15:35:16Z</time></trkpt><trkpt lat="42.43730875628482" lon="11.5779534723655"><ele>75.0</ele><time>2026-04-12T15:35:18Z</time></trkpt><trkpt lat="42.437295769504324" lon="11.578061850634256"><ele>75.0</ele><time>2026-04-12T15:35:20Z</time></trkpt><trkpt lat="42.43727977145815" lon="11.578197241276152"><ele>75.0</ele><time>2026-04-12T15:35:22Z</time></trkpt><trkpt lat="42.437267142109896" lon="11.57832627998197"><ele>74.83333333333333</ele><time>2026-04-12T15:35:24Z</time></trkpt><trkpt lat="42.43725489651892" lon="11.578472123442209"><ele>74.66666666666667</ele><time>2026-04-12T15:35:26Z</time></trkpt><trkpt lat="42.437245859725664" lon="11.578587570800583"><ele>74.5</ele><time>2026-04-12T15:35:27Z</time></trkpt><trkpt lat="42.43723666064344" lon="11.578705091449024"><ele>74.33333333333334</ele><time>2026-04-12T15:35:28Z</time></trkpt><trkpt lat="42.437228189564486" lon="11.578813311670068"><ele>74.16666666666667</ele><time>2026-04-12T15:35:29Z</time></trkpt><trkpt lat="42.43722009143632" lon="11.57891676735276"><ele>74.0</ele><time>2026-04-12T15:35:30Z</time></trkpt><trkpt lat="42.437211268420015" lon="11.579029483663076"><ele>74.0</ele><time>2026-04-12T15:35:31Z</time></trkpt><trkpt lat="42.43720242875485" lon="11.57912671740509"><ele>74.0</ele><time>2026-04-12T15:35:32Z</time></trkpt><trkpt lat="42.437185822212406" lon="11.579297490952143"><ele>74.0</ele><time>2026-04-12T15:35:34Z</time></trkpt><trkpt lat="42.43716637740883" lon="11.57948800975613"><ele>74.0</ele><time>2026-04-12T15:35:36Z</time></trkpt><trkpt lat="42.43715710718036" lon="11.579578838800767"><ele>74.0</ele><time>2026-04-12T15:35:37Z</time></trkpt><trkpt lat="42.43714702451725" lon="11.579677780250119"><ele>74.0</ele><time>2026-04-12T15:35:38Z</time></trkpt><trkpt lat="42.437136463424665" lon="11.579781430393131"><ele>74.0</ele><time>2026-04-12T15:35:39Z</time></trkpt><trkpt lat="42.437125479451986" lon="11.579889230819894"><ele>74.0</ele><time>2026-04-12T15:35:40Z</time></trkpt><trkpt lat="42.43711413923087" lon="11.580000527580761"><ele>74.0</ele><time>2026-04-12T15:35:41Z</time></trkpt><trkpt lat="42.43710297798172" lon="11.580110067865139"><ele>74.0</ele><time>2026-04-12T15:35:42Z</time></trkpt><trkpt lat="42.43709265085924" lon="11.580225255561906"><ele>74.0</ele><time>2026-04-12T15:35:43Z</time></trkpt><trkpt lat="42.43708209895083" lon="11.580344526088652"><ele>74.33333333333334</ele><time>2026-04-12T15:35:44Z</time></trkpt><trkpt lat="42.43707278497513" lon="11.580468256687594"><ele>74.66666666666667</ele><time>2026-04-12T15:35:45Z</time></trkpt><trkpt lat="42.437065232848944" lon="11.580590687201477"><ele>75.0</ele><time>2026-04-12T15:35:46Z</time></trkpt><trkpt lat="42.43705854615842" lon="11.580704655335891"><ele>75.33333333333333</ele><time>2026-04-12T15:35:47Z</time></trkpt><trkpt lat="42.43705140220204" lon="11.580820250204857"><ele>75.66666666666666</ele><time>2026-04-12T15:35:48Z</time></trkpt><trkpt lat="42.43704376401169" lon="11.580938043347848"><ele>76.0</ele><time>2026-04-12T15:35:49Z</time></trkpt><trkpt lat="42.43703626683444" lon="11.5810536618351"><ele>76.0</ele><time>2026-04-12T15:35:50Z</time></trkpt><trkpt lat="42.43702870461299" lon="11.581170283413908"><ele>76.0</ele><time>2026-04-12T15:35:51Z</time></trkpt><trkpt lat="42.43702227940527" lon="11.581278056467033"><ele>76.0</ele><time>2026-04-12T15:35:52Z</time></trkpt><trkpt lat="42.43701588330589" lon="11.581389852126703"><ele>76.0</ele><time>2026-04-12T15:35:53Z</time></trkpt><trkpt lat="42.43700945077546" lon="11.58150228453447"><ele>76.0</ele><time>2026-04-12T15:35:54Z</time></trkpt><trkpt lat="42.43700340529392" lon="11.581625409304918"><ele>76.0</ele><time>2026-04-12T15:35:55Z</time></trkpt><trkpt lat="42.43699801600347" lon="11.581753301156754"><ele>76.0</ele><time>2026-04-12T15:35:56Z</time></trkpt><trkpt lat="42.43699331604161" lon="11.581885997323408"><ele>76.0</ele><time>2026-04-12T15:35:57Z</time></trkpt><trkpt lat="42.43698877865807" lon="11.582014103344038"><ele>76.0</ele><time>2026-04-12T15:35:58Z</time></trkpt><trkpt lat="42.43698436777315" lon="11.582138637883212"><ele>76.0</ele><time>2026-04-12T15:35:59Z</time></trkpt><trkpt lat="42.436980183078035" lon="11.582256786299004"><ele>76.0</ele><time>2026-04-12T15:36:00Z</time></trkpt><trkpt lat="42.43697554532825" lon="11.582387726004322"><ele>75.8</ele><time>2026-04-12T15:36:01Z</time></trkpt><trkpt lat="42.43697172069191" lon="11.58252309400481"><ele>75.6</ele><time>2026-04-12T15:36:01.999Z</time></trkpt><trkpt lat="42.43696823118902" lon="11.582662478049372"><ele>75.4</ele><time>2026-04-12T15:36:02.999Z</time></trkpt><trkpt lat="42.43696485007611" lon="11.582807977657819"><ele>75.2</ele><time>2026-04-12T15:36:03.999Z</time></trkpt><trkpt lat="42.43696300401448" lon="11.582945816859652"><ele>75.0</ele><time>2026-04-12T15:36:04.999Z</time></trkpt><trkpt lat="42.43696118598622" lon="11.583081562867294"><ele>74.8</ele><time>2026-04-12T15:36:05.999Z</time></trkpt><trkpt lat="42.43695928454638" lon="11.583223537006942"><ele>74.6</ele><time>2026-04-12T15:36:06.999Z</time></trkpt><trkpt lat="42.436954116051325" lon="11.58336158070243"><ele>74.4</ele><time>2026-04-12T15:36:07.999Z</time></trkpt><trkpt lat="42.43694708124625" lon="11.583495130813505"><ele>74.2</ele><time>2026-04-12T15:36:08.999Z</time></trkpt><trkpt lat="42.43693888448009" lon="11.583632001344233"><ele>74.0</ele><time>2026-04-12T15:36:09.999Z</time></trkpt><trkpt lat="42.436929826703924" lon="11.583762631338239"><ele>73.57142857142857</ele><time>2026-04-12T15:36:10.999Z</time></trkpt><trkpt lat="42.43692106726879" lon="11.583881474228832"><ele>73.14285714285714</ele><time>2026-04-12T15:36:11.999Z</time></trkpt><trkpt lat="42.436913501419546" lon="11.583977629745554"><ele>72.71428571428571</ele><time>2026-04-12T15:36:12.999Z</time></trkpt><trkpt lat="42.43690477131862" lon="11.584076571821717"><ele>72.28571428571428</ele><time>2026-04-12T15:36:13.999Z</time></trkpt><trkpt lat="42.43689571018717" lon="11.584162515281434"><ele>71.85714285714285</ele><time>2026-04-12T15:36:14.999Z</time></trkpt><trkpt lat="42.436884466932426" lon="11.58426915585432"><ele>71.42857142857143</ele><time>2026-04-12T15:36:15.999Z</time></trkpt><trkpt lat="42.436874152641735" lon="11.584366340230778"><ele>71.0</ele><time>2026-04-12T15:36:16.999Z</time></trkpt><trkpt lat="42.4368565509283" lon="11.584494133037024"><ele>70.8</ele><time>2026-04-12T15:36:18.999Z</time></trkpt><trkpt lat="42.43684298830221" lon="11.584600069227104"><ele>70.6</ele><time>2026-04-12T15:36:20.999Z</time></trkpt><trkpt lat="42.43683344254388" lon="11.584703933904995"><ele>70.4</ele><time>2026-04-12T15:36:24.999Z</time></trkpt><trkpt lat="42.43684661376143" lon="11.584839750235016"><ele>70.2</ele><time>2026-04-12T15:36:27.999Z</time></trkpt><trkpt lat="42.43685056813232" lon="11.58501836098328"><ele>70.0</ele><time>2026-04-12T15:36:29.999Z</time></trkpt><trkpt lat="42.436856673305016" lon="11.585113705176285"><ele>70.0</ele><time>2026-04-12T15:36:30.999Z</time></trkpt><trkpt lat="42.43684532871713" lon="11.58522596692505"><ele>70.0</ele><time>2026-04-12T15:36:31.999Z</time></trkpt><trkpt lat="42.436855503624585" lon="11.585310592864031"><ele>70.0</ele><time>2026-04-12T15:36:32.999Z</time></trkpt><trkpt lat="42.436834197757086" lon="11.58541358028647"><ele>70.0</ele><time>2026-04-12T15:36:33.999Z</time></trkpt><trkpt lat="42.43681803761114" lon="11.585512324083972"><ele>70.0</ele><time>2026-04-12T15:36:34.999Z</time></trkpt><trkpt lat="42.43681212805809" lon="11.585620833622249"><ele>70.0</ele><time>2026-04-12T15:36:35.999Z</time></trkpt><trkpt lat="42.43680538362702" lon="11.585731543320382"><ele>70.16666666666666</ele><time>2026-04-12T15:36:36.999Z</time></trkpt><trkpt lat="42.4367973172257" lon="11.58584766044713"><ele>70.33333333333333</ele><time>2026-04-12T15:36:37.999Z</time></trkpt><trkpt lat="42.436791176904606" lon="11.58596788687537"><ele>70.5</ele><time>2026-04-12T15:36:38.999Z</time></trkpt><trkpt lat="42.436790385443366" lon="11.586080848734289"><ele>70.66666666666667</ele><time>2026-04-12T15:36:39.999Z</time></trkpt><trkpt lat="42.4367917562925" lon="11.586188643125645"><ele>70.83333333333334</ele><time>2026-04-12T15:36:40.999Z</time></trkpt><trkpt lat="42.436785048159045" lon="11.586296862955576"><ele>71.0</ele><time>2026-04-12T15:36:41.999Z</time></trkpt><trkpt lat="42.43677989443934" lon="11.58640796274861"><ele>71.0</ele><time>2026-04-12T15:36:42.999Z</time></trkpt><trkpt lat="42.43677293486143" lon="11.586518906373305"><ele>71.0</ele><time>2026-04-12T15:36:43.999Z</time></trkpt><trkpt lat="42.43676500097794" lon="11.586629615657467"><ele>71.0</ele><time>2026-04-12T15:36:44.999Z</time></trkpt><trkpt lat="42.436750584621635" lon="11.586721632621824"><ele>71.0</ele><time>2026-04-12T15:36:45.999Z</time></trkpt><trkpt lat="42.436756509424875" lon="11.586823205013587"><ele>71.0</ele><time>2026-04-12T15:36:46.999Z</time></trkpt><trkpt lat="42.436772232406966" lon="11.586972794778097"><ele>71.0</ele><time>2026-04-12T15:36:48.999Z</time></trkpt><trkpt lat="42.43676800789139" lon="11.587108319413067"><ele>71.0</ele><time>2026-04-12T15:36:51.999Z</time></trkpt><trkpt lat="42.43680983806856" lon="11.587270640496925"><ele>71.0</ele><time>2026-04-12T15:36:53.999Z</time></trkpt><trkpt lat="42.43682397287553" lon="11.58735653092966"><ele>71.0</ele><time>2026-04-12T15:36:54.999Z</time></trkpt><trkpt lat="42.436859438615286" lon="11.587530330404752"><ele>71.0</ele><time>2026-04-12T15:36:56.999Z</time></trkpt><trkpt lat="42.43688986002284" lon="11.587678969401317"><ele>71.0</ele><time>2026-04-12T15:36:58.999Z</time></trkpt><trkpt lat="42.43690968829905" lon="11.587795587745838"><ele>71.16666666666667</ele><time>2026-04-12T15:37:00.999Z</time></trkpt><trkpt lat="42.43693842067746" lon="11.587922816536192"><ele>71.33333333333334</ele><time>2026-04-12T15:37:02.999Z</time></trkpt><trkpt lat="42.43694922227691" lon="11.588009611880159"><ele>71.5</ele><time>2026-04-12T15:37:03.999Z</time></trkpt><trkpt lat="42.43696044955878" lon="11.588100521890096"><ele>71.66666666666667</ele><time>2026-04-12T15:37:04.999Z</time></trkpt><trkpt lat="42.43694480276089" lon="11.588195397806418"><ele>71.83333333333333</ele><time>2026-04-12T15:37:06Z</time></trkpt><trkpt lat="42.43694214556535" lon="11.588296144240251"><ele>72.0</ele><time>2026-04-12T15:37:07Z</time></trkpt><trkpt lat="42.4369469299601" lon="11.588475974405734"><ele>72.0</ele><time>2026-04-12T15:37:09Z</time></trkpt><trkpt lat="42.43694227722144" lon="11.588582393421394"><ele>72.0</ele><time>2026-04-12T15:37:10Z</time></trkpt><trkpt lat="42.43694685423683" lon="11.58868761139463"><ele>72.0</ele><time>2026-04-12T15:37:11Z</time></trkpt><trkpt lat="42.43695551781906" lon="11.588802191111137"><ele>72.0</ele><time>2026-04-12T15:37:12Z</time></trkpt><trkpt lat="42.436962494581984" lon="11.588901699057134"><ele>72.0</ele><time>2026-04-12T15:37:13Z</time></trkpt><trkpt lat="42.43696850232474" lon="11.589003474311928"><ele>72.0</ele><time>2026-04-12T15:37:14Z</time></trkpt><trkpt lat="42.436978919900014" lon="11.589095293225926"><ele>72.5</ele><time>2026-04-12T15:37:15Z</time></trkpt><trkpt lat="42.43698309507669" lon="11.589196441282196"><ele>73.0</ele><time>2026-04-12T15:37:16Z</time></trkpt><trkpt lat="42.436990146338" lon="11.589304929288582"><ele>73.5</ele><time>2026-04-12T15:37:17Z</time></trkpt><trkpt lat="42.43699718166494" lon="11.58940676296766"><ele>74.0</ele><time>2026-04-12T15:37:18Z</time></trkpt><trkpt lat="42.43700036471642" lon="11.589517189031637"><ele>74.5</ele><time>2026-04-12T15:37:19Z</time></trkpt><trkpt lat="42.437006869455125" lon="11.589619413959868"><ele>75.0</ele><time>2026-04-12T15:37:20Z</time></trkpt><trkpt lat="42.43701927811454" lon="11.589734370703598"><ele>75.33333333333333</ele><time>2026-04-12T15:37:21Z</time></trkpt><trkpt lat="42.43703583975271" lon="11.5898456581926"><ele>75.66666666666667</ele><time>2026-04-12T15:37:22Z</time></trkpt><trkpt lat="42.43704821204342" lon="11.589956828229314"><ele>76.0</ele><time>2026-04-12T15:37:23Z</time></trkpt><trkpt lat="42.43705529784454" lon="11.590064576032079"><ele>76.33333333333334</ele><time>2026-04-12T15:37:24Z</time></trkpt><trkpt lat="42.43706315308118" lon="11.590158880985303"><ele>76.66666666666667</ele><time>2026-04-12T15:37:25Z</time></trkpt><trkpt lat="42.43707296460032" lon="11.590262603498674"><ele>77.0</ele><time>2026-04-12T15:37:26Z</time></trkpt><trkpt lat="42.43708543448155" lon="11.590363122708514"><ele>77.33333333333334</ele><time>2026-04-12T15:37:27Z</time></trkpt><trkpt lat="42.43709240446696" lon="11.590465590670314"><ele>77.66666666666667</ele><time>2026-04-12T15:37:28Z</time></trkpt><trkpt lat="42.437098546186284" lon="11.590565992056373"><ele>78.0</ele><time>2026-04-12T15:37:29Z</time></trkpt><trkpt lat="42.43710502714603" lon="11.590662849673025"><ele>78.33333333333333</ele><time>2026-04-12T15:37:30Z</time></trkpt><trkpt lat="42.43710041141478" lon="11.590798039158317"><ele>78.66666666666666</ele><time>2026-04-12T15:37:32Z</time></trkpt><trkpt lat="42.43710896040456" lon="11.590902627266997"><ele>79.0</ele><time>2026-04-12T15:37:35Z</time></trkpt><trkpt lat="42.43702152018607" lon="11.590990944322487"><ele>79.0</ele><time>2026-04-12T15:37:39Z</time></trkpt><trkpt lat="42.436957781896346" lon="11.59105148505002"><ele>79.0</ele><time>2026-04-12T15:37:46Z</time></trkpt><trkpt lat="42.43700066450147" lon="11.59098435175944"><ele>79.0</ele><time>2026-04-12T15:38:13Z</time></trkpt><trkpt lat="42.437108800671496" lon="11.591196327884273"><ele>79.0</ele><time>2026-04-12T15:38:29.999Z</time></trkpt><trkpt lat="42.43709598385467" lon="11.591296711953365"><ele>79.0</ele><time>2026-04-12T15:38:31.999Z</time></trkpt><trkpt lat="42.43707423712814" lon="11.59143046077276"><ele>79.14285714285715</ele><time>2026-04-12T15:38:33.999Z</time></trkpt><trkpt lat="42.43705661957554" lon="11.591515776287974"><ele>79.28571428571429</ele><time>2026-04-12T15:38:34.999Z</time></trkpt><trkpt lat="42.437036024032096" lon="11.591609914963934"><ele>79.42857142857143</ele><time>2026-04-12T15:38:35.999Z</time></trkpt><trkpt lat="42.43701676683272" lon="11.591697936300486"><ele>79.57142857142858</ele><time>2026-04-12T15:38:36.999Z</time></trkpt><trkpt lat="42.436996569220966" lon="11.591790256098156"><ele>79.71428571428572</ele><time>2026-04-12T15:38:37.999Z</time></trkpt><trkpt lat="42.4369778692289" lon="11.591889357446183"><ele>79.85714285714286</ele><time>2026-04-12T15:38:38.999Z</time></trkpt><trkpt lat="42.43696000009935" lon="11.591983538857951"><ele>80.0</ele><time>2026-04-12T15:38:39.999Z</time></trkpt><trkpt lat="42.436942581615206" lon="11.592075345089768"><ele>80.2</ele><time>2026-04-12T15:38:40.999Z</time></trkpt><trkpt lat="42.43692467146993" lon="11.592169742679587"><ele>80.4</ele><time>2026-04-12T15:38:41.999Z</time></trkpt><trkpt lat="42.43689776392349" lon="11.592311562167295"><ele>80.6</ele><time>2026-04-12T15:38:43.999Z</time></trkpt><trkpt lat="42.436877882306824" lon="11.592484407196899"><ele>80.8</ele><time>2026-04-12T15:38:45.999Z</time></trkpt><trkpt lat="42.43685429888233" lon="11.59259165827158"><ele>81.0</ele><time>2026-04-12T15:38:46.999Z</time></trkpt><trkpt lat="42.43682906968893" lon="11.592697797772297"><ele>81.0</ele><time>2026-04-12T15:38:47.999Z</time></trkpt><trkpt lat="42.43680802326384" lon="11.592804609875508"><ele>81.0</ele><time>2026-04-12T15:38:48.999Z</time></trkpt><trkpt lat="42.436785629655965" lon="11.592917288403484"><ele>81.0</ele><time>2026-04-12T15:38:49.999Z</time></trkpt><trkpt lat="42.43675642822877" lon="11.593026636523255"><ele>81.0</ele><time>2026-04-12T15:38:50.999Z</time></trkpt><trkpt lat="42.43673005088302" lon="11.593135861978185"><ele>81.0</ele><time>2026-04-12T15:38:51.999Z</time></trkpt><trkpt lat="42.43670545468921" lon="11.59323707387938"><ele>81.0</ele><time>2026-04-12T15:38:52.999Z</time></trkpt><trkpt lat="42.4366865016986" lon="11.59333377199209"><ele>82.0</ele><time>2026-04-12T15:38:53.999Z</time></trkpt><trkpt lat="42.436659824680646" lon="11.593480162224704"><ele>83.0</ele><time>2026-04-12T15:38:55.999Z</time></trkpt><trkpt lat="42.43660830346572" lon="11.593628522293134"><ele>84.0</ele><time>2026-04-12T15:38:57.999Z</time></trkpt><trkpt lat="42.436575443068804" lon="11.593768295030223"><ele>85.0</ele><time>2026-04-12T15:38:59.999Z</time></trkpt><trkpt lat="42.4365399579496" lon="11.593919232089267"><ele>85.5</ele><time>2026-04-12T15:39:01.999Z</time></trkpt><trkpt lat="42.4365189039072" lon="11.594009206129684"><ele>86.0</ele><time>2026-04-12T15:39:02.999Z</time></trkpt><trkpt lat="42.436497134132516" lon="11.59410227784275"><ele>86.5</ele><time>2026-04-12T15:39:03.999Z</time></trkpt><trkpt lat="42.43647447882857" lon="11.594199135434925"><ele>87.0</ele><time>2026-04-12T15:39:04.999Z</time></trkpt><trkpt lat="42.436448991586765" lon="11.594295030897046"><ele>87.5</ele><time>2026-04-12T15:39:05.999Z</time></trkpt><trkpt lat="42.43642141266754" lon="11.594398535725288"><ele>88.0</ele><time>2026-04-12T15:39:06.999Z</time></trkpt><trkpt lat="42.43639376902468" lon="11.594502283463292"><ele>88.14285714285714</ele><time>2026-04-12T15:39:07.999Z</time></trkpt><trkpt lat="42.43637380311759" lon="11.59458864698071"><ele>88.28571428571428</ele><time>2026-04-12T15:39:08.999Z</time></trkpt><trkpt lat="42.4363513180875" lon="11.594687317985082"><ele>88.42857142857142</ele><time>2026-04-12T15:39:09.999Z</time></trkpt><trkpt lat="42.436335617576276" lon="11.594778793983808"><ele>88.57142857142857</ele><time>2026-04-12T15:39:10.999Z</time></trkpt><trkpt lat="42.43632404092781" lon="11.594869914707285"><ele>88.71428571428571</ele><time>2026-04-12T15:39:12Z</time></trkpt><trkpt lat="42.43631460413259" lon="11.594963673156206"><ele>88.85714285714285</ele><time>2026-04-12T15:39:13Z</time></trkpt><trkpt lat="42.436307610825" lon="11.595053617154012"><ele>89.0</ele><time>2026-04-12T15:39:14Z</time></trkpt><trkpt lat="42.43630243245902" lon="11.595144286498964"><ele>89.0</ele><time>2026-04-12T15:39:15Z</time></trkpt><trkpt lat="42.43629816678533" lon="11.59523787656927"><ele>89.0</ele><time>2026-04-12T15:39:16Z</time></trkpt><trkpt lat="42.436295653863226" lon="11.595341241381341"><ele>89.0</ele><time>2026-04-12T15:39:17Z</time></trkpt><trkpt lat="42.436298915656266" lon="11.595452127068306"><ele>89.0</ele><time>2026-04-12T15:39:18Z</time></trkpt><trkpt lat="42.436302297807615" lon="11.59555596446957"><ele>89.0</ele><time>2026-04-12T15:39:19Z</time></trkpt><trkpt lat="42.43630595170053" lon="11.595667662613465"><ele>89.0</ele><time>2026-04-12T15:39:20Z</time></trkpt><trkpt lat="42.43630768480217" lon="11.595785750692686"><ele>89.0</ele><time>2026-04-12T15:39:21Z</time></trkpt><trkpt lat="42.436308798938015" lon="11.595906745962084"><ele>89.0</ele><time>2026-04-12T15:39:22Z</time></trkpt><trkpt lat="42.436307286393514" lon="11.596032829962123"><ele>89.0</ele><time>2026-04-12T15:39:23Z</time></trkpt><trkpt lat="42.43630233593636" lon="11.59615610334184"><ele>89.0</ele><time>2026-04-12T15:39:24Z</time></trkpt><trkpt lat="42.43629433091207" lon="11.596284309883934"><ele>89.0</ele><time>2026-04-12T15:39:25Z</time></trkpt><trkpt lat="42.43628630819673" lon="11.596410997680277"><ele>88.6</ele><time>2026-04-12T15:39:26Z</time></trkpt><trkpt lat="42.43628111076984" lon="11.596537818020925"><ele>88.2</ele><time>2026-04-12T15:39:27Z</time></trkpt><trkpt lat="42.436276128008835" lon="11.596661330058051"><ele>87.8</ele><time>2026-04-12T15:39:28Z</time></trkpt><trkpt lat="42.43627244768706" lon="11.596778809725125"><ele>87.39999999999999</ele><time>2026-04-12T15:39:29Z</time></trkpt><trkpt lat="42.43627078358236" lon="11.596874265309078"><ele>87.0</ele><time>2026-04-12T15:39:30Z</time></trkpt><trkpt lat="42.43627121156407" lon="11.597021572668378"><ele>86.33333333333333</ele><time>2026-04-12T15:39:32Z</time></trkpt><trkpt lat="42.43627841892553" lon="11.59720129466599"><ele>85.66666666666667</ele><time>2026-04-12T15:39:34Z</time></trkpt><trkpt lat="42.43628463963186" lon="11.59729203704208"><ele>85.0</ele><time>2026-04-12T15:39:35Z</time></trkpt><trkpt lat="42.43628173122796" lon="11.59737853905466"><ele>84.33333333333334</ele><time>2026-04-12T15:39:36Z</time></trkpt><trkpt lat="42.436278548957496" lon="11.597494934686132"><ele>83.66666666666667</ele><time>2026-04-12T15:39:37Z</time></trkpt><trkpt lat="42.43625938872643" lon="11.597589722670024"><ele>83.0</ele><time>2026-04-12T15:39:38Z</time></trkpt><trkpt lat="42.43625583776094" lon="11.597690375604646"><ele>83.0</ele><time>2026-04-12T15:39:39Z</time></trkpt><trkpt lat="42.436253599733455" lon="11.59778652053746"><ele>83.0</ele><time>2026-04-12T15:39:40Z</time></trkpt><trkpt lat="42.43625251212756" lon="11.59789291387736"><ele>83.0</ele><time>2026-04-12T15:39:41Z</time></trkpt><trkpt lat="42.43625353796862" lon="11.597991958934522"><ele>83.0</ele><time>2026-04-12T15:39:42Z</time></trkpt><trkpt lat="42.43625534723183" lon="11.598102244294168"><ele>83.0</ele><time>2026-04-12T15:39:43Z</time></trkpt><trkpt lat="42.43625891009762" lon="11.59821598544356"><ele>83.0</ele><time>2026-04-12T15:39:44Z</time></trkpt><trkpt lat="42.43626242202097" lon="11.59832810026937"><ele>82.83333333333334</ele><time>2026-04-12T15:39:45Z</time></trkpt><trkpt lat="42.436268810208645" lon="11.598435733128094"><ele>82.66666666666667</ele><time>2026-04-12T15:39:46Z</time></trkpt><trkpt lat="42.43627532009597" lon="11.598547647798252"><ele>82.5</ele><time>2026-04-12T15:39:47Z</time></trkpt><trkpt lat="42.436280457326404" lon="11.598635964444245"><ele>82.33333333333333</ele><time>2026-04-12T15:39:48Z</time></trkpt><trkpt lat="42.43628606396792" lon="11.59879479059556"><ele>82.16666666666666</ele><time>2026-04-12T15:39:50Z</time></trkpt><trkpt lat="42.436287698211444" lon="11.598896666022249"><ele>82.0</ele><time>2026-04-12T15:39:52Z</time></trkpt><trkpt lat="42.43628878617388" lon="11.598998064190951"><ele>82.0</ele><time>2026-04-12T15:39:55Z</time></trkpt><trkpt lat="42.436289066091305" lon="11.599108418755442"><ele>82.0</ele><time>2026-04-12T15:39:58Z</time></trkpt><trkpt lat="42.43629555189816" lon="11.599234567697948"><ele>82.0</ele><time>2026-04-12T15:40:00Z</time></trkpt><trkpt lat="42.43630216447242" lon="11.599346389038633"><ele>82.0</ele><time>2026-04-12T15:40:02Z</time></trkpt><trkpt lat="42.43631106900402" lon="11.599490662480818"><ele>82.0</ele><time>2026-04-12T15:40:03Z</time></trkpt><trkpt lat="42.43631684854547" lon="11.599602169730296"><ele>82.0</ele><time>2026-04-12T15:40:04Z</time></trkpt><trkpt lat="42.43632155469667" lon="11.599719132698318"><ele>82.16666666666666</ele><time>2026-04-12T15:40:05Z</time></trkpt><trkpt lat="42.43632611199179" lon="11.599832396116296"><ele>82.33333333333333</ele><time>2026-04-12T15:40:06Z</time></trkpt><trkpt lat="42.43632889562367" lon="11.599951364999148"><ele>82.5</ele><time>2026-04-12T15:40:07Z</time></trkpt><trkpt lat="42.43633054582252" lon="11.600068852018358"><ele>82.66666666666667</ele><time>2026-04-12T15:40:08Z</time></trkpt><trkpt lat="42.43633023888803" lon="11.600191210105319"><ele>82.83333333333334</ele><time>2026-04-12T15:40:09Z</time></trkpt><trkpt lat="42.43632966237421" lon="11.600308761800232"><ele>83.0</ele><time>2026-04-12T15:40:10Z</time></trkpt><trkpt lat="42.436330022269516" lon="11.60042467917081"><ele>83.0</ele><time>2026-04-12T15:40:11Z</time></trkpt><trkpt lat="42.436330563721974" lon="11.600529233405103"><ele>83.0</ele><time>2026-04-12T15:40:12Z</time></trkpt><trkpt lat="42.43633209767193" lon="11.600638301555097"><ele>83.0</ele><time>2026-04-12T15:40:13Z</time></trkpt><trkpt lat="42.43633370207584" lon="11.600754500486312"><ele>83.0</ele><time>2026-04-12T15:40:14Z</time></trkpt><trkpt lat="42.43633533034105" lon="11.600853783445485"><ele>83.0</ele><time>2026-04-12T15:40:15Z</time></trkpt><trkpt lat="42.43633732747413" lon="11.600950700569229"><ele>83.0</ele><time>2026-04-12T15:40:16Z</time></trkpt><trkpt lat="42.436339205189576" lon="11.601041822605012"><ele>83.0</ele><time>2026-04-12T15:40:17Z</time></trkpt><trkpt lat="42.436341267130246" lon="11.601141884739006"><ele>83.0</ele><time>2026-04-12T15:40:18Z</time></trkpt><trkpt lat="42.43634325754405" lon="11.60123847585396"><ele>83.0</ele><time>2026-04-12T15:40:18.999Z</time></trkpt><trkpt lat="42.43634408797828" lon="11.601327498419984"><ele>83.0</ele><time>2026-04-12T15:40:19.999Z</time></trkpt><trkpt lat="42.43634394976184" lon="11.601419090248626"><ele>83.0</ele><time>2026-04-12T15:40:20.999Z</time></trkpt><trkpt lat="42.436342894357374" lon="11.601519617346186"><ele>83.0</ele><time>2026-04-12T15:40:21.999Z</time></trkpt><trkpt lat="42.4363409742208" lon="11.601623371733464"><ele>83.0</ele><time>2026-04-12T15:40:22.999Z</time></trkpt><trkpt lat="42.436338574263374" lon="11.601723239234099"><ele>82.83333333333334</ele><time>2026-04-12T15:40:23.999Z</time></trkpt><trkpt lat="42.43633488673696" lon="11.60182121074549"><ele>82.66666666666667</ele><time>2026-04-12T15:40:24.999Z</time></trkpt><trkpt lat="42.4363303247316" lon="11.601916491418326"><ele>82.5</ele><time>2026-04-12T15:40:25.999Z</time></trkpt><trkpt lat="42.43632385128328" lon="11.602019249905503"><ele>82.33333333333333</ele><time>2026-04-12T15:40:26.999Z</time></trkpt><trkpt lat="42.43631690816298" lon="11.60213083783357"><ele>82.16666666666666</ele><time>2026-04-12T15:40:27.999Z</time></trkpt><trkpt lat="42.43630974251544" lon="11.60224600215553"><ele>82.0</ele><time>2026-04-12T15:40:28.999Z</time></trkpt><trkpt lat="42.43630228112223" lon="11.602355479840064"><ele>81.0</ele><time>2026-04-12T15:40:29.999Z</time></trkpt><trkpt lat="42.43629366187609" lon="11.602474582135127"><ele>80.0</ele><time>2026-04-12T15:40:30.999Z</time></trkpt><trkpt lat="42.43628572233033" lon="11.602587199997519"><ele>79.0</ele><time>2026-04-12T15:40:31.999Z</time></trkpt><trkpt lat="42.436278920917715" lon="11.602695389875413"><ele>78.0</ele><time>2026-04-12T15:40:32.999Z</time></trkpt><trkpt lat="42.43627261676219" lon="11.60280368777059"><ele>77.0</ele><time>2026-04-12T15:40:33.999Z</time></trkpt><trkpt lat="42.436284295819746" lon="11.602908213061724"><ele>76.0</ele><time>2026-04-12T15:40:34.999Z</time></trkpt><trkpt lat="42.43626330374703" lon="11.603014609809078"><ele>75.5</ele><time>2026-04-12T15:40:35.999Z</time></trkpt><trkpt lat="42.436259254578054" lon="11.60311529305824"><ele>75.0</ele><time>2026-04-12T15:40:36.999Z</time></trkpt><trkpt lat="42.43625615634866" lon="11.603218824384497"><ele>74.5</ele><time>2026-04-12T15:40:37.999Z</time></trkpt><trkpt lat="42.4362529037302" lon="11.603392218723515"><ele>74.0</ele><time>2026-04-12T15:40:39.999Z</time></trkpt><trkpt lat="42.43626093446519" lon="11.603494145105921"><ele>73.5</ele><time>2026-04-12T15:40:40.999Z</time></trkpt><trkpt lat="42.43625269023572" lon="11.603608257622426"><ele>73.0</ele><time>2026-04-12T15:40:41.999Z</time></trkpt><trkpt lat="42.436257979573966" lon="11.603714653156722"><ele>72.33333333333333</ele><time>2026-04-12T15:40:42.999Z</time></trkpt><trkpt lat="42.43626037014281" lon="11.603820565375123"><ele>71.66666666666666</ele><time>2026-04-12T15:40:43.999Z</time></trkpt><trkpt lat="42.4362595631821" lon="11.603928687245867"><ele>71.0</ele><time>2026-04-12T15:40:44.999Z</time></trkpt><trkpt lat="42.43625804988501" lon="11.604041271419183"><ele>70.33333333333333</ele><time>2026-04-12T15:40:45.999Z</time></trkpt><trkpt lat="42.43625732047802" lon="11.604154899765245"><ele>69.66666666666667</ele><time>2026-04-12T15:40:46.999Z</time></trkpt><trkpt lat="42.43626077964381" lon="11.604261265779051"><ele>69.0</ele><time>2026-04-12T15:40:47.999Z</time></trkpt><trkpt lat="42.43626846705435" lon="11.604363968085927"><ele>69.0</ele><time>2026-04-12T15:40:48.999Z</time></trkpt><trkpt lat="42.436273124322994" lon="11.604472315605216"><ele>69.0</ele><time>2026-04-12T15:40:49.999Z</time></trkpt><trkpt lat="42.436286782912575" lon="11.604582828877298"><ele>69.0</ele><time>2026-04-12T15:40:50.999Z</time></trkpt><trkpt lat="42.43629975666803" lon="11.604694668557071"><ele>69.0</ele><time>2026-04-12T15:40:51.999Z</time></trkpt><trkpt lat="42.4362987795655" lon="11.604812860575697"><ele>69.0</ele><time>2026-04-12T15:40:52.999Z</time></trkpt><trkpt lat="42.43631729932005" lon="11.60491873574641"><ele>69.0</ele><time>2026-04-12T15:40:53.999Z</time></trkpt><trkpt lat="42.43631634592751" lon="11.605036359343297"><ele>69.0</ele><time>2026-04-12T15:40:54.999Z</time></trkpt><trkpt lat="42.43631390833533" lon="11.605151722817704"><ele>69.0</ele><time>2026-04-12T15:40:55.999Z</time></trkpt><trkpt lat="42.43631240988409" lon="11.6052537995822"><ele>69.0</ele><time>2026-04-12T15:40:56.999Z</time></trkpt><trkpt lat="42.43631196107762" lon="11.60536008851545"><ele>69.0</ele><time>2026-04-12T15:40:57.999Z</time></trkpt><trkpt lat="42.43631534309857" lon="11.605456206015951"><ele>69.0</ele><time>2026-04-12T15:40:58.999Z</time></trkpt><trkpt lat="42.43631220628279" lon="11.60554789475939"><ele>69.0</ele><time>2026-04-12T15:40:59.999Z</time></trkpt><trkpt lat="42.436313383408674" lon="11.605706033057333"><ele>69.66666666666667</ele><time>2026-04-12T15:41:01.999Z</time></trkpt><trkpt lat="42.436313463179346" lon="11.60579341939267"><ele>70.33333333333333</ele><time>2026-04-12T15:41:02.999Z</time></trkpt><trkpt lat="42.43631355217625" lon="11.605883775921683"><ele>71.0</ele><time>2026-04-12T15:41:03.999Z</time></trkpt><trkpt lat="42.436318583813005" lon="11.605971404013218"><ele>71.66666666666666</ele><time>2026-04-12T15:41:04.999Z</time></trkpt><trkpt lat="42.43631977531757" lon="11.606065537001165"><ele>72.33333333333333</ele><time>2026-04-12T15:41:05.999Z</time></trkpt><trkpt lat="42.43631407215752" lon="11.606235572515768"><ele>73.0</ele><time>2026-04-12T15:41:07.999Z</time></trkpt><trkpt lat="42.436309979151524" lon="11.606371483223372"><ele>73.8</ele><time>2026-04-12T15:41:09.999Z</time></trkpt><trkpt lat="42.43631371154688" lon="11.606507429036503"><ele>74.6</ele><time>2026-04-12T15:41:11.999Z</time></trkpt><trkpt lat="42.43631582117685" lon="11.60668482171248"><ele>75.4</ele><time>2026-04-12T15:41:13.999Z</time></trkpt><trkpt lat="42.43631343947113" lon="11.606855467358352"><ele>76.2</ele><time>2026-04-12T15:41:15.999Z</time></trkpt><trkpt lat="42.43631274840682" lon="11.606947240734868"><ele>77.0</ele><time>2026-04-12T15:41:16.999Z</time></trkpt><trkpt lat="42.436312051082204" lon="11.607039845478418"><ele>77.14285714285714</ele><time>2026-04-12T15:41:18Z</time></trkpt><trkpt lat="42.436311323618106" lon="11.607136452822193"><ele>77.28571428571428</ele><time>2026-04-12T15:41:19Z</time></trkpt><trkpt lat="42.4363109588636" lon="11.60724303061843"><ele>77.42857142857143</ele><time>2026-04-12T15:41:20Z</time></trkpt><trkpt lat="42.43631163273125" lon="11.607336720564813"><ele>77.57142857142857</ele><time>2026-04-12T15:41:21Z</time></trkpt><trkpt lat="42.43631224843358" lon="11.607422323475907"><ele>77.71428571428571</ele><time>2026-04-12T15:41:22Z</time></trkpt><trkpt lat="42.436328325936785" lon="11.607520751739852"><ele>77.85714285714286</ele><time>2026-04-12T15:41:23Z</time></trkpt><trkpt lat="42.43632358902522" lon="11.607629877459612"><ele>78.0</ele><time>2026-04-12T15:41:24Z</time></trkpt><trkpt lat="42.43633089650493" lon="11.607729979737364"><ele>78.14285714285715</ele><time>2026-04-12T15:41:25Z</time></trkpt><trkpt lat="42.43633022024252" lon="11.607828063266556"><ele>78.28571428571428</ele><time>2026-04-12T15:41:26Z</time></trkpt><trkpt lat="42.4363325247866" lon="11.607921171157281"><ele>78.42857142857143</ele><time>2026-04-12T15:41:27Z</time></trkpt><trkpt lat="42.436334936324066" lon="11.608023530208223"><ele>78.57142857142858</ele><time>2026-04-12T15:41:28Z</time></trkpt><trkpt lat="42.43632470566036" lon="11.608121121526173"><ele>78.71428571428572</ele><time>2026-04-12T15:41:29Z</time></trkpt><trkpt lat="42.4363436280438" lon="11.608219812538884"><ele>78.85714285714286</ele><time>2026-04-12T15:41:30Z</time></trkpt><trkpt lat="42.43633356504852" lon="11.608318027607647"><ele>79.0</ele><time>2026-04-12T15:41:31Z</time></trkpt><trkpt lat="42.43633037239445" lon="11.608413412788611"><ele>79.0</ele><time>2026-04-12T15:41:32Z</time></trkpt><trkpt lat="42.436333643059314" lon="11.60852703981044"><ele>79.0</ele><time>2026-04-12T15:41:33Z</time></trkpt><trkpt lat="42.43635083482395" lon="11.60862748203224"><ele>79.0</ele><time>2026-04-12T15:41:34Z</time></trkpt><trkpt lat="42.43636456193566" lon="11.608725044420698"><ele>79.0</ele><time>2026-04-12T15:41:35Z</time></trkpt><trkpt lat="42.436353589188975" lon="11.608847550189505"><ele>79.0</ele><time>2026-04-12T15:41:36Z</time></trkpt><trkpt lat="42.43635656070063" lon="11.608958355781057"><ele>79.0</ele><time>2026-04-12T15:41:37Z</time></trkpt><trkpt lat="42.436359836051075" lon="11.60908049129188"><ele>79.0</ele><time>2026-04-12T15:41:38Z</time></trkpt><trkpt lat="42.436362947064076" lon="11.609196498785328"><ele>79.0</ele><time>2026-04-12T15:41:39Z</time></trkpt><trkpt lat="42.43636590226353" lon="11.609306696055796"><ele>79.0</ele><time>2026-04-12T15:41:40Z</time></trkpt><trkpt lat="42.436370390215714" lon="11.609431806029791"><ele>79.0</ele><time>2026-04-12T15:41:41Z</time></trkpt><trkpt lat="42.436374425460016" lon="11.609540997752621"><ele>79.0</ele><time>2026-04-12T15:41:42Z</time></trkpt><trkpt lat="42.43637893734539" lon="11.609663087178058"><ele>79.0</ele><time>2026-04-12T15:41:43Z</time></trkpt><trkpt lat="42.43638304709376" lon="11.609774294942977"><ele>79.5</ele><time>2026-04-12T15:41:44Z</time></trkpt><trkpt lat="42.43638748498511" lon="11.609889166157755"><ele>80.0</ele><time>2026-04-12T15:41:45Z</time></trkpt><trkpt lat="42.43639162196561" lon="11.609996226171413"><ele>80.5</ele><time>2026-04-12T15:41:46Z</time></trkpt><trkpt lat="42.43639468493541" lon="11.610106941603743"><ele>81.0</ele><time>2026-04-12T15:41:47Z</time></trkpt><trkpt lat="42.436397255059504" lon="11.610220288317409"><ele>81.5</ele><time>2026-04-12T15:41:48Z</time></trkpt><trkpt lat="42.43639949409797" lon="11.610332502911104"><ele>82.0</ele><time>2026-04-12T15:41:49Z</time></trkpt><trkpt lat="42.436401225644765" lon="11.610445139976228"><ele>82.83333333333333</ele><time>2026-04-12T15:41:50Z</time></trkpt><trkpt lat="42.43640275957745" lon="11.610544922046346"><ele>83.66666666666666</ele><time>2026-04-12T15:41:51Z</time></trkpt><trkpt lat="42.43640322825789" lon="11.610649863337583"><ele>84.5</ele><time>2026-04-12T15:41:52Z</time></trkpt><trkpt lat="42.436403677291835" lon="11.61076670141652"><ele>85.33333333333333</ele><time>2026-04-12T15:41:53Z</time></trkpt><trkpt lat="42.43640297741915" lon="11.610872411689744"><ele>86.16666666666667</ele><time>2026-04-12T15:41:54Z</time></trkpt><trkpt lat="42.43640129320254" lon="11.610992894168348"><ele>87.0</ele><time>2026-04-12T15:41:55Z</time></trkpt><trkpt lat="42.436399792977774" lon="11.611100214744233"><ele>87.28571428571428</ele><time>2026-04-12T15:41:56Z</time></trkpt><trkpt lat="42.43639824086696" lon="11.611211246954175"><ele>87.57142857142857</ele><time>2026-04-12T15:41:57Z</time></trkpt><trkpt lat="42.436396887915876" lon="11.611308046065359"><ele>87.85714285714286</ele><time>2026-04-12T15:41:58Z</time></trkpt><trkpt lat="42.43639556890964" lon="11.611402706677573"><ele>88.14285714285714</ele><time>2026-04-12T15:41:59Z</time></trkpt><trkpt lat="42.43640234980802" lon="11.611502742799704"><ele>88.42857142857143</ele><time>2026-04-12T15:42:00Z</time></trkpt><trkpt lat="42.43639262768947" lon="11.611613787991601"><ele>88.71428571428571</ele><time>2026-04-12T15:42:01Z</time></trkpt><trkpt lat="42.43639134747097" lon="11.61170566494258"><ele>89.0</ele><time>2026-04-12T15:42:02Z</time></trkpt><trkpt lat="42.4363921424193" lon="11.611798762309736"><ele>89.0</ele><time>2026-04-12T15:42:03Z</time></trkpt><trkpt lat="42.43639941588985" lon="11.6119669201975"><ele>89.0</ele><time>2026-04-12T15:42:05Z</time></trkpt><trkpt lat="42.43640589159655" lon="11.612059077374274"><ele>89.0</ele><time>2026-04-12T15:42:06Z</time></trkpt><trkpt lat="42.43640494755793" lon="11.612152043563162"><ele>89.0</ele><time>2026-04-12T15:42:07Z</time></trkpt><trkpt lat="42.43637576783209" lon="11.612242683831886"><ele>89.0</ele><time>2026-04-12T15:42:08Z</time></trkpt><trkpt lat="42.436358853849576" lon="11.612381163117073"><ele>89.0</ele><time>2026-04-12T15:42:10Z</time></trkpt><trkpt lat="42.4363356757094" lon="11.612533356472888"><ele>88.83333333333334</ele><time>2026-04-12T15:42:12Z</time></trkpt><trkpt lat="42.436325153639594" lon="11.612635857172195"><ele>88.66666666666667</ele><time>2026-04-12T15:42:14Z</time></trkpt><trkpt lat="42.43647311476083" lon="11.612680941291515"><ele>88.5</ele><time>2026-04-12T15:42:17Z</time></trkpt><trkpt lat="42.43653160684369" lon="11.612627138369863"><ele>88.33333333333333</ele><time>2026-04-12T15:42:18Z</time></trkpt><trkpt lat="42.436581420705316" lon="11.612571421520096"><ele>88.16666666666666</ele><time>2026-04-12T15:42:19Z</time></trkpt><trkpt lat="42.43664212567346" lon="11.612516476723533"><ele>88.0</ele><time>2026-04-12T15:42:20Z</time></trkpt><trkpt lat="42.43672044065429" lon="11.612452358062741"><ele>88.0</ele><time>2026-04-12T15:42:20.999Z</time></trkpt><trkpt lat="42.43681029018324" lon="11.612388086266002"><ele>88.0</ele><time>2026-04-12T15:42:21.999Z</time></trkpt><trkpt lat="42.43690000648516" lon="11.612326515927096"><ele>88.0</ele><time>2026-04-12T15:42:22.999Z</time></trkpt><trkpt lat="42.436987345338984" lon="11.612259402638106"><ele>88.0</ele><time>2026-04-12T15:42:23.999Z</time></trkpt><trkpt lat="42.43707428067873" lon="11.612185946178847"><ele>88.0</ele><time>2026-04-12T15:42:24.999Z</time></trkpt><trkpt lat="42.43716393362526" lon="11.612111490573934"><ele>88.75</ele><time>2026-04-12T15:42:25.999Z</time></trkpt><trkpt lat="42.437253544957464" lon="11.612041054938745"><ele>89.5</ele><time>2026-04-12T15:42:26.999Z</time></trkpt><trkpt lat="42.437350421820184" lon="11.611970013060823"><ele>90.25</ele><time>2026-04-12T15:42:27.999Z</time></trkpt><trkpt lat="42.43745486147804" lon="11.611887537816273"><ele>91.0</ele><time>2026-04-12T15:42:28.999Z</time></trkpt><trkpt lat="42.43755914189649" lon="11.611805361000336"><ele>91.0</ele><time>2026-04-12T15:42:29.999Z</time></trkpt><trkpt lat="42.437670089539395" lon="11.611716760404668"><ele>91.0</ele><time>2026-04-12T15:42:30.999Z</time></trkpt><trkpt lat="42.43778255277288" lon="11.611631936066335"><ele>91.0</ele><time>2026-04-12T15:42:31.999Z</time></trkpt><trkpt lat="42.43790206329032" lon="11.611533424077546"><ele>91.0</ele><time>2026-04-12T15:42:32.999Z</time></trkpt><trkpt lat="42.438011358143434" lon="11.611442884539057"><ele>91.0</ele><time>2026-04-12T15:42:33.999Z</time></trkpt><trkpt lat="42.438126043187054" lon="11.611354241272059"><ele>91.0</ele><time>2026-04-12T15:42:34.999Z</time></trkpt><trkpt lat="42.438248056245826" lon="11.611271053392642"><ele>91.0</ele><time>2026-04-12T15:42:35.999Z</time></trkpt><trkpt lat="42.43837406177379" lon="11.611177121434922"><ele>91.0</ele><time>2026-04-12T15:42:36.999Z</time></trkpt><trkpt lat="42.43850037133001" lon="11.611075675820517"><ele>91.0</ele><time>2026-04-12T15:42:37.999Z</time></trkpt><trkpt lat="42.43862974138864" lon="11.610968134844576"><ele>91.0</ele><time>2026-04-12T15:42:38.999Z</time></trkpt><trkpt lat="42.43876101006363" lon="11.610852723373197"><ele>91.0</ele><time>2026-04-12T15:42:39.999Z</time></trkpt><trkpt lat="42.43889100914915" lon="11.610730040190106"><ele>90.33333333333333</ele><time>2026-04-12T15:42:40.999Z</time></trkpt><trkpt lat="42.43902477651273" lon="11.61059765520251"><ele>89.66666666666667</ele><time>2026-04-12T15:42:41.999Z</time></trkpt><trkpt lat="42.43916045258832" lon="11.610463273724987"><ele>89.0</ele><time>2026-04-12T15:42:42.999Z</time></trkpt><trkpt lat="42.4392939242016" lon="11.61033637343953"><ele>89.66666666666667</ele><time>2026-04-12T15:42:43.999Z</time></trkpt><trkpt lat="42.43942659653744" lon="11.61021630939526"><ele>90.33333333333333</ele><time>2026-04-12T15:42:44.999Z</time></trkpt><trkpt lat="42.43956222011006" lon="11.610092522906847"><ele>91.0</ele><time>2026-04-12T15:42:45.999Z</time></trkpt><trkpt lat="42.43969153284043" lon="11.609965897489007"><ele>91.0</ele><time>2026-04-12T15:42:46.999Z</time></trkpt><trkpt lat="42.43982252255623" lon="11.60984085757244"><ele>91.0</ele><time>2026-04-12T15:42:47.999Z</time></trkpt><trkpt lat="42.43995364543321" lon="11.609719379847148"><ele>91.0</ele><time>2026-04-12T15:42:48.999Z</time></trkpt><trkpt lat="42.440087145101934" lon="11.609593236069932"><ele>90.0</ele><time>2026-04-12T15:42:49.999Z</time></trkpt><trkpt lat="42.44022246271275" lon="11.609467260259104"><ele>89.0</ele><time>2026-04-12T15:42:50.999Z</time></trkpt><trkpt lat="42.44035868156833" lon="11.60933855968726"><ele>88.0</ele><time>2026-04-12T15:42:51.999Z</time></trkpt><trkpt lat="42.44049912733864" lon="11.60920485145459"><ele>87.66666666666666</ele><time>2026-04-12T15:42:52.999Z</time></trkpt><trkpt lat="42.440640988641874" lon="11.609069113265342"><ele>87.33333333333333</ele><time>2026-04-12T15:42:53.999Z</time></trkpt><trkpt lat="42.44078470951327" lon="11.60893282932272"><ele>87.0</ele><time>2026-04-12T15:42:54.999Z</time></trkpt><trkpt lat="42.44093029301286" lon="11.608796940398411"><ele>87.0</ele><time>2026-04-12T15:42:55.999Z</time></trkpt><trkpt lat="42.44107613838653" lon="11.608660090569852"><ele>87.0</ele><time>2026-04-12T15:42:56.999Z</time></trkpt><trkpt lat="42.441219263673474" lon="11.60852335720053"><ele>87.0</ele><time>2026-04-12T15:42:57.999Z</time></trkpt><trkpt lat="42.4413647324774" lon="11.60838509200864"><ele>86.33333333333333</ele><time>2026-04-12T15:42:58.999Z</time></trkpt><trkpt lat="42.44151844457068" lon="11.608242956356921"><ele>85.66666666666666</ele><time>2026-04-12T15:42:59.999Z</time></trkpt><trkpt lat="42.44166217445704" lon="11.608105950587081"><ele>85.0</ele><time>2026-04-12T15:43:00.999Z</time></trkpt><trkpt lat="42.44181161969669" lon="11.607969860812819"><ele>85.0</ele><time>2026-04-12T15:43:01.999Z</time></trkpt><trkpt lat="42.441960284159045" lon="11.607834632134928"><ele>85.0</ele><time>2026-04-12T15:43:02.999Z</time></trkpt><trkpt lat="42.442103958417164" lon="11.60770255314946"><ele>85.0</ele><time>2026-04-12T15:43:03.999Z</time></trkpt><trkpt lat="42.44224967866038" lon="11.607571306792597"><ele>85.33333333333333</ele><time>2026-04-12T15:43:04.999Z</time></trkpt><trkpt lat="42.44240245808467" lon="11.607446154192301"><ele>85.66666666666667</ele><time>2026-04-12T15:43:05.999Z</time></trkpt><trkpt lat="42.44255942047223" lon="11.607330969827217"><ele>86.0</ele><time>2026-04-12T15:43:06.999Z</time></trkpt><trkpt lat="42.44271533930765" lon="11.607221800045"><ele>86.0</ele><time>2026-04-12T15:43:07.999Z</time></trkpt><trkpt lat="42.44286898878148" lon="11.60711816815967"><ele>86.0</ele><time>2026-04-12T15:43:08.999Z</time></trkpt><trkpt lat="42.44302517451309" lon="11.60701704377331"><ele>86.0</ele><time>2026-04-12T15:43:09.999Z</time></trkpt><trkpt lat="42.44317794359092" lon="11.6069190371924"><ele>85.66666666666667</ele><time>2026-04-12T15:43:10.999Z</time></trkpt><trkpt lat="42.44332873106164" lon="11.606816990781699"><ele>85.33333333333333</ele><time>2026-04-12T15:43:11.999Z</time></trkpt><trkpt lat="42.44348091425871" lon="11.606710430714"><ele>85.0</ele><time>2026-04-12T15:43:12.999Z</time></trkpt><trkpt lat="42.443634468209865" lon="11.60660147624433"><ele>85.0</ele><time>2026-04-12T15:43:13.999Z</time></trkpt><trkpt lat="42.443792630305225" lon="11.606494451663874"><ele>85.0</ele><time>2026-04-12T15:43:14.999Z</time></trkpt><trkpt lat="42.44395040583144" lon="11.60638914398832"><ele>85.0</ele><time>2026-04-12T15:43:15.999Z</time></trkpt><trkpt lat="42.44411074590818" lon="11.606283955268873"><ele>86.0</ele><time>2026-04-12T15:43:16.999Z</time></trkpt><trkpt lat="42.44427177259039" lon="11.606182041145763"><ele>87.0</ele><time>2026-04-12T15:43:17.999Z</time></trkpt><trkpt lat="42.444427229967" lon="11.606080740949682"><ele>88.0</ele><time>2026-04-12T15:43:18.999Z</time></trkpt><trkpt lat="42.4445845227412" lon="11.605976244264518"><ele>89.33333333333333</ele><time>2026-04-12T15:43:19.999Z</time></trkpt><trkpt lat="42.444733073137236" lon="11.605871804532146"><ele>90.66666666666667</ele><time>2026-04-12T15:43:20.999Z</time></trkpt><trkpt lat="42.44488366026861" lon="11.605764536976878"><ele>92.0</ele><time>2026-04-12T15:43:21.999Z</time></trkpt><trkpt lat="42.44503768395317" lon="11.605656937727929"><ele>92.0</ele><time>2026-04-12T15:43:22.999Z</time></trkpt><trkpt lat="42.445203074908335" lon="11.605571277732663"><ele>92.0</ele><time>2026-04-12T15:43:24Z</time></trkpt><trkpt lat="42.445354450161396" lon="11.605448746919873"><ele>92.0</ele><time>2026-04-12T15:43:25Z</time></trkpt><trkpt lat="42.44551415678877" lon="11.605346502417163"><ele>92.66666666666667</ele><time>2026-04-12T15:43:26Z</time></trkpt><trkpt lat="42.4456702000798" lon="11.605240669520839"><ele>93.33333333333333</ele><time>2026-04-12T15:43:27Z</time></trkpt><trkpt lat="42.445828734891116" lon="11.605130579874926"><ele>94.0</ele><time>2026-04-12T15:43:28Z</time></trkpt><trkpt lat="42.445987410813196" lon="11.605029929538604"><ele>94.0</ele><time>2026-04-12T15:43:29Z</time></trkpt><trkpt lat="42.446143037918574" lon="11.60493186497072"><ele>94.0</ele><time>2026-04-12T15:43:30Z</time></trkpt><trkpt lat="42.44628562881854" lon="11.604834825034326"><ele>94.0</ele><time>2026-04-12T15:43:31Z</time></trkpt><trkpt lat="42.44641854330798" lon="11.604731190181292"><ele>94.66666666666666</ele><time>2026-04-12T15:43:32Z</time></trkpt><trkpt lat="42.446533965687024" lon="11.60460209301376"><ele>95.33333333333333</ele><time>2026-04-12T15:43:33Z</time></trkpt><trkpt lat="42.44664997695387" lon="11.604445100643677"><ele>96.0</ele><time>2026-04-12T15:43:34Z</time></trkpt><trkpt lat="42.446765495908224" lon="11.604281159681824"><ele>96.0</ele><time>2026-04-12T15:43:35Z</time></trkpt><trkpt lat="42.446880774493984" lon="11.604113481545308"><ele>96.0</ele><time>2026-04-12T15:43:36Z</time></trkpt><trkpt lat="42.447000284425975" lon="11.603939914974722"><ele>96.0</ele><time>2026-04-12T15:43:37Z</time></trkpt><trkpt lat="42.447123287325326" lon="11.603760152535756"><ele>95.0</ele><time>2026-04-12T15:43:38Z</time></trkpt><trkpt lat="42.44725273211867" lon="11.603572412412468"><ele>94.0</ele><time>2026-04-12T15:43:39Z</time></trkpt><trkpt lat="42.447385404116964" lon="11.603381214354087"><ele>93.0</ele><time>2026-04-12T15:43:40Z</time></trkpt><trkpt lat="42.44752004621315" lon="11.603185530147806"><ele>93.0</ele><time>2026-04-12T15:43:41Z</time></trkpt><trkpt lat="42.44765279729213" lon="11.602993458717922"><ele>93.0</ele><time>2026-04-12T15:43:42Z</time></trkpt><trkpt lat="42.447768636848515" lon="11.60282159560419"><ele>93.0</ele><time>2026-04-12T15:43:43Z</time></trkpt><trkpt lat="42.44788074278772" lon="11.602655724414225"><ele>93.66666666666667</ele><time>2026-04-12T15:43:44Z</time></trkpt><trkpt lat="42.447977439245136" lon="11.602490122408552"><ele>94.33333333333334</ele><time>2026-04-12T15:43:45Z</time></trkpt><trkpt lat="42.44805045468799" lon="11.602292352169222"><ele>95.0</ele><time>2026-04-12T15:43:46Z</time></trkpt><trkpt lat="42.44809426906045" lon="11.602065192799513"><ele>96.0</ele><time>2026-04-12T15:43:47Z</time></trkpt><trkpt lat="42.44812077877802" lon="11.601821243623007"><ele>97.0</ele><time>2026-04-12T15:43:47.999Z</time></trkpt><trkpt lat="42.44813348390556" lon="11.60157517450582"><ele>98.0</ele><time>2026-04-12T15:43:48.999Z</time></trkpt><trkpt lat="42.44815213542167" lon="11.601324743275688"><ele>98.66666666666666</ele><time>2026-04-12T15:43:49.999Z</time></trkpt><trkpt lat="42.448173287337994" lon="11.601072698091905"><ele>99.33333333333334</ele><time>2026-04-12T15:43:50.999Z</time></trkpt><trkpt lat="42.4481952512718" lon="11.600812893480416"><ele>100.0</ele><time>2026-04-12T15:43:51.999Z</time></trkpt><trkpt lat="42.448215639103786" lon="11.600560419766781"><ele>101.0</ele><time>2026-04-12T15:43:52.999Z</time></trkpt><trkpt lat="42.448238046954906" lon="11.600313442562692"><ele>102.0</ele><time>2026-04-12T15:43:53.999Z</time></trkpt><trkpt lat="42.44826035320926" lon="11.600074796227101"><ele>103.0</ele><time>2026-04-12T15:43:54.999Z</time></trkpt><trkpt lat="42.4482775796418" lon="11.59986004502045"><ele>103.0</ele><time>2026-04-12T15:43:55.999Z</time></trkpt><trkpt lat="42.44830707653278" lon="11.599649612765582"><ele>103.0</ele><time>2026-04-12T15:43:56.999Z</time></trkpt><trkpt lat="42.44833363305695" lon="11.599450889282107"><ele>103.0</ele><time>2026-04-12T15:43:57.999Z</time></trkpt><trkpt lat="42.44840996967648" lon="11.599281069966265"><ele>103.0</ele><time>2026-04-12T15:43:58.999Z</time></trkpt><trkpt lat="42.448481929954234" lon="11.599156644412288"><ele>103.0</ele><time>2026-04-12T15:43:59.999Z</time></trkpt><trkpt lat="42.44853497862006" lon="11.599066956799096"><ele>103.0</ele><time>2026-04-12T15:44:00.999Z</time></trkpt><trkpt lat="42.44859896175467" lon="11.598982935382665"><ele>103.0</ele><time>2026-04-12T15:44:02.999Z</time></trkpt><trkpt lat="42.44865501567153" lon="11.598905789996763"><ele>103.0</ele><time>2026-04-12T15:44:06.999Z</time></trkpt><trkpt lat="42.448719829119334" lon="11.598819643513728"><ele>103.00000000000001</ele><time>2026-04-12T15:44:08.999Z</time></trkpt><trkpt lat="42.44876996003083" lon="11.598754638836558"><ele>103.0</ele><time>2026-04-12T15:44:09.999Z</time></trkpt><trkpt lat="42.44883925583055" lon="11.598658567911631"><ele>103.0</ele><time>2026-04-12T15:44:11.999Z</time></trkpt><trkpt lat="42.448896755274085" lon="11.598587977968203"><ele>103.0</ele><time>2026-04-12T15:44:13.999Z</time></trkpt><trkpt lat="42.448846603784325" lon="11.598645939928032"><ele>103.00000000000001</ele><time>2026-04-12T15:44:25.999Z</time></trkpt><trkpt lat="42.44877339031006" lon="11.598700179835733"><ele>103.0</ele><time>2026-04-12T15:44:26.999Z</time></trkpt><trkpt lat="42.44871417577322" lon="11.598784356465147"><ele>103.0</ele><time>2026-04-12T15:44:27.999Z</time></trkpt><trkpt lat="42.44864336365565" lon="11.598880012950024"><ele>103.0</ele><time>2026-04-12T15:44:28.998Z</time></trkpt><trkpt lat="42.44856395114002" lon="11.598985786338892"><ele>103.0</ele><time>2026-04-12T15:44:29.998Z</time></trkpt><trkpt lat="42.448481293068205" lon="11.59910524094676"><ele>103.0</ele><time>2026-04-12T15:44:30.998Z</time></trkpt><trkpt lat="42.448406010243865" lon="11.599229506544683"><ele>103.0</ele><time>2026-04-12T15:44:31.998Z</time></trkpt><trkpt lat="42.44833058418012" lon="11.599380397782095"><ele>103.0</ele><time>2026-04-12T15:44:32.998Z</time></trkpt><trkpt lat="42.44827518266312" lon="11.59954572217498"><ele>103.0</ele><time>2026-04-12T15:44:33.998Z</time></trkpt><trkpt lat="42.448245635686135" lon="11.599734185563257"><ele>103.0</ele><time>2026-04-12T15:44:34.998Z</time></trkpt><trkpt lat="42.448231314968055" lon="11.599940035531244"><ele>103.0</ele><time>2026-04-12T15:44:35.998Z</time></trkpt><trkpt lat="42.448218633197975" lon="11.600156226830753"><ele>103.0</ele><time>2026-04-12T15:44:36.998Z</time></trkpt><trkpt lat="42.44820549422521" lon="11.60038081275799"><ele>103.0</ele><time>2026-04-12T15:44:37.998Z</time></trkpt><trkpt lat="42.448194954076065" lon="11.600606403051366"><ele>102.0</ele><time>2026-04-12T15:44:38.998Z</time></trkpt><trkpt lat="42.44817903380913" lon="11.600828270926336"><ele>101.0</ele><time>2026-04-12T15:44:39.998Z</time></trkpt><trkpt lat="42.44815958610826" lon="11.601050665940004"><ele>100.0</ele><time>2026-04-12T15:44:40.998Z</time></trkpt><trkpt lat="42.44813923770869" lon="11.601263371613165"><ele>99.5</ele><time>2026-04-12T15:44:41.998Z</time></trkpt><trkpt lat="42.44812064017297" lon="11.601463452709286"><ele>99.0</ele><time>2026-04-12T15:44:42.998Z</time></trkpt><trkpt lat="42.44810552743627" lon="11.601655842627308"><ele>98.5</ele><time>2026-04-12T15:44:43.998Z</time></trkpt><trkpt lat="42.448087443467045" lon="11.601843187745885"><ele>98.0</ele><time>2026-04-12T15:44:44.998Z</time></trkpt><trkpt lat="42.44807283442615" lon="11.60202821666788"><ele>97.25</ele><time>2026-04-12T15:44:45.998Z</time></trkpt><trkpt lat="42.448036758546074" lon="11.602190251289661"><ele>96.5</ele><time>2026-04-12T15:44:46.998Z</time></trkpt><trkpt lat="42.44799634480099" lon="11.602340967544661"><ele>95.75</ele><time>2026-04-12T15:44:47.998Z</time></trkpt><trkpt lat="42.44793609209092" lon="11.602492738224763"><ele>95.0</ele><time>2026-04-12T15:44:48.998Z</time></trkpt><trkpt lat="42.447853754508394" lon="11.602642079727893"><ele>94.33333333333334</ele><time>2026-04-12T15:44:49.998Z</time></trkpt><trkpt lat="42.447755571918464" lon="11.6027901815246"><ele>93.66666666666667</ele><time>2026-04-12T15:44:50.998Z</time></trkpt><trkpt lat="42.44764519889941" lon="11.602950447733583"><ele>93.0</ele><time>2026-04-12T15:44:51.998Z</time></trkpt><trkpt lat="42.44753161003619" lon="11.60311538421715"><ele>93.0</ele><time>2026-04-12T15:44:52.998Z</time></trkpt><trkpt lat="42.447429501365455" lon="11.60329421590186"><ele>93.0</ele><time>2026-04-12T15:44:53.998Z</time></trkpt><trkpt lat="42.44731178966782" lon="11.603465809929759"><ele>93.0</ele><time>2026-04-12T15:44:54.998Z</time></trkpt><trkpt lat="42.44718103353031" lon="11.603623704771929"><ele>94.0</ele><time>2026-04-12T15:44:55.998Z</time></trkpt><trkpt lat="42.44707444777341" lon="11.60380959246062"><ele>95.0</ele><time>2026-04-12T15:44:56.998Z</time></trkpt><trkpt lat="42.44696689085413" lon="11.60395443291928"><ele>96.0</ele><time>2026-04-12T15:44:57.998Z</time></trkpt><trkpt lat="42.446873677607" lon="11.604088826195836"><ele>96.0</ele><time>2026-04-12T15:44:58.998Z</time></trkpt><trkpt lat="42.44679033575338" lon="11.604209892811635"><ele>96.0</ele><time>2026-04-12T15:44:59.998Z</time></trkpt><trkpt lat="42.44671359723315" lon="11.604319823085854"><ele>96.0</ele><time>2026-04-12T15:45:00.998Z</time></trkpt><trkpt lat="42.446649314619854" lon="11.60441394472405"><ele>96.0</ele><time>2026-04-12T15:45:01.998Z</time></trkpt><trkpt lat="42.44655842453198" lon="11.604544348522834"><ele>96.75</ele><time>2026-04-12T15:45:03.998Z</time></trkpt><trkpt lat="42.446661007660175" lon="11.604672148364592"><ele>97.5</ele><time>2026-04-12T15:45:07.998Z</time></trkpt><trkpt lat="42.446789070723014" lon="11.604610700299927"><ele>98.25</ele><time>2026-04-12T15:45:09.998Z</time></trkpt><trkpt lat="42.446878323262744" lon="11.604574435952049"><ele>99.0</ele><time>2026-04-12T15:45:10.998Z</time></trkpt><trkpt lat="42.44697732678635" lon="11.604540559436753"><ele>99.0</ele><time>2026-04-12T15:45:11.998Z</time></trkpt><trkpt lat="42.44708137856977" lon="11.604514458921933"><ele>99.0</ele><time>2026-04-12T15:45:12.998Z</time></trkpt><trkpt lat="42.447188008424675" lon="11.60448112992857"><ele>99.0</ele><time>2026-04-12T15:45:13.998Z</time></trkpt><trkpt lat="42.44728533824435" lon="11.604446616782916"><ele>99.0</ele><time>2026-04-12T15:45:14.998Z</time></trkpt><trkpt lat="42.44739633381422" lon="11.6044069221705"><ele>99.0</ele><time>2026-04-12T15:45:15.998Z</time></trkpt><trkpt lat="42.44749957677556" lon="11.604363318183575"><ele>97.75</ele><time>2026-04-12T15:45:16.998Z</time></trkpt><trkpt lat="42.4476109077723" lon="11.604322548518457"><ele>96.5</ele><time>2026-04-12T15:45:17.998Z</time></trkpt><trkpt lat="42.44772837438409" lon="11.60427248265692"><ele>95.25</ele><time>2026-04-12T15:45:18.998Z</time></trkpt><trkpt lat="42.44783903937081" lon="11.604240978151308"><ele>94.0</ele><time>2026-04-12T15:45:19.998Z</time></trkpt><trkpt lat="42.447939771995244" lon="11.604209502043433"><ele>93.33333333333333</ele><time>2026-04-12T15:45:20.998Z</time></trkpt><trkpt lat="42.448035202436515" lon="11.604179823121084"><ele>92.66666666666666</ele><time>2026-04-12T15:45:21.998Z</time></trkpt><trkpt lat="42.448110720499535" lon="11.604146861386656"><ele>92.0</ele><time>2026-04-12T15:45:22.998Z</time></trkpt><trkpt lat="42.44818958658705" lon="11.604123805801986"><ele>91.33333333333333</ele><time>2026-04-12T15:45:23.998Z</time></trkpt><trkpt lat="42.44825519449488" lon="11.60410286285602"><ele>90.66666666666667</ele><time>2026-04-12T15:45:24.998Z</time></trkpt><trkpt lat="42.44834140329489" lon="11.60406391155302"><ele>90.0</ele><time>2026-04-12T15:45:26.998Z</time></trkpt><trkpt lat="42.44842903554363" lon="11.604045923629808"><ele>90.0</ele><time>2026-04-12T15:45:28.998Z</time></trkpt><trkpt lat="42.44848928028335" lon="11.604006584790005"><ele>90.0</ele><time>2026-04-12T15:45:29.999Z</time></trkpt><trkpt lat="42.44857384380355" lon="11.603972358051259"><ele>90.0</ele><time>2026-04-12T15:45:30.999Z</time></trkpt><trkpt lat="42.4486595402872" lon="11.603951668096743"><ele>90.0</ele><time>2026-04-12T15:45:31.999Z</time></trkpt><trkpt lat="42.44875455971973" lon="11.603915771036789"><ele>90.0</ele><time>2026-04-12T15:45:32.999Z</time></trkpt><trkpt lat="42.44885219232411" lon="11.603875432145694"><ele>90.0</ele><time>2026-04-12T15:45:33.999Z</time></trkpt><trkpt lat="42.44893855147834" lon="11.603837338405976"><ele>89.33333333333333</ele><time>2026-04-12T15:45:34.999Z</time></trkpt><trkpt lat="42.44901423872961" lon="11.603826521304308"><ele>88.66666666666667</ele><time>2026-04-12T15:45:35.999Z</time></trkpt><trkpt lat="42.449083712567614" lon="11.603809928365822"><ele>88.0</ele><time>2026-04-12T15:45:36.999Z</time></trkpt><trkpt lat="42.44915478004173" lon="11.603791296502179"><ele>87.33333333333334</ele><time>2026-04-12T15:45:37.999Z</time></trkpt><trkpt lat="42.44923078891618" lon="11.60381314050881"><ele>86.66666666666667</ele><time>2026-04-12T15:45:38.999Z</time></trkpt><trkpt lat="42.44929028805515" lon="11.603881037657997"><ele>86.0</ele><time>2026-04-12T15:45:39.999Z</time></trkpt><trkpt lat="42.44935608471436" lon="11.603949453066667"><ele>86.0</ele><time>2026-04-12T15:45:40.999Z</time></trkpt><trkpt lat="42.44943139016196" lon="11.604019277392739"><ele>86.0</ele><time>2026-04-12T15:45:41.999Z</time></trkpt><trkpt lat="42.449497914068715" lon="11.60410808945602"><ele>86.0</ele><time>2026-04-12T15:45:43Z</time></trkpt><trkpt lat="42.44957545945369" lon="11.604195243724458"><ele>86.0</ele><time>2026-04-12T15:45:44Z</time></trkpt><trkpt lat="42.44966132835647" lon="11.604282273681962"><ele>86.0</ele><time>2026-04-12T15:45:45Z</time></trkpt><trkpt lat="42.44973966319689" lon="11.604361364658697"><ele>86.19999999999999</ele><time>2026-04-12T15:45:46Z</time></trkpt><trkpt lat="42.44981669793476" lon="11.604443804154599"><ele>86.39999999999999</ele><time>2026-04-12T15:45:47Z</time></trkpt><trkpt lat="42.44989258649937" lon="11.604525568366423"><ele>86.6</ele><time>2026-04-12T15:45:48Z</time></trkpt><trkpt lat="42.44996311770097" lon="11.604600612717158"><ele>86.8</ele><time>2026-04-12T15:45:49Z</time></trkpt><trkpt lat="42.450037837173774" lon="11.604680915498944"><ele>87.0</ele><time>2026-04-12T15:45:50Z</time></trkpt><trkpt lat="42.45011491021535" lon="11.604752108680973"><ele>86.39999999999999</ele><time>2026-04-12T15:45:51Z</time></trkpt><trkpt lat="42.450181112023095" lon="11.604846323889769"><ele>85.8</ele><time>2026-04-12T15:45:52Z</time></trkpt><trkpt lat="42.45025190210878" lon="11.604922019717813"><ele>85.2</ele><time>2026-04-12T15:45:53Z</time></trkpt><trkpt lat="42.45030676081139" lon="11.605024732091277"><ele>84.6</ele><time>2026-04-12T15:45:54Z</time></trkpt><trkpt lat="42.450354109439594" lon="11.605143071130385"><ele>84.0</ele><time>2026-04-12T15:45:55Z</time></trkpt><trkpt lat="42.45039890101926" lon="11.605265979928507"><ele>84.0</ele><time>2026-04-12T15:45:56Z</time></trkpt><trkpt lat="42.45042484126125" lon="11.605398894135636"><ele>84.0</ele><time>2026-04-12T15:45:57Z</time></trkpt><trkpt lat="42.450462553328954" lon="11.605519907961112"><ele>84.0</ele><time>2026-04-12T15:45:58Z</time></trkpt><trkpt lat="42.450502602866095" lon="11.60565220077954"><ele>84.0</ele><time>2026-04-12T15:45:58.999Z</time></trkpt><trkpt lat="42.45054056066423" lon="11.605777583925939"><ele>84.0</ele><time>2026-04-12T15:45:59.999Z</time></trkpt><trkpt lat="42.450581528962736" lon="11.605915466052055"><ele>84.0</ele><time>2026-04-12T15:46:00.999Z</time></trkpt><trkpt lat="42.45062431381592" lon="11.606060149380843"><ele>84.0</ele><time>2026-04-12T15:46:01.999Z</time></trkpt><trkpt lat="42.4506620798937" lon="11.606187861171481"><ele>84.0</ele><time>2026-04-12T15:46:02.999Z</time></trkpt><trkpt lat="42.450704132691904" lon="11.606332469694859"><ele>84.0</ele><time>2026-04-12T15:46:03.999Z</time></trkpt><trkpt lat="42.45074330313854" lon="11.606468613397043"><ele>84.0</ele><time>2026-04-12T15:46:04.999Z</time></trkpt><trkpt lat="42.450782574516126" lon="11.60660510847427"><ele>83.5</ele><time>2026-04-12T15:46:05.999Z</time></trkpt><trkpt lat="42.45082064766227" lon="11.60673926703042"><ele>83.0</ele><time>2026-04-12T15:46:06.999Z</time></trkpt><trkpt lat="42.45086980667131" lon="11.606874426442312"><ele>82.5</ele><time>2026-04-12T15:46:07.999Z</time></trkpt><trkpt lat="42.45090616390746" lon="11.607016424384115"><ele>82.0</ele><time>2026-04-12T15:46:08.999Z</time></trkpt><trkpt lat="42.450947803601" lon="11.607172463752438"><ele>82.19999999999999</ele><time>2026-04-12T15:46:09.999Z</time></trkpt><trkpt lat="42.45096738978824" lon="11.607333775825005"><ele>82.4</ele><time>2026-04-12T15:46:10.999Z</time></trkpt><trkpt lat="42.45099411332522" lon="11.607461589767702"><ele>82.6</ele><time>2026-04-12T15:46:11.999Z</time></trkpt><trkpt lat="42.45102099762194" lon="11.607589659971724"><ele>82.80000000000001</ele><time>2026-04-12T15:46:12.999Z</time></trkpt><trkpt lat="42.45104861398607" lon="11.607714324412122"><ele>83.0</ele><time>2026-04-12T15:46:13.999Z</time></trkpt><trkpt lat="42.45107982613545" lon="11.60783583048069"><ele>83.0</ele><time>2026-04-12T15:46:14.999Z</time></trkpt><trkpt lat="42.45112279415345" lon="11.607948242222148"><ele>83.0</ele><time>2026-04-12T15:46:15.999Z</time></trkpt><trkpt lat="42.451163439700316" lon="11.608084866439825"><ele>83.0</ele><time>2026-04-12T15:46:16.999Z</time></trkpt><trkpt lat="42.45121910152622" lon="11.60820328862972"><ele>83.0</ele><time>2026-04-12T15:46:17.999Z</time></trkpt><trkpt lat="42.451292564251524" lon="11.608331492818863"><ele>83.0</ele><time>2026-04-12T15:46:18.999Z</time></trkpt><trkpt lat="42.45136292078957" lon="11.608451361174854"><ele>82.5</ele><time>2026-04-12T15:46:19.999Z</time></trkpt><trkpt lat="42.451437674134155" lon="11.608586249216625"><ele>82.0</ele><time>2026-04-12T15:46:20.999Z</time></trkpt><trkpt lat="42.45149010399692" lon="11.608737347171706"><ele>81.5</ele><time>2026-04-12T15:46:21.999Z</time></trkpt><trkpt lat="42.451564821592015" lon="11.608900883806768"><ele>81.0</ele><time>2026-04-12T15:46:22.999Z</time></trkpt><trkpt lat="42.45164141244897" lon="11.609037878718274"><ele>80.0</ele><time>2026-04-12T15:46:23.999Z</time></trkpt><trkpt lat="42.45170942882038" lon="11.609167550359457"><ele>79.0</ele><time>2026-04-12T15:46:24.999Z</time></trkpt><trkpt lat="42.45175817306507" lon="11.609288978418645"><ele>78.0</ele><time>2026-04-12T15:46:25.999Z</time></trkpt><trkpt lat="42.451820715591445" lon="11.609399251032206"><ele>77.0</ele><time>2026-04-12T15:46:26.999Z</time></trkpt><trkpt lat="42.451901847114044" lon="11.609488939167692"><ele>76.0</ele><time>2026-04-12T15:46:27.999Z</time></trkpt><trkpt lat="42.45196864346897" lon="11.609592599894171"><ele>75.6</ele><time>2026-04-12T15:46:28.999Z</time></trkpt><trkpt lat="42.45204608908009" lon="11.609681918516708"><ele>75.19999999999999</ele><time>2026-04-12T15:46:29.999Z</time></trkpt><trkpt lat="42.45213353940772" lon="11.609755047773435"><ele>74.80000000000001</ele><time>2026-04-12T15:46:30.999Z</time></trkpt><trkpt lat="42.45225037060311" lon="11.609825286176639"><ele>74.4</ele><time>2026-04-12T15:46:31.999Z</time></trkpt><trkpt lat="42.452360131407005" lon="11.609860362483516"><ele>74.0</ele><time>2026-04-12T15:46:32.999Z</time></trkpt><trkpt lat="42.452468478118924" lon="11.609879756717685"><ele>73.83333333333334</ele><time>2026-04-12T15:46:33.999Z</time></trkpt><trkpt lat="42.45257291819846" lon="11.609892012172775"><ele>73.66666666666667</ele><time>2026-04-12T15:46:34.999Z</time></trkpt><trkpt lat="42.45265446622284" lon="11.609911154088907"><ele>73.5</ele><time>2026-04-12T15:46:35.999Z</time></trkpt><trkpt lat="42.452720847821745" lon="11.609946685245706"><ele>73.33333333333333</ele><time>2026-04-12T15:46:36.999Z</time></trkpt><trkpt lat="42.45280500916193" lon="11.609957009988172"><ele>73.16666666666666</ele><time>2026-04-12T15:46:37.999Z</time></trkpt><trkpt lat="42.452897185583936" lon="11.60996952867729"><ele>73.0</ele><time>2026-04-12T15:46:38.999Z</time></trkpt><trkpt lat="42.4529980405253" lon="11.610004277436985"><ele>72.75</ele><time>2026-04-12T15:46:39.999Z</time></trkpt><trkpt lat="42.45309788519722" lon="11.610053352246299"><ele>72.5</ele><time>2026-04-12T15:46:40.999Z</time></trkpt><trkpt lat="42.453195513794086" lon="11.610126466318528"><ele>72.25</ele><time>2026-04-12T15:46:41.999Z</time></trkpt><trkpt lat="42.453292259427386" lon="11.61021138205722"><ele>72.0</ele><time>2026-04-12T15:46:42.999Z</time></trkpt><trkpt lat="42.45339520229562" lon="11.610312957091029"><ele>71.8</ele><time>2026-04-12T15:46:43.999Z</time></trkpt><trkpt lat="42.453494256025486" lon="11.610397719467997"><ele>71.6</ele><time>2026-04-12T15:46:44.999Z</time></trkpt><trkpt lat="42.45358253834803" lon="11.610468918567156"><ele>71.39999999999999</ele><time>2026-04-12T15:46:45.999Z</time></trkpt><trkpt lat="42.45367264769368" lon="11.610551313610252"><ele>71.2</ele><time>2026-04-12T15:46:46.999Z</time></trkpt><trkpt lat="42.45375333432596" lon="11.610622912116865"><ele>71.0</ele><time>2026-04-12T15:46:47.999Z</time></trkpt><trkpt lat="42.45382390983888" lon="11.610694873864253"><ele>71.33333333333334</ele><time>2026-04-12T15:46:48.999Z</time></trkpt><trkpt lat="42.45389811718398" lon="11.610767731801904"><ele>71.66666666666667</ele><time>2026-04-12T15:46:49.999Z</time></trkpt><trkpt lat="42.45396616561785" lon="11.610824583057399"><ele>72.0</ele><time>2026-04-12T15:46:50.999Z</time></trkpt><trkpt lat="42.45401567773854" lon="11.610893547559618"><ele>72.33333333333333</ele><time>2026-04-12T15:46:51.999Z</time></trkpt><trkpt lat="42.45407421671965" lon="11.610949329048726"><ele>72.66666666666666</ele><time>2026-04-12T15:46:52.999Z</time></trkpt><trkpt lat="42.45412657340232" lon="11.610999219414575"><ele>73.0</ele><time>2026-04-12T15:46:53.999Z</time></trkpt><trkpt lat="42.454228677627256" lon="11.611096514018188"><ele>72.8</ele><time>2026-04-12T15:46:55.999Z</time></trkpt><trkpt lat="42.4542810011919" lon="11.611157500012599"><ele>72.6</ele><time>2026-04-12T15:46:56.999Z</time></trkpt><trkpt lat="42.45434048643461" lon="11.611229946352912"><ele>72.4</ele><time>2026-04-12T15:46:57.999Z</time></trkpt><trkpt lat="42.45442690921592" lon="11.611296288363057"><ele>72.2</ele><time>2026-04-12T15:46:58.999Z</time></trkpt><trkpt lat="42.45451652225508" lon="11.61137239101614"><ele>72.0</ele><time>2026-04-12T15:46:59.999Z</time></trkpt><trkpt lat="42.45460938252063" lon="11.611454318664967"><ele>72.0</ele><time>2026-04-12T15:47:00.999Z</time></trkpt><trkpt lat="42.454705621773115" lon="11.611531679444939"><ele>72.0</ele><time>2026-04-12T15:47:01.999Z</time></trkpt><trkpt lat="42.454789074470106" lon="11.611605217107027"><ele>72.0</ele><time>2026-04-12T15:47:02.999Z</time></trkpt><trkpt lat="42.454876456864525" lon="11.611673594351622"><ele>72.0</ele><time>2026-04-12T15:47:03.999Z</time></trkpt><trkpt lat="42.45497384836067" lon="11.611730374057382"><ele>72.0</ele><time>2026-04-12T15:47:04.999Z</time></trkpt><trkpt lat="42.455066721227794" lon="11.611811901852594"><ele>72.0</ele><time>2026-04-12T15:47:05.999Z</time></trkpt><trkpt lat="42.455164144319674" lon="11.6118769162672"><ele>72.0</ele><time>2026-04-12T15:47:06.999Z</time></trkpt><trkpt lat="42.45526317384806" lon="11.611940785292397"><ele>72.0</ele><time>2026-04-12T15:47:07.999Z</time></trkpt><trkpt lat="42.4553506694688" lon="11.611997215287127"><ele>72.0</ele><time>2026-04-12T15:47:08.999Z</time></trkpt><trkpt lat="42.45543964849702" lon="11.612054602077631"><ele>72.0</ele><time>2026-04-12T15:47:09.999Z</time></trkpt><trkpt lat="42.45553738580248" lon="11.61209832355633"><ele>72.0</ele><time>2026-04-12T15:47:10.999Z</time></trkpt><trkpt lat="42.45562686363988" lon="11.612165373381195"><ele>72.0</ele><time>2026-04-12T15:47:11.999Z</time></trkpt><trkpt lat="42.455719753098165" lon="11.61223494916967"><ele>72.0</ele><time>2026-04-12T15:47:12.999Z</time></trkpt><trkpt lat="42.45582718050502" lon="11.612302478513156"><ele>72.0</ele><time>2026-04-12T15:47:13.999Z</time></trkpt><trkpt lat="42.45591790579293" lon="11.61235534093262"><ele>72.0</ele><time>2026-04-12T15:47:14.999Z</time></trkpt><trkpt lat="42.45601633986991" lon="11.612413736428284"><ele>72.0</ele><time>2026-04-12T15:47:15.999Z</time></trkpt><trkpt lat="42.45612050709844" lon="11.612474055675735"><ele>72.0</ele><time>2026-04-12T15:47:16.999Z</time></trkpt><trkpt lat="42.45622228830635" lon="11.612527767405382"><ele>72.0</ele><time>2026-04-12T15:47:17.999Z</time></trkpt><trkpt lat="42.45633081558791" lon="11.612587546078746"><ele>72.0</ele><time>2026-04-12T15:47:18.999Z</time></trkpt><trkpt lat="42.45643871732605" lon="11.612637146415413"><ele>72.75</ele><time>2026-04-12T15:47:19.999Z</time></trkpt><trkpt lat="42.456552822086174" lon="11.612685063301548"><ele>73.5</ele><time>2026-04-12T15:47:20.999Z</time></trkpt><trkpt lat="42.45666819249405" lon="11.612717495133348"><ele>74.25</ele><time>2026-04-12T15:47:21.999Z</time></trkpt><trkpt lat="42.45678702810722" lon="11.612745281679446"><ele>75.0</ele><time>2026-04-12T15:47:22.999Z</time></trkpt><trkpt lat="42.4569082770429" lon="11.612767240910953"><ele>75.0</ele><time>2026-04-12T15:47:23.999Z</time></trkpt><trkpt lat="42.4570343166166" lon="11.612778358455977"><ele>75.0</ele><time>2026-04-12T15:47:24.999Z</time></trkpt><trkpt lat="42.457156962240056" lon="11.612769391254739"><ele>75.0</ele><time>2026-04-12T15:47:25.999Z</time></trkpt><trkpt lat="42.45727976308433" lon="11.612744054004473"><ele>75.0</ele><time>2026-04-12T15:47:26.999Z</time></trkpt><trkpt lat="42.45740523496943" lon="11.612710921099042"><ele>75.0</ele><time>2026-04-12T15:47:27.999Z</time></trkpt><trkpt lat="42.45752999486778" lon="11.612677440758468"><ele>75.0</ele><time>2026-04-12T15:47:28.999Z</time></trkpt><trkpt lat="42.45765433349738" lon="11.612641998423252"><ele>75.0</ele><time>2026-04-12T15:47:29.998Z</time></trkpt><trkpt lat="42.45776913012629" lon="11.612621034993698"><ele>75.0</ele><time>2026-04-12T15:47:30.998Z</time></trkpt><trkpt lat="42.457884106404386" lon="11.612608918373377"><ele>75.0</ele><time>2026-04-12T15:47:31.998Z</time></trkpt><trkpt lat="42.458002584039264" lon="11.612596662436642"><ele>75.0</ele><time>2026-04-12T15:47:32.998Z</time></trkpt><trkpt lat="42.4581232227245" lon="11.612575712090337"><ele>75.0</ele><time>2026-04-12T15:47:33.998Z</time></trkpt><trkpt lat="42.458243892027326" lon="11.612556628550228"><ele>75.0</ele><time>2026-04-12T15:47:34.998Z</time></trkpt><trkpt lat="42.45836530600198" lon="11.612558404354875"><ele>75.0</ele><time>2026-04-12T15:47:36Z</time></trkpt><trkpt lat="42.458490562249935" lon="11.61254859390259"><ele>75.0</ele><time>2026-04-12T15:47:37Z</time></trkpt><trkpt lat="42.45862425400987" lon="11.612534868933864"><ele>75.0</ele><time>2026-04-12T15:47:38Z</time></trkpt><trkpt lat="42.458754925231716" lon="11.612520940893285"><ele>75.0</ele><time>2026-04-12T15:47:39Z</time></trkpt><trkpt lat="42.45886454527791" lon="11.612513552557575"><ele>75.0</ele><time>2026-04-12T15:47:40Z</time></trkpt><trkpt lat="42.458971647999945" lon="11.612514745199457"><ele>75.0</ele><time>2026-04-12T15:47:41Z</time></trkpt><trkpt lat="42.459035074292885" lon="11.61251861593203"><ele>75.0</ele><time>2026-04-12T15:47:42Z</time></trkpt><trkpt lat="42.45910370403991" lon="11.61251805251161"><ele>75.0</ele><time>2026-04-12T15:47:45Z</time></trkpt><trkpt lat="42.459188994547034" lon="11.612525180875416"><ele>75.0</ele><time>2026-04-12T15:47:47Z</time></trkpt><trkpt lat="42.459299758608864" lon="11.612538074168118"><ele>75.0</ele><time>2026-04-12T15:47:49Z</time></trkpt><trkpt lat="42.459383221970775" lon="11.612562961803553"><ele>75.0</ele><time>2026-04-12T15:47:51Z</time></trkpt><trkpt lat="42.459451302291264" lon="11.612574111744589"><ele>75.0</ele><time>2026-04-12T15:47:53Z</time></trkpt><trkpt lat="42.45952574647085" lon="11.61256630735325"><ele>75.0</ele><time>2026-04-12T15:47:55Z</time></trkpt><trkpt lat="42.45962482682288" lon="11.612558560925073"><ele>75.0</ele><time>2026-04-12T15:47:57Z</time></trkpt><trkpt lat="42.459706018409385" lon="11.612555228166912"><ele>75.0</ele><time>2026-04-12T15:47:58Z</time></trkpt><trkpt lat="42.45980453418044" lon="11.612542751066993"><ele>75.0</ele><time>2026-04-12T15:47:59Z</time></trkpt><trkpt lat="42.45989296456951" lon="11.612546298004743"><ele>75.2</ele><time>2026-04-12T15:48:00Z</time></trkpt><trkpt lat="42.45996259283224" lon="11.612571249926805"><ele>75.4</ele><time>2026-04-12T15:48:01Z</time></trkpt><trkpt lat="42.460029557288955" lon="11.612577617104412"><ele>75.6</ele><time>2026-04-12T15:48:02Z</time></trkpt><trkpt lat="42.46013399773737" lon="11.612587547142974"><ele>75.8</ele><time>2026-04-12T15:48:04Z</time></trkpt><trkpt lat="42.46024793619264" lon="11.612598999890647"><ele>76.0</ele><time>2026-04-12T15:48:06Z</time></trkpt><trkpt lat="42.4603648298864" lon="11.6126230165368"><ele>76.16666666666666</ele><time>2026-04-12T15:48:08Z</time></trkpt><trkpt lat="42.46047751528724" lon="11.612658438396464"><ele>76.33333333333333</ele><time>2026-04-12T15:48:10Z</time></trkpt><trkpt lat="42.460544088455435" lon="11.612681087369163"><ele>76.5</ele><time>2026-04-12T15:48:11Z</time></trkpt><trkpt lat="42.46061126904515" lon="11.612703203206623"><ele>76.66666666666667</ele><time>2026-04-12T15:48:12Z</time></trkpt><trkpt lat="42.46068503898431" lon="11.612703503315656"><ele>76.83333333333334</ele><time>2026-04-12T15:48:13Z</time></trkpt><trkpt lat="42.460750565575104" lon="11.61273059655123"><ele>77.0</ele><time>2026-04-12T15:48:14Z</time></trkpt><trkpt lat="42.46086712028946" lon="11.612759907815338"><ele>77.0</ele><time>2026-04-12T15:48:16Z</time></trkpt><trkpt lat="42.46093508961531" lon="11.612775542075733"><ele>77.0</ele><time>2026-04-12T15:48:17Z</time></trkpt><trkpt lat="42.46100597305865" lon="11.612797266984945"><ele>77.0</ele><time>2026-04-12T15:48:18Z</time></trkpt><trkpt lat="42.46108898662439" lon="11.61280680782011"><ele>77.0</ele><time>2026-04-12T15:48:19Z</time></trkpt><trkpt lat="42.46117985448782" lon="11.612806646474722"><ele>77.0</ele><time>2026-04-12T15:48:20Z</time></trkpt><trkpt lat="42.46126477475977" lon="11.612781622403817"><ele>77.0</ele><time>2026-04-12T15:48:21Z</time></trkpt><trkpt lat="42.461352824016764" lon="11.61279439014084"><ele>77.16666666666667</ele><time>2026-04-12T15:48:22Z</time></trkpt><trkpt lat="42.46143236388477" lon="11.612786640443005"><ele>77.33333333333334</ele><time>2026-04-12T15:48:23Z</time></trkpt><trkpt lat="42.461507105536036" lon="11.612779733985949"><ele>77.5</ele><time>2026-04-12T15:48:24Z</time></trkpt><trkpt lat="42.46157100766048" lon="11.612776492010477"><ele>77.66666666666667</ele><time>2026-04-12T15:48:25Z</time></trkpt><trkpt lat="42.4616688108881" lon="11.612787371420417"><ele>77.83333333333333</ele><time>2026-04-12T15:48:27Z</time></trkpt><trkpt lat="42.46175433093865" lon="11.612812449313717"><ele>78.0</ele><time>2026-04-12T15:48:29Z</time></trkpt><trkpt lat="42.46181829160008" lon="11.612891972640334"><ele>77.4</ele><time>2026-04-12T15:48:31Z</time></trkpt><trkpt lat="42.46189074608867" lon="11.612944734932505"><ele>76.8</ele><time>2026-04-12T15:48:32Z</time></trkpt><trkpt lat="42.46196679409413" lon="11.612978297283238"><ele>76.2</ele><time>2026-04-12T15:48:33Z</time></trkpt><trkpt lat="42.46204876689536" lon="11.612990030797691"><ele>75.6</ele><time>2026-04-12T15:48:34Z</time></trkpt><trkpt lat="42.46212252438425" lon="11.612981161928039"><ele>75.0</ele><time>2026-04-12T15:48:35Z</time></trkpt><trkpt lat="42.46226784050412" lon="11.612965273316535"><ele>75.0</ele><time>2026-04-12T15:48:37Z</time></trkpt><trkpt lat="42.46235998219766" lon="11.61295562720481"><ele>75.0</ele><time>2026-04-12T15:48:38Z</time></trkpt><trkpt lat="42.462446909815085" lon="11.612946991531983"><ele>75.0</ele><time>2026-04-12T15:48:39Z</time></trkpt><trkpt lat="42.46252507412698" lon="11.61294381500517"><ele>75.0</ele><time>2026-04-12T15:48:40Z</time></trkpt><trkpt lat="42.46259819956986" lon="11.612946112542225"><ele>75.0</ele><time>2026-04-12T15:48:40.999Z</time></trkpt><trkpt lat="42.46266829811574" lon="11.612959405113715"><ele>75.0</ele><time>2026-04-12T15:48:41.999Z</time></trkpt><trkpt lat="42.46274412016792" lon="11.612953549563317"><ele>75.0</ele><time>2026-04-12T15:48:42.999Z</time></trkpt><trkpt lat="42.462823256065086" lon="11.61299498901453"><ele>75.0</ele><time>2026-04-12T15:48:43.999Z</time></trkpt><trkpt lat="42.46290069551112" lon="11.61299789154853"><ele>75.0</ele><time>2026-04-12T15:48:44.999Z</time></trkpt><trkpt lat="42.46297724405136" lon="11.613000492004195"><ele>75.0</ele><time>2026-04-12T15:48:45.999Z</time></trkpt><trkpt lat="42.46305422015767" lon="11.613000853443797"><ele>75.0</ele><time>2026-04-12T15:48:46.999Z</time></trkpt><trkpt lat="42.46312657317867" lon="11.61299964986554"><ele>75.0</ele><time>2026-04-12T15:48:47.999Z</time></trkpt><trkpt lat="42.46319217510736" lon="11.612992345711916"><ele>75.33333333333333</ele><time>2026-04-12T15:48:48.999Z</time></trkpt><trkpt lat="42.463282529209685" lon="11.612970866762424"><ele>75.66666666666667</ele><time>2026-04-12T15:48:50.999Z</time></trkpt><trkpt lat="42.46335414580019" lon="11.612936416471873"><ele>76.0</ele><time>2026-04-12T15:48:51.999Z</time></trkpt><trkpt lat="42.463427762637444" lon="11.612901959846061"><ele>76.33333333333334</ele><time>2026-04-12T15:48:52.999Z</time></trkpt><trkpt lat="42.463491296033155" lon="11.612873330754086"><ele>76.66666666666667</ele><time>2026-04-12T15:48:53.999Z</time></trkpt><trkpt lat="42.46360706016871" lon="11.612830153213233"><ele>77.0</ele><time>2026-04-12T15:48:55.999Z</time></trkpt><trkpt lat="42.463717984185976" lon="11.612807742460351"><ele>77.16666666666667</ele><time>2026-04-12T15:48:57.999Z</time></trkpt><trkpt lat="42.4638551449049" lon="11.612809444663553"><ele>77.33333333333334</ele><time>2026-04-12T15:48:59.999Z</time></trkpt><trkpt lat="42.46393020348692" lon="11.612815466208593"><ele>77.5</ele><time>2026-04-12T15:49:00.999Z</time></trkpt><trkpt lat="42.4639962137564" lon="11.612821130289003"><ele>77.66666666666667</ele><time>2026-04-12T15:49:01.999Z</time></trkpt><trkpt lat="42.46407637825183" lon="11.612828008929144"><ele>77.83333333333333</ele><time>2026-04-12T15:49:03.999Z</time></trkpt><trkpt lat="42.46415560510406" lon="11.612834807109977"><ele>78.0</ele><time>2026-04-12T15:49:05.999Z</time></trkpt><trkpt lat="42.464220286912564" lon="11.612834313811245"><ele>77.83333333333333</ele><time>2026-04-12T15:49:06.999Z</time></trkpt><trkpt lat="42.46432792485202" lon="11.612895367807209"><ele>77.66666666666667</ele><time>2026-04-12T15:49:08.999Z</time></trkpt><trkpt lat="42.464418698530146" lon="11.612905107685059"><ele>77.5</ele><time>2026-04-12T15:49:09.999Z</time></trkpt><trkpt lat="42.464499683080724" lon="11.6128872747813"><ele>77.33333333333334</ele><time>2026-04-12T15:49:10.999Z</time></trkpt><trkpt lat="42.464569921786484" lon="11.612851282492128"><ele>77.16666666666667</ele><time>2026-04-12T15:49:11.999Z</time></trkpt><trkpt lat="42.464634143365274" lon="11.612811569782242"><ele>77.0</ele><time>2026-04-12T15:49:12.999Z</time></trkpt><trkpt lat="42.46475457431748" lon="11.612747111488035"><ele>77.0</ele><time>2026-04-12T15:49:14.999Z</time></trkpt><trkpt lat="42.46482272586675" lon="11.612742777605984"><ele>77.0</ele><time>2026-04-12T15:49:15.999Z</time></trkpt><trkpt lat="42.4648960823471" lon="11.61273299338402"><ele>77.0</ele><time>2026-04-12T15:49:16.999Z</time></trkpt><trkpt lat="42.46497880857385" lon="11.612733830904656"><ele>77.0</ele><time>2026-04-12T15:49:17.999Z</time></trkpt><trkpt lat="42.46505748267945" lon="11.612735733217727"><ele>77.0</ele><time>2026-04-12T15:49:18.999Z</time></trkpt><trkpt lat="42.46516821978013" lon="11.612754455096303"><ele>77.0</ele><time>2026-04-12T15:49:20.999Z</time></trkpt><trkpt lat="42.46526591518575" lon="11.612782673811097"><ele>77.0</ele><time>2026-04-12T15:49:22.999Z</time></trkpt><trkpt lat="42.46534165701431" lon="11.612789191771808"><ele>77.0</ele><time>2026-04-12T15:49:23.999Z</time></trkpt><trkpt lat="42.465410046847076" lon="11.612809052868952"><ele>77.0</ele><time>2026-04-12T15:49:24.999Z</time></trkpt><trkpt lat="42.46548966498947" lon="11.612839696609376"><ele>77.0</ele><time>2026-04-12T15:49:25.999Z</time></trkpt><trkpt lat="42.465559817526064" lon="11.61286110636086"><ele>77.0</ele><time>2026-04-12T15:49:26.999Z</time></trkpt><trkpt lat="42.465637316456714" lon="11.612903725138924"><ele>77.0</ele><time>2026-04-12T15:49:27.999Z</time></trkpt><trkpt lat="42.46571448540286" lon="11.612951715082941"><ele>76.5</ele><time>2026-04-12T15:49:28.999Z</time></trkpt><trkpt lat="42.4657955109504" lon="11.612986586282808"><ele>76.0</ele><time>2026-04-12T15:49:29.999Z</time></trkpt><trkpt lat="42.46585809067439" lon="11.613001230986477"><ele>75.5</ele><time>2026-04-12T15:49:30.999Z</time></trkpt><trkpt lat="42.46598922988298" lon="11.613019766107627"><ele>75.0</ele><time>2026-04-12T15:49:32.999Z</time></trkpt><trkpt lat="42.466059576094814" lon="11.613028531717788"><ele>74.5</ele><time>2026-04-12T15:49:33.999Z</time></trkpt><trkpt lat="42.46612996919969" lon="11.613020670777429"><ele>74.0</ele><time>2026-04-12T15:49:34.999Z</time></trkpt><trkpt lat="42.46623136664264" lon="11.613048873311408"><ele>74.60000000000001</ele><time>2026-04-12T15:49:36.999Z</time></trkpt><trkpt lat="42.46633760906483" lon="11.61311450479365"><ele>75.2</ele><time>2026-04-12T15:49:38.999Z</time></trkpt><trkpt lat="42.46642146082994" lon="11.613207354077757"><ele>75.80000000000001</ele><time>2026-04-12T15:49:40.999Z</time></trkpt><trkpt lat="42.46650722991837" lon="11.613266938504644"><ele>76.4</ele><time>2026-04-12T15:49:43Z</time></trkpt><trkpt lat="42.466566071816125" lon="11.613309363767184"><ele>77.0</ele><time>2026-04-12T15:49:45Z</time></trkpt><trkpt lat="42.466643924263394" lon="11.613334616343472"><ele>77.0</ele><time>2026-04-12T15:49:48Z</time></trkpt><trkpt lat="42.466731829033456" lon="11.613301583436149"><ele>77.0</ele><time>2026-04-12T15:49:50Z</time></trkpt><trkpt lat="42.466804339826304" lon="11.613245985272291"><ele>77.0</ele><time>2026-04-12T15:49:51Z</time></trkpt><trkpt lat="42.46686803882952" lon="11.613187513000586"><ele>77.0</ele><time>2026-04-12T15:49:52Z</time></trkpt><trkpt lat="42.46692802699404" lon="11.613125842472968"><ele>77.0</ele><time>2026-04-12T15:49:53Z</time></trkpt><trkpt lat="42.46699015556951" lon="11.6130631819553"><ele>77.0</ele><time>2026-04-12T15:49:54Z</time></trkpt><trkpt lat="42.467059325842456" lon="11.6130047573499"><ele>77.16666666666667</ele><time>2026-04-12T15:49:55Z</time></trkpt><trkpt lat="42.467114683833366" lon="11.61294478148474"><ele>77.33333333333334</ele><time>2026-04-12T15:49:56Z</time></trkpt><trkpt lat="42.46717642405023" lon="11.612874387431479"><ele>77.5</ele><time>2026-04-12T15:49:57Z</time></trkpt><trkpt lat="42.467218042526135" lon="11.612801545568749"><ele>77.66666666666667</ele><time>2026-04-12T15:49:58Z</time></trkpt><trkpt lat="42.46730324015817" lon="11.612697880642253"><ele>77.83333333333333</ele><time>2026-04-12T15:50:00Z</time></trkpt><trkpt lat="42.467363183817355" lon="11.612638921258926"><ele>78.0</ele><time>2026-04-12T15:50:01Z</time></trkpt><trkpt lat="42.467482245800646" lon="11.612614772647252"><ele>79.83333333333333</ele><time>2026-04-12T15:50:03Z</time></trkpt><trkpt lat="42.46755559673421" lon="11.612632834704343"><ele>81.66666666666667</ele><time>2026-04-12T15:50:04Z</time></trkpt><trkpt lat="42.46762561382668" lon="11.612650955368728"><ele>83.5</ele><time>2026-04-12T15:50:05Z</time></trkpt><trkpt lat="42.46769502037656" lon="11.612668912282505"><ele>85.33333333333334</ele><time>2026-04-12T15:50:06Z</time></trkpt><trkpt lat="42.467764729401964" lon="11.612662114214599"><ele>87.16666666666667</ele><time>2026-04-12T15:50:07Z</time></trkpt><trkpt lat="42.46783745705989" lon="11.612645234614083"><ele>89.0</ele><time>2026-04-12T15:50:08Z</time></trkpt><trkpt lat="42.46792881386801" lon="11.61264183104264"><ele>90.33333333333334</ele><time>2026-04-12T15:50:10Z</time></trkpt><trkpt lat="42.46800570355024" lon="11.612636280601084"><ele>91.66666666666667</ele><time>2026-04-12T15:50:11Z</time></trkpt><trkpt lat="42.46808960923211" lon="11.61265593824125"><ele>93.0</ele><time>2026-04-12T15:50:12Z</time></trkpt><trkpt lat="42.4681657084832" lon="11.612653056139923"><ele>94.33333333333334</ele><time>2026-04-12T15:50:13Z</time></trkpt><trkpt lat="42.46823810193543" lon="11.612646148620811"><ele>95.66666666666667</ele><time>2026-04-12T15:50:14Z</time></trkpt><trkpt lat="42.46830870023138" lon="11.612623942542298"><ele>97.0</ele><time>2026-04-12T15:50:15Z</time></trkpt><trkpt lat="42.46841399441886" lon="11.612640572575017"><ele>97.0</ele><time>2026-04-12T15:50:17Z</time></trkpt><trkpt lat="42.46854414815641" lon="11.61265529066919"><ele>97.0</ele><time>2026-04-12T15:50:19Z</time></trkpt><trkpt lat="42.46865142066873" lon="11.612670721987518"><ele>97.0</ele><time>2026-04-12T15:50:21Z</time></trkpt><trkpt lat="42.46874156173598" lon="11.612631275144002"><ele>97.0</ele><time>2026-04-12T15:50:23Z</time></trkpt><trkpt lat="42.46886128388982" lon="11.612567975702936"><ele>97.6</ele><time>2026-04-12T15:50:25Z</time></trkpt><trkpt lat="42.468996185272196" lon="11.612572219190117"><ele>98.19999999999999</ele><time>2026-04-12T15:50:27Z</time></trkpt><trkpt lat="42.46908255006036" lon="11.612569107098427"><ele>98.8</ele><time>2026-04-12T15:50:28Z</time></trkpt><trkpt lat="42.46915477488123" lon="11.612568167271826"><ele>99.4</ele><time>2026-04-12T15:50:29Z</time></trkpt><trkpt lat="42.46923375191084" lon="11.612572903249525"><ele>100.0</ele><time>2026-04-12T15:50:30Z</time></trkpt><trkpt lat="42.469316634108644" lon="11.612564286440005"><ele>100.00000000000001</ele><time>2026-04-12T15:50:31Z</time></trkpt><trkpt lat="42.46938858564727" lon="11.612551348153577"><ele>100.0</ele><time>2026-04-12T15:50:32Z</time></trkpt><trkpt lat="42.469459855846786" lon="11.612528859411375"><ele>100.0</ele><time>2026-04-12T15:50:33Z</time></trkpt><trkpt lat="42.46953983642786" lon="11.612505401972308"><ele>100.0</ele><time>2026-04-12T15:50:34Z</time></trkpt><trkpt lat="42.46961060644924" lon="11.612502437787207"><ele>100.00000000000001</ele><time>2026-04-12T15:50:35Z</time></trkpt><trkpt lat="42.46974075265975" lon="11.612501666580341"><ele>100.0</ele><time>2026-04-12T15:50:37Z</time></trkpt><trkpt lat="42.46983876556548" lon="11.61250372604616"><ele>101.8</ele><time>2026-04-12T15:50:39Z</time></trkpt><trkpt lat="42.46992445062556" lon="11.612515530900662"><ele>103.6</ele><time>2026-04-12T15:50:40Z</time></trkpt><trkpt lat="42.47004820099711" lon="11.612535901488949"><ele>105.4</ele><time>2026-04-12T15:50:42Z</time></trkpt><trkpt lat="42.47013765482612" lon="11.612563387817021"><ele>107.2</ele><time>2026-04-12T15:50:43Z</time></trkpt><trkpt lat="42.47021602286468" lon="11.612564887284883"><ele>109.0</ele><time>2026-04-12T15:50:44Z</time></trkpt><trkpt lat="42.47028854532849" lon="11.612584803026152"><ele>109.0</ele><time>2026-04-12T15:50:45Z</time></trkpt><trkpt lat="42.47039712466348" lon="11.612646748107938"><ele>109.0</ele><time>2026-04-12T15:50:47Z</time></trkpt><trkpt lat="42.47053172403431" lon="11.612667011613313"><ele>109.0</ele><time>2026-04-12T15:50:49Z</time></trkpt><trkpt lat="42.470596840897414" lon="11.612675660727923"><ele>109.0</ele><time>2026-04-12T15:50:50Z</time></trkpt><trkpt lat="42.470660788142595" lon="11.6126780684678"><ele>109.0</ele><time>2026-04-12T15:50:51Z</time></trkpt><trkpt lat="42.47073365480609" lon="11.612668715150017"><ele>110.16666666666667</ele><time>2026-04-12T15:50:52Z</time></trkpt><trkpt lat="42.47081055532031" lon="11.61265155983194"><ele>111.33333333333334</ele><time>2026-04-12T15:50:53Z</time></trkpt><trkpt lat="42.47088008449746" lon="11.612626876216456"><ele>112.5</ele><time>2026-04-12T15:50:54Z</time></trkpt><trkpt lat="42.47100100866924" lon="11.612600700623144"><ele>113.66666666666666</ele><time>2026-04-12T15:50:55.999Z</time></trkpt><trkpt lat="42.47106523018777" lon="11.612611090285323"><ele>114.83333333333333</ele><time>2026-04-12T15:50:56.999Z</time></trkpt><trkpt lat="42.471122884052726" lon="11.612656876449213"><ele>116.0</ele><time>2026-04-12T15:50:57.999Z</time></trkpt><trkpt lat="42.471164585467406" lon="11.612729338280088"><ele>115.99999999999999</ele><time>2026-04-12T15:50:58.999Z</time></trkpt><trkpt lat="42.47120903187444" lon="11.612813261191839"><ele>116.0</ele><time>2026-04-12T15:50:59.999Z</time></trkpt><trkpt lat="42.471262684961744" lon="11.612890156297764"><ele>116.0</ele><time>2026-04-12T15:51:00.999Z</time></trkpt><trkpt lat="42.471320730015044" lon="11.612941648818396"><ele>116.0</ele><time>2026-04-12T15:51:01.999Z</time></trkpt><trkpt lat="42.471388195969716" lon="11.612974110617666"><ele>115.99999999999999</ele><time>2026-04-12T15:51:02.999Z</time></trkpt><trkpt lat="42.47146958560715" lon="11.613015305566458"><ele>116.0</ele><time>2026-04-12T15:51:03.999Z</time></trkpt><trkpt lat="42.471545933760474" lon="11.613043775124266"><ele>116.14285714285717</ele><time>2026-04-12T15:51:04.999Z</time></trkpt><trkpt lat="42.471628918440125" lon="11.613064949665333"><ele>116.28571428571429</ele><time>2026-04-12T15:51:05.999Z</time></trkpt><trkpt lat="42.47169821748596" lon="11.613081840288972"><ele>116.42857142857144</ele><time>2026-04-12T15:51:06.999Z</time></trkpt><trkpt lat="42.47176760050525" lon="11.613072660438792"><ele>116.57142857142858</ele><time>2026-04-12T15:51:07.999Z</time></trkpt><trkpt lat="42.471839186021285" lon="11.613042049012472"><ele>116.71428571428572</ele><time>2026-04-12T15:51:08.999Z</time></trkpt><trkpt lat="42.471899836070115" lon="11.61298917174269"><ele>116.85714285714286</ele><time>2026-04-12T15:51:09.999Z</time></trkpt><trkpt lat="42.47194853909477" lon="11.61292643906658"><ele>117.0</ele><time>2026-04-12T15:51:10.999Z</time></trkpt><trkpt lat="42.472015369710526" lon="11.61285349466826"><ele>118.16666666666667</ele><time>2026-04-12T15:51:11.999Z</time></trkpt><trkpt lat="42.472068850620175" lon="11.612778239557663"><ele>119.33333333333334</ele><time>2026-04-12T15:51:12.999Z</time></trkpt><trkpt lat="42.47213622396518" lon="11.612749176328506"><ele>120.5</ele><time>2026-04-12T15:51:13.999Z</time></trkpt><trkpt lat="42.47221514615144" lon="11.612737628020607"><ele>121.66666666666667</ele><time>2026-04-12T15:51:15.999Z</time></trkpt><trkpt lat="42.47229095950099" lon="11.612728357834287"><ele>122.83333333333334</ele><time>2026-04-12T15:51:17.999Z</time></trkpt><trkpt lat="42.472352443490806" lon="11.612702596856527"><ele>124.0</ele><time>2026-04-12T15:51:18.999Z</time></trkpt><trkpt lat="42.47247240570864" lon="11.612703428191148"><ele>124.57142857142858</ele><time>2026-04-12T15:51:20.999Z</time></trkpt><trkpt lat="42.47254771137044" lon="11.612702311626677"><ele>125.14285714285715</ele><time>2026-04-12T15:51:21.999Z</time></trkpt><trkpt lat="42.472625697681856" lon="11.612700200275174"><ele>125.71428571428572</ele><time>2026-04-12T15:51:22.999Z</time></trkpt><trkpt lat="42.47269213282935" lon="11.612694892760533"><ele>126.28571428571428</ele><time>2026-04-12T15:51:23.999Z</time></trkpt><trkpt lat="42.47275364403506" lon="11.612666456907704"><ele>126.85714285714285</ele><time>2026-04-12T15:51:24.999Z</time></trkpt><trkpt lat="42.47282658511467" lon="11.612667834303153"><ele>127.42857142857142</ele><time>2026-04-12T15:51:25.999Z</time></trkpt><trkpt lat="42.472892565502" lon="11.61263989030818"><ele>128.0</ele><time>2026-04-12T15:51:26.999Z</time></trkpt><trkpt lat="42.4729492794222" lon="11.61259947424114"><ele>127.99999999999999</ele><time>2026-04-12T15:51:27.999Z</time></trkpt><trkpt lat="42.4730183552788" lon="11.61257268332406"><ele>128.0</ele><time>2026-04-12T15:51:28.999Z</time></trkpt><trkpt lat="42.4731442461561" lon="11.61254027274976"><ele>128.0</ele><time>2026-04-12T15:51:30.999Z</time></trkpt><trkpt lat="42.47321515384035" lon="11.61251291749342"><ele>128.0</ele><time>2026-04-12T15:51:31.999Z</time></trkpt><trkpt lat="42.47329062942646" lon="11.612471470012721"><ele>127.99999999999999</ele><time>2026-04-12T15:51:32.999Z</time></trkpt><trkpt lat="42.473357351757286" lon="11.612439720035045"><ele>128.0</ele><time>2026-04-12T15:51:33.999Z</time></trkpt><trkpt lat="42.473424778511614" lon="11.612434438582902"><ele>127.99999999999999</ele><time>2026-04-12T15:51:34.999Z</time></trkpt><trkpt lat="42.473484546425425" lon="11.612389722613875"><ele>128.0</ele><time>2026-04-12T15:51:35.999Z</time></trkpt><trkpt lat="42.473556561824005" lon="11.61237123014654"><ele>128.0</ele><time>2026-04-12T15:51:36.999Z</time></trkpt><trkpt lat="42.473636160543926" lon="11.612337402369015"><ele>128.0</ele><time>2026-04-12T15:51:37.999Z</time></trkpt><trkpt lat="42.47370853517869" lon="11.612313060631065"><ele>127.99999999999999</ele><time>2026-04-12T15:51:38.999Z</time></trkpt><trkpt lat="42.473812763145084" lon="11.61228188243674"><ele>128.0</ele><time>2026-04-12T15:51:40.999Z</time></trkpt><trkpt lat="42.4738723554836" lon="11.61225199587729"><ele>127.66666666666666</ele><time>2026-04-12T15:51:42.999Z</time></trkpt><trkpt lat="42.47395319301726" lon="11.612211244988064"><ele>127.33333333333333</ele><time>2026-04-12T15:51:44.999Z</time></trkpt><trkpt lat="42.47403361604517" lon="11.61217061521878"><ele>127.0</ele><time>2026-04-12T15:51:47Z</time></trkpt><trkpt lat="42.474114608487014" lon="11.61213052112517"><ele>126.66666666666666</ele><time>2026-04-12T15:51:49Z</time></trkpt><trkpt lat="42.47420527804125" lon="11.612089108757703"><ele>126.33333333333333</ele><time>2026-04-12T15:51:51Z</time></trkpt><trkpt lat="42.47429535719391" lon="11.612050204786582"><ele>126.0</ele><time>2026-04-12T15:51:53Z</time></trkpt><trkpt lat="42.47438913261244" lon="11.612010242374865"><ele>127.0</ele><time>2026-04-12T15:51:55Z</time></trkpt><trkpt lat="42.47447955943239" lon="11.611972236090581"><ele>128.0</ele><time>2026-04-12T15:51:57Z</time></trkpt><trkpt lat="42.4745680099563" lon="11.611935060428765"><ele>129.0</ele><time>2026-04-12T15:51:59Z</time></trkpt><trkpt lat="42.474659612441236" lon="11.61189656001319"><ele>130.0</ele><time>2026-04-12T15:52:01Z</time></trkpt><trkpt lat="42.47474767473125" lon="11.611859547524405"><ele>131.0</ele><time>2026-04-12T15:52:03Z</time></trkpt><trkpt lat="42.47483410584141" lon="11.611806990529342"><ele>131.0</ele><time>2026-04-12T15:52:05Z</time></trkpt><trkpt lat="42.47491937004339" lon="11.61176936584951"><ele>131.0</ele><time>2026-04-12T15:52:07Z</time></trkpt><trkpt lat="42.47500431340046" lon="11.61173476736926"><ele>131.0</ele><time>2026-04-12T15:52:09Z</time></trkpt><trkpt lat="42.475090878534196" lon="11.6116878755775"><ele>131.0</ele><time>2026-04-12T15:52:11Z</time></trkpt><trkpt lat="42.47517483886081" lon="11.611647903611832"><ele>131.0</ele><time>2026-04-12T15:52:13Z</time></trkpt><trkpt lat="42.475261068173744" lon="11.611603679596731"><ele>131.0</ele><time>2026-04-12T15:52:15Z</time></trkpt><trkpt lat="42.475354669743815" lon="11.611574149128545"><ele>131.0</ele><time>2026-04-12T15:52:17Z</time></trkpt><trkpt lat="42.47543111338111" lon="11.61153757384442"><ele>131.0</ele><time>2026-04-12T15:52:19Z</time></trkpt><trkpt lat="42.47552045732399" lon="11.611509815406395"><ele>131.0</ele><time>2026-04-12T15:52:21Z</time></trkpt><trkpt lat="42.47561091259564" lon="11.611479592971351"><ele>131.0</ele><time>2026-04-12T15:52:23Z</time></trkpt><trkpt lat="42.475690610452766" lon="11.611459737264592"><ele>131.0</ele><time>2026-04-12T15:52:25Z</time></trkpt><trkpt lat="42.47576183955468" lon="11.611455185034522"><ele>131.2</ele><time>2026-04-12T15:52:27Z</time></trkpt><trkpt lat="42.47584254264839" lon="11.611434499580975"><ele>131.39999999999998</ele><time>2026-04-12T15:52:29Z</time></trkpt><trkpt lat="42.47593880835534" lon="11.611411631415152"><ele>131.6</ele><time>2026-04-12T15:52:31Z</time></trkpt><trkpt lat="42.476039913578816" lon="11.611390177236245"><ele>131.79999999999998</ele><time>2026-04-12T15:52:33Z</time></trkpt><trkpt lat="42.4761341635628" lon="11.61137467675755"><ele>132.0</ele><time>2026-04-12T15:52:35Z</time></trkpt><trkpt lat="42.47623211638278" lon="11.611363855592218"><ele>132.0</ele><time>2026-04-12T15:52:37Z</time></trkpt><trkpt lat="42.476336961899136" lon="11.611355211514615"><ele>132.0</ele><time>2026-04-12T15:52:39Z</time></trkpt><trkpt lat="42.47643449059494" lon="11.611347965494888"><ele>132.0</ele><time>2026-04-12T15:52:41Z</time></trkpt><trkpt lat="42.47654093972823" lon="11.611341566870038"><ele>132.0</ele><time>2026-04-12T15:52:43Z</time></trkpt><trkpt lat="42.47665203174961" lon="11.611334179066525"><ele>132.0</ele><time>2026-04-12T15:52:45Z</time></trkpt><trkpt lat="42.47671848517811" lon="11.611324232233489"><ele>132.0</ele><time>2026-04-12T15:52:46Z</time></trkpt><trkpt lat="42.47678185705571" lon="11.611302545589307"><ele>132.0</ele><time>2026-04-12T15:52:47Z</time></trkpt><trkpt lat="42.476893590160266" lon="11.611269976289428"><ele>132.0</ele><time>2026-04-12T15:52:49Z</time></trkpt><trkpt lat="42.47695671604165" lon="11.611256815768813"><ele>132.0</ele><time>2026-04-12T15:52:50Z</time></trkpt><trkpt lat="42.47707540164194" lon="11.611235301240285"><ele>132.0</ele><time>2026-04-12T15:52:52Z</time></trkpt><trkpt lat="42.47715311314128" lon="11.61122347055732"><ele>132.0</ele><time>2026-04-12T15:52:53Z</time></trkpt><trkpt lat="42.47721855757401" lon="11.611215134998378"><ele>132.0</ele><time>2026-04-12T15:52:54Z</time></trkpt><trkpt lat="42.47729522933171" lon="11.611210174323695"><ele>132.0</ele><time>2026-04-12T15:52:55Z</time></trkpt><trkpt lat="42.47737852157249" lon="11.61120472656194"><ele>132.0</ele><time>2026-04-12T15:52:56Z</time></trkpt><trkpt lat="42.47746523050949" lon="11.611197077021162"><ele>132.0</ele><time>2026-04-12T15:52:57Z</time></trkpt><trkpt lat="42.47754976628378" lon="11.611188882002102"><ele>132.0</ele><time>2026-04-12T15:52:58Z</time></trkpt><trkpt lat="42.47763220761129" lon="11.611158190494285"><ele>132.0</ele><time>2026-04-12T15:52:58.999Z</time></trkpt><trkpt lat="42.47770962554161" lon="11.611151477161135"><ele>132.0</ele><time>2026-04-12T15:52:59.999Z</time></trkpt><trkpt lat="42.47779726757152" lon="11.611161678965265"><ele>132.0</ele><time>2026-04-12T15:53:00.999Z</time></trkpt><trkpt lat="42.477870531777285" lon="11.611153409981045"><ele>132.0</ele><time>2026-04-12T15:53:01.999Z</time></trkpt><trkpt lat="42.477935899336856" lon="11.611144130438243"><ele>132.0</ele><time>2026-04-12T15:53:02.999Z</time></trkpt><trkpt lat="42.47801316910269" lon="11.611130739246788"><ele>132.0</ele><time>2026-04-12T15:53:03.999Z</time></trkpt><trkpt lat="42.478077551759505" lon="11.611116037692986"><ele>132.0</ele><time>2026-04-12T15:53:04.999Z</time></trkpt><trkpt lat="42.47814596015941" lon="11.61110029735933"><ele>132.0</ele><time>2026-04-12T15:53:05.999Z</time></trkpt><trkpt lat="42.47821722392673" lon="11.611090586111233"><ele>133.16666666666666</ele><time>2026-04-12T15:53:06.999Z</time></trkpt><trkpt lat="42.47829311133567" lon="11.611070510334635"><ele>134.33333333333334</ele><time>2026-04-12T15:53:07.999Z</time></trkpt><trkpt lat="42.47836455107616" lon="11.611080825364935"><ele>135.5</ele><time>2026-04-12T15:53:08.999Z</time></trkpt><trkpt lat="42.47844432644828" lon="11.61109956136838"><ele>136.66666666666669</ele><time>2026-04-12T15:53:09.999Z</time></trkpt><trkpt lat="42.478571250033795" lon="11.611116516040134"><ele>137.83333333333334</ele><time>2026-04-12T15:53:11.999Z</time></trkpt><trkpt lat="42.47864003148605" lon="11.611116507869504"><ele>139.0</ele><time>2026-04-12T15:53:12.999Z</time></trkpt><trkpt lat="42.47871108019185" lon="11.611109605805938"><ele>139.0</ele><time>2026-04-12T15:53:13.999Z</time></trkpt><trkpt lat="42.47878140952932" lon="11.611100009655075"><ele>139.0</ele><time>2026-04-12T15:53:14.999Z</time></trkpt><trkpt lat="42.47886656780438" lon="11.611126935748164"><ele>139.0</ele><time>2026-04-12T15:53:15.999Z</time></trkpt><trkpt lat="42.478959943617625" lon="11.61111870605001"><ele>139.0</ele><time>2026-04-12T15:53:16.999Z</time></trkpt><trkpt lat="42.47904848093668" lon="11.611145621722985"><ele>139.0</ele><time>2026-04-12T15:53:17.999Z</time></trkpt><trkpt lat="42.479136909088155" lon="11.611183301456622"><ele>139.0</ele><time>2026-04-12T15:53:18.999Z</time></trkpt><trkpt lat="42.47922345984482" lon="11.611213135540888"><ele>137.5</ele><time>2026-04-12T15:53:19.999Z</time></trkpt><trkpt lat="42.4793166046374" lon="11.611245170454112"><ele>136.0</ele><time>2026-04-12T15:53:20.999Z</time></trkpt><trkpt lat="42.47940045273497" lon="11.611280726404306"><ele>134.5</ele><time>2026-04-12T15:53:21.999Z</time></trkpt><trkpt lat="42.47948060477994" lon="11.611293936500413"><ele>133.0</ele><time>2026-04-12T15:53:22.999Z</time></trkpt><trkpt lat="42.47957245373974" lon="11.611300103028482"><ele>131.5</ele><time>2026-04-12T15:53:23.999Z</time></trkpt><trkpt lat="42.47965819915313" lon="11.611308515999484"><ele>130.0</ele><time>2026-04-12T15:53:24.999Z</time></trkpt><trkpt lat="42.47974404011392" lon="11.611314819539233"><ele>129.5</ele><time>2026-04-12T15:53:25.999Z</time></trkpt><trkpt lat="42.47983057812761" lon="11.611309133755999"><ele>129.0</ele><time>2026-04-12T15:53:26.999Z</time></trkpt><trkpt lat="42.47990589065298" lon="11.61129030459893"><ele>128.5</ele><time>2026-04-12T15:53:27.999Z</time></trkpt><trkpt lat="42.479975548366376" lon="11.611260962958086"><ele>128.0</ele><time>2026-04-12T15:53:28.999Z</time></trkpt><trkpt lat="42.48004576474704" lon="11.611252510117811"><ele>127.50000000000001</ele><time>2026-04-12T15:53:29.999Z</time></trkpt><trkpt lat="42.48016704893442" lon="11.611196988948262"><ele>127.0</ele><time>2026-04-12T15:53:31.999Z</time></trkpt><trkpt lat="42.48023456009633" lon="11.611157014550688"><ele>128.16666666666669</ele><time>2026-04-12T15:53:32.999Z</time></trkpt><trkpt lat="42.48030016674637" lon="11.611128282309956"><ele>129.33333333333334</ele><time>2026-04-12T15:53:33.999Z</time></trkpt><trkpt lat="42.48037264158411" lon="11.611096542161334"><ele>130.5</ele><time>2026-04-12T15:53:34.999Z</time></trkpt><trkpt lat="42.48045099757409" lon="11.611062228006176"><ele>131.66666666666666</ele><time>2026-04-12T15:53:35.999Z</time></trkpt><trkpt lat="42.48052082366762" lon="11.611010819752586"><ele>132.83333333333331</ele><time>2026-04-12T15:53:36.999Z</time></trkpt><trkpt lat="42.48060757909034" lon="11.610996618284473"><ele>134.0</ele><time>2026-04-12T15:53:37.999Z</time></trkpt><trkpt lat="42.48069324610612" lon="11.610962230827507"><ele>134.0</ele><time>2026-04-12T15:53:38.999Z</time></trkpt><trkpt lat="42.48076951927349" lon="11.610922358273603"><ele>134.0</ele><time>2026-04-12T15:53:39.999Z</time></trkpt><trkpt lat="42.480848168187606" lon="11.610880133791051"><ele>134.0</ele><time>2026-04-12T15:53:40.999Z</time></trkpt><trkpt lat="42.48093262011408" lon="11.61086671906221"><ele>134.0</ele><time>2026-04-12T15:53:41.999Z</time></trkpt><trkpt lat="42.480991244604375" lon="11.610825500949494"><ele>134.0</ele><time>2026-04-12T15:53:42.999Z</time></trkpt><trkpt lat="42.48112731644629" lon="11.610851640904553"><ele>134.0</ele><time>2026-04-12T15:53:44.999Z</time></trkpt><trkpt lat="42.48120192167646" lon="11.610844901810408"><ele>134.0</ele><time>2026-04-12T15:53:45.999Z</time></trkpt><trkpt lat="42.481274519033214" lon="11.610867015108923"><ele>134.0</ele><time>2026-04-12T15:53:46.999Z</time></trkpt><trkpt lat="42.48135325436033" lon="11.61088524718282"><ele>134.0</ele><time>2026-04-12T15:53:47.999Z</time></trkpt><trkpt lat="42.48144649486745" lon="11.61090082060402"><ele>134.0</ele><time>2026-04-12T15:53:48.999Z</time></trkpt><trkpt lat="42.48151803453826" lon="11.610930638323032"><ele>134.0</ele><time>2026-04-12T15:53:49.999Z</time></trkpt><trkpt lat="42.48158584088416" lon="11.610946936194706"><ele>134.0</ele><time>2026-04-12T15:53:50.999Z</time></trkpt><trkpt lat="42.48169741862833" lon="11.610958136991616"><ele>134.0</ele><time>2026-04-12T15:53:53Z</time></trkpt><trkpt lat="42.48178260700327" lon="11.610972391282932"><ele>134.0</ele><time>2026-04-12T15:53:55Z</time></trkpt><trkpt lat="42.48184481780598" lon="11.611009686971581"><ele>134.0</ele><time>2026-04-12T15:53:59Z</time></trkpt><trkpt lat="42.48191674119805" lon="11.611008303525901"><ele>134.0</ele><time>2026-04-12T15:54:04Z</time></trkpt><trkpt lat="42.48198627632005" lon="11.61101800639267"><ele>134.0</ele><time>2026-04-12T15:54:08Z</time></trkpt><trkpt lat="42.482077288337265" lon="11.611036783107766"><ele>133.42857142857144</ele><time>2026-04-12T15:54:12Z</time></trkpt><trkpt lat="42.48214348433906" lon="11.611041246683277"><ele>132.85714285714286</ele><time>2026-04-12T15:54:14Z</time></trkpt><trkpt lat="42.482206802885926" lon="11.6110644967102"><ele>132.28571428571428</ele><time>2026-04-12T15:54:16Z</time></trkpt><trkpt lat="42.4822698737346" lon="11.611066399022594"><ele>131.71428571428572</ele><time>2026-04-12T15:54:18Z</time></trkpt><trkpt lat="42.48233555825176" lon="11.611063742142905"><ele>131.14285714285714</ele><time>2026-04-12T15:54:20Z</time></trkpt><trkpt lat="42.482402274183364" lon="11.611050037463366"><ele>130.57142857142858</ele><time>2026-04-12T15:54:22Z</time></trkpt><trkpt lat="42.4824773291834" lon="11.611028304114754"><ele>130.0</ele><time>2026-04-12T15:54:24Z</time></trkpt><trkpt lat="42.482547407815424" lon="11.610981381125045"><ele>130.0</ele><time>2026-04-12T15:54:26Z</time></trkpt><trkpt lat="42.48262371230893" lon="11.610962211848335"><ele>130.0</ele><time>2026-04-12T15:54:28Z</time></trkpt><trkpt lat="42.482706840897485" lon="11.610949278963384"><ele>130.0</ele><time>2026-04-12T15:54:30Z</time></trkpt><trkpt lat="42.4827940072101" lon="11.610920908798523"><ele>130.0</ele><time>2026-04-12T15:54:32Z</time></trkpt><trkpt lat="42.48287444023796" lon="11.610896344458054"><ele>130.0</ele><time>2026-04-12T15:54:34Z</time></trkpt><trkpt lat="42.482952630100456" lon="11.610855324511816"><ele>130.0</ele><time>2026-04-12T15:54:36Z</time></trkpt><trkpt lat="42.483041936520685" lon="11.610833399359022"><ele>130.0</ele><time>2026-04-12T15:54:38Z</time></trkpt><trkpt lat="42.4831295644158" lon="11.610813518443718"><ele>130.0</ele><time>2026-04-12T15:54:40Z</time></trkpt><trkpt lat="42.483224146450745" lon="11.610813385920656"><ele>130.0</ele><time>2026-04-12T15:54:42Z</time></trkpt><trkpt lat="42.483305041280616" lon="11.610791789381619"><ele>130.0</ele><time>2026-04-12T15:54:44Z</time></trkpt><trkpt lat="42.483397250976324" lon="11.610806759455654"><ele>130.0</ele><time>2026-04-12T15:54:46Z</time></trkpt><trkpt lat="42.48347922279487" lon="11.610883594730886"><ele>130.0</ele><time>2026-04-12T15:54:48Z</time></trkpt><trkpt lat="42.48356820036517" lon="11.610929408640086"><ele>130.0</ele><time>2026-04-12T15:54:50Z</time></trkpt><trkpt lat="42.48365047170011" lon="11.610960257690056"><ele>130.0</ele><time>2026-04-12T15:54:52Z</time></trkpt><trkpt lat="42.48373203192677" lon="11.61098220820067"><ele>130.0</ele><time>2026-04-12T15:54:54Z</time></trkpt><trkpt lat="42.48381050264321" lon="11.610992045402009"><ele>130.0</ele><time>2026-04-12T15:54:56Z</time></trkpt><trkpt lat="42.48388063483227" lon="11.610973282126825"><ele>130.0</ele><time>2026-04-12T15:54:58Z</time></trkpt><trkpt lat="42.48396219063658" lon="11.610975651168046"><ele>130.2</ele><time>2026-04-12T15:55:00Z</time></trkpt><trkpt lat="42.48405774174226" lon="11.61097695506581"><ele>130.4</ele><time>2026-04-12T15:55:02Z</time></trkpt><trkpt lat="42.484156644542956" lon="11.610971848280995"><ele>130.6</ele><time>2026-04-12T15:55:04Z</time></trkpt><trkpt lat="42.48425015674536" lon="11.610966680396132"><ele>130.8</ele><time>2026-04-12T15:55:06Z</time></trkpt><trkpt lat="42.484344448900444" lon="11.610973229981727"><ele>131.0</ele><time>2026-04-12T15:55:08Z</time></trkpt><trkpt lat="42.484436525953164" lon="11.610960932660396"><ele>131.0</ele><time>2026-04-12T15:55:09.999Z</time></trkpt><trkpt lat="42.4845273829751" lon="11.61095387934165"><ele>131.0</ele><time>2026-04-12T15:55:11.999Z</time></trkpt><trkpt lat="42.48461033991745" lon="11.610947898629504"><ele>131.0</ele><time>2026-04-12T15:55:13.999Z</time></trkpt><trkpt lat="42.48471052855443" lon="11.610951254728633"><ele>131.0</ele><time>2026-04-12T15:55:15.999Z</time></trkpt><trkpt lat="42.48482157175807" lon="11.610928266314813"><ele>131.0</ele><time>2026-04-12T15:55:17.999Z</time></trkpt><trkpt lat="42.4849319457975" lon="11.610926113586418"><ele>131.16666666666666</ele><time>2026-04-12T15:55:19.999Z</time></trkpt><trkpt lat="42.48505236186813" lon="11.610906121741916"><ele>131.33333333333331</ele><time>2026-04-12T15:55:21.999Z</time></trkpt><trkpt lat="42.48513304461533" lon="11.61094250930452"><ele>131.5</ele><time>2026-04-12T15:55:23.999Z</time></trkpt><trkpt lat="42.485176242480854" lon="11.611021886858426"><ele>131.66666666666666</ele><time>2026-04-12T15:55:24.999Z</time></trkpt><trkpt lat="42.485199287136446" lon="11.611118939758262"><ele>131.83333333333334</ele><time>2026-04-12T15:55:25.999Z</time></trkpt><trkpt lat="42.48525145108476" lon="11.611191399488352"><ele>132.0</ele><time>2026-04-12T15:55:26.999Z</time></trkpt><trkpt lat="42.485308176504034" lon="11.611282885769086"><ele>131.5</ele><time>2026-04-12T15:55:27.999Z</time></trkpt><trkpt lat="42.48535588533419" lon="11.611376666687944"><ele>131.0</ele><time>2026-04-12T15:55:28.999Z</time></trkpt><trkpt lat="42.48541229932483" lon="11.611458502097323"><ele>130.5</ele><time>2026-04-12T15:55:29.999Z</time></trkpt><trkpt lat="42.485468392520616" lon="11.611539173842882"><ele>130.0</ele><time>2026-04-12T15:55:30.999Z</time></trkpt><trkpt lat="42.4855318330666" lon="11.611603647000598"><ele>129.5</ele><time>2026-04-12T15:55:31.999Z</time></trkpt><trkpt lat="42.48558096140512" lon="11.611686815152511"><ele>129.0</ele><time>2026-04-12T15:55:32.999Z</time></trkpt><trkpt lat="42.485630776802026" lon="11.611759742887866"><ele>129.0</ele><time>2026-04-12T15:55:33.999Z</time></trkpt><trkpt lat="42.48568502266668" lon="11.611842683356903"><ele>129.0</ele><time>2026-04-12T15:55:34.999Z</time></trkpt><trkpt lat="42.48573873643542" lon="11.61192148091972"><ele>129.0</ele><time>2026-04-12T15:55:35.999Z</time></trkpt><trkpt lat="42.485799311464" lon="11.612013754968768"><ele>129.0</ele><time>2026-04-12T15:55:36.999Z</time></trkpt><trkpt lat="42.48585540965851" lon="11.612089113217978"><ele>129.0</ele><time>2026-04-12T15:55:37.999Z</time></trkpt><trkpt lat="42.48592092397058" lon="11.61216831039014"><ele>129.0</ele><time>2026-04-12T15:55:38.999Z</time></trkpt><trkpt lat="42.48597059772571" lon="11.612241809901674"><ele>128.7142857142857</ele><time>2026-04-12T15:55:39.999Z</time></trkpt><trkpt lat="42.48601662246217" lon="11.612308920045496"><ele>128.42857142857142</ele><time>2026-04-12T15:55:40.999Z</time></trkpt><trkpt lat="42.486066946457406" lon="11.612375417243971"><ele>128.14285714285714</ele><time>2026-04-12T15:55:41.999Z</time></trkpt><trkpt lat="42.48611615823388" lon="11.612443798382516"><ele>127.85714285714285</ele><time>2026-04-12T15:55:42.999Z</time></trkpt><trkpt lat="42.48616701244092" lon="11.61249988640055"><ele>127.57142857142856</ele><time>2026-04-12T15:55:43.999Z</time></trkpt><trkpt lat="42.48623014997325" lon="11.612547694313253"><ele>127.28571428571429</ele><time>2026-04-12T15:55:44.999Z</time></trkpt><trkpt lat="42.48629782593048" lon="11.612580225089344"><ele>127.0</ele><time>2026-04-12T15:55:45.999Z</time></trkpt><trkpt lat="42.48636531704416" lon="11.612613831435725"><ele>127.00000000000001</ele><time>2026-04-12T15:55:46.999Z</time></trkpt><trkpt lat="42.48643669959196" lon="11.612653767151766"><ele>127.0</ele><time>2026-04-12T15:55:47.999Z</time></trkpt><trkpt lat="42.48651593835099" lon="11.612691933226374"><ele>127.0</ele><time>2026-04-12T15:55:48.999Z</time></trkpt><trkpt lat="42.486579519128064" lon="11.612731571966755"><ele>127.0</ele><time>2026-04-12T15:55:49.999Z</time></trkpt><trkpt lat="42.486633649447135" lon="11.612791920097722"><ele>127.00000000000001</ele><time>2026-04-12T15:55:50.999Z</time></trkpt><trkpt lat="42.48667114821101" lon="11.61286189665213"><ele>127.0</ele><time>2026-04-12T15:55:51.999Z</time></trkpt><trkpt lat="42.48672670263303" lon="11.612964884957432"><ele>125.0</ele><time>2026-04-12T15:55:52.999Z</time></trkpt><trkpt lat="42.48676038035119" lon="11.61306553138282"><ele>122.99999999999999</ele><time>2026-04-12T15:55:53.999Z</time></trkpt><trkpt lat="42.486800245012304" lon="11.613178435036124"><ele>120.99999999999999</ele><time>2026-04-12T15:55:54.999Z</time></trkpt><trkpt lat="42.48683810117409" lon="11.613304823870479"><ele>119.0</ele><time>2026-04-12T15:55:55.999Z</time></trkpt><trkpt lat="42.48687775636943" lon="11.613425424237807"><ele>117.0</ele><time>2026-04-12T15:55:56.999Z</time></trkpt><trkpt lat="42.486923764777245" lon="11.613537167831213"><ele>117.0</ele><time>2026-04-12T15:55:57.999Z</time></trkpt><trkpt lat="42.48696900935252" lon="11.613634814854905"><ele>117.0</ele><time>2026-04-12T15:55:59Z</time></trkpt><trkpt lat="42.48702410612711" lon="11.613715470640905"><ele>117.0</ele><time>2026-04-12T15:56:00Z</time></trkpt><trkpt lat="42.48708299132367" lon="11.613791734290327"><ele>117.0</ele><time>2026-04-12T15:56:01Z</time></trkpt><trkpt lat="42.487158281896896" lon="11.613854901919037"><ele>117.0</ele><time>2026-04-12T15:56:02Z</time></trkpt><trkpt lat="42.48724211619687" lon="11.613912700647832"><ele>117.0</ele><time>2026-04-12T15:56:03Z</time></trkpt><trkpt lat="42.487329039092316" lon="11.61396360260134"><ele>116.8</ele><time>2026-04-12T15:56:04Z</time></trkpt><trkpt lat="42.487378858970686" lon="11.614038015376504"><ele>116.6</ele><time>2026-04-12T15:56:05Z</time></trkpt><trkpt lat="42.48741332474388" lon="11.614146342551688"><ele>116.39999999999999</ele><time>2026-04-12T15:56:06Z</time></trkpt><trkpt lat="42.48745610248693" lon="11.614263614912916"><ele>116.19999999999999</ele><time>2026-04-12T15:56:07Z</time></trkpt><trkpt lat="42.48749267985751" lon="11.61437942512579"><ele>116.0</ele><time>2026-04-12T15:56:08Z</time></trkpt><trkpt lat="42.48754456029318" lon="11.614495284312131"><ele>114.6</ele><time>2026-04-12T15:56:09Z</time></trkpt><trkpt lat="42.48761027255717" lon="11.61460157880089"><ele>113.19999999999999</ele><time>2026-04-12T15:56:10Z</time></trkpt><trkpt lat="42.48769182127349" lon="11.614697514156756"><ele>111.80000000000001</ele><time>2026-04-12T15:56:11Z</time></trkpt><trkpt lat="42.48777756464437" lon="11.614774766668978"><ele>110.4</ele><time>2026-04-12T15:56:12Z</time></trkpt><trkpt lat="42.487850834669224" lon="11.61484604237487"><ele>109.0</ele><time>2026-04-12T15:56:13Z</time></trkpt><trkpt lat="42.487910304317865" lon="11.614892567342508"><ele>109.50000000000001</ele><time>2026-04-12T15:56:14Z</time></trkpt><trkpt lat="42.4879899553842" lon="11.614944062684465"><ele>110.0</ele><time>2026-04-12T15:56:15Z</time></trkpt><trkpt lat="42.48807521186236" lon="11.61497881603089"><ele>110.5</ele><time>2026-04-12T15:56:16Z</time></trkpt><trkpt lat="42.48815858073103" lon="11.614998559611196"><ele>111.0</ele><time>2026-04-12T15:56:17Z</time></trkpt><trkpt lat="42.4882300125472" lon="11.614998837813387"><ele>111.50000000000001</ele><time>2026-04-12T15:56:18Z</time></trkpt><trkpt lat="42.48829551733039" lon="11.614988340868704"><ele>112.0</ele><time>2026-04-12T15:56:19Z</time></trkpt><trkpt lat="42.48836731584433" lon="11.61496328610753"><ele>112.00000000000001</ele><time>2026-04-12T15:56:20Z</time></trkpt><trkpt lat="42.48843872562649" lon="11.614909694292384"><ele>112.0</ele><time>2026-04-12T15:56:21Z</time></trkpt><trkpt lat="42.488519563193975" lon="11.614861848872886"><ele>112.0</ele><time>2026-04-12T15:56:22Z</time></trkpt><trkpt lat="42.48859322429302" lon="11.614786635396369"><ele>112.0</ele><time>2026-04-12T15:56:23Z</time></trkpt><trkpt lat="42.48865646463543" lon="11.61472558017976"><ele>112.00000000000001</ele><time>2026-04-12T15:56:24Z</time></trkpt><trkpt lat="42.48872270414163" lon="11.614663606537052"><ele>112.0</ele><time>2026-04-12T15:56:25Z</time></trkpt><trkpt lat="42.488796172887426" lon="11.614602869003658"><ele>112.16666666666667</ele><time>2026-04-12T15:56:26Z</time></trkpt><trkpt lat="42.48887214695528" lon="11.614551501385437"><ele>112.33333333333334</ele><time>2026-04-12T15:56:27Z</time></trkpt><trkpt lat="42.488938007295886" lon="11.614507816115392"><ele>112.5</ele><time>2026-04-12T15:56:28Z</time></trkpt><trkpt lat="42.48900767161613" lon="11.614444356387386"><ele>112.66666666666666</ele><time>2026-04-12T15:56:29Z</time></trkpt><trkpt lat="42.48909432054891" lon="11.614392981602728"><ele>112.83333333333333</ele><time>2026-04-12T15:56:30Z</time></trkpt><trkpt lat="42.48917948284784" lon="11.61434195282045"><ele>113.0</ele><time>2026-04-12T15:56:31Z</time></trkpt><trkpt lat="42.48928688385361" lon="11.614287761387805"><ele>112.99999999999999</ele><time>2026-04-12T15:56:32Z</time></trkpt><trkpt lat="42.489390894770665" lon="11.614233247605375"><ele>113.0</ele><time>2026-04-12T15:56:33Z</time></trkpt><trkpt lat="42.48947829413531" lon="11.61418606772658"><ele>113.0</ele><time>2026-04-12T15:56:34Z</time></trkpt><trkpt lat="42.48956019104154" lon="11.614145827809848"><ele>113.0</ele><time>2026-04-12T15:56:35Z</time></trkpt><trkpt lat="42.489622959374515" lon="11.614107630068254"><ele>112.99999999999999</ele><time>2026-04-12T15:56:36Z</time></trkpt><trkpt lat="42.48968298749471" lon="11.61404144540812"><ele>113.0</ele><time>2026-04-12T15:56:37Z</time></trkpt><trkpt lat="42.48973495805191" lon="11.613978913841734"><ele>112.66666666666666</ele><time>2026-04-12T15:56:38Z</time></trkpt><trkpt lat="42.489803635313045" lon="11.613891909551848"><ele>112.33333333333333</ele><time>2026-04-12T15:56:39Z</time></trkpt><trkpt lat="42.489861545076224" lon="11.613805584421833"><ele>112.0</ele><time>2026-04-12T15:56:40Z</time></trkpt><trkpt lat="42.48990848261711" lon="11.613713572018165"><ele>111.66666666666666</ele><time>2026-04-12T15:56:41Z</time></trkpt><trkpt lat="42.489955289180955" lon="11.613634792965088"><ele>111.33333333333333</ele><time>2026-04-12T15:56:42Z</time></trkpt><trkpt lat="42.49003912156815" lon="11.613534505480857"><ele>111.0</ele><time>2026-04-12T15:56:44Z</time></trkpt><trkpt lat="42.49013796938945" lon="11.61346052605284"><ele>112.5</ele><time>2026-04-12T15:56:46Z</time></trkpt><trkpt lat="42.490210946110984" lon="11.613446729269265"><ele>114.0</ele><time>2026-04-12T15:56:47Z</time></trkpt><trkpt lat="42.49028292477419" lon="11.613434914651538"><ele>115.5</ele><time>2026-04-12T15:56:48Z</time></trkpt><trkpt lat="42.49034924202004" lon="11.613437637446312"><ele>117.0</ele><time>2026-04-12T15:56:49Z</time></trkpt><trkpt lat="42.49046079875573" lon="11.613489178402524"><ele>118.5</ele><time>2026-04-12T15:56:51Z</time></trkpt><trkpt lat="42.49051311238485" lon="11.613559366588857"><ele>120.0</ele><time>2026-04-12T15:56:52Z</time></trkpt><trkpt lat="42.49056582071011" lon="11.613647785690661"><ele>120.6</ele><time>2026-04-12T15:56:53Z</time></trkpt><trkpt lat="42.49061607323147" lon="11.613765649268423"><ele>121.2</ele><time>2026-04-12T15:56:54Z</time></trkpt><trkpt lat="42.490656294479216" lon="11.613882132090867"><ele>121.80000000000001</ele><time>2026-04-12T15:56:55Z</time></trkpt><trkpt lat="42.49070476162539" lon="11.614012183335381"><ele>122.4</ele><time>2026-04-12T15:56:56Z</time></trkpt><trkpt lat="42.49074846500388" lon="11.614133981195575"><ele>123.0</ele><time>2026-04-12T15:56:57Z</time></trkpt><trkpt lat="42.49080305252746" lon="11.614268463199123"><ele>123.0</ele><time>2026-04-12T15:56:58Z</time></trkpt><trkpt lat="42.490866787896344" lon="11.614405773380636"><ele>123.0</ele><time>2026-04-12T15:56:59Z</time></trkpt><trkpt lat="42.49092923543882" lon="11.614548961625472"><ele>123.0</ele><time>2026-04-12T15:57:00Z</time></trkpt><trkpt lat="42.490993137209735" lon="11.614687805944381"><ele>123.0</ele><time>2026-04-12T15:57:01Z</time></trkpt><trkpt lat="42.49105061189166" lon="11.61482419419823"><ele>122.75</ele><time>2026-04-12T15:57:02Z</time></trkpt><trkpt lat="42.491116547736645" lon="11.614952241697944"><ele>122.5</ele><time>2026-04-12T15:57:03Z</time></trkpt><trkpt lat="42.49117984015556" lon="11.615081188230224"><ele>122.25</ele><time>2026-04-12T15:57:04Z</time></trkpt><trkpt lat="42.49124955954795" lon="11.615209004533055"><ele>122.0</ele><time>2026-04-12T15:57:05Z</time></trkpt><trkpt lat="42.49132716184975" lon="11.61533666207419"><ele>124.19999999999999</ele><time>2026-04-12T15:57:06Z</time></trkpt><trkpt lat="42.491390315607575" lon="11.615448304740728"><ele>126.39999999999999</ele><time>2026-04-12T15:57:07Z</time></trkpt><trkpt lat="42.491461082700816" lon="11.615568405314756"><ele>128.60000000000002</ele><time>2026-04-12T15:57:08Z</time></trkpt><trkpt lat="42.491533969898825" lon="11.615684186613175"><ele>130.8</ele><time>2026-04-12T15:57:09Z</time></trkpt><trkpt lat="42.491609128606235" lon="11.615808725377963"><ele>133.0</ele><time>2026-04-12T15:57:10Z</time></trkpt><trkpt lat="42.49168069111707" lon="11.615921178864369"><ele>133.0</ele><time>2026-04-12T15:57:11Z</time></trkpt><trkpt lat="42.49172965870514" lon="11.616040246167664"><ele>133.0</ele><time>2026-04-12T15:57:12Z</time></trkpt><trkpt lat="42.49179065334847" lon="11.616159316864842"><ele>133.0</ele><time>2026-04-12T15:57:13Z</time></trkpt><trkpt lat="42.49183890593463" lon="11.616265962210502"><ele>133.0</ele><time>2026-04-12T15:57:14Z</time></trkpt><trkpt lat="42.491878455354495" lon="11.616361402607247"><ele>133.0</ele><time>2026-04-12T15:57:14.999Z</time></trkpt><trkpt lat="42.491926457939044" lon="11.616465855456308"><ele>133.33333333333334</ele><time>2026-04-12T15:57:15.999Z</time></trkpt><trkpt lat="42.49198024664611" lon="11.616572897695155"><ele>133.66666666666669</ele><time>2026-04-12T15:57:16.999Z</time></trkpt><trkpt lat="42.49204712910467" lon="11.616655726808526"><ele>134.0</ele><time>2026-04-12T15:57:17.999Z</time></trkpt><trkpt lat="42.49211713104875" lon="11.616713048834663"><ele>134.33333333333334</ele><time>2026-04-12T15:57:18.999Z</time></trkpt><trkpt lat="42.4921898430283" lon="11.616749976231263"><ele>134.66666666666666</ele><time>2026-04-12T15:57:19.999Z</time></trkpt><trkpt lat="42.49227007958528" lon="11.61676617164678"><ele>135.0</ele><time>2026-04-12T15:57:20.999Z</time></trkpt><trkpt lat="42.49234719424598" lon="11.61675587500571"><ele>136.8</ele><time>2026-04-12T15:57:21.999Z</time></trkpt><trkpt lat="42.49243759314668" lon="11.616731259628944"><ele>138.6</ele><time>2026-04-12T15:57:22.999Z</time></trkpt><trkpt lat="42.49252914612879" lon="11.616704172738627"><ele>140.4</ele><time>2026-04-12T15:57:23.999Z</time></trkpt><trkpt lat="42.49262518577055" lon="11.616688668650927"><ele>142.2</ele><time>2026-04-12T15:57:24.999Z</time></trkpt><trkpt lat="42.49271577951114" lon="11.616643283410506"><ele>144.0</ele><time>2026-04-12T15:57:25.999Z</time></trkpt><trkpt lat="42.49282020591765" lon="11.616623838696253"><ele>144.0</ele><time>2026-04-12T15:57:26.999Z</time></trkpt><trkpt lat="42.492922550812274" lon="11.61659074162918"><ele>144.0</ele><time>2026-04-12T15:57:27.999Z</time></trkpt><trkpt lat="42.49301259022483" lon="11.616557290379914"><ele>144.0</ele><time>2026-04-12T15:57:28.999Z</time></trkpt><trkpt lat="42.49309271109639" lon="11.616568726380233"><ele>144.0</ele><time>2026-04-12T15:57:29.999Z</time></trkpt><trkpt lat="42.493162617215006" lon="11.616585642286756"><ele>144.0</ele><time>2026-04-12T15:57:30.999Z</time></trkpt><trkpt lat="42.493229538475724" lon="11.616614820816384"><ele>144.0</ele><time>2026-04-12T15:57:31.999Z</time></trkpt><trkpt lat="42.4933108120458" lon="11.616648973665297"><ele>144.5</ele><time>2026-04-12T15:57:32.999Z</time></trkpt><trkpt lat="42.493391110316935" lon="11.616678045966363"><ele>145.0</ele><time>2026-04-12T15:57:33.999Z</time></trkpt><trkpt lat="42.49347260020445" lon="11.616685613786242"><ele>145.5</ele><time>2026-04-12T15:57:34.999Z</time></trkpt><trkpt lat="42.493555790662874" lon="11.616715946626616"><ele>146.0</ele><time>2026-04-12T15:57:35.999Z</time></trkpt><trkpt lat="42.49363826161384" lon="11.616748917948785"><ele>146.5</ele><time>2026-04-12T15:57:36.999Z</time></trkpt><trkpt lat="42.49372097107166" lon="11.616784367491858"><ele>147.0</ele><time>2026-04-12T15:57:37.999Z</time></trkpt><trkpt lat="42.493803481762534" lon="11.616819974920386"><ele>146.66666666666666</ele><time>2026-04-12T15:57:38.999Z</time></trkpt><trkpt lat="42.49388473123032" lon="11.616851187878096"><ele>146.33333333333334</ele><time>2026-04-12T15:57:39.999Z</time></trkpt><trkpt lat="42.49397231287085" lon="11.61688759784051"><ele>146.0</ele><time>2026-04-12T15:57:40.999Z</time></trkpt><trkpt lat="42.49405524672679" lon="11.616921641528467"><ele>145.66666666666669</ele><time>2026-04-12T15:57:41.999Z</time></trkpt><trkpt lat="42.49413445910419" lon="11.616977673500667"><ele>145.33333333333334</ele><time>2026-04-12T15:57:42.999Z</time></trkpt><trkpt lat="42.49422319168809" lon="11.617004208771034"><ele>145.0</ele><time>2026-04-12T15:57:43.999Z</time></trkpt><trkpt lat="42.494313021672674" lon="11.6170241924269"><ele>145.0</ele><time>2026-04-12T15:57:44.999Z</time></trkpt><trkpt lat="42.49440220923962" lon="11.617058286146515"><ele>145.0</ele><time>2026-04-12T15:57:45.999Z</time></trkpt><trkpt lat="42.49449408464804" lon="11.617075473057836"><ele>145.0</ele><time>2026-04-12T15:57:46.999Z</time></trkpt><trkpt lat="42.494581198109145" lon="11.617095587905979"><ele>145.0</ele><time>2026-04-12T15:57:47.999Z</time></trkpt><trkpt lat="42.494674508531666" lon="11.617113534648425"><ele>145.0</ele><time>2026-04-12T15:57:48.999Z</time></trkpt><trkpt lat="42.494778467189356" lon="11.61712086635507"><ele>145.0</ele><time>2026-04-12T15:57:49.999Z</time></trkpt><trkpt lat="42.494879711244714" lon="11.617113253756996"><ele>145.0</ele><time>2026-04-12T15:57:50.999Z</time></trkpt><trkpt lat="42.49498459197026" lon="11.617087708524588"><ele>145.0</ele><time>2026-04-12T15:57:51.999Z</time></trkpt><trkpt lat="42.495090727998814" lon="11.617057671575218"><ele>145.0</ele><time>2026-04-12T15:57:52.999Z</time></trkpt><trkpt lat="42.49520888769327" lon="11.61701343290746"><ele>145.0</ele><time>2026-04-12T15:57:53.999Z</time></trkpt><trkpt lat="42.49532935198755" lon="11.616962726326738"><ele>144.75</ele><time>2026-04-12T15:57:54.999Z</time></trkpt><trkpt lat="42.495450582156565" lon="11.616932496560446"><ele>144.5</ele><time>2026-04-12T15:57:55.999Z</time></trkpt><trkpt lat="42.49559190393245" lon="11.61687163646585"><ele>144.25</ele><time>2026-04-12T15:57:56.999Z</time></trkpt><trkpt lat="42.49574122128694" lon="11.616802245839043"><ele>144.0</ele><time>2026-04-12T15:57:57.999Z</time></trkpt><trkpt lat="42.49587198170236" lon="11.616735594757847"><ele>144.0</ele><time>2026-04-12T15:57:58.999Z</time></trkpt><trkpt lat="42.49598785184038" lon="11.616655959368222"><ele>144.0</ele><time>2026-04-12T15:57:59.999Z</time></trkpt><trkpt lat="42.49610445973317" lon="11.61661206197502"><ele>144.0</ele><time>2026-04-12T15:58:00.999Z</time></trkpt><trkpt lat="42.49622000799921" lon="11.616611655655818"><ele>144.0</ele><time>2026-04-12T15:58:01.999Z</time></trkpt><trkpt lat="42.49633682172509" lon="11.616608504159233"><ele>145.0</ele><time>2026-04-12T15:58:02.999Z</time></trkpt><trkpt lat="42.49647099105675" lon="11.616619154240706"><ele>146.0</ele><time>2026-04-12T15:58:03.999Z</time></trkpt><trkpt lat="42.496594016868286" lon="11.616628519413988"><ele>147.0</ele><time>2026-04-12T15:58:05Z</time></trkpt><trkpt lat="42.496733808748246" lon="11.616614941407102"><ele>148.0</ele><time>2026-04-12T15:58:06Z</time></trkpt><trkpt lat="42.496860002450816" lon="11.616632534609092"><ele>148.0</ele><time>2026-04-12T15:58:07Z</time></trkpt><trkpt lat="42.49700325405216" lon="11.616656264167151"><ele>148.0</ele><time>2026-04-12T15:58:08Z</time></trkpt><trkpt lat="42.49713862417548" lon="11.616664201539342"><ele>148.0</ele><time>2026-04-12T15:58:09Z</time></trkpt><trkpt lat="42.49726426385266" lon="11.616673423655245"><ele>148.0</ele><time>2026-04-12T15:58:10Z</time></trkpt><trkpt lat="42.497379117120744" lon="11.616677016928636"><ele>151.25</ele><time>2026-04-12T15:58:11Z</time></trkpt><trkpt lat="42.49750588295622" lon="11.616690577633895"><ele>154.5</ele><time>2026-04-12T15:58:12Z</time></trkpt><trkpt lat="42.49763253119974" lon="11.61670177062658"><ele>157.75</ele><time>2026-04-12T15:58:13Z</time></trkpt><trkpt lat="42.49776726893433" lon="11.616708090571862"><ele>161.0</ele><time>2026-04-12T15:58:14Z</time></trkpt><trkpt lat="42.49790482415782" lon="11.616698905163936"><ele>160.60000000000002</ele><time>2026-04-12T15:58:15Z</time></trkpt><trkpt lat="42.49800990830491" lon="11.616719478748381"><ele>160.20000000000002</ele><time>2026-04-12T15:58:16Z</time></trkpt><trkpt lat="42.49810791995969" lon="11.616724072609902"><ele>159.8</ele><time>2026-04-12T15:58:17Z</time></trkpt><trkpt lat="42.498206397944635" lon="11.616729503925848"><ele>159.4</ele><time>2026-04-12T15:58:18Z</time></trkpt><trkpt lat="42.49831028603892" lon="11.616736900053704"><ele>159.0</ele><time>2026-04-12T15:58:19Z</time></trkpt><trkpt lat="42.49841468664835" lon="11.61674685713622"><ele>159.0</ele><time>2026-04-12T15:58:20Z</time></trkpt><trkpt lat="42.498547339648574" lon="11.616749050512674"><ele>159.0</ele><time>2026-04-12T15:58:21Z</time></trkpt><trkpt lat="42.498656370709824" lon="11.616781651699966"><ele>159.0</ele><time>2026-04-12T15:58:22Z</time></trkpt><trkpt lat="42.49876459382361" lon="11.616798593351184"><ele>159.0</ele><time>2026-04-12T15:58:23Z</time></trkpt><trkpt lat="42.498913915241836" lon="11.616808851658371"><ele>160.5</ele><time>2026-04-12T15:58:24Z</time></trkpt><trkpt lat="42.49904225718633" lon="11.616820516986719"><ele>162.0</ele><time>2026-04-12T15:58:25Z</time></trkpt><trkpt lat="42.49916277080691" lon="11.6168422661063"><ele>163.5</ele><time>2026-04-12T15:58:26Z</time></trkpt><trkpt lat="42.49930546916695" lon="11.616864183527564"><ele>165.0</ele><time>2026-04-12T15:58:27Z</time></trkpt><trkpt lat="42.49943686640246" lon="11.616867530437084"><ele>165.0</ele><time>2026-04-12T15:58:28Z</time></trkpt><trkpt lat="42.49956247014023" lon="11.616882668226078"><ele>165.0</ele><time>2026-04-12T15:58:29Z</time></trkpt><trkpt lat="42.49968835753803" lon="11.616892737109"><ele>165.0</ele><time>2026-04-12T15:58:30Z</time></trkpt><trkpt lat="42.49982488309331" lon="11.61689983128296"><ele>165.0</ele><time>2026-04-12T15:58:31Z</time></trkpt><trkpt lat="42.49996285204993" lon="11.616899964879511"><ele>165.5</ele><time>2026-04-12T15:58:32Z</time></trkpt><trkpt lat="42.50009412099614" lon="11.616896504949407"><ele>166.0</ele><time>2026-04-12T15:58:33Z</time></trkpt><trkpt lat="42.50023085203338" lon="11.61690074238828"><ele>166.5</ele><time>2026-04-12T15:58:34Z</time></trkpt><trkpt lat="42.50036409703883" lon="11.616904022295627"><ele>167.0</ele><time>2026-04-12T15:58:35Z</time></trkpt><trkpt lat="42.50049794361912" lon="11.616909660540312"><ele>167.75</ele><time>2026-04-12T15:58:36Z</time></trkpt><trkpt lat="42.50062439097695" lon="11.616914752637426"><ele>168.5</ele><time>2026-04-12T15:58:37Z</time></trkpt><trkpt lat="42.50074996490997" lon="11.616930560526033"><ele>169.25</ele><time>2026-04-12T15:58:38Z</time></trkpt><trkpt lat="42.5008699795403" lon="11.6169214353959"><ele>170.0</ele><time>2026-04-12T15:58:39Z</time></trkpt><trkpt lat="42.50099000879223" lon="11.616916441801308"><ele>170.0</ele><time>2026-04-12T15:58:40Z</time></trkpt><trkpt lat="42.50110755199138" lon="11.616912530345646"><ele>170.0</ele><time>2026-04-12T15:58:41Z</time></trkpt><trkpt lat="42.501220435278796" lon="11.61689263038384"><ele>170.0</ele><time>2026-04-12T15:58:42Z</time></trkpt><trkpt lat="42.50133988170822" lon="11.61686158966636"><ele>170.0</ele><time>2026-04-12T15:58:43Z</time></trkpt><trkpt lat="42.50146144713346" lon="11.616817284963771"><ele>170.5</ele><time>2026-04-12T15:58:44Z</time></trkpt><trkpt lat="42.50157882502593" lon="11.616766593938957"><ele>171.0</ele><time>2026-04-12T15:58:45Z</time></trkpt><trkpt lat="42.50168827674834" lon="11.616724308668138"><ele>171.5</ele><time>2026-04-12T15:58:46Z</time></trkpt><trkpt lat="42.501796252426416" lon="11.616677328530688"><ele>172.0</ele><time>2026-04-12T15:58:47Z</time></trkpt><trkpt lat="42.5018973692894" lon="11.616624918870386"><ele>172.0</ele><time>2026-04-12T15:58:48Z</time></trkpt><trkpt lat="42.50200675752945" lon="11.616564001386722"><ele>172.0</ele><time>2026-04-12T15:58:49Z</time></trkpt><trkpt lat="42.50211313325344" lon="11.61649607300558"><ele>172.0</ele><time>2026-04-12T15:58:50Z</time></trkpt><trkpt lat="42.502216278387216" lon="11.616418473244256"><ele>172.0</ele><time>2026-04-12T15:58:51Z</time></trkpt><trkpt lat="42.502319760563736" lon="11.616334438162722"><ele>172.0</ele><time>2026-04-12T15:58:52Z</time></trkpt><trkpt lat="42.502424062861444" lon="11.616236854814664"><ele>172.0</ele><time>2026-04-12T15:58:53Z</time></trkpt><trkpt lat="42.50252486181577" lon="11.616147684768098"><ele>172.0</ele><time>2026-04-12T15:58:54Z</time></trkpt><trkpt lat="42.502619421971424" lon="11.616061367600901"><ele>172.0</ele><time>2026-04-12T15:58:55Z</time></trkpt><trkpt lat="42.50273127091571" lon="11.615952161432693"><ele>172.0</ele><time>2026-04-12T15:58:56Z</time></trkpt><trkpt lat="42.5028334118412" lon="11.615865141226413"><ele>172.0</ele><time>2026-04-12T15:58:57Z</time></trkpt><trkpt lat="42.50293505878863" lon="11.61578145800876"><ele>172.0</ele><time>2026-04-12T15:58:58Z</time></trkpt><trkpt lat="42.50304028991682" lon="11.61571443106733"><ele>172.0</ele><time>2026-04-12T15:58:59Z</time></trkpt><trkpt lat="42.50314681923866" lon="11.615642058527866"><ele>172.0</ele><time>2026-04-12T15:59:00Z</time></trkpt><trkpt lat="42.50323632179581" lon="11.61555323462301"><ele>172.0</ele><time>2026-04-12T15:59:01Z</time></trkpt><trkpt lat="42.50333531570815" lon="11.615476047093033"><ele>172.0</ele><time>2026-04-12T15:59:02Z</time></trkpt><trkpt lat="42.50344308983564" lon="11.615389498751409"><ele>172.0</ele><time>2026-04-12T15:59:03Z</time></trkpt><trkpt lat="42.50355409456213" lon="11.615301587307588"><ele>172.5</ele><time>2026-04-12T15:59:04Z</time></trkpt><trkpt lat="42.50366844787393" lon="11.615226526392318"><ele>173.0</ele><time>2026-04-12T15:59:05Z</time></trkpt><trkpt lat="42.503778049697715" lon="11.61515138449849"><ele>173.5</ele><time>2026-04-12T15:59:06Z</time></trkpt><trkpt lat="42.503888236041995" lon="11.615071097287212"><ele>174.0</ele><time>2026-04-12T15:59:07Z</time></trkpt><trkpt lat="42.50400647791079" lon="11.614972080281003"><ele>174.25</ele><time>2026-04-12T15:59:08Z</time></trkpt><trkpt lat="42.50411687235371" lon="11.614877333201006"><ele>174.5</ele><time>2026-04-12T15:59:09Z</time></trkpt><trkpt lat="42.504237970465425" lon="11.614792740231424"><ele>174.75</ele><time>2026-04-12T15:59:10Z</time></trkpt><trkpt lat="42.50436122040343" lon="11.614694736860733"><ele>175.0</ele><time>2026-04-12T15:59:11Z</time></trkpt><trkpt lat="42.50447662255883" lon="11.61460042849496"><ele>176.25</ele><time>2026-04-12T15:59:12Z</time></trkpt><trkpt lat="42.504585460960826" lon="11.61453033537525"><ele>177.5</ele><time>2026-04-12T15:59:13Z</time></trkpt><trkpt lat="42.5047041255011" lon="11.614441081287927"><ele>178.75</ele><time>2026-04-12T15:59:14Z</time></trkpt><trkpt lat="42.50481318140507" lon="11.614359941734923"><ele>180.0</ele><time>2026-04-12T15:59:15Z</time></trkpt><trkpt lat="42.50492728282893" lon="11.614275046782913"><ele>180.0</ele><time>2026-04-12T15:59:16Z</time></trkpt><trkpt lat="42.505041075165174" lon="11.614181197782383"><ele>180.0</ele><time>2026-04-12T15:59:17Z</time></trkpt><trkpt lat="42.50513848433384" lon="11.614096021631461"><ele>180.0</ele><time>2026-04-12T15:59:18Z</time></trkpt><trkpt lat="42.5052504282966" lon="11.614018740971856"><ele>180.0</ele><time>2026-04-12T15:59:18.999Z</time></trkpt><trkpt lat="42.50535833448448" lon="11.613933580284224"><ele>181.0</ele><time>2026-04-12T15:59:19.999Z</time></trkpt><trkpt lat="42.50545988797152" lon="11.613850954542935"><ele>182.0</ele><time>2026-04-12T15:59:20.999Z</time></trkpt><trkpt lat="42.505553592533616" lon="11.613773687398467"><ele>183.0</ele><time>2026-04-12T15:59:21.999Z</time></trkpt><trkpt lat="42.50563600837078" lon="11.613708952495957"><ele>184.0</ele><time>2026-04-12T15:59:22.999Z</time></trkpt><trkpt lat="42.50573051265145" lon="11.613652480860743"><ele>185.0</ele><time>2026-04-12T15:59:23.999Z</time></trkpt><trkpt lat="42.505807746178554" lon="11.613581023851511"><ele>185.0</ele><time>2026-04-12T15:59:24.999Z</time></trkpt><trkpt lat="42.50587780134418" lon="11.613513200773298"><ele>185.0</ele><time>2026-04-12T15:59:25.999Z</time></trkpt><trkpt lat="42.50594463707747" lon="11.61344849787128"><ele>185.0</ele><time>2026-04-12T15:59:26.999Z</time></trkpt><trkpt lat="42.50600843465662" lon="11.613393779559471"><ele>185.0</ele><time>2026-04-12T15:59:27.999Z</time></trkpt><trkpt lat="42.506068970554125" lon="11.613348832711155"><ele>185.0</ele><time>2026-04-12T15:59:28.999Z</time></trkpt><trkpt lat="42.506140123016294" lon="11.613307343767108"><ele>185.0</ele><time>2026-04-12T15:59:29.999Z</time></trkpt><trkpt lat="42.50621362052024" lon="11.61327400958679"><ele>185.16666666666666</ele><time>2026-04-12T15:59:30.999Z</time></trkpt><trkpt lat="42.50628963003647" lon="11.613243405757036"><ele>185.33333333333331</ele><time>2026-04-12T15:59:31.999Z</time></trkpt><trkpt lat="42.506379241603234" lon="11.613207586119808"><ele>185.5</ele><time>2026-04-12T15:59:32.999Z</time></trkpt><trkpt lat="42.50646414894739" lon="11.613174396264183"><ele>185.66666666666666</ele><time>2026-04-12T15:59:33.999Z</time></trkpt><trkpt lat="42.50654410763098" lon="11.61314424975504"><ele>185.83333333333334</ele><time>2026-04-12T15:59:34.999Z</time></trkpt><trkpt lat="42.5066364990625" lon="11.613109641397047"><ele>186.0</ele><time>2026-04-12T15:59:35.999Z</time></trkpt><trkpt lat="42.50672227290386" lon="11.613072692838795"><ele>186.0</ele><time>2026-04-12T15:59:36.999Z</time></trkpt><trkpt lat="42.50680876017521" lon="11.613023344119483"><ele>186.0</ele><time>2026-04-12T15:59:37.999Z</time></trkpt><trkpt lat="42.50689041332465" lon="11.61296681050797"><ele>186.0</ele><time>2026-04-12T15:59:38.999Z</time></trkpt><trkpt lat="42.50695997442378" lon="11.61290198814277"><ele>186.0</ele><time>2026-04-12T15:59:39.999Z</time></trkpt><trkpt lat="42.50701408448868" lon="11.612814346381159"><ele>186.0</ele><time>2026-04-12T15:59:40.999Z</time></trkpt><trkpt lat="42.50704727635302" lon="11.612717584577629"><ele>186.0</ele><time>2026-04-12T15:59:41.999Z</time></trkpt><trkpt lat="42.507072971698776" lon="11.612611527043814"><ele>185.33333333333334</ele><time>2026-04-12T15:59:42.999Z</time></trkpt><trkpt lat="42.5070903284626" lon="11.612503752987527"><ele>184.66666666666666</ele><time>2026-04-12T15:59:43.999Z</time></trkpt><trkpt lat="42.507085271047714" lon="11.612363608979702"><ele>184.0</ele><time>2026-04-12T15:59:44.999Z</time></trkpt><trkpt lat="42.5070648110193" lon="11.61223547646623"><ele>183.33333333333331</ele><time>2026-04-12T15:59:45.999Z</time></trkpt><trkpt lat="42.507042911532885" lon="11.612122635459281"><ele>182.66666666666666</ele><time>2026-04-12T15:59:46.999Z</time></trkpt><trkpt lat="42.507021078657715" lon="11.612026359323664"><ele>182.0</ele><time>2026-04-12T15:59:47.999Z</time></trkpt><trkpt lat="42.50698940573406" lon="11.611922992469824"><ele>180.33333333333331</ele><time>2026-04-12T15:59:48.999Z</time></trkpt><trkpt lat="42.50694379637682" lon="11.61182337163133"><ele>178.66666666666666</ele><time>2026-04-12T15:59:49.999Z</time></trkpt><trkpt lat="42.50690230378873" lon="11.611726276194473"><ele>177.0</ele><time>2026-04-12T15:59:50.999Z</time></trkpt><trkpt lat="42.50686199457529" lon="11.611620930233451"><ele>175.33333333333334</ele><time>2026-04-12T15:59:51.999Z</time></trkpt><trkpt lat="42.50681737020452" lon="11.611505431617319"><ele>173.66666666666669</ele><time>2026-04-12T15:59:52.999Z</time></trkpt><trkpt lat="42.50676975405287" lon="11.611393111989164"><ele>172.0</ele><time>2026-04-12T15:59:53.999Z</time></trkpt><trkpt lat="42.50671650263099" lon="11.611286293053878"><ele>172.0</ele><time>2026-04-12T15:59:54.999Z</time></trkpt><trkpt lat="42.50665455831707" lon="11.611188548458092"><ele>172.0</ele><time>2026-04-12T15:59:55.999Z</time></trkpt><trkpt lat="42.50658062590346" lon="11.611083427151263"><ele>172.0</ele><time>2026-04-12T15:59:56.999Z</time></trkpt><trkpt lat="42.506500117983755" lon="11.610969466038167"><ele>172.0</ele><time>2026-04-12T15:59:57.999Z</time></trkpt><trkpt lat="42.50643376775903" lon="11.610873408838934"><ele>172.0</ele><time>2026-04-12T15:59:58.999Z</time></trkpt><trkpt lat="42.50637725706835" lon="11.610779808748376"><ele>172.66666666666669</ele><time>2026-04-12T15:59:59.999Z</time></trkpt><trkpt lat="42.506320259175396" lon="11.61067932712142"><ele>173.33333333333334</ele><time>2026-04-12T16:00:00.999Z</time></trkpt><trkpt lat="42.506273771214055" lon="11.610587746657133"><ele>174.0</ele><time>2026-04-12T16:00:01.999Z</time></trkpt><trkpt lat="42.50622589879083" lon="11.610484909480867"><ele>174.66666666666666</ele><time>2026-04-12T16:00:02.999Z</time></trkpt><trkpt lat="42.50618144749538" lon="11.610384004075481"><ele>175.33333333333331</ele><time>2026-04-12T16:00:03.999Z</time></trkpt><trkpt lat="42.50613763083857" lon="11.610281648785179"><ele>176.0</ele><time>2026-04-12T16:00:04.999Z</time></trkpt><trkpt lat="42.50609464754989" lon="11.610176614374613"><ele>173.83333333333331</ele><time>2026-04-12T16:00:05.999Z</time></trkpt><trkpt lat="42.50605732006132" lon="11.610076244276563"><ele>171.66666666666666</ele><time>2026-04-12T16:00:06.999Z</time></trkpt><trkpt lat="42.50602081043936" lon="11.60996595808135"><ele>169.5</ele><time>2026-04-12T16:00:07.999Z</time></trkpt><trkpt lat="42.505991366235904" lon="11.609850078395015"><ele>167.33333333333334</ele><time>2026-04-12T16:00:08.999Z</time></trkpt><trkpt lat="42.50597557757066" lon="11.60975035515298"><ele>165.16666666666669</ele><time>2026-04-12T16:00:10Z</time></trkpt><trkpt lat="42.5059645367629" lon="11.60966071145324"><ele>163.0</ele><time>2026-04-12T16:00:11Z</time></trkpt><trkpt lat="42.50595907489314" lon="11.60957094354874"><ele>163.0</ele><time>2026-04-12T16:00:12Z</time></trkpt><trkpt lat="42.50596326072049" lon="11.609449828163442"><ele>163.0</ele><time>2026-04-12T16:00:14Z</time></trkpt><trkpt lat="42.50600480643663" lon="11.609373590309724"><ele>163.0</ele><time>2026-04-12T16:00:15Z</time></trkpt><trkpt lat="42.50610539528117" lon="11.609324035057346"><ele>163.0</ele><time>2026-04-12T16:00:17Z</time></trkpt><trkpt lat="42.50618696770023" lon="11.609355923500907"><ele>163.0</ele><time>2026-04-12T16:00:18Z</time></trkpt><trkpt lat="42.50626347426495" lon="11.609395210334698"><ele>163.0</ele><time>2026-04-12T16:00:19Z</time></trkpt><trkpt lat="42.506342870742216" lon="11.609451026691001"><ele>161.83333333333334</ele><time>2026-04-12T16:00:20Z</time></trkpt><trkpt lat="42.50642425039837" lon="11.60948397411967"><ele>160.66666666666669</ele><time>2026-04-12T16:00:21Z</time></trkpt><trkpt lat="42.50650985191213" lon="11.609504860309015"><ele>159.5</ele><time>2026-04-12T16:00:22Z</time></trkpt><trkpt lat="42.50660330835772" lon="11.609529177647717"><ele>158.33333333333334</ele><time>2026-04-12T16:00:23Z</time></trkpt><trkpt lat="42.506689827546886" lon="11.609547695612202"><ele>157.16666666666666</ele><time>2026-04-12T16:00:24Z</time></trkpt><trkpt lat="42.50676811903373" lon="11.609584862720258"><ele>156.0</ele><time>2026-04-12T16:00:25Z</time></trkpt><trkpt lat="42.506848350130504" lon="11.609642803274452"><ele>155.6</ele><time>2026-04-12T16:00:26Z</time></trkpt><trkpt lat="42.50691470949323" lon="11.609727235350586"><ele>155.2</ele><time>2026-04-12T16:00:27Z</time></trkpt><trkpt lat="42.506964702458006" lon="11.609821121714194"><ele>154.8</ele><time>2026-04-12T16:00:28Z</time></trkpt><trkpt lat="42.507016216743025" lon="11.60992370633182"><ele>154.4</ele><time>2026-04-12T16:00:29Z</time></trkpt><trkpt lat="42.507068872297026" lon="11.610042498586159"><ele>154.0</ele><time>2026-04-12T16:00:30Z</time></trkpt><trkpt lat="42.507130682736076" lon="11.61015951712472"><ele>154.0</ele><time>2026-04-12T16:00:31Z</time></trkpt><trkpt lat="42.5072162037393" lon="11.61028445547889"><ele>154.0</ele><time>2026-04-12T16:00:32Z</time></trkpt><trkpt lat="42.5072786413609" lon="11.610408060509556"><ele>154.0</ele><time>2026-04-12T16:00:33Z</time></trkpt><trkpt lat="42.507354295097606" lon="11.610518108547405"><ele>154.0</ele><time>2026-04-12T16:00:34Z</time></trkpt><trkpt lat="42.50740768652055" lon="11.61065454942456"><ele>152.8</ele><time>2026-04-12T16:00:35Z</time></trkpt><trkpt lat="42.507469601093234" lon="11.610793321964888"><ele>151.60000000000002</ele><time>2026-04-12T16:00:36Z</time></trkpt><trkpt lat="42.507535557263765" lon="11.610900315153446"><ele>150.4</ele><time>2026-04-12T16:00:37Z</time></trkpt><trkpt lat="42.5075880425581" lon="11.611007921533378"><ele>149.20000000000002</ele><time>2026-04-12T16:00:38Z</time></trkpt><trkpt lat="42.507640287819385" lon="11.611112634255365"><ele>148.0</ele><time>2026-04-12T16:00:39Z</time></trkpt><trkpt lat="42.50769972974543" lon="11.611230039490295"><ele>147.8</ele><time>2026-04-12T16:00:40Z</time></trkpt><trkpt lat="42.50776743968816" lon="11.611337649732613"><ele>147.60000000000002</ele><time>2026-04-12T16:00:41Z</time></trkpt><trkpt lat="42.507841605378125" lon="11.61143643756221"><ele>147.39999999999998</ele><time>2026-04-12T16:00:42Z</time></trkpt><trkpt lat="42.507912281977326" lon="11.611530287045577"><ele>147.2</ele><time>2026-04-12T16:00:43Z</time></trkpt><trkpt lat="42.50799675150661" lon="11.611640327883558"><ele>147.0</ele><time>2026-04-12T16:00:44Z</time></trkpt><trkpt lat="42.50807648467111" lon="11.611736920860686"><ele>148.0</ele><time>2026-04-12T16:00:45Z</time></trkpt><trkpt lat="42.50816402919595" lon="11.611840061302969"><ele>149.0</ele><time>2026-04-12T16:00:46Z</time></trkpt><trkpt lat="42.50824801051399" lon="11.61193618260899"><ele>150.0</ele><time>2026-04-12T16:00:47Z</time></trkpt><trkpt lat="42.508348507341736" lon="11.61203072865628"><ele>151.0</ele><time>2026-04-12T16:00:48Z</time></trkpt><trkpt lat="42.50845785777323" lon="11.612118380839819"><ele>148.75</ele><time>2026-04-12T16:00:49Z</time></trkpt><trkpt lat="42.50857480405753" lon="11.61218817073429"><ele>146.5</ele><time>2026-04-12T16:00:50Z</time></trkpt><trkpt lat="42.50869272236062" lon="11.612260167019324"><ele>144.25</ele><time>2026-04-12T16:00:51Z</time></trkpt><trkpt lat="42.508818642138046" lon="11.612355793411815"><ele>142.0</ele><time>2026-04-12T16:00:52Z</time></trkpt><trkpt lat="42.50892467374108" lon="11.612429338076446"><ele>142.0</ele><time>2026-04-12T16:00:53Z</time></trkpt><trkpt lat="42.50902828015052" lon="11.612494783558468"><ele>142.0</ele><time>2026-04-12T16:00:54Z</time></trkpt><trkpt lat="42.50913426899897" lon="11.612561788590346"><ele>142.0</ele><time>2026-04-12T16:00:55Z</time></trkpt><trkpt lat="42.509236017082856" lon="11.612625026971472"><ele>142.0</ele><time>2026-04-12T16:00:56Z</time></trkpt><trkpt lat="42.509334204948864" lon="11.612689769500191"><ele>142.0</ele><time>2026-04-12T16:00:57Z</time></trkpt><trkpt lat="42.5094364919312" lon="11.612759588841703"><ele>142.0</ele><time>2026-04-12T16:00:58Z</time></trkpt><trkpt lat="42.50952546611052" lon="11.612835981935083"><ele>142.0</ele><time>2026-04-12T16:00:59Z</time></trkpt><trkpt lat="42.50960517177596" lon="11.612915574695231"><ele>142.0</ele><time>2026-04-12T16:01:00Z</time></trkpt><trkpt lat="42.509687264988784" lon="11.612976990101501"><ele>142.0</ele><time>2026-04-12T16:01:01Z</time></trkpt><trkpt lat="42.50977149661359" lon="11.613035360497502"><ele>138.79999999999998</ele><time>2026-04-12T16:01:02Z</time></trkpt><trkpt lat="42.509855709097856" lon="11.613104183900772"><ele>135.6</ele><time>2026-04-12T16:01:03Z</time></trkpt><trkpt lat="42.50994036712806" lon="11.613165637838"><ele>132.39999999999998</ele><time>2026-04-12T16:01:04Z</time></trkpt><trkpt lat="42.5100290279453" lon="11.613224575569348"><ele>129.2</ele><time>2026-04-12T16:01:05Z</time></trkpt><trkpt lat="42.510114395385024" lon="11.613255664235018"><ele>126.0</ele><time>2026-04-12T16:01:06Z</time></trkpt><trkpt lat="42.51020518302169" lon="11.6132822094472"><ele>126.0</ele><time>2026-04-12T16:01:07Z</time></trkpt><trkpt lat="42.510333799921916" lon="11.61326159768892"><ele>126.0</ele><time>2026-04-12T16:01:08Z</time></trkpt><trkpt lat="42.51045930268443" lon="11.613199234324075"><ele>126.0</ele><time>2026-04-12T16:01:09Z</time></trkpt><trkpt lat="42.51058780009082" lon="11.613159477461995"><ele>126.0</ele><time>2026-04-12T16:01:10Z</time></trkpt><trkpt lat="42.510696804293126" lon="11.613127096845176"><ele>125.8</ele><time>2026-04-12T16:01:11Z</time></trkpt><trkpt lat="42.510792615046036" lon="11.613083775728693"><ele>125.6</ele><time>2026-04-12T16:01:12Z</time></trkpt><trkpt lat="42.51089841438691" lon="11.613024540677324"><ele>125.4</ele><time>2026-04-12T16:01:13Z</time></trkpt><trkpt lat="42.510997656954466" lon="11.61295604173842"><ele>125.2</ele><time>2026-04-12T16:01:14Z</time></trkpt><trkpt lat="42.51109975664119" lon="11.612879664196551"><ele>125.0</ele><time>2026-04-12T16:01:15Z</time></trkpt><trkpt lat="42.511202751045026" lon="11.612806994886892"><ele>125.6</ele><time>2026-04-12T16:01:16Z</time></trkpt><trkpt lat="42.511292337458315" lon="11.612740134552618"><ele>126.2</ele><time>2026-04-12T16:01:17Z</time></trkpt><trkpt lat="42.511372053987564" lon="11.612675697395105"><ele>126.80000000000001</ele><time>2026-04-12T16:01:18Z</time></trkpt><trkpt lat="42.511459789674895" lon="11.612631583163205"><ele>127.4</ele><time>2026-04-12T16:01:19Z</time></trkpt><trkpt lat="42.511536422345074" lon="11.612574821538285"><ele>128.0</ele><time>2026-04-12T16:01:19.999Z</time></trkpt><trkpt lat="42.511607375253455" lon="11.612524884027534"><ele>127.99999999999999</ele><time>2026-04-12T16:01:20.999Z</time></trkpt><trkpt lat="42.51167405336569" lon="11.612485440763123"><ele>128.0</ele><time>2026-04-12T16:01:21.999Z</time></trkpt><trkpt lat="42.51174617935836" lon="11.612454955199437"><ele>128.0</ele><time>2026-04-12T16:01:22.999Z</time></trkpt><trkpt lat="42.511832978289746" lon="11.612445580366979"><ele>128.0</ele><time>2026-04-12T16:01:23.999Z</time></trkpt><trkpt lat="42.51192261569729" lon="11.612478024244474"><ele>127.99999999999999</ele><time>2026-04-12T16:01:24.999Z</time></trkpt><trkpt lat="42.512024152409836" lon="11.612526621512474"><ele>128.0</ele><time>2026-04-12T16:01:25.999Z</time></trkpt><trkpt lat="42.51212883787657" lon="11.612570945674543"><ele>127.80000000000001</ele><time>2026-04-12T16:01:26.999Z</time></trkpt><trkpt lat="42.51221983982561" lon="11.612635944153043"><ele>127.60000000000001</ele><time>2026-04-12T16:01:27.999Z</time></trkpt><trkpt lat="42.51229998858703" lon="11.61268159469943"><ele>127.39999999999999</ele><time>2026-04-12T16:01:28.999Z</time></trkpt><trkpt lat="42.5123832468421" lon="11.612704469684132"><ele>127.19999999999999</ele><time>2026-04-12T16:01:29.999Z</time></trkpt><trkpt lat="42.51247756619168" lon="11.612708919728261"><ele>127.0</ele><time>2026-04-12T16:01:30.999Z</time></trkpt><trkpt lat="42.51256575982843" lon="11.61269104263297"><ele>127.0</ele><time>2026-04-12T16:01:31.999Z</time></trkpt><trkpt lat="42.512680422756944" lon="11.612667802149032"><ele>127.0</ele><time>2026-04-12T16:01:32.999Z</time></trkpt><trkpt lat="42.512792348165085" lon="11.61258579119546"><ele>127.0</ele><time>2026-04-12T16:01:33.999Z</time></trkpt><trkpt lat="42.51289357568085" lon="11.61247499478667"><ele>127.0</ele><time>2026-04-12T16:01:34.999Z</time></trkpt><trkpt lat="42.51298478578569" lon="11.612352048223785"><ele>127.5</ele><time>2026-04-12T16:01:35.999Z</time></trkpt><trkpt lat="42.513080836606704" lon="11.61220659278692"><ele>128.0</ele><time>2026-04-12T16:01:36.999Z</time></trkpt><trkpt lat="42.51315722102093" lon="11.612079595910654"><ele>128.5</ele><time>2026-04-12T16:01:37.999Z</time></trkpt><trkpt lat="42.51322614941522" lon="11.611961642849455"><ele>129.0</ele><time>2026-04-12T16:01:38.999Z</time></trkpt><trkpt lat="42.513281478403385" lon="11.611853410098968"><ele>129.0</ele><time>2026-04-12T16:01:39.999Z</time></trkpt><trkpt lat="42.51333657706432" lon="11.611745533349179"><ele>129.0</ele><time>2026-04-12T16:01:40.999Z</time></trkpt><trkpt lat="42.51339332841486" lon="11.61163817470687"><ele>129.0</ele><time>2026-04-12T16:01:41.999Z</time></trkpt><trkpt lat="42.51345132122457" lon="11.611528467247583"><ele>129.0</ele><time>2026-04-12T16:01:42.999Z</time></trkpt><trkpt lat="42.51351791612808" lon="11.611404585112458"><ele>129.0</ele><time>2026-04-12T16:01:43.999Z</time></trkpt><trkpt lat="42.5135842335184" lon="11.611294890542851"><ele>129.0</ele><time>2026-04-12T16:01:44.999Z</time></trkpt><trkpt lat="42.51365516893222" lon="11.611203734239268"><ele>129.0</ele><time>2026-04-12T16:01:45.999Z</time></trkpt><trkpt lat="42.51374086447096" lon="11.61112373683972"><ele>129.0</ele><time>2026-04-12T16:01:46.999Z</time></trkpt><trkpt lat="42.51383930982561" lon="11.611023604675825"><ele>129.0</ele><time>2026-04-12T16:01:47.999Z</time></trkpt><trkpt lat="42.51393443042368" lon="11.610897591845108"><ele>128.25</ele><time>2026-04-12T16:01:48.999Z</time></trkpt><trkpt lat="42.51405979642059" lon="11.610810193256368"><ele>127.5</ele><time>2026-04-12T16:01:49.999Z</time></trkpt><trkpt lat="42.51416561868307" lon="11.610715020995654"><ele>126.75</ele><time>2026-04-12T16:01:50.999Z</time></trkpt><trkpt lat="42.51420816654149" lon="11.610624604009736"><ele>126.0</ele><time>2026-04-12T16:01:51.999Z</time></trkpt><trkpt lat="42.51431368493795" lon="11.610534599697628"><ele>126.0</ele><time>2026-04-12T16:01:52.999Z</time></trkpt><trkpt lat="42.51441413509067" lon="11.610401597475095"><ele>126.0</ele><time>2026-04-12T16:01:53.999Z</time></trkpt><trkpt lat="42.51450589680103" lon="11.610300611204458"><ele>126.0</ele><time>2026-04-12T16:01:54.999Z</time></trkpt><trkpt lat="42.51459548618581" lon="11.610226872226516"><ele>126.0</ele><time>2026-04-12T16:01:55.999Z</time></trkpt><trkpt lat="42.51468136101315" lon="11.61015654694562"><ele>125.8</ele><time>2026-04-12T16:01:56.999Z</time></trkpt><trkpt lat="42.51476674518324" lon="11.610093620287088"><ele>125.6</ele><time>2026-04-12T16:01:57.999Z</time></trkpt><trkpt lat="42.51486229468867" lon="11.610025370638795"><ele>125.4</ele><time>2026-04-12T16:01:58.999Z</time></trkpt><trkpt lat="42.514957962178855" lon="11.60994993616707"><ele>125.2</ele><time>2026-04-12T16:01:59.999Z</time></trkpt><trkpt lat="42.51505371863103" lon="11.609855703793542"><ele>125.0</ele><time>2026-04-12T16:02:00.999Z</time></trkpt><trkpt lat="42.51515414166485" lon="11.609772243822121"><ele>125.0</ele><time>2026-04-12T16:02:01.999Z</time></trkpt><trkpt lat="42.51524920535089" lon="11.609679089944647"><ele>125.0</ele><time>2026-04-12T16:02:02.999Z</time></trkpt><trkpt lat="42.51533954425183" lon="11.609596575644234"><ele>125.0</ele><time>2026-04-12T16:02:03.999Z</time></trkpt><trkpt lat="42.51542041969847" lon="11.609534381366625"><ele>125.0</ele><time>2026-04-12T16:02:04.999Z</time></trkpt><trkpt lat="42.51550360632425" lon="11.609486084636266"><ele>125.0</ele><time>2026-04-12T16:02:05.999Z</time></trkpt><trkpt lat="42.51559855450676" lon="11.609495695747313"><ele>125.6</ele><time>2026-04-12T16:02:06.999Z</time></trkpt><trkpt lat="42.515685597891675" lon="11.609487636663303"><ele>126.2</ele><time>2026-04-12T16:02:07.999Z</time></trkpt><trkpt lat="42.515798186069745" lon="11.609460963309859"><ele>126.80000000000001</ele><time>2026-04-12T16:02:08.999Z</time></trkpt><trkpt lat="42.51590199719356" lon="11.609468568665983"><ele>127.4</ele><time>2026-04-12T16:02:09.999Z</time></trkpt><trkpt lat="42.516017347636186" lon="11.609447015712941"><ele>128.0</ele><time>2026-04-12T16:02:10.999Z</time></trkpt><trkpt lat="42.5161356479571" lon="11.609403583984507"><ele>126.5</ele><time>2026-04-12T16:02:11.999Z</time></trkpt><trkpt lat="42.516255661062694" lon="11.609330594406732"><ele>125.0</ele><time>2026-04-12T16:02:12.999Z</time></trkpt><trkpt lat="42.516362174125945" lon="11.609234276037915"><ele>123.5</ele><time>2026-04-12T16:02:13.999Z</time></trkpt><trkpt lat="42.51646580660998" lon="11.609146836331858"><ele>122.0</ele><time>2026-04-12T16:02:14.999Z</time></trkpt><trkpt lat="42.51656442924709" lon="11.609091261240298"><ele>122.0</ele><time>2026-04-12T16:02:16Z</time></trkpt><trkpt lat="42.51667004533957" lon="11.609053913976549"><ele>122.0</ele><time>2026-04-12T16:02:17Z</time></trkpt><trkpt lat="42.51678076810282" lon="11.6090231695331"><ele>122.0</ele><time>2026-04-12T16:02:18Z</time></trkpt><trkpt lat="42.51689938593687" lon="11.608993134892755"><ele>122.0</ele><time>2026-04-12T16:02:19Z</time></trkpt><trkpt lat="42.51700177903443" lon="11.60895168124444"><ele>121.5</ele><time>2026-04-12T16:02:20Z</time></trkpt><trkpt lat="42.51711678951168" lon="11.60891457494475"><ele>121.0</ele><time>2026-04-12T16:02:21Z</time></trkpt><trkpt lat="42.51722192465436" lon="11.60887604776666"><ele>120.5</ele><time>2026-04-12T16:02:22Z</time></trkpt><trkpt lat="42.51733214718877" lon="11.608838029949245"><ele>120.0</ele><time>2026-04-12T16:02:23Z</time></trkpt><trkpt lat="42.51744762633135" lon="11.608818154594502"><ele>120.0</ele><time>2026-04-12T16:02:24Z</time></trkpt><trkpt lat="42.517553288157146" lon="11.608790201124846"><ele>120.0</ele><time>2026-04-12T16:02:25Z</time></trkpt><trkpt lat="42.517673878234866" lon="11.60878461043192"><ele>120.0</ele><time>2026-04-12T16:02:26Z</time></trkpt><trkpt lat="42.517781928944935" lon="11.608771975519918"><ele>120.0</ele><time>2026-04-12T16:02:27Z</time></trkpt><trkpt lat="42.517891086079416" lon="11.60873768347327"><ele>120.0</ele><time>2026-04-12T16:02:28Z</time></trkpt><trkpt lat="42.51799181901436" lon="11.608702472172707"><ele>122.4</ele><time>2026-04-12T16:02:29Z</time></trkpt><trkpt lat="42.51808103890139" lon="11.608638824888796"><ele>124.8</ele><time>2026-04-12T16:02:30Z</time></trkpt><trkpt lat="42.51814767865552" lon="11.6085631674756"><ele>127.19999999999999</ele><time>2026-04-12T16:02:31Z</time></trkpt><trkpt lat="42.51820592174417" lon="11.608470472981843"><ele>129.6</ele><time>2026-04-12T16:02:32Z</time></trkpt><trkpt lat="42.51827065098256" lon="11.608383303594081"><ele>132.0</ele><time>2026-04-12T16:02:33Z</time></trkpt><trkpt lat="42.51830014272384" lon="11.60826738173018"><ele>132.0</ele><time>2026-04-12T16:02:34Z</time></trkpt><trkpt lat="42.51833038119536" lon="11.608170644403785"><ele>132.0</ele><time>2026-04-12T16:02:35Z</time></trkpt><trkpt lat="42.518349553827" lon="11.608028377676504"><ele>132.0</ele><time>2026-04-12T16:02:37Z</time></trkpt><trkpt lat="42.518319127511155" lon="11.607947364948089"><ele>132.0</ele><time>2026-04-12T16:02:38Z</time></trkpt><trkpt lat="42.518249475077205" lon="11.607878336393464"><ele>132.0</ele><time>2026-04-12T16:02:39Z</time></trkpt><trkpt lat="42.51812956008107" lon="11.607806007459093"><ele>136.0</ele><time>2026-04-12T16:02:41Z</time></trkpt><trkpt lat="42.51801354895894" lon="11.607770425018517"><ele>140.0</ele><time>2026-04-12T16:02:43Z</time></trkpt><trkpt lat="42.51794815214407" lon="11.607730825012807"><ele>144.0</ele><time>2026-04-12T16:02:45Z</time></trkpt><trkpt lat="42.51794815380057" lon="11.607636596529613"><ele>148.0</ele><time>2026-04-12T16:02:47Z</time></trkpt><trkpt lat="42.5180427094505" lon="11.607585428530925"><ele>152.0</ele><time>2026-04-12T16:02:49Z</time></trkpt><trkpt lat="42.51816499487976" lon="11.607513980996796"><ele>152.0</ele><time>2026-04-12T16:02:51Z</time></trkpt><trkpt lat="42.51824177453627" lon="11.607495250658703"><ele>152.0</ele><time>2026-04-12T16:02:52Z</time></trkpt><trkpt lat="42.51832458464921" lon="11.60746531215598"><ele>152.0</ele><time>2026-04-12T16:02:53Z</time></trkpt><trkpt lat="42.518369766652526" lon="11.607395775143319"><ele>152.0</ele><time>2026-04-12T16:02:54Z</time></trkpt><trkpt lat="42.51841783648312" lon="11.607314657776866"><ele>152.0</ele><time>2026-04-12T16:02:55Z</time></trkpt><trkpt lat="42.518468419314146" lon="11.607230595687312"><ele>152.0</ele><time>2026-04-12T16:02:56Z</time></trkpt><trkpt lat="42.518507974767985" lon="11.60714427816067"><ele>152.0</ele><time>2026-04-12T16:02:57Z</time></trkpt><trkpt lat="42.51854279948145" lon="11.607052061323037"><ele>152.0</ele><time>2026-04-12T16:02:58Z</time></trkpt><trkpt lat="42.518583879937" lon="11.606939136047112"><ele>152.0</ele><time>2026-04-12T16:02:59Z</time></trkpt><trkpt lat="42.518614465320205" lon="11.606832288616186"><ele>152.0</ele><time>2026-04-12T16:03:00Z</time></trkpt><trkpt lat="42.51864773154014" lon="11.606725084143891"><ele>152.0</ele><time>2026-04-12T16:03:01Z</time></trkpt><trkpt lat="42.518701879803714" lon="11.606630195844549"><ele>152.0</ele><time>2026-04-12T16:03:02Z</time></trkpt><trkpt lat="42.51874652643323" lon="11.606533327433093"><ele>151.0</ele><time>2026-04-12T16:03:03Z</time></trkpt><trkpt lat="42.51879765465515" lon="11.606449096715046"><ele>150.0</ele><time>2026-04-12T16:03:04Z</time></trkpt><trkpt lat="42.51884415502531" lon="11.606362178349627"><ele>149.0</ele><time>2026-04-12T16:03:05Z</time></trkpt><trkpt lat="42.51892017387401" lon="11.606319514319585"><ele>148.0</ele><time>2026-04-12T16:03:06Z</time></trkpt><trkpt lat="42.518989082171586" lon="11.606261829014182"><ele>147.0</ele><time>2026-04-12T16:03:07Z</time></trkpt><trkpt lat="42.51905469848736" lon="11.606206899039133"><ele>146.0</ele><time>2026-04-12T16:03:08Z</time></trkpt><trkpt lat="42.51912261748322" lon="11.606154553191171"><ele>145.33333333333331</ele><time>2026-04-12T16:03:09Z</time></trkpt><trkpt lat="42.51917834136867" lon="11.606095037839031"><ele>144.66666666666666</ele><time>2026-04-12T16:03:10Z</time></trkpt><trkpt lat="42.51923601930441" lon="11.60605102870863"><ele>144.0</ele><time>2026-04-12T16:03:11Z</time></trkpt><trkpt lat="42.51929627928961" lon="11.606014550028094"><ele>143.33333333333334</ele><time>2026-04-12T16:03:12Z</time></trkpt><trkpt lat="42.51935864407965" lon="11.60598214832083"><ele>142.66666666666669</ele><time>2026-04-12T16:03:13Z</time></trkpt><trkpt lat="42.519464404456315" lon="11.605970501483178"><ele>142.0</ele><time>2026-04-12T16:03:15Z</time></trkpt><trkpt lat="42.51957644972717" lon="11.605995664177321"><ele>142.0</ele><time>2026-04-12T16:03:17Z</time></trkpt><trkpt lat="42.519639623872564" lon="11.605981472750615"><ele>142.0</ele><time>2026-04-12T16:03:18Z</time></trkpt><trkpt lat="42.51971256799423" lon="11.605966310186904"><ele>142.0</ele><time>2026-04-12T16:03:18.999Z</time></trkpt><trkpt lat="42.51979322160613" lon="11.6059252745506"><ele>142.0</ele><time>2026-04-12T16:03:19.999Z</time></trkpt><trkpt lat="42.51987884235133" lon="11.60585704568834"><ele>142.0</ele><time>2026-04-12T16:03:20.999Z</time></trkpt><trkpt lat="42.51997093678493" lon="11.60577301187732"><ele>142.0</ele><time>2026-04-12T16:03:21.999Z</time></trkpt><trkpt lat="42.520066061762215" lon="11.605678826430678"><ele>142.0</ele><time>2026-04-12T16:03:22.999Z</time></trkpt><trkpt lat="42.520151005713245" lon="11.605604299823629"><ele>142.0</ele><time>2026-04-12T16:03:23.999Z</time></trkpt><trkpt lat="42.52023225234076" lon="11.60551243067978"><ele>142.0</ele><time>2026-04-12T16:03:24.999Z</time></trkpt><trkpt lat="42.52031780985365" lon="11.605423099441806"><ele>142.0</ele><time>2026-04-12T16:03:25.999Z</time></trkpt><trkpt lat="42.52040179250555" lon="11.605336825154431"><ele>142.0</ele><time>2026-04-12T16:03:26.999Z</time></trkpt><trkpt lat="42.52049165332449" lon="11.605243961080966"><ele>139.16666666666669</ele><time>2026-04-12T16:03:27.999Z</time></trkpt><trkpt lat="42.52055973916114" lon="11.605168995269052"><ele>136.33333333333334</ele><time>2026-04-12T16:03:28.999Z</time></trkpt><trkpt lat="42.52062388536582" lon="11.605106122121883"><ele>133.5</ele><time>2026-04-12T16:03:29.999Z</time></trkpt><trkpt lat="42.52069717029041" lon="11.605034291477297"><ele>130.66666666666666</ele><time>2026-04-12T16:03:30.999Z</time></trkpt><trkpt lat="42.52074557098452" lon="11.604957566383744"><ele>127.83333333333333</ele><time>2026-04-12T16:03:31.999Z</time></trkpt><trkpt lat="42.52080895607159" lon="11.604921254376503"><ele>125.0</ele><time>2026-04-12T16:03:32.999Z</time></trkpt><trkpt lat="42.5208681961755" lon="11.604860970736567"><ele>124.99999999999999</ele><time>2026-04-12T16:03:33.999Z</time></trkpt><trkpt lat="42.520928549579004" lon="11.604794148375634"><ele>125.0</ele><time>2026-04-12T16:03:34.999Z</time></trkpt><trkpt lat="42.52097546438059" lon="11.60473583420121"><ele>125.0</ele><time>2026-04-12T16:03:35.999Z</time></trkpt><trkpt lat="42.52102220548682" lon="11.604669164818246"><ele>125.0</ele><time>2026-04-12T16:03:36.999Z</time></trkpt><trkpt lat="42.52105020202628" lon="11.604566441922795"><ele>124.99999999999999</ele><time>2026-04-12T16:03:37.999Z</time></trkpt><trkpt lat="42.52107712627308" lon="11.604454701200483"><ele>125.0</ele><time>2026-04-12T16:03:38.999Z</time></trkpt><trkpt lat="42.5210907466751" lon="11.604322725636791"><ele>123.49999999999999</ele><time>2026-04-12T16:03:39.999Z</time></trkpt><trkpt lat="42.52112191291099" lon="11.604185536142088"><ele>122.0</ele><time>2026-04-12T16:03:40.999Z</time></trkpt><trkpt lat="42.521137594880095" lon="11.60406461549534"><ele>120.5</ele><time>2026-04-12T16:03:41.999Z</time></trkpt><trkpt lat="42.521155924627095" lon="11.603948315483597"><ele>119.0</ele><time>2026-04-12T16:03:42.999Z</time></trkpt><trkpt lat="42.52117955874109" lon="11.603845752649246"><ele>117.49999999999999</ele><time>2026-04-12T16:03:43.999Z</time></trkpt><trkpt lat="42.52121130304688" lon="11.60374037845285"><ele>116.0</ele><time>2026-04-12T16:03:44.999Z</time></trkpt><trkpt lat="42.52124164281072" lon="11.60363262961009"><ele>116.0</ele><time>2026-04-12T16:03:45.999Z</time></trkpt><trkpt lat="42.52127332026925" lon="11.603520130154712"><ele>116.0</ele><time>2026-04-12T16:03:46.999Z</time></trkpt><trkpt lat="42.52130484701746" lon="11.60341799164884"><ele>116.0</ele><time>2026-04-12T16:03:47.999Z</time></trkpt><trkpt lat="42.52133418726613" lon="11.603323947966208"><ele>116.0</ele><time>2026-04-12T16:03:48.999Z</time></trkpt><trkpt lat="42.52138679741739" lon="11.603169550812256"><ele>116.0</ele><time>2026-04-12T16:03:50.999Z</time></trkpt><trkpt lat="42.52141585067034" lon="11.6030624540494"><ele>115.99999999999999</ele><time>2026-04-12T16:03:52.999Z</time></trkpt><trkpt lat="42.521482248142476" lon="11.603007755170776"><ele>116.0</ele><time>2026-04-12T16:03:54.999Z</time></trkpt><trkpt lat="42.521549313978575" lon="11.602984226298796"><ele>116.0</ele><time>2026-04-12T16:03:55.999Z</time></trkpt><trkpt lat="42.521605944925646" lon="11.603083866695357"><ele>116.0</ele><time>2026-04-12T16:03:57.999Z</time></trkpt><trkpt lat="42.521546907089345" lon="11.603187194124366"><ele>115.99999999999999</ele><time>2026-04-12T16:03:58.999Z</time></trkpt><trkpt lat="42.52153572471306" lon="11.60328277000523"><ele>116.0</ele><time>2026-04-12T16:03:59.999Z</time></trkpt><trkpt lat="42.521527665573984" lon="11.603397224895302"><ele>116.0</ele><time>2026-04-12T16:04:00.999Z</time></trkpt><trkpt lat="42.521505766826834" lon="11.603512935039916"><ele>116.0</ele><time>2026-04-12T16:04:01.999Z</time></trkpt><trkpt lat="42.52147840532167" lon="11.603646740508136"><ele>116.0</ele><time>2026-04-12T16:04:02.999Z</time></trkpt><trkpt lat="42.52145827008658" lon="11.60379165037213"><ele>116.0</ele><time>2026-04-12T16:04:03.999Z</time></trkpt><trkpt lat="42.521443166849984" lon="11.603943924471443"><ele>116.0</ele><time>2026-04-12T16:04:04.999Z</time></trkpt><trkpt lat="42.52142596668317" lon="11.604099999206156"><ele>116.0</ele><time>2026-04-12T16:04:05.999Z</time></trkpt><trkpt lat="42.521390088205415" lon="11.604235940336666"><ele>116.0</ele><time>2026-04-12T16:04:06.999Z</time></trkpt><trkpt lat="42.52136514450676" lon="11.604364884473675"><ele>116.0</ele><time>2026-04-12T16:04:07.999Z</time></trkpt><trkpt lat="42.521340603663276" lon="11.604521509918849"><ele>116.0</ele><time>2026-04-12T16:04:08.999Z</time></trkpt><trkpt lat="42.52133122645568" lon="11.604653000747813"><ele>116.0</ele><time>2026-04-12T16:04:09.999Z</time></trkpt><trkpt lat="42.52132349299559" lon="11.604778658759356"><ele>116.16666666666666</ele><time>2026-04-12T16:04:10.999Z</time></trkpt><trkpt lat="42.52131613472095" lon="11.604912039449335"><ele>116.33333333333333</ele><time>2026-04-12T16:04:11.999Z</time></trkpt><trkpt lat="42.521285428742985" lon="11.605016110793585"><ele>116.5</ele><time>2026-04-12T16:04:12.999Z</time></trkpt><trkpt lat="42.521242189829366" lon="11.605112853178836"><ele>116.66666666666666</ele><time>2026-04-12T16:04:13.999Z</time></trkpt><trkpt lat="42.521185258316976" lon="11.605189391701707"><ele>116.83333333333333</ele><time>2026-04-12T16:04:14.999Z</time></trkpt><trkpt lat="42.521108314225145" lon="11.605258481842833"><ele>117.0</ele><time>2026-04-12T16:04:15.999Z</time></trkpt><trkpt lat="42.521013943857234" lon="11.605276836600558"><ele>116.0</ele><time>2026-04-12T16:04:16.999Z</time></trkpt><trkpt lat="42.52094654819812" lon="11.605346050668492"><ele>115.0</ele><time>2026-04-12T16:04:17.999Z</time></trkpt><trkpt lat="42.52088624765258" lon="11.605412139373893"><ele>114.0</ele><time>2026-04-12T16:04:18.999Z</time></trkpt><trkpt lat="42.52084366463536" lon="11.605504726297182"><ele>113.0</ele><time>2026-04-12T16:04:19.999Z</time></trkpt><trkpt lat="42.52082250066136" lon="11.605611522007877"><ele>112.0</ele><time>2026-04-12T16:04:20.999Z</time></trkpt><trkpt lat="42.52082177900589" lon="11.60573059256727"><ele>111.0</ele><time>2026-04-12T16:04:22Z</time></trkpt><trkpt lat="42.52082929270817" lon="11.605858056658088"><ele>111.0</ele><time>2026-04-12T16:04:23Z</time></trkpt><trkpt lat="42.520837675872045" lon="11.605969371283637"><ele>111.0</ele><time>2026-04-12T16:04:24Z</time></trkpt><trkpt lat="42.52083887309784" lon="11.606058456873651"><ele>111.0</ele><time>2026-04-12T16:04:25Z</time></trkpt><trkpt lat="42.52084268511406" lon="11.606180804775766"><ele>111.0</ele><time>2026-04-12T16:04:27Z</time></trkpt><trkpt lat="42.52089410699397" lon="11.606274258695324"><ele>111.0</ele><time>2026-04-12T16:04:29Z</time></trkpt><trkpt lat="42.520962394366734" lon="11.606284015351818"><ele>111.0</ele><time>2026-04-12T16:04:30Z</time></trkpt><trkpt lat="42.521029363958476" lon="11.60629343500711"><ele>109.16666666666667</ele><time>2026-04-12T16:04:31Z</time></trkpt><trkpt lat="42.52110898375896" lon="11.60630097559258"><ele>107.33333333333334</ele><time>2026-04-12T16:04:32Z</time></trkpt><trkpt lat="42.5211861844395" lon="11.606297539290653"><ele>105.5</ele><time>2026-04-12T16:04:33Z</time></trkpt><trkpt lat="42.521272661116605" lon="11.6062848885923"><ele>103.66666666666667</ele><time>2026-04-12T16:04:34Z</time></trkpt><trkpt lat="42.52135214858924" lon="11.606272990783964"><ele>101.83333333333334</ele><time>2026-04-12T16:04:35Z</time></trkpt><trkpt lat="42.52142864287293" lon="11.606265485973829"><ele>100.0</ele><time>2026-04-12T16:04:36Z</time></trkpt><trkpt lat="42.52151075001015" lon="11.606265829357126"><ele>100.00000000000001</ele><time>2026-04-12T16:04:37Z</time></trkpt><trkpt lat="42.52159488005893" lon="11.60626260731262"><ele>100.0</ele><time>2026-04-12T16:04:38Z</time></trkpt><trkpt lat="42.52167512830602" lon="11.606264054472739"><ele>100.0</ele><time>2026-04-12T16:04:39Z</time></trkpt><trkpt lat="42.52175409865983" lon="11.606270465598218"><ele>100.0</ele><time>2026-04-12T16:04:40Z</time></trkpt><trkpt lat="42.52183693011579" lon="11.606279030027311"><ele>100.00000000000001</ele><time>2026-04-12T16:04:41Z</time></trkpt><trkpt lat="42.52192378967614" lon="11.60630363057058"><ele>100.0</ele><time>2026-04-12T16:04:42Z</time></trkpt><trkpt lat="42.52202203134409" lon="11.606340306796536"><ele>102.0</ele><time>2026-04-12T16:04:43Z</time></trkpt><trkpt lat="42.52212164080352" lon="11.606399748076898"><ele>104.0</ele><time>2026-04-12T16:04:44Z</time></trkpt><trkpt lat="42.52222982381797" lon="11.606466726744895"><ele>106.0</ele><time>2026-04-12T16:04:45Z</time></trkpt><trkpt lat="42.522360535324694" lon="11.606507387502411"><ele>108.0</ele><time>2026-04-12T16:04:46Z</time></trkpt><trkpt lat="42.52250032547324" lon="11.606521711774302"><ele>108.0</ele><time>2026-04-12T16:04:47Z</time></trkpt><trkpt lat="42.52262637056299" lon="11.606532966165812"><ele>108.00000000000001</ele><time>2026-04-12T16:04:48Z</time></trkpt><trkpt lat="42.522725716437776" lon="11.606547017658889"><ele>108.00000000000001</ele><time>2026-04-12T16:04:49Z</time></trkpt><trkpt lat="42.52281715529049" lon="11.606550985276062"><ele>108.0</ele><time>2026-04-12T16:04:50Z</time></trkpt><trkpt lat="42.52290764367472" lon="11.606565342634772"><ele>108.0</ele><time>2026-04-12T16:04:51Z</time></trkpt><trkpt lat="42.52301357318662" lon="11.606533906830904"><ele>108.0</ele><time>2026-04-12T16:04:52Z</time></trkpt><trkpt lat="42.523112249623104" lon="11.606469218577674"><ele>108.00000000000001</ele><time>2026-04-12T16:04:53Z</time></trkpt><trkpt lat="42.52321455332983" lon="11.606423402059951"><ele>108.00000000000001</ele><time>2026-04-12T16:04:54Z</time></trkpt><trkpt lat="42.523326226455715" lon="11.606388285887187"><ele>108.0</ele><time>2026-04-12T16:04:55Z</time></trkpt><trkpt lat="42.52342619609862" lon="11.606331802660808"><ele>108.0</ele><time>2026-04-12T16:04:56Z</time></trkpt><trkpt lat="42.523522391265665" lon="11.606249787708014"><ele>108.0</ele><time>2026-04-12T16:04:57Z</time></trkpt><trkpt lat="42.52361374447746" lon="11.606189312770976"><ele>108.0</ele><time>2026-04-12T16:04:58Z</time></trkpt><trkpt lat="42.52368279548343" lon="11.60612850954291"><ele>108.0</ele><time>2026-04-12T16:04:59Z</time></trkpt><trkpt lat="42.523761786798914" lon="11.606104248121268"><ele>108.0</ele><time>2026-04-12T16:05:00Z</time></trkpt><trkpt lat="42.52383636024433" lon="11.606081841555659"><ele>108.0</ele><time>2026-04-12T16:05:01Z</time></trkpt><trkpt lat="42.52392263447594" lon="11.606072569102487"><ele>108.0</ele><time>2026-04-12T16:05:02Z</time></trkpt><trkpt lat="42.52401471658915" lon="11.606081837939064"><ele>107.60000000000001</ele><time>2026-04-12T16:05:03Z</time></trkpt><trkpt lat="42.52411290988173" lon="11.606081972273602"><ele>107.20000000000002</ele><time>2026-04-12T16:05:04Z</time></trkpt><trkpt lat="42.524205763437934" lon="11.606116351914766"><ele>106.8</ele><time>2026-04-12T16:05:05Z</time></trkpt><trkpt lat="42.52430440519878" lon="11.606137524209297"><ele>106.4</ele><time>2026-04-12T16:05:06Z</time></trkpt><trkpt lat="42.52440674546534" lon="11.606158736314775"><ele>106.0</ele><time>2026-04-12T16:05:07Z</time></trkpt><trkpt lat="42.52450945473893" lon="11.606163953352224"><ele>105.50000000000001</ele><time>2026-04-12T16:05:08Z</time></trkpt><trkpt lat="42.524601272221744" lon="11.606202533442493"><ele>105.0</ele><time>2026-04-12T16:05:09Z</time></trkpt><trkpt lat="42.52468959400832" lon="11.60621479671812"><ele>104.5</ele><time>2026-04-12T16:05:10Z</time></trkpt><trkpt lat="42.52478043092703" lon="11.606224539190583"><ele>104.0</ele><time>2026-04-12T16:05:11Z</time></trkpt><trkpt lat="42.52486635473851" lon="11.606205618167158"><ele>103.50000000000001</ele><time>2026-04-12T16:05:12Z</time></trkpt><trkpt lat="42.52495261807485" lon="11.60620736645221"><ele>103.0</ele><time>2026-04-12T16:05:13Z</time></trkpt><trkpt lat="42.52504842243664" lon="11.606173345285109"><ele>106.25</ele><time>2026-04-12T16:05:14Z</time></trkpt><trkpt lat="42.52514257475937" lon="11.606113286934873"><ele>109.5</ele><time>2026-04-12T16:05:15Z</time></trkpt><trkpt lat="42.525218785325556" lon="11.605999757052997"><ele>112.75</ele><time>2026-04-12T16:05:16Z</time></trkpt><trkpt lat="42.52530017669381" lon="11.605881084383125"><ele>116.0</ele><time>2026-04-12T16:05:17Z</time></trkpt><trkpt lat="42.52539339782681" lon="11.605780661624575"><ele>114.25</ele><time>2026-04-12T16:05:18Z</time></trkpt><trkpt lat="42.52548126092581" lon="11.605657668030474"><ele>112.5</ele><time>2026-04-12T16:05:19Z</time></trkpt><trkpt lat="42.525561091493394" lon="11.605532322988692"><ele>110.75</ele><time>2026-04-12T16:05:20Z</time></trkpt><trkpt lat="42.52563923608667" lon="11.60538777753667"><ele>109.0</ele><time>2026-04-12T16:05:21Z</time></trkpt><trkpt lat="42.52569152080399" lon="11.605251346565108"><ele>109.0</ele><time>2026-04-12T16:05:22Z</time></trkpt><trkpt lat="42.5257517730926" lon="11.605139482044716"><ele>109.0</ele><time>2026-04-12T16:05:23Z</time></trkpt><trkpt lat="42.52581563527393" lon="11.60503780516316"><ele>109.0</ele><time>2026-04-12T16:05:24Z</time></trkpt><trkpt lat="42.52588129397585" lon="11.604930597746087"><ele>109.0</ele><time>2026-04-12T16:05:25Z</time></trkpt><trkpt lat="42.52595095910763" lon="11.604821244278117"><ele>109.0</ele><time>2026-04-12T16:05:26Z</time></trkpt><trkpt lat="42.52601996467173" lon="11.604690476293241"><ele>109.0</ele><time>2026-04-12T16:05:27Z</time></trkpt><trkpt lat="42.526092984581126" lon="11.604573901466239"><ele>109.0</ele><time>2026-04-12T16:05:28Z</time></trkpt><trkpt lat="42.526151536526555" lon="11.604415521189923"><ele>109.0</ele><time>2026-04-12T16:05:29Z</time></trkpt><trkpt lat="42.526188236670436" lon="11.60424657216489"><ele>109.0</ele><time>2026-04-12T16:05:30Z</time></trkpt><trkpt lat="42.526235851449435" lon="11.604092195401673"><ele>107.5</ele><time>2026-04-12T16:05:31Z</time></trkpt><trkpt lat="42.52629623987504" lon="11.603954761755592"><ele>106.0</ele><time>2026-04-12T16:05:32Z</time></trkpt><trkpt lat="42.52637362102353" lon="11.603820197599125"><ele>104.5</ele><time>2026-04-12T16:05:33Z</time></trkpt><trkpt lat="42.52645609830193" lon="11.60369930409482"><ele>103.0</ele><time>2026-04-12T16:05:34Z</time></trkpt><trkpt lat="42.526539734009106" lon="11.603590604466993"><ele>106.75</ele><time>2026-04-12T16:05:35Z</time></trkpt><trkpt lat="42.52662060944252" lon="11.603462460990324"><ele>110.5</ele><time>2026-04-12T16:05:36Z</time></trkpt><trkpt lat="42.52668533408861" lon="11.60331425056924"><ele>114.25</ele><time>2026-04-12T16:05:36.999Z</time></trkpt><trkpt lat="42.52675042524041" lon="11.603141882466593"><ele>118.0</ele><time>2026-04-12T16:05:37.999Z</time></trkpt><trkpt lat="42.5268096873628" lon="11.602965453318049"><ele>121.75</ele><time>2026-04-12T16:05:38.999Z</time></trkpt><trkpt lat="42.526863184366064" lon="11.602793834686063"><ele>125.5</ele><time>2026-04-12T16:05:39.999Z</time></trkpt><trkpt lat="42.52692953320819" lon="11.602622172854513"><ele>129.25</ele><time>2026-04-12T16:05:40.999Z</time></trkpt><trkpt lat="42.52698202519889" lon="11.602480114381601"><ele>133.0</ele><time>2026-04-12T16:05:41.999Z</time></trkpt><trkpt lat="42.527019343776445" lon="11.602331256231599"><ele>133.0</ele><time>2026-04-12T16:05:42.999Z</time></trkpt><trkpt lat="42.52705584346523" lon="11.602193936037024"><ele>133.0</ele><time>2026-04-12T16:05:43.999Z</time></trkpt><trkpt lat="42.52709276837023" lon="11.602065097741033"><ele>133.0</ele><time>2026-04-12T16:05:44.999Z</time></trkpt><trkpt lat="42.52712685511929" lon="11.601926167014248"><ele>133.0</ele><time>2026-04-12T16:05:45.999Z</time></trkpt><trkpt lat="42.5271850862181" lon="11.601790659142585"><ele>133.0</ele><time>2026-04-12T16:05:46.999Z</time></trkpt><trkpt lat="42.52726725730391" lon="11.601702080442132"><ele>132.4</ele><time>2026-04-12T16:05:47.999Z</time></trkpt><trkpt lat="42.52731446899353" lon="11.601570725781112"><ele>131.8</ele><time>2026-04-12T16:05:48.999Z</time></trkpt><trkpt lat="42.52735088988428" lon="11.601462181567058"><ele>131.2</ele><time>2026-04-12T16:05:49.999Z</time></trkpt><trkpt lat="42.52739541612097" lon="11.601324565016789"><ele>130.6</ele><time>2026-04-12T16:05:51.999Z</time></trkpt><trkpt lat="42.52743201247908" lon="11.601156856960756"><ele>130.0</ele><time>2026-04-12T16:05:53.999Z</time></trkpt><trkpt lat="42.527471817424356" lon="11.601032083939076"><ele>130.0</ele><time>2026-04-12T16:05:54.999Z</time></trkpt><trkpt lat="42.527521060661776" lon="11.600899213652351"><ele>130.0</ele><time>2026-04-12T16:05:55.999Z</time></trkpt><trkpt lat="42.52758777624116" lon="11.600771996615423"><ele>130.0</ele><time>2026-04-12T16:05:56.999Z</time></trkpt><trkpt lat="42.5276585945779" lon="11.600628709123486"><ele>130.0</ele><time>2026-04-12T16:05:57.999Z</time></trkpt><trkpt lat="42.527728437351186" lon="11.600483117928134"><ele>134.0</ele><time>2026-04-12T16:05:58.999Z</time></trkpt><trkpt lat="42.52780307470509" lon="11.600324777663749"><ele>138.0</ele><time>2026-04-12T16:05:59.999Z</time></trkpt><trkpt lat="42.52788180272487" lon="11.600158649091638"><ele>142.0</ele><time>2026-04-12T16:06:00.999Z</time></trkpt><trkpt lat="42.52796623015533" lon="11.599995215207006"><ele>146.0</ele><time>2026-04-12T16:06:01.999Z</time></trkpt><trkpt lat="42.52804560412305" lon="11.599826990459135"><ele>140.0</ele><time>2026-04-12T16:06:02.999Z</time></trkpt><trkpt lat="42.52811556008484" lon="11.599676880626756"><ele>134.0</ele><time>2026-04-12T16:06:03.999Z</time></trkpt><trkpt lat="42.52817968606956" lon="11.599520437146104"><ele>128.0</ele><time>2026-04-12T16:06:04.999Z</time></trkpt><trkpt lat="42.52823398717595" lon="11.59934849772011"><ele>122.0</ele><time>2026-04-12T16:06:05.999Z</time></trkpt><trkpt lat="42.528262037438445" lon="11.599178162328949"><ele>122.0</ele><time>2026-04-12T16:06:06.999Z</time></trkpt><trkpt lat="42.52829935010722" lon="11.599028312240394"><ele>122.0</ele><time>2026-04-12T16:06:07.999Z</time></trkpt><trkpt lat="42.52836176435196" lon="11.598904277284166"><ele>122.0</ele><time>2026-04-12T16:06:08.999Z</time></trkpt><trkpt lat="42.52844571287128" lon="11.598764080085779"><ele>122.0</ele><time>2026-04-12T16:06:09.999Z</time></trkpt><trkpt lat="42.52854069348295" lon="11.598633749842737"><ele>119.75</ele><time>2026-04-12T16:06:10.999Z</time></trkpt><trkpt lat="42.52864191187813" lon="11.59850544230064"><ele>117.5</ele><time>2026-04-12T16:06:11.999Z</time></trkpt><trkpt lat="42.528745015181336" lon="11.59836623923122"><ele>115.25</ele><time>2026-04-12T16:06:12.999Z</time></trkpt><trkpt lat="42.528846170471446" lon="11.59821187502633"><ele>113.0</ele><time>2026-04-12T16:06:13.999Z</time></trkpt><trkpt lat="42.52894314152014" lon="11.59803994176321"><ele>113.0</ele><time>2026-04-12T16:06:14.999Z</time></trkpt><trkpt lat="42.52903804546499" lon="11.597850099946859"><ele>113.0</ele><time>2026-04-12T16:06:15.999Z</time></trkpt><trkpt lat="42.52911575011045" lon="11.597673156055041"><ele>113.0</ele><time>2026-04-12T16:06:16.999Z</time></trkpt><trkpt lat="42.52919454803985" lon="11.597492254578237"><ele>117.25</ele><time>2026-04-12T16:06:17.999Z</time></trkpt><trkpt lat="42.529261261087264" lon="11.597322689102569"><ele>121.5</ele><time>2026-04-12T16:06:18.999Z</time></trkpt><trkpt lat="42.52932020962473" lon="11.597146511495227"><ele>125.75</ele><time>2026-04-12T16:06:19.999Z</time></trkpt><trkpt lat="42.52936061712386" lon="11.596958855270252"><ele>130.0</ele><time>2026-04-12T16:06:20.999Z</time></trkpt><trkpt lat="42.52938522044723" lon="11.596752931775727"><ele>131.66666666666669</ele><time>2026-04-12T16:06:21.999Z</time></trkpt><trkpt lat="42.52939539896188" lon="11.596537436537817"><ele>133.33333333333334</ele><time>2026-04-12T16:06:22.999Z</time></trkpt><trkpt lat="42.52940263683523" lon="11.59632167312099"><ele>135.0</ele><time>2026-04-12T16:06:23.999Z</time></trkpt><trkpt lat="42.52941104470992" lon="11.596117938630876"><ele>135.0</ele><time>2026-04-12T16:06:24.999Z</time></trkpt><trkpt lat="42.52942859448491" lon="11.595927784971595"><ele>135.0</ele><time>2026-04-12T16:06:25.999Z</time></trkpt><trkpt lat="42.52949171859962" lon="11.595756378640072"><ele>135.0</ele><time>2026-04-12T16:06:26.999Z</time></trkpt><trkpt lat="42.52957518103243" lon="11.595590081633969"><ele>135.0</ele><time>2026-04-12T16:06:28Z</time></trkpt><trkpt lat="42.52965384861635" lon="11.595414651470652"><ele>130.0</ele><time>2026-04-12T16:06:29Z</time></trkpt><trkpt lat="42.52974522205421" lon="11.595244452920662"><ele>125.0</ele><time>2026-04-12T16:06:30Z</time></trkpt><trkpt lat="42.52980930836554" lon="11.59504927731564"><ele>120.0</ele><time>2026-04-12T16:06:31Z</time></trkpt><trkpt lat="42.52984821035922" lon="11.59482016841277"><ele>120.0</ele><time>2026-04-12T16:06:32Z</time></trkpt><trkpt lat="42.529883254611065" lon="11.594582111329569"><ele>120.0</ele><time>2026-04-12T16:06:33Z</time></trkpt><trkpt lat="42.529913959390925" lon="11.594374568474873"><ele>120.0</ele><time>2026-04-12T16:06:34Z</time></trkpt><trkpt lat="42.52994761890518" lon="11.594183113251884"><ele>121.5</ele><time>2026-04-12T16:06:35Z</time></trkpt><trkpt lat="42.5299720274378" lon="11.593995744532325"><ele>123.0</ele><time>2026-04-12T16:06:36Z</time></trkpt><trkpt lat="42.52998980335297" lon="11.5938199304028"><ele>124.5</ele><time>2026-04-12T16:06:37Z</time></trkpt><trkpt lat="42.53002251140842" lon="11.593658669364249"><ele>126.0</ele><time>2026-04-12T16:06:38Z</time></trkpt><trkpt lat="42.530088648749995" lon="11.593492096088875"><ele>122.33333333333334</ele><time>2026-04-12T16:06:39Z</time></trkpt><trkpt lat="42.53020830516813" lon="11.593379781087293"><ele>118.66666666666667</ele><time>2026-04-12T16:06:40Z</time></trkpt><trkpt lat="42.53033389331333" lon="11.59325333766243"><ele>115.0</ele><time>2026-04-12T16:06:41Z</time></trkpt><trkpt lat="42.530452743108306" lon="11.593097008739578"><ele>115.0</ele><time>2026-04-12T16:06:42Z</time></trkpt><trkpt lat="42.530578111122914" lon="11.592939795917573"><ele>115.0</ele><time>2026-04-12T16:06:43Z</time></trkpt><trkpt lat="42.53069481316521" lon="11.592754175396195"><ele>115.0</ele><time>2026-04-12T16:06:44Z</time></trkpt><trkpt lat="42.53081582832654" lon="11.592562758222918"><ele>119.0</ele><time>2026-04-12T16:06:45Z</time></trkpt><trkpt lat="42.5309391874038" lon="11.592375070125211"><ele>123.0</ele><time>2026-04-12T16:06:46Z</time></trkpt><trkpt lat="42.53106068656174" lon="11.592183849797102"><ele>127.0</ele><time>2026-04-12T16:06:47Z</time></trkpt><trkpt lat="42.531172459968275" lon="11.592012212226642"><ele>124.66666666666667</ele><time>2026-04-12T16:06:48Z</time></trkpt><trkpt lat="42.53129115411201" lon="11.591825880771038"><ele>122.33333333333334</ele><time>2026-04-12T16:06:49Z</time></trkpt><trkpt lat="42.531409924351024" lon="11.59164413557924"><ele>120.0</ele><time>2026-04-12T16:06:50Z</time></trkpt><trkpt lat="42.53152689268958" lon="11.591456524216971"><ele>120.0</ele><time>2026-04-12T16:06:51Z</time></trkpt><trkpt lat="42.531640535506355" lon="11.59126860202943"><ele>120.0</ele><time>2026-04-12T16:06:52Z</time></trkpt><trkpt lat="42.53175106038477" lon="11.591089291812922"><ele>120.0</ele><time>2026-04-12T16:06:53Z</time></trkpt><trkpt lat="42.5318481897806" lon="11.590931963832228"><ele>120.5</ele><time>2026-04-12T16:06:54Z</time></trkpt><trkpt lat="42.531932419594916" lon="11.590796484839489"><ele>121.0</ele><time>2026-04-12T16:06:55Z</time></trkpt><trkpt lat="42.53202193252629" lon="11.590658478195412"><ele>121.5</ele><time>2026-04-12T16:06:56Z</time></trkpt><trkpt lat="42.53212673136055" lon="11.590538017464914"><ele>122.0</ele><time>2026-04-12T16:06:57Z</time></trkpt><trkpt lat="42.53224595828339" lon="11.590427840966333"><ele>126.66666666666666</ele><time>2026-04-12T16:06:58Z</time></trkpt><trkpt lat="42.532382955973006" lon="11.59033171903392"><ele>131.33333333333334</ele><time>2026-04-12T16:06:59Z</time></trkpt><trkpt lat="42.532527678625016" lon="11.59024323948277"><ele>136.0</ele><time>2026-04-12T16:07:00Z</time></trkpt><trkpt lat="42.532676505749585" lon="11.590153502605258"><ele>136.0</ele><time>2026-04-12T16:07:01Z</time></trkpt><trkpt lat="42.532821724512935" lon="11.590064407884974"><ele>136.0</ele><time>2026-04-12T16:07:02Z</time></trkpt><trkpt lat="42.532965011160556" lon="11.590000593774548"><ele>136.0</ele><time>2026-04-12T16:07:03Z</time></trkpt><trkpt lat="42.53310894127715" lon="11.58993285418845"><ele>132.33333333333334</ele><time>2026-04-12T16:07:04Z</time></trkpt><trkpt lat="42.533245054712225" lon="11.589922392811415"><ele>128.66666666666666</ele><time>2026-04-12T16:07:05Z</time></trkpt><trkpt lat="42.53336566360021" lon="11.589922716481635"><ele>125.0</ele><time>2026-04-12T16:07:06Z</time></trkpt><trkpt lat="42.53357019929706" lon="11.589944403241686"><ele>123.0</ele><time>2026-04-12T16:07:07Z</time></trkpt><trkpt lat="42.5337398355684" lon="11.589960340458907"><ele>121.0</ele><time>2026-04-12T16:07:08Z</time></trkpt><trkpt lat="42.533905652944725" lon="11.589946029295572"><ele>119.0</ele><time>2026-04-12T16:07:09Z</time></trkpt><trkpt lat="42.534063119847765" lon="11.589939580545852"><ele>119.0</ele><time>2026-04-12T16:07:10Z</time></trkpt><trkpt lat="42.53421429775881" lon="11.58991576035507"><ele>119.0</ele><time>2026-04-12T16:07:11Z</time></trkpt><trkpt lat="42.53435745884393" lon="11.589880979209227"><ele>119.0</ele><time>2026-04-12T16:07:12Z</time></trkpt><trkpt lat="42.53449181863576" lon="11.58982601433516"><ele>119.0</ele><time>2026-04-12T16:07:13Z</time></trkpt><trkpt lat="42.53462392540661" lon="11.589725298790295"><ele>117.0</ele><time>2026-04-12T16:07:14Z</time></trkpt><trkpt lat="42.53475293123826" lon="11.589584434785248"><ele>115.0</ele><time>2026-04-12T16:07:15Z</time></trkpt><trkpt lat="42.53488118456285" lon="11.5894191612293"><ele>113.0</ele><time>2026-04-12T16:07:16Z</time></trkpt><trkpt lat="42.53501568638954" lon="11.589256493956778"><ele>113.0</ele><time>2026-04-12T16:07:17Z</time></trkpt><trkpt lat="42.53515301455476" lon="11.589101088742055"><ele>113.0</ele><time>2026-04-12T16:07:18Z</time></trkpt><trkpt lat="42.535304569954484" lon="11.588945835943615"><ele>113.0</ele><time>2026-04-12T16:07:19Z</time></trkpt><trkpt lat="42.53542921517813" lon="11.588801725962846"><ele>112.66666666666666</ele><time>2026-04-12T16:07:20Z</time></trkpt><trkpt lat="42.53555554876405" lon="11.588667527064032"><ele>112.33333333333334</ele><time>2026-04-12T16:07:21Z</time></trkpt><trkpt lat="42.53567776273857" lon="11.588540788401918"><ele>112.0</ele><time>2026-04-12T16:07:22Z</time></trkpt><trkpt lat="42.53579511743365" lon="11.5884130448215"><ele>112.0</ele><time>2026-04-12T16:07:23Z</time></trkpt><trkpt lat="42.535912147872615" lon="11.588295309474157"><ele>112.0</ele><time>2026-04-12T16:07:24Z</time></trkpt><trkpt lat="42.53604847646908" lon="11.588208160759741"><ele>112.0</ele><time>2026-04-12T16:07:25Z</time></trkpt><trkpt lat="42.536194000567974" lon="11.588144920068519"><ele>112.0</ele><time>2026-04-12T16:07:26Z</time></trkpt><trkpt lat="42.53634783870502" lon="11.588106605992218"><ele>112.0</ele><time>2026-04-12T16:07:27Z</time></trkpt><trkpt lat="42.53651831330281" lon="11.588070880108585"><ele>112.0</ele><time>2026-04-12T16:07:28Z</time></trkpt><trkpt lat="42.53669283703371" lon="11.588022439701177"><ele>112.0</ele><time>2026-04-12T16:07:29Z</time></trkpt><trkpt lat="42.53683565249897" lon="11.587995349625013"><ele>112.0</ele><time>2026-04-12T16:07:30Z</time></trkpt><trkpt lat="42.53694264374616" lon="11.587957494111262"><ele>112.0</ele><time>2026-04-12T16:07:31Z</time></trkpt><trkpt lat="42.53703348835003" lon="11.587880460899767"><ele>112.0</ele><time>2026-04-12T16:07:32Z</time></trkpt><trkpt lat="42.53711608742763" lon="11.58776821465925"><ele>112.0</ele><time>2026-04-12T16:07:33Z</time></trkpt><trkpt lat="42.537182453925794" lon="11.587628046734578"><ele>111.5</ele><time>2026-04-12T16:07:34Z</time></trkpt><trkpt lat="42.53724256098033" lon="11.58747168620052"><ele>111.0</ele><time>2026-04-12T16:07:35Z</time></trkpt><trkpt lat="42.53731160800779" lon="11.58730805088308"><ele>110.5</ele><time>2026-04-12T16:07:36Z</time></trkpt><trkpt lat="42.53739070269345" lon="11.587136171861363"><ele>110.0</ele><time>2026-04-12T16:07:37Z</time></trkpt><trkpt lat="42.53747441522002" lon="11.586956250811133"><ele>112.0</ele><time>2026-04-12T16:07:38Z</time></trkpt><trkpt lat="42.53756113248047" lon="11.58677092820584"><ele>114.0</ele><time>2026-04-12T16:07:39Z</time></trkpt><trkpt lat="42.537648927365375" lon="11.586579765833797"><ele>116.0</ele><time>2026-04-12T16:07:40Z</time></trkpt><trkpt lat="42.537748223304696" lon="11.58640802462819"><ele>116.0</ele><time>2026-04-12T16:07:41Z</time></trkpt><trkpt lat="42.53787672980511" lon="11.58627218511667"><ele>116.0</ele><time>2026-04-12T16:07:41.999Z</time></trkpt><trkpt lat="42.53799721548861" lon="11.586127736572243"><ele>116.0</ele><time>2026-04-12T16:07:42.999Z</time></trkpt><trkpt lat="42.5381377585687" lon="11.585994582229091"><ele>115.33333333333333</ele><time>2026-04-12T16:07:43.999Z</time></trkpt><trkpt lat="42.53827728354645" lon="11.58586132898848"><ele>114.66666666666666</ele><time>2026-04-12T16:07:44.999Z</time></trkpt><trkpt lat="42.538415215534044" lon="11.585729436839435"><ele>114.0</ele><time>2026-04-12T16:07:45.999Z</time></trkpt><trkpt lat="42.53854767166963" lon="11.585603986986728"><ele>114.0</ele><time>2026-04-12T16:07:46.999Z</time></trkpt><trkpt lat="42.538683469562415" lon="11.585472160068718"><ele>114.0</ele><time>2026-04-12T16:07:47.999Z</time></trkpt><trkpt lat="42.53881372776709" lon="11.585348445624172"><ele>114.0</ele><time>2026-04-12T16:07:48.999Z</time></trkpt><trkpt lat="42.538940353649004" lon="11.58523391990162"><ele>113.0</ele><time>2026-04-12T16:07:49.999Z</time></trkpt><trkpt lat="42.5390583996936" lon="11.585123098080512"><ele>112.0</ele><time>2026-04-12T16:07:50.999Z</time></trkpt><trkpt lat="42.53916354893622" lon="11.585010192591767"><ele>111.0</ele><time>2026-04-12T16:07:51.999Z</time></trkpt><trkpt lat="42.53926072594734" lon="11.584887795373348"><ele>110.0</ele><time>2026-04-12T16:07:52.999Z</time></trkpt><trkpt lat="42.53933968351079" lon="11.584742218390844"><ele>110.0</ele><time>2026-04-12T16:07:53.999Z</time></trkpt><trkpt lat="42.539400129573885" lon="11.584564650650343"><ele>110.0</ele><time>2026-04-12T16:07:54.999Z</time></trkpt><trkpt lat="42.53943545181746" lon="11.58437569003925"><ele>110.0</ele><time>2026-04-12T16:07:55.999Z</time></trkpt><trkpt lat="42.53948267806605" lon="11.5841547318786"><ele>110.0</ele><time>2026-04-12T16:07:56.999Z</time></trkpt><trkpt lat="42.539533427890305" lon="11.583942942756536"><ele>110.0</ele><time>2026-04-12T16:07:57.999Z</time></trkpt><trkpt lat="42.53958940650987" lon="11.583731807185224"><ele>110.0</ele><time>2026-04-12T16:07:58.999Z</time></trkpt><trkpt lat="42.539647179637306" lon="11.583509308388148"><ele>108.66666666666666</ele><time>2026-04-12T16:07:59.999Z</time></trkpt><trkpt lat="42.539706980940956" lon="11.58328319748829"><ele>107.33333333333334</ele><time>2026-04-12T16:08:00.999Z</time></trkpt><trkpt lat="42.53976656951844" lon="11.583051236293786"><ele>106.0</ele><time>2026-04-12T16:08:01.999Z</time></trkpt><trkpt lat="42.53982509928442" lon="11.582806697103912"><ele>106.0</ele><time>2026-04-12T16:08:02.999Z</time></trkpt><trkpt lat="42.53988535460535" lon="11.582564976928305"><ele>106.0</ele><time>2026-04-12T16:08:03.999Z</time></trkpt><trkpt lat="42.53994547314703" lon="11.582321857766692"><ele>106.0</ele><time>2026-04-12T16:08:04.999Z</time></trkpt><trkpt lat="42.54000636757919" lon="11.582083647172112"><ele>106.0</ele><time>2026-04-12T16:08:05.999Z</time></trkpt><trkpt lat="42.540066189927046" lon="11.581839655871063"><ele>106.0</ele><time>2026-04-12T16:08:06.999Z</time></trkpt><trkpt lat="42.540127184241236" lon="11.581600836151484"><ele>106.0</ele><time>2026-04-12T16:08:07.999Z</time></trkpt><trkpt lat="42.54018906161121" lon="11.581365238901315"><ele>106.66666666666667</ele><time>2026-04-12T16:08:08.999Z</time></trkpt><trkpt lat="42.54025159546774" lon="11.581121670861231"><ele>107.33333333333334</ele><time>2026-04-12T16:08:09.999Z</time></trkpt><trkpt lat="42.5403144068016" lon="11.58087427130092"><ele>108.0</ele><time>2026-04-12T16:08:10.999Z</time></trkpt><trkpt lat="42.54037370069237" lon="11.580621392269029"><ele>108.33333333333334</ele><time>2026-04-12T16:08:11.999Z</time></trkpt><trkpt lat="42.54043336350818" lon="11.580379163400803"><ele>108.66666666666667</ele><time>2026-04-12T16:08:12.999Z</time></trkpt><trkpt lat="42.54049551833292" lon="11.580135900792875"><ele>109.0</ele><time>2026-04-12T16:08:13.999Z</time></trkpt><trkpt lat="42.54055902465655" lon="11.579898987087976"><ele>110.0</ele><time>2026-04-12T16:08:14.999Z</time></trkpt><trkpt lat="42.54061947886045" lon="11.579653996302783"><ele>111.0</ele><time>2026-04-12T16:08:15.999Z</time></trkpt><trkpt lat="42.54067898691354" lon="11.579404303903871"><ele>112.0</ele><time>2026-04-12T16:08:16.999Z</time></trkpt><trkpt lat="42.540738644825474" lon="11.579160463217374"><ele>112.0</ele><time>2026-04-12T16:08:17.999Z</time></trkpt><trkpt lat="42.54080505235627" lon="11.578917762490109"><ele>112.0</ele><time>2026-04-12T16:08:18.999Z</time></trkpt><trkpt lat="42.5408689739547" lon="11.578678241125104"><ele>112.0</ele><time>2026-04-12T16:08:19.999Z</time></trkpt><trkpt lat="42.54092558504926" lon="11.578437847850216"><ele>112.66666666666667</ele><time>2026-04-12T16:08:20.999Z</time></trkpt><trkpt lat="42.54098553134607" lon="11.578183943671577"><ele>113.33333333333334</ele><time>2026-04-12T16:08:21.999Z</time></trkpt><trkpt lat="42.54105092535482" lon="11.577927915958433"><ele>114.0</ele><time>2026-04-12T16:08:22.999Z</time></trkpt><trkpt lat="42.54111835368521" lon="11.577663057587522"><ele>114.0</ele><time>2026-04-12T16:08:23.999Z</time></trkpt><trkpt lat="42.54118589231407" lon="11.57739760445788"><ele>114.0</ele><time>2026-04-12T16:08:24.999Z</time></trkpt><trkpt lat="42.54125408093576" lon="11.577128963104713"><ele>114.0</ele><time>2026-04-12T16:08:25.999Z</time></trkpt><trkpt lat="42.54132087131727" lon="11.5768644142056"><ele>116.0</ele><time>2026-04-12T16:08:26.999Z</time></trkpt><trkpt lat="42.541387005923774" lon="11.576601158259038"><ele>118.0</ele><time>2026-04-12T16:08:27.999Z</time></trkpt><trkpt lat="42.54145205619873" lon="11.57634325103757"><ele>120.0</ele><time>2026-04-12T16:08:28.999Z</time></trkpt><trkpt lat="42.54151610252375" lon="11.57608132373392"><ele>120.33333333333334</ele><time>2026-04-12T16:08:29.999Z</time></trkpt><trkpt lat="42.54158239762586" lon="11.575831923357553"><ele>120.66666666666667</ele><time>2026-04-12T16:08:30.999Z</time></trkpt><trkpt lat="42.54164558722156" lon="11.575603591151959"><ele>121.0</ele><time>2026-04-12T16:08:31.999Z</time></trkpt><trkpt lat="42.54170212942692" lon="11.575374555244636"><ele>123.0</ele><time>2026-04-12T16:08:32.999Z</time></trkpt><trkpt lat="42.54175701831319" lon="11.575152036552671"><ele>125.0</ele><time>2026-04-12T16:08:34Z</time></trkpt><trkpt lat="42.541804184952596" lon="11.57493898746982"><ele>127.0</ele><time>2026-04-12T16:08:35Z</time></trkpt><trkpt lat="42.54182496008167" lon="11.574744909938198"><ele>127.0</ele><time>2026-04-12T16:08:36Z</time></trkpt><trkpt lat="42.54181201256907" lon="11.574539682095129"><ele>127.0</ele><time>2026-04-12T16:08:37Z</time></trkpt><trkpt lat="42.54175735893936" lon="11.574348109450051"><ele>127.0</ele><time>2026-04-12T16:08:38Z</time></trkpt><trkpt lat="42.541684826834974" lon="11.574173876418268"><ele>129.66666666666669</ele><time>2026-04-12T16:08:39Z</time></trkpt><trkpt lat="42.541624958523364" lon="11.573984726157878"><ele>132.33333333333334</ele><time>2026-04-12T16:08:40Z</time></trkpt><trkpt lat="42.54158355546228" lon="11.573779398889371"><ele>135.0</ele><time>2026-04-12T16:08:41Z</time></trkpt><trkpt lat="42.54155805658316" lon="11.573573994177357"><ele>138.66666666666666</ele><time>2026-04-12T16:08:42Z</time></trkpt><trkpt lat="42.541511157342754" lon="11.573367935961993"><ele>142.33333333333331</ele><time>2026-04-12T16:08:43Z</time></trkpt><trkpt lat="42.54145548629882" lon="11.57317587242755"><ele>146.0</ele><time>2026-04-12T16:08:44Z</time></trkpt><trkpt lat="42.541401414597196" lon="11.572970360416063"><ele>149.33333333333331</ele><time>2026-04-12T16:08:45Z</time></trkpt><trkpt lat="42.54134640533948" lon="11.57276165737057"><ele>152.66666666666666</ele><time>2026-04-12T16:08:46Z</time></trkpt><trkpt lat="42.541289704923805" lon="11.57255508352395"><ele>156.0</ele><time>2026-04-12T16:08:47Z</time></trkpt><trkpt lat="42.54123010105979" lon="11.572336176227981"><ele>152.0</ele><time>2026-04-12T16:08:48Z</time></trkpt><trkpt lat="42.541173923715505" lon="11.5721269494942"><ele>148.0</ele><time>2026-04-12T16:08:49Z</time></trkpt><trkpt lat="42.54112180957267" lon="11.571921195761941"><ele>144.0</ele><time>2026-04-12T16:08:50Z</time></trkpt><trkpt lat="42.54107412187896" lon="11.571711374960568"><ele>144.0</ele><time>2026-04-12T16:08:51Z</time></trkpt><trkpt lat="42.54103220387865" lon="11.571496547881223"><ele>144.0</ele><time>2026-04-12T16:08:52Z</time></trkpt><trkpt lat="42.54102683866381" lon="11.571274231718926"><ele>144.0</ele><time>2026-04-12T16:08:53Z</time></trkpt><trkpt lat="42.54099465738405" lon="11.571044099734973"><ele>144.33333333333334</ele><time>2026-04-12T16:08:54Z</time></trkpt><trkpt lat="42.540991529415464" lon="11.570813141306122"><ele>144.66666666666669</ele><time>2026-04-12T16:08:55Z</time></trkpt><trkpt lat="42.5409819432177" lon="11.570567856501768"><ele>145.0</ele><time>2026-04-12T16:08:56Z</time></trkpt><trkpt lat="42.540958718237356" lon="11.570317270075838"><ele>145.66666666666669</ele><time>2026-04-12T16:08:57Z</time></trkpt><trkpt lat="42.54093376213229" lon="11.570077031559244"><ele>146.33333333333334</ele><time>2026-04-12T16:08:58Z</time></trkpt><trkpt lat="42.540913039746314" lon="11.56982485135672"><ele>147.0</ele><time>2026-04-12T16:08:59Z</time></trkpt><trkpt lat="42.5408948163937" lon="11.569583136535998"><ele>147.66666666666666</ele><time>2026-04-12T16:09:00Z</time></trkpt><trkpt lat="42.54088670049639" lon="11.569332741825825"><ele>148.33333333333331</ele><time>2026-04-12T16:09:01Z</time></trkpt><trkpt lat="42.54091613248518" lon="11.569100893379318"><ele>149.0</ele><time>2026-04-12T16:09:02Z</time></trkpt><trkpt lat="42.54093635580792" lon="11.568855683858729"><ele>147.66666666666666</ele><time>2026-04-12T16:09:03Z</time></trkpt><trkpt lat="42.54098225490746" lon="11.568636169057521"><ele>146.33333333333334</ele><time>2026-04-12T16:09:04Z</time></trkpt><trkpt lat="42.541068641105134" lon="11.568451704876919"><ele>145.0</ele><time>2026-04-12T16:09:05Z</time></trkpt><trkpt lat="42.54115678249288" lon="11.568274998229063"><ele>156.66666666666669</ele><time>2026-04-12T16:09:06Z</time></trkpt><trkpt lat="42.541238661278065" lon="11.568082304948396"><ele>168.33333333333334</ele><time>2026-04-12T16:09:07Z</time></trkpt><trkpt lat="42.541332395488716" lon="11.567909450073987"><ele>180.0</ele><time>2026-04-12T16:09:08Z</time></trkpt><trkpt lat="42.54141777044308" lon="11.567717349120596"><ele>180.0</ele><time>2026-04-12T16:09:09Z</time></trkpt><trkpt lat="42.54147872445609" lon="11.56750928147953"><ele>180.0</ele><time>2026-04-12T16:09:10Z</time></trkpt><trkpt lat="42.54151104631051" lon="11.567278343302272"><ele>180.0</ele><time>2026-04-12T16:09:11Z</time></trkpt><trkpt lat="42.541518377378026" lon="11.567046050375147"><ele>178.33333333333334</ele><time>2026-04-12T16:09:12Z</time></trkpt><trkpt lat="42.54151889150273" lon="11.56680750599432"><ele>176.66666666666669</ele><time>2026-04-12T16:09:13Z</time></trkpt><trkpt lat="42.54153826570436" lon="11.566579282965042"><ele>175.0</ele><time>2026-04-12T16:09:14Z</time></trkpt><trkpt lat="42.54155426317735" lon="11.566350744044321"><ele>175.0</ele><time>2026-04-12T16:09:15Z</time></trkpt><trkpt lat="42.541585167794956" lon="11.566127708815708"><ele>175.0</ele><time>2026-04-12T16:09:16Z</time></trkpt><trkpt lat="42.541627555893236" lon="11.565905930281604"><ele>175.0</ele><time>2026-04-12T16:09:17Z</time></trkpt><trkpt lat="42.54168761333796" lon="11.565683750371957"><ele>175.0</ele><time>2026-04-12T16:09:18Z</time></trkpt><trkpt lat="42.54174867398527" lon="11.565466134736598"><ele>175.0</ele><time>2026-04-12T16:09:19Z</time></trkpt><trkpt lat="42.54178603591905" lon="11.56525214877915"><ele>175.0</ele><time>2026-04-12T16:09:20Z</time></trkpt><trkpt lat="42.54180158984303" lon="11.565054022235593"><ele>174.5</ele><time>2026-04-12T16:09:21Z</time></trkpt><trkpt lat="42.541770903208885" lon="11.564872984632567"><ele>174.0</ele><time>2026-04-12T16:09:22Z</time></trkpt><trkpt lat="42.541724420210336" lon="11.564697820710709"><ele>173.5</ele><time>2026-04-12T16:09:23Z</time></trkpt><trkpt lat="42.54171307194737" lon="11.564530797885768"><ele>173.0</ele><time>2026-04-12T16:09:24Z</time></trkpt><trkpt lat="42.54172499020245" lon="11.56437821584792"><ele>172.5</ele><time>2026-04-12T16:09:25Z</time></trkpt><trkpt lat="42.54174192054137" lon="11.564208892447537"><ele>172.0</ele><time>2026-04-12T16:09:26Z</time></trkpt><trkpt lat="42.54182312366203" lon="11.564060002783997"><ele>171.5</ele><time>2026-04-12T16:09:27Z</time></trkpt><trkpt lat="42.54190273930765" lon="11.563905200025069"><ele>171.0</ele><time>2026-04-12T16:09:28Z</time></trkpt><trkpt lat="42.54198372624728" lon="11.563743660697343"><ele>181.66666666666669</ele><time>2026-04-12T16:09:29Z</time></trkpt><trkpt lat="42.54206651196814" lon="11.563578533477278"><ele>192.33333333333334</ele><time>2026-04-12T16:09:30Z</time></trkpt><trkpt lat="42.542152982093796" lon="11.56340361785276"><ele>203.0</ele><time>2026-04-12T16:09:31Z</time></trkpt><trkpt lat="42.54223025489431" lon="11.563212359661707"><ele>203.0</ele><time>2026-04-12T16:09:32Z</time></trkpt><trkpt lat="42.54232000963631" lon="11.563016643922825"><ele>203.0</ele><time>2026-04-12T16:09:33Z</time></trkpt><trkpt lat="42.54240632807769" lon="11.56282063384607"><ele>203.0</ele><time>2026-04-12T16:09:34Z</time></trkpt><trkpt lat="42.542488618145185" lon="11.562625326594596"><ele>196.0</ele><time>2026-04-12T16:09:35Z</time></trkpt><trkpt lat="42.54258647884877" lon="11.562443091609943"><ele>189.0</ele><time>2026-04-12T16:09:36Z</time></trkpt><trkpt lat="42.54265394433197" lon="11.562247028964103"><ele>182.0</ele><time>2026-04-12T16:09:37Z</time></trkpt><trkpt lat="42.54271417145911" lon="11.562063844386927"><ele>181.33333333333331</ele><time>2026-04-12T16:09:38Z</time></trkpt><trkpt lat="42.54272689179324" lon="11.561864262883748"><ele>180.66666666666666</ele><time>2026-04-12T16:09:39Z</time></trkpt><trkpt lat="42.54272245452036" lon="11.56166180758464"><ele>180.0</ele><time>2026-04-12T16:09:40Z</time></trkpt><trkpt lat="42.542682779045805" lon="11.561460448853442"><ele>180.0</ele><time>2026-04-12T16:09:41Z</time></trkpt><trkpt lat="42.54264240684559" lon="11.561258027258981"><ele>180.0</ele><time>2026-04-12T16:09:42Z</time></trkpt><trkpt lat="42.542590781342085" lon="11.561079952911545"><ele>180.0</ele><time>2026-04-12T16:09:43Z</time></trkpt><trkpt lat="42.542578295746274" lon="11.560909514766687"><ele>180.0</ele><time>2026-04-12T16:09:44Z</time></trkpt><trkpt lat="42.54259453070929" lon="11.560753886894128"><ele>181.25</ele><time>2026-04-12T16:09:45Z</time></trkpt><trkpt lat="42.54264922577203" lon="11.560619630842815"><ele>182.5</ele><time>2026-04-12T16:09:45.999Z</time></trkpt><trkpt lat="42.54272964842301" lon="11.560518375555034"><ele>183.75</ele><time>2026-04-12T16:09:46.999Z</time></trkpt><trkpt lat="42.54283339141744" lon="11.56044526497594"><ele>185.0</ele><time>2026-04-12T16:09:47.999Z</time></trkpt><trkpt lat="42.542949538864505" lon="11.560403474605055"><ele>189.0</ele><time>2026-04-12T16:09:48.999Z</time></trkpt><trkpt lat="42.543067977198156" lon="11.560351997260085"><ele>193.0</ele><time>2026-04-12T16:09:49.999Z</time></trkpt><trkpt lat="42.54319103382492" lon="11.560287565066368"><ele>197.0</ele><time>2026-04-12T16:09:50.999Z</time></trkpt><trkpt lat="42.54331369072641" lon="11.56020801440565"><ele>201.0</ele><time>2026-04-12T16:09:51.999Z</time></trkpt><trkpt lat="42.54342363981077" lon="11.560103572195183"><ele>201.0</ele><time>2026-04-12T16:09:52.999Z</time></trkpt><trkpt lat="42.54353675211617" lon="11.559977320197"><ele>201.0</ele><time>2026-04-12T16:09:53.999Z</time></trkpt><trkpt lat="42.543620119800984" lon="11.559795751510029"><ele>201.0</ele><time>2026-04-12T16:09:54.999Z</time></trkpt><trkpt lat="42.54373482685223" lon="11.559645062073923"><ele>202.5</ele><time>2026-04-12T16:09:55.999Z</time></trkpt><trkpt lat="42.543852038957134" lon="11.559508731351533"><ele>204.0</ele><time>2026-04-12T16:09:56.999Z</time></trkpt><trkpt lat="42.543943531659345" lon="11.559433816355547"><ele>205.5</ele><time>2026-04-12T16:09:57.999Z</time></trkpt><trkpt lat="42.5440745886514" lon="11.559338711016178"><ele>207.0</ele><time>2026-04-12T16:09:58.999Z</time></trkpt><trkpt lat="42.54421159232569" lon="11.559240571566127"><ele>207.0</ele><time>2026-04-12T16:09:59.999Z</time></trkpt><trkpt lat="42.54434674661167" lon="11.559149399975668"><ele>207.0</ele><time>2026-04-12T16:10:00.999Z</time></trkpt><trkpt lat="42.54447685130165" lon="11.55907093281795"><ele>207.0</ele><time>2026-04-12T16:10:01.999Z</time></trkpt><trkpt lat="42.54460792950632" lon="11.55902435245948"><ele>207.0</ele><time>2026-04-12T16:10:02.999Z</time></trkpt><trkpt lat="42.54474179857373" lon="11.559023548642777"><ele>210.25</ele><time>2026-04-12T16:10:03.999Z</time></trkpt><trkpt lat="42.54487420784369" lon="11.55906487020841"><ele>213.5</ele><time>2026-04-12T16:10:04.999Z</time></trkpt><trkpt lat="42.54501188425843" lon="11.559125028333238"><ele>216.75</ele><time>2026-04-12T16:10:05.999Z</time></trkpt><trkpt lat="42.54514153810747" lon="11.55919390701336"><ele>220.0</ele><time>2026-04-12T16:10:06.999Z</time></trkpt><trkpt lat="42.54527587259395" lon="11.559233655204904"><ele>222.25</ele><time>2026-04-12T16:10:07.999Z</time></trkpt><trkpt lat="42.54541276617891" lon="11.559244870709506"><ele>224.5</ele><time>2026-04-12T16:10:08.999Z</time></trkpt><trkpt lat="42.54554357650501" lon="11.55919882918205"><ele>226.75</ele><time>2026-04-12T16:10:09.999Z</time></trkpt><trkpt lat="42.545655815752646" lon="11.559096577367825"><ele>229.0</ele><time>2026-04-12T16:10:10.999Z</time></trkpt><trkpt lat="42.54573892660998" lon="11.558942842546225"><ele>229.0</ele><time>2026-04-12T16:10:11.999Z</time></trkpt><trkpt lat="42.54580358664242" lon="11.558762751782949"><ele>229.0</ele><time>2026-04-12T16:10:12.999Z</time></trkpt><trkpt lat="42.54586744376508" lon="11.558583794264736"><ele>229.0</ele><time>2026-04-12T16:10:13.999Z</time></trkpt><trkpt lat="42.545933075571995" lon="11.558403601509443"><ele>229.0</ele><time>2026-04-12T16:10:14.999Z</time></trkpt><trkpt lat="42.54600407713591" lon="11.558234252667276"><ele>229.75</ele><time>2026-04-12T16:10:15.999Z</time></trkpt><trkpt lat="42.5461121182397" lon="11.558117683163518"><ele>230.5</ele><time>2026-04-12T16:10:16.999Z</time></trkpt><trkpt lat="42.5462306669494" lon="11.558038848345127"><ele>231.25</ele><time>2026-04-12T16:10:17.999Z</time></trkpt><trkpt lat="42.546361040104536" lon="11.558000820664953"><ele>232.0</ele><time>2026-04-12T16:10:18.999Z</time></trkpt><trkpt lat="42.54649584484074" lon="11.557943584183327"><ele>229.5</ele><time>2026-04-12T16:10:19.999Z</time></trkpt><trkpt lat="42.54661265316453" lon="11.557847393540184"><ele>227.0</ele><time>2026-04-12T16:10:20.999Z</time></trkpt><trkpt lat="42.54669976042971" lon="11.557724131806403"><ele>224.5</ele><time>2026-04-12T16:10:21.999Z</time></trkpt><trkpt lat="42.546753556156425" lon="11.557547544630149"><ele>222.0</ele><time>2026-04-12T16:10:22.999Z</time></trkpt><trkpt lat="42.546772064895706" lon="11.557359979846556"><ele>222.0</ele><time>2026-04-12T16:10:23.999Z</time></trkpt><trkpt lat="42.54678708295261" lon="11.557165657118293"><ele>222.0</ele><time>2026-04-12T16:10:24.999Z</time></trkpt><trkpt lat="42.54680903629044" lon="11.556968719738395"><ele>222.0</ele><time>2026-04-12T16:10:25.999Z</time></trkpt><trkpt lat="42.54683522389531" lon="11.556777577260505"><ele>222.0</ele><time>2026-04-12T16:10:26.999Z</time></trkpt><trkpt lat="42.54686604393184" lon="11.556613974091336"><ele>221.6</ele><time>2026-04-12T16:10:27.999Z</time></trkpt><trkpt lat="42.54692722811813" lon="11.556494201525618"><ele>221.2</ele><time>2026-04-12T16:10:28.999Z</time></trkpt><trkpt lat="42.546995828200735" lon="11.556396059265536"><ele>220.8</ele><time>2026-04-12T16:10:29.999Z</time></trkpt><trkpt lat="42.547094591385516" lon="11.556338530161652"><ele>220.4</ele><time>2026-04-12T16:10:30.999Z</time></trkpt><trkpt lat="42.547215313944776" lon="11.556337736957568"><ele>220.0</ele><time>2026-04-12T16:10:31.999Z</time></trkpt><trkpt lat="42.54733387366465" lon="11.556358013589064"><ele>223.25</ele><time>2026-04-12T16:10:32.999Z</time></trkpt><trkpt lat="42.547460406831604" lon="11.556368127353918"><ele>226.5</ele><time>2026-04-12T16:10:33.999Z</time></trkpt><trkpt lat="42.54759336406533" lon="11.556402983615003"><ele>229.75</ele><time>2026-04-12T16:10:34.999Z</time></trkpt><trkpt lat="42.54773323907951" lon="11.556423373005389"><ele>233.0</ele><time>2026-04-12T16:10:35.999Z</time></trkpt><trkpt lat="42.54787678506639" lon="11.556437129975283"><ele>233.0</ele><time>2026-04-12T16:10:36.999Z</time></trkpt><trkpt lat="42.54801990850749" lon="11.556461144958803"><ele>233.0</ele><time>2026-04-12T16:10:37.999Z</time></trkpt><trkpt lat="42.548161023071046" lon="11.55650272742532"><ele>233.0</ele><time>2026-04-12T16:10:38.999Z</time></trkpt><trkpt lat="42.54831144359168" lon="11.556522657816808"><ele>233.0</ele><time>2026-04-12T16:10:40Z</time></trkpt><trkpt lat="42.548465044190934" lon="11.55654622918439"><ele>233.0</ele><time>2026-04-12T16:10:41Z</time></trkpt><trkpt lat="42.548598214031195" lon="11.556573465938403"><ele>233.0</ele><time>2026-04-12T16:10:42Z</time></trkpt><trkpt lat="42.54873895761224" lon="11.556604826971618"><ele>233.0</ele><time>2026-04-12T16:10:43Z</time></trkpt><trkpt lat="42.5488794999974" lon="11.556623909570265"><ele>233.0</ele><time>2026-04-12T16:10:44Z</time></trkpt><trkpt lat="42.54901545940409" lon="11.556638968964497"><ele>234.75</ele><time>2026-04-12T16:10:45Z</time></trkpt><trkpt lat="42.5491591567075" lon="11.556631524737458"><ele>236.5</ele><time>2026-04-12T16:10:46Z</time></trkpt><trkpt lat="42.549305204738836" lon="11.556594446861626"><ele>238.25</ele><time>2026-04-12T16:10:47Z</time></trkpt><trkpt lat="42.54945348559055" lon="11.556546567723087"><ele>240.0</ele><time>2026-04-12T16:10:48Z</time></trkpt><trkpt lat="42.54961141004842" lon="11.556520663900088"><ele>242.66666666666669</ele><time>2026-04-12T16:10:49Z</time></trkpt><trkpt lat="42.54976424720506" lon="11.556480263370252"><ele>245.33333333333334</ele><time>2026-04-12T16:10:50Z</time></trkpt><trkpt lat="42.54992831397385" lon="11.556436894559853"><ele>248.0</ele><time>2026-04-12T16:10:51Z</time></trkpt><trkpt lat="42.550092893939606" lon="11.556372507039994"><ele>248.0</ele><time>2026-04-12T16:10:52Z</time></trkpt><trkpt lat="42.55026041095859" lon="11.556323274035728"><ele>248.0</ele><time>2026-04-12T16:10:53Z</time></trkpt><trkpt lat="42.5504128215332" lon="11.556270301172665"><ele>248.0</ele><time>2026-04-12T16:10:54Z</time></trkpt><trkpt lat="42.55055319691815" lon="11.556194044144705"><ele>248.25</ele><time>2026-04-12T16:10:55Z</time></trkpt><trkpt lat="42.55066034236813" lon="11.556094676026692"><ele>248.5</ele><time>2026-04-12T16:10:56Z</time></trkpt><trkpt lat="42.55075846042852" lon="11.555982237670628"><ele>248.75</ele><time>2026-04-12T16:10:57Z</time></trkpt><trkpt lat="42.55086611588391" lon="11.55586681266942"><ele>249.0</ele><time>2026-04-12T16:10:58Z</time></trkpt><trkpt lat="42.55097491984405" lon="11.555755349410648"><ele>249.0</ele><time>2026-04-12T16:10:59Z</time></trkpt><trkpt lat="42.55107425188737" lon="11.555651312679927"><ele>249.0</ele><time>2026-04-12T16:11:00Z</time></trkpt><trkpt lat="42.55117530253466" lon="11.555545027184314"><ele>249.0</ele><time>2026-04-12T16:11:01Z</time></trkpt><trkpt lat="42.551276483958674" lon="11.555436023778908"><ele>249.0</ele><time>2026-04-12T16:11:02Z</time></trkpt><trkpt lat="42.55138108177045" lon="11.555322669502614"><ele>251.5</ele><time>2026-04-12T16:11:03Z</time></trkpt><trkpt lat="42.55149103475764" lon="11.55520896636058"><ele>254.0</ele><time>2026-04-12T16:11:04Z</time></trkpt><trkpt lat="42.55160308521002" lon="11.55509253937827"><ele>256.5</ele><time>2026-04-12T16:11:05Z</time></trkpt><trkpt lat="42.55171667797775" lon="11.55497174567669"><ele>259.0</ele><time>2026-04-12T16:11:06Z</time></trkpt><trkpt lat="42.551828338075794" lon="11.554853811581316"><ele>259.0</ele><time>2026-04-12T16:11:07Z</time></trkpt><trkpt lat="42.551923282764186" lon="11.554752574818936"><ele>259.0</ele><time>2026-04-12T16:11:08Z</time></trkpt><trkpt lat="42.551988045619076" lon="11.554693089439441"><ele>259.0</ele><time>2026-04-12T16:11:09Z</time></trkpt><trkpt lat="42.552060159455294" lon="11.554618074408292"><ele>259.0</ele><time>2026-04-12T16:11:11Z</time></trkpt><trkpt lat="42.55199876725195" lon="11.55446890399845"><ele>259.0</ele><time>2026-04-12T16:11:14Z</time></trkpt><trkpt lat="42.55193301312298" lon="11.554571291109093"><ele>259.0</ele><time>2026-04-12T16:11:15Z</time></trkpt><trkpt lat="42.55181622196259" lon="11.554666003098"><ele>259.0</ele><time>2026-04-12T16:11:17Z</time></trkpt><trkpt lat="42.55174905210738" lon="11.554714500846954"><ele>259.0</ele><time>2026-04-12T16:11:18Z</time></trkpt><trkpt lat="42.55168876944234" lon="11.5547488685407"><ele>259.0</ele><time>2026-04-12T16:11:19Z</time></trkpt><trkpt lat="42.551627098358146" lon="11.554769236714654"><ele>259.0</ele><time>2026-04-12T16:11:20Z</time></trkpt><trkpt lat="42.551528038046506" lon="11.554761569552744"><ele>259.0</ele><time>2026-04-12T16:11:22Z</time></trkpt><trkpt lat="42.55146372607078" lon="11.554746495481206"><ele>259.0</ele><time>2026-04-12T16:11:23Z</time></trkpt><trkpt lat="42.55138433326172" lon="11.554722130540748"><ele>259.0</ele><time>2026-04-12T16:11:24Z</time></trkpt><trkpt lat="42.55130522278522" lon="11.554689621352223"><ele>259.0</ele><time>2026-04-12T16:11:25Z</time></trkpt><trkpt lat="42.55122328159615" lon="11.554670498321906"><ele>259.0</ele><time>2026-04-12T16:11:26Z</time></trkpt><trkpt lat="42.55114440638608" lon="11.55461531985473"><ele>259.0</ele><time>2026-04-12T16:11:27Z</time></trkpt><trkpt lat="42.551064452678325" lon="11.55454277481159"><ele>259.0</ele><time>2026-04-12T16:11:28Z</time></trkpt><trkpt lat="42.55098128195543" lon="11.55446266136377"><ele>258.0</ele><time>2026-04-12T16:11:29Z</time></trkpt><trkpt lat="42.55091385394718" lon="11.554352260156879"><ele>257.0</ele><time>2026-04-12T16:11:30Z</time></trkpt><trkpt lat="42.55085281565879" lon="11.554258394469398"><ele>255.99999999999997</ele><time>2026-04-12T16:11:31Z</time></trkpt><trkpt lat="42.55079805265647" lon="11.554167926406345"><ele>255.0</ele><time>2026-04-12T16:11:32Z</time></trkpt><trkpt lat="42.55073256003337" lon="11.554073674776436"><ele>254.0</ele><time>2026-04-12T16:11:33Z</time></trkpt><trkpt lat="42.550675993640894" lon="11.553952429893897"><ele>254.0</ele><time>2026-04-12T16:11:34Z</time></trkpt><trkpt lat="42.55062392346898" lon="11.553838797262094"><ele>253.99999999999997</ele><time>2026-04-12T16:11:35Z</time></trkpt><trkpt lat="42.550565093559385" lon="11.553719361030316"><ele>253.99999999999997</ele><time>2026-04-12T16:11:36Z</time></trkpt><trkpt lat="42.55050103570927" lon="11.553600790702621"><ele>254.0</ele><time>2026-04-12T16:11:37Z</time></trkpt><trkpt lat="42.55043953776915" lon="11.553479878268883"><ele>254.0</ele><time>2026-04-12T16:11:38Z</time></trkpt><trkpt lat="42.55038660780836" lon="11.553358644910874"><ele>253.0</ele><time>2026-04-12T16:11:39Z</time></trkpt><trkpt lat="42.55034103170544" lon="11.553219977355939"><ele>251.99999999999997</ele><time>2026-04-12T16:11:40Z</time></trkpt><trkpt lat="42.55030358613275" lon="11.553080386959412"><ele>250.99999999999997</ele><time>2026-04-12T16:11:41Z</time></trkpt><trkpt lat="42.55027768058902" lon="11.552946023652286"><ele>250.0</ele><time>2026-04-12T16:11:42Z</time></trkpt><trkpt lat="42.55024937551561" lon="11.552813376230926"><ele>249.0</ele><time>2026-04-12T16:11:43Z</time></trkpt><trkpt lat="42.550227752912335" lon="11.55268797661492"><ele>249.0</ele><time>2026-04-12T16:11:44Z</time></trkpt><trkpt lat="42.55016432501966" lon="11.552563614214973"><ele>249.0</ele><time>2026-04-12T16:11:45Z</time></trkpt><trkpt lat="42.55007310127889" lon="11.552479978915997"><ele>249.0</ele><time>2026-04-12T16:11:46Z</time></trkpt><trkpt lat="42.549994626634586" lon="11.552377452342174"><ele>249.0</ele><time>2026-04-12T16:11:47Z</time></trkpt><trkpt lat="42.54990002237933" lon="11.552276735206386"><ele>249.0</ele><time>2026-04-12T16:11:48Z</time></trkpt><trkpt lat="42.54980332909546" lon="11.552156703647393"><ele>249.0</ele><time>2026-04-12T16:11:49Z</time></trkpt><trkpt lat="42.54970397611316" lon="11.552025658280561"><ele>249.0</ele><time>2026-04-12T16:11:50Z</time></trkpt><trkpt lat="42.54960194148531" lon="11.551916932096876"><ele>249.0</ele><time>2026-04-12T16:11:51Z</time></trkpt><trkpt lat="42.54949527780469" lon="11.551775046995555"><ele>249.0</ele><time>2026-04-12T16:11:52Z</time></trkpt><trkpt lat="42.54937874872268" lon="11.551664181993864"><ele>249.0</ele><time>2026-04-12T16:11:53Z</time></trkpt><trkpt lat="42.54927904898973" lon="11.551539794639853"><ele>249.0</ele><time>2026-04-12T16:11:54Z</time></trkpt><trkpt lat="42.549172462596445" lon="11.551434231347804"><ele>249.0</ele><time>2026-04-12T16:11:55Z</time></trkpt><trkpt lat="42.549086338010994" lon="11.551345630057464"><ele>249.0</ele><time>2026-04-12T16:11:56Z</time></trkpt><trkpt lat="42.5490012033978" lon="11.55124684900512"><ele>249.0</ele><time>2026-04-12T16:11:57Z</time></trkpt><trkpt lat="42.54891722493575" lon="11.551137887207853"><ele>249.0</ele><time>2026-04-12T16:11:57.999Z</time></trkpt><trkpt lat="42.54883769027874" lon="11.551019285287651"><ele>249.0</ele><time>2026-04-12T16:11:58.999Z</time></trkpt><trkpt lat="42.54876072668167" lon="11.550893022633025"><ele>249.25</ele><time>2026-04-12T16:11:59.999Z</time></trkpt><trkpt lat="42.54867879073111" lon="11.550745970447808"><ele>249.5</ele><time>2026-04-12T16:12:00.999Z</time></trkpt><trkpt lat="42.54860876979102" lon="11.550606343524972"><ele>249.75</ele><time>2026-04-12T16:12:01.999Z</time></trkpt><trkpt lat="42.548538052920996" lon="11.550452567013124"><ele>250.0</ele><time>2026-04-12T16:12:02.999Z</time></trkpt><trkpt lat="42.54847131455992" lon="11.550300105382489"><ele>250.75</ele><time>2026-04-12T16:12:03.999Z</time></trkpt><trkpt lat="42.54840124330501" lon="11.550136933286574"><ele>251.5</ele><time>2026-04-12T16:12:04.999Z</time></trkpt><trkpt lat="42.54833139405482" lon="11.54997179205753"><ele>252.25</ele><time>2026-04-12T16:12:05.999Z</time></trkpt><trkpt lat="42.548266932275794" lon="11.549808733557352"><ele>253.0</ele><time>2026-04-12T16:12:06.999Z</time></trkpt><trkpt lat="42.54819676564688" lon="11.549628321833206"><ele>252.5</ele><time>2026-04-12T16:12:07.999Z</time></trkpt><trkpt lat="42.54812365204539" lon="11.549448274356292"><ele>252.0</ele><time>2026-04-12T16:12:08.999Z</time></trkpt><trkpt lat="42.54805137998998" lon="11.549273619613238"><ele>251.5</ele><time>2026-04-12T16:12:09.999Z</time></trkpt><trkpt lat="42.547978395120936" lon="11.549101021340972"><ele>251.0</ele><time>2026-04-12T16:12:10.999Z</time></trkpt><trkpt lat="42.547904820304005" lon="11.548927028081122"><ele>251.33333333333334</ele><time>2026-04-12T16:12:11.999Z</time></trkpt><trkpt lat="42.54783082175733" lon="11.548754289152845"><ele>251.66666666666669</ele><time>2026-04-12T16:12:12.999Z</time></trkpt><trkpt lat="42.547756128261646" lon="11.548580300276344"><ele>252.0</ele><time>2026-04-12T16:12:13.999Z</time></trkpt><trkpt lat="42.54767845436705" lon="11.548399369043175"><ele>251.0</ele><time>2026-04-12T16:12:14.999Z</time></trkpt><trkpt lat="42.547610897736185" lon="11.54824200452474"><ele>250.0</ele><time>2026-04-12T16:12:15.999Z</time></trkpt><trkpt lat="42.5475275773106" lon="11.548050353122306"><ele>249.0</ele><time>2026-04-12T16:12:16.999Z</time></trkpt><trkpt lat="42.54744389120191" lon="11.547867882514481"><ele>248.5</ele><time>2026-04-12T16:12:17.999Z</time></trkpt><trkpt lat="42.547349492558666" lon="11.547705170204583"><ele>248.0</ele><time>2026-04-12T16:12:18.999Z</time></trkpt><trkpt lat="42.547282897014966" lon="11.547533421641123"><ele>247.5</ele><time>2026-04-12T16:12:19.999Z</time></trkpt><trkpt lat="42.54721389259905" lon="11.547391920524117"><ele>247.0</ele><time>2026-04-12T16:12:20.999Z</time></trkpt><trkpt lat="42.54714736651374" lon="11.547249648443076"><ele>247.0</ele><time>2026-04-12T16:12:21.999Z</time></trkpt><trkpt lat="42.547093687450676" lon="11.54711400182365"><ele>247.0</ele><time>2026-04-12T16:12:22.999Z</time></trkpt><trkpt lat="42.547054988211364" lon="11.546981393271718"><ele>247.0</ele><time>2026-04-12T16:12:23.999Z</time></trkpt><trkpt lat="42.54702608505333" lon="11.546841101700807"><ele>247.0</ele><time>2026-04-12T16:12:24.999Z</time></trkpt><trkpt lat="42.54700975337335" lon="11.546684208232644"><ele>247.0</ele><time>2026-04-12T16:12:25.999Z</time></trkpt><trkpt lat="42.54698961123553" lon="11.546500221240178"><ele>247.5</ele><time>2026-04-12T16:12:26.999Z</time></trkpt><trkpt lat="42.54696259703369" lon="11.546336559722208"><ele>248.0</ele><time>2026-04-12T16:12:27.999Z</time></trkpt><trkpt lat="42.54691034923737" lon="11.546198774283189"><ele>248.5</ele><time>2026-04-12T16:12:28.999Z</time></trkpt><trkpt lat="42.546881074773275" lon="11.546049061982812"><ele>249.0</ele><time>2026-04-12T16:12:29.999Z</time></trkpt><trkpt lat="42.54682024730425" lon="11.545889362594085"><ele>249.5</ele><time>2026-04-12T16:12:30.999Z</time></trkpt><trkpt lat="42.546743459599185" lon="11.545735861846731"><ele>250.0</ele><time>2026-04-12T16:12:31.999Z</time></trkpt><trkpt lat="42.546656757160704" lon="11.54559996646796"><ele>250.5</ele><time>2026-04-12T16:12:32.999Z</time></trkpt><trkpt lat="42.546566494976034" lon="11.545482939382278"><ele>251.0</ele><time>2026-04-12T16:12:33.999Z</time></trkpt><trkpt lat="42.54647699121764" lon="11.545372168857492"><ele>251.5</ele><time>2026-04-12T16:12:34.999Z</time></trkpt><trkpt lat="42.546387849731325" lon="11.54526435593493"><ele>252.0</ele><time>2026-04-12T16:12:35.999Z</time></trkpt><trkpt lat="42.546289106012445" lon="11.545147445773654"><ele>252.5</ele><time>2026-04-12T16:12:36.999Z</time></trkpt><trkpt lat="42.5461989360192" lon="11.54502619292656"><ele>253.0</ele><time>2026-04-12T16:12:37.999Z</time></trkpt><trkpt lat="42.546107071093054" lon="11.544907162665691"><ele>253.0</ele><time>2026-04-12T16:12:38.999Z</time></trkpt><trkpt lat="42.546013515951856" lon="11.544800065241914"><ele>253.0</ele><time>2026-04-12T16:12:39.999Z</time></trkpt><trkpt lat="42.54591445532413" lon="11.544687015745081"><ele>253.0</ele><time>2026-04-12T16:12:40.999Z</time></trkpt><trkpt lat="42.54582180687009" lon="11.544576820949676"><ele>253.0</ele><time>2026-04-12T16:12:41.999Z</time></trkpt><trkpt lat="42.54573624742489" lon="11.544467245528926"><ele>253.75</ele><time>2026-04-12T16:12:42.999Z</time></trkpt><trkpt lat="42.54565811604894" lon="11.544353493326609"><ele>254.5</ele><time>2026-04-12T16:12:43.999Z</time></trkpt><trkpt lat="42.54558681370029" lon="11.544242810837794"><ele>255.25</ele><time>2026-04-12T16:12:44.999Z</time></trkpt><trkpt lat="42.54550568046751" lon="11.544105979177575"><ele>256.0</ele><time>2026-04-12T16:12:46Z</time></trkpt><trkpt lat="42.54542982387239" lon="11.54397241652296"><ele>255.5</ele><time>2026-04-12T16:12:47Z</time></trkpt><trkpt lat="42.545351803616356" lon="11.543832792176406"><ele>255.0</ele><time>2026-04-12T16:12:48Z</time></trkpt><trkpt lat="42.545281618041855" lon="11.543704612872919"><ele>254.5</ele><time>2026-04-12T16:12:49Z</time></trkpt><trkpt lat="42.545213177647355" lon="11.543577108042358"><ele>254.0</ele><time>2026-04-12T16:12:50Z</time></trkpt><trkpt lat="42.54514675837644" lon="11.54344940804922"><ele>255.25</ele><time>2026-04-12T16:12:51Z</time></trkpt><trkpt lat="42.54507846350034" lon="11.543308759870413"><ele>256.5</ele><time>2026-04-12T16:12:52Z</time></trkpt><trkpt lat="42.54501773077855" lon="11.543176679835094"><ele>257.75</ele><time>2026-04-12T16:12:53Z</time></trkpt><trkpt lat="42.54496333379312" lon="11.54303502836938"><ele>259.0</ele><time>2026-04-12T16:12:54Z</time></trkpt><trkpt lat="42.54490284069294" lon="11.542870917391566"><ele>259.2</ele><time>2026-04-12T16:12:55Z</time></trkpt><trkpt lat="42.544851155629345" lon="11.542721922572307"><ele>259.4</ele><time>2026-04-12T16:12:56Z</time></trkpt><trkpt lat="42.54481323676875" lon="11.542602195825149"><ele>259.6</ele><time>2026-04-12T16:12:57Z</time></trkpt><trkpt lat="42.54478231693168" lon="11.542494943039005"><ele>259.8</ele><time>2026-04-12T16:12:58Z</time></trkpt><trkpt lat="42.54475561781656" lon="11.542401390898203"><ele>260.0</ele><time>2026-04-12T16:12:59Z</time></trkpt><trkpt lat="42.5447259110317" lon="11.54230626828419"><ele>260.0</ele><time>2026-04-12T16:13:00Z</time></trkpt><trkpt lat="42.54469539174137" lon="11.542217926221037"><ele>260.0</ele><time>2026-04-12T16:13:01Z</time></trkpt><trkpt lat="42.544662955043016" lon="11.542135455070136"><ele>260.0</ele><time>2026-04-12T16:13:02Z</time></trkpt><trkpt lat="42.54461170051503" lon="11.542032478080868"><ele>260.0</ele><time>2026-04-12T16:13:04Z</time></trkpt><trkpt lat="42.54465777409601" lon="11.541915979186737"><ele>260.0</ele><time>2026-04-12T16:13:07Z</time></trkpt><trkpt lat="42.54471805254937" lon="11.541882965133883"><ele>260.0</ele><time>2026-04-12T16:13:08Z</time></trkpt><trkpt lat="42.5447955770438" lon="11.54185063444045"><ele>259.4</ele><time>2026-04-12T16:13:09Z</time></trkpt><trkpt lat="42.544884585728695" lon="11.541814206712466"><ele>258.8</ele><time>2026-04-12T16:13:10Z</time></trkpt><trkpt lat="42.54496573063585" lon="11.541759570531333"><ele>258.2</ele><time>2026-04-12T16:13:11Z</time></trkpt><trkpt lat="42.54505413009046" lon="11.54170146139065"><ele>257.6</ele><time>2026-04-12T16:13:12Z</time></trkpt><trkpt lat="42.54514528031014" lon="11.54164679263368"><ele>257.0</ele><time>2026-04-12T16:13:13Z</time></trkpt><trkpt lat="42.545250389766146" lon="11.54158353811315"><ele>257.0</ele><time>2026-04-12T16:13:14Z</time></trkpt><trkpt lat="42.54534467611249" lon="11.541531693962595"><ele>257.0</ele><time>2026-04-12T16:13:15Z</time></trkpt><trkpt lat="42.54543880994751" lon="11.541478256423398"><ele>257.0</ele><time>2026-04-12T16:13:16Z</time></trkpt><trkpt lat="42.54553353671857" lon="11.541423772147779"><ele>257.0</ele><time>2026-04-12T16:13:17Z</time></trkpt><trkpt lat="42.545631593700065" lon="11.541366958890764"><ele>257.0</ele><time>2026-04-12T16:13:18Z</time></trkpt><trkpt lat="42.5457344212167" lon="11.5413060117735"><ele>256.25</ele><time>2026-04-12T16:13:19Z</time></trkpt><trkpt lat="42.54583765570279" lon="11.541240316191127"><ele>255.5</ele><time>2026-04-12T16:13:20Z</time></trkpt><trkpt lat="42.545937416032544" lon="11.541172986068498"><ele>254.75</ele><time>2026-04-12T16:13:21Z</time></trkpt><trkpt lat="42.54604079887878" lon="11.54111527168787"><ele>254.0</ele><time>2026-04-12T16:13:22Z</time></trkpt><trkpt lat="42.546149839117604" lon="11.541053880148613"><ele>252.75</ele><time>2026-04-12T16:13:23Z</time></trkpt><trkpt lat="42.5462611129665" lon="11.540996618059522"><ele>251.5</ele><time>2026-04-12T16:13:24Z</time></trkpt><trkpt lat="42.54637880302593" lon="11.540937484602674"><ele>250.25</ele><time>2026-04-12T16:13:25Z</time></trkpt><trkpt lat="42.54648206487539" lon="11.54087342956895"><ele>249.0</ele><time>2026-04-12T16:13:26Z</time></trkpt><trkpt lat="42.54659283110369" lon="11.540808806241461"><ele>249.0</ele><time>2026-04-12T16:13:27Z</time></trkpt><trkpt lat="42.54670290235841" lon="11.540751374515429"><ele>249.0</ele><time>2026-04-12T16:13:28Z</time></trkpt><trkpt lat="42.54681373850068" lon="11.540692416737226"><ele>249.0</ele><time>2026-04-12T16:13:29Z</time></trkpt><trkpt lat="42.54692313502432" lon="11.540624592817954"><ele>249.0</ele><time>2026-04-12T16:13:30Z</time></trkpt><trkpt lat="42.547027985144005" lon="11.540554469935183"><ele>249.0</ele><time>2026-04-12T16:13:31Z</time></trkpt><trkpt lat="42.54714470986366" lon="11.540491510842756"><ele>249.0</ele><time>2026-04-12T16:13:32Z</time></trkpt><trkpt lat="42.54724839930151" lon="11.540421750963693"><ele>249.0</ele><time>2026-04-12T16:13:33Z</time></trkpt><trkpt lat="42.54735642181512" lon="11.540360201135243"><ele>249.0</ele><time>2026-04-12T16:13:34Z</time></trkpt><trkpt lat="42.54745853674413" lon="11.540316620432014"><ele>249.33333333333334</ele><time>2026-04-12T16:13:35Z</time></trkpt><trkpt lat="42.547556874867226" lon="11.540268311748417"><ele>249.66666666666669</ele><time>2026-04-12T16:13:36Z</time></trkpt><trkpt lat="42.547645459022156" lon="11.540218407865995"><ele>250.0</ele><time>2026-04-12T16:13:37Z</time></trkpt><trkpt lat="42.547725165068464" lon="11.5401686150352"><ele>250.33333333333334</ele><time>2026-04-12T16:13:38Z</time></trkpt><trkpt lat="42.54779817475847" lon="11.540117831089647"><ele>250.66666666666669</ele><time>2026-04-12T16:13:39Z</time></trkpt><trkpt lat="42.54787101222015" lon="11.540086480318788"><ele>251.0</ele><time>2026-04-12T16:13:40Z</time></trkpt><trkpt lat="42.547950000507626" lon="11.540058684213282"><ele>249.20000000000002</ele><time>2026-04-12T16:13:41Z</time></trkpt><trkpt lat="42.54804479963425" lon="11.540039021965173"><ele>247.40000000000003</ele><time>2026-04-12T16:13:42Z</time></trkpt><trkpt lat="42.54814022442367" lon="11.540031456333397"><ele>245.6</ele><time>2026-04-12T16:13:43Z</time></trkpt><trkpt lat="42.54823122766128" lon="11.540031021209403"><ele>243.8</ele><time>2026-04-12T16:13:44Z</time></trkpt><trkpt lat="42.54833684782895" lon="11.540011309074531"><ele>242.0</ele><time>2026-04-12T16:13:45Z</time></trkpt><trkpt lat="42.5484377132053" lon="11.539960888786176"><ele>242.0</ele><time>2026-04-12T16:13:46Z</time></trkpt><trkpt lat="42.54854408548298" lon="11.539901209271187"><ele>242.0</ele><time>2026-04-12T16:13:47Z</time></trkpt><trkpt lat="42.54865482181139" lon="11.539841837727717"><ele>242.0</ele><time>2026-04-12T16:13:48Z</time></trkpt><trkpt lat="42.54876369117764" lon="11.539785859234005"><ele>242.0</ele><time>2026-04-12T16:13:49Z</time></trkpt><trkpt lat="42.54887266953644" lon="11.53971415727223"><ele>242.5</ele><time>2026-04-12T16:13:50Z</time></trkpt><trkpt lat="42.54898279160019" lon="11.539641835150846"><ele>243.0</ele><time>2026-04-12T16:13:51Z</time></trkpt><trkpt lat="42.54909625798667" lon="11.539561700799371"><ele>243.5</ele><time>2026-04-12T16:13:52Z</time></trkpt><trkpt lat="42.54920854208128" lon="11.539483328026522"><ele>244.0</ele><time>2026-04-12T16:13:53Z</time></trkpt><trkpt lat="42.54932113177171" lon="11.53939406535815"><ele>244.75</ele><time>2026-04-12T16:13:54Z</time></trkpt><trkpt lat="42.549431009312414" lon="11.539309663268169"><ele>245.5</ele><time>2026-04-12T16:13:55Z</time></trkpt><trkpt lat="42.5495247585081" lon="11.539240005289201"><ele>246.25</ele><time>2026-04-12T16:13:56Z</time></trkpt><trkpt lat="42.54962354462316" lon="11.539172515202608"><ele>247.0</ele><time>2026-04-12T16:13:57Z</time></trkpt><trkpt lat="42.549729219902034" lon="11.539111995918846"><ele>247.0</ele><time>2026-04-12T16:13:58Z</time></trkpt><trkpt lat="42.54982181573945" lon="11.539069262100542"><ele>247.0</ele><time>2026-04-12T16:13:59Z</time></trkpt><trkpt lat="42.549916715599636" lon="11.53901322324579"><ele>247.0</ele><time>2026-04-12T16:14:00Z</time></trkpt><trkpt lat="42.55003167752532" lon="11.538966632137488"><ele>247.0</ele><time>2026-04-12T16:14:01Z</time></trkpt><trkpt lat="42.55016255250556" lon="11.53892308183221"><ele>247.0</ele><time>2026-04-12T16:14:01.999Z</time></trkpt><trkpt lat="42.55027101597921" lon="11.53890592420593"><ele>247.0</ele><time>2026-04-12T16:14:02.999Z</time></trkpt><trkpt lat="42.550366710141134" lon="11.538915497949542"><ele>247.0</ele><time>2026-04-12T16:14:03.999Z</time></trkpt><trkpt lat="42.5504708353962" lon="11.538928973757645"><ele>247.0</ele><time>2026-04-12T16:14:04.999Z</time></trkpt><trkpt lat="42.550577389520946" lon="11.53894363810907"><ele>247.0</ele><time>2026-04-12T16:14:05.999Z</time></trkpt><trkpt lat="42.55068161773034" lon="11.538957250120841"><ele>247.0</ele><time>2026-04-12T16:14:06.999Z</time></trkpt><trkpt lat="42.550776455196896" lon="11.538964792340447"><ele>247.0</ele><time>2026-04-12T16:14:07.999Z</time></trkpt><trkpt lat="42.55088229926911" lon="11.538987595388914"><ele>247.0</ele><time>2026-04-12T16:14:08.999Z</time></trkpt><trkpt lat="42.55097806594304" lon="11.538998047129171"><ele>247.0</ele><time>2026-04-12T16:14:09.999Z</time></trkpt><trkpt lat="42.55107350686582" lon="11.53900209320574"><ele>247.0</ele><time>2026-04-12T16:14:10.999Z</time></trkpt><trkpt lat="42.55118088662705" lon="11.539011951958592"><ele>246.6</ele><time>2026-04-12T16:14:11.999Z</time></trkpt><trkpt lat="42.551282768073094" lon="11.53900721125918"><ele>246.2</ele><time>2026-04-12T16:14:12.999Z</time></trkpt><trkpt lat="42.55139946760769" lon="11.538992135566707"><ele>245.8</ele><time>2026-04-12T16:14:13.999Z</time></trkpt><trkpt lat="42.55150992418136" lon="11.538969980854691"><ele>245.4</ele><time>2026-04-12T16:14:14.999Z</time></trkpt><trkpt lat="42.551622906164674" lon="11.538949791300665"><ele>245.0</ele><time>2026-04-12T16:14:15.999Z</time></trkpt><trkpt lat="42.55171883536167" lon="11.538933881042944"><ele>245.0</ele><time>2026-04-12T16:14:16.999Z</time></trkpt><trkpt lat="42.551812110159894" lon="11.53890611070576"><ele>245.0</ele><time>2026-04-12T16:14:17.999Z</time></trkpt><trkpt lat="42.55191180494769" lon="11.53887977001909"><ele>245.0</ele><time>2026-04-12T16:14:18.999Z</time></trkpt><trkpt lat="42.55201982819607" lon="11.538881144197296"><ele>245.0</ele><time>2026-04-12T16:14:19.999Z</time></trkpt><trkpt lat="42.55211946305673" lon="11.538860348101862"><ele>245.0</ele><time>2026-04-12T16:14:20.999Z</time></trkpt><trkpt lat="42.55222761708233" lon="11.538816839173643"><ele>244.0</ele><time>2026-04-12T16:14:21.999Z</time></trkpt><trkpt lat="42.55233528144884" lon="11.538793140952718"><ele>243.0</ele><time>2026-04-12T16:14:22.999Z</time></trkpt><trkpt lat="42.55244052081274" lon="11.538767620627507"><ele>242.0</ele><time>2026-04-12T16:14:23.999Z</time></trkpt><trkpt lat="42.55254105473427" lon="11.538761516709481"><ele>241.0</ele><time>2026-04-12T16:14:24.999Z</time></trkpt><trkpt lat="42.552638660689766" lon="11.538718917799965"><ele>240.0</ele><time>2026-04-12T16:14:25.999Z</time></trkpt><trkpt lat="42.55274853017686" lon="11.53869553421121"><ele>240.0</ele><time>2026-04-12T16:14:26.999Z</time></trkpt><trkpt lat="42.55283722050823" lon="11.53868062555388"><ele>240.0</ele><time>2026-04-12T16:14:27.999Z</time></trkpt><trkpt lat="42.55292276230584" lon="11.538657144492516"><ele>240.0</ele><time>2026-04-12T16:14:28.999Z</time></trkpt><trkpt lat="42.55299605938541" lon="11.538639306797256"><ele>240.0</ele><time>2026-04-12T16:14:29.999Z</time></trkpt><trkpt lat="42.553077879593936" lon="11.538619848158174"><ele>240.0</ele><time>2026-04-12T16:14:30.999Z</time></trkpt><trkpt lat="42.5531598354406" lon="11.538601592381415"><ele>240.0</ele><time>2026-04-12T16:14:31.999Z</time></trkpt><trkpt lat="42.55323031466363" lon="11.538586048055373"><ele>239.16666666666666</ele><time>2026-04-12T16:14:32.999Z</time></trkpt><trkpt lat="42.55330420835397" lon="11.538575366683942"><ele>238.33333333333331</ele><time>2026-04-12T16:14:33.999Z</time></trkpt><trkpt lat="42.553383565467065" lon="11.538562296086823"><ele>237.5</ele><time>2026-04-12T16:14:34.999Z</time></trkpt><trkpt lat="42.55346710083316" lon="11.538558342083626"><ele>236.66666666666666</ele><time>2026-04-12T16:14:35.999Z</time></trkpt><trkpt lat="42.55353769742866" lon="11.53856981369806"><ele>235.83333333333331</ele><time>2026-04-12T16:14:36.999Z</time></trkpt><trkpt lat="42.55365187332224" lon="11.538563196242022"><ele>235.0</ele><time>2026-04-12T16:14:38.999Z</time></trkpt><trkpt lat="42.553736360096856" lon="11.538577532783028"><ele>234.8</ele><time>2026-04-12T16:14:39.999Z</time></trkpt><trkpt lat="42.55382589342307" lon="11.538594011950005"><ele>234.6</ele><time>2026-04-12T16:14:40.999Z</time></trkpt><trkpt lat="42.553914007442884" lon="11.538617827761218"><ele>234.39999999999998</ele><time>2026-04-12T16:14:41.999Z</time></trkpt><trkpt lat="42.55400440736316" lon="11.538646353280601"><ele>234.2</ele><time>2026-04-12T16:14:42.999Z</time></trkpt><trkpt lat="42.55410579175403" lon="11.538659779610802"><ele>234.0</ele><time>2026-04-12T16:14:43.999Z</time></trkpt><trkpt lat="42.55419815749648" lon="11.53869284647683"><ele>234.2</ele><time>2026-04-12T16:14:44.999Z</time></trkpt><trkpt lat="42.55429110521541" lon="11.538723127182035"><ele>234.39999999999998</ele><time>2026-04-12T16:14:45.999Z</time></trkpt><trkpt lat="42.55438299398256" lon="11.538751937446394"><ele>234.6</ele><time>2026-04-12T16:14:46.999Z</time></trkpt><trkpt lat="42.554479172431364" lon="11.538779738507042"><ele>234.8</ele><time>2026-04-12T16:14:47.999Z</time></trkpt><trkpt lat="42.55457151121771" lon="11.53882596234959"><ele>235.0</ele><time>2026-04-12T16:14:48.999Z</time></trkpt><trkpt lat="42.55467407688964" lon="11.538834527246125"><ele>234.66666666666666</ele><time>2026-04-12T16:14:49.999Z</time></trkpt><trkpt lat="42.55475800105705" lon="11.538854042479047"><ele>234.33333333333331</ele><time>2026-04-12T16:14:50.999Z</time></trkpt><trkpt lat="42.55484795296805" lon="11.53887051485433"><ele>234.0</ele><time>2026-04-12T16:14:52Z</time></trkpt><trkpt lat="42.55492102674827" lon="11.538904268149798"><ele>233.66666666666669</ele><time>2026-04-12T16:14:53Z</time></trkpt><trkpt lat="42.55498560761951" lon="11.538916642428493"><ele>233.33333333333334</ele><time>2026-04-12T16:14:54Z</time></trkpt><trkpt lat="42.555088390464235" lon="11.538935060575465"><ele>233.0</ele><time>2026-04-12T16:14:56Z</time></trkpt><trkpt lat="42.55517436390393" lon="11.538948730484226"><ele>233.0</ele><time>2026-04-12T16:14:58Z</time></trkpt><trkpt lat="42.55526447554764" lon="11.53896305838741"><ele>233.0</ele><time>2026-04-12T16:15:00Z</time></trkpt><trkpt lat="42.55539097791625" lon="11.538715129167333"><ele>233.0</ele><time>2026-04-12T16:15:02Z</time></trkpt><trkpt lat="42.55543543585815" lon="11.538646413941612"><ele>233.0</ele><time>2026-04-12T16:15:03Z</time></trkpt><trkpt lat="42.55554158878119" lon="11.538510893659524"><ele>232.42857142857144</ele><time>2026-04-12T16:15:05Z</time></trkpt><trkpt lat="42.55559222493328" lon="11.538445146943385"><ele>231.85714285714283</ele><time>2026-04-12T16:15:06Z</time></trkpt><trkpt lat="42.555651355996424" lon="11.53837941590614"><ele>231.28571428571428</ele><time>2026-04-12T16:15:07Z</time></trkpt><trkpt lat="42.555710655778974" lon="11.538321739156572"><ele>230.71428571428572</ele><time>2026-04-12T16:15:08Z</time></trkpt><trkpt lat="42.555753009330616" lon="11.538256206622956"><ele>230.14285714285717</ele><time>2026-04-12T16:15:09Z</time></trkpt><trkpt lat="42.5557956100495" lon="11.538169876321524"><ele>229.57142857142856</ele><time>2026-04-12T16:15:10Z</time></trkpt><trkpt lat="42.55584322888887" lon="11.538079243780434"><ele>229.0</ele><time>2026-04-12T16:15:11Z</time></trkpt><trkpt lat="42.55590066628456" lon="11.538011796236281"><ele>229.0</ele><time>2026-04-12T16:15:12Z</time></trkpt><trkpt lat="42.555970013970786" lon="11.537971542781667"><ele>228.99999999999997</ele><time>2026-04-12T16:15:13Z</time></trkpt><trkpt lat="42.55604597871663" lon="11.537942914112481"><ele>228.99999999999997</ele><time>2026-04-12T16:15:14Z</time></trkpt><trkpt lat="42.55619371894829" lon="11.537914994022668"><ele>229.0</ele><time>2026-04-12T16:15:16Z</time></trkpt><trkpt lat="42.55628198592223" lon="11.537896949814828"><ele>229.0</ele><time>2026-04-12T16:15:17Z</time></trkpt><trkpt lat="42.556372360506984" lon="11.537869009006517"><ele>229.6</ele><time>2026-04-12T16:15:18Z</time></trkpt><trkpt lat="42.55645600049282" lon="11.537839115889637"><ele>230.2</ele><time>2026-04-12T16:15:19Z</time></trkpt><trkpt lat="42.556537297017435" lon="11.537806625331738"><ele>230.79999999999998</ele><time>2026-04-12T16:15:20Z</time></trkpt><trkpt lat="42.556624045099184" lon="11.537774931324552"><ele>231.39999999999998</ele><time>2026-04-12T16:15:21Z</time></trkpt><trkpt lat="42.55672613863298" lon="11.537736297401826"><ele>232.0</ele><time>2026-04-12T16:15:22Z</time></trkpt><trkpt lat="42.55681917857384" lon="11.537698217743124"><ele>232.0</ele><time>2026-04-12T16:15:23Z</time></trkpt><trkpt lat="42.556908938842845" lon="11.537661710504976"><ele>232.0</ele><time>2026-04-12T16:15:24Z</time></trkpt><trkpt lat="42.5569922388981" lon="11.53762619099163"><ele>232.0</ele><time>2026-04-12T16:15:25Z</time></trkpt><trkpt lat="42.557082734908285" lon="11.537591001363309"><ele>232.0</ele><time>2026-04-12T16:15:26Z</time></trkpt><trkpt lat="42.557175942745445" lon="11.537553265819263"><ele>232.0</ele><time>2026-04-12T16:15:27Z</time></trkpt><trkpt lat="42.55726558570593" lon="11.537512685224907"><ele>232.66666666666666</ele><time>2026-04-12T16:15:28Z</time></trkpt><trkpt lat="42.55734909765757" lon="11.537470063280436"><ele>233.33333333333331</ele><time>2026-04-12T16:15:29Z</time></trkpt><trkpt lat="42.55743401268556" lon="11.537439500316287"><ele>234.0</ele><time>2026-04-12T16:15:30Z</time></trkpt><trkpt lat="42.55751692589289" lon="11.537408341795603"><ele>234.66666666666669</ele><time>2026-04-12T16:15:31Z</time></trkpt><trkpt lat="42.557587798433346" lon="11.537371542527918"><ele>235.33333333333334</ele><time>2026-04-12T16:15:32Z</time></trkpt><trkpt lat="42.557664617190746" lon="11.537324563850172"><ele>236.0</ele><time>2026-04-12T16:15:33Z</time></trkpt><trkpt lat="42.557753213727224" lon="11.53727182470842"><ele>236.00000000000003</ele><time>2026-04-12T16:15:34Z</time></trkpt><trkpt lat="42.557839075120334" lon="11.537218563434767"><ele>236.0</ele><time>2026-04-12T16:15:35Z</time></trkpt><trkpt lat="42.55791445197792" lon="11.537184312367168"><ele>236.0</ele><time>2026-04-12T16:15:36Z</time></trkpt><trkpt lat="42.557986610759" lon="11.53715044588993"><ele>236.0</ele><time>2026-04-12T16:15:37Z</time></trkpt><trkpt lat="42.558068355323805" lon="11.537119116453228"><ele>236.00000000000003</ele><time>2026-04-12T16:15:38Z</time></trkpt><trkpt lat="42.558147252597934" lon="11.537084432875622"><ele>236.0</ele><time>2026-04-12T16:15:39Z</time></trkpt><trkpt lat="42.55822468287111" lon="11.53705381270112"><ele>235.66666666666669</ele><time>2026-04-12T16:15:40Z</time></trkpt><trkpt lat="42.55828989863499" lon="11.537031632791079"><ele>235.33333333333334</ele><time>2026-04-12T16:15:41Z</time></trkpt><trkpt lat="42.558354739433916" lon="11.537025600384625"><ele>235.0</ele><time>2026-04-12T16:15:42Z</time></trkpt><trkpt lat="42.55843567302165" lon="11.537016158235888"><ele>234.66666666666669</ele><time>2026-04-12T16:15:43Z</time></trkpt><trkpt lat="42.55851780255697" lon="11.537000318358801"><ele>234.33333333333334</ele><time>2026-04-12T16:15:44Z</time></trkpt><trkpt lat="42.55860452789705" lon="11.536990705050703"><ele>234.0</ele><time>2026-04-12T16:15:45Z</time></trkpt><trkpt lat="42.55869237372072" lon="11.536970304302475"><ele>233.83333333333334</ele><time>2026-04-12T16:15:46Z</time></trkpt><trkpt lat="42.55878262036826" lon="11.536946506104876"><ele>233.66666666666669</ele><time>2026-04-12T16:15:47Z</time></trkpt><trkpt lat="42.55886698820362" lon="11.536921470645831"><ele>233.5</ele><time>2026-04-12T16:15:48Z</time></trkpt><trkpt lat="42.558949702703984" lon="11.536895973974081"><ele>233.33333333333334</ele><time>2026-04-12T16:15:49Z</time></trkpt><trkpt lat="42.559024072849056" lon="11.536878737128667"><ele>233.16666666666669</ele><time>2026-04-12T16:15:50Z</time></trkpt><trkpt lat="42.55909539466515" lon="11.53685631384572"><ele>233.0</ele><time>2026-04-12T16:15:51Z</time></trkpt><trkpt lat="42.55917891293562" lon="11.536820901362104"><ele>233.00000000000003</ele><time>2026-04-12T16:15:52Z</time></trkpt><trkpt lat="42.55926627195861" lon="11.536785337855758"><ele>233.0</ele><time>2026-04-12T16:15:53Z</time></trkpt><trkpt lat="42.55935270885647" lon="11.53674574828115"><ele>233.0</ele><time>2026-04-12T16:15:54Z</time></trkpt><trkpt lat="42.55943822806382" lon="11.536707297564737"><ele>233.0</ele><time>2026-04-12T16:15:55Z</time></trkpt><trkpt lat="42.55951982196643" lon="11.536676590029629"><ele>233.00000000000003</ele><time>2026-04-12T16:15:56Z</time></trkpt><trkpt lat="42.559587159824694" lon="11.536651002856185"><ele>233.0</ele><time>2026-04-12T16:15:57Z</time></trkpt><trkpt lat="42.55966398823471" lon="11.536621900090912"><ele>233.0</ele><time>2026-04-12T16:15:58Z</time></trkpt><trkpt lat="42.55972561859001" lon="11.536602317288734"><ele>233.0</ele><time>2026-04-12T16:15:59Z</time></trkpt><trkpt lat="42.559799655090366" lon="11.536575339828484"><ele>233.0</ele><time>2026-04-12T16:16:00Z</time></trkpt><trkpt lat="42.55986050548542" lon="11.536550224818328"><ele>233.0</ele><time>2026-04-12T16:16:01Z</time></trkpt><trkpt lat="42.559922228040094" lon="11.536512138615544"><ele>233.0</ele><time>2026-04-12T16:16:02Z</time></trkpt><trkpt lat="42.55998609047122" lon="11.53644314710504"><ele>233.0</ele><time>2026-04-12T16:16:03Z</time></trkpt><trkpt lat="42.56003862905331" lon="11.536379081532301"><ele>233.0</ele><time>2026-04-12T16:16:04Z</time></trkpt><trkpt lat="42.56009311787029" lon="11.536324848195502"><ele>233.0</ele><time>2026-04-12T16:16:05Z</time></trkpt><trkpt lat="42.56017499378857" lon="11.536250830994737"><ele>233.0</ele><time>2026-04-12T16:16:07Z</time></trkpt><trkpt lat="42.56027739443544" lon="11.536189531672365"><ele>233.0</ele><time>2026-04-12T16:16:09Z</time></trkpt><trkpt lat="42.560339175374835" lon="11.536152817281607"><ele>233.0</ele><time>2026-04-12T16:16:10Z</time></trkpt><trkpt lat="42.56045599854329" lon="11.536114303258175"><ele>233.0</ele><time>2026-04-12T16:16:12Z</time></trkpt><trkpt lat="42.56055486515457" lon="11.536106449460306"><ele>233.4</ele><time>2026-04-12T16:16:14Z</time></trkpt><trkpt lat="42.56066942875552" lon="11.536141327172626"><ele>233.8</ele><time>2026-04-12T16:16:15.999Z</time></trkpt><trkpt lat="42.560744772611386" lon="11.53615467346774"><ele>234.2</ele><time>2026-04-12T16:16:16.999Z</time></trkpt><trkpt lat="42.56081026172467" lon="11.53615314137148"><ele>234.6</ele><time>2026-04-12T16:16:17.999Z</time></trkpt><trkpt lat="42.56092845325258" lon="11.536107528603875"><ele>235.0</ele><time>2026-04-12T16:16:19.999Z</time></trkpt><trkpt lat="42.56104621600775" lon="11.53609952758317"><ele>235.0</ele><time>2026-04-12T16:16:21.999Z</time></trkpt><trkpt lat="42.56116731493977" lon="11.536124139265276"><ele>235.0</ele><time>2026-04-12T16:16:23.999Z</time></trkpt><trkpt lat="42.56126001683543" lon="11.536139743336102"><ele>235.0</ele><time>2026-04-12T16:16:25.999Z</time></trkpt><trkpt lat="42.561327477765666" lon="11.536178062553233"><ele>235.0</ele><time>2026-04-12T16:16:27.999Z</time></trkpt><trkpt lat="42.56143689044864" lon="11.536190006772172"><ele>235.0</ele><time>2026-04-12T16:16:29.999Z</time></trkpt><trkpt lat="42.561540892797005" lon="11.53613352794011"><ele>236.0</ele><time>2026-04-12T16:16:31.999Z</time></trkpt><trkpt lat="42.56166154156301" lon="11.536162501224874"><ele>237.0</ele><time>2026-04-12T16:16:33.999Z</time></trkpt><trkpt lat="42.561724798048715" lon="11.536156929515897"><ele>238.0</ele><time>2026-04-12T16:16:34.999Z</time></trkpt><trkpt lat="42.561784868206594" lon="11.536126589190118"><ele>239.0</ele><time>2026-04-12T16:16:35.999Z</time></trkpt><trkpt lat="42.56191488430713" lon="11.536107735065016"><ele>240.0</ele><time>2026-04-12T16:16:37.999Z</time></trkpt><trkpt lat="42.56198710045738" lon="11.536085807755699"><ele>240.5</ele><time>2026-04-12T16:16:38.999Z</time></trkpt><trkpt lat="42.56211452664489" lon="11.536095727794153"><ele>241.0</ele><time>2026-04-12T16:16:40.999Z</time></trkpt><trkpt lat="42.562191860035085" lon="11.536092529719763"><ele>241.5</ele><time>2026-04-12T16:16:41.999Z</time></trkpt><trkpt lat="42.56226044395644" lon="11.536079669952228"><ele>242.0</ele><time>2026-04-12T16:16:42.999Z</time></trkpt><trkpt lat="42.56234861160858" lon="11.536079675156934"><ele>242.5</ele><time>2026-04-12T16:16:44.999Z</time></trkpt><trkpt lat="42.56241136110192" lon="11.536071081407021"><ele>243.0</ele><time>2026-04-12T16:16:45.999Z</time></trkpt><trkpt lat="42.56248305320417" lon="11.536066707735777"><ele>243.0</ele><time>2026-04-12T16:16:46.999Z</time></trkpt><trkpt lat="42.56260802145561" lon="11.536043431638467"><ele>243.0</ele><time>2026-04-12T16:16:48.999Z</time></trkpt><trkpt lat="42.5627582209038" lon="11.53605473659712"><ele>243.0</ele><time>2026-04-12T16:16:50.999Z</time></trkpt><trkpt lat="42.56286867331447" lon="11.536037735482697"><ele>243.0</ele><time>2026-04-12T16:16:51.999Z</time></trkpt><trkpt lat="42.562969088157764" lon="11.53601364266122"><ele>244.0</ele><time>2026-04-12T16:16:52.999Z</time></trkpt><trkpt lat="42.563063963667524" lon="11.535975776208225"><ele>245.0</ele><time>2026-04-12T16:16:53.999Z</time></trkpt><trkpt lat="42.56315807424207" lon="11.53595343250093"><ele>246.0</ele><time>2026-04-12T16:16:54.999Z</time></trkpt><trkpt lat="42.563250615671116" lon="11.535954799691444"><ele>247.0</ele><time>2026-04-12T16:16:55.999Z</time></trkpt><trkpt lat="42.56334186850619" lon="11.535936749331166"><ele>248.0</ele><time>2026-04-12T16:16:56.999Z</time></trkpt><trkpt lat="42.56342754174983" lon="11.53590637705398"><ele>248.0</ele><time>2026-04-12T16:16:58Z</time></trkpt><trkpt lat="42.56350558220177" lon="11.535885308901786"><ele>248.0</ele><time>2026-04-12T16:16:59Z</time></trkpt><trkpt lat="42.56360056700113" lon="11.535894123600077"><ele>248.0</ele><time>2026-04-12T16:17:00Z</time></trkpt><trkpt lat="42.56369460370237" lon="11.535883029396144"><ele>248.0</ele><time>2026-04-12T16:17:01Z</time></trkpt><trkpt lat="42.5637927127169" lon="11.53587291052955"><ele>248.0</ele><time>2026-04-12T16:17:02Z</time></trkpt><trkpt lat="42.56388030269216" lon="11.535866433310975"><ele>249.0</ele><time>2026-04-12T16:17:03Z</time></trkpt><trkpt lat="42.56397691669358" lon="11.535859535987454"><ele>250.0</ele><time>2026-04-12T16:17:04Z</time></trkpt><trkpt lat="42.564073231749056" lon="11.535854690016329"><ele>251.0</ele><time>2026-04-12T16:17:05Z</time></trkpt><trkpt lat="42.56416964006761" lon="11.5358303959126"><ele>252.0</ele><time>2026-04-12T16:17:06Z</time></trkpt><trkpt lat="42.56427185574171" lon="11.535837036687012"><ele>253.0</ele><time>2026-04-12T16:17:07Z</time></trkpt><trkpt lat="42.56436773157885" lon="11.535832755049283"><ele>253.0</ele><time>2026-04-12T16:17:08Z</time></trkpt><trkpt lat="42.56447303609175" lon="11.535829014374878"><ele>253.0</ele><time>2026-04-12T16:17:09Z</time></trkpt><trkpt lat="42.56457427453013" lon="11.535840527810391"><ele>253.0</ele><time>2026-04-12T16:17:10Z</time></trkpt><trkpt lat="42.56466498896437" lon="11.535856485724011"><ele>253.0</ele><time>2026-04-12T16:17:11Z</time></trkpt><trkpt lat="42.56474806825738" lon="11.535864898799405"><ele>253.0</ele><time>2026-04-12T16:17:12Z</time></trkpt><trkpt lat="42.564826649623946" lon="11.535884118672824"><ele>254.0</ele><time>2026-04-12T16:17:13Z</time></trkpt><trkpt lat="42.56491159047556" lon="11.53591466190127"><ele>255.0</ele><time>2026-04-12T16:17:14Z</time></trkpt><trkpt lat="42.56500523887382" lon="11.53594571960233"><ele>256.0</ele><time>2026-04-12T16:17:15Z</time></trkpt><trkpt lat="42.565103236322116" lon="11.53597774948019"><ele>257.0</ele><time>2026-04-12T16:17:16Z</time></trkpt><trkpt lat="42.565203892696836" lon="11.536020254681773"><ele>258.0</ele><time>2026-04-12T16:17:17Z</time></trkpt><trkpt lat="42.565316942142445" lon="11.536031565395607"><ele>259.6</ele><time>2026-04-12T16:17:18Z</time></trkpt><trkpt lat="42.56542236433088" lon="11.536031802051006"><ele>261.20000000000005</ele><time>2026-04-12T16:17:19Z</time></trkpt><trkpt lat="42.56552112663599" lon="11.536016456286303"><ele>262.8</ele><time>2026-04-12T16:17:20Z</time></trkpt><trkpt lat="42.56561774335467" lon="11.536001703997673"><ele>264.40000000000003</ele><time>2026-04-12T16:17:21Z</time></trkpt><trkpt lat="42.56572200096709" lon="11.536000589316064"><ele>266.0</ele><time>2026-04-12T16:17:22Z</time></trkpt><trkpt lat="42.56582669878907" lon="11.535999451630818"><ele>266.0</ele><time>2026-04-12T16:17:23Z</time></trkpt><trkpt lat="42.565943962004276" lon="11.535996834045282"><ele>266.0</ele><time>2026-04-12T16:17:24Z</time></trkpt><trkpt lat="42.56603850104157" lon="11.535988989868768"><ele>266.0</ele><time>2026-04-12T16:17:25Z</time></trkpt><trkpt lat="42.56613629562777" lon="11.536008889576808"><ele>266.0</ele><time>2026-04-12T16:17:26Z</time></trkpt><trkpt lat="42.566245384971666" lon="11.535994717695818"><ele>266.0</ele><time>2026-04-12T16:17:27Z</time></trkpt><trkpt lat="42.5663406112656" lon="11.5359643526026"><ele>267.0</ele><time>2026-04-12T16:17:28Z</time></trkpt><trkpt lat="42.56642737618609" lon="11.535929389651603"><ele>268.0</ele><time>2026-04-12T16:17:29Z</time></trkpt><trkpt lat="42.566511555533" lon="11.535890115289078"><ele>269.0</ele><time>2026-04-12T16:17:30Z</time></trkpt><trkpt lat="42.566591616219256" lon="11.535842132257457"><ele>270.0</ele><time>2026-04-12T16:17:31Z</time></trkpt><trkpt lat="42.56667049080245" lon="11.535770446063792"><ele>271.0</ele><time>2026-04-12T16:17:32Z</time></trkpt><trkpt lat="42.56675144011618" lon="11.535697861181657"><ele>271.0</ele><time>2026-04-12T16:17:33Z</time></trkpt><trkpt lat="42.56683065032098" lon="11.535632987413882"><ele>271.0</ele><time>2026-04-12T16:17:34Z</time></trkpt><trkpt lat="42.566927810142026" lon="11.535572980149805"><ele>271.0</ele><time>2026-04-12T16:17:35Z</time></trkpt><trkpt lat="42.56701776930593" lon="11.535496259388156"><ele>271.0</ele><time>2026-04-12T16:17:36Z</time></trkpt><trkpt lat="42.56711628558128" lon="11.535415128341793"><ele>271.0</ele><time>2026-04-12T16:17:37Z</time></trkpt><trkpt lat="42.56721178115494" lon="11.535340538034951"><ele>272.2</ele><time>2026-04-12T16:17:38Z</time></trkpt><trkpt lat="42.56730332649843" lon="11.53527123448269"><ele>273.40000000000003</ele><time>2026-04-12T16:17:39Z</time></trkpt><trkpt lat="42.567395469167195" lon="11.535202186310501"><ele>274.6</ele><time>2026-04-12T16:17:40Z</time></trkpt><trkpt lat="42.5674807233936" lon="11.535138300077417"><ele>275.8</ele><time>2026-04-12T16:17:41Z</time></trkpt><trkpt lat="42.56756614279294" lon="11.535053555331329"><ele>277.0</ele><time>2026-04-12T16:17:42Z</time></trkpt><trkpt lat="42.56765360571116" lon="11.534982906489422"><ele>277.0</ele><time>2026-04-12T16:17:43Z</time></trkpt><trkpt lat="42.567740515075506" lon="11.534924943058746"><ele>277.0</ele><time>2026-04-12T16:17:44Z</time></trkpt><trkpt lat="42.56781192929876" lon="11.534834527840992"><ele>277.0</ele><time>2026-04-12T16:17:45Z</time></trkpt><trkpt lat="42.56789496371153" lon="11.534778196165076"><ele>277.0</ele><time>2026-04-12T16:17:46Z</time></trkpt><trkpt lat="42.567967505183" lon="11.53472516915354"><ele>277.0</ele><time>2026-04-12T16:17:47Z</time></trkpt><trkpt lat="42.56803539520707" lon="11.534698062226918"><ele>277.0</ele><time>2026-04-12T16:17:48Z</time></trkpt><trkpt lat="42.56811306397289" lon="11.534664380885749"><ele>278.16666666666663</ele><time>2026-04-12T16:17:49Z</time></trkpt><trkpt lat="42.56820436776186" lon="11.534640668791855"><ele>279.3333333333333</ele><time>2026-04-12T16:17:50Z</time></trkpt><trkpt lat="42.56828764776386" lon="11.534638768788314"><ele>280.5</ele><time>2026-04-12T16:17:51Z</time></trkpt><trkpt lat="42.56837572036232" lon="11.534640806316983"><ele>281.6666666666667</ele><time>2026-04-12T16:17:52Z</time></trkpt><trkpt lat="42.56844468918005" lon="11.534660389661369"><ele>282.83333333333337</ele><time>2026-04-12T16:17:53Z</time></trkpt><trkpt lat="42.56852206539872" lon="11.534668582035524"><ele>284.0</ele><time>2026-04-12T16:17:54Z</time></trkpt><trkpt lat="42.56858091071903" lon="11.534734431970614"><ele>284.0</ele><time>2026-04-12T16:17:55Z</time></trkpt><trkpt lat="42.568646807332854" lon="11.534791734465568"><ele>284.0</ele><time>2026-04-12T16:17:56Z</time></trkpt><trkpt lat="42.56871081601405" lon="11.534848500731071"><ele>284.0</ele><time>2026-04-12T16:17:57Z</time></trkpt><trkpt lat="42.56878051073357" lon="11.53489550080244"><ele>284.0</ele><time>2026-04-12T16:17:58Z</time></trkpt><trkpt lat="42.56884531873032" lon="11.534964189911374"><ele>284.0</ele><time>2026-04-12T16:17:59Z</time></trkpt><trkpt lat="42.568918996672075" lon="11.535016554582139"><ele>284.0</ele><time>2026-04-12T16:18:00Z</time></trkpt><trkpt lat="42.56899805079882" lon="11.535061113977289"><ele>283.33333333333337</ele><time>2026-04-12T16:18:01Z</time></trkpt><trkpt lat="42.56908216689506" lon="11.535096396810212"><ele>282.6666666666667</ele><time>2026-04-12T16:18:02Z</time></trkpt><trkpt lat="42.569160770203936" lon="11.535111622287799"><ele>282.0</ele><time>2026-04-12T16:18:03Z</time></trkpt><trkpt lat="42.56923119090535" lon="11.535118573986642"><ele>281.3333333333333</ele><time>2026-04-12T16:18:04Z</time></trkpt><trkpt lat="42.56931199564934" lon="11.535140654666886"><ele>280.66666666666663</ele><time>2026-04-12T16:18:05Z</time></trkpt><trkpt lat="42.569391825128" lon="11.535165313178124"><ele>280.0</ele><time>2026-04-12T16:18:06Z</time></trkpt><trkpt lat="42.569471732309175" lon="11.535185428622837"><ele>280.8</ele><time>2026-04-12T16:18:07Z</time></trkpt><trkpt lat="42.569556803616756" lon="11.535201468803406"><ele>281.6</ele><time>2026-04-12T16:18:08Z</time></trkpt><trkpt lat="42.56965309924763" lon="11.535212516304737"><ele>282.4</ele><time>2026-04-12T16:18:09Z</time></trkpt><trkpt lat="42.56976996284003" lon="11.5352153090066"><ele>283.2</ele><time>2026-04-12T16:18:10Z</time></trkpt><trkpt lat="42.569885758490706" lon="11.53522007087108"><ele>284.0</ele><time>2026-04-12T16:18:11Z</time></trkpt><trkpt lat="42.56996874810847" lon="11.535206736296058"><ele>284.0</ele><time>2026-04-12T16:18:12Z</time></trkpt><trkpt lat="42.57003173839339" lon="11.535194568625283"><ele>284.0</ele><time>2026-04-12T16:18:13Z</time></trkpt><trkpt lat="42.57009424114062" lon="11.535169056205362"><ele>284.0</ele><time>2026-04-12T16:18:14Z</time></trkpt><trkpt lat="42.57015836032639" lon="11.535138537632818"><ele>284.0</ele><time>2026-04-12T16:18:15Z</time></trkpt><trkpt lat="42.57023390863497" lon="11.535031028499283"><ele>284.0</ele><time>2026-04-12T16:18:17Z</time></trkpt><trkpt lat="42.57028336252311" lon="11.534973731885408"><ele>284.0</ele><time>2026-04-12T16:18:18.999Z</time></trkpt><trkpt lat="42.570336719538645" lon="11.534917283858007"><ele>284.0</ele><time>2026-04-12T16:18:21.999Z</time></trkpt><trkpt lat="42.57019553700164" lon="11.534745388428837"><ele>284.0</ele><time>2026-04-12T16:18:23.999Z</time></trkpt><trkpt lat="42.57010906874482" lon="11.534681836125497"><ele>284.0</ele><time>2026-04-12T16:18:24.999Z</time></trkpt><trkpt lat="42.570008505683646" lon="11.534585355955654"><ele>284.0</ele><time>2026-04-12T16:18:25.999Z</time></trkpt><trkpt lat="42.569904157314426" lon="11.534464151018495"><ele>284.0</ele><time>2026-04-12T16:18:26.999Z</time></trkpt><trkpt lat="42.569797030770026" lon="11.534313709871379"><ele>284.33333333333337</ele><time>2026-04-12T16:18:27.999Z</time></trkpt><trkpt lat="42.569722167891406" lon="11.534126173569927"><ele>284.6666666666667</ele><time>2026-04-12T16:18:28.999Z</time></trkpt><trkpt lat="42.569647779498084" lon="11.533920860747019"><ele>285.0</ele><time>2026-04-12T16:18:29.999Z</time></trkpt><trkpt lat="42.56956210237084" lon="11.53372217970079"><ele>280.3333333333333</ele><time>2026-04-12T16:18:30.999Z</time></trkpt><trkpt lat="42.56949872090847" lon="11.533509463250759"><ele>275.66666666666663</ele><time>2026-04-12T16:18:31.999Z</time></trkpt><trkpt lat="42.569429123481214" lon="11.533300670211478"><ele>271.0</ele><time>2026-04-12T16:18:32.999Z</time></trkpt><trkpt lat="42.56935407870994" lon="11.533093795700385"><ele>271.0</ele><time>2026-04-12T16:18:33.999Z</time></trkpt><trkpt lat="42.569285509634575" lon="11.532901614334262"><ele>271.0</ele><time>2026-04-12T16:18:34.999Z</time></trkpt><trkpt lat="42.569223678876774" lon="11.532714818127856"><ele>271.0</ele><time>2026-04-12T16:18:35.999Z</time></trkpt><trkpt lat="42.56916299472847" lon="11.532549136001627"><ele>271.0</ele><time>2026-04-12T16:18:36.999Z</time></trkpt><trkpt lat="42.569093120014216" lon="11.532404138267868"><ele>271.0</ele><time>2026-04-12T16:18:37.999Z</time></trkpt><trkpt lat="42.569001052709964" lon="11.53227344475678"><ele>271.0</ele><time>2026-04-12T16:18:38.999Z</time></trkpt><trkpt lat="42.56887707942806" lon="11.532166734914409"><ele>271.0</ele><time>2026-04-12T16:18:39.999Z</time></trkpt><trkpt lat="42.568732535382054" lon="11.532086551815299"><ele>271.0</ele><time>2026-04-12T16:18:40.999Z</time></trkpt><trkpt lat="42.56858301592723" lon="11.53203651932734"><ele>271.0</ele><time>2026-04-12T16:18:41.999Z</time></trkpt><trkpt lat="42.568421102294636" lon="11.532008454661971"><ele>271.0</ele><time>2026-04-12T16:18:42.999Z</time></trkpt><trkpt lat="42.56825594481938" lon="11.531980726736853"><ele>271.0</ele><time>2026-04-12T16:18:43.999Z</time></trkpt><trkpt lat="42.56808586018421" lon="11.531940196655748"><ele>271.0</ele><time>2026-04-12T16:18:44.999Z</time></trkpt><trkpt lat="42.56791008320332" lon="11.531898906544031"><ele>271.0</ele><time>2026-04-12T16:18:45.999Z</time></trkpt><trkpt lat="42.567737227496565" lon="11.531865491668416"><ele>271.0</ele><time>2026-04-12T16:18:46.999Z</time></trkpt><trkpt lat="42.56757139060473" lon="11.53183769046898"><ele>269.0</ele><time>2026-04-12T16:18:47.999Z</time></trkpt><trkpt lat="42.567414373333406" lon="11.53180250201756"><ele>267.0</ele><time>2026-04-12T16:18:48.999Z</time></trkpt><trkpt lat="42.56725475232759" lon="11.531764777754788"><ele>265.0</ele><time>2026-04-12T16:18:49.999Z</time></trkpt><trkpt lat="42.567103198778106" lon="11.531729371801312"><ele>263.0</ele><time>2026-04-12T16:18:50.999Z</time></trkpt><trkpt lat="42.56694807299223" lon="11.531699732979016"><ele>261.0</ele><time>2026-04-12T16:18:51.999Z</time></trkpt><trkpt lat="42.566790527506164" lon="11.531674658128601"><ele>259.0</ele><time>2026-04-12T16:18:52.999Z</time></trkpt><trkpt lat="42.56664179164592" lon="11.531643406508827"><ele>259.0</ele><time>2026-04-12T16:18:53.999Z</time></trkpt><trkpt lat="42.56649804290991" lon="11.531608510496731"><ele>259.0</ele><time>2026-04-12T16:18:54.999Z</time></trkpt><trkpt lat="42.5663573744545" lon="11.531548387922346"><ele>259.0</ele><time>2026-04-12T16:18:55.999Z</time></trkpt><trkpt lat="42.566221104783295" lon="11.531499114540068"><ele>259.0</ele><time>2026-04-12T16:18:56.999Z</time></trkpt><trkpt lat="42.56608921440652" lon="11.531413465969134"><ele>257.3333333333333</ele><time>2026-04-12T16:18:57.999Z</time></trkpt><trkpt lat="42.565970959491956" lon="11.53128448950484"><ele>255.66666666666669</ele><time>2026-04-12T16:18:58.999Z</time></trkpt><trkpt lat="42.565876495965" lon="11.531129404780748"><ele>254.0</ele><time>2026-04-12T16:18:59.999Z</time></trkpt><trkpt lat="42.56579323319633" lon="11.530954150628965"><ele>254.0</ele><time>2026-04-12T16:19:00.999Z</time></trkpt><trkpt lat="42.56570810967537" lon="11.530762979436947"><ele>254.0</ele><time>2026-04-12T16:19:01.999Z</time></trkpt><trkpt lat="42.565616805171295" lon="11.530582220260806"><ele>254.0</ele><time>2026-04-12T16:19:02.999Z</time></trkpt><trkpt lat="42.565530445248406" lon="11.530374141025883"><ele>254.0</ele><time>2026-04-12T16:19:04Z</time></trkpt><trkpt lat="42.565445411208515" lon="11.530164951695065"><ele>254.0</ele><time>2026-04-12T16:19:05Z</time></trkpt><trkpt lat="42.565355402520304" lon="11.529951061547171"><ele>254.0</ele><time>2026-04-12T16:19:06Z</time></trkpt><trkpt lat="42.56526124173155" lon="11.529734807494144"><ele>251.33333333333334</ele><time>2026-04-12T16:19:07Z</time></trkpt><trkpt lat="42.56516098790379" lon="11.529509597692247"><ele>248.66666666666669</ele><time>2026-04-12T16:19:08Z</time></trkpt><trkpt lat="42.56506087662483" lon="11.529273245543957"><ele>246.0</ele><time>2026-04-12T16:19:09Z</time></trkpt><trkpt lat="42.56496282644559" lon="11.529032965952583"><ele>246.0</ele><time>2026-04-12T16:19:10Z</time></trkpt><trkpt lat="42.564876357709984" lon="11.528805180098857"><ele>246.0</ele><time>2026-04-12T16:19:11Z</time></trkpt><trkpt lat="42.564760280454145" lon="11.52855159812099"><ele>246.0</ele><time>2026-04-12T16:19:12Z</time></trkpt><trkpt lat="42.56466315982984" lon="11.528328640538664"><ele>245.66666666666669</ele><time>2026-04-12T16:19:13Z</time></trkpt><trkpt lat="42.56457009276056" lon="11.52811399454497"><ele>245.33333333333334</ele><time>2026-04-12T16:19:14Z</time></trkpt><trkpt lat="42.564478001006066" lon="11.527891594133285"><ele>245.0</ele><time>2026-04-12T16:19:15Z</time></trkpt><trkpt lat="42.56438273197528" lon="11.527661369798142"><ele>243.0</ele><time>2026-04-12T16:19:16Z</time></trkpt><trkpt lat="42.564289799871126" lon="11.527436536156584"><ele>241.0</ele><time>2026-04-12T16:19:17Z</time></trkpt><trkpt lat="42.56419664065548" lon="11.527211983791346"><ele>239.0</ele><time>2026-04-12T16:19:18Z</time></trkpt><trkpt lat="42.56410713750804" lon="11.527010769890973"><ele>239.0</ele><time>2026-04-12T16:19:19Z</time></trkpt><trkpt lat="42.56401986086905" lon="11.526821930906687"><ele>239.0</ele><time>2026-04-12T16:19:20Z</time></trkpt><trkpt lat="42.56392574069373" lon="11.526636005131568"><ele>239.0</ele><time>2026-04-12T16:19:21Z</time></trkpt><trkpt lat="42.56381140753624" lon="11.526477202717377"><ele>239.33333333333334</ele><time>2026-04-12T16:19:22Z</time></trkpt><trkpt lat="42.56367775628303" lon="11.526338051062213"><ele>239.66666666666669</ele><time>2026-04-12T16:19:23Z</time></trkpt><trkpt lat="42.56353250050855" lon="11.52622488600224"><ele>240.0</ele><time>2026-04-12T16:19:24Z</time></trkpt><trkpt lat="42.563377711240214" lon="11.526144932849304"><ele>242.33333333333331</ele><time>2026-04-12T16:19:25Z</time></trkpt><trkpt lat="42.56320832227229" lon="11.52609375026791"><ele>244.66666666666666</ele><time>2026-04-12T16:19:26Z</time></trkpt><trkpt lat="42.56304202027254" lon="11.526057361128721"><ele>247.0</ele><time>2026-04-12T16:19:27Z</time></trkpt><trkpt lat="42.562872896666576" lon="11.526018987243072"><ele>247.33333333333331</ele><time>2026-04-12T16:19:28Z</time></trkpt><trkpt lat="42.562698820319135" lon="11.525978144604744"><ele>247.66666666666669</ele><time>2026-04-12T16:19:29Z</time></trkpt><trkpt lat="42.56252391733168" lon="11.525936647702775"><ele>248.0</ele><time>2026-04-12T16:19:30Z</time></trkpt><trkpt lat="42.56234150171902" lon="11.525880652755053"><ele>248.0</ele><time>2026-04-12T16:19:31Z</time></trkpt><trkpt lat="42.56216306106561" lon="11.525831051786414"><ele>248.0</ele><time>2026-04-12T16:19:32Z</time></trkpt><trkpt lat="42.56197839115928" lon="11.525773503951601"><ele>248.0</ele><time>2026-04-12T16:19:33Z</time></trkpt><trkpt lat="42.56180747129417" lon="11.525700234441363"><ele>247.66666666666669</ele><time>2026-04-12T16:19:34Z</time></trkpt><trkpt lat="42.56163249754441" lon="11.52560717100144"><ele>247.33333333333331</ele><time>2026-04-12T16:19:35Z</time></trkpt><trkpt lat="42.56145621036607" lon="11.525500116915792"><ele>247.0</ele><time>2026-04-12T16:19:36Z</time></trkpt><trkpt lat="42.561290843393884" lon="11.525378573302858"><ele>246.33333333333331</ele><time>2026-04-12T16:19:37Z</time></trkpt><trkpt lat="42.56112959165454" lon="11.52524108185096"><ele>245.66666666666669</ele><time>2026-04-12T16:19:38Z</time></trkpt><trkpt lat="42.560976577817094" lon="11.525091090532992"><ele>245.0</ele><time>2026-04-12T16:19:39Z</time></trkpt><trkpt lat="42.56082476284082" lon="11.52493042354146"><ele>245.0</ele><time>2026-04-12T16:19:40Z</time></trkpt><trkpt lat="42.56067155313731" lon="11.524767251267145"><ele>245.0</ele><time>2026-04-12T16:19:41Z</time></trkpt><trkpt lat="42.56051355296157" lon="11.524599520880347"><ele>245.0</ele><time>2026-04-12T16:19:42Z</time></trkpt><trkpt lat="42.56034425157727" lon="11.524435977832347"><ele>244.33333333333334</ele><time>2026-04-12T16:19:43Z</time></trkpt><trkpt lat="42.560172380001056" lon="11.52429907203149"><ele>243.66666666666669</ele><time>2026-04-12T16:19:44Z</time></trkpt><trkpt lat="42.55999065130118" lon="11.524177845085989"><ele>243.0</ele><time>2026-04-12T16:19:45Z</time></trkpt><trkpt lat="42.55980437546796" lon="11.524065850314523"><ele>243.0</ele><time>2026-04-12T16:19:46Z</time></trkpt><trkpt lat="42.55961761455051" lon="11.523957875861528"><ele>243.0</ele><time>2026-04-12T16:19:47Z</time></trkpt><trkpt lat="42.55942966035788" lon="11.523854085855167"><ele>243.0</ele><time>2026-04-12T16:19:48Z</time></trkpt><trkpt lat="42.559240664696084" lon="11.523741781776488"><ele>241.33333333333331</ele><time>2026-04-12T16:19:49Z</time></trkpt><trkpt lat="42.559057804265485" lon="11.523628354380248"><ele>239.66666666666666</ele><time>2026-04-12T16:19:50Z</time></trkpt><trkpt lat="42.5588743238439" lon="11.52351990002614"><ele>238.0</ele><time>2026-04-12T16:19:51Z</time></trkpt><trkpt lat="42.55869805627768" lon="11.523415111451293"><ele>236.66666666666666</ele><time>2026-04-12T16:19:52Z</time></trkpt><trkpt lat="42.55852903968764" lon="11.523311660134377"><ele>235.33333333333331</ele><time>2026-04-12T16:19:53Z</time></trkpt><trkpt lat="42.558361997105145" lon="11.523207052573616"><ele>234.0</ele><time>2026-04-12T16:19:54Z</time></trkpt><trkpt lat="42.55819416453299" lon="11.523107581725636"><ele>234.0</ele><time>2026-04-12T16:19:55Z</time></trkpt><trkpt lat="42.55802568419164" lon="11.523009605022784"><ele>234.0</ele><time>2026-04-12T16:19:56Z</time></trkpt><trkpt lat="42.55787692502424" lon="11.522922049474616"><ele>234.0</ele><time>2026-04-12T16:19:57Z</time></trkpt><trkpt lat="42.55778679293289" lon="11.522855109831365"><ele>234.0</ele><time>2026-04-12T16:19:58Z</time></trkpt><trkpt lat="42.557725641578095" lon="11.522780202469015"><ele>233.79999999999998</ele><time>2026-04-12T16:19:59Z</time></trkpt><trkpt lat="42.55770178873667" lon="11.522652747725951"><ele>233.59999999999997</ele><time>2026-04-12T16:20:00Z</time></trkpt><trkpt lat="42.55763269274315" lon="11.522561172805062"><ele>233.4</ele><time>2026-04-12T16:20:01Z</time></trkpt><trkpt lat="42.55754594512456" lon="11.52246745945747"><ele>233.2</ele><time>2026-04-12T16:20:02Z</time></trkpt><trkpt lat="42.55745403606375" lon="11.52233879371853"><ele>233.0</ele><time>2026-04-12T16:20:03Z</time></trkpt><trkpt lat="42.557362912070104" lon="11.522218469591866"><ele>233.0</ele><time>2026-04-12T16:20:04Z</time></trkpt><trkpt lat="42.557262243722214" lon="11.522087620850183"><ele>233.0</ele><time>2026-04-12T16:20:05Z</time></trkpt><trkpt lat="42.55715938708246" lon="11.521950841551444"><ele>233.0</ele><time>2026-04-12T16:20:06Z</time></trkpt><trkpt lat="42.55706977977351" lon="11.52179673602895"><ele>233.0</ele><time>2026-04-12T16:20:07Z</time></trkpt><trkpt lat="42.55696704500522" lon="11.52165359933484"><ele>234.0</ele><time>2026-04-12T16:20:08Z</time></trkpt><trkpt lat="42.55686350855826" lon="11.521509345509426"><ele>235.0</ele><time>2026-04-12T16:20:09Z</time></trkpt><trkpt lat="42.556749846764724" lon="11.52135704852763"><ele>236.0</ele><time>2026-04-12T16:20:10Z</time></trkpt><trkpt lat="42.55663965392748" lon="11.521211669644755"><ele>236.33333333333334</ele><time>2026-04-12T16:20:11Z</time></trkpt><trkpt lat="42.556528569791915" lon="11.52106593246811"><ele>236.66666666666669</ele><time>2026-04-12T16:20:12Z</time></trkpt><trkpt lat="42.55641688922907" lon="11.520915086343283"><ele>237.0</ele><time>2026-04-12T16:20:13Z</time></trkpt><trkpt lat="42.556306484011266" lon="11.520761378835575"><ele>236.0</ele><time>2026-04-12T16:20:14Z</time></trkpt><trkpt lat="42.55619920522923" lon="11.520611305820335"><ele>235.0</ele><time>2026-04-12T16:20:15Z</time></trkpt><trkpt lat="42.556082607862486" lon="11.520448198119633"><ele>234.0</ele><time>2026-04-12T16:20:16Z</time></trkpt><trkpt lat="42.55596821503027" lon="11.520288294237446"><ele>233.33333333333331</ele><time>2026-04-12T16:20:17Z</time></trkpt><trkpt lat="42.55585003915931" lon="11.520124403157514"><ele>232.66666666666666</ele><time>2026-04-12T16:20:18Z</time></trkpt><trkpt lat="42.555736982657805" lon="11.519972455977145"><ele>232.0</ele><time>2026-04-12T16:20:19Z</time></trkpt><trkpt lat="42.555622976076535" lon="11.519819717270503"><ele>232.0</ele><time>2026-04-12T16:20:20Z</time></trkpt><trkpt lat="42.5555150397522" lon="11.519675111088034"><ele>232.0</ele><time>2026-04-12T16:20:21Z</time></trkpt><trkpt lat="42.55541126940962" lon="11.519536086204385"><ele>232.0</ele><time>2026-04-12T16:20:22Z</time></trkpt><trkpt lat="42.5553076215218" lon="11.519397225352417"><ele>232.0</ele><time>2026-04-12T16:20:23Z</time></trkpt><trkpt lat="42.555209116060524" lon="11.519263453733652"><ele>232.25</ele><time>2026-04-12T16:20:24Z</time></trkpt><trkpt lat="42.55511715489811" lon="11.51912674848545"><ele>232.5</ele><time>2026-04-12T16:20:25Z</time></trkpt><trkpt lat="42.555017045017436" lon="11.518979058090812"><ele>232.75</ele><time>2026-04-12T16:20:26Z</time></trkpt><trkpt lat="42.55493404374598" lon="11.518803479731151"><ele>233.0</ele><time>2026-04-12T16:20:27Z</time></trkpt><trkpt lat="42.55486142662764" lon="11.518628757389086"><ele>233.5</ele><time>2026-04-12T16:20:28Z</time></trkpt><trkpt lat="42.55480535551775" lon="11.518476784342942"><ele>234.0</ele><time>2026-04-12T16:20:29Z</time></trkpt><trkpt lat="42.554753968302286" lon="11.518334639122267"><ele>234.5</ele><time>2026-04-12T16:20:30Z</time></trkpt><trkpt lat="42.55470833429771" lon="11.518199381187998"><ele>235.0</ele><time>2026-04-12T16:20:31Z</time></trkpt><trkpt lat="42.55468735672798" lon="11.518050755127708"><ele>235.0</ele><time>2026-04-12T16:20:32Z</time></trkpt><trkpt lat="42.554660541279816" lon="11.517909501730784"><ele>235.0</ele><time>2026-04-12T16:20:33Z</time></trkpt><trkpt lat="42.554655802006515" lon="11.517758575696009"><ele>235.0</ele><time>2026-04-12T16:20:34Z</time></trkpt><trkpt lat="42.554648593950745" lon="11.517604188477844"><ele>235.0</ele><time>2026-04-12T16:20:35Z</time></trkpt><trkpt lat="42.55464515342778" lon="11.51741885995411"><ele>235.5</ele><time>2026-04-12T16:20:35.999Z</time></trkpt><trkpt lat="42.5546451534278" lon="11.517215295760892"><ele>236.0</ele><time>2026-04-12T16:20:36.999Z</time></trkpt><trkpt lat="42.554637886839764" lon="11.517022581869234"><ele>236.5</ele><time>2026-04-12T16:20:37.999Z</time></trkpt><trkpt lat="42.55462565391007" lon="11.516825791291518"><ele>237.0</ele><time>2026-04-12T16:20:38.999Z</time></trkpt><trkpt lat="42.55462026075793" lon="11.51663199536365"><ele>237.0</ele><time>2026-04-12T16:20:39.999Z</time></trkpt><trkpt lat="42.554613095193396" lon="11.51643408254804"><ele>237.0</ele><time>2026-04-12T16:20:40.999Z</time></trkpt><trkpt lat="42.55460579914898" lon="11.516237011622856"><ele>237.0</ele><time>2026-04-12T16:20:41.999Z</time></trkpt><trkpt lat="42.55460108537972" lon="11.51604567314676"><ele>237.0</ele><time>2026-04-12T16:20:42.999Z</time></trkpt><trkpt lat="42.554597287296076" lon="11.515827407031724"><ele>236.75</ele><time>2026-04-12T16:20:43.999Z</time></trkpt><trkpt lat="42.55460623711348" lon="11.515621118115714"><ele>236.5</ele><time>2026-04-12T16:20:44.999Z</time></trkpt><trkpt lat="42.55460565341729" lon="11.515438168670052"><ele>236.25</ele><time>2026-04-12T16:20:45.999Z</time></trkpt><trkpt lat="42.55461168658455" lon="11.515234925792573"><ele>236.0</ele><time>2026-04-12T16:20:46.999Z</time></trkpt><trkpt lat="42.55462241061816" lon="11.515030083696566"><ele>236.0</ele><time>2026-04-12T16:20:47.999Z</time></trkpt><trkpt lat="42.55463757638157" lon="11.514814178345254"><ele>236.0</ele><time>2026-04-12T16:20:48.999Z</time></trkpt><trkpt lat="42.55465373233134" lon="11.514608010110745"><ele>236.0</ele><time>2026-04-12T16:20:49.999Z</time></trkpt><trkpt lat="42.554663901270814" lon="11.514404117677108"><ele>237.0</ele><time>2026-04-12T16:20:50.999Z</time></trkpt><trkpt lat="42.554678223352546" lon="11.51419686579476"><ele>238.0</ele><time>2026-04-12T16:20:51.999Z</time></trkpt><trkpt lat="42.554698150723624" lon="11.513990202307191"><ele>239.0</ele><time>2026-04-12T16:20:52.999Z</time></trkpt><trkpt lat="42.55472070661177" lon="11.513793930615476"><ele>239.5</ele><time>2026-04-12T16:20:53.999Z</time></trkpt><trkpt lat="42.55473646154751" lon="11.513619711272034"><ele>240.0</ele><time>2026-04-12T16:20:54.999Z</time></trkpt><trkpt lat="42.55476210023721" lon="11.513481838899327"><ele>240.5</ele><time>2026-04-12T16:20:55.999Z</time></trkpt><trkpt lat="42.5547656064777" lon="11.513323416892298"><ele>241.0</ele><time>2026-04-12T16:20:56.999Z</time></trkpt><trkpt lat="42.55474429388221" lon="11.513137283521448"><ele>241.0</ele><time>2026-04-12T16:20:57.999Z</time></trkpt><trkpt lat="42.55469819675159" lon="11.51296545504327"><ele>241.0</ele><time>2026-04-12T16:20:58.999Z</time></trkpt><trkpt lat="42.55465967199394" lon="11.512787593068094"><ele>241.0</ele><time>2026-04-12T16:20:59.999Z</time></trkpt><trkpt lat="42.554603013327444" lon="11.512606503940937"><ele>241.0</ele><time>2026-04-12T16:21:00.999Z</time></trkpt><trkpt lat="42.55454675909163" lon="11.512442401738188"><ele>241.66666666666666</ele><time>2026-04-12T16:21:01.999Z</time></trkpt><trkpt lat="42.55447889038246" lon="11.512249491103947"><ele>242.33333333333331</ele><time>2026-04-12T16:21:02.999Z</time></trkpt><trkpt lat="42.55439805888088" lon="11.512066790358572"><ele>243.0</ele><time>2026-04-12T16:21:03.999Z</time></trkpt><trkpt lat="42.554337998121184" lon="11.51189105018876"><ele>243.0</ele><time>2026-04-12T16:21:04.999Z</time></trkpt><trkpt lat="42.55429278716911" lon="11.511742623687162"><ele>243.0</ele><time>2026-04-12T16:21:05.999Z</time></trkpt><trkpt lat="42.55424041683266" lon="11.511591538726558"><ele>243.0</ele><time>2026-04-12T16:21:06.999Z</time></trkpt><trkpt lat="42.55417951328717" lon="11.511443180493554"><ele>243.0</ele><time>2026-04-12T16:21:07.999Z</time></trkpt><trkpt lat="42.55411883602567" lon="11.511300952856944"><ele>243.75</ele><time>2026-04-12T16:21:08.999Z</time></trkpt><trkpt lat="42.55404058688826" lon="11.511180249222761"><ele>244.5</ele><time>2026-04-12T16:21:10.001Z</time></trkpt><trkpt lat="42.55394123427882" lon="11.511077580489532"><ele>245.25</ele><time>2026-04-12T16:21:11.001Z</time></trkpt><trkpt lat="42.55382303892787" lon="11.510983419627506"><ele>246.0</ele><time>2026-04-12T16:21:12.001Z</time></trkpt><trkpt lat="42.553715739491224" lon="11.510876633286696"><ele>245.5</ele><time>2026-04-12T16:21:13.001Z</time></trkpt><trkpt lat="42.55359313564275" lon="11.510786137987454"><ele>245.0</ele><time>2026-04-12T16:21:14.001Z</time></trkpt><trkpt lat="42.553457804742166" lon="11.510693986662579"><ele>244.5</ele><time>2026-04-12T16:21:15.001Z</time></trkpt><trkpt lat="42.553323728563676" lon="11.51060730290409"><ele>244.0</ele><time>2026-04-12T16:21:16.001Z</time></trkpt><trkpt lat="42.55318641656107" lon="11.510519131878002"><ele>244.0</ele><time>2026-04-12T16:21:17Z</time></trkpt><trkpt lat="42.55303944640948" lon="11.510423495579593"><ele>244.0</ele><time>2026-04-12T16:21:18Z</time></trkpt><trkpt lat="42.5529028601681" lon="11.510333130380873"><ele>244.0</ele><time>2026-04-12T16:21:19Z</time></trkpt><trkpt lat="42.552782440296745" lon="11.510253460968537"><ele>244.0</ele><time>2026-04-12T16:21:20Z</time></trkpt><trkpt lat="42.55265196875127" lon="11.510167141321501"><ele>242.0</ele><time>2026-04-12T16:21:21Z</time></trkpt><trkpt lat="42.55252208241774" lon="11.510081209142788"><ele>240.0</ele><time>2026-04-12T16:21:22Z</time></trkpt><trkpt lat="42.5523892273162" lon="11.50999331239664"><ele>238.0</ele><time>2026-04-12T16:21:23Z</time></trkpt><trkpt lat="42.55225132960972" lon="11.509901646649467"><ele>236.0</ele><time>2026-04-12T16:21:24Z</time></trkpt><trkpt lat="42.552120670954906" lon="11.509814152554233"><ele>235.5</ele><time>2026-04-12T16:21:25Z</time></trkpt><trkpt lat="42.55198608123601" lon="11.50972402600028"><ele>235.0</ele><time>2026-04-12T16:21:26Z</time></trkpt><trkpt lat="42.55185216012738" lon="11.50965772019662"><ele>234.5</ele><time>2026-04-12T16:21:27Z</time></trkpt><trkpt lat="42.55171561870028" lon="11.509566384080644"><ele>234.0</ele><time>2026-04-12T16:21:28Z</time></trkpt><trkpt lat="42.55157576594855" lon="11.509447801985628"><ele>233.66666666666669</ele><time>2026-04-12T16:21:29Z</time></trkpt><trkpt lat="42.551425680791965" lon="11.509369683494059"><ele>233.33333333333334</ele><time>2026-04-12T16:21:30Z</time></trkpt><trkpt lat="42.55129637080676" lon="11.509259254130422"><ele>233.0</ele><time>2026-04-12T16:21:31Z</time></trkpt><trkpt lat="42.55115000675561" lon="11.509160481301041"><ele>233.0</ele><time>2026-04-12T16:21:32Z</time></trkpt><trkpt lat="42.55099850231138" lon="11.509080714591239"><ele>233.0</ele><time>2026-04-12T16:21:33Z</time></trkpt><trkpt lat="42.550854411458005" lon="11.50898654468429"><ele>233.0</ele><time>2026-04-12T16:21:34Z</time></trkpt><trkpt lat="42.55070806072264" lon="11.508889453460977"><ele>233.0</ele><time>2026-04-12T16:21:35Z</time></trkpt><trkpt lat="42.55056888342697" lon="11.508788861790338"><ele>233.0</ele><time>2026-04-12T16:21:36Z</time></trkpt><trkpt lat="42.55042430316432" lon="11.508693914973035"><ele>233.0</ele><time>2026-04-12T16:21:37Z</time></trkpt><trkpt lat="42.55027203989709" lon="11.508611181438228"><ele>231.33333333333334</ele><time>2026-04-12T16:21:38Z</time></trkpt><trkpt lat="42.550137153732834" lon="11.50853998194642"><ele>229.66666666666669</ele><time>2026-04-12T16:21:39Z</time></trkpt><trkpt lat="42.549990785290106" lon="11.508453112350486"><ele>228.0</ele><time>2026-04-12T16:21:40Z</time></trkpt><trkpt lat="42.549839224033995" lon="11.508373996981325"><ele>228.0</ele><time>2026-04-12T16:21:41Z</time></trkpt><trkpt lat="42.54969969054872" lon="11.508278375149136"><ele>228.0</ele><time>2026-04-12T16:21:42Z</time></trkpt><trkpt lat="42.549565928742595" lon="11.508206169045355"><ele>228.0</ele><time>2026-04-12T16:21:43Z</time></trkpt><trkpt lat="42.54944358379832" lon="11.508142082953249"><ele>228.0</ele><time>2026-04-12T16:21:44Z</time></trkpt><trkpt lat="42.54931405804312" lon="11.508073142183578"><ele>228.5</ele><time>2026-04-12T16:21:45Z</time></trkpt><trkpt lat="42.5491849928267" lon="11.507993834895043"><ele>229.0</ele><time>2026-04-12T16:21:46Z</time></trkpt><trkpt lat="42.54905525557949" lon="11.507898301790345"><ele>229.5</ele><time>2026-04-12T16:21:47Z</time></trkpt><trkpt lat="42.54893069632461" lon="11.50778984913395"><ele>230.0</ele><time>2026-04-12T16:21:48Z</time></trkpt><trkpt lat="42.54880919396678" lon="11.507674336978516"><ele>229.33333333333334</ele><time>2026-04-12T16:21:49Z</time></trkpt><trkpt lat="42.54867634449544" lon="11.507532065691844"><ele>228.66666666666669</ele><time>2026-04-12T16:21:50Z</time></trkpt><trkpt lat="42.54853946352744" lon="11.507383385608652"><ele>228.0</ele><time>2026-04-12T16:21:51Z</time></trkpt><trkpt lat="42.54839995217944" lon="11.50723740676088"><ele>228.0</ele><time>2026-04-12T16:21:52Z</time></trkpt><trkpt lat="42.54825721083068" lon="11.507090123853494"><ele>228.0</ele><time>2026-04-12T16:21:53Z</time></trkpt><trkpt lat="42.54811177327295" lon="11.506967510956038"><ele>228.0</ele><time>2026-04-12T16:21:54Z</time></trkpt><trkpt lat="42.547977168519076" lon="11.50683042808781"><ele>225.33333333333331</ele><time>2026-04-12T16:21:55Z</time></trkpt><trkpt lat="42.54784101639404" lon="11.506691200519368"><ele>222.66666666666666</ele><time>2026-04-12T16:21:56Z</time></trkpt><trkpt lat="42.54770645773954" lon="11.506560548478639"><ele>220.0</ele><time>2026-04-12T16:21:57Z</time></trkpt><trkpt lat="42.54757734365189" lon="11.506432794445246"><ele>220.0</ele><time>2026-04-12T16:21:58Z</time></trkpt><trkpt lat="42.54744720151616" lon="11.50629883925483"><ele>220.0</ele><time>2026-04-12T16:21:59Z</time></trkpt><trkpt lat="42.54732075214484" lon="11.506168232239155"><ele>220.0</ele><time>2026-04-12T16:22:00Z</time></trkpt><trkpt lat="42.54720979132444" lon="11.506018730232732"><ele>219.33333333333331</ele><time>2026-04-12T16:22:01Z</time></trkpt><trkpt lat="42.547084531441975" lon="11.50587745473226"><ele>218.66666666666669</ele><time>2026-04-12T16:22:02Z</time></trkpt><trkpt lat="42.54696320367571" lon="11.505726421268516"><ele>218.0</ele><time>2026-04-12T16:22:03Z</time></trkpt><trkpt lat="42.54684961219358" lon="11.505567696772202"><ele>217.0</ele><time>2026-04-12T16:22:04Z</time></trkpt><trkpt lat="42.54672865694694" lon="11.505389789186145"><ele>216.0</ele><time>2026-04-12T16:22:05Z</time></trkpt><trkpt lat="42.546609650806005" lon="11.505214623978643"><ele>215.0</ele><time>2026-04-12T16:22:06Z</time></trkpt><trkpt lat="42.54648760454159" lon="11.50503498405504"><ele>215.0</ele><time>2026-04-12T16:22:07Z</time></trkpt><trkpt lat="42.546360568294936" lon="11.504847999310183"><ele>215.0</ele><time>2026-04-12T16:22:08Z</time></trkpt><trkpt lat="42.54622972536757" lon="11.504655411569011"><ele>215.0</ele><time>2026-04-12T16:22:09Z</time></trkpt><trkpt lat="42.546103479370124" lon="11.504469589670238"><ele>214.0</ele><time>2026-04-12T16:22:10Z</time></trkpt><trkpt lat="42.54598700448312" lon="11.504298150512682"><ele>213.0</ele><time>2026-04-12T16:22:11Z</time></trkpt><trkpt lat="42.545867056596855" lon="11.504121599179545"><ele>212.0</ele><time>2026-04-12T16:22:12Z</time></trkpt><trkpt lat="42.545752691897825" lon="11.503952932043928"><ele>212.0</ele><time>2026-04-12T16:22:13Z</time></trkpt><trkpt lat="42.545643319332044" lon="11.50379097982914"><ele>212.0</ele><time>2026-04-12T16:22:14Z</time></trkpt><trkpt lat="42.54552741780764" lon="11.503616202958396"><ele>212.0</ele><time>2026-04-12T16:22:15Z</time></trkpt><trkpt lat="42.54541072777788" lon="11.503438036191898"><ele>211.0</ele><time>2026-04-12T16:22:16Z</time></trkpt><trkpt lat="42.545294568853606" lon="11.50326067987933"><ele>210.0</ele><time>2026-04-12T16:22:17Z</time></trkpt><trkpt lat="42.545180217733204" lon="11.503083880147136"><ele>209.0</ele><time>2026-04-12T16:22:18Z</time></trkpt><trkpt lat="42.54508139057779" lon="11.502931195847754"><ele>209.25</ele><time>2026-04-12T16:22:19Z</time></trkpt><trkpt lat="42.54498999671843" lon="11.502791946485061"><ele>209.5</ele><time>2026-04-12T16:22:20Z</time></trkpt><trkpt lat="42.54490487337743" lon="11.502661058675757"><ele>209.75</ele><time>2026-04-12T16:22:21Z</time></trkpt><trkpt lat="42.54481374954784" lon="11.502523396272712"><ele>210.0</ele><time>2026-04-12T16:22:22Z</time></trkpt><trkpt lat="42.54470721579815" lon="11.50239594352763"><ele>210.0</ele><time>2026-04-12T16:22:23Z</time></trkpt><trkpt lat="42.54460893750231" lon="11.502215425421733"><ele>210.0</ele><time>2026-04-12T16:22:24Z</time></trkpt><trkpt lat="42.5445072646199" lon="11.502062457711522"><ele>210.0</ele><time>2026-04-12T16:22:25Z</time></trkpt><trkpt lat="42.5444013083647" lon="11.50190138399727"><ele>209.75</ele><time>2026-04-12T16:22:26Z</time></trkpt><trkpt lat="42.544306528077016" lon="11.50174964516254"><ele>209.5</ele><time>2026-04-12T16:22:27Z</time></trkpt><trkpt lat="42.544201159835175" lon="11.501580310611809"><ele>209.25</ele><time>2026-04-12T16:22:28Z</time></trkpt><trkpt lat="42.54411385481368" lon="11.501446805167392"><ele>209.0</ele><time>2026-04-12T16:22:29Z</time></trkpt><trkpt lat="42.54400574631634" lon="11.501319164685764"><ele>208.25</ele><time>2026-04-12T16:22:30Z</time></trkpt><trkpt lat="42.543909856473356" lon="11.501200023707282"><ele>207.5</ele><time>2026-04-12T16:22:31Z</time></trkpt><trkpt lat="42.5438219384446" lon="11.50108592993906"><ele>206.75</ele><time>2026-04-12T16:22:32Z</time></trkpt><trkpt lat="42.54368755244324" lon="11.500972306890125"><ele>206.0</ele><time>2026-04-12T16:22:32.999Z</time></trkpt><trkpt lat="42.54354160304931" lon="11.500865061447955"><ele>206.0</ele><time>2026-04-12T16:22:33.999Z</time></trkpt><trkpt lat="42.54339856493909" lon="11.500760620794576"><ele>206.0</ele><time>2026-04-12T16:22:34.999Z</time></trkpt><trkpt lat="42.543245758549475" lon="11.500642838343493"><ele>206.0</ele><time>2026-04-12T16:22:35.999Z</time></trkpt><trkpt lat="42.54310049074408" lon="11.500527953851831"><ele>205.5</ele><time>2026-04-12T16:22:36.999Z</time></trkpt><trkpt lat="42.54296435307669" lon="11.50041083434868"><ele>205.0</ele><time>2026-04-12T16:22:37.999Z</time></trkpt><trkpt lat="42.54285490393964" lon="11.500303796123024"><ele>204.5</ele><time>2026-04-12T16:22:38.999Z</time></trkpt><trkpt lat="42.54275165470655" lon="11.500196429153544"><ele>204.0</ele><time>2026-04-12T16:22:39.999Z</time></trkpt><trkpt lat="42.542652646573735" lon="11.500093434789568"><ele>204.0</ele><time>2026-04-12T16:22:40.999Z</time></trkpt><trkpt lat="42.542549218691896" lon="11.499993792838659"><ele>204.0</ele><time>2026-04-12T16:22:41.999Z</time></trkpt><trkpt lat="42.54245104324095" lon="11.499914821195462"><ele>204.0</ele><time>2026-04-12T16:22:42.999Z</time></trkpt><trkpt lat="42.5423470448158" lon="11.49985312297089"><ele>204.0</ele><time>2026-04-12T16:22:43.999Z</time></trkpt><trkpt lat="42.54225104236072" lon="11.499804807196119"><ele>204.0</ele><time>2026-04-12T16:22:44.999Z</time></trkpt><trkpt lat="42.54214368319726" lon="11.499763753844544"><ele>204.0</ele><time>2026-04-12T16:22:45.999Z</time></trkpt><trkpt lat="42.54204439932917" lon="11.499722398905408"><ele>204.0</ele><time>2026-04-12T16:22:46.999Z</time></trkpt><trkpt lat="42.54195365652694" lon="11.499668433037572"><ele>204.0</ele><time>2026-04-12T16:22:47.999Z</time></trkpt><trkpt lat="42.54186371058211" lon="11.49957966759988"><ele>204.0</ele><time>2026-04-12T16:22:48.999Z</time></trkpt><trkpt lat="42.54177211390384" lon="11.49947105213609"><ele>203.0</ele><time>2026-04-12T16:22:49.999Z</time></trkpt><trkpt lat="42.54169186001566" lon="11.49937313425584"><ele>202.0</ele><time>2026-04-12T16:22:50.999Z</time></trkpt><trkpt lat="42.541605134149364" lon="11.499273155664493"><ele>201.0</ele><time>2026-04-12T16:22:51.999Z</time></trkpt><trkpt lat="42.54152912114134" lon="11.49918602498646"><ele>200.0</ele><time>2026-04-12T16:22:52.999Z</time></trkpt><trkpt lat="42.54145583578997" lon="11.49910202102819"><ele>199.0</ele><time>2026-04-12T16:22:53.999Z</time></trkpt><trkpt lat="42.541388115182535" lon="11.49902023068368"><ele>198.99999999999997</ele><time>2026-04-12T16:22:54.999Z</time></trkpt><trkpt lat="42.54132340167807" lon="11.49893437374977"><ele>199.0</ele><time>2026-04-12T16:22:55.999Z</time></trkpt><trkpt lat="42.54127158972201" lon="11.498855569288626"><ele>199.0</ele><time>2026-04-12T16:22:56.999Z</time></trkpt><trkpt lat="42.54124276483635" lon="11.49877883537922"><ele>199.0</ele><time>2026-04-12T16:22:57.999Z</time></trkpt><trkpt lat="42.54122261884281" lon="11.498671962809222"><ele>198.99999999999997</ele><time>2026-04-12T16:22:58.999Z</time></trkpt><trkpt lat="42.541224733326864" lon="11.498536873862585"><ele>199.0</ele><time>2026-04-12T16:22:59.999Z</time></trkpt><trkpt lat="42.541209286508646" lon="11.498415368577897"><ele>195.79999999999998</ele><time>2026-04-12T16:23:00.999Z</time></trkpt><trkpt lat="42.541183726272685" lon="11.498305306140471"><ele>192.6</ele><time>2026-04-12T16:23:01.999Z</time></trkpt><trkpt lat="42.54115565936435" lon="11.498176199188844"><ele>189.4</ele><time>2026-04-12T16:23:02.999Z</time></trkpt><trkpt lat="42.541092496836335" lon="11.498051875273251"><ele>186.2</ele><time>2026-04-12T16:23:03.999Z</time></trkpt><trkpt lat="42.541019486185796" lon="11.497920043232398"><ele>183.0</ele><time>2026-04-12T16:23:04.999Z</time></trkpt><trkpt lat="42.540927750975" lon="11.497801328459841"><ele>183.0</ele><time>2026-04-12T16:23:05.999Z</time></trkpt><trkpt lat="42.540830826746145" lon="11.497686193825787"><ele>183.0</ele><time>2026-04-12T16:23:06.999Z</time></trkpt><trkpt lat="42.54073371917134" lon="11.497574865057528"><ele>183.0</ele><time>2026-04-12T16:23:07.999Z</time></trkpt><trkpt lat="42.54064903265798" lon="11.49749978166413"><ele>183.0</ele><time>2026-04-12T16:23:08.999Z</time></trkpt><trkpt lat="42.54058117746978" lon="11.49742528501844"><ele>183.0</ele><time>2026-04-12T16:23:09.999Z</time></trkpt><trkpt lat="42.54049536106654" lon="11.497369555818707"><ele>183.0</ele><time>2026-04-12T16:23:10.999Z</time></trkpt><trkpt lat="42.540411945991046" lon="11.497362898210286"><ele>183.0</ele><time>2026-04-12T16:23:11.999Z</time></trkpt><trkpt lat="42.540326510524395" lon="11.49739036762623"><ele>183.0</ele><time>2026-04-12T16:23:12.999Z</time></trkpt><trkpt lat="42.54024004632964" lon="11.497454457701162"><ele>183.0</ele><time>2026-04-12T16:23:13.999Z</time></trkpt><trkpt lat="42.54015441547252" lon="11.497545532583395"><ele>183.0</ele><time>2026-04-12T16:23:14.999Z</time></trkpt><trkpt lat="42.54005987021713" lon="11.497632543614678"><ele>185.8</ele><time>2026-04-12T16:23:16Z</time></trkpt><trkpt lat="42.53996002556724" lon="11.497704582935901"><ele>188.60000000000002</ele><time>2026-04-12T16:23:17Z</time></trkpt><trkpt lat="42.539857985005355" lon="11.497715982812666"><ele>191.39999999999998</ele><time>2026-04-12T16:23:18Z</time></trkpt><trkpt lat="42.53975904352875" lon="11.497732583844446"><ele>194.2</ele><time>2026-04-12T16:23:19Z</time></trkpt><trkpt lat="42.53966982645442" lon="11.497718279509696"><ele>197.0</ele><time>2026-04-12T16:23:20Z</time></trkpt><trkpt lat="42.53958258329725" lon="11.497660988892473"><ele>198.39999999999998</ele><time>2026-04-12T16:23:21Z</time></trkpt><trkpt lat="42.539509675773466" lon="11.497585819230602"><ele>199.79999999999998</ele><time>2026-04-12T16:23:22Z</time></trkpt><trkpt lat="42.53944201837569" lon="11.49750309777034"><ele>201.2</ele><time>2026-04-12T16:23:23Z</time></trkpt><trkpt lat="42.53939967614371" lon="11.497423004328391"><ele>202.6</ele><time>2026-04-12T16:23:24Z</time></trkpt><trkpt lat="42.53934988530942" lon="11.497315630735262"><ele>204.0</ele><time>2026-04-12T16:23:25Z</time></trkpt><trkpt lat="42.53929509632356" lon="11.49719462457088"><ele>204.0</ele><time>2026-04-12T16:23:26Z</time></trkpt><trkpt lat="42.53922564559234" lon="11.497088494631688"><ele>204.0</ele><time>2026-04-12T16:23:27Z</time></trkpt><trkpt lat="42.539167862212864" lon="11.496972826901825"><ele>204.0</ele><time>2026-04-12T16:23:28Z</time></trkpt><trkpt lat="42.53910662736896" lon="11.496866537884829"><ele>204.0</ele><time>2026-04-12T16:23:29Z</time></trkpt><trkpt lat="42.53906337787933" lon="11.496752747948465"><ele>204.0</ele><time>2026-04-12T16:23:30Z</time></trkpt><trkpt lat="42.539012746843476" lon="11.496657661389992"><ele>204.66666666666666</ele><time>2026-04-12T16:23:31Z</time></trkpt><trkpt lat="42.538964621315614" lon="11.496567279857443"><ele>205.33333333333331</ele><time>2026-04-12T16:23:32Z</time></trkpt><trkpt lat="42.53891238582824" lon="11.496466462211993"><ele>206.0</ele><time>2026-04-12T16:23:34Z</time></trkpt><trkpt lat="42.53886662739944" lon="11.496373762552416"><ele>206.66666666666666</ele><time>2026-04-12T16:23:37Z</time></trkpt><trkpt lat="42.53881028680749" lon="11.496227624557903"><ele>207.33333333333331</ele><time>2026-04-12T16:23:39Z</time></trkpt><trkpt lat="42.53879027837117" lon="11.496138038519007"><ele>208.0</ele><time>2026-04-12T16:23:40Z</time></trkpt><trkpt lat="42.538770446442236" lon="11.496008121947964"><ele>207.99999999999997</ele><time>2026-04-12T16:23:41Z</time></trkpt><trkpt lat="42.53873819632489" lon="11.495880304442945"><ele>208.0</ele><time>2026-04-12T16:23:42Z</time></trkpt><trkpt lat="42.53869808969814" lon="11.495783032187255"><ele>208.0</ele><time>2026-04-12T16:23:43Z</time></trkpt><trkpt lat="42.538651799673175" lon="11.495694567663456"><ele>208.0</ele><time>2026-04-12T16:23:44Z</time></trkpt><trkpt lat="42.53859089921928" lon="11.495581167556713"><ele>207.99999999999997</ele><time>2026-04-12T16:23:45Z</time></trkpt><trkpt lat="42.53854189016604" lon="11.495499566901529"><ele>208.0</ele><time>2026-04-12T16:23:46Z</time></trkpt><trkpt lat="42.53848977594485" lon="11.495423888899149"><ele>206.99999999999997</ele><time>2026-04-12T16:23:47Z</time></trkpt><trkpt lat="42.53843131195975" lon="11.49535860600878"><ele>206.0</ele><time>2026-04-12T16:23:48Z</time></trkpt><trkpt lat="42.538338006439595" lon="11.495295643543125"><ele>205.0</ele><time>2026-04-12T16:23:50Z</time></trkpt><trkpt lat="42.53827380201421" lon="11.495340492546074"><ele>204.0</ele><time>2026-04-12T16:23:51Z</time></trkpt><trkpt lat="42.538185663584976" lon="11.495416549014505"><ele>202.99999999999997</ele><time>2026-04-12T16:23:53Z</time></trkpt><trkpt lat="42.53812816751354" lon="11.49546959620291"><ele>202.0</ele><time>2026-04-12T16:23:54Z</time></trkpt><trkpt lat="42.53805733075741" lon="11.495543569274362"><ele>202.0</ele><time>2026-04-12T16:23:55Z</time></trkpt><trkpt lat="42.53800006526721" lon="11.495622195571734"><ele>202.0</ele><time>2026-04-12T16:23:56Z</time></trkpt><trkpt lat="42.53795905115049" lon="11.49568783577345"><ele>202.0</ele><time>2026-04-12T16:23:57Z</time></trkpt><trkpt lat="42.53786564039771" lon="11.49583892333479"><ele>202.0</ele><time>2026-04-12T16:23:59Z</time></trkpt><trkpt lat="42.53777607606096" lon="11.49591861611244"><ele>202.0</ele><time>2026-04-12T16:24:01Z</time></trkpt><trkpt lat="42.53764042602302" lon="11.495954385361504"><ele>200.6</ele><time>2026-04-12T16:24:03Z</time></trkpt><trkpt lat="42.53754648679169" lon="11.495955380127894"><ele>199.2</ele><time>2026-04-12T16:24:04Z</time></trkpt><trkpt lat="42.53744676974576" lon="11.495947551643422"><ele>197.8</ele><time>2026-04-12T16:24:05Z</time></trkpt><trkpt lat="42.53735885320366" lon="11.495950564181893"><ele>196.4</ele><time>2026-04-12T16:24:06Z</time></trkpt><trkpt lat="42.537266922817544" lon="11.495916947641353"><ele>195.0</ele><time>2026-04-12T16:24:07Z</time></trkpt><trkpt lat="42.53718895903394" lon="11.495882398584301"><ele>195.0</ele><time>2026-04-12T16:24:08Z</time></trkpt><trkpt lat="42.53711356141853" lon="11.4958461807362"><ele>195.0</ele><time>2026-04-12T16:24:09Z</time></trkpt><trkpt lat="42.53704997735496" lon="11.495795414059263"><ele>195.0</ele><time>2026-04-12T16:24:10Z</time></trkpt><trkpt lat="42.53697144290697" lon="11.495731031805482"><ele>195.0</ele><time>2026-04-12T16:24:11Z</time></trkpt><trkpt lat="42.536881303827386" lon="11.495650773966215"><ele>195.0</ele><time>2026-04-12T16:24:12Z</time></trkpt><trkpt lat="42.5367818853328" lon="11.495568615685364"><ele>194.6</ele><time>2026-04-12T16:24:13Z</time></trkpt><trkpt lat="42.536684006267166" lon="11.495510041853906"><ele>194.2</ele><time>2026-04-12T16:24:14Z</time></trkpt><trkpt lat="42.536590436731586" lon="11.49545814998184"><ele>193.8</ele><time>2026-04-12T16:24:15Z</time></trkpt><trkpt lat="42.536508866409214" lon="11.495396860877632"><ele>193.4</ele><time>2026-04-12T16:24:16Z</time></trkpt><trkpt lat="42.53642610756687" lon="11.49532606707239"><ele>193.0</ele><time>2026-04-12T16:24:17Z</time></trkpt><trkpt lat="42.53632952401286" lon="11.495234911958319"><ele>193.0</ele><time>2026-04-12T16:24:18Z</time></trkpt><trkpt lat="42.536242790056875" lon="11.495151015768283"><ele>193.0</ele><time>2026-04-12T16:24:19Z</time></trkpt><trkpt lat="42.536132061869445" lon="11.495057040882378"><ele>193.0</ele><time>2026-04-12T16:24:20Z</time></trkpt><trkpt lat="42.53604426106344" lon="11.494965784555417"><ele>193.0</ele><time>2026-04-12T16:24:21Z</time></trkpt><trkpt lat="42.535972768231254" lon="11.494881323115818"><ele>193.0</ele><time>2026-04-12T16:24:22Z</time></trkpt><trkpt lat="42.535897279868564" lon="11.494803555334181"><ele>192.25</ele><time>2026-04-12T16:24:23Z</time></trkpt><trkpt lat="42.53580309524684" lon="11.494761096399227"><ele>191.5</ele><time>2026-04-12T16:24:24Z</time></trkpt><trkpt lat="42.53569111310823" lon="11.49468630599565"><ele>190.75</ele><time>2026-04-12T16:24:25Z</time></trkpt><trkpt lat="42.53556525287971" lon="11.494625221951395"><ele>190.0</ele><time>2026-04-12T16:24:26Z</time></trkpt><trkpt lat="42.53543410788276" lon="11.494568509667745"><ele>188.5</ele><time>2026-04-12T16:24:27Z</time></trkpt><trkpt lat="42.535321425791125" lon="11.494499285849102"><ele>187.0</ele><time>2026-04-12T16:24:28Z</time></trkpt><trkpt lat="42.53521971327355" lon="11.494435009858396"><ele>185.5</ele><time>2026-04-12T16:24:29Z</time></trkpt><trkpt lat="42.53511794125638" lon="11.494384254227354"><ele>184.0</ele><time>2026-04-12T16:24:30Z</time></trkpt><trkpt lat="42.535012774727115" lon="11.494332999238795"><ele>184.0</ele><time>2026-04-12T16:24:31Z</time></trkpt><trkpt lat="42.534917262205965" lon="11.494297840230974"><ele>184.0</ele><time>2026-04-12T16:24:32Z</time></trkpt><trkpt lat="42.53482067386987" lon="11.494240407715017"><ele>184.0</ele><time>2026-04-12T16:24:33Z</time></trkpt><trkpt lat="42.53471199064212" lon="11.494210823406291"><ele>184.0</ele><time>2026-04-12T16:24:34Z</time></trkpt><trkpt lat="42.53459223756276" lon="11.494188609194486"><ele>184.0</ele><time>2026-04-12T16:24:35Z</time></trkpt><trkpt lat="42.53446894805663" lon="11.494179908935756"><ele>183.2</ele><time>2026-04-12T16:24:36Z</time></trkpt><trkpt lat="42.534356340473366" lon="11.494172549063428"><ele>182.39999999999998</ele><time>2026-04-12T16:24:37Z</time></trkpt><trkpt lat="42.53425478338709" lon="11.494157646657621"><ele>181.6</ele><time>2026-04-12T16:24:38Z</time></trkpt><trkpt lat="42.534161714809315" lon="11.494137197190975"><ele>180.8</ele><time>2026-04-12T16:24:39Z</time></trkpt><trkpt lat="42.53406845149523" lon="11.494106322781827"><ele>180.0</ele><time>2026-04-12T16:24:40Z</time></trkpt><trkpt lat="42.53397337631059" lon="11.49405578773283"><ele>180.0</ele><time>2026-04-12T16:24:41Z</time></trkpt><trkpt lat="42.53388460444801" lon="11.493997858746543"><ele>180.0</ele><time>2026-04-12T16:24:42Z</time></trkpt><trkpt lat="42.53378416663219" lon="11.493923644370904"><ele>180.0</ele><time>2026-04-12T16:24:43Z</time></trkpt><trkpt lat="42.533688586509825" lon="11.493856104115835"><ele>180.0</ele><time>2026-04-12T16:24:44Z</time></trkpt><trkpt lat="42.53358076523022" lon="11.493791270785827"><ele>180.0</ele><time>2026-04-12T16:24:45Z</time></trkpt><trkpt lat="42.53347619112959" lon="11.493738505322368"><ele>179.2</ele><time>2026-04-12T16:24:46Z</time></trkpt><trkpt lat="42.533368843928635" lon="11.49371281177968"><ele>178.4</ele><time>2026-04-12T16:24:47Z</time></trkpt><trkpt lat="42.53327250317824" lon="11.493661022036346"><ele>177.60000000000002</ele><time>2026-04-12T16:24:47.999Z</time></trkpt><trkpt lat="42.53316617400149" lon="11.49366483807234"><ele>176.8</ele><time>2026-04-12T16:24:48.999Z</time></trkpt><trkpt lat="42.53307979644169" lon="11.493614024180687"><ele>176.0</ele><time>2026-04-12T16:24:49.999Z</time></trkpt><trkpt lat="42.53300559644772" lon="11.493563129421085"><ele>176.0</ele><time>2026-04-12T16:24:50.999Z</time></trkpt><trkpt lat="42.532924239460066" lon="11.493501208359305"><ele>176.0</ele><time>2026-04-12T16:24:51.999Z</time></trkpt><trkpt lat="42.53281636760804" lon="11.49343621157111"><ele>176.0</ele><time>2026-04-12T16:24:52.999Z</time></trkpt><trkpt lat="42.53271060498827" lon="11.493342860527726"><ele>176.0</ele><time>2026-04-12T16:24:53.999Z</time></trkpt><trkpt lat="42.53260539765928" lon="11.49324151159115"><ele>176.8</ele><time>2026-04-12T16:24:54.999Z</time></trkpt><trkpt lat="42.532503571895624" lon="11.493153488033146"><ele>177.60000000000002</ele><time>2026-04-12T16:24:55.999Z</time></trkpt><trkpt lat="42.53241829130237" lon="11.493075165999368"><ele>178.4</ele><time>2026-04-12T16:24:56.999Z</time></trkpt><trkpt lat="42.53234266661878" lon="11.49299715471679"><ele>179.2</ele><time>2026-04-12T16:24:57.999Z</time></trkpt><trkpt lat="42.532244911664456" lon="11.492902518766616"><ele>180.0</ele><time>2026-04-12T16:24:58.999Z</time></trkpt><trkpt lat="42.53214889271051" lon="11.49281968923915"><ele>178.8</ele><time>2026-04-12T16:24:59.999Z</time></trkpt><trkpt lat="42.5320518686679" lon="11.49273599266899"><ele>177.6</ele><time>2026-04-12T16:25:00.999Z</time></trkpt><trkpt lat="42.53197121689627" lon="11.49266405716817"><ele>176.39999999999998</ele><time>2026-04-12T16:25:01.999Z</time></trkpt><trkpt lat="42.53188999065899" lon="11.492585172975765"><ele>175.2</ele><time>2026-04-12T16:25:02.999Z</time></trkpt><trkpt lat="42.53182001581631" lon="11.492504010769618"><ele>174.0</ele><time>2026-04-12T16:25:03.999Z</time></trkpt><trkpt lat="42.531768693607546" lon="11.49242463521469"><ele>174.0</ele><time>2026-04-12T16:25:04.999Z</time></trkpt><trkpt lat="42.53171760270167" lon="11.49233203966442"><ele>174.0</ele><time>2026-04-12T16:25:05.999Z</time></trkpt><trkpt lat="42.53165672875817" lon="11.492247028576537"><ele>174.0</ele><time>2026-04-12T16:25:06.999Z</time></trkpt><trkpt lat="42.5315808842252" lon="11.492168638871737"><ele>174.0</ele><time>2026-04-12T16:25:07.999Z</time></trkpt><trkpt lat="42.531500427450304" lon="11.492101127201137"><ele>174.0</ele><time>2026-04-12T16:25:08.999Z</time></trkpt><trkpt lat="42.531402163995544" lon="11.492022826365028"><ele>172.39999999999998</ele><time>2026-04-12T16:25:09.999Z</time></trkpt><trkpt lat="42.53131100194629" lon="11.491945042413292"><ele>170.8</ele><time>2026-04-12T16:25:10.999Z</time></trkpt><trkpt lat="42.53123295680759" lon="11.491869444764086"><ele>169.2</ele><time>2026-04-12T16:25:11.999Z</time></trkpt><trkpt lat="42.5311625218462" lon="11.4917973058967"><ele>167.60000000000002</ele><time>2026-04-12T16:25:12.999Z</time></trkpt><trkpt lat="42.531096012159665" lon="11.491722547264827"><ele>166.0</ele><time>2026-04-12T16:25:13.999Z</time></trkpt><trkpt lat="42.5310356121728" lon="11.491637089112102"><ele>165.60000000000002</ele><time>2026-04-12T16:25:14.999Z</time></trkpt><trkpt lat="42.5309797400502" lon="11.491540634466816"><ele>165.2</ele><time>2026-04-12T16:25:15.999Z</time></trkpt><trkpt lat="42.530934420905886" lon="11.491436233001446"><ele>164.8</ele><time>2026-04-12T16:25:16.999Z</time></trkpt><trkpt lat="42.53089547662862" lon="11.491320063794655"><ele>164.39999999999998</ele><time>2026-04-12T16:25:17.999Z</time></trkpt><trkpt lat="42.530857521071844" lon="11.491199558633971"><ele>164.0</ele><time>2026-04-12T16:25:18.999Z</time></trkpt><trkpt lat="42.53081985396251" lon="11.491074404279756"><ele>163.6</ele><time>2026-04-12T16:25:19.999Z</time></trkpt><trkpt lat="42.53078213323344" lon="11.490949072240774"><ele>163.2</ele><time>2026-04-12T16:25:20.999Z</time></trkpt><trkpt lat="42.53074330819289" lon="11.490818082072362"><ele>162.79999999999998</ele><time>2026-04-12T16:25:22.001Z</time></trkpt><trkpt lat="42.530708993032064" lon="11.4906953106646"><ele>162.39999999999998</ele><time>2026-04-12T16:25:23.001Z</time></trkpt><trkpt lat="42.53066967667259" lon="11.490554921435306"><ele>162.0</ele><time>2026-04-12T16:25:24.001Z</time></trkpt><trkpt lat="42.53063122006691" lon="11.490421788525005"><ele>161.2</ele><time>2026-04-12T16:25:25.001Z</time></trkpt><trkpt lat="42.53059386725886" lon="11.490296045449226"><ele>160.39999999999998</ele><time>2026-04-12T16:25:26.001Z</time></trkpt><trkpt lat="42.530550631818066" lon="11.49016461531845"><ele>159.60000000000002</ele><time>2026-04-12T16:25:27.001Z</time></trkpt><trkpt lat="42.53049871896659" lon="11.490021605370872"><ele>158.8</ele><time>2026-04-12T16:25:28.001Z</time></trkpt><trkpt lat="42.530444143807806" lon="11.489890048916411"><ele>158.0</ele><time>2026-04-12T16:25:29.001Z</time></trkpt><trkpt lat="42.5303915677906" lon="11.489777944898613"><ele>157.20000000000002</ele><time>2026-04-12T16:25:30.001Z</time></trkpt><trkpt lat="42.53033122957967" lon="11.489662587539426"><ele>156.4</ele><time>2026-04-12T16:25:31.001Z</time></trkpt><trkpt lat="42.53025868727009" lon="11.489565908117898"><ele>155.60000000000002</ele><time>2026-04-12T16:25:32.001Z</time></trkpt><trkpt lat="42.53019024957315" lon="11.48947464315618"><ele>154.8</ele><time>2026-04-12T16:25:33.001Z</time></trkpt><trkpt lat="42.5301317142612" lon="11.489381712999384"><ele>154.0</ele><time>2026-04-12T16:25:34.001Z</time></trkpt><trkpt lat="42.53008058280121" lon="11.489279998427165"><ele>154.0</ele><time>2026-04-12T16:25:35.001Z</time></trkpt><trkpt lat="42.530039807413516" lon="11.489183143507725"><ele>154.0</ele><time>2026-04-12T16:25:36.001Z</time></trkpt><trkpt lat="42.53001740283132" lon="11.489089685312411"><ele>154.0</ele><time>2026-04-12T16:25:37.001Z</time></trkpt><trkpt lat="42.5299998496304" lon="11.48898983608527"><ele>154.0</ele><time>2026-04-12T16:25:38.001Z</time></trkpt><trkpt lat="42.529998026803014" lon="11.488888914844505"><ele>154.0</ele><time>2026-04-12T16:25:39.001Z</time></trkpt><trkpt lat="42.53000175749195" lon="11.48879090293391"><ele>154.0</ele><time>2026-04-12T16:25:40Z</time></trkpt><trkpt lat="42.53002457275846" lon="11.488679506191053"><ele>153.66666666666669</ele><time>2026-04-12T16:25:41Z</time></trkpt><trkpt lat="42.530060286290286" lon="11.488552709939585"><ele>153.33333333333334</ele><time>2026-04-12T16:25:42Z</time></trkpt><trkpt lat="42.530085152305" lon="11.48843631538991"><ele>153.0</ele><time>2026-04-12T16:25:43Z</time></trkpt><trkpt lat="42.53007073143919" lon="11.488306171680733"><ele>152.66666666666666</ele><time>2026-04-12T16:25:44Z</time></trkpt><trkpt lat="42.53006865666534" lon="11.488204120876379"><ele>152.33333333333331</ele><time>2026-04-12T16:25:45Z</time></trkpt><trkpt lat="42.53001940533095" lon="11.488119125851632"><ele>152.0</ele><time>2026-04-12T16:25:46Z</time></trkpt><trkpt lat="42.529952989954644" lon="11.488040156311696"><ele>152.0</ele><time>2026-04-12T16:25:47Z</time></trkpt><trkpt lat="42.529895515492505" lon="11.487958738163343"><ele>152.0</ele><time>2026-04-12T16:25:48Z</time></trkpt><trkpt lat="42.5298411394349" lon="11.487858633174522"><ele>152.0</ele><time>2026-04-12T16:25:49Z</time></trkpt><trkpt lat="42.529801384242695" lon="11.487775216306167"><ele>152.0</ele><time>2026-04-12T16:25:50Z</time></trkpt><trkpt lat="42.5297743505515" lon="11.487690344757146"><ele>152.0</ele><time>2026-04-12T16:25:51Z</time></trkpt><trkpt lat="42.52975468934438" lon="11.487588187497742"><ele>152.0</ele><time>2026-04-12T16:25:52Z</time></trkpt><trkpt lat="42.52975205986406" lon="11.487479941493875"><ele>152.0</ele><time>2026-04-12T16:25:53Z</time></trkpt><trkpt lat="42.529747160001186" lon="11.487339929535507"><ele>152.0</ele><time>2026-04-12T16:25:54Z</time></trkpt><trkpt lat="42.52972380878456" lon="11.487170654047864"><ele>152.0</ele><time>2026-04-12T16:25:55Z</time></trkpt><trkpt lat="42.529688517920775" lon="11.487006369263991"><ele>152.0</ele><time>2026-04-12T16:25:56Z</time></trkpt><trkpt lat="42.5296574055317" lon="11.48685573721683"><ele>151.79999999999998</ele><time>2026-04-12T16:25:57Z</time></trkpt><trkpt lat="42.529637348274136" lon="11.486719510628078"><ele>151.6</ele><time>2026-04-12T16:25:58Z</time></trkpt><trkpt lat="42.529622000341575" lon="11.486578303472028"><ele>151.39999999999998</ele><time>2026-04-12T16:25:59Z</time></trkpt><trkpt lat="42.52961131774606" lon="11.486451008678307"><ele>151.2</ele><time>2026-04-12T16:26:00Z</time></trkpt><trkpt lat="42.52960406318011" lon="11.486318524940106"><ele>151.0</ele><time>2026-04-12T16:26:01Z</time></trkpt><trkpt lat="42.52960175374807" lon="11.486197929663632"><ele>150.33333333333334</ele><time>2026-04-12T16:26:02Z</time></trkpt><trkpt lat="42.52960390922771" lon="11.486085465200683"><ele>149.66666666666669</ele><time>2026-04-12T16:26:03Z</time></trkpt><trkpt lat="42.52960980233062" lon="11.485968616343554"><ele>149.0</ele><time>2026-04-12T16:26:04Z</time></trkpt><trkpt lat="42.529626343028006" lon="11.485848583885943"><ele>148.33333333333334</ele><time>2026-04-12T16:26:05Z</time></trkpt><trkpt lat="42.52965629716332" lon="11.485723991993307"><ele>147.66666666666666</ele><time>2026-04-12T16:26:06Z</time></trkpt><trkpt lat="42.52969064106332" lon="11.485610100686316"><ele>147.0</ele><time>2026-04-12T16:26:07Z</time></trkpt><trkpt lat="42.52972193870923" lon="11.485502023458594"><ele>147.16666666666666</ele><time>2026-04-12T16:26:08Z</time></trkpt><trkpt lat="42.52974679511694" lon="11.485408826720102"><ele>147.33333333333334</ele><time>2026-04-12T16:26:09Z</time></trkpt><trkpt lat="42.52976785724419" lon="11.485316095177616"><ele>147.5</ele><time>2026-04-12T16:26:10Z</time></trkpt><trkpt lat="42.5297802037642" lon="11.485231151203433"><ele>147.66666666666669</ele><time>2026-04-12T16:26:11Z</time></trkpt><trkpt lat="42.52978255376066" lon="11.48513160041367"><ele>147.83333333333334</ele><time>2026-04-12T16:26:12Z</time></trkpt><trkpt lat="42.529761515533735" lon="11.485017735303686"><ele>148.0</ele><time>2026-04-12T16:26:13Z</time></trkpt><trkpt lat="42.529703056322546" lon="11.484918079425878"><ele>148.0</ele><time>2026-04-12T16:26:14Z</time></trkpt><trkpt lat="42.5296651832245" lon="11.484797057396925"><ele>148.0</ele><time>2026-04-12T16:26:15Z</time></trkpt><trkpt lat="42.52961708576039" lon="11.484696870364031"><ele>148.0</ele><time>2026-04-12T16:26:16Z</time></trkpt><trkpt lat="42.52956323273713" lon="11.484584961921145"><ele>148.0</ele><time>2026-04-12T16:26:17Z</time></trkpt><trkpt lat="42.52950011279381" lon="11.484492452379254"><ele>148.0</ele><time>2026-04-12T16:26:18Z</time></trkpt><trkpt lat="42.52945488555826" lon="11.48438253509205"><ele>148.20000000000002</ele><time>2026-04-12T16:26:19Z</time></trkpt><trkpt lat="42.52939986732973" lon="11.484277052234082"><ele>148.4</ele><time>2026-04-12T16:26:20Z</time></trkpt><trkpt lat="42.52936216421609" lon="11.484159016625513"><ele>148.60000000000002</ele><time>2026-04-12T16:26:21Z</time></trkpt><trkpt lat="42.52931263394687" lon="11.484048753232232"><ele>148.8</ele><time>2026-04-12T16:26:22Z</time></trkpt><trkpt lat="42.52925968358322" lon="11.483934953924747"><ele>149.0</ele><time>2026-04-12T16:26:23Z</time></trkpt><trkpt lat="42.529202980026554" lon="11.483833160203831"><ele>149.6</ele><time>2026-04-12T16:26:24Z</time></trkpt><trkpt lat="42.52913798690187" lon="11.483741245217955"><ele>150.2</ele><time>2026-04-12T16:26:25Z</time></trkpt><trkpt lat="42.529065463929676" lon="11.483668508836868"><ele>150.79999999999998</ele><time>2026-04-12T16:26:26Z</time></trkpt><trkpt lat="42.528984130322605" lon="11.483626539111647"><ele>151.4</ele><time>2026-04-12T16:26:27Z</time></trkpt><trkpt lat="42.52890794637798" lon="11.483555134381085"><ele>152.0</ele><time>2026-04-12T16:26:28Z</time></trkpt><trkpt lat="42.528816203441764" lon="11.483511328584015"><ele>154.8</ele><time>2026-04-12T16:26:29Z</time></trkpt><trkpt lat="42.52871817194642" lon="11.483468223253706"><ele>157.6</ele><time>2026-04-12T16:26:30Z</time></trkpt><trkpt lat="42.5286129690415" lon="11.483423571986231"><ele>160.4</ele><time>2026-04-12T16:26:31Z</time></trkpt><trkpt lat="42.52851488753612" lon="11.483384106797418"><ele>163.20000000000002</ele><time>2026-04-12T16:26:32Z</time></trkpt><trkpt lat="42.52839886119601" lon="11.483356327887106"><ele>166.0</ele><time>2026-04-12T16:26:33Z</time></trkpt><trkpt lat="42.52828961605872" lon="11.483323797355045"><ele>166.0</ele><time>2026-04-12T16:26:34Z</time></trkpt><trkpt lat="42.528175592484466" lon="11.483286542965935"><ele>166.0</ele><time>2026-04-12T16:26:35Z</time></trkpt><trkpt lat="42.52804480594335" lon="11.483250082649716"><ele>166.0</ele><time>2026-04-12T16:26:36Z</time></trkpt><trkpt lat="42.52793756893688" lon="11.483192951450965"><ele>166.0</ele><time>2026-04-12T16:26:37Z</time></trkpt><trkpt lat="42.52783277803824" lon="11.48314787032287"><ele>168.20000000000002</ele><time>2026-04-12T16:26:38Z</time></trkpt><trkpt lat="42.5277307559147" lon="11.483090918225745"><ele>170.4</ele><time>2026-04-12T16:26:39Z</time></trkpt><trkpt lat="42.52765399322114" lon="11.48303817943215"><ele>172.6</ele><time>2026-04-12T16:26:40Z</time></trkpt><trkpt lat="42.52756447015198" lon="11.482975501083272"><ele>174.8</ele><time>2026-04-12T16:26:41Z</time></trkpt><trkpt lat="42.52746637731387" lon="11.482897780995524"><ele>177.0</ele><time>2026-04-12T16:26:42Z</time></trkpt><trkpt lat="42.5273896343069" lon="11.482829695219335"><ele>178.2</ele><time>2026-04-12T16:26:43Z</time></trkpt><trkpt lat="42.52730118209515" lon="11.482742153879876"><ele>179.39999999999998</ele><time>2026-04-12T16:26:44Z</time></trkpt><trkpt lat="42.527213471167045" lon="11.482643017532215"><ele>180.60000000000002</ele><time>2026-04-12T16:26:45Z</time></trkpt><trkpt lat="42.52714282318334" lon="11.482538252352365"><ele>181.8</ele><time>2026-04-12T16:26:46Z</time></trkpt><trkpt lat="42.527085671185176" lon="11.482423966468437"><ele>183.0</ele><time>2026-04-12T16:26:47Z</time></trkpt><trkpt lat="42.52704824608469" lon="11.48230253028169"><ele>185.75</ele><time>2026-04-12T16:26:48Z</time></trkpt><trkpt lat="42.526995028321956" lon="11.482175192652468"><ele>188.5</ele><time>2026-04-12T16:26:49Z</time></trkpt><trkpt lat="42.526927305940724" lon="11.482047761771888"><ele>191.25</ele><time>2026-04-12T16:26:49.999Z</time></trkpt><trkpt lat="42.52685983815234" lon="11.481909654209836"><ele>194.0</ele><time>2026-04-12T16:26:50.999Z</time></trkpt><trkpt lat="42.52681998781331" lon="11.48176417567535"><ele>196.5</ele><time>2026-04-12T16:26:51.999Z</time></trkpt><trkpt lat="42.5267767380825" lon="11.481608826864045"><ele>199.0</ele><time>2026-04-12T16:26:52.999Z</time></trkpt><trkpt lat="42.52672201557839" lon="11.481445395494303"><ele>201.5</ele><time>2026-04-12T16:26:53.999Z</time></trkpt><trkpt lat="42.526685009524726" lon="11.481282158470481"><ele>204.0</ele><time>2026-04-12T16:26:54.999Z</time></trkpt><trkpt lat="42.52664628628118" lon="11.481092592866412"><ele>205.75</ele><time>2026-04-12T16:26:55.999Z</time></trkpt><trkpt lat="42.52661094833601" lon="11.480919283729985"><ele>207.5</ele><time>2026-04-12T16:26:56.999Z</time></trkpt><trkpt lat="42.526559747788234" lon="11.480756754294562"><ele>209.25</ele><time>2026-04-12T16:26:57.999Z</time></trkpt><trkpt lat="42.52650972733456" lon="11.480590874450105"><ele>211.0</ele><time>2026-04-12T16:26:58.999Z</time></trkpt><trkpt lat="42.526432799863045" lon="11.480387250976035"><ele>212.0</ele><time>2026-04-12T16:26:59.999Z</time></trkpt><trkpt lat="42.52639211105331" lon="11.480273070076377"><ele>213.0</ele><time>2026-04-12T16:27:00.999Z</time></trkpt><trkpt lat="42.52635541251467" lon="11.480148570996043"><ele>214.00000000000003</ele><time>2026-04-12T16:27:01.999Z</time></trkpt><trkpt lat="42.52631649088673" lon="11.480007994478344"><ele>215.0</ele><time>2026-04-12T16:27:02.999Z</time></trkpt><trkpt lat="42.526266900088814" lon="11.479888830068278"><ele>216.0</ele><time>2026-04-12T16:27:03.999Z</time></trkpt><trkpt lat="42.526233478225144" lon="11.479770152562303"><ele>216.20000000000002</ele><time>2026-04-12T16:27:04.999Z</time></trkpt><trkpt lat="42.52617588072081" lon="11.479653311610257"><ele>216.40000000000003</ele><time>2026-04-12T16:27:05.999Z</time></trkpt><trkpt lat="42.526113613458136" lon="11.479521401681218"><ele>216.6</ele><time>2026-04-12T16:27:06.999Z</time></trkpt><trkpt lat="42.52605385828225" lon="11.47940241985261"><ele>216.8</ele><time>2026-04-12T16:27:07.999Z</time></trkpt><trkpt lat="42.526023646651176" lon="11.479270921342854"><ele>217.0</ele><time>2026-04-12T16:27:08.999Z</time></trkpt><trkpt lat="42.52601167583207" lon="11.479135407595042"><ele>217.0</ele><time>2026-04-12T16:27:09.999Z</time></trkpt><trkpt lat="42.52601165354656" lon="11.479002008335623"><ele>217.0</ele><time>2026-04-12T16:27:10.999Z</time></trkpt><trkpt lat="42.526017464174714" lon="11.47885545677179"><ele>217.0</ele><time>2026-04-12T16:27:11.999Z</time></trkpt><trkpt lat="42.52602342435276" lon="11.478709224799546"><ele>217.0</ele><time>2026-04-12T16:27:12.999Z</time></trkpt><trkpt lat="42.52602002735848" lon="11.478601624548226"><ele>217.0</ele><time>2026-04-12T16:27:13.999Z</time></trkpt><trkpt lat="42.52600295437068" lon="11.47851183876423"><ele>218.83333333333331</ele><time>2026-04-12T16:27:14.999Z</time></trkpt><trkpt lat="42.52597050094901" lon="11.478435427010988"><ele>220.66666666666666</ele><time>2026-04-12T16:27:15.999Z</time></trkpt><trkpt lat="42.52592400418447" lon="11.478355336495103"><ele>222.5</ele><time>2026-04-12T16:27:16.999Z</time></trkpt><trkpt lat="42.525840693824996" lon="11.478315902711177"><ele>224.33333333333331</ele><time>2026-04-12T16:27:17.999Z</time></trkpt><trkpt lat="42.52574920456753" lon="11.478254160463424"><ele>226.16666666666666</ele><time>2026-04-12T16:27:18.999Z</time></trkpt><trkpt lat="42.52567305130839" lon="11.478197235154699"><ele>228.0</ele><time>2026-04-12T16:27:19.999Z</time></trkpt><trkpt lat="42.52560013833969" lon="11.478140473593688"><ele>228.0</ele><time>2026-04-12T16:27:20.999Z</time></trkpt><trkpt lat="42.52553333109158" lon="11.478080347242065"><ele>228.0</ele><time>2026-04-12T16:27:21.999Z</time></trkpt><trkpt lat="42.52547341721975" lon="11.47803393663906"><ele>228.0</ele><time>2026-04-12T16:27:22.999Z</time></trkpt><trkpt lat="42.52543682462854" lon="11.477862226728979"><ele>228.0</ele><time>2026-04-12T16:27:24.999Z</time></trkpt><trkpt lat="42.52547024534799" lon="11.477756928193909"><ele>228.0</ele><time>2026-04-12T16:27:25.999Z</time></trkpt><trkpt lat="42.525481545965725" lon="11.47762996467462"><ele>228.25</ele><time>2026-04-12T16:27:26.999Z</time></trkpt><trkpt lat="42.525487059123" lon="11.477475185177191"><ele>228.5</ele><time>2026-04-12T16:27:28Z</time></trkpt><trkpt lat="42.52549415000833" lon="11.47731242234968"><ele>228.75</ele><time>2026-04-12T16:27:29Z</time></trkpt><trkpt lat="42.5255020360313" lon="11.477154581397675"><ele>229.0</ele><time>2026-04-12T16:27:30Z</time></trkpt><trkpt lat="42.52552682414846" lon="11.476990381459164"><ele>229.0</ele><time>2026-04-12T16:27:31Z</time></trkpt><trkpt lat="42.52552357263751" lon="11.47682380766519"><ele>228.99999999999997</ele><time>2026-04-12T16:27:32Z</time></trkpt><trkpt lat="42.5255346369346" lon="11.476671356887486"><ele>228.99999999999997</ele><time>2026-04-12T16:27:33Z</time></trkpt><trkpt lat="42.525531346920445" lon="11.476528118464666"><ele>229.0</ele><time>2026-04-12T16:27:34Z</time></trkpt><trkpt lat="42.52550025656345" lon="11.476398520480211"><ele>229.0</ele><time>2026-04-12T16:27:35Z</time></trkpt><trkpt lat="42.52544704482976" lon="11.476263178015945"><ele>227.2</ele><time>2026-04-12T16:27:36Z</time></trkpt><trkpt lat="42.525395492041575" lon="11.476140849607237"><ele>225.39999999999998</ele><time>2026-04-12T16:27:37Z</time></trkpt><trkpt lat="42.525332601063745" lon="11.476014621239"><ele>223.6</ele><time>2026-04-12T16:27:38Z</time></trkpt><trkpt lat="42.52527074046752" lon="11.475885600430281"><ele>221.8</ele><time>2026-04-12T16:27:39Z</time></trkpt><trkpt lat="42.525197380352644" lon="11.47576144228709"><ele>220.0</ele><time>2026-04-12T16:27:40Z</time></trkpt><trkpt lat="42.52510692072768" lon="11.475647266290729"><ele>220.0</ele><time>2026-04-12T16:27:41Z</time></trkpt><trkpt lat="42.525016492868474" lon="11.475540991111576"><ele>220.0</ele><time>2026-04-12T16:27:42Z</time></trkpt><trkpt lat="42.524921434648505" lon="11.475426472217116"><ele>220.0</ele><time>2026-04-12T16:27:43Z</time></trkpt><trkpt lat="42.524832660011036" lon="11.475315395362536"><ele>220.0</ele><time>2026-04-12T16:27:44Z</time></trkpt><trkpt lat="42.52475293322789" lon="11.475222120924036"><ele>221.2</ele><time>2026-04-12T16:27:45Z</time></trkpt><trkpt lat="42.52468009312632" lon="11.475137902392817"><ele>222.4</ele><time>2026-04-12T16:27:46Z</time></trkpt><trkpt lat="42.524615706673295" lon="11.4750444519454"><ele>223.60000000000002</ele><time>2026-04-12T16:27:47Z</time></trkpt><trkpt lat="42.52452341612553" lon="11.47495895885652"><ele>224.8</ele><time>2026-04-12T16:27:48Z</time></trkpt><trkpt lat="42.5244333348553" lon="11.474877073848587"><ele>226.0</ele><time>2026-04-12T16:27:49Z</time></trkpt><trkpt lat="42.524331112016135" lon="11.474818751288357"><ele>226.8</ele><time>2026-04-12T16:27:50Z</time></trkpt><trkpt lat="42.52421375812742" lon="11.47477650141173"><ele>227.60000000000002</ele><time>2026-04-12T16:27:51Z</time></trkpt><trkpt lat="42.52409952083941" lon="11.474755673653817"><ele>228.4</ele><time>2026-04-12T16:27:52Z</time></trkpt><trkpt lat="42.52399934952224" lon="11.474733987053224"><ele>229.2</ele><time>2026-04-12T16:27:53Z</time></trkpt><trkpt lat="42.52392384851206" lon="11.474717618326034"><ele>230.0</ele><time>2026-04-12T16:27:54Z</time></trkpt><trkpt lat="42.52385294795617" lon="11.474704820528949"><ele>230.0</ele><time>2026-04-12T16:27:55Z</time></trkpt><trkpt lat="42.52375380327851" lon="11.474759014887805"><ele>230.0</ele><time>2026-04-12T16:27:57Z</time></trkpt><trkpt lat="42.523680724643015" lon="11.47480276721182"><ele>230.0</ele><time>2026-04-12T16:27:58Z</time></trkpt><trkpt lat="42.523592478744334" lon="11.47481274734532"><ele>230.0</ele><time>2026-04-12T16:27:59Z</time></trkpt><trkpt lat="42.52349528293889" lon="11.474851763115796"><ele>230.0</ele><time>2026-04-12T16:28:00Z</time></trkpt><trkpt lat="42.52339943831628" lon="11.474846022366446"><ele>229.50000000000003</ele><time>2026-04-12T16:28:01Z</time></trkpt><trkpt lat="42.52330709602172" lon="11.474832647431002"><ele>229.0</ele><time>2026-04-12T16:28:02Z</time></trkpt><trkpt lat="42.523215183855164" lon="11.474812603571944"><ele>228.5</ele><time>2026-04-12T16:28:03Z</time></trkpt><trkpt lat="42.52312110268291" lon="11.47479867182411"><ele>228.0</ele><time>2026-04-12T16:28:04Z</time></trkpt><trkpt lat="42.52304023624469" lon="11.474790990399276"><ele>227.50000000000003</ele><time>2026-04-12T16:28:05Z</time></trkpt><trkpt lat="42.522973058093065" lon="11.474779392654378"><ele>227.0</ele><time>2026-04-12T16:28:06Z</time></trkpt><trkpt lat="42.5229091323554" lon="11.474767703912987"><ele>225.66666666666669</ele><time>2026-04-12T16:28:07Z</time></trkpt><trkpt lat="42.52284550718779" lon="11.474738906099612"><ele>224.33333333333334</ele><time>2026-04-12T16:28:08Z</time></trkpt><trkpt lat="42.52277529519557" lon="11.474696603803807"><ele>223.0</ele><time>2026-04-12T16:28:09Z</time></trkpt><trkpt lat="42.52270387626852" lon="11.474653963199446"><ele>221.66666666666669</ele><time>2026-04-12T16:28:10Z</time></trkpt><trkpt lat="42.52262758166146" lon="11.474614057841634"><ele>220.33333333333334</ele><time>2026-04-12T16:28:11Z</time></trkpt><trkpt lat="42.52254231600683" lon="11.474597043396288"><ele>219.0</ele><time>2026-04-12T16:28:12Z</time></trkpt><trkpt lat="42.522453602124955" lon="11.474605354618868"><ele>219.0</ele><time>2026-04-12T16:28:13Z</time></trkpt><trkpt lat="42.52236863459235" lon="11.474625204125788"><ele>218.99999999999997</ele><time>2026-04-12T16:28:14Z</time></trkpt><trkpt lat="42.522279783508054" lon="11.474638853741961"><ele>218.99999999999997</ele><time>2026-04-12T16:28:15Z</time></trkpt><trkpt lat="42.522192189030704" lon="11.47462138620702"><ele>219.0</ele><time>2026-04-12T16:28:16Z</time></trkpt><trkpt lat="42.5220989392622" lon="11.474640308664572"><ele>219.0</ele><time>2026-04-12T16:28:17Z</time></trkpt><trkpt lat="42.52199826573751" lon="11.474636505402897"><ele>217.6</ele><time>2026-04-12T16:28:18Z</time></trkpt><trkpt lat="42.521897427358184" lon="11.474614819555383"><ele>216.2</ele><time>2026-04-12T16:28:19Z</time></trkpt><trkpt lat="42.52178337261612" lon="11.47462807737362"><ele>214.79999999999998</ele><time>2026-04-12T16:28:20Z</time></trkpt><trkpt lat="42.52167289097481" lon="11.474617468047471"><ele>213.39999999999998</ele><time>2026-04-12T16:28:21Z</time></trkpt><trkpt lat="42.521556885263045" lon="11.474634590912954"><ele>212.0</ele><time>2026-04-12T16:28:22Z</time></trkpt><trkpt lat="42.52143891543645" lon="11.474602398056584"><ele>209.8</ele><time>2026-04-12T16:28:23Z</time></trkpt><trkpt lat="42.52132413557529" lon="11.474582404855514"><ele>207.6</ele><time>2026-04-12T16:28:24Z</time></trkpt><trkpt lat="42.52122997002128" lon="11.4745643418208"><ele>205.4</ele><time>2026-04-12T16:28:25Z</time></trkpt><trkpt lat="42.52114471076779" lon="11.47455685223212"><ele>203.20000000000002</ele><time>2026-04-12T16:28:26Z</time></trkpt><trkpt lat="42.52105911428956" lon="11.474544297021012"><ele>201.0</ele><time>2026-04-12T16:28:27Z</time></trkpt><trkpt lat="42.52097957603907" lon="11.47452796069936"><ele>199.4</ele><time>2026-04-12T16:28:28Z</time></trkpt><trkpt lat="42.52086881659382" lon="11.474477040071678"><ele>197.8</ele><time>2026-04-12T16:28:30Z</time></trkpt><trkpt lat="42.52077179714943" lon="11.474371624831605"><ele>196.20000000000002</ele><time>2026-04-12T16:28:32Z</time></trkpt><trkpt lat="42.52075303526226" lon="11.47424921500253"><ele>194.60000000000002</ele><time>2026-04-12T16:28:33Z</time></trkpt><trkpt lat="42.52069811336242" lon="11.474142800689103"><ele>193.0</ele><time>2026-04-12T16:28:34Z</time></trkpt><trkpt lat="42.5206445294635" lon="11.474040776185097"><ele>192.99999999999997</ele><time>2026-04-12T16:28:35Z</time></trkpt><trkpt lat="42.52058327546397" lon="11.473964018440936"><ele>193.0</ele><time>2026-04-12T16:28:36Z</time></trkpt><trkpt lat="42.52051464749206" lon="11.473898898747798"><ele>193.0</ele><time>2026-04-12T16:28:37Z</time></trkpt><trkpt lat="42.52043772128535" lon="11.473848765833443"><ele>193.0</ele><time>2026-04-12T16:28:38Z</time></trkpt><trkpt lat="42.52036386371346" lon="11.473806599548993"><ele>192.99999999999997</ele><time>2026-04-12T16:28:39Z</time></trkpt><trkpt lat="42.52029533922324" lon="11.473780880858444"><ele>193.0</ele><time>2026-04-12T16:28:40Z</time></trkpt><trkpt lat="42.52021962219948" lon="11.473786601150502"><ele>191.4</ele><time>2026-04-12T16:28:41Z</time></trkpt><trkpt lat="42.520138711035" lon="11.473812722459542"><ele>189.8</ele><time>2026-04-12T16:28:42Z</time></trkpt><trkpt lat="42.520052393177146" lon="11.47383833711936"><ele>188.2</ele><time>2026-04-12T16:28:43Z</time></trkpt><trkpt lat="42.51995601587805" lon="11.473860198694931"><ele>186.6</ele><time>2026-04-12T16:28:44Z</time></trkpt><trkpt lat="42.51985418527169" lon="11.473890285153406"><ele>185.0</ele><time>2026-04-12T16:28:45Z</time></trkpt><trkpt lat="42.51975849540074" lon="11.473920924427324"><ele>185.0</ele><time>2026-04-12T16:28:46Z</time></trkpt><trkpt lat="42.519662794299926" lon="11.473937442739503"><ele>185.0</ele><time>2026-04-12T16:28:47Z</time></trkpt><trkpt lat="42.51957316095605" lon="11.473998598061327"><ele>185.0</ele><time>2026-04-12T16:28:48Z</time></trkpt><trkpt lat="42.51949316642251" lon="11.474037743736952"><ele>185.0</ele><time>2026-04-12T16:28:49Z</time></trkpt><trkpt lat="42.51942033725961" lon="11.474076585490725"><ele>185.0</ele><time>2026-04-12T16:28:50Z</time></trkpt><trkpt lat="42.51935253171164" lon="11.474121922747306"><ele>185.0</ele><time>2026-04-12T16:28:51Z</time></trkpt><trkpt lat="42.51928791954956" lon="11.474153817829505"><ele>183.8</ele><time>2026-04-12T16:28:52Z</time></trkpt><trkpt lat="42.519190183234336" lon="11.474202618442565"><ele>182.6</ele><time>2026-04-12T16:28:54Z</time></trkpt><trkpt lat="42.51906422822832" lon="11.474156492320457"><ele>181.39999999999998</ele><time>2026-04-12T16:28:56Z</time></trkpt><trkpt lat="42.518983724236755" lon="11.474108103158901"><ele>180.2</ele><time>2026-04-12T16:28:57Z</time></trkpt><trkpt lat="42.518887836428114" lon="11.474075345929453"><ele>179.0</ele><time>2026-04-12T16:28:57.999Z</time></trkpt><trkpt lat="42.51879340289722" lon="11.47400845577186"><ele>178.79999999999998</ele><time>2026-04-12T16:28:58.999Z</time></trkpt><trkpt lat="42.518691868763746" lon="11.47397071727373"><ele>178.6</ele><time>2026-04-12T16:28:59.999Z</time></trkpt><trkpt lat="42.518592212737936" lon="11.473936061080414"><ele>178.4</ele><time>2026-04-12T16:29:00.999Z</time></trkpt><trkpt lat="42.51850429281963" lon="11.473929717323232"><ele>178.2</ele><time>2026-04-12T16:29:01.999Z</time></trkpt><trkpt lat="42.51843418734074" lon="11.473898147796557"><ele>178.0</ele><time>2026-04-12T16:29:02.999Z</time></trkpt><trkpt lat="42.518354837868436" lon="11.473874341450477"><ele>178.0</ele><time>2026-04-12T16:29:03.999Z</time></trkpt><trkpt lat="42.51827084060688" lon="11.473830370290383"><ele>178.0</ele><time>2026-04-12T16:29:04.999Z</time></trkpt><trkpt lat="42.518191710913754" lon="11.473808577263542"><ele>178.0</ele><time>2026-04-12T16:29:05.999Z</time></trkpt><trkpt lat="42.518121995788675" lon="11.473797642493917"><ele>178.0</ele><time>2026-04-12T16:29:06.999Z</time></trkpt><trkpt lat="42.518008784297635" lon="11.47382242295937"><ele>178.0</ele><time>2026-04-12T16:29:08.999Z</time></trkpt><trkpt lat="42.517944875368485" lon="11.473851873692182"><ele>178.0</ele><time>2026-04-12T16:29:09.999Z</time></trkpt><trkpt lat="42.517878166527204" lon="11.473898187754997"><ele>175.4</ele><time>2026-04-12T16:29:10.999Z</time></trkpt><trkpt lat="42.51780328672323" lon="11.47396211721183"><ele>172.8</ele><time>2026-04-12T16:29:11.999Z</time></trkpt><trkpt lat="42.51773921011771" lon="11.47401061819439"><ele>170.2</ele><time>2026-04-12T16:29:12.999Z</time></trkpt><trkpt lat="42.517651139363764" lon="11.474103512951"><ele>167.6</ele><time>2026-04-12T16:29:14.999Z</time></trkpt><trkpt lat="42.51762384178252" lon="11.474261218313444"><ele>165.0</ele><time>2026-04-12T16:29:16.999Z</time></trkpt><trkpt lat="42.51757213931705" lon="11.47440952808076"><ele>165.0</ele><time>2026-04-12T16:29:18.999Z</time></trkpt><trkpt lat="42.517528519767176" lon="11.47448012552601"><ele>165.0</ele><time>2026-04-12T16:29:19.999Z</time></trkpt><trkpt lat="42.51748671937791" lon="11.474568575128387"><ele>165.0</ele><time>2026-04-12T16:29:20.999Z</time></trkpt><trkpt lat="42.51743297649198" lon="11.474647453083076"><ele>165.0</ele><time>2026-04-12T16:29:21.999Z</time></trkpt><trkpt lat="42.51737805031866" lon="11.474745389643463"><ele>165.0</ele><time>2026-04-12T16:29:22.999Z</time></trkpt><trkpt lat="42.51732061830331" lon="11.47483980343431"><ele>165.0</ele><time>2026-04-12T16:29:23.999Z</time></trkpt><trkpt lat="42.51726317498818" lon="11.47493156935162"><ele>165.0</ele><time>2026-04-12T16:29:24.999Z</time></trkpt><trkpt lat="42.51720509042697" lon="11.4750144924192"><ele>165.0</ele><time>2026-04-12T16:29:25.999Z</time></trkpt><trkpt lat="42.517150011104775" lon="11.475095415305251"><ele>165.0</ele><time>2026-04-12T16:29:26.999Z</time></trkpt><trkpt lat="42.517086459892745" lon="11.475145588148319"><ele>165.0</ele><time>2026-04-12T16:29:27.999Z</time></trkpt><trkpt lat="42.516992744545256" lon="11.475180529798012"><ele>165.0</ele><time>2026-04-12T16:29:29.999Z</time></trkpt><trkpt lat="42.51689494487142" lon="11.475135870315373"><ele>165.0</ele><time>2026-04-12T16:29:31.999Z</time></trkpt><trkpt lat="42.51682314268018" lon="11.475086050932173"><ele>162.4</ele><time>2026-04-12T16:29:32.999Z</time></trkpt><trkpt lat="42.51673826609997" lon="11.474997438162873"><ele>159.8</ele><time>2026-04-12T16:29:34.001Z</time></trkpt><trkpt lat="42.51665954712518" lon="11.474900503428081"><ele>157.2</ele><time>2026-04-12T16:29:35.001Z</time></trkpt><trkpt lat="42.516576212341846" lon="11.474847643227926"><ele>154.6</ele><time>2026-04-12T16:29:36.001Z</time></trkpt><trkpt lat="42.516493181425396" lon="11.474806738094241"><ele>152.0</ele><time>2026-04-12T16:29:37.001Z</time></trkpt><trkpt lat="42.51640987078227" lon="11.474772330335671"><ele>152.0</ele><time>2026-04-12T16:29:38.001Z</time></trkpt><trkpt lat="42.5163261936308" lon="11.474744044976791"><ele>152.0</ele><time>2026-04-12T16:29:39.001Z</time></trkpt><trkpt lat="42.51623677365278" lon="11.474741054589266"><ele>152.0</ele><time>2026-04-12T16:29:40.001Z</time></trkpt><trkpt lat="42.516151145623745" lon="11.47472383096841"><ele>152.0</ele><time>2026-04-12T16:29:41.001Z</time></trkpt><trkpt lat="42.51606671216619" lon="11.474694269625493"><ele>152.0</ele><time>2026-04-12T16:29:42.001Z</time></trkpt><trkpt lat="42.51597775247254" lon="11.47469218694296"><ele>152.0</ele><time>2026-04-12T16:29:43.001Z</time></trkpt><trkpt lat="42.51588568807757" lon="11.47469392903368"><ele>149.4</ele><time>2026-04-12T16:29:44.001Z</time></trkpt><trkpt lat="42.515787374119405" lon="11.474698040790548"><ele>146.79999999999998</ele><time>2026-04-12T16:29:45.001Z</time></trkpt><trkpt lat="42.515682340459435" lon="11.4747005949603"><ele>144.2</ele><time>2026-04-12T16:29:46.001Z</time></trkpt><trkpt lat="42.51557611863624" lon="11.474707753417372"><ele>141.6</ele><time>2026-04-12T16:29:47.001Z</time></trkpt><trkpt lat="42.515495053012394" lon="11.47471474764292"><ele>139.0</ele><time>2026-04-12T16:29:48.001Z</time></trkpt><trkpt lat="42.51541482032037" lon="11.47470475503435"><ele>138.83333333333334</ele><time>2026-04-12T16:29:49.001Z</time></trkpt><trkpt lat="42.51534302940295" lon="11.474700802657168"><ele>138.66666666666669</ele><time>2026-04-12T16:29:50Z</time></trkpt><trkpt lat="42.51526793913184" lon="11.474686878514472"><ele>138.5</ele><time>2026-04-12T16:29:51Z</time></trkpt><trkpt lat="42.5151880513447" lon="11.474626802391882"><ele>138.33333333333334</ele><time>2026-04-12T16:29:52Z</time></trkpt><trkpt lat="42.5151137112514" lon="11.474566577502548"><ele>138.16666666666666</ele><time>2026-04-12T16:29:53Z</time></trkpt><trkpt lat="42.51503421180965" lon="11.474506315824836"><ele>138.0</ele><time>2026-04-12T16:29:54Z</time></trkpt><trkpt lat="42.51495838306211" lon="11.474446268917717"><ele>138.0</ele><time>2026-04-12T16:29:55Z</time></trkpt><trkpt lat="42.514886199650455" lon="11.474382331517047"><ele>138.0</ele><time>2026-04-12T16:29:56Z</time></trkpt><trkpt lat="42.51482144092677" lon="11.474317202863926"><ele>138.0</ele><time>2026-04-12T16:29:57Z</time></trkpt><trkpt lat="42.51476698758665" lon="11.474254223900921"><ele>138.0</ele><time>2026-04-12T16:29:58Z</time></trkpt><trkpt lat="42.51470728129326" lon="11.474174389381385"><ele>138.0</ele><time>2026-04-12T16:29:59Z</time></trkpt><trkpt lat="42.51464647327759" lon="11.474080185564151"><ele>138.0</ele><time>2026-04-12T16:30:00Z</time></trkpt><trkpt lat="42.51459035872733" lon="11.473967734680405"><ele>136.0</ele><time>2026-04-12T16:30:01Z</time></trkpt><trkpt lat="42.51453109988229" lon="11.473831498602822"><ele>134.0</ele><time>2026-04-12T16:30:02Z</time></trkpt><trkpt lat="42.51445367171932" lon="11.473682665730962"><ele>132.0</ele><time>2026-04-12T16:30:03Z</time></trkpt><trkpt lat="42.514389469108096" lon="11.473578132254552"><ele>130.0</ele><time>2026-04-12T16:30:04Z</time></trkpt><trkpt lat="42.51432293976556" lon="11.473478128779115"><ele>128.4</ele><time>2026-04-12T16:30:05Z</time></trkpt><trkpt lat="42.51425435799056" lon="11.473381737658922"><ele>126.8</ele><time>2026-04-12T16:30:06Z</time></trkpt><trkpt lat="42.514175842170474" lon="11.473275454764153"><ele>125.19999999999999</ele><time>2026-04-12T16:30:07Z</time></trkpt><trkpt lat="42.51411268727517" lon="11.473197441907246"><ele>123.6</ele><time>2026-04-12T16:30:08Z</time></trkpt><trkpt lat="42.51403546189739" lon="11.473105994125067"><ele>122.0</ele><time>2026-04-12T16:30:09Z</time></trkpt><trkpt lat="42.51395319382044" lon="11.473010951379663"><ele>121.39999999999999</ele><time>2026-04-12T16:30:10Z</time></trkpt><trkpt lat="42.51387589084652" lon="11.472923827457436"><ele>120.79999999999998</ele><time>2026-04-12T16:30:11Z</time></trkpt><trkpt lat="42.51380692624899" lon="11.472853204614438"><ele>120.2</ele><time>2026-04-12T16:30:12Z</time></trkpt><trkpt lat="42.5137514530065" lon="11.47279639749243"><ele>119.6</ele><time>2026-04-12T16:30:13Z</time></trkpt><trkpt lat="42.51365555802715" lon="11.472685552252951"><ele>119.0</ele><time>2026-04-12T16:30:15Z</time></trkpt><trkpt lat="42.513594654519764" lon="11.472643909392987"><ele>116.66666666666666</ele><time>2026-04-12T16:30:16Z</time></trkpt><trkpt lat="42.513523252720255" lon="11.472628904893073"><ele>114.33333333333333</ele><time>2026-04-12T16:30:17Z</time></trkpt><trkpt lat="42.51343655188565" lon="11.472649212966074"><ele>112.0</ele><time>2026-04-12T16:30:18Z</time></trkpt><trkpt lat="42.51332300570409" lon="11.472632961331039"><ele>109.66666666666666</ele><time>2026-04-12T16:30:20Z</time></trkpt><trkpt lat="42.51326418760744" lon="11.47256570682835"><ele>107.33333333333333</ele><time>2026-04-12T16:30:22Z</time></trkpt><trkpt lat="42.51328608049064" lon="11.472464002234833"><ele>105.0</ele><time>2026-04-12T16:30:24Z</time></trkpt><trkpt lat="42.51330298866023" lon="11.47235102745008"><ele>105.0</ele><time>2026-04-12T16:30:25Z</time></trkpt><trkpt lat="42.513341486517476" lon="11.472243570123469"><ele>105.0</ele><time>2026-04-12T16:30:26Z</time></trkpt><trkpt lat="42.51340239044585" lon="11.472126142978293"><ele>105.0</ele><time>2026-04-12T16:30:27Z</time></trkpt><trkpt lat="42.513435982503175" lon="11.472017073680838"><ele>105.0</ele><time>2026-04-12T16:30:28Z</time></trkpt><trkpt lat="42.51343958542956" lon="11.471904342449266"><ele>105.0</ele><time>2026-04-12T16:30:29Z</time></trkpt><trkpt lat="42.5133919793314" lon="11.471765139751996"><ele>104.2</ele><time>2026-04-12T16:30:30Z</time></trkpt><trkpt lat="42.51333862503153" lon="11.471649311717623"><ele>103.4</ele><time>2026-04-12T16:30:31Z</time></trkpt><trkpt lat="42.513273913146065" lon="11.471532154340448"><ele>102.6</ele><time>2026-04-12T16:30:32Z</time></trkpt><trkpt lat="42.513233474489695" lon="11.471438397029116"><ele>101.8</ele><time>2026-04-12T16:30:33Z</time></trkpt><trkpt lat="42.51320793165392" lon="11.471283094638903"><ele>101.0</ele><time>2026-04-12T16:30:35Z</time></trkpt><trkpt lat="42.51320228388164" lon="11.471178219750998"><ele>100.83333333333333</ele><time>2026-04-12T16:30:36Z</time></trkpt><trkpt lat="42.5131893256643" lon="11.471074983653695"><ele>100.66666666666666</ele><time>2026-04-12T16:30:37Z</time></trkpt><trkpt lat="42.513178128752514" lon="11.470983498744117"><ele>100.5</ele><time>2026-04-12T16:30:38Z</time></trkpt><trkpt lat="42.51317501426569" lon="11.470864729220327"><ele>100.33333333333334</ele><time>2026-04-12T16:30:39Z</time></trkpt><trkpt lat="42.513132415175384" lon="11.470735732893079"><ele>100.16666666666667</ele><time>2026-04-12T16:30:40Z</time></trkpt><trkpt lat="42.513081051975455" lon="11.470632080879106"><ele>100.0</ele><time>2026-04-12T16:30:41Z</time></trkpt><trkpt lat="42.51302780966995" lon="11.470544110484354"><ele>99.8</ele><time>2026-04-12T16:30:42Z</time></trkpt><trkpt lat="42.51298090323692" lon="11.470441220440021"><ele>99.6</ele><time>2026-04-12T16:30:43Z</time></trkpt><trkpt lat="42.51293416846249" lon="11.470338706661593"><ele>99.4</ele><time>2026-04-12T16:30:44Z</time></trkpt><trkpt lat="42.51288682217191" lon="11.470233976984993"><ele>99.2</ele><time>2026-04-12T16:30:45Z</time></trkpt><trkpt lat="42.51284127332768" lon="11.470126458612407"><ele>99.0</ele><time>2026-04-12T16:30:46Z</time></trkpt><trkpt lat="42.51279752548314" lon="11.470010842126882"><ele>100.66666666666667</ele><time>2026-04-12T16:30:47Z</time></trkpt><trkpt lat="42.51275708586372" lon="11.469894661483908"><ele>102.33333333333334</ele><time>2026-04-12T16:30:48Z</time></trkpt><trkpt lat="42.512719999357394" lon="11.46978811435197"><ele>104.0</ele><time>2026-04-12T16:30:49Z</time></trkpt><trkpt lat="42.51268851234384" lon="11.469705389028544"><ele>105.66666666666667</ele><time>2026-04-12T16:30:50Z</time></trkpt><trkpt lat="42.512645324011665" lon="11.469619708657296"><ele>107.33333333333334</ele><time>2026-04-12T16:30:51Z</time></trkpt><trkpt lat="42.51257651318411" lon="11.469481899405132"><ele>109.0</ele><time>2026-04-12T16:30:53Z</time></trkpt><trkpt lat="42.51257561774321" lon="11.469330607635369"><ele>109.0</ele><time>2026-04-12T16:30:55Z</time></trkpt><trkpt lat="42.51258251478839" lon="11.469219192712332"><ele>109.0</ele><time>2026-04-12T16:30:56Z</time></trkpt><trkpt lat="42.51259601848188" lon="11.469082068691183"><ele>109.0</ele><time>2026-04-12T16:30:57Z</time></trkpt><trkpt lat="42.512604477608924" lon="11.468948602294324"><ele>109.0</ele><time>2026-04-12T16:30:58Z</time></trkpt><trkpt lat="42.51260088824315" lon="11.468790266101072"><ele>109.0</ele><time>2026-04-12T16:30:59Z</time></trkpt><trkpt lat="42.51259222048009" lon="11.468644494067307"><ele>110.0</ele><time>2026-04-12T16:30:59.999Z</time></trkpt><trkpt lat="42.51258253562444" lon="11.468494161214723"><ele>111.0</ele><time>2026-04-12T16:31:00.999Z</time></trkpt><trkpt lat="42.512570995015295" lon="11.468326855258413"><ele>112.0</ele><time>2026-04-12T16:31:01.999Z</time></trkpt><trkpt lat="42.51255681549208" lon="11.468158107259946"><ele>113.0</ele><time>2026-04-12T16:31:02.999Z</time></trkpt><trkpt lat="42.51254018264333" lon="11.468028456068852"><ele>113.0</ele><time>2026-04-12T16:31:03.999Z</time></trkpt><trkpt lat="42.51251226013613" lon="11.46788264740355"><ele>113.00000000000001</ele><time>2026-04-12T16:31:04.999Z</time></trkpt><trkpt lat="42.512468605357164" lon="11.467748758878448"><ele>113.00000000000001</ele><time>2026-04-12T16:31:05.999Z</time></trkpt><trkpt lat="42.512418513616524" lon="11.467626186505033"><ele>113.0</ele><time>2026-04-12T16:31:06.999Z</time></trkpt><trkpt lat="42.51236526224328" lon="11.467521394018569"><ele>113.0</ele><time>2026-04-12T16:31:07.999Z</time></trkpt><trkpt lat="42.51231151776617" lon="11.4674172340402"><ele>113.0</ele><time>2026-04-12T16:31:08.999Z</time></trkpt><trkpt lat="42.512253047410624" lon="11.467312077627449"><ele>113.00000000000001</ele><time>2026-04-12T16:31:09.999Z</time></trkpt><trkpt lat="42.51218185322551" lon="11.467202602155455"><ele>113.00000000000001</ele><time>2026-04-12T16:31:10.999Z</time></trkpt><trkpt lat="42.51212232319834" lon="11.467104299674919"><ele>113.0</ele><time>2026-04-12T16:31:11.999Z</time></trkpt><trkpt lat="42.512078946077075" lon="11.466971980953172"><ele>113.0</ele><time>2026-04-12T16:31:12.999Z</time></trkpt><trkpt lat="42.51203800641136" lon="11.466826297754494"><ele>114.80000000000001</ele><time>2026-04-12T16:31:13.999Z</time></trkpt><trkpt lat="42.51198838054763" lon="11.466687345632494"><ele>116.60000000000001</ele><time>2026-04-12T16:31:14.999Z</time></trkpt><trkpt lat="42.51193017776243" lon="11.466568733675611"><ele>118.39999999999999</ele><time>2026-04-12T16:31:15.999Z</time></trkpt><trkpt lat="42.51187682443918" lon="11.466481586993371"><ele>120.19999999999999</ele><time>2026-04-12T16:31:16.999Z</time></trkpt><trkpt lat="42.511818490085844" lon="11.466404357292294"><ele>122.0</ele><time>2026-04-12T16:31:17.999Z</time></trkpt><trkpt lat="42.5117523783967" lon="11.466340207773088"><ele>121.99999999999999</ele><time>2026-04-12T16:31:18.999Z</time></trkpt><trkpt lat="42.511666730617186" lon="11.466298355121083"><ele>122.0</ele><time>2026-04-12T16:31:19.999Z</time></trkpt><trkpt lat="42.51157834999809" lon="11.466316923694428"><ele>122.0</ele><time>2026-04-12T16:31:20.999Z</time></trkpt><trkpt lat="42.51149619603824" lon="11.46632163796415"><ele>122.0</ele><time>2026-04-12T16:31:21.999Z</time></trkpt><trkpt lat="42.51141356335067" lon="11.466342183312966"><ele>121.99999999999999</ele><time>2026-04-12T16:31:22.999Z</time></trkpt><trkpt lat="42.51134202872265" lon="11.466361663600917"><ele>122.0</ele><time>2026-04-12T16:31:23.999Z</time></trkpt><trkpt lat="42.51125866560334" lon="11.466392194115578"><ele>123.33333333333333</ele><time>2026-04-12T16:31:24.999Z</time></trkpt><trkpt lat="42.51117052936639" lon="11.466423266643572"><ele>124.66666666666666</ele><time>2026-04-12T16:31:25.999Z</time></trkpt><trkpt lat="42.511084746628256" lon="11.466436907582558"><ele>126.0</ele><time>2026-04-12T16:31:26.999Z</time></trkpt><trkpt lat="42.51100265635175" lon="11.466439388603145"><ele>127.33333333333334</ele><time>2026-04-12T16:31:27.999Z</time></trkpt><trkpt lat="42.51092598617666" lon="11.46642530797673"><ele>128.66666666666669</ele><time>2026-04-12T16:31:28.999Z</time></trkpt><trkpt lat="42.51086468982643" lon="11.466385529526764"><ele>130.0</ele><time>2026-04-12T16:31:29.999Z</time></trkpt><trkpt lat="42.51081294472166" lon="11.466304095236914"><ele>128.8</ele><time>2026-04-12T16:31:30.999Z</time></trkpt><trkpt lat="42.51076753407933" lon="11.466207239899349"><ele>127.6</ele><time>2026-04-12T16:31:31.999Z</time></trkpt><trkpt lat="42.51070966872255" lon="11.46608853993532"><ele>126.4</ele><time>2026-04-12T16:31:32.999Z</time></trkpt><trkpt lat="42.51065068687366" lon="11.465971306635847"><ele>125.2</ele><time>2026-04-12T16:31:33.999Z</time></trkpt><trkpt lat="42.51057990029984" lon="11.465852562321995"><ele>124.0</ele><time>2026-04-12T16:31:34.999Z</time></trkpt><trkpt lat="42.51051616646454" lon="11.46573138806355"><ele>124.0</ele><time>2026-04-12T16:31:35.999Z</time></trkpt><trkpt lat="42.51045513009567" lon="11.465587844934126"><ele>124.0</ele><time>2026-04-12T16:31:36.999Z</time></trkpt><trkpt lat="42.51036922717579" lon="11.465457086962203"><ele>124.0</ele><time>2026-04-12T16:31:37.999Z</time></trkpt><trkpt lat="42.51027865998932" lon="11.465319541475202"><ele>124.0</ele><time>2026-04-12T16:31:39.001Z</time></trkpt><trkpt lat="42.51019693503072" lon="11.465192982402005"><ele>127.0</ele><time>2026-04-12T16:31:40.001Z</time></trkpt><trkpt lat="42.51011474815325" lon="11.465055630446969"><ele>130.0</ele><time>2026-04-12T16:31:41.001Z</time></trkpt><trkpt lat="42.51006021990728" lon="11.464938653482447"><ele>133.0</ele><time>2026-04-12T16:31:42.001Z</time></trkpt><trkpt lat="42.51000771965695" lon="11.464781098559405"><ele>136.0</ele><time>2026-04-12T16:31:43.001Z</time></trkpt><trkpt lat="42.50996059516577" lon="11.464624632852333"><ele>135.6</ele><time>2026-04-12T16:31:44.001Z</time></trkpt><trkpt lat="42.50991044371105" lon="11.46448744489838"><ele>135.2</ele><time>2026-04-12T16:31:45.001Z</time></trkpt><trkpt lat="42.50986410242877" lon="11.46437631954948"><ele>134.8</ele><time>2026-04-12T16:31:46.001Z</time></trkpt><trkpt lat="42.509809872867415" lon="11.464280806738769"><ele>134.4</ele><time>2026-04-12T16:31:47.001Z</time></trkpt><trkpt lat="42.50973443343035" lon="11.464194053645164"><ele>134.0</ele><time>2026-04-12T16:31:48.001Z</time></trkpt><trkpt lat="42.50966251970436" lon="11.464137361721356"><ele>134.0</ele><time>2026-04-12T16:31:49.001Z</time></trkpt><trkpt lat="42.50960429777022" lon="11.464080636016671"><ele>134.0</ele><time>2026-04-12T16:31:50.001Z</time></trkpt><trkpt lat="42.509536322547795" lon="11.463990704773954"><ele>134.0</ele><time>2026-04-12T16:31:51.001Z</time></trkpt><trkpt lat="42.509466146212" lon="11.463878226556274"><ele>134.0</ele><time>2026-04-12T16:31:52.001Z</time></trkpt><trkpt lat="42.509387893871725" lon="11.463743342362179"><ele>134.0</ele><time>2026-04-12T16:31:53.001Z</time></trkpt><trkpt lat="42.509307688398664" lon="11.46360430249475"><ele>133.5</ele><time>2026-04-12T16:31:54.001Z</time></trkpt><trkpt lat="42.509223048890384" lon="11.463457576211926"><ele>133.0</ele><time>2026-04-12T16:31:55Z</time></trkpt><trkpt lat="42.50913392997025" lon="11.463299074792841"><ele>132.5</ele><time>2026-04-12T16:31:56Z</time></trkpt><trkpt lat="42.509062049701676" lon="11.463170457407804"><ele>132.0</ele><time>2026-04-12T16:31:57Z</time></trkpt><trkpt lat="42.50899411815167" lon="11.463048906302868"><ele>132.2</ele><time>2026-04-12T16:31:58Z</time></trkpt><trkpt lat="42.50893679198721" lon="11.462932062031488"><ele>132.39999999999998</ele><time>2026-04-12T16:31:59Z</time></trkpt><trkpt lat="42.50889816176416" lon="11.462832796556278"><ele>132.60000000000002</ele><time>2026-04-12T16:32:00Z</time></trkpt><trkpt lat="42.50886099053903" lon="11.46270743786681"><ele>132.8</ele><time>2026-04-12T16:32:01Z</time></trkpt><trkpt lat="42.50882077509204" lon="11.462569014160172"><ele>133.0</ele><time>2026-04-12T16:32:02Z</time></trkpt><trkpt lat="42.508774776704364" lon="11.46242389779166"><ele>133.0</ele><time>2026-04-12T16:32:03Z</time></trkpt><trkpt lat="42.508718000239824" lon="11.46229002344057"><ele>133.0</ele><time>2026-04-12T16:32:04Z</time></trkpt><trkpt lat="42.508675039848306" lon="11.462149989851142"><ele>133.0</ele><time>2026-04-12T16:32:05Z</time></trkpt><trkpt lat="42.508589750747085" lon="11.461999861621727"><ele>133.0</ele><time>2026-04-12T16:32:06Z</time></trkpt><trkpt lat="42.50851612019894" lon="11.461859865121763"><ele>133.0</ele><time>2026-04-12T16:32:07Z</time></trkpt><trkpt lat="42.50845647255984" lon="11.461703621964332"><ele>133.0</ele><time>2026-04-12T16:32:08Z</time></trkpt><trkpt lat="42.508406781437984" lon="11.461562381103793"><ele>133.0</ele><time>2026-04-12T16:32:09Z</time></trkpt><trkpt lat="42.508361862978774" lon="11.46143398319096"><ele>133.0</ele><time>2026-04-12T16:32:10Z</time></trkpt><trkpt lat="42.50832114410435" lon="11.46131948437882"><ele>133.0</ele><time>2026-04-12T16:32:11Z</time></trkpt><trkpt lat="42.50828200545569" lon="11.461215489798395"><ele>133.6</ele><time>2026-04-12T16:32:12Z</time></trkpt><trkpt lat="42.50822812333379" lon="11.461121436389819"><ele>134.20000000000002</ele><time>2026-04-12T16:32:13Z</time></trkpt><trkpt lat="42.508192377497" lon="11.460992647691198"><ele>134.8</ele><time>2026-04-12T16:32:14Z</time></trkpt><trkpt lat="42.508118628684706" lon="11.460864293863404"><ele>135.4</ele><time>2026-04-12T16:32:15Z</time></trkpt><trkpt lat="42.50801833706782" lon="11.460733215570267"><ele>136.0</ele><time>2026-04-12T16:32:16Z</time></trkpt><trkpt lat="42.50791054437089" lon="11.460599834916058"><ele>133.4</ele><time>2026-04-12T16:32:17Z</time></trkpt><trkpt lat="42.50782736659389" lon="11.460500222185322"><ele>130.8</ele><time>2026-04-12T16:32:18Z</time></trkpt><trkpt lat="42.50775008569679" lon="11.460409401594932"><ele>128.20000000000002</ele><time>2026-04-12T16:32:19Z</time></trkpt><trkpt lat="42.507672094448786" lon="11.460315457245217"><ele>125.60000000000001</ele><time>2026-04-12T16:32:20Z</time></trkpt><trkpt lat="42.50761183004932" lon="11.460228968396477"><ele>123.0</ele><time>2026-04-12T16:32:21Z</time></trkpt><trkpt lat="42.507550461285994" lon="11.460128696786345"><ele>122.60000000000001</ele><time>2026-04-12T16:32:22Z</time></trkpt><trkpt lat="42.507489607045606" lon="11.460014550108903"><ele>122.20000000000002</ele><time>2026-04-12T16:32:23Z</time></trkpt><trkpt lat="42.50744355932121" lon="11.45988821842496"><ele>121.8</ele><time>2026-04-12T16:32:24Z</time></trkpt><trkpt lat="42.50740418700367" lon="11.459743063694646"><ele>121.4</ele><time>2026-04-12T16:32:25Z</time></trkpt><trkpt lat="42.50737169661644" lon="11.4595836072617"><ele>121.0</ele><time>2026-04-12T16:32:26Z</time></trkpt><trkpt lat="42.507343061724896" lon="11.45942569042895"><ele>120.66666666666667</ele><time>2026-04-12T16:32:27Z</time></trkpt><trkpt lat="42.50731683064854" lon="11.459282242238055"><ele>120.33333333333334</ele><time>2026-04-12T16:32:28Z</time></trkpt><trkpt lat="42.50730245227336" lon="11.459167028277246"><ele>120.0</ele><time>2026-04-12T16:32:29Z</time></trkpt><trkpt lat="42.50730021462008" lon="11.459051310094415"><ele>119.66666666666666</ele><time>2026-04-12T16:32:30Z</time></trkpt><trkpt lat="42.50731374900869" lon="11.45895407509355"><ele>119.33333333333333</ele><time>2026-04-12T16:32:31Z</time></trkpt><trkpt lat="42.507334937824865" lon="11.458865204718391"><ele>119.0</ele><time>2026-04-12T16:32:32Z</time></trkpt><trkpt lat="42.50736701056996" lon="11.458760722578997"><ele>118.2</ele><time>2026-04-12T16:32:33Z</time></trkpt><trkpt lat="42.5074123934222" lon="11.45864957651538"><ele>117.4</ele><time>2026-04-12T16:32:34Z</time></trkpt><trkpt lat="42.50747276836877" lon="11.458533597051314"><ele>116.6</ele><time>2026-04-12T16:32:35Z</time></trkpt><trkpt lat="42.50752900000056" lon="11.458409749641733"><ele>115.8</ele><time>2026-04-12T16:32:36Z</time></trkpt><trkpt lat="42.50755469115424" lon="11.45827138944038"><ele>115.0</ele><time>2026-04-12T16:32:37Z</time></trkpt><trkpt lat="42.507572934376526" lon="11.458151491181722"><ele>115.0</ele><time>2026-04-12T16:32:38Z</time></trkpt><trkpt lat="42.50759500846419" lon="11.458021221709556"><ele>115.0</ele><time>2026-04-12T16:32:39Z</time></trkpt><trkpt lat="42.50760379701284" lon="11.457872183750997"><ele>115.0</ele><time>2026-04-12T16:32:40Z</time></trkpt><trkpt lat="42.50760732997086" lon="11.457738104129715"><ele>115.0</ele><time>2026-04-12T16:32:41Z</time></trkpt><trkpt lat="42.50760979667494" lon="11.457591732456844"><ele>115.0</ele><time>2026-04-12T16:32:42Z</time></trkpt><trkpt lat="42.50761230756004" lon="11.457442739055661"><ele>114.6</ele><time>2026-04-12T16:32:43Z</time></trkpt><trkpt lat="42.50761535103803" lon="11.45730599304391"><ele>114.2</ele><time>2026-04-12T16:32:44Z</time></trkpt><trkpt lat="42.50762069886594" lon="11.457181431968676"><ele>113.80000000000001</ele><time>2026-04-12T16:32:45Z</time></trkpt><trkpt lat="42.50762687481383" lon="11.457059804404725"><ele>113.4</ele><time>2026-04-12T16:32:46Z</time></trkpt><trkpt lat="42.50763325813112" lon="11.456941462105744"><ele>113.0</ele><time>2026-04-12T16:32:47Z</time></trkpt><trkpt lat="42.50763987773283" lon="11.456818739123667"><ele>112.49999999999999</ele><time>2026-04-12T16:32:48Z</time></trkpt><trkpt lat="42.507644341115885" lon="11.456701063244958"><ele>112.0</ele><time>2026-04-12T16:32:49Z</time></trkpt><trkpt lat="42.50764808448459" lon="11.456586170172505"><ele>111.5</ele><time>2026-04-12T16:32:50Z</time></trkpt><trkpt lat="42.50764676816166" lon="11.456467917921824"><ele>111.0</ele><time>2026-04-12T16:32:51Z</time></trkpt><trkpt lat="42.50764620165355" lon="11.456366607520087"><ele>110.49999999999999</ele><time>2026-04-12T16:32:52Z</time></trkpt><trkpt lat="42.50764564711433" lon="11.456267437256185"><ele>110.0</ele><time>2026-04-12T16:32:53Z</time></trkpt><trkpt lat="42.50764108590393" lon="11.456151553675255"><ele>110.0</ele><time>2026-04-12T16:32:55Z</time></trkpt><trkpt lat="42.50764405591252" lon="11.455982877153632"><ele>110.0</ele><time>2026-04-12T16:33:18.999Z</time></trkpt><trkpt lat="42.50764581883964" lon="11.455878127253708"><ele>110.0</ele><time>2026-04-12T16:33:19.999Z</time></trkpt><trkpt lat="42.507651913037755" lon="11.4557749389055"><ele>110.0</ele><time>2026-04-12T16:33:20.999Z</time></trkpt><trkpt lat="42.507666228034005" lon="11.455677852716079"><ele>110.0</ele><time>2026-04-12T16:33:21.999Z</time></trkpt><trkpt lat="42.50768623732978" lon="11.455504947819112"><ele>109.8</ele><time>2026-04-12T16:33:23.999Z</time></trkpt><trkpt lat="42.507715115195154" lon="11.455401978428391"><ele>109.6</ele><time>2026-04-12T16:33:25.999Z</time></trkpt><trkpt lat="42.50776777454432" lon="11.455285494631934"><ele>109.4</ele><time>2026-04-12T16:33:28.999Z</time></trkpt><trkpt lat="42.507922353734784" lon="11.455225820613487"><ele>109.2</ele><time>2026-04-12T16:33:30.999Z</time></trkpt><trkpt lat="42.50800677079841" lon="11.455153406604014"><ele>109.0</ele><time>2026-04-12T16:33:31.999Z</time></trkpt><trkpt lat="42.50810443628058" lon="11.455104924593776"><ele>108.75</ele><time>2026-04-12T16:33:32.999Z</time></trkpt><trkpt lat="42.50822131297485" lon="11.455033964567368"><ele>108.5</ele><time>2026-04-12T16:33:33.999Z</time></trkpt><trkpt lat="42.508337187697684" lon="11.454956451180795"><ele>108.25</ele><time>2026-04-12T16:33:34.999Z</time></trkpt><trkpt lat="42.50847003831243" lon="11.4548644230177"><ele>108.0</ele><time>2026-04-12T16:33:35.999Z</time></trkpt><trkpt lat="42.50860527843882" lon="11.45477040998732"><ele>108.0</ele><time>2026-04-12T16:33:36.999Z</time></trkpt><trkpt lat="42.508742675094254" lon="11.454684671846817"><ele>108.0</ele><time>2026-04-12T16:33:37.999Z</time></trkpt><trkpt lat="42.50887913252326" lon="11.454596150175066"><ele>108.0</ele><time>2026-04-12T16:33:38.999Z</time></trkpt><trkpt lat="42.50901533749431" lon="11.454502787661932"><ele>107.25</ele><time>2026-04-12T16:33:39.999Z</time></trkpt><trkpt lat="42.50915138358598" lon="11.454410283282089"><ele>106.5</ele><time>2026-04-12T16:33:40.999Z</time></trkpt><trkpt lat="42.509284790717686" lon="11.454318793366761"><ele>105.75</ele><time>2026-04-12T16:33:41.999Z</time></trkpt><trkpt lat="42.50941615776282" lon="11.454236367593946"><ele>105.0</ele><time>2026-04-12T16:33:42.999Z</time></trkpt><trkpt lat="42.50953802420664" lon="11.454157927935789"><ele>104.25</ele><time>2026-04-12T16:33:43.999Z</time></trkpt><trkpt lat="42.50965595186032" lon="11.454080954294074"><ele>103.5</ele><time>2026-04-12T16:33:45.001Z</time></trkpt><trkpt lat="42.50976815920304" lon="11.453999449781824"><ele>102.75</ele><time>2026-04-12T16:33:46.001Z</time></trkpt><trkpt lat="42.50987551182248" lon="11.453926628741327"><ele>102.0</ele><time>2026-04-12T16:33:47.001Z</time></trkpt><trkpt lat="42.509978192513046" lon="11.453861658928055"><ele>102.0</ele><time>2026-04-12T16:33:48.001Z</time></trkpt><trkpt lat="42.51007767955885" lon="11.453800064922408"><ele>102.0</ele><time>2026-04-12T16:33:49.001Z</time></trkpt><trkpt lat="42.51017696608683" lon="11.453729358413089"><ele>102.0</ele><time>2026-04-12T16:33:50.001Z</time></trkpt><trkpt lat="42.51027670818764" lon="11.45366091508692"><ele>102.0</ele><time>2026-04-12T16:33:51.001Z</time></trkpt><trkpt lat="42.51038168329038" lon="11.453583368824415"><ele>102.25</ele><time>2026-04-12T16:33:52.001Z</time></trkpt><trkpt lat="42.510496897122096" lon="11.453522747260054"><ele>102.5</ele><time>2026-04-12T16:33:53.001Z</time></trkpt><trkpt lat="42.510606844948676" lon="11.453421160062362"><ele>102.75</ele><time>2026-04-12T16:33:54.001Z</time></trkpt><trkpt lat="42.51073112035738" lon="11.453329101641561"><ele>103.0</ele><time>2026-04-12T16:33:55.001Z</time></trkpt><trkpt lat="42.51085169122354" lon="11.453214145980933"><ele>103.0</ele><time>2026-04-12T16:33:56.001Z</time></trkpt><trkpt lat="42.510963986614556" lon="11.45307383889794"><ele>103.0</ele><time>2026-04-12T16:33:57.001Z</time></trkpt><trkpt lat="42.511069324256766" lon="11.452902371893837"><ele>103.0</ele><time>2026-04-12T16:33:58.001Z</time></trkpt><trkpt lat="42.511176445463484" lon="11.45271672148708"><ele>101.66666666666667</ele><time>2026-04-12T16:33:59.001Z</time></trkpt><trkpt lat="42.511304263877925" lon="11.45253999587091"><ele>100.33333333333334</ele><time>2026-04-12T16:34:00.001Z</time></trkpt><trkpt lat="42.51141622602509" lon="11.452349413851477"><ele>99.0</ele><time>2026-04-12T16:34:01.001Z</time></trkpt><trkpt lat="42.51151656252749" lon="11.452147965640766"><ele>99.33333333333334</ele><time>2026-04-12T16:34:02.001Z</time></trkpt><trkpt lat="42.51164898944846" lon="11.451955786683913"><ele>99.66666666666667</ele><time>2026-04-12T16:34:03Z</time></trkpt><trkpt lat="42.51175997765741" lon="11.45173660420824"><ele>100.0</ele><time>2026-04-12T16:34:04Z</time></trkpt><trkpt lat="42.511893302872174" lon="11.451513010322957"><ele>99.33333333333334</ele><time>2026-04-12T16:34:05Z</time></trkpt><trkpt lat="42.51202499503336" lon="11.451290205931498"><ele>98.66666666666666</ele><time>2026-04-12T16:34:06Z</time></trkpt><trkpt lat="42.51214971100871" lon="11.451079605914465"><ele>98.0</ele><time>2026-04-12T16:34:07Z</time></trkpt><trkpt lat="42.51226957461588" lon="11.450870424010551"><ele>98.0</ele><time>2026-04-12T16:34:08Z</time></trkpt><trkpt lat="42.51239786044662" lon="11.450659909205742"><ele>98.0</ele><time>2026-04-12T16:34:09Z</time></trkpt><trkpt lat="42.51252594165296" lon="11.450473866423634"><ele>98.0</ele><time>2026-04-12T16:34:10Z</time></trkpt><trkpt lat="42.512636087996334" lon="11.450259891851545"><ele>98.33333333333333</ele><time>2026-04-12T16:34:11Z</time></trkpt><trkpt lat="42.51276561677634" lon="11.450054155895177"><ele>98.66666666666666</ele><time>2026-04-12T16:34:12Z</time></trkpt><trkpt lat="42.51289201907443" lon="11.44984504700316"><ele>99.0</ele><time>2026-04-12T16:34:13Z</time></trkpt><trkpt lat="42.51301587177189" lon="11.449624107328425"><ele>98.0</ele><time>2026-04-12T16:34:14Z</time></trkpt><trkpt lat="42.51314307855342" lon="11.449397850302976"><ele>97.0</ele><time>2026-04-12T16:34:15Z</time></trkpt><trkpt lat="42.513290130110825" lon="11.449183635263703"><ele>96.0</ele><time>2026-04-12T16:34:16Z</time></trkpt><trkpt lat="42.51342254945982" lon="11.448960244891637"><ele>95.33333333333333</ele><time>2026-04-12T16:34:17Z</time></trkpt><trkpt lat="42.513541390761084" lon="11.448759760564915"><ele>94.66666666666666</ele><time>2026-04-12T16:34:18Z</time></trkpt><trkpt lat="42.513645740478715" lon="11.44856060001287"><ele>94.0</ele><time>2026-04-12T16:34:19Z</time></trkpt><trkpt lat="42.51375998450089" lon="11.44837276330935"><ele>93.66666666666666</ele><time>2026-04-12T16:34:20Z</time></trkpt><trkpt lat="42.51387903887347" lon="11.448178723742648"><ele>93.33333333333333</ele><time>2026-04-12T16:34:21Z</time></trkpt><trkpt lat="42.51399510985295" lon="11.447982410019666"><ele>93.0</ele><time>2026-04-12T16:34:22Z</time></trkpt><trkpt lat="42.51411009309961" lon="11.447785533050006"><ele>93.0</ele><time>2026-04-12T16:34:23Z</time></trkpt><trkpt lat="42.51422340619455" lon="11.447590977319193"><ele>93.0</ele><time>2026-04-12T16:34:24Z</time></trkpt><trkpt lat="42.51433345374798" lon="11.44740409713255"><ele>93.0</ele><time>2026-04-12T16:34:25Z</time></trkpt><trkpt lat="42.51443549384129" lon="11.447232491883105"><ele>94.33333333333334</ele><time>2026-04-12T16:34:26Z</time></trkpt><trkpt lat="42.51453164030069" lon="11.44706259893213"><ele>95.66666666666667</ele><time>2026-04-12T16:34:27Z</time></trkpt><trkpt lat="42.514630758943724" lon="11.446885632664749"><ele>97.0</ele><time>2026-04-12T16:34:28Z</time></trkpt><trkpt lat="42.51472985253127" lon="11.446703622335008"><ele>96.0</ele><time>2026-04-12T16:34:29Z</time></trkpt><trkpt lat="42.514819377121086" lon="11.446509252669081"><ele>95.0</ele><time>2026-04-12T16:34:30Z</time></trkpt><trkpt lat="42.514903505082366" lon="11.446298888981854"><ele>94.0</ele><time>2026-04-12T16:34:31Z</time></trkpt><trkpt lat="42.51498835666389" lon="11.446081058183035"><ele>94.0</ele><time>2026-04-12T16:34:32Z</time></trkpt><trkpt lat="42.51507114064938" lon="11.445848584532026"><ele>94.0</ele><time>2026-04-12T16:34:33Z</time></trkpt><trkpt lat="42.51516374947998" lon="11.445634336841248"><ele>94.0</ele><time>2026-04-12T16:34:34Z</time></trkpt><trkpt lat="42.51524782854457" lon="11.445397427675202"><ele>94.66666666666666</ele><time>2026-04-12T16:34:35Z</time></trkpt><trkpt lat="42.51533342781609" lon="11.445165582385442"><ele>95.33333333333333</ele><time>2026-04-12T16:34:36Z</time></trkpt><trkpt lat="42.51541987039601" lon="11.444941384002972"><ele>96.0</ele><time>2026-04-12T16:34:37Z</time></trkpt><trkpt lat="42.515506143445634" lon="11.44472384158203"><ele>94.66666666666667</ele><time>2026-04-12T16:34:38Z</time></trkpt><trkpt lat="42.51558754089965" lon="11.44451557941279"><ele>93.33333333333334</ele><time>2026-04-12T16:34:39Z</time></trkpt><trkpt lat="42.5156667301659" lon="11.444293056663655"><ele>92.0</ele><time>2026-04-12T16:34:40Z</time></trkpt><trkpt lat="42.515752632901346" lon="11.444086150533664"><ele>92.0</ele><time>2026-04-12T16:34:41Z</time></trkpt><trkpt lat="42.51583955054427" lon="11.443881379257324"><ele>92.0</ele><time>2026-04-12T16:34:42Z</time></trkpt><trkpt lat="42.51591947013975" lon="11.443678162863423"><ele>92.0</ele><time>2026-04-12T16:34:43Z</time></trkpt><trkpt lat="42.515995030666836" lon="11.44347362119916"><ele>93.0</ele><time>2026-04-12T16:34:44Z</time></trkpt><trkpt lat="42.51607189306443" lon="11.443273176973504"><ele>94.0</ele><time>2026-04-12T16:34:45Z</time></trkpt><trkpt lat="42.51615051782993" lon="11.443070422427935"><ele>95.0</ele><time>2026-04-12T16:34:46Z</time></trkpt><trkpt lat="42.516224783666075" lon="11.442866160559303"><ele>95.0</ele><time>2026-04-12T16:34:47Z</time></trkpt><trkpt lat="42.51629054648788" lon="11.442649515904865"><ele>95.0</ele><time>2026-04-12T16:34:48Z</time></trkpt><trkpt lat="42.51635111642431" lon="11.442427851348432"><ele>95.0</ele><time>2026-04-12T16:34:49Z</time></trkpt><trkpt lat="42.516405841818504" lon="11.442210139895925"><ele>94.33333333333334</ele><time>2026-04-12T16:34:50Z</time></trkpt><trkpt lat="42.51646052049949" lon="11.441983283466211"><ele>93.66666666666667</ele><time>2026-04-12T16:34:51Z</time></trkpt><trkpt lat="42.516519264741" lon="11.441755897957862"><ele>93.0</ele><time>2026-04-12T16:34:52Z</time></trkpt><trkpt lat="42.51658092621879" lon="11.441533468733516"><ele>93.0</ele><time>2026-04-12T16:34:53Z</time></trkpt><trkpt lat="42.51664007311712" lon="11.441301463742368"><ele>93.0</ele><time>2026-04-12T16:34:54Z</time></trkpt><trkpt lat="42.51670125563256" lon="11.441066721575304"><ele>93.0</ele><time>2026-04-12T16:34:55Z</time></trkpt><trkpt lat="42.516762130755886" lon="11.440839733443147"><ele>93.0</ele><time>2026-04-12T16:34:56Z</time></trkpt><trkpt lat="42.5168246129855" lon="11.440607513162458"><ele>93.0</ele><time>2026-04-12T16:34:57Z</time></trkpt><trkpt lat="42.516879540247096" lon="11.440381274643173"><ele>93.0</ele><time>2026-04-12T16:34:58Z</time></trkpt><trkpt lat="42.516948793464486" lon="11.440162185707491"><ele>92.66666666666667</ele><time>2026-04-12T16:34:59Z</time></trkpt><trkpt lat="42.51699521127334" lon="11.43992246699093"><ele>92.33333333333334</ele><time>2026-04-12T16:35:00Z</time></trkpt><trkpt lat="42.51705930372441" lon="11.439697324848822"><ele>92.0</ele><time>2026-04-12T16:35:01Z</time></trkpt><trkpt lat="42.51711948312061" lon="11.439463316919507"><ele>92.33333333333334</ele><time>2026-04-12T16:35:02Z</time></trkpt><trkpt lat="42.51717875192436" lon="11.439226658534556"><ele>92.66666666666667</ele><time>2026-04-12T16:35:03Z</time></trkpt><trkpt lat="42.51723845711742" lon="11.438995103964375"><ele>93.0</ele><time>2026-04-12T16:35:04Z</time></trkpt><trkpt lat="42.51729554098125" lon="11.438782047601235"><ele>93.0</ele><time>2026-04-12T16:35:05Z</time></trkpt><trkpt lat="42.51735267839847" lon="11.438583114141576"><ele>93.0</ele><time>2026-04-12T16:35:06Z</time></trkpt><trkpt lat="42.517415906286054" lon="11.438394495842598"><ele>93.0</ele><time>2026-04-12T16:35:07Z</time></trkpt><trkpt lat="42.517496644291846" lon="11.438213606178772"><ele>93.0</ele><time>2026-04-12T16:35:08Z</time></trkpt><trkpt lat="42.5175970788762" lon="11.43804471678114"><ele>93.0</ele><time>2026-04-12T16:35:09Z</time></trkpt><trkpt lat="42.51770142366882" lon="11.437879278954151"><ele>93.0</ele><time>2026-04-12T16:35:10Z</time></trkpt><trkpt lat="42.51779299224984" lon="11.437733858418122"><ele>93.0</ele><time>2026-04-12T16:35:10.999Z</time></trkpt><trkpt lat="42.51787950232458" lon="11.43759740983422"><ele>93.0</ele><time>2026-04-12T16:35:11.999Z</time></trkpt><trkpt lat="42.51796145268425" lon="11.437468469129076"><ele>93.0</ele><time>2026-04-12T16:35:12.999Z</time></trkpt><trkpt lat="42.51803345242786" lon="11.437339961058564"><ele>93.0</ele><time>2026-04-12T16:35:13.999Z</time></trkpt><trkpt lat="42.51808320779441" lon="11.43720820926362"><ele>92.5</ele><time>2026-04-12T16:35:14.999Z</time></trkpt><trkpt lat="42.5181091040973" lon="11.437079466142897"><ele>92.0</ele><time>2026-04-12T16:35:15.998Z</time></trkpt><trkpt lat="42.5181035925119" lon="11.436936828286198"><ele>91.5</ele><time>2026-04-12T16:35:16.998Z</time></trkpt><trkpt lat="42.51807210763234" lon="11.436782571800464"><ele>91.0</ele><time>2026-04-12T16:35:17.998Z</time></trkpt><trkpt lat="42.51802465632472" lon="11.436614430452837"><ele>91.0</ele><time>2026-04-12T16:35:18.998Z</time></trkpt><trkpt lat="42.517979356463016" lon="11.4364502883887"><ele>91.0</ele><time>2026-04-12T16:35:19.998Z</time></trkpt><trkpt lat="42.51793062478076" lon="11.436270350732025"><ele>91.0</ele><time>2026-04-12T16:35:20.998Z</time></trkpt><trkpt lat="42.51790344606266" lon="11.436088143716535"><ele>91.0</ele><time>2026-04-12T16:35:21.998Z</time></trkpt><trkpt lat="42.5178657301506" lon="11.435927165842001"><ele>90.5</ele><time>2026-04-12T16:35:22.998Z</time></trkpt><trkpt lat="42.5178124009148" lon="11.435775799042629"><ele>90.0</ele><time>2026-04-12T16:35:23.998Z</time></trkpt><trkpt lat="42.517779607818" lon="11.435623619684595"><ele>89.5</ele><time>2026-04-12T16:35:24.998Z</time></trkpt><trkpt lat="42.51774985416499" lon="11.435485045806724"><ele>89.0</ele><time>2026-04-12T16:35:25.998Z</time></trkpt><trkpt lat="42.51772035984556" lon="11.435350747354024"><ele>88.4</ele><time>2026-04-12T16:35:26.998Z</time></trkpt><trkpt lat="42.517695018115425" lon="11.435223155166891"><ele>87.80000000000001</ele><time>2026-04-12T16:35:27.998Z</time></trkpt><trkpt lat="42.517672748063795" lon="11.435112339015069"><ele>87.19999999999999</ele><time>2026-04-12T16:35:28.998Z</time></trkpt><trkpt lat="42.5176651164011" lon="11.43502733993608"><ele>86.6</ele><time>2026-04-12T16:35:29.998Z</time></trkpt><trkpt lat="42.51768285404011" lon="11.434894002326097"><ele>86.0</ele><time>2026-04-12T16:35:31.998Z</time></trkpt><trkpt lat="42.517638201411714" lon="11.434757927554436"><ele>86.0</ele><time>2026-04-12T16:35:33.998Z</time></trkpt><trkpt lat="42.51773082245482" lon="11.434655983170304"><ele>86.0</ele><time>2026-04-12T16:35:34.998Z</time></trkpt><trkpt lat="42.51749374270665" lon="11.434716155415165"><ele>86.0</ele><time>2026-04-12T16:35:35.998Z</time></trkpt><trkpt lat="42.51738705778777" lon="11.434713482605776"><ele>86.0</ele><time>2026-04-12T16:35:36.998Z</time></trkpt><trkpt lat="42.51728497658" lon="11.434700873990963"><ele>86.0</ele><time>2026-04-12T16:35:37.998Z</time></trkpt><trkpt lat="42.51715778058335" lon="11.434666425704032"><ele>86.0</ele><time>2026-04-12T16:35:38.998Z</time></trkpt><trkpt lat="42.517030851230345" lon="11.434607597760102"><ele>86.0</ele><time>2026-04-12T16:35:39.998Z</time></trkpt><trkpt lat="42.51688301127271" lon="11.434575454944854"><ele>83.66666666666667</ele><time>2026-04-12T16:35:40.998Z</time></trkpt><trkpt lat="42.51672927258807" lon="11.434541457094628"><ele>81.33333333333333</ele><time>2026-04-12T16:35:41.998Z</time></trkpt><trkpt lat="42.516577745681204" lon="11.434507881843516"><ele>79.0</ele><time>2026-04-12T16:35:42.998Z</time></trkpt><trkpt lat="42.516426392711836" lon="11.4344729733116"><ele>79.0</ele><time>2026-04-12T16:35:43.998Z</time></trkpt><trkpt lat="42.51626901839244" lon="11.434438260972765"><ele>79.0</ele><time>2026-04-12T16:35:44.998Z</time></trkpt><trkpt lat="42.51609905164954" lon="11.43442340391531"><ele>79.0</ele><time>2026-04-12T16:35:45.998Z</time></trkpt><trkpt lat="42.51593188498344" lon="11.434384085447663"><ele>77.33333333333333</ele><time>2026-04-12T16:35:46.998Z</time></trkpt><trkpt lat="42.51576586074057" lon="11.434348234697886"><ele>75.66666666666667</ele><time>2026-04-12T16:35:47.998Z</time></trkpt><trkpt lat="42.51560390710292" lon="11.434305753029376"><ele>74.0</ele><time>2026-04-12T16:35:48.998Z</time></trkpt><trkpt lat="42.51543797223685" lon="11.434266816283493"><ele>75.33333333333334</ele><time>2026-04-12T16:35:49.998Z</time></trkpt><trkpt lat="42.51527100997593" lon="11.434227668187107"><ele>76.66666666666667</ele><time>2026-04-12T16:35:51Z</time></trkpt><trkpt lat="42.515103631480095" lon="11.434188511675123"><ele>78.0</ele><time>2026-04-12T16:35:52Z</time></trkpt><trkpt lat="42.51494032517217" lon="11.434155214385294"><ele>78.0</ele><time>2026-04-12T16:35:53Z</time></trkpt><trkpt lat="42.51477784471193" lon="11.434119904372999"><ele>78.0</ele><time>2026-04-12T16:35:54Z</time></trkpt><trkpt lat="42.5146276217893" lon="11.434083713755275"><ele>78.0</ele><time>2026-04-12T16:35:55Z</time></trkpt><trkpt lat="42.51448556170292" lon="11.434047190162765"><ele>78.25</ele><time>2026-04-12T16:35:56Z</time></trkpt><trkpt lat="42.51434332979667" lon="11.434024542862828"><ele>78.5</ele><time>2026-04-12T16:35:57Z</time></trkpt><trkpt lat="42.5141967751386" lon="11.434015666126658"><ele>78.75</ele><time>2026-04-12T16:35:58Z</time></trkpt><trkpt lat="42.5140545785185" lon="11.434029196126124"><ele>79.0</ele><time>2026-04-12T16:35:59Z</time></trkpt><trkpt lat="42.513909974757915" lon="11.434068126174422"><ele>79.0</ele><time>2026-04-12T16:36:00Z</time></trkpt><trkpt lat="42.5137682666675" lon="11.434123780305077"><ele>79.0</ele><time>2026-04-12T16:36:01Z</time></trkpt><trkpt lat="42.51362980736641" lon="11.43421067988278"><ele>79.0</ele><time>2026-04-12T16:36:02Z</time></trkpt><trkpt lat="42.51347910222116" lon="11.434290205492003"><ele>79.33333333333333</ele><time>2026-04-12T16:36:03Z</time></trkpt><trkpt lat="42.51333377716191" lon="11.43438019145135"><ele>79.66666666666667</ele><time>2026-04-12T16:36:04Z</time></trkpt><trkpt lat="42.513180135158144" lon="11.43447001214485"><ele>80.0</ele><time>2026-04-12T16:36:05Z</time></trkpt><trkpt lat="42.51304157126061" lon="11.434581076916233"><ele>80.0</ele><time>2026-04-12T16:36:06Z</time></trkpt><trkpt lat="42.512887325738596" lon="11.434649463215761"><ele>80.0</ele><time>2026-04-12T16:36:07Z</time></trkpt><trkpt lat="42.51274620489544" lon="11.434733886186754"><ele>80.0</ele><time>2026-04-12T16:36:08Z</time></trkpt><trkpt lat="42.51260587007856" lon="11.434841375771736"><ele>80.0</ele><time>2026-04-12T16:36:08.999Z</time></trkpt><trkpt lat="42.51245252453953" lon="11.434928605664402"><ele>80.0</ele><time>2026-04-12T16:36:09.999Z</time></trkpt><trkpt lat="42.51230280670208" lon="11.435021038108129"><ele>80.0</ele><time>2026-04-12T16:36:10.999Z</time></trkpt><trkpt lat="42.512150639396815" lon="11.4351193559172"><ele>79.33333333333334</ele><time>2026-04-12T16:36:11.999Z</time></trkpt><trkpt lat="42.51199153332261" lon="11.435196900640994"><ele>78.66666666666667</ele><time>2026-04-12T16:36:12.999Z</time></trkpt><trkpt lat="42.51183170045609" lon="11.435294211745699"><ele>78.0</ele><time>2026-04-12T16:36:13.999Z</time></trkpt><trkpt lat="42.51167549165176" lon="11.43538928708082"><ele>77.66666666666667</ele><time>2026-04-12T16:36:14.999Z</time></trkpt><trkpt lat="42.51152071041857" lon="11.435485051015409"><ele>77.33333333333334</ele><time>2026-04-12T16:36:15.999Z</time></trkpt><trkpt lat="42.51137178475212" lon="11.435578959299534"><ele>77.0</ele><time>2026-04-12T16:36:16.999Z</time></trkpt><trkpt lat="42.51123761679059" lon="11.435666252486575"><ele>77.75</ele><time>2026-04-12T16:36:17.999Z</time></trkpt><trkpt lat="42.511108546732565" lon="11.435750274915192"><ele>78.5</ele><time>2026-04-12T16:36:18.999Z</time></trkpt><trkpt lat="42.51098515603307" lon="11.435832681769275"><ele>79.25</ele><time>2026-04-12T16:36:19.999Z</time></trkpt><trkpt lat="42.51088087133475" lon="11.435902501830343"><ele>80.0</ele><time>2026-04-12T16:36:20.999Z</time></trkpt><trkpt lat="42.51081383234409" lon="11.435958128742456"><ele>80.0</ele><time>2026-04-12T16:36:21.999Z</time></trkpt><trkpt lat="42.51072008786446" lon="11.435941780451476"><ele>80.0</ele><time>2026-04-12T16:36:23.999Z</time></trkpt><trkpt lat="42.51073215105896" lon="11.435790947515516"><ele>80.0</ele><time>2026-04-12T16:36:25.999Z</time></trkpt><trkpt lat="42.51077167101649" lon="11.435702999368935"><ele>80.0</ele><time>2026-04-12T16:36:26.999Z</time></trkpt><trkpt lat="42.51082120510676" lon="11.43559902189181"><ele>80.0</ele><time>2026-04-12T16:36:27.999Z</time></trkpt><trkpt lat="42.51087509919119" lon="11.435478312709558"><ele>79.0</ele><time>2026-04-12T16:36:28.999Z</time></trkpt><trkpt lat="42.51093351648222" lon="11.435331456535357"><ele>78.0</ele><time>2026-04-12T16:36:29.999Z</time></trkpt><trkpt lat="42.51099203291133" lon="11.435178366362495"><ele>77.0</ele><time>2026-04-12T16:36:30.999Z</time></trkpt><trkpt lat="42.51105250333981" lon="11.435014477762024"><ele>76.0</ele><time>2026-04-12T16:36:31.999Z</time></trkpt><trkpt lat="42.511117739714294" lon="11.434849144242326"><ele>76.0</ele><time>2026-04-12T16:36:32.999Z</time></trkpt><trkpt lat="42.511185563759135" lon="11.434671480610575"><ele>76.0</ele><time>2026-04-12T16:36:33.999Z</time></trkpt><trkpt lat="42.511253262704805" lon="11.434486271592613"><ele>76.0</ele><time>2026-04-12T16:36:34.999Z</time></trkpt><trkpt lat="42.51131997406294" lon="11.434309873555021"><ele>76.0</ele><time>2026-04-12T16:36:35.999Z</time></trkpt><trkpt lat="42.51138132796582" lon="11.43413237688987"><ele>77.0</ele><time>2026-04-12T16:36:36.999Z</time></trkpt><trkpt lat="42.511449547493534" lon="11.43393939108106"><ele>78.0</ele><time>2026-04-12T16:36:37.999Z</time></trkpt><trkpt lat="42.51151838049854" lon="11.433747833848688"><ele>79.0</ele><time>2026-04-12T16:36:38.999Z</time></trkpt><trkpt lat="42.51158987563259" lon="11.433542057913169"><ele>79.0</ele><time>2026-04-12T16:36:39.999Z</time></trkpt><trkpt lat="42.51165022393155" lon="11.433342071428795"><ele>79.0</ele><time>2026-04-12T16:36:40.999Z</time></trkpt><trkpt lat="42.51172525762355" lon="11.433145163392425"><ele>79.0</ele><time>2026-04-12T16:36:41.999Z</time></trkpt><trkpt lat="42.51179241493364" lon="11.432945604746891"><ele>78.66666666666666</ele><time>2026-04-12T16:36:42.999Z</time></trkpt><trkpt lat="42.51185679778883" lon="11.432751463381713"><ele>78.33333333333333</ele><time>2026-04-12T16:36:43.999Z</time></trkpt><trkpt lat="42.51191680171205" lon="11.432557158350427"><ele>78.0</ele><time>2026-04-12T16:36:44.999Z</time></trkpt><trkpt lat="42.51196636238521" lon="11.432350640208522"><ele>78.0</ele><time>2026-04-12T16:36:45.999Z</time></trkpt><trkpt lat="42.51200492618346" lon="11.432142808470681"><ele>78.0</ele><time>2026-04-12T16:36:46.999Z</time></trkpt><trkpt lat="42.51204487382294" lon="11.431933555618793"><ele>78.0</ele><time>2026-04-12T16:36:47.999Z</time></trkpt><trkpt lat="42.512088700792496" lon="11.431704986682677"><ele>76.66666666666667</ele><time>2026-04-12T16:36:48.999Z</time></trkpt><trkpt lat="42.51213404199211" lon="11.431486416070209"><ele>75.33333333333334</ele><time>2026-04-12T16:36:49.999Z</time></trkpt><trkpt lat="42.512182751376315" lon="11.431284168243668"><ele>74.0</ele><time>2026-04-12T16:36:50.999Z</time></trkpt><trkpt lat="42.51223071846581" lon="11.43108408838429"><ele>73.0</ele><time>2026-04-12T16:36:51.999Z</time></trkpt><trkpt lat="42.512280556107" lon="11.430873914051304"><ele>72.0</ele><time>2026-04-12T16:36:52.999Z</time></trkpt><trkpt lat="42.512325857071716" lon="11.430665809002566"><ele>71.0</ele><time>2026-04-12T16:36:53.999Z</time></trkpt><trkpt lat="42.512370016107155" lon="11.430441196842423"><ele>70.0</ele><time>2026-04-12T16:36:54.999Z</time></trkpt><trkpt lat="42.5124152978031" lon="11.430210025980058"><ele>69.0</ele><time>2026-04-12T16:36:55.999Z</time></trkpt><trkpt lat="42.51246311256053" lon="11.429981061984867"><ele>68.0</ele><time>2026-04-12T16:36:56.999Z</time></trkpt><trkpt lat="42.512510395630706" lon="11.429752249921718"><ele>67.0</ele><time>2026-04-12T16:36:57.999Z</time></trkpt><trkpt lat="42.5125634379456" lon="11.429514865949164"><ele>66.0</ele><time>2026-04-12T16:36:58.999Z</time></trkpt><trkpt lat="42.51261380367506" lon="11.42929172206041"><ele>65.0</ele><time>2026-04-12T16:36:59.999Z</time></trkpt><trkpt lat="42.5126569237896" lon="11.429099632302753"><ele>65.0</ele><time>2026-04-12T16:37:00.999Z</time></trkpt><trkpt lat="42.51269211239174" lon="11.42893073365848"><ele>65.0</ele><time>2026-04-12T16:37:01.999Z</time></trkpt><trkpt lat="42.51272124831871" lon="11.428793570681245"><ele>65.0</ele><time>2026-04-12T16:37:02.999Z</time></trkpt><trkpt lat="42.51273092253109" lon="11.428667950002028"><ele>65.0</ele><time>2026-04-12T16:37:03.999Z</time></trkpt><trkpt lat="42.512716381356114" lon="11.428535987183343"><ele>65.0</ele><time>2026-04-12T16:37:04.999Z</time></trkpt><trkpt lat="42.5126524323277" lon="11.428417107570064"><ele>65.0</ele><time>2026-04-12T16:37:05.999Z</time></trkpt><trkpt lat="42.51256245677944" lon="11.428310386108958"><ele>65.0</ele><time>2026-04-12T16:37:06.999Z</time></trkpt><trkpt lat="42.51248098287075" lon="11.428176142660806"><ele>65.0</ele><time>2026-04-12T16:37:07.999Z</time></trkpt><trkpt lat="42.51238746768729" lon="11.428049865209857"><ele>65.0</ele><time>2026-04-12T16:37:08.999Z</time></trkpt><trkpt lat="42.51230171678674" lon="11.427961840870077"><ele>65.0</ele><time>2026-04-12T16:37:09.999Z</time></trkpt><trkpt lat="42.512256604604865" lon="11.42786027430997"><ele>65.0</ele><time>2026-04-12T16:37:10.999Z</time></trkpt><trkpt lat="42.51222407199861" lon="11.427778155054419"><ele>65.0</ele><time>2026-04-12T16:37:11.999Z</time></trkpt><trkpt lat="42.512209656899444" lon="11.427683162647309"><ele>65.0</ele><time>2026-04-12T16:37:12.999Z</time></trkpt><trkpt lat="42.512232839268165" lon="11.427578715601713"><ele>65.0</ele><time>2026-04-12T16:37:13.999Z</time></trkpt><trkpt lat="42.51226873131599" lon="11.427470264104617"><ele>65.0</ele><time>2026-04-12T16:37:14.999Z</time></trkpt><trkpt lat="42.51232383473353" lon="11.427352426783221"><ele>65.0</ele><time>2026-04-12T16:37:15.999Z</time></trkpt><trkpt lat="42.512424634081" lon="11.427277340712799"><ele>65.0</ele><time>2026-04-12T16:37:16.999Z</time></trkpt><trkpt lat="42.51252334334781" lon="11.427172641715599"><ele>65.0</ele><time>2026-04-12T16:37:17.999Z</time></trkpt><trkpt lat="42.51263395141327" lon="11.427087784178443"><ele>65.0</ele><time>2026-04-12T16:37:18.999Z</time></trkpt><trkpt lat="42.512733134803646" lon="11.426991894101478"><ele>64.75</ele><time>2026-04-12T16:37:19.999Z</time></trkpt><trkpt lat="42.51282410083125" lon="11.42686034217851"><ele>64.5</ele><time>2026-04-12T16:37:20.999Z</time></trkpt><trkpt lat="42.5129050758894" lon="11.426692443854757"><ele>64.25</ele><time>2026-04-12T16:37:21.999Z</time></trkpt><trkpt lat="42.51298636066289" lon="11.42650854745824"><ele>64.0</ele><time>2026-04-12T16:37:22.998Z</time></trkpt><trkpt lat="42.51306395154479" lon="11.426329039419846"><ele>63.666666666666664</ele><time>2026-04-12T16:37:23.998Z</time></trkpt><trkpt lat="42.51313734970567" lon="11.426157620126226"><ele>63.33333333333333</ele><time>2026-04-12T16:37:24.998Z</time></trkpt><trkpt lat="42.51321534155813" lon="11.425981684819236"><ele>63.0</ele><time>2026-04-12T16:37:25.998Z</time></trkpt><trkpt lat="42.51330208517116" lon="11.425808215408999"><ele>63.0</ele><time>2026-04-12T16:37:26.998Z</time></trkpt><trkpt lat="42.51340025817225" lon="11.425637529559562"><ele>63.0</ele><time>2026-04-12T16:37:27.998Z</time></trkpt><trkpt lat="42.51349900134118" lon="11.425475714474892"><ele>63.0</ele><time>2026-04-12T16:37:28.998Z</time></trkpt><trkpt lat="42.51360686540407" lon="11.425305043274191"><ele>63.0</ele><time>2026-04-12T16:37:29.998Z</time></trkpt><trkpt lat="42.513720194227005" lon="11.42512378467246"><ele>63.0</ele><time>2026-04-12T16:37:30.998Z</time></trkpt><trkpt lat="42.513834610045286" lon="11.424956067519679"><ele>63.0</ele><time>2026-04-12T16:37:31.998Z</time></trkpt><trkpt lat="42.51395710248931" lon="11.424806219119988"><ele>63.0</ele><time>2026-04-12T16:37:32.998Z</time></trkpt><trkpt lat="42.5140767212972" lon="11.424683337331606"><ele>63.0</ele><time>2026-04-12T16:37:33.998Z</time></trkpt><trkpt lat="42.514193578912035" lon="11.424579555664481"><ele>63.0</ele><time>2026-04-12T16:37:34.998Z</time></trkpt><trkpt lat="42.514303172335964" lon="11.424489440733616"><ele>63.0</ele><time>2026-04-12T16:37:35.998Z</time></trkpt><trkpt lat="42.51440603103263" lon="11.424403564149303"><ele>63.5</ele><time>2026-04-12T16:37:36.998Z</time></trkpt><trkpt lat="42.51449927590827" lon="11.424289348685763"><ele>64.0</ele><time>2026-04-12T16:37:37.998Z</time></trkpt><trkpt lat="42.51456776794526" lon="11.4241309062925"><ele>64.5</ele><time>2026-04-12T16:37:38.998Z</time></trkpt><trkpt lat="42.51464458696419" lon="11.423971702799076"><ele>65.0</ele><time>2026-04-12T16:37:39.998Z</time></trkpt><trkpt lat="42.51472134680688" lon="11.423806348237923"><ele>66.75</ele><time>2026-04-12T16:37:40.998Z</time></trkpt><trkpt lat="42.51479782261362" lon="11.423636435631852"><ele>68.5</ele><time>2026-04-12T16:37:41.998Z</time></trkpt><trkpt lat="42.514859285776474" lon="11.423467788103547"><ele>70.25</ele><time>2026-04-12T16:37:42.998Z</time></trkpt><trkpt lat="42.51490865987527" lon="11.423298338434616"><ele>72.0</ele><time>2026-04-12T16:37:43.998Z</time></trkpt><trkpt lat="42.51496124518168" lon="11.423116441825213"><ele>71.66666666666667</ele><time>2026-04-12T16:37:44.998Z</time></trkpt><trkpt lat="42.515025434429056" lon="11.422929539614827"><ele>71.33333333333334</ele><time>2026-04-12T16:37:45.998Z</time></trkpt><trkpt lat="42.51509924942707" lon="11.422736039101663"><ele>71.0</ele><time>2026-04-12T16:37:46.998Z</time></trkpt><trkpt lat="42.515185087017365" lon="11.422541936048615"><ele>71.0</ele><time>2026-04-12T16:37:47.998Z</time></trkpt><trkpt lat="42.5152836584782" lon="11.422354485946757"><ele>71.0</ele><time>2026-04-12T16:37:48.998Z</time></trkpt><trkpt lat="42.51538383747004" lon="11.422182586828239"><ele>71.0</ele><time>2026-04-12T16:37:49.998Z</time></trkpt><trkpt lat="42.5155054392196" lon="11.422036480719319"><ele>72.25</ele><time>2026-04-12T16:37:50.998Z</time></trkpt><trkpt lat="42.515592395717405" lon="11.421893382310582"><ele>73.5</ele><time>2026-04-12T16:37:51.998Z</time></trkpt><trkpt lat="42.51568064320411" lon="11.421765295768765"><ele>74.75</ele><time>2026-04-12T16:37:52.998Z</time></trkpt><trkpt lat="42.51576557693272" lon="11.421640591938802"><ele>76.0</ele><time>2026-04-12T16:37:53.998Z</time></trkpt><trkpt lat="42.51584724879112" lon="11.421520462869626"><ele>76.0</ele><time>2026-04-12T16:37:54.998Z</time></trkpt><trkpt lat="42.51592034307969" lon="11.421420702405978"><ele>76.0</ele><time>2026-04-12T16:37:55.998Z</time></trkpt><trkpt lat="42.51598079535427" lon="11.42133591914169"><ele>76.0</ele><time>2026-04-12T16:37:57Z</time></trkpt><trkpt lat="42.5160302746231" lon="11.421272550304844"><ele>76.0</ele><time>2026-04-12T16:37:58Z</time></trkpt><trkpt lat="42.51608386764352" lon="11.421199758796936"><ele>76.0</ele><time>2026-04-12T16:38:00Z</time></trkpt><trkpt lat="42.51614419113505" lon="11.42114390998091"><ele>76.0</ele><time>2026-04-12T16:38:11Z</time></trkpt><trkpt lat="42.51609192065721" lon="11.421006534618767"><ele>76.0</ele><time>2026-04-12T16:38:14Z</time></trkpt><trkpt lat="42.51611197774519" lon="11.420866366870753"><ele>76.0</ele><time>2026-04-12T16:39:19.999Z</time></trkpt><trkpt lat="42.516116051894926" lon="11.4207770457179"><ele>76.0</ele><time>2026-04-12T16:39:20.999Z</time></trkpt><trkpt lat="42.51615803750082" lon="11.420700080293965"><ele>76.0</ele><time>2026-04-12T16:39:21.999Z</time></trkpt><trkpt lat="42.51617661625757" lon="11.420599825356426"><ele>76.0</ele><time>2026-04-12T16:39:22.999Z</time></trkpt><trkpt lat="42.51619681633176" lon="11.420474633024941"><ele>76.0</ele><time>2026-04-12T16:39:23.999Z</time></trkpt><trkpt lat="42.51621406042605" lon="11.420364852520061"><ele>77.4</ele><time>2026-04-12T16:39:24.999Z</time></trkpt><trkpt lat="42.51623884382497" lon="11.420229726273305"><ele>78.8</ele><time>2026-04-12T16:39:25.999Z</time></trkpt><trkpt lat="42.51626821505078" lon="11.420098529757873"><ele>80.2</ele><time>2026-04-12T16:39:26.998Z</time></trkpt><trkpt lat="42.5162922136767" lon="11.419952840333737"><ele>81.60000000000001</ele><time>2026-04-12T16:39:27.998Z</time></trkpt><trkpt lat="42.51632806340211" lon="11.419813133845224"><ele>83.0</ele><time>2026-04-12T16:39:28.998Z</time></trkpt><trkpt lat="42.51634864171888" lon="11.41967428232921"><ele>83.16666666666667</ele><time>2026-04-12T16:39:29.998Z</time></trkpt><trkpt lat="42.51637392441299" lon="11.41956799564338"><ele>83.33333333333334</ele><time>2026-04-12T16:39:30.998Z</time></trkpt><trkpt lat="42.51635627108799" lon="11.419483694438552"><ele>83.5</ele><time>2026-04-12T16:39:31.998Z</time></trkpt><trkpt lat="42.51633134926183" lon="11.419357060822687"><ele>83.66666666666667</ele><time>2026-04-12T16:39:34.998Z</time></trkpt><trkpt lat="42.516294797215764" lon="11.4192870857427"><ele>83.83333333333333</ele><time>2026-04-12T16:39:35.998Z</time></trkpt><trkpt lat="42.5162572728378" lon="11.419196542495497"><ele>84.0</ele><time>2026-04-12T16:39:36.998Z</time></trkpt><trkpt lat="42.516205988261596" lon="11.419090532941283"><ele>83.80000000000001</ele><time>2026-04-12T16:39:37.998Z</time></trkpt><trkpt lat="42.516142443858286" lon="11.418968230101708"><ele>83.60000000000001</ele><time>2026-04-12T16:39:38.998Z</time></trkpt><trkpt lat="42.51608515780012" lon="11.418864976466736"><ele>83.4</ele><time>2026-04-12T16:39:39.998Z</time></trkpt><trkpt lat="42.51601553136287" lon="11.418746231453841"><ele>83.2</ele><time>2026-04-12T16:39:40.998Z</time></trkpt><trkpt lat="42.515944718111555" lon="11.418625941726383"><ele>83.0</ele><time>2026-04-12T16:39:41.998Z</time></trkpt><trkpt lat="42.51587525832112" lon="11.418501863231228"><ele>83.0</ele><time>2026-04-12T16:39:42.998Z</time></trkpt><trkpt lat="42.51580487899451" lon="11.418373040271158"><ele>83.0</ele><time>2026-04-12T16:39:43.998Z</time></trkpt><trkpt lat="42.51573761758469" lon="11.41823980781494"><ele>83.0</ele><time>2026-04-12T16:39:44.998Z</time></trkpt><trkpt lat="42.515674284036095" lon="11.418103560750678"><ele>83.0</ele><time>2026-04-12T16:39:45.998Z</time></trkpt><trkpt lat="42.515607029654554" lon="11.417949039678371"><ele>84.0</ele><time>2026-04-12T16:39:46.998Z</time></trkpt><trkpt lat="42.51554391255351" lon="11.417795995046804"><ele>85.0</ele><time>2026-04-12T16:39:47.998Z</time></trkpt><trkpt lat="42.51548260948049" lon="11.417636151915628"><ele>86.0</ele><time>2026-04-12T16:39:48.998Z</time></trkpt><trkpt lat="42.51542007635016" lon="11.417459274566186"><ele>87.0</ele><time>2026-04-12T16:39:49.998Z</time></trkpt><trkpt lat="42.515358862498054" lon="11.417279358542723"><ele>88.25</ele><time>2026-04-12T16:39:50.998Z</time></trkpt><trkpt lat="42.51529863062104" lon="11.417107984048139"><ele>89.5</ele><time>2026-04-12T16:39:51.998Z</time></trkpt><trkpt lat="42.51523810019353" lon="11.41695144081351"><ele>90.75</ele><time>2026-04-12T16:39:52.998Z</time></trkpt><trkpt lat="42.515178717213466" lon="11.41681028512153"><ele>92.0</ele><time>2026-04-12T16:39:53.998Z</time></trkpt><trkpt lat="42.51512770751835" lon="11.416673087496566"><ele>92.0</ele><time>2026-04-12T16:39:54.998Z</time></trkpt><trkpt lat="42.51507941450816" lon="11.416529123537169"><ele>92.0</ele><time>2026-04-12T16:39:55.998Z</time></trkpt><trkpt lat="42.51504040101836" lon="11.416382796722662"><ele>92.0</ele><time>2026-04-12T16:39:56.998Z</time></trkpt><trkpt lat="42.51501790704791" lon="11.416243375911192"><ele>92.0</ele><time>2026-04-12T16:39:57.998Z</time></trkpt><trkpt lat="42.51500747092821" lon="11.416098257233074"><ele>92.0</ele><time>2026-04-12T16:39:58.998Z</time></trkpt><trkpt lat="42.51500305392359" lon="11.415960142885124"><ele>92.16666666666667</ele><time>2026-04-12T16:39:59.998Z</time></trkpt><trkpt lat="42.51500799837356" lon="11.415847171087146"><ele>92.33333333333334</ele><time>2026-04-12T16:40:00.998Z</time></trkpt><trkpt lat="42.51500031704115" lon="11.415748613506823"><ele>92.5</ele><time>2026-04-12T16:40:01.998Z</time></trkpt><trkpt lat="42.51496215017005" lon="11.415646933312436"><ele>92.66666666666667</ele><time>2026-04-12T16:40:03Z</time></trkpt><trkpt lat="42.51488234227071" lon="11.415589440266785"><ele>92.83333333333333</ele><time>2026-04-12T16:40:04Z</time></trkpt><trkpt lat="42.51478890086071" lon="11.415577648327075"><ele>93.0</ele><time>2026-04-12T16:40:05Z</time></trkpt><trkpt lat="42.51469969105983" lon="11.4155350501563"><ele>93.0</ele><time>2026-04-12T16:40:05.999Z</time></trkpt><trkpt lat="42.51460633253873" lon="11.415507357401173"><ele>93.0</ele><time>2026-04-12T16:40:06.999Z</time></trkpt><trkpt lat="42.514513255980084" lon="11.415479748300442"><ele>93.0</ele><time>2026-04-12T16:40:07.999Z</time></trkpt><trkpt lat="42.514415429286736" lon="11.415444316774998"><ele>93.0</ele><time>2026-04-12T16:40:08.999Z</time></trkpt><trkpt lat="42.51431355544713" lon="11.415405923971306"><ele>93.0</ele><time>2026-04-12T16:40:09.999Z</time></trkpt><trkpt lat="42.51421449852999" lon="11.415356868437804"><ele>94.0</ele><time>2026-04-12T16:40:10.999Z</time></trkpt><trkpt lat="42.51411189856162" lon="11.415289742179949"><ele>95.0</ele><time>2026-04-12T16:40:11.999Z</time></trkpt><trkpt lat="42.5140116964344" lon="11.415214711071156"><ele>96.0</ele><time>2026-04-12T16:40:12.999Z</time></trkpt><trkpt lat="42.51391635435535" lon="11.415134052599326"><ele>97.0</ele><time>2026-04-12T16:40:13.999Z</time></trkpt><trkpt lat="42.51381038308008" lon="11.415036410904404"><ele>97.5</ele><time>2026-04-12T16:40:14.999Z</time></trkpt><trkpt lat="42.513707956958505" lon="11.41493318451612"><ele>98.0</ele><time>2026-04-12T16:40:15.999Z</time></trkpt><trkpt lat="42.51361381171456" lon="11.414832720235564"><ele>98.5</ele><time>2026-04-12T16:40:16.999Z</time></trkpt><trkpt lat="42.51350940758758" lon="11.414723203007503"><ele>99.0</ele><time>2026-04-12T16:40:17.999Z</time></trkpt><trkpt lat="42.51340311580172" lon="11.414620349612159"><ele>99.0</ele><time>2026-04-12T16:40:18.999Z</time></trkpt><trkpt lat="42.513286846052026" lon="11.414539648670386"><ele>99.0</ele><time>2026-04-12T16:40:19.999Z</time></trkpt><trkpt lat="42.51317348772916" lon="11.414435672941147"><ele>99.0</ele><time>2026-04-12T16:40:20.999Z</time></trkpt><trkpt lat="42.513069892151265" lon="11.414308088369413"><ele>99.0</ele><time>2026-04-12T16:40:21.999Z</time></trkpt><trkpt lat="42.512957593496964" lon="11.414193016508973"><ele>99.25</ele><time>2026-04-12T16:40:22.999Z</time></trkpt><trkpt lat="42.51285058262335" lon="11.414079115947679"><ele>99.5</ele><time>2026-04-12T16:40:23.999Z</time></trkpt><trkpt lat="42.512741386842734" lon="11.413961533778325"><ele>99.75</ele><time>2026-04-12T16:40:24.999Z</time></trkpt><trkpt lat="42.512629768733014" lon="11.41384134326611"><ele>100.0</ele><time>2026-04-12T16:40:25.999Z</time></trkpt><trkpt lat="42.51251409145354" lon="11.413718123090954"><ele>100.25</ele><time>2026-04-12T16:40:26.999Z</time></trkpt><trkpt lat="42.5124025934166" lon="11.413599588733556"><ele>100.5</ele><time>2026-04-12T16:40:27.999Z</time></trkpt><trkpt lat="42.512287662222924" lon="11.413483247637421"><ele>100.75</ele><time>2026-04-12T16:40:28.999Z</time></trkpt><trkpt lat="42.51217329462699" lon="11.413366864252199"><ele>101.0</ele><time>2026-04-12T16:40:29.999Z</time></trkpt><trkpt lat="42.51207321803206" lon="11.413241344466428"><ele>100.75</ele><time>2026-04-12T16:40:30.999Z</time></trkpt><trkpt lat="42.511975919720754" lon="11.413103494354205"><ele>100.5</ele><time>2026-04-12T16:40:31.999Z</time></trkpt><trkpt lat="42.51188355379809" lon="11.412956439348669"><ele>100.25</ele><time>2026-04-12T16:40:32.999Z</time></trkpt><trkpt lat="42.51179288335924" lon="11.412794543627703"><ele>100.0</ele><time>2026-04-12T16:40:33.999Z</time></trkpt><trkpt lat="42.51169661905521" lon="11.412636306938621"><ele>100.0</ele><time>2026-04-12T16:40:34.999Z</time></trkpt><trkpt lat="42.51160072942059" lon="11.412480082276051"><ele>100.0</ele><time>2026-04-12T16:40:35.999Z</time></trkpt><trkpt lat="42.51150833022699" lon="11.412326909473887"><ele>100.0</ele><time>2026-04-12T16:40:36.999Z</time></trkpt><trkpt lat="42.51141637222292" lon="11.412168322533462"><ele>100.0</ele><time>2026-04-12T16:40:37.999Z</time></trkpt><trkpt lat="42.511323527640364" lon="11.412012913993014"><ele>103.0</ele><time>2026-04-12T16:40:38.999Z</time></trkpt><trkpt lat="42.511226831110214" lon="11.411855572694586"><ele>106.0</ele><time>2026-04-12T16:40:39.999Z</time></trkpt><trkpt lat="42.511127281707076" lon="11.411688895705021"><ele>109.0</ele><time>2026-04-12T16:40:40.999Z</time></trkpt><trkpt lat="42.5110324562538" lon="11.411523886407469"><ele>109.0</ele><time>2026-04-12T16:40:41.999Z</time></trkpt><trkpt lat="42.51094185625237" lon="11.41136755515248"><ele>109.0</ele><time>2026-04-12T16:40:42.999Z</time></trkpt><trkpt lat="42.51085013755665" lon="11.411215005509433"><ele>109.0</ele><time>2026-04-12T16:40:43.999Z</time></trkpt><trkpt lat="42.510756318659965" lon="11.411065771273522"><ele>109.0</ele><time>2026-04-12T16:40:44.999Z</time></trkpt><trkpt lat="42.51066018731188" lon="11.410926445880667"><ele>108.0</ele><time>2026-04-12T16:40:45.999Z</time></trkpt><trkpt lat="42.51056974736382" lon="11.410795288203749"><ele>107.0</ele><time>2026-04-12T16:40:46.999Z</time></trkpt><trkpt lat="42.510488599257165" lon="11.410660476814313"><ele>106.0</ele><time>2026-04-12T16:40:47.999Z</time></trkpt><trkpt lat="42.5104122321599" lon="11.410514872683068"><ele>105.0</ele><time>2026-04-12T16:40:48.999Z</time></trkpt><trkpt lat="42.51033169899714" lon="11.410362396018353"><ele>107.75</ele><time>2026-04-12T16:40:49.999Z</time></trkpt><trkpt lat="42.51025548745741" lon="11.410228472849434"><ele>110.5</ele><time>2026-04-12T16:40:50.999Z</time></trkpt><trkpt lat="42.51017156514044" lon="11.410092922740153"><ele>113.25</ele><time>2026-04-12T16:40:51.999Z</time></trkpt><trkpt lat="42.510078200161274" lon="11.409973038632394"><ele>116.0</ele><time>2026-04-12T16:40:52.999Z</time></trkpt><trkpt lat="42.509983692881676" lon="11.40987809741826"><ele>116.0</ele><time>2026-04-12T16:40:53.999Z</time></trkpt><trkpt lat="42.50987909118082" lon="11.409784993330543"><ele>116.0</ele><time>2026-04-12T16:40:54.999Z</time></trkpt><trkpt lat="42.50977433365877" lon="11.409702103546532"><ele>116.0</ele><time>2026-04-12T16:40:55.999Z</time></trkpt><trkpt lat="42.50967701509435" lon="11.409625532114134"><ele>116.0</ele><time>2026-04-12T16:40:56.999Z</time></trkpt><trkpt lat="42.509580568727024" lon="11.409548424041418"><ele>116.8</ele><time>2026-04-12T16:40:57.999Z</time></trkpt><trkpt lat="42.50948771620114" lon="11.409469207924786"><ele>117.6</ele><time>2026-04-12T16:40:58.999Z</time></trkpt><trkpt lat="42.50940442352219" lon="11.409396268380032"><ele>118.4</ele><time>2026-04-12T16:40:59.999Z</time></trkpt><trkpt lat="42.50930662754721" lon="11.409338485619777"><ele>119.2</ele><time>2026-04-12T16:41:00.999Z</time></trkpt><trkpt lat="42.50922107611254" lon="11.409289107604222"><ele>120.0</ele><time>2026-04-12T16:41:01.999Z</time></trkpt><trkpt lat="42.50912853033271" lon="11.409249851929737"><ele>120.0</ele><time>2026-04-12T16:41:02.999Z</time></trkpt><trkpt lat="42.50902830820612" lon="11.409212039023124"><ele>120.0</ele><time>2026-04-12T16:41:03.999Z</time></trkpt><trkpt lat="42.508914459432376" lon="11.409211490325141"><ele>120.0</ele><time>2026-04-12T16:41:04.999Z</time></trkpt><trkpt lat="42.50879573102772" lon="11.409220577303337"><ele>120.0</ele><time>2026-04-12T16:41:05.999Z</time></trkpt><trkpt lat="42.50867835549755" lon="11.409254426412598"><ele>121.25</ele><time>2026-04-12T16:41:06.999Z</time></trkpt><trkpt lat="42.508566889914334" lon="11.409280303615509"><ele>122.5</ele><time>2026-04-12T16:41:07.999Z</time></trkpt><trkpt lat="42.50846270193472" lon="11.4093311706688"><ele>123.75</ele><time>2026-04-12T16:41:08.999Z</time></trkpt><trkpt lat="42.50834404941634" lon="11.409371187556054"><ele>125.0</ele><time>2026-04-12T16:41:09.999Z</time></trkpt><trkpt lat="42.50821969256368" lon="11.409420295017428"><ele>125.0</ele><time>2026-04-12T16:41:10.999Z</time></trkpt><trkpt lat="42.508095867271415" lon="11.409435976080847"><ele>125.0</ele><time>2026-04-12T16:41:11.999Z</time></trkpt><trkpt lat="42.50797186297142" lon="11.409433913710364"><ele>125.0</ele><time>2026-04-12T16:41:12.999Z</time></trkpt><trkpt lat="42.50784313805546" lon="11.409429604526691"><ele>125.0</ele><time>2026-04-12T16:41:13.999Z</time></trkpt><trkpt lat="42.507714607564345" lon="11.409441425223914"><ele>124.25</ele><time>2026-04-12T16:41:14.999Z</time></trkpt><trkpt lat="42.50759170718197" lon="11.409466084304261"><ele>123.5</ele><time>2026-04-12T16:41:15.999Z</time></trkpt><trkpt lat="42.50746397265762" lon="11.409515238863916"><ele>122.75</ele><time>2026-04-12T16:41:16.999Z</time></trkpt><trkpt lat="42.50732793893192" lon="11.409525870509233"><ele>122.0</ele><time>2026-04-12T16:41:17.999Z</time></trkpt><trkpt lat="42.50720268975152" lon="11.409553502083421"><ele>123.0</ele><time>2026-04-12T16:41:18.999Z</time></trkpt><trkpt lat="42.50707385802882" lon="11.409605882208405"><ele>124.0</ele><time>2026-04-12T16:41:19.999Z</time></trkpt><trkpt lat="42.50694455368305" lon="11.409632505674454"><ele>125.0</ele><time>2026-04-12T16:41:20.999Z</time></trkpt><trkpt lat="42.506824308158286" lon="11.4096589113628"><ele>126.0</ele><time>2026-04-12T16:41:21.999Z</time></trkpt><trkpt lat="42.50670854895214" lon="11.409682050623937"><ele>128.5</ele><time>2026-04-12T16:41:22.999Z</time></trkpt><trkpt lat="42.50659136473953" lon="11.40971347596774"><ele>131.0</ele><time>2026-04-12T16:41:23.999Z</time></trkpt><trkpt lat="42.506477227156694" lon="11.409751874281671"><ele>133.5</ele><time>2026-04-12T16:41:24.999Z</time></trkpt><trkpt lat="42.506369614075055" lon="11.409803038975506"><ele>136.0</ele><time>2026-04-12T16:41:25.999Z</time></trkpt><trkpt lat="42.506266439043664" lon="11.409854491663372"><ele>136.2</ele><time>2026-04-12T16:41:26.999Z</time></trkpt><trkpt lat="42.506165983408074" lon="11.409909188635858"><ele>136.39999999999998</ele><time>2026-04-12T16:41:27.999Z</time></trkpt><trkpt lat="42.506061311964174" lon="11.409956332825967"><ele>136.6</ele><time>2026-04-12T16:41:28.999Z</time></trkpt><trkpt lat="42.50596531739452" lon="11.410001154159369"><ele>136.79999999999998</ele><time>2026-04-12T16:41:29.999Z</time></trkpt><trkpt lat="42.50587906253512" lon="11.410043831846222"><ele>137.0</ele><time>2026-04-12T16:41:30.999Z</time></trkpt><trkpt lat="42.50581750271208" lon="11.41007166540108"><ele>137.0</ele><time>2026-04-12T16:41:31.999Z</time></trkpt><trkpt lat="42.50571349307203" lon="11.410074466897408"><ele>137.0</ele><time>2026-04-12T16:41:33.998Z</time></trkpt><trkpt lat="42.50560952674615" lon="11.4100425254255"><ele>137.0</ele><time>2026-04-12T16:41:36.998Z</time></trkpt><trkpt lat="42.50553899513318" lon="11.409962672995203"><ele>137.0</ele><time>2026-04-12T16:41:38.998Z</time></trkpt><trkpt lat="42.50553004384203" lon="11.409656227125316"><ele>137.5</ele><time>2026-04-12T16:41:40.998Z</time></trkpt><trkpt lat="42.5055130259838" lon="11.409549324594387"><ele>138.0</ele><time>2026-04-12T16:41:41.998Z</time></trkpt><trkpt lat="42.50549871099194" lon="11.409434300605172"><ele>138.5</ele><time>2026-04-12T16:41:42.998Z</time></trkpt><trkpt lat="42.50547881859872" lon="11.409330723645757"><ele>139.0</ele><time>2026-04-12T16:41:43.998Z</time></trkpt><trkpt lat="42.50545991138426" lon="11.40923934251255"><ele>139.5</ele><time>2026-04-12T16:41:44.998Z</time></trkpt><trkpt lat="42.505442375821126" lon="11.409138418057163"><ele>140.0</ele><time>2026-04-12T16:41:45.998Z</time></trkpt><trkpt lat="42.505423842375215" lon="11.409018241325438"><ele>139.8</ele><time>2026-04-12T16:41:46.998Z</time></trkpt><trkpt lat="42.50540646501982" lon="11.408894200535105"><ele>139.6</ele><time>2026-04-12T16:41:47.998Z</time></trkpt><trkpt lat="42.50538733899423" lon="11.40876487300709"><ele>139.4</ele><time>2026-04-12T16:41:48.998Z</time></trkpt><trkpt lat="42.5053735606051" lon="11.4086382493522"><ele>139.2</ele><time>2026-04-12T16:41:49.998Z</time></trkpt><trkpt lat="42.50535558401739" lon="11.408511168810135"><ele>139.0</ele><time>2026-04-12T16:41:50.998Z</time></trkpt><trkpt lat="42.50533655782362" lon="11.408377821619696"><ele>138.8</ele><time>2026-04-12T16:41:51.998Z</time></trkpt><trkpt lat="42.50531044951005" lon="11.408242842178591"><ele>138.60000000000002</ele><time>2026-04-12T16:41:52.998Z</time></trkpt><trkpt lat="42.505294393199634" lon="11.40809570779844"><ele>138.4</ele><time>2026-04-12T16:41:53.998Z</time></trkpt><trkpt lat="42.505275470473855" lon="11.407949178335599"><ele>138.20000000000002</ele><time>2026-04-12T16:41:54.998Z</time></trkpt><trkpt lat="42.50524639237133" lon="11.407800769687334"><ele>138.0</ele><time>2026-04-12T16:41:55.998Z</time></trkpt><trkpt lat="42.50522064622672" lon="11.407638982203691"><ele>137.75</ele><time>2026-04-12T16:41:56.998Z</time></trkpt><trkpt lat="42.50519436926167" lon="11.407488494353801"><ele>137.5</ele><time>2026-04-12T16:41:57.998Z</time></trkpt><trkpt lat="42.50517212397642" lon="11.407321516088313"><ele>137.25</ele><time>2026-04-12T16:41:58.998Z</time></trkpt><trkpt lat="42.50514498568111" lon="11.407165529305962"><ele>137.0</ele><time>2026-04-12T16:41:59.998Z</time></trkpt><trkpt lat="42.505117539617295" lon="11.407005636460658"><ele>137.0</ele><time>2026-04-12T16:42:00.998Z</time></trkpt><trkpt lat="42.50509097778067" lon="11.406837970651734"><ele>137.0</ele><time>2026-04-12T16:42:01.998Z</time></trkpt><trkpt lat="42.505061763594526" lon="11.406659974017174"><ele>137.0</ele><time>2026-04-12T16:42:02.998Z</time></trkpt><trkpt lat="42.50503435341745" lon="11.406495017934056"><ele>137.0</ele><time>2026-04-12T16:42:03.998Z</time></trkpt><trkpt lat="42.50500227841877" lon="11.40632684391832"><ele>137.0</ele><time>2026-04-12T16:42:04.998Z</time></trkpt><trkpt lat="42.50496755306738" lon="11.406142025282474"><ele>137.0</ele><time>2026-04-12T16:42:05.998Z</time></trkpt><trkpt lat="42.50494211814568" lon="11.405960240120352"><ele>137.0</ele><time>2026-04-12T16:42:06.998Z</time></trkpt><trkpt lat="42.50491432494156" lon="11.405781112751415"><ele>137.0</ele><time>2026-04-12T16:42:08Z</time></trkpt><trkpt lat="42.50488435108966" lon="11.40560459570935"><ele>138.25</ele><time>2026-04-12T16:42:09Z</time></trkpt><trkpt lat="42.50485742809712" lon="11.405447624877342"><ele>139.5</ele><time>2026-04-12T16:42:10Z</time></trkpt><trkpt lat="42.50482144820321" lon="11.405266743889571"><ele>140.75</ele><time>2026-04-12T16:42:11Z</time></trkpt><trkpt lat="42.50478468209405" lon="11.405126353816177"><ele>142.0</ele><time>2026-04-12T16:42:12Z</time></trkpt><trkpt lat="42.50474356770229" lon="11.404984280425468"><ele>142.0</ele><time>2026-04-12T16:42:13Z</time></trkpt><trkpt lat="42.504717923294784" lon="11.404849724865855"><ele>142.0</ele><time>2026-04-12T16:42:13.999Z</time></trkpt><trkpt lat="42.50469135296958" lon="11.404725134068714"><ele>142.0</ele><time>2026-04-12T16:42:14.999Z</time></trkpt><trkpt lat="42.50467537596512" lon="11.404605916857061"><ele>142.0</ele><time>2026-04-12T16:42:15.999Z</time></trkpt><trkpt lat="42.504652877759504" lon="11.404496505179699"><ele>142.0</ele><time>2026-04-12T16:42:16.999Z</time></trkpt><trkpt lat="42.50462532824565" lon="11.404365184284647"><ele>144.0</ele><time>2026-04-12T16:42:17.999Z</time></trkpt><trkpt lat="42.50460878942135" lon="11.404247092553215"><ele>146.0</ele><time>2026-04-12T16:42:18.999Z</time></trkpt><trkpt lat="42.50458717791168" lon="11.404119144707558"><ele>148.0</ele><time>2026-04-12T16:42:19.999Z</time></trkpt><trkpt lat="42.50456242124448" lon="11.403970543288697"><ele>150.0</ele><time>2026-04-12T16:42:20.999Z</time></trkpt><trkpt lat="42.50454965431421" lon="11.403832564690637"><ele>152.0</ele><time>2026-04-12T16:42:21.999Z</time></trkpt><trkpt lat="42.50452826233588" lon="11.40368751118561"><ele>153.33333333333331</ele><time>2026-04-12T16:42:22.999Z</time></trkpt><trkpt lat="42.504499065803614" lon="11.403557282661005"><ele>154.66666666666666</ele><time>2026-04-12T16:42:23.999Z</time></trkpt><trkpt lat="42.504477855211356" lon="11.403440769525615"><ele>156.0</ele><time>2026-04-12T16:42:24.999Z</time></trkpt><trkpt lat="42.50446133716801" lon="11.403322645276901"><ele>157.33333333333334</ele><time>2026-04-12T16:42:25.999Z</time></trkpt><trkpt lat="42.50444896116954" lon="11.403218378543135"><ele>158.66666666666669</ele><time>2026-04-12T16:42:26.999Z</time></trkpt><trkpt lat="42.50442947931016" lon="11.403122224840503"><ele>160.0</ele><time>2026-04-12T16:42:27.999Z</time></trkpt><trkpt lat="42.504379226857246" lon="11.403006864991534"><ele>160.0</ele><time>2026-04-12T16:42:29.999Z</time></trkpt><trkpt lat="42.50429904663644" lon="11.402996306466132"><ele>160.0</ele><time>2026-04-12T16:42:31.999Z</time></trkpt><trkpt lat="42.50419829534637" lon="11.403077741610458"><ele>160.0</ele><time>2026-04-12T16:42:33.999Z</time></trkpt><trkpt lat="42.504136153362005" lon="11.403124593643554"><ele>160.0</ele><time>2026-04-12T16:42:34.999Z</time></trkpt><trkpt lat="42.50405022380571" lon="11.403160208342113"><ele>160.0</ele><time>2026-04-12T16:42:35.999Z</time></trkpt><trkpt lat="42.50398182829554" lon="11.403182368044336"><ele>160.0</ele><time>2026-04-12T16:42:36.999Z</time></trkpt><trkpt lat="42.50390386730113" lon="11.403214648560938"><ele>160.0</ele><time>2026-04-12T16:42:37.999Z</time></trkpt><trkpt lat="42.50382835780575" lon="11.403243264266498"><ele>160.0</ele><time>2026-04-12T16:42:38.999Z</time></trkpt><trkpt lat="42.503760374932604" lon="11.403246900106438"><ele>160.0</ele><time>2026-04-12T16:42:39.999Z</time></trkpt><trkpt lat="42.50368014877539" lon="11.40323179981628"><ele>160.0</ele><time>2026-04-12T16:42:40.999Z</time></trkpt><trkpt lat="42.503603756011884" lon="11.403227005078161"><ele>160.0</ele><time>2026-04-12T16:42:41.999Z</time></trkpt><trkpt lat="42.50347894118231" lon="11.403188432067974"><ele>160.0</ele><time>2026-04-12T16:42:43.999Z</time></trkpt><trkpt lat="42.503406309581486" lon="11.403162877589116"><ele>161.5</ele><time>2026-04-12T16:42:44.999Z</time></trkpt><trkpt lat="42.50332778008687" lon="11.403129271837251"><ele>163.0</ele><time>2026-04-12T16:42:45.999Z</time></trkpt><trkpt lat="42.503257386581865" lon="11.403097678430655"><ele>164.5</ele><time>2026-04-12T16:42:46.999Z</time></trkpt><trkpt lat="42.50318928337243" lon="11.403070764000269"><ele>166.0</ele><time>2026-04-12T16:42:47.999Z</time></trkpt><trkpt lat="42.50309197120923" lon="11.40304964204616"><ele>167.5</ele><time>2026-04-12T16:42:49.999Z</time></trkpt><trkpt lat="42.50302726107414" lon="11.403045728201297"><ele>169.0</ele><time>2026-04-12T16:42:50.999Z</time></trkpt><trkpt lat="42.50295923944236" lon="11.403042496295937"><ele>169.83333333333334</ele><time>2026-04-12T16:42:51.999Z</time></trkpt><trkpt lat="42.502892380939834" lon="11.403049392394486"><ele>170.66666666666669</ele><time>2026-04-12T16:42:52.999Z</time></trkpt><trkpt lat="42.50282868647389" lon="11.403073545944233"><ele>171.5</ele><time>2026-04-12T16:42:53.999Z</time></trkpt><trkpt lat="42.502759893753144" lon="11.403097941079706"><ele>172.33333333333334</ele><time>2026-04-12T16:42:54.999Z</time></trkpt><trkpt lat="42.5026901293375" lon="11.40312089405238"><ele>173.16666666666666</ele><time>2026-04-12T16:42:55.999Z</time></trkpt><trkpt lat="42.50257591330674" lon="11.403127337908789"><ele>174.0</ele><time>2026-04-12T16:42:57.999Z</time></trkpt><trkpt lat="42.5024715583867" lon="11.403060152134053"><ele>176.6</ele><time>2026-04-12T16:42:59.999Z</time></trkpt><trkpt lat="42.50235581617146" lon="11.402972356390404"><ele>179.2</ele><time>2026-04-12T16:43:01.999Z</time></trkpt><trkpt lat="42.50228392768299" lon="11.402929206885435"><ele>181.79999999999998</ele><time>2026-04-12T16:43:02.999Z</time></trkpt><trkpt lat="42.5021706133086" lon="11.402888267206114"><ele>184.39999999999998</ele><time>2026-04-12T16:43:04.999Z</time></trkpt><trkpt lat="42.502095292631324" lon="11.4028690752558"><ele>187.0</ele><time>2026-04-12T16:43:05.999Z</time></trkpt><trkpt lat="42.50201884828691" lon="11.40284261680369"><ele>187.85714285714286</ele><time>2026-04-12T16:43:06.999Z</time></trkpt><trkpt lat="42.5019452449181" lon="11.402826280654105"><ele>188.71428571428572</ele><time>2026-04-12T16:43:07.999Z</time></trkpt><trkpt lat="42.50187906276371" lon="11.402847475243057"><ele>189.57142857142858</ele><time>2026-04-12T16:43:08.999Z</time></trkpt><trkpt lat="42.501794128933355" lon="11.402911622344496"><ele>190.42857142857144</ele><time>2026-04-12T16:43:10.999Z</time></trkpt><trkpt lat="42.501738166183934" lon="11.40295321605494"><ele>191.28571428571428</ele><time>2026-04-12T16:43:11.999Z</time></trkpt><trkpt lat="42.5016852922976" lon="11.403014922020986"><ele>192.14285714285717</ele><time>2026-04-12T16:43:12.999Z</time></trkpt><trkpt lat="42.50164544754559" lon="11.403092185450692"><ele>193.0</ele><time>2026-04-12T16:43:13.999Z</time></trkpt><trkpt lat="42.501562267591304" lon="11.403237842587378"><ele>192.16666666666666</ele><time>2026-04-12T16:43:15.999Z</time></trkpt><trkpt lat="42.501449895808356" lon="11.40333968741173"><ele>191.33333333333331</ele><time>2026-04-12T16:43:17.999Z</time></trkpt><trkpt lat="42.501377241698215" lon="11.403366786371626"><ele>190.5</ele><time>2026-04-12T16:43:18.999Z</time></trkpt><trkpt lat="42.50130464278175" lon="11.403390183221381"><ele>189.66666666666666</ele><time>2026-04-12T16:43:19.999Z</time></trkpt><trkpt lat="42.501225062597776" lon="11.403404745270947"><ele>188.83333333333331</ele><time>2026-04-12T16:43:20.999Z</time></trkpt><trkpt lat="42.50116090144986" lon="11.403419596423209"><ele>188.0</ele><time>2026-04-12T16:43:21.999Z</time></trkpt><trkpt lat="42.50109168177663" lon="11.403420247400406"><ele>188.0</ele><time>2026-04-12T16:43:23.999Z</time></trkpt><trkpt lat="42.50112436790934" lon="11.403297555077456"><ele>188.0</ele><time>2026-04-12T16:43:39.999Z</time></trkpt><trkpt lat="42.50117892687126" lon="11.403225131788115"><ele>188.0</ele><time>2026-04-12T16:43:40.999Z</time></trkpt><trkpt lat="42.50123528148624" lon="11.403148979478116"><ele>188.0</ele><time>2026-04-12T16:43:41.999Z</time></trkpt><trkpt lat="42.501283403776114" lon="11.40305788997876"><ele>188.0</ele><time>2026-04-12T16:43:42.999Z</time></trkpt><trkpt lat="42.5013184294936" lon="11.40297659205233"><ele>188.0</ele><time>2026-04-12T16:43:43.998Z</time></trkpt><trkpt lat="42.50135467279875" lon="11.40288427877766"><ele>188.83333333333331</ele><time>2026-04-12T16:43:44.998Z</time></trkpt><trkpt lat="42.50138478663476" lon="11.402795728380084"><ele>189.66666666666666</ele><time>2026-04-12T16:43:45.998Z</time></trkpt><trkpt lat="42.50140628698529" lon="11.402707898147906"><ele>190.5</ele><time>2026-04-12T16:43:46.998Z</time></trkpt><trkpt lat="42.50142189977555" lon="11.402595628569799"><ele>191.33333333333331</ele><time>2026-04-12T16:43:47.998Z</time></trkpt><trkpt lat="42.50142237068932" lon="11.402475974541488"><ele>192.16666666666666</ele><time>2026-04-12T16:43:48.998Z</time></trkpt><trkpt lat="42.50142619999969" lon="11.402362962214571"><ele>193.0</ele><time>2026-04-12T16:43:49.998Z</time></trkpt><trkpt lat="42.50143592165668" lon="11.402256255026186"><ele>193.60000000000002</ele><time>2026-04-12T16:43:50.998Z</time></trkpt><trkpt lat="42.50144394642407" lon="11.402151593144586"><ele>194.20000000000002</ele><time>2026-04-12T16:43:51.998Z</time></trkpt><trkpt lat="42.5014429321331" lon="11.402029497399708"><ele>194.8</ele><time>2026-04-12T16:43:52.998Z</time></trkpt><trkpt lat="42.50144350734525" lon="11.401918756914206"><ele>195.4</ele><time>2026-04-12T16:43:53.998Z</time></trkpt><trkpt lat="42.50146325141992" lon="11.401755372348344"><ele>196.0</ele><time>2026-04-12T16:43:55.998Z</time></trkpt><trkpt lat="42.50151290452047" lon="11.401631960589413"><ele>195.99999999999997</ele><time>2026-04-12T16:43:57.998Z</time></trkpt><trkpt lat="42.501585002864395" lon="11.401543596575438"><ele>196.0</ele><time>2026-04-12T16:43:59.998Z</time></trkpt><trkpt lat="42.50164423586505" lon="11.401507221285417"><ele>196.0</ele><time>2026-04-12T16:44:00.998Z</time></trkpt><trkpt lat="42.501709438914965" lon="11.401456273814848"><ele>196.0</ele><time>2026-04-12T16:44:01.998Z</time></trkpt><trkpt lat="42.50178308576907" lon="11.401415744888464"><ele>195.99999999999997</ele><time>2026-04-12T16:44:02.998Z</time></trkpt><trkpt lat="42.50184594539848" lon="11.401380189019784"><ele>196.0</ele><time>2026-04-12T16:44:03.998Z</time></trkpt><trkpt lat="42.50191472849902" lon="11.401343028750231"><ele>193.20000000000002</ele><time>2026-04-12T16:44:04.998Z</time></trkpt><trkpt lat="42.50197361000307" lon="11.401306301248766"><ele>190.4</ele><time>2026-04-12T16:44:05.998Z</time></trkpt><trkpt lat="42.502083654850196" lon="11.401206568185025"><ele>187.6</ele><time>2026-04-12T16:44:07.998Z</time></trkpt><trkpt lat="42.50215494864612" lon="11.401125914283694"><ele>184.8</ele><time>2026-04-12T16:44:08.998Z</time></trkpt><trkpt lat="42.50222394960046" lon="11.40105932561187"><ele>182.0</ele><time>2026-04-12T16:44:09.998Z</time></trkpt><trkpt lat="42.5022951423847" lon="11.400993787996768"><ele>181.66666666666666</ele><time>2026-04-12T16:44:10.998Z</time></trkpt><trkpt lat="42.50235597790419" lon="11.400913851947605"><ele>181.33333333333331</ele><time>2026-04-12T16:44:11.998Z</time></trkpt><trkpt lat="42.50242183041777" lon="11.400836663728546"><ele>181.0</ele><time>2026-04-12T16:44:12.998Z</time></trkpt><trkpt lat="42.502478953618414" lon="11.400750407394934"><ele>180.66666666666666</ele><time>2026-04-12T16:44:14Z</time></trkpt><trkpt lat="42.502533792049014" lon="11.400652977322117"><ele>180.33333333333334</ele><time>2026-04-12T16:44:15Z</time></trkpt><trkpt lat="42.50257898526385" lon="11.400558584236721"><ele>180.0</ele><time>2026-04-12T16:44:16Z</time></trkpt><trkpt lat="42.50262091965374" lon="11.400470613017909"><ele>179.28571428571428</ele><time>2026-04-12T16:44:17Z</time></trkpt><trkpt lat="42.50266835670808" lon="11.400387755797931"><ele>178.57142857142858</ele><time>2026-04-12T16:44:18Z</time></trkpt><trkpt lat="42.502723629637536" lon="11.400314689095545"><ele>177.85714285714286</ele><time>2026-04-12T16:44:19Z</time></trkpt><trkpt lat="42.50277727515459" lon="11.400233471362654"><ele>177.14285714285714</ele><time>2026-04-12T16:44:20Z</time></trkpt><trkpt lat="42.502822845239514" lon="11.400155355457622"><ele>176.42857142857144</ele><time>2026-04-12T16:44:21Z</time></trkpt><trkpt lat="42.50286445352402" lon="11.400090193039578"><ele>175.71428571428572</ele><time>2026-04-12T16:44:22Z</time></trkpt><trkpt lat="42.50290382752725" lon="11.400020209747977"><ele>175.0</ele><time>2026-04-12T16:44:23Z</time></trkpt><trkpt lat="42.50294939492596" lon="11.399937209876954"><ele>174.33333333333334</ele><time>2026-04-12T16:44:24Z</time></trkpt><trkpt lat="42.502991253558505" lon="11.399862663995973"><ele>173.66666666666669</ele><time>2026-04-12T16:44:25Z</time></trkpt><trkpt lat="42.503034858460396" lon="11.399797191206828"><ele>173.0</ele><time>2026-04-12T16:44:26Z</time></trkpt><trkpt lat="42.50308510112031" lon="11.39973006843992"><ele>172.33333333333334</ele><time>2026-04-12T16:44:27Z</time></trkpt><trkpt lat="42.50316155580413" lon="11.399610322067984"><ele>171.66666666666666</ele><time>2026-04-12T16:44:29Z</time></trkpt><trkpt lat="42.50324870403369" lon="11.399497889219155"><ele>171.0</ele><time>2026-04-12T16:44:31Z</time></trkpt><trkpt lat="42.5032976197273" lon="11.399425717129148"><ele>172.8</ele><time>2026-04-12T16:44:32Z</time></trkpt><trkpt lat="42.503355729111476" lon="11.399359414223843"><ele>174.60000000000002</ele><time>2026-04-12T16:44:33Z</time></trkpt><trkpt lat="42.50344101997193" lon="11.399278033389958"><ele>176.4</ele><time>2026-04-12T16:44:34.999Z</time></trkpt><trkpt lat="42.503515079720586" lon="11.39921382947357"><ele>178.2</ele><time>2026-04-12T16:44:36.999Z</time></trkpt><trkpt lat="42.503619818344475" lon="11.399152021390497"><ele>180.0</ele><time>2026-04-12T16:44:38.999Z</time></trkpt><trkpt lat="42.5037321021912" lon="11.399045962867087"><ele>179.33333333333334</ele><time>2026-04-12T16:44:40.999Z</time></trkpt><trkpt lat="42.503791742994146" lon="11.398984171421366"><ele>178.66666666666666</ele><time>2026-04-12T16:44:41.999Z</time></trkpt><trkpt lat="42.50384340342081" lon="11.398915760502447"><ele>178.0</ele><time>2026-04-12T16:44:42.999Z</time></trkpt><trkpt lat="42.503894539524666" lon="11.398863939656902"><ele>177.33333333333331</ele><time>2026-04-12T16:44:43.999Z</time></trkpt><trkpt lat="42.503965784985965" lon="11.398768696979678"><ele>176.66666666666666</ele><time>2026-04-12T16:44:45.999Z</time></trkpt><trkpt lat="42.50405030809059" lon="11.398663643118129"><ele>176.0</ele><time>2026-04-12T16:44:47.999Z</time></trkpt><trkpt lat="42.504134401427606" lon="11.398585134153786"><ele>176.0</ele><time>2026-04-12T16:44:49.999Z</time></trkpt><trkpt lat="42.50418476331265" lon="11.39853369531376"><ele>176.0</ele><time>2026-04-12T16:44:50.999Z</time></trkpt><trkpt lat="42.5042444573772" lon="11.398475720988863"><ele>176.0</ele><time>2026-04-12T16:44:51.999Z</time></trkpt><trkpt lat="42.50429977540639" lon="11.398425794016877"><ele>176.0</ele><time>2026-04-12T16:44:52.999Z</time></trkpt><trkpt lat="42.50434924160202" lon="11.398363535342636"><ele>176.0</ele><time>2026-04-12T16:44:53.999Z</time></trkpt><trkpt lat="42.50443033303352" lon="11.398241480292349"><ele>176.0</ele><time>2026-04-12T16:44:55.999Z</time></trkpt><trkpt lat="42.50449623918368" lon="11.398139610886346"><ele>176.0</ele><time>2026-04-12T16:44:57.999Z</time></trkpt><trkpt lat="42.5045499707823" lon="11.398081956876867"><ele>176.0</ele><time>2026-04-12T16:44:58.999Z</time></trkpt><trkpt lat="42.50461511596578" lon="11.398030582600803"><ele>176.0</ele><time>2026-04-12T16:44:59.999Z</time></trkpt><trkpt lat="42.50468748407176" lon="11.398012216331756"><ele>176.0</ele><time>2026-04-12T16:45:00.999Z</time></trkpt><trkpt lat="42.50475918118787" lon="11.397992664524086"><ele>176.0</ele><time>2026-04-12T16:45:01.999Z</time></trkpt><trkpt lat="42.504856037671956" lon="11.397928937615799"><ele>176.0</ele><time>2026-04-12T16:45:03.999Z</time></trkpt><trkpt lat="42.50493637778026" lon="11.397864808440179"><ele>174.60000000000002</ele><time>2026-04-12T16:45:04.999Z</time></trkpt><trkpt lat="42.505027437565296" lon="11.397798453132859"><ele>173.2</ele><time>2026-04-12T16:45:05.999Z</time></trkpt><trkpt lat="42.505099777636445" lon="11.39775297193689"><ele>171.8</ele><time>2026-04-12T16:45:06.999Z</time></trkpt><trkpt lat="42.50522258467029" lon="11.397701904125046"><ele>170.39999999999998</ele><time>2026-04-12T16:45:08.999Z</time></trkpt><trkpt lat="42.505287349906716" lon="11.397641303216364"><ele>169.0</ele><time>2026-04-12T16:45:09.999Z</time></trkpt><trkpt lat="42.505352405500524" lon="11.397577914750384"><ele>168.83333333333334</ele><time>2026-04-12T16:45:10.999Z</time></trkpt><trkpt lat="42.50541393651492" lon="11.397503208087217"><ele>168.66666666666669</ele><time>2026-04-12T16:45:11.999Z</time></trkpt><trkpt lat="42.50546269240509" lon="11.397407289213003"><ele>168.5</ele><time>2026-04-12T16:45:12.999Z</time></trkpt><trkpt lat="42.50550827984852" lon="11.397319031621718"><ele>168.33333333333334</ele><time>2026-04-12T16:45:13.999Z</time></trkpt><trkpt lat="42.505551384509694" lon="11.397232370580658"><ele>168.16666666666666</ele><time>2026-04-12T16:45:14.999Z</time></trkpt><trkpt lat="42.505606248303174" lon="11.397145393921424"><ele>168.0</ele><time>2026-04-12T16:45:15.999Z</time></trkpt><trkpt lat="42.505652393338785" lon="11.397085588677065"><ele>167.16666666666666</ele><time>2026-04-12T16:45:16.999Z</time></trkpt><trkpt lat="42.50573619716444" lon="11.39696945411066"><ele>166.33333333333334</ele><time>2026-04-12T16:45:18.999Z</time></trkpt><trkpt lat="42.50579293422094" lon="11.396902100703091"><ele>165.5</ele><time>2026-04-12T16:45:19.999Z</time></trkpt><trkpt lat="42.50585270755015" lon="11.396839201943015"><ele>164.66666666666669</ele><time>2026-04-12T16:45:20.999Z</time></trkpt><trkpt lat="42.50590905440569" lon="11.396769808813355"><ele>163.83333333333334</ele><time>2026-04-12T16:45:21.999Z</time></trkpt><trkpt lat="42.505953444099056" lon="11.396659874787701"><ele>163.0</ele><time>2026-04-12T16:45:22.999Z</time></trkpt><trkpt lat="42.505973716682114" lon="11.39656017418595"><ele>163.0</ele><time>2026-04-12T16:45:23.999Z</time></trkpt><trkpt lat="42.50597526382755" lon="11.396467460635316"><ele>163.0</ele><time>2026-04-12T16:45:24.999Z</time></trkpt><trkpt lat="42.50600360784237" lon="11.396376105584944"><ele>163.0</ele><time>2026-04-12T16:45:25.999Z</time></trkpt><trkpt lat="42.5060361230419" lon="11.396287488387927"><ele>163.0</ele><time>2026-04-12T16:45:26.999Z</time></trkpt><trkpt lat="42.506108557919795" lon="11.396151815772265"><ele>163.0</ele><time>2026-04-12T16:45:28.999Z</time></trkpt><trkpt lat="42.506163198666876" lon="11.396054062842476"><ele>163.0</ele><time>2026-04-12T16:45:29.999Z</time></trkpt><trkpt lat="42.50622423079541" lon="11.395951239017966"><ele>162.16666666666669</ele><time>2026-04-12T16:45:30.999Z</time></trkpt><trkpt lat="42.50627877937857" lon="11.395849674327643"><ele>161.33333333333334</ele><time>2026-04-12T16:45:31.999Z</time></trkpt><trkpt lat="42.506344621890754" lon="11.395721348074174"><ele>160.5</ele><time>2026-04-12T16:45:33.999Z</time></trkpt><trkpt lat="42.50639777162739" lon="11.395651794825005"><ele>159.66666666666666</ele><time>2026-04-12T16:45:34.999Z</time></trkpt><trkpt lat="42.50645799365385" lon="11.395584614079663"><ele>158.83333333333331</ele><time>2026-04-12T16:45:35.999Z</time></trkpt><trkpt lat="42.50651519176301" lon="11.395528863457269"><ele>158.0</ele><time>2026-04-12T16:45:36.999Z</time></trkpt><trkpt lat="42.50662148726408" lon="11.395448086509893"><ele>157.20000000000002</ele><time>2026-04-12T16:45:38.999Z</time></trkpt><trkpt lat="42.50675353811747" lon="11.395410634579623"><ele>156.4</ele><time>2026-04-12T16:45:40.999Z</time></trkpt><trkpt lat="42.506834089628285" lon="11.395394087955923"><ele>155.60000000000002</ele><time>2026-04-12T16:45:41.999Z</time></trkpt><trkpt lat="42.506921871126714" lon="11.39537431286111"><ele>154.8</ele><time>2026-04-12T16:45:42.999Z</time></trkpt><trkpt lat="42.507007665082" lon="11.395351389236234"><ele>154.0</ele><time>2026-04-12T16:45:43.999Z</time></trkpt><trkpt lat="42.507084185338336" lon="11.395319020338334"><ele>154.0</ele><time>2026-04-12T16:45:44.999Z</time></trkpt><trkpt lat="42.50716353878742" lon="11.395269830239613"><ele>154.0</ele><time>2026-04-12T16:45:45.999Z</time></trkpt><trkpt lat="42.50724281796148" lon="11.395205764467873"><ele>154.0</ele><time>2026-04-12T16:45:46.999Z</time></trkpt><trkpt lat="42.50731648768611" lon="11.395132066761265"><ele>154.0</ele><time>2026-04-12T16:45:47.999Z</time></trkpt><trkpt lat="42.50740324516952" lon="11.395045733745501"><ele>154.0</ele><time>2026-04-12T16:45:48.999Z</time></trkpt><trkpt lat="42.50747482780699" lon="11.394972613410928"><ele>154.0</ele><time>2026-04-12T16:45:49.998Z</time></trkpt><trkpt lat="42.50754256876605" lon="11.394894319913382"><ele>154.0</ele><time>2026-04-12T16:45:50.998Z</time></trkpt><trkpt lat="42.507613175794724" lon="11.39480358909865"><ele>154.0</ele><time>2026-04-12T16:45:51.998Z</time></trkpt><trkpt lat="42.507675762880645" lon="11.394725867459703"><ele>154.0</ele><time>2026-04-12T16:45:52.998Z</time></trkpt><trkpt lat="42.50773809196263" lon="11.394651091314122"><ele>154.0</ele><time>2026-04-12T16:45:53.998Z</time></trkpt><trkpt lat="42.50779833143183" lon="11.394574281056633"><ele>154.0</ele><time>2026-04-12T16:45:54.998Z</time></trkpt><trkpt lat="42.5078477040742" lon="11.39447746978012"><ele>154.0</ele><time>2026-04-12T16:45:55.998Z</time></trkpt><trkpt lat="42.507902266561466" lon="11.394375535915529"><ele>154.0</ele><time>2026-04-12T16:45:56.998Z</time></trkpt><trkpt lat="42.507959069653154" lon="11.394278675207454"><ele>154.0</ele><time>2026-04-12T16:45:57.998Z</time></trkpt><trkpt lat="42.50800955849483" lon="11.394175340840969"><ele>154.0</ele><time>2026-04-12T16:45:58.998Z</time></trkpt><trkpt lat="42.50804901853739" lon="11.394067462528987"><ele>154.0</ele><time>2026-04-12T16:45:59.998Z</time></trkpt><trkpt lat="42.508078551007614" lon="11.393973843638829"><ele>154.0</ele><time>2026-04-12T16:46:00.998Z</time></trkpt><trkpt lat="42.50810368859867" lon="11.393872067535874"><ele>154.8</ele><time>2026-04-12T16:46:01.998Z</time></trkpt><trkpt lat="42.50812459759458" lon="11.393753816883919"><ele>155.60000000000002</ele><time>2026-04-12T16:46:02.998Z</time></trkpt><trkpt lat="42.50814080839763" lon="11.393625892092079"><ele>156.4</ele><time>2026-04-12T16:46:03.998Z</time></trkpt><trkpt lat="42.50816069536611" lon="11.393503052747345"><ele>157.20000000000002</ele><time>2026-04-12T16:46:04.998Z</time></trkpt><trkpt lat="42.50816936660629" lon="11.393371935415233"><ele>158.0</ele><time>2026-04-12T16:46:05.998Z</time></trkpt><trkpt lat="42.508167070517764" lon="11.393245508842675"><ele>158.0</ele><time>2026-04-12T16:46:06.998Z</time></trkpt><trkpt lat="42.50815055135976" lon="11.393135289338824"><ele>158.0</ele><time>2026-04-12T16:46:07.998Z</time></trkpt><trkpt lat="42.50814331973944" lon="11.393036036238177"><ele>158.0</ele><time>2026-04-12T16:46:08.998Z</time></trkpt><trkpt lat="42.5081360994809" lon="11.392918623520961"><ele>158.0</ele><time>2026-04-12T16:46:09.998Z</time></trkpt><trkpt lat="42.50812406468983" lon="11.392809869077867"><ele>158.0</ele><time>2026-04-12T16:46:10.998Z</time></trkpt><trkpt lat="42.508118736480085" lon="11.392704181541493"><ele>158.0</ele><time>2026-04-12T16:46:11.998Z</time></trkpt><trkpt lat="42.50812389799135" lon="11.392605493935692"><ele>158.16666666666666</ele><time>2026-04-12T16:46:12.998Z</time></trkpt><trkpt lat="42.50814550075695" lon="11.392500324993673"><ele>158.33333333333331</ele><time>2026-04-12T16:46:13.998Z</time></trkpt><trkpt lat="42.50816939370441" lon="11.39239224215166"><ele>158.5</ele><time>2026-04-12T16:46:14.998Z</time></trkpt><trkpt lat="42.508196296050436" lon="11.392275948963396"><ele>158.66666666666666</ele><time>2026-04-12T16:46:15.998Z</time></trkpt><trkpt lat="42.50821869638772" lon="11.392173303310795"><ele>158.83333333333334</ele><time>2026-04-12T16:46:16.998Z</time></trkpt><trkpt lat="42.50823795065669" lon="11.39207365696018"><ele>159.0</ele><time>2026-04-12T16:46:17.998Z</time></trkpt><trkpt lat="42.508245452639386" lon="11.391987073340085"><ele>160.8</ele><time>2026-04-12T16:46:18.998Z</time></trkpt><trkpt lat="42.508206641700895" lon="11.39184493387997"><ele>162.60000000000002</ele><time>2026-04-12T16:46:21Z</time></trkpt><trkpt lat="42.50810022912608" lon="11.391731352939871"><ele>164.4</ele><time>2026-04-12T16:46:23Z</time></trkpt><trkpt lat="42.508043804161474" lon="11.391640531722055"><ele>166.20000000000002</ele><time>2026-04-12T16:46:24Z</time></trkpt><trkpt lat="42.50799977838485" lon="11.391555254314984"><ele>168.0</ele><time>2026-04-12T16:46:25Z</time></trkpt><trkpt lat="42.507922579968934" lon="11.391477220612527"><ele>168.8</ele><time>2026-04-12T16:46:26Z</time></trkpt><trkpt lat="42.50783220999557" lon="11.391402565056568"><ele>169.60000000000002</ele><time>2026-04-12T16:46:27Z</time></trkpt><trkpt lat="42.50774338177217" lon="11.391325788574886"><ele>170.39999999999998</ele><time>2026-04-12T16:46:28Z</time></trkpt><trkpt lat="42.50765162976362" lon="11.39124098350261"><ele>171.2</ele><time>2026-04-12T16:46:29Z</time></trkpt><trkpt lat="42.50756617540685" lon="11.391159906799599"><ele>172.0</ele><time>2026-04-12T16:46:30Z</time></trkpt><trkpt lat="42.507485812105635" lon="11.391083454686203"><ele>172.0</ele><time>2026-04-12T16:46:31Z</time></trkpt><trkpt lat="42.507403073584214" lon="11.391013676200064"><ele>172.0</ele><time>2026-04-12T16:46:32Z</time></trkpt><trkpt lat="42.507320668201515" lon="11.390963072019945"><ele>172.0</ele><time>2026-04-12T16:46:33Z</time></trkpt><trkpt lat="42.50724379842472" lon="11.390917600901009"><ele>172.0</ele><time>2026-04-12T16:46:34Z</time></trkpt><trkpt lat="42.50716705818919" lon="11.390862453593094"><ele>172.0</ele><time>2026-04-12T16:46:35Z</time></trkpt><trkpt lat="42.50709077315834" lon="11.390790444037709"><ele>170.39999999999998</ele><time>2026-04-12T16:46:36Z</time></trkpt><trkpt lat="42.50702010880453" lon="11.39071030282999"><ele>168.79999999999998</ele><time>2026-04-12T16:46:37Z</time></trkpt><trkpt lat="42.50695344103992" lon="11.390633625708999"><ele>167.2</ele><time>2026-04-12T16:46:38Z</time></trkpt><trkpt lat="42.506897846936305" lon="11.390556515898504"><ele>165.6</ele><time>2026-04-12T16:46:39Z</time></trkpt><trkpt lat="42.506802854413905" lon="11.390434105155377"><ele>164.0</ele><time>2026-04-12T16:46:40.999Z</time></trkpt><trkpt lat="42.50675652945556" lon="11.390371667572596"><ele>164.0</ele><time>2026-04-12T16:46:41.999Z</time></trkpt><trkpt lat="42.50664329308521" lon="11.390259039759652"><ele>164.0</ele><time>2026-04-12T16:46:43.999Z</time></trkpt><trkpt lat="42.50657318720604" lon="11.390225807023576"><ele>164.0</ele><time>2026-04-12T16:46:44.999Z</time></trkpt><trkpt lat="42.50649834412781" lon="11.390173414434383"><ele>164.0</ele><time>2026-04-12T16:46:45.999Z</time></trkpt><trkpt lat="42.50641968079883" lon="11.39010420855772"><ele>164.0</ele><time>2026-04-12T16:46:46.999Z</time></trkpt><trkpt lat="42.50635548480299" lon="11.390032338898695"><ele>164.0</ele><time>2026-04-12T16:46:47.999Z</time></trkpt><trkpt lat="42.50628829701701" lon="11.389980758794"><ele>164.0</ele><time>2026-04-12T16:46:48.999Z</time></trkpt><trkpt lat="42.506209709838636" lon="11.38991918541159"><ele>164.0</ele><time>2026-04-12T16:46:49.999Z</time></trkpt><trkpt lat="42.506123913290004" lon="11.389878849847696"><ele>164.0</ele><time>2026-04-12T16:46:50.999Z</time></trkpt><trkpt lat="42.50604011242008" lon="11.389824522927734"><ele>164.0</ele><time>2026-04-12T16:46:51.999Z</time></trkpt><trkpt lat="42.50598126781403" lon="11.389752402115503"><ele>164.0</ele><time>2026-04-12T16:46:52.999Z</time></trkpt><trkpt lat="42.505925476942814" lon="11.389681788563058"><ele>162.33333333333331</ele><time>2026-04-12T16:46:53.999Z</time></trkpt><trkpt lat="42.50587093211906" lon="11.389590883284281"><ele>160.66666666666666</ele><time>2026-04-12T16:46:54.999Z</time></trkpt><trkpt lat="42.505811642876864" lon="11.389494212499327"><ele>159.0</ele><time>2026-04-12T16:46:55.999Z</time></trkpt><trkpt lat="42.505749494172626" lon="11.389421173165863"><ele>157.33333333333334</ele><time>2026-04-12T16:46:56.999Z</time></trkpt><trkpt lat="42.50568915967319" lon="11.38935036133675"><ele>155.66666666666669</ele><time>2026-04-12T16:46:57.999Z</time></trkpt><trkpt lat="42.50563687343484" lon="11.389293967849687"><ele>154.0</ele><time>2026-04-12T16:46:58.999Z</time></trkpt><trkpt lat="42.505589967900974" lon="11.389223443727657"><ele>154.0</ele><time>2026-04-12T16:46:59.999Z</time></trkpt><trkpt lat="42.50554085423729" lon="11.389085351342274"><ele>154.0</ele><time>2026-04-12T16:47:01.999Z</time></trkpt><trkpt lat="42.505517116423775" lon="11.388930988340073"><ele>154.0</ele><time>2026-04-12T16:47:03.999Z</time></trkpt><trkpt lat="42.505520011583585" lon="11.388841074310637"><ele>154.0</ele><time>2026-04-12T16:47:04.999Z</time></trkpt><trkpt lat="42.505539025188135" lon="11.388720943363397"><ele>154.0</ele><time>2026-04-12T16:47:05.999Z</time></trkpt><trkpt lat="42.5055659940274" lon="11.388609837499981"><ele>153.16666666666669</ele><time>2026-04-12T16:47:06.999Z</time></trkpt><trkpt lat="42.505599538001476" lon="11.388500168872307"><ele>152.33333333333334</ele><time>2026-04-12T16:47:07.999Z</time></trkpt><trkpt lat="42.50564219547627" lon="11.388407398345702"><ele>151.5</ele><time>2026-04-12T16:47:08.999Z</time></trkpt><trkpt lat="42.505680795206686" lon="11.388334257435384"><ele>150.66666666666666</ele><time>2026-04-12T16:47:09.999Z</time></trkpt><trkpt lat="42.50576468209782" lon="11.388216020126524"><ele>149.83333333333331</ele><time>2026-04-12T16:47:11.999Z</time></trkpt><trkpt lat="42.50582964048255" lon="11.388163406327527"><ele>149.0</ele><time>2026-04-12T16:47:12.999Z</time></trkpt><trkpt lat="42.50589812100542" lon="11.388139282306781"><ele>149.0</ele><time>2026-04-12T16:47:13.999Z</time></trkpt><trkpt lat="42.50600983328302" lon="11.388053042586035"><ele>149.0</ele><time>2026-04-12T16:47:15.999Z</time></trkpt><trkpt lat="42.50606897945363" lon="11.387979344450425"><ele>149.0</ele><time>2026-04-12T16:47:16.999Z</time></trkpt><trkpt lat="42.50612287006428" lon="11.387903569183246"><ele>149.0</ele><time>2026-04-12T16:47:17.999Z</time></trkpt><trkpt lat="42.50615184862098" lon="11.387810506190661"><ele>149.0</ele><time>2026-04-12T16:47:18.999Z</time></trkpt><trkpt lat="42.506178504387115" lon="11.387706919822255"><ele>149.0</ele><time>2026-04-12T16:47:19.999Z</time></trkpt><trkpt lat="42.50618448884227" lon="11.387589674423923"><ele>147.2</ele><time>2026-04-12T16:47:20.999Z</time></trkpt><trkpt lat="42.50619281387284" lon="11.387451833553184"><ele>145.4</ele><time>2026-04-12T16:47:21.999Z</time></trkpt><trkpt lat="42.506197974971556" lon="11.387311515035831"><ele>143.6</ele><time>2026-04-12T16:47:22.999Z</time></trkpt><trkpt lat="42.50620346907761" lon="11.3872128639619"><ele>141.8</ele><time>2026-04-12T16:47:23.999Z</time></trkpt><trkpt lat="42.506211128154874" lon="11.387124220534417"><ele>140.0</ele><time>2026-04-12T16:47:24.999Z</time></trkpt><trkpt lat="42.50622200618269" lon="11.386978466651778"><ele>139.33333333333331</ele><time>2026-04-12T16:47:26.999Z</time></trkpt><trkpt lat="42.50621319608967" lon="11.386845254735778"><ele>138.66666666666666</ele><time>2026-04-12T16:47:28.999Z</time></trkpt><trkpt lat="42.50612974932456" lon="11.386754072789643"><ele>138.0</ele><time>2026-04-12T16:47:30.999Z</time></trkpt><trkpt lat="42.506075808322194" lon="11.386707447657113"><ele>137.33333333333334</ele><time>2026-04-12T16:47:31.999Z</time></trkpt><trkpt lat="42.50601699417521" lon="11.386672646300235"><ele>136.66666666666669</ele><time>2026-04-12T16:47:32.999Z</time></trkpt><trkpt lat="42.50594793585546" lon="11.386645265591904"><ele>136.0</ele><time>2026-04-12T16:47:33.999Z</time></trkpt><trkpt lat="42.505857207225574" lon="11.386522574169637"><ele>136.0</ele><time>2026-04-12T16:47:35.999Z</time></trkpt><trkpt lat="42.505814631494424" lon="11.386440550723275"><ele>136.0</ele><time>2026-04-12T16:47:36.999Z</time></trkpt><trkpt lat="42.50578242154741" lon="11.386356470323381"><ele>136.0</ele><time>2026-04-12T16:47:37.999Z</time></trkpt><trkpt lat="42.50576950669249" lon="11.386261744743178"><ele>136.0</ele><time>2026-04-12T16:47:38.999Z</time></trkpt><trkpt lat="42.505753222110606" lon="11.386089774520553"><ele>136.0</ele><time>2026-04-12T16:47:40.999Z</time></trkpt><trkpt lat="42.505750587464775" lon="11.385991527914337"><ele>136.0</ele><time>2026-04-12T16:47:41.999Z</time></trkpt><trkpt lat="42.50574151904854" lon="11.385859165162715"><ele>135.66666666666669</ele><time>2026-04-12T16:47:42.999Z</time></trkpt><trkpt lat="42.505730614533626" lon="11.385747682427708"><ele>135.33333333333334</ele><time>2026-04-12T16:47:43.999Z</time></trkpt><trkpt lat="42.50572831182913" lon="11.385625216204033"><ele>135.0</ele><time>2026-04-12T16:47:44.999Z</time></trkpt><trkpt lat="42.50572768233276" lon="11.385511914401974"><ele>134.66666666666666</ele><time>2026-04-12T16:47:45.999Z</time></trkpt><trkpt lat="42.50572842106695" lon="11.38539649921974"><ele>134.33333333333331</ele><time>2026-04-12T16:47:46.999Z</time></trkpt><trkpt lat="42.505723520835645" lon="11.385279245388736"><ele>134.0</ele><time>2026-04-12T16:47:47.999Z</time></trkpt><trkpt lat="42.50571945456826" lon="11.385170263145369"><ele>133.0</ele><time>2026-04-12T16:47:48.999Z</time></trkpt><trkpt lat="42.505719000751" lon="11.385059009884648"><ele>132.0</ele><time>2026-04-12T16:47:49.999Z</time></trkpt><trkpt lat="42.50572197688098" lon="11.38494710115327"><ele>131.0</ele><time>2026-04-12T16:47:50.999Z</time></trkpt><trkpt lat="42.50571948271845" lon="11.384831134932154"><ele>130.0</ele><time>2026-04-12T16:47:51.998Z</time></trkpt><trkpt lat="42.505713584557135" lon="11.384729921545926"><ele>129.0</ele><time>2026-04-12T16:47:52.998Z</time></trkpt><trkpt lat="42.50572060563954" lon="11.384641089643756"><ele>128.0</ele><time>2026-04-12T16:47:53.998Z</time></trkpt><trkpt lat="42.50571922505194" lon="11.384475024758514"><ele>127.33333333333333</ele><time>2026-04-12T16:47:55.998Z</time></trkpt><trkpt lat="42.505685528572535" lon="11.384384388313872"><ele>126.66666666666666</ele><time>2026-04-12T16:47:56.998Z</time></trkpt><trkpt lat="42.50564651223811" lon="11.384298938297736"><ele>126.0</ele><time>2026-04-12T16:47:57.998Z</time></trkpt><trkpt lat="42.505597121861896" lon="11.3841924779961"><ele>125.33333333333334</ele><time>2026-04-12T16:47:58.998Z</time></trkpt><trkpt lat="42.5055518532476" lon="11.384088202305607"><ele>124.66666666666667</ele><time>2026-04-12T16:47:59.998Z</time></trkpt><trkpt lat="42.50549468868182" lon="11.383980402259986"><ele>124.0</ele><time>2026-04-12T16:48:00.998Z</time></trkpt><trkpt lat="42.50543910104492" lon="11.383876265169123"><ele>122.83333333333334</ele><time>2026-04-12T16:48:01.998Z</time></trkpt><trkpt lat="42.505384653766555" lon="11.383795210110144"><ele>121.66666666666667</ele><time>2026-04-12T16:48:02.998Z</time></trkpt><trkpt lat="42.505339329848155" lon="11.383707785209952"><ele>120.5</ele><time>2026-04-12T16:48:03.998Z</time></trkpt><trkpt lat="42.505292329552454" lon="11.383623134495"><ele>119.33333333333334</ele><time>2026-04-12T16:48:04.998Z</time></trkpt><trkpt lat="42.50524486605917" lon="11.383541310323514"><ele>118.16666666666667</ele><time>2026-04-12T16:48:05.998Z</time></trkpt><trkpt lat="42.505180634268534" lon="11.383404102983313"><ele>117.0</ele><time>2026-04-12T16:48:07.998Z</time></trkpt><trkpt lat="42.505144569694856" lon="11.383319577903222"><ele>117.0</ele><time>2026-04-12T16:48:08.998Z</time></trkpt><trkpt lat="42.50508282510582" lon="11.383199411583007"><ele>117.0</ele><time>2026-04-12T16:48:10.998Z</time></trkpt><trkpt lat="42.50503667612734" lon="11.383137090654188"><ele>117.0</ele><time>2026-04-12T16:48:11.998Z</time></trkpt><trkpt lat="42.504990171216186" lon="11.383066932430587"><ele>117.0</ele><time>2026-04-12T16:48:12.998Z</time></trkpt><trkpt lat="42.50493328337431" lon="11.383014617982228"><ele>117.0</ele><time>2026-04-12T16:48:13.998Z</time></trkpt><trkpt lat="42.504867471180056" lon="11.382970440207604"><ele>117.0</ele><time>2026-04-12T16:48:14.998Z</time></trkpt><trkpt lat="42.50479318835174" lon="11.382932519691611"><ele>115.33333333333333</ele><time>2026-04-12T16:48:15.998Z</time></trkpt><trkpt lat="42.504706171571314" lon="11.382891504370727"><ele>113.66666666666666</ele><time>2026-04-12T16:48:16.998Z</time></trkpt><trkpt lat="42.50461973269723" lon="11.382857326886068"><ele>112.0</ele><time>2026-04-12T16:48:17.998Z</time></trkpt><trkpt lat="42.50453513031576" lon="11.382811207937342"><ele>110.33333333333333</ele><time>2026-04-12T16:48:18.998Z</time></trkpt><trkpt lat="42.50445452147479" lon="11.382770923320416"><ele>108.66666666666666</ele><time>2026-04-12T16:48:19.998Z</time></trkpt><trkpt lat="42.50437918583075" lon="11.382729653721722"><ele>107.0</ele><time>2026-04-12T16:48:20.998Z</time></trkpt><trkpt lat="42.504316081787294" lon="11.382670542588967"><ele>106.33333333333333</ele><time>2026-04-12T16:48:21.998Z</time></trkpt><trkpt lat="42.50422598172004" lon="11.382645715976558"><ele>105.66666666666666</ele><time>2026-04-12T16:48:22.998Z</time></trkpt><trkpt lat="42.50415005042036" lon="11.382603523186662"><ele>105.0</ele><time>2026-04-12T16:48:23.998Z</time></trkpt><trkpt lat="42.50407788758931" lon="11.38256136104606"><ele>104.33333333333334</ele><time>2026-04-12T16:48:24.998Z</time></trkpt><trkpt lat="42.50400163327299" lon="11.382521168177789"><ele>103.66666666666667</ele><time>2026-04-12T16:48:26Z</time></trkpt><trkpt lat="42.503927699760304" lon="11.382472595892812"><ele>103.0</ele><time>2026-04-12T16:48:27Z</time></trkpt><trkpt lat="42.50386885541779" lon="11.38242390919094"><ele>102.99999999999999</ele><time>2026-04-12T16:48:28Z</time></trkpt><trkpt lat="42.50380863588822" lon="11.38239545642872"><ele>103.0</ele><time>2026-04-12T16:48:29Z</time></trkpt><trkpt lat="42.50374782146726" lon="11.382351201530668"><ele>103.0</ele><time>2026-04-12T16:48:30Z</time></trkpt><trkpt lat="42.503681209858435" lon="11.382311028000434"><ele>103.0</ele><time>2026-04-12T16:48:31Z</time></trkpt><trkpt lat="42.50361532362082" lon="11.382263931777722"><ele>103.0</ele><time>2026-04-12T16:48:32Z</time></trkpt><trkpt lat="42.503545388359484" lon="11.382213845792085"><ele>102.99999999999999</ele><time>2026-04-12T16:48:33Z</time></trkpt><trkpt lat="42.50347865968752" lon="11.382157623299879"><ele>103.0</ele><time>2026-04-12T16:48:34Z</time></trkpt><trkpt lat="42.50342580780659" lon="11.382106778544205"><ele>101.33333333333334</ele><time>2026-04-12T16:48:35Z</time></trkpt><trkpt lat="42.5033723252837" lon="11.382042110990774"><ele>99.66666666666667</ele><time>2026-04-12T16:48:36Z</time></trkpt><trkpt lat="42.50331662912346" lon="11.382002083744016"><ele>98.0</ele><time>2026-04-12T16:48:37Z</time></trkpt><trkpt lat="42.503257387044336" lon="11.381956885687515"><ele>96.33333333333334</ele><time>2026-04-12T16:48:38Z</time></trkpt><trkpt lat="42.50316554703741" lon="11.381889516023032"><ele>94.66666666666667</ele><time>2026-04-12T16:48:40Z</time></trkpt><trkpt lat="42.50306151115958" lon="11.381851908485574"><ele>93.0</ele><time>2026-04-12T16:48:42Z</time></trkpt><trkpt lat="42.502978394486156" lon="11.381830061500217"><ele>92.33333333333333</ele><time>2026-04-12T16:48:44Z</time></trkpt><trkpt lat="42.50290848225894" lon="11.381839462488514"><ele>91.66666666666667</ele><time>2026-04-12T16:48:46Z</time></trkpt><trkpt lat="42.50280892548626" lon="11.381853876825877"><ele>91.0</ele><time>2026-04-12T16:48:48.999Z</time></trkpt><trkpt lat="42.50274118019585" lon="11.381864477297805"><ele>90.33333333333334</ele><time>2026-04-12T16:48:50.999Z</time></trkpt><trkpt lat="42.502627368088916" lon="11.381871667532572"><ele>89.66666666666667</ele><time>2026-04-12T16:49:10.999Z</time></trkpt><trkpt lat="42.50255779893431" lon="11.381897702114028"><ele>89.0</ele><time>2026-04-12T16:49:11.999Z</time></trkpt><trkpt lat="42.50248296233369" lon="11.381910159206258"><ele>89.0</ele><time>2026-04-12T16:49:12.999Z</time></trkpt><trkpt lat="42.5024001181843" lon="11.381908170565957"><ele>89.0</ele><time>2026-04-12T16:49:13.999Z</time></trkpt><trkpt lat="42.5023052147191" lon="11.381892843384577"><ele>89.0</ele><time>2026-04-12T16:49:14.999Z</time></trkpt><trkpt lat="42.50220919513383" lon="11.381879676204344"><ele>89.0</ele><time>2026-04-12T16:49:15.999Z</time></trkpt><trkpt lat="42.50211281155452" lon="11.381868443230884"><ele>89.0</ele><time>2026-04-12T16:49:16.999Z</time></trkpt><trkpt lat="42.50202351587363" lon="11.381853185960484"><ele>89.0</ele><time>2026-04-12T16:49:17.999Z</time></trkpt><trkpt lat="42.5019315663817" lon="11.381833032108245"><ele>89.0</ele><time>2026-04-12T16:49:18.999Z</time></trkpt><trkpt lat="42.50184820950833" lon="11.381795405573936"><ele>89.0</ele><time>2026-04-12T16:49:19.999Z</time></trkpt><trkpt lat="42.501763295869466" lon="11.381767438763656"><ele>89.0</ele><time>2026-04-12T16:49:20.999Z</time></trkpt><trkpt lat="42.50167256213112" lon="11.38176371377422"><ele>89.0</ele><time>2026-04-12T16:49:21.999Z</time></trkpt><trkpt lat="42.501585548794786" lon="11.381777736367637"><ele>89.0</ele><time>2026-04-12T16:49:22.999Z</time></trkpt><trkpt lat="42.50150119926652" lon="11.381792604480168"><ele>89.0</ele><time>2026-04-12T16:49:23.999Z</time></trkpt><trkpt lat="42.50141752843859" lon="11.381798906949173"><ele>89.0</ele><time>2026-04-12T16:49:24.999Z</time></trkpt><trkpt lat="42.501335776154804" lon="11.381789723993093"><ele>89.0</ele><time>2026-04-12T16:49:25.999Z</time></trkpt><trkpt lat="42.50124830462613" lon="11.381753783649907"><ele>89.0</ele><time>2026-04-12T16:49:26.999Z</time></trkpt><trkpt lat="42.50115738866316" lon="11.381722425483378"><ele>89.0</ele><time>2026-04-12T16:49:27.999Z</time></trkpt><trkpt lat="42.5010577056167" lon="11.381706574025179"><ele>88.0</ele><time>2026-04-12T16:49:28.999Z</time></trkpt><trkpt lat="42.500952901971594" lon="11.381689408202899"><ele>87.0</ele><time>2026-04-12T16:49:29.999Z</time></trkpt><trkpt lat="42.500845642217506" lon="11.381651863061993"><ele>86.0</ele><time>2026-04-12T16:49:30.999Z</time></trkpt><trkpt lat="42.50073991785617" lon="11.381619378144602"><ele>85.0</ele><time>2026-04-12T16:49:31.999Z</time></trkpt><trkpt lat="42.50062740316996" lon="11.381598426671552"><ele>84.0</ele><time>2026-04-12T16:49:32.999Z</time></trkpt><trkpt lat="42.50052529880633" lon="11.381576158605542"><ele>84.0</ele><time>2026-04-12T16:49:33.999Z</time></trkpt><trkpt lat="42.50043540816928" lon="11.381551504564937"><ele>84.0</ele><time>2026-04-12T16:49:34.999Z</time></trkpt><trkpt lat="42.5003544977529" lon="11.381505536579514"><ele>84.0</ele><time>2026-04-12T16:49:35.999Z</time></trkpt><trkpt lat="42.50027820044411" lon="11.381457598512041"><ele>84.0</ele><time>2026-04-12T16:49:36.999Z</time></trkpt><trkpt lat="42.50019429701671" lon="11.381428089798524"><ele>84.0</ele><time>2026-04-12T16:49:37.999Z</time></trkpt><trkpt lat="42.50010981252939" lon="11.381408964358908"><ele>84.0</ele><time>2026-04-12T16:49:38.999Z</time></trkpt><trkpt lat="42.50000485971324" lon="11.381390214673178"><ele>83.33333333333333</ele><time>2026-04-12T16:49:39.999Z</time></trkpt><trkpt lat="42.499909880489426" lon="11.381358008928407"><ele>82.66666666666667</ele><time>2026-04-12T16:49:40.999Z</time></trkpt><trkpt lat="42.499820253128256" lon="11.381318782593349"><ele>82.0</ele><time>2026-04-12T16:49:41.999Z</time></trkpt><trkpt lat="42.4997427426366" lon="11.38126133079117"><ele>81.33333333333334</ele><time>2026-04-12T16:49:42.999Z</time></trkpt><trkpt lat="42.49967146740286" lon="11.38119474550396"><ele>80.66666666666667</ele><time>2026-04-12T16:49:43.999Z</time></trkpt><trkpt lat="42.49962241658892" lon="11.381133533670143"><ele>80.0</ele><time>2026-04-12T16:49:44.999Z</time></trkpt><trkpt lat="42.49955985903184" lon="11.381076724151821"><ele>79.14285714285714</ele><time>2026-04-12T16:49:45.999Z</time></trkpt><trkpt lat="42.49949883403344" lon="11.38105484578872"><ele>78.28571428571429</ele><time>2026-04-12T16:49:46.999Z</time></trkpt><trkpt lat="42.49943057392949" lon="11.381024096036334"><ele>77.42857142857143</ele><time>2026-04-12T16:49:47.999Z</time></trkpt><trkpt lat="42.49936708699466" lon="11.380989327812987"><ele>76.57142857142857</ele><time>2026-04-12T16:49:48.999Z</time></trkpt><trkpt lat="42.499272155623494" lon="11.38093198494264"><ele>75.71428571428571</ele><time>2026-04-12T16:49:50.999Z</time></trkpt><trkpt lat="42.49920788518309" lon="11.380905126431943"><ele>74.85714285714286</ele><time>2026-04-12T16:49:53.999Z</time></trkpt><trkpt lat="42.49915227670291" lon="11.38083866608578"><ele>74.0</ele><time>2026-04-12T16:49:56.999Z</time></trkpt><trkpt lat="42.49911064973011" lon="11.380724989833292"><ele>74.0</ele><time>2026-04-12T16:49:58.998Z</time></trkpt><trkpt lat="42.499109668197825" lon="11.380618143524844"><ele>74.0</ele><time>2026-04-12T16:49:59.998Z</time></trkpt><trkpt lat="42.49908117101861" lon="11.38051898567492"><ele>74.0</ele><time>2026-04-12T16:50:00.998Z</time></trkpt><trkpt lat="42.49907311480901" lon="11.380419820129637"><ele>74.0</ele><time>2026-04-12T16:50:01.998Z</time></trkpt><trkpt lat="42.499076451935274" lon="11.380316735396985"><ele>74.0</ele><time>2026-04-12T16:50:02.998Z</time></trkpt><trkpt lat="42.49906328790046" lon="11.380206989502563"><ele>74.0</ele><time>2026-04-12T16:50:03.998Z</time></trkpt><trkpt lat="42.49905374983986" lon="11.380092269742935"><ele>73.60000000000001</ele><time>2026-04-12T16:50:04.998Z</time></trkpt><trkpt lat="42.49903063328776" lon="11.37996791822838"><ele>73.2</ele><time>2026-04-12T16:50:05.998Z</time></trkpt><trkpt lat="42.49898907302703" lon="11.379830714334958"><ele>72.80000000000001</ele><time>2026-04-12T16:50:06.998Z</time></trkpt><trkpt lat="42.49894888564712" lon="11.37970060355316"><ele>72.4</ele><time>2026-04-12T16:50:07.998Z</time></trkpt><trkpt lat="42.49891926138163" lon="11.379546895523738"><ele>72.0</ele><time>2026-04-12T16:50:08.998Z</time></trkpt><trkpt lat="42.49886200860388" lon="11.379412185689329"><ele>70.4</ele><time>2026-04-12T16:50:09.998Z</time></trkpt><trkpt lat="42.49882150075541" lon="11.379268940467199"><ele>68.80000000000001</ele><time>2026-04-12T16:50:10.998Z</time></trkpt><trkpt lat="42.49877890189136" lon="11.37913450426841"><ele>67.2</ele><time>2026-04-12T16:50:11.998Z</time></trkpt><trkpt lat="42.498741869469235" lon="11.37901418647921"><ele>65.60000000000001</ele><time>2026-04-12T16:50:12.998Z</time></trkpt><trkpt lat="42.4986925940339" lon="11.378895763295542"><ele>64.0</ele><time>2026-04-12T16:50:13.998Z</time></trkpt><trkpt lat="42.49862967386558" lon="11.378783028220427"><ele>63.25</ele><time>2026-04-12T16:50:14.998Z</time></trkpt><trkpt lat="42.49856005018567" lon="11.378668025640524"><ele>62.5</ele><time>2026-04-12T16:50:15.998Z</time></trkpt><trkpt lat="42.498480521168354" lon="11.37855385103373"><ele>61.75</ele><time>2026-04-12T16:50:16.998Z</time></trkpt><trkpt lat="42.498394164545466" lon="11.378441743741735"><ele>61.0</ele><time>2026-04-12T16:50:17.998Z</time></trkpt><trkpt lat="42.49831112781595" lon="11.378334004895063"><ele>61.0</ele><time>2026-04-12T16:50:18.998Z</time></trkpt><trkpt lat="42.498220380212715" lon="11.378211460376678"><ele>61.0</ele><time>2026-04-12T16:50:19.998Z</time></trkpt><trkpt lat="42.49813921064954" lon="11.378102053180852"><ele>61.0</ele><time>2026-04-12T16:50:20.998Z</time></trkpt><trkpt lat="42.498060260890355" lon="11.378002732621905"><ele>61.0</ele><time>2026-04-12T16:50:21.998Z</time></trkpt><trkpt lat="42.49798947619326" lon="11.377888138939262"><ele>60.0</ele><time>2026-04-12T16:50:22.998Z</time></trkpt><trkpt lat="42.49790171796323" lon="11.377801505881223"><ele>58.99999999999999</ele><time>2026-04-12T16:50:23.998Z</time></trkpt><trkpt lat="42.497816523964715" lon="11.377692331557874"><ele>57.99999999999999</ele><time>2026-04-12T16:50:24.998Z</time></trkpt><trkpt lat="42.49773406788489" lon="11.377589277281498"><ele>57.0</ele><time>2026-04-12T16:50:25.998Z</time></trkpt><trkpt lat="42.497648055862086" lon="11.377499414158663"><ele>56.0</ele><time>2026-04-12T16:50:26.998Z</time></trkpt><trkpt lat="42.497569640882546" lon="11.377390712079206"><ele>56.0</ele><time>2026-04-12T16:50:27.998Z</time></trkpt><trkpt lat="42.49748414152894" lon="11.377299108663866"><ele>55.99999999999999</ele><time>2026-04-12T16:50:28.998Z</time></trkpt><trkpt lat="42.49739811348837" lon="11.377206788353396"><ele>55.99999999999999</ele><time>2026-04-12T16:50:29.998Z</time></trkpt><trkpt lat="42.497314548892355" lon="11.377115248227575"><ele>56.0</ele><time>2026-04-12T16:50:31Z</time></trkpt><trkpt lat="42.49722406223648" lon="11.377013517899707"><ele>56.0</ele><time>2026-04-12T16:50:32Z</time></trkpt><trkpt lat="42.497131314880015" lon="11.376906251134471"><ele>54.599999999999994</ele><time>2026-04-12T16:50:33Z</time></trkpt><trkpt lat="42.497041212496434" lon="11.37681615335053"><ele>53.199999999999996</ele><time>2026-04-12T16:50:34Z</time></trkpt><trkpt lat="42.496972239302295" lon="11.376710908816783"><ele>51.8</ele><time>2026-04-12T16:50:34.999Z</time></trkpt><trkpt lat="42.49689872129483" lon="11.376617024594797"><ele>50.400000000000006</ele><time>2026-04-12T16:50:35.999Z</time></trkpt><trkpt lat="42.49682071177628" lon="11.376516668831481"><ele>49.0</ele><time>2026-04-12T16:50:36.999Z</time></trkpt><trkpt lat="42.496739653253044" lon="11.376432246640189"><ele>48.25</ele><time>2026-04-12T16:50:37.999Z</time></trkpt><trkpt lat="42.496653764353105" lon="11.376334145353079"><ele>47.5</ele><time>2026-04-12T16:50:38.999Z</time></trkpt><trkpt lat="42.496563837662094" lon="11.37623370462881"><ele>46.75</ele><time>2026-04-12T16:50:39.999Z</time></trkpt><trkpt lat="42.496465852352685" lon="11.376136984026935"><ele>46.0</ele><time>2026-04-12T16:50:40.999Z</time></trkpt><trkpt lat="42.496383266805616" lon="11.376048819949737"><ele>46.0</ele><time>2026-04-12T16:50:41.999Z</time></trkpt><trkpt lat="42.49631473652726" lon="11.375952797984585"><ele>46.0</ele><time>2026-04-12T16:50:42.999Z</time></trkpt><trkpt lat="42.49624930733246" lon="11.375859434091565"><ele>46.0</ele><time>2026-04-12T16:50:43.999Z</time></trkpt><trkpt lat="42.49618793465709" lon="11.375754990224042"><ele>46.0</ele><time>2026-04-12T16:50:44.999Z</time></trkpt><trkpt lat="42.49612398570217" lon="11.375634519319343"><ele>46.0</ele><time>2026-04-12T16:50:45.999Z</time></trkpt><trkpt lat="42.496087628007565" lon="11.375493639621878"><ele>45.8</ele><time>2026-04-12T16:50:46.999Z</time></trkpt><trkpt lat="42.49602872965143" lon="11.375375744170453"><ele>45.599999999999994</ele><time>2026-04-12T16:50:47.999Z</time></trkpt><trkpt lat="42.49599762557779" lon="11.37524132710729"><ele>45.4</ele><time>2026-04-12T16:50:48.999Z</time></trkpt><trkpt lat="42.49599003807944" lon="11.375089556464614"><ele>45.2</ele><time>2026-04-12T16:50:49.999Z</time></trkpt><trkpt lat="42.495976779757314" lon="11.374931344559277"><ele>45.0</ele><time>2026-04-12T16:50:50.999Z</time></trkpt><trkpt lat="42.49595081151416" lon="11.374766045840877"><ele>44.75</ele><time>2026-04-12T16:50:51.999Z</time></trkpt><trkpt lat="42.49594346796467" lon="11.37458755458197"><ele>44.5</ele><time>2026-04-12T16:50:52.999Z</time></trkpt><trkpt lat="42.49595243363736" lon="11.374406177622575"><ele>44.25</ele><time>2026-04-12T16:50:53.999Z</time></trkpt><trkpt lat="42.49592104206763" lon="11.374233603171055"><ele>44.0</ele><time>2026-04-12T16:50:54.999Z</time></trkpt><trkpt lat="42.49589230082788" lon="11.374065573569634"><ele>44.0</ele><time>2026-04-12T16:50:55.999Z</time></trkpt><trkpt lat="42.49585466345685" lon="11.373888485074195"><ele>44.0</ele><time>2026-04-12T16:50:56.999Z</time></trkpt><trkpt lat="42.4957958285204" lon="11.373716141420005"><ele>44.0</ele><time>2026-04-12T16:50:57.999Z</time></trkpt><trkpt lat="42.49574441596692" lon="11.373540981155733"><ele>44.0</ele><time>2026-04-12T16:50:58.999Z</time></trkpt><trkpt lat="42.49570544610412" lon="11.373350691031717"><ele>44.33333333333333</ele><time>2026-04-12T16:50:59.999Z</time></trkpt><trkpt lat="42.49565799027585" lon="11.373158149182938"><ele>44.666666666666664</ele><time>2026-04-12T16:51:00.999Z</time></trkpt><trkpt lat="42.49559681771241" lon="11.37297088981841"><ele>45.0</ele><time>2026-04-12T16:51:01.999Z</time></trkpt><trkpt lat="42.495553841729496" lon="11.372772043804744"><ele>45.25</ele><time>2026-04-12T16:51:02.999Z</time></trkpt><trkpt lat="42.495514453719125" lon="11.37257157486222"><ele>45.5</ele><time>2026-04-12T16:51:03.999Z</time></trkpt><trkpt lat="42.495482498233265" lon="11.372393453865199"><ele>45.75</ele><time>2026-04-12T16:51:04.999Z</time></trkpt><trkpt lat="42.49544115729421" lon="11.37221760100122"><ele>46.0</ele><time>2026-04-12T16:51:05.999Z</time></trkpt><trkpt lat="42.49538193231675" lon="11.372045039472143"><ele>44.75</ele><time>2026-04-12T16:51:06.999Z</time></trkpt><trkpt lat="42.49530827811211" lon="11.371873727224777"><ele>43.5</ele><time>2026-04-12T16:51:07.999Z</time></trkpt><trkpt lat="42.49523455101571" lon="11.371708459642972"><ele>42.25</ele><time>2026-04-12T16:51:08.999Z</time></trkpt><trkpt lat="42.49515828903721" lon="11.371532050635771"><ele>41.0</ele><time>2026-04-12T16:51:09.999Z</time></trkpt><trkpt lat="42.495080978666806" lon="11.371354332351942"><ele>41.0</ele><time>2026-04-12T16:51:10.999Z</time></trkpt><trkpt lat="42.495006034945284" lon="11.37117416246842"><ele>41.0</ele><time>2026-04-12T16:51:11.999Z</time></trkpt><trkpt lat="42.49492678655601" lon="11.370990732523712"><ele>41.0</ele><time>2026-04-12T16:51:12.999Z</time></trkpt><trkpt lat="42.49484443889306" lon="11.370807431651846"><ele>41.0</ele><time>2026-04-12T16:51:13.999Z</time></trkpt><trkpt lat="42.49476350640936" lon="11.370619656412975"><ele>41.0</ele><time>2026-04-12T16:51:14.999Z</time></trkpt><trkpt lat="42.49469366776668" lon="11.370432354935575"><ele>41.0</ele><time>2026-04-12T16:51:15.999Z</time></trkpt><trkpt lat="42.49462225606231" lon="11.370238122998407"><ele>39.33333333333333</ele><time>2026-04-12T16:51:16.999Z</time></trkpt><trkpt lat="42.49454908399885" lon="11.370044066808008"><ele>37.666666666666664</ele><time>2026-04-12T16:51:17.999Z</time></trkpt><trkpt lat="42.49448584804367" lon="11.369854898367214"><ele>36.0</ele><time>2026-04-12T16:51:18.999Z</time></trkpt><trkpt lat="42.49441663804364" lon="11.3696633635887"><ele>36.0</ele><time>2026-04-12T16:51:19.999Z</time></trkpt><trkpt lat="42.494346220848776" lon="11.369482621401529"><ele>36.0</ele><time>2026-04-12T16:51:20.999Z</time></trkpt><trkpt lat="42.49427839081614" lon="11.369304682037605"><ele>36.0</ele><time>2026-04-12T16:51:21.999Z</time></trkpt><trkpt lat="42.49420960315349" lon="11.369128025641034"><ele>36.0</ele><time>2026-04-12T16:51:22.999Z</time></trkpt><trkpt lat="42.49414012187614" lon="11.368956971202898"><ele>36.5</ele><time>2026-04-12T16:51:23.999Z</time></trkpt><trkpt lat="42.49407470682697" lon="11.368786749705949"><ele>37.0</ele><time>2026-04-12T16:51:24.999Z</time></trkpt><trkpt lat="42.49402304493068" lon="11.368635756174111"><ele>37.5</ele><time>2026-04-12T16:51:25.999Z</time></trkpt><trkpt lat="42.49397975985499" lon="11.368470445537843"><ele>38.0</ele><time>2026-04-12T16:51:26.999Z</time></trkpt><trkpt lat="42.493967262254195" lon="11.368288568328941"><ele>38.0</ele><time>2026-04-12T16:51:27.999Z</time></trkpt><trkpt lat="42.493928200802465" lon="11.368109171741134"><ele>38.0</ele><time>2026-04-12T16:51:28.999Z</time></trkpt><trkpt lat="42.493906519773624" lon="11.367921874523825"><ele>38.0</ele><time>2026-04-12T16:51:29.999Z</time></trkpt><trkpt lat="42.49387053059918" lon="11.367729675601145"><ele>38.0</ele><time>2026-04-12T16:51:30.999Z</time></trkpt><trkpt lat="42.49383739324128" lon="11.367545564412204"><ele>38.5</ele><time>2026-04-12T16:51:31.999Z</time></trkpt><trkpt lat="42.4937940301762" lon="11.367355639721712"><ele>39.0</ele><time>2026-04-12T16:51:32.999Z</time></trkpt><trkpt lat="42.49374891400299" lon="11.367170009416844"><ele>39.5</ele><time>2026-04-12T16:51:33.999Z</time></trkpt><trkpt lat="42.49370318095162" lon="11.366977260432824"><ele>40.0</ele><time>2026-04-12T16:51:34.999Z</time></trkpt><trkpt lat="42.493657586525536" lon="11.366783305204198"><ele>39.0</ele><time>2026-04-12T16:51:35.999Z</time></trkpt><trkpt lat="42.49361330058918" lon="11.366578721403172"><ele>38.0</ele><time>2026-04-12T16:51:36.999Z</time></trkpt><trkpt lat="42.4935789019601" lon="11.366397807854149"><ele>37.0</ele><time>2026-04-12T16:51:37.999Z</time></trkpt><trkpt lat="42.493539179524156" lon="11.366208134045005"><ele>36.0</ele><time>2026-04-12T16:51:38.999Z</time></trkpt><trkpt lat="42.49349485579785" lon="11.366041045071618"><ele>36.0</ele><time>2026-04-12T16:51:39.999Z</time></trkpt><trkpt lat="42.49343568104801" lon="11.365879750788606"><ele>36.0</ele><time>2026-04-12T16:51:40.999Z</time></trkpt><trkpt lat="42.493364141119365" lon="11.365720704608053"><ele>36.0</ele><time>2026-04-12T16:51:41.999Z</time></trkpt><trkpt lat="42.49328664183923" lon="11.365586306443218"><ele>36.0</ele><time>2026-04-12T16:51:42.999Z</time></trkpt><trkpt lat="42.49321515056211" lon="11.365470278681997"><ele>36.25</ele><time>2026-04-12T16:51:43.999Z</time></trkpt><trkpt lat="42.49315831823794" lon="11.365345542218371"><ele>36.5</ele><time>2026-04-12T16:51:44.999Z</time></trkpt><trkpt lat="42.493112573920996" lon="11.365197118967671"><ele>36.75</ele><time>2026-04-12T16:51:45.999Z</time></trkpt><trkpt lat="42.49307793533269" lon="11.365051777469526"><ele>37.0</ele><time>2026-04-12T16:51:46.999Z</time></trkpt><trkpt lat="42.49306913029432" lon="11.36488829123683"><ele>37.0</ele><time>2026-04-12T16:51:47.999Z</time></trkpt><trkpt lat="42.4930492737065" lon="11.364727649779084"><ele>37.0</ele><time>2026-04-12T16:51:48.999Z</time></trkpt><trkpt lat="42.493038876857504" lon="11.364559724476564"><ele>37.0</ele><time>2026-04-12T16:51:49.999Z</time></trkpt><trkpt lat="42.49302823765243" lon="11.364413255862411"><ele>37.0</ele><time>2026-04-12T16:51:50.999Z</time></trkpt><trkpt lat="42.492990392445854" lon="11.364277640325337"><ele>37.0</ele><time>2026-04-12T16:51:51.999Z</time></trkpt><trkpt lat="42.49294148024101" lon="11.364132260365139"><ele>37.0</ele><time>2026-04-12T16:51:52.999Z</time></trkpt><trkpt lat="42.492883013784535" lon="11.363981297106326"><ele>37.0</ele><time>2026-04-12T16:51:53.999Z</time></trkpt><trkpt lat="42.49282410161843" lon="11.363827499308888"><ele>37.0</ele><time>2026-04-12T16:51:54.999Z</time></trkpt><trkpt lat="42.492783745528165" lon="11.36368179846246"><ele>35.4</ele><time>2026-04-12T16:51:55.999Z</time></trkpt><trkpt lat="42.492734522015375" lon="11.363550706869576"><ele>33.800000000000004</ele><time>2026-04-12T16:51:56.999Z</time></trkpt><trkpt lat="42.492682613591526" lon="11.363424753010078"><ele>32.2</ele><time>2026-04-12T16:51:57.999Z</time></trkpt><trkpt lat="42.4926418484158" lon="11.363293182880396"><ele>30.6</ele><time>2026-04-12T16:51:58.999Z</time></trkpt><trkpt lat="42.492610785913016" lon="11.363148643971176"><ele>29.0</ele><time>2026-04-12T16:51:59.999Z</time></trkpt><trkpt lat="42.492586282461396" lon="11.363023469282254"><ele>28.2</ele><time>2026-04-12T16:52:00.999Z</time></trkpt><trkpt lat="42.492554017250626" lon="11.362884186659896"><ele>27.4</ele><time>2026-04-12T16:52:01.999Z</time></trkpt><trkpt lat="42.492530564291854" lon="11.36275805202331"><ele>26.6</ele><time>2026-04-12T16:52:02.999Z</time></trkpt><trkpt lat="42.492526079336" lon="11.36262611018336"><ele>25.8</ele><time>2026-04-12T16:52:03.999Z</time></trkpt><trkpt lat="42.4925045682544" lon="11.362512759651281"><ele>25.0</ele><time>2026-04-12T16:52:04.999Z</time></trkpt><trkpt lat="42.49244558305386" lon="11.362405135108562"><ele>25.0</ele><time>2026-04-12T16:52:05.999Z</time></trkpt><trkpt lat="42.492364554200314" lon="11.362330828565694"><ele>25.0</ele><time>2026-04-12T16:52:06.999Z</time></trkpt><trkpt lat="42.49231777386509" lon="11.362238646675486"><ele>25.0</ele><time>2026-04-12T16:52:07.999Z</time></trkpt><trkpt lat="42.492294272071746" lon="11.36212647945602"><ele>25.0</ele><time>2026-04-12T16:52:08.999Z</time></trkpt><trkpt lat="42.4923269074112" lon="11.361998118248245"><ele>25.0</ele><time>2026-04-12T16:52:09.998Z</time></trkpt><trkpt lat="42.49234492170352" lon="11.361859545769967"><ele>24.6</ele><time>2026-04-12T16:52:10.998Z</time></trkpt><trkpt lat="42.49235382653122" lon="11.361716910306479"><ele>24.2</ele><time>2026-04-12T16:52:11.998Z</time></trkpt><trkpt lat="42.49237746292676" lon="11.361571333447952"><ele>23.799999999999997</ele><time>2026-04-12T16:52:12.998Z</time></trkpt><trkpt lat="42.49237675277845" lon="11.361424078845204"><ele>23.4</ele><time>2026-04-12T16:52:13.998Z</time></trkpt><trkpt lat="42.49235375750956" lon="11.36126888452788"><ele>23.0</ele><time>2026-04-12T16:52:14.998Z</time></trkpt><trkpt lat="42.49231815722925" lon="11.361110973247802"><ele>22.75</ele><time>2026-04-12T16:52:15.998Z</time></trkpt><trkpt lat="42.49228091897762" lon="11.360950843481378"><ele>22.5</ele><time>2026-04-12T16:52:16.998Z</time></trkpt><trkpt lat="42.49224699449081" lon="11.36078441099014"><ele>22.25</ele><time>2026-04-12T16:52:17.998Z</time></trkpt><trkpt lat="42.492215953178196" lon="11.360620772300695"><ele>22.0</ele><time>2026-04-12T16:52:18.998Z</time></trkpt><trkpt lat="42.49219740187164" lon="11.360448822495625"><ele>22.5</ele><time>2026-04-12T16:52:19.998Z</time></trkpt><trkpt lat="42.49217203497754" lon="11.360286581189529"><ele>23.0</ele><time>2026-04-12T16:52:20.998Z</time></trkpt><trkpt lat="42.49214674728653" lon="11.360120214715073"><ele>23.5</ele><time>2026-04-12T16:52:21.998Z</time></trkpt><trkpt lat="42.492104283922146" lon="11.359950967591411"><ele>24.0</ele><time>2026-04-12T16:52:22.998Z</time></trkpt><trkpt lat="42.49207790030236" lon="11.359778711554203"><ele>24.5</ele><time>2026-04-12T16:52:23.998Z</time></trkpt><trkpt lat="42.492048406930095" lon="11.359605136700646"><ele>25.0</ele><time>2026-04-12T16:52:24.998Z</time></trkpt><trkpt lat="42.49201949042885" lon="11.359436441527981"><ele>25.5</ele><time>2026-04-12T16:52:25.998Z</time></trkpt><trkpt lat="42.492002437752745" lon="11.359248303118948"><ele>26.0</ele><time>2026-04-12T16:52:26.998Z</time></trkpt><trkpt lat="42.491973576727254" lon="11.359071123361458"><ele>26.0</ele><time>2026-04-12T16:52:27.998Z</time></trkpt><trkpt lat="42.49192902859886" lon="11.358889455208367"><ele>26.0</ele><time>2026-04-12T16:52:28.998Z</time></trkpt><trkpt lat="42.49189074173914" lon="11.358697743688666"><ele>26.0</ele><time>2026-04-12T16:52:29.998Z</time></trkpt><trkpt lat="42.49185516302127" lon="11.358524229241691"><ele>26.0</ele><time>2026-04-12T16:52:30.998Z</time></trkpt><trkpt lat="42.49182770395062" lon="11.35833905802829"><ele>25.75</ele><time>2026-04-12T16:52:31.998Z</time></trkpt><trkpt lat="42.49179516345923" lon="11.358152653999625"><ele>25.5</ele><time>2026-04-12T16:52:32.998Z</time></trkpt><trkpt lat="42.491761267650766" lon="11.35798390114784"><ele>25.25</ele><time>2026-04-12T16:52:33.998Z</time></trkpt><trkpt lat="42.49174323264729" lon="11.357830130865407"><ele>25.0</ele><time>2026-04-12T16:52:34.998Z</time></trkpt><trkpt lat="42.491726020656614" lon="11.35768162245043"><ele>24.5</ele><time>2026-04-12T16:52:36Z</time></trkpt><trkpt lat="42.49170381688385" lon="11.357527146372773"><ele>24.0</ele><time>2026-04-12T16:52:37Z</time></trkpt><trkpt lat="42.491670433149054" lon="11.357376232221265"><ele>23.5</ele><time>2026-04-12T16:52:38Z</time></trkpt><trkpt lat="42.4916347272595" lon="11.357217233310312"><ele>23.0</ele><time>2026-04-12T16:52:39Z</time></trkpt><trkpt lat="42.491604699591754" lon="11.357063281685726"><ele>23.0</ele><time>2026-04-12T16:52:40Z</time></trkpt><trkpt lat="42.491576298728646" lon="11.356911826491844"><ele>23.0</ele><time>2026-04-12T16:52:41Z</time></trkpt><trkpt lat="42.49154029605473" lon="11.356778117574596"><ele>23.0</ele><time>2026-04-12T16:52:42Z</time></trkpt><trkpt lat="42.49151411767822" lon="11.356635020761889"><ele>23.0</ele><time>2026-04-12T16:52:43Z</time></trkpt><trkpt lat="42.49148438686667" lon="11.356492358916132"><ele>23.0</ele><time>2026-04-12T16:52:44Z</time></trkpt><trkpt lat="42.4914603861414" lon="11.35633633138824"><ele>23.25</ele><time>2026-04-12T16:52:45Z</time></trkpt><trkpt lat="42.49143191324697" lon="11.35617312883256"><ele>23.5</ele><time>2026-04-12T16:52:46Z</time></trkpt><trkpt lat="42.49142074080537" lon="11.356006474950146"><ele>23.75</ele><time>2026-04-12T16:52:47Z</time></trkpt><trkpt lat="42.491394167879456" lon="11.355844113200304"><ele>24.0</ele><time>2026-04-12T16:52:48Z</time></trkpt><trkpt lat="42.491351053875626" lon="11.355682257302362"><ele>24.0</ele><time>2026-04-12T16:52:49Z</time></trkpt><trkpt lat="42.49132936252096" lon="11.355516401802703"><ele>24.0</ele><time>2026-04-12T16:52:50Z</time></trkpt><trkpt lat="42.49130370939105" lon="11.355358460626737"><ele>24.0</ele><time>2026-04-12T16:52:51Z</time></trkpt><trkpt lat="42.49128098082681" lon="11.355219662762513"><ele>24.0</ele><time>2026-04-12T16:52:52Z</time></trkpt><trkpt lat="42.49126373280519" lon="11.355098755514886"><ele>24.0</ele><time>2026-04-12T16:52:53Z</time></trkpt><trkpt lat="42.49124696123141" lon="11.354973336499944"><ele>24.0</ele><time>2026-04-12T16:52:54Z</time></trkpt><trkpt lat="42.49122104398411" lon="11.35486492544238"><ele>24.0</ele><time>2026-04-12T16:52:55Z</time></trkpt><trkpt lat="42.49120386488386" lon="11.354780628283914"><ele>24.0</ele><time>2026-04-12T16:52:56Z</time></trkpt><trkpt lat="42.4911777631226" lon="11.354640115243388"><ele>24.0</ele><time>2026-04-12T16:52:58Z</time></trkpt><trkpt lat="42.49114882140059" lon="11.354482093920588"><ele>24.0</ele><time>2026-04-12T16:53:00Z</time></trkpt><trkpt lat="42.491123736701766" lon="11.354365020234798"><ele>24.2</ele><time>2026-04-12T16:53:01Z</time></trkpt><trkpt lat="42.49109782149523" lon="11.354233291672335"><ele>24.4</ele><time>2026-04-12T16:53:01.999Z</time></trkpt><trkpt lat="42.491069654454364" lon="11.354105781300833"><ele>24.6</ele><time>2026-04-12T16:53:02.999Z</time></trkpt><trkpt lat="42.491060211233055" lon="11.353963051187984"><ele>24.8</ele><time>2026-04-12T16:53:03.999Z</time></trkpt><trkpt lat="42.491036242116664" lon="11.353811800785289"><ele>25.0</ele><time>2026-04-12T16:53:04.999Z</time></trkpt><trkpt lat="42.490994394086364" lon="11.353656701187395"><ele>25.0</ele><time>2026-04-12T16:53:05.999Z</time></trkpt><trkpt lat="42.49097368223063" lon="11.353503692807308"><ele>25.0</ele><time>2026-04-12T16:53:06.999Z</time></trkpt><trkpt lat="42.49094110834064" lon="11.353354735221215"><ele>25.0</ele><time>2026-04-12T16:53:07.999Z</time></trkpt><trkpt lat="42.4909312853316" lon="11.353199651026046"><ele>25.0</ele><time>2026-04-12T16:53:08.999Z</time></trkpt><trkpt lat="42.49090648556043" lon="11.353035186181682"><ele>25.25</ele><time>2026-04-12T16:53:09.999Z</time></trkpt><trkpt lat="42.49086225180102" lon="11.352882938898455"><ele>25.5</ele><time>2026-04-12T16:53:10.999Z</time></trkpt><trkpt lat="42.49081052377575" lon="11.35272311544487"><ele>25.75</ele><time>2026-04-12T16:53:11.999Z</time></trkpt><trkpt lat="42.49078244341539" lon="11.35256566466882"><ele>26.0</ele><time>2026-04-12T16:53:12.999Z</time></trkpt><trkpt lat="42.49074396231955" lon="11.352422177999737"><ele>26.0</ele><time>2026-04-12T16:53:13.999Z</time></trkpt><trkpt lat="42.49068575214492" lon="11.352301249737856"><ele>26.0</ele><time>2026-04-12T16:53:14.999Z</time></trkpt><trkpt lat="42.490644567366985" lon="11.352176018922973"><ele>26.0</ele><time>2026-04-12T16:53:15.999Z</time></trkpt><trkpt lat="42.4905865282427" lon="11.352047506300178"><ele>26.0</ele><time>2026-04-12T16:53:16.999Z</time></trkpt><trkpt lat="42.49051044534733" lon="11.351923470385755"><ele>26.0</ele><time>2026-04-12T16:53:17.999Z</time></trkpt><trkpt lat="42.490428733004435" lon="11.35182621699807"><ele>26.4</ele><time>2026-04-12T16:53:18.999Z</time></trkpt><trkpt lat="42.49033976762381" lon="11.35171983998384"><ele>26.8</ele><time>2026-04-12T16:53:19.999Z</time></trkpt><trkpt lat="42.49027257625373" lon="11.351590800280078"><ele>27.199999999999996</ele><time>2026-04-12T16:53:20.999Z</time></trkpt><trkpt lat="42.49020169926718" lon="11.35147256343254"><ele>27.599999999999998</ele><time>2026-04-12T16:53:21.999Z</time></trkpt><trkpt lat="42.49012053459701" lon="11.351400137728657"><ele>28.0</ele><time>2026-04-12T16:53:22.999Z</time></trkpt><trkpt lat="42.490065655534195" lon="11.351316790305798"><ele>28.000000000000004</ele><time>2026-04-12T16:53:23.999Z</time></trkpt><trkpt lat="42.490012187882414" lon="11.351218758980783"><ele>28.0</ele><time>2026-04-12T16:53:24.999Z</time></trkpt><trkpt lat="42.48995765408682" lon="11.351119802785897"><ele>28.0</ele><time>2026-04-12T16:53:25.999Z</time></trkpt><trkpt lat="42.48990066473091" lon="11.351022301166857"><ele>28.0</ele><time>2026-04-12T16:53:26.999Z</time></trkpt><trkpt lat="42.489856014189904" lon="11.35093268214091"><ele>28.000000000000004</ele><time>2026-04-12T16:53:27.999Z</time></trkpt><trkpt lat="42.489796391406344" lon="11.35084698276819"><ele>28.0</ele><time>2026-04-12T16:53:28.999Z</time></trkpt><trkpt lat="42.48971310134667" lon="11.350768969293332"><ele>28.0</ele><time>2026-04-12T16:53:29.999Z</time></trkpt><trkpt lat="42.489614050702784" lon="11.350704404059073"><ele>27.999999999999996</ele><time>2026-04-12T16:53:30.999Z</time></trkpt><trkpt lat="42.489513400835854" lon="11.350646027337415"><ele>27.999999999999996</ele><time>2026-04-12T16:53:31.999Z</time></trkpt><trkpt lat="42.48941496996656" lon="11.350586439891567"><ele>28.0</ele><time>2026-04-12T16:53:32.999Z</time></trkpt><trkpt lat="42.48931743903638" lon="11.35052171111013"><ele>28.0</ele><time>2026-04-12T16:53:33.999Z</time></trkpt><trkpt lat="42.489213639152624" lon="11.35045323371898"><ele>28.5</ele><time>2026-04-12T16:53:34.999Z</time></trkpt><trkpt lat="42.48910764405263" lon="11.350381027952114"><ele>29.0</ele><time>2026-04-12T16:53:35.999Z</time></trkpt><trkpt lat="42.48900579025627" lon="11.35030284924583"><ele>29.5</ele><time>2026-04-12T16:53:36.999Z</time></trkpt><trkpt lat="42.488899287554645" lon="11.350230605598782"><ele>30.0</ele><time>2026-04-12T16:53:37.999Z</time></trkpt><trkpt lat="42.48879873411572" lon="11.35013434245998"><ele>30.25</ele><time>2026-04-12T16:53:38.999Z</time></trkpt><trkpt lat="42.488696338418016" lon="11.350053558384754"><ele>30.5</ele><time>2026-04-12T16:53:39.999Z</time></trkpt><trkpt lat="42.488592483154605" lon="11.349965167396917"><ele>30.75</ele><time>2026-04-12T16:53:40.999Z</time></trkpt><trkpt lat="42.488492876361825" lon="11.349877464612817"><ele>31.0</ele><time>2026-04-12T16:53:41.999Z</time></trkpt><trkpt lat="42.48839386998166" lon="11.3498158637"><ele>31.000000000000004</ele><time>2026-04-12T16:53:42.999Z</time></trkpt><trkpt lat="42.488305989235414" lon="11.349710590069412"><ele>31.0</ele><time>2026-04-12T16:53:43.999Z</time></trkpt><trkpt lat="42.48823575862899" lon="11.349638783837937"><ele>31.0</ele><time>2026-04-12T16:53:44.999Z</time></trkpt><trkpt lat="42.48818806559212" lon="11.349562060918235"><ele>31.0</ele><time>2026-04-12T16:53:46.999Z</time></trkpt><trkpt lat="42.48820053805611" lon="11.34947622594884"><ele>31.000000000000004</ele><time>2026-04-12T16:53:48.999Z</time></trkpt><trkpt lat="42.488193900776736" lon="11.349385958435493"><ele>31.0</ele><time>2026-04-12T16:53:49.999Z</time></trkpt><trkpt lat="42.48817176877385" lon="11.349284471282239"><ele>31.500000000000004</ele><time>2026-04-12T16:53:50.999Z</time></trkpt><trkpt lat="42.488149659784604" lon="11.349168467161878"><ele>32.0</ele><time>2026-04-12T16:53:51.999Z</time></trkpt><trkpt lat="42.48810592464901" lon="11.349057793484317"><ele>32.5</ele><time>2026-04-12T16:53:52.999Z</time></trkpt><trkpt lat="42.488049238146345" lon="11.348949185150225"><ele>33.0</ele><time>2026-04-12T16:53:53.999Z</time></trkpt><trkpt lat="42.488010301044774" lon="11.34884952216112"><ele>33.5</ele><time>2026-04-12T16:53:54.999Z</time></trkpt><trkpt lat="42.488004143922936" lon="11.348739313448533"><ele>34.0</ele><time>2026-04-12T16:53:55.999Z</time></trkpt><trkpt lat="42.48797822470468" lon="11.348634086602226"><ele>35.2</ele><time>2026-04-12T16:53:56.999Z</time></trkpt><trkpt lat="42.487990348137934" lon="11.348513209754833"><ele>36.4</ele><time>2026-04-12T16:53:57.999Z</time></trkpt><trkpt lat="42.48798462376971" lon="11.348381962733104"><ele>37.6</ele><time>2026-04-12T16:53:58.999Z</time></trkpt><trkpt lat="42.48799608648998" lon="11.348256066046941"><ele>38.8</ele><time>2026-04-12T16:53:59.999Z</time></trkpt><trkpt lat="42.488003990121896" lon="11.348133347871068"><ele>40.0</ele><time>2026-04-12T16:54:00.999Z</time></trkpt><trkpt lat="42.48801217230954" lon="11.348006304535499"><ele>40.0</ele><time>2026-04-12T16:54:01.999Z</time></trkpt><trkpt lat="42.48802085769729" lon="11.347871448292416"><ele>40.0</ele><time>2026-04-12T16:54:02.999Z</time></trkpt><trkpt lat="42.48788376744585" lon="11.347712032731646"><ele>40.0</ele><time>2026-04-12T16:54:03.999Z</time></trkpt><trkpt lat="42.48789843756463" lon="11.34757149247976"><ele>40.0</ele><time>2026-04-12T16:54:04.999Z</time></trkpt><trkpt lat="42.48790853054341" lon="11.347427748386757"><ele>38.6</ele><time>2026-04-12T16:54:05.999Z</time></trkpt><trkpt lat="42.48790872891934" lon="11.347281244681895"><ele>37.2</ele><time>2026-04-12T16:54:06.999Z</time></trkpt><trkpt lat="42.48790420794839" lon="11.347146829288942"><ele>35.8</ele><time>2026-04-12T16:54:07.999Z</time></trkpt><trkpt lat="42.487879418230804" lon="11.347014847395949"><ele>34.4</ele><time>2026-04-12T16:54:08.999Z</time></trkpt><trkpt lat="42.487843507993496" lon="11.34688880483243"><ele>33.0</ele><time>2026-04-12T16:54:09.999Z</time></trkpt><trkpt lat="42.48782393472942" lon="11.346757426212106"><ele>32.5</ele><time>2026-04-12T16:54:10.999Z</time></trkpt><trkpt lat="42.48781673483547" lon="11.346593743375372"><ele>32.0</ele><time>2026-04-12T16:54:11.999Z</time></trkpt><trkpt lat="42.487830172186165" lon="11.346443638447433"><ele>31.5</ele><time>2026-04-12T16:54:12.999Z</time></trkpt><trkpt lat="42.48785234138659" lon="11.346287539107221"><ele>31.0</ele><time>2026-04-12T16:54:13.998Z</time></trkpt><trkpt lat="42.487871867413745" lon="11.34613264769293"><ele>30.25</ele><time>2026-04-12T16:54:14.998Z</time></trkpt><trkpt lat="42.48788649342678" lon="11.34595978399826"><ele>29.5</ele><time>2026-04-12T16:54:15.998Z</time></trkpt><trkpt lat="42.487891098859585" lon="11.34579349412763"><ele>28.75</ele><time>2026-04-12T16:54:16.998Z</time></trkpt><trkpt lat="42.48788346200427" lon="11.345607595560304"><ele>28.0</ele><time>2026-04-12T16:54:17.998Z</time></trkpt><trkpt lat="42.48786835073701" lon="11.345431132253506"><ele>27.25</ele><time>2026-04-12T16:54:18.998Z</time></trkpt><trkpt lat="42.48785047522212" lon="11.345248196572818"><ele>26.5</ele><time>2026-04-12T16:54:19.998Z</time></trkpt><trkpt lat="42.48783679722488" lon="11.34506494075308"><ele>25.75</ele><time>2026-04-12T16:54:20.998Z</time></trkpt><trkpt lat="42.48783298869938" lon="11.344898626636667"><ele>25.0</ele><time>2026-04-12T16:54:21.998Z</time></trkpt><trkpt lat="42.487842837632726" lon="11.344730563730497"><ele>24.5</ele><time>2026-04-12T16:54:22.998Z</time></trkpt><trkpt lat="42.48786655246187" lon="11.344552692901361"><ele>24.0</ele><time>2026-04-12T16:54:23.998Z</time></trkpt><trkpt lat="42.48789986489486" lon="11.344362215296696"><ele>23.5</ele><time>2026-04-12T16:54:24.998Z</time></trkpt><trkpt lat="42.487932909631574" lon="11.344181717501051"><ele>23.0</ele><time>2026-04-12T16:54:25.998Z</time></trkpt><trkpt lat="42.4879551508606" lon="11.34400711087275"><ele>23.4</ele><time>2026-04-12T16:54:26.998Z</time></trkpt><trkpt lat="42.48797337305443" lon="11.343869890508255"><ele>23.799999999999997</ele><time>2026-04-12T16:54:27.998Z</time></trkpt><trkpt lat="42.488010048302264" lon="11.343729283697717"><ele>24.2</ele><time>2026-04-12T16:54:28.998Z</time></trkpt><trkpt lat="42.488070065122415" lon="11.343626102912078"><ele>24.6</ele><time>2026-04-12T16:54:29.998Z</time></trkpt><trkpt lat="42.4881473772384" lon="11.343520388465844"><ele>25.0</ele><time>2026-04-12T16:54:30.998Z</time></trkpt><trkpt lat="42.48823957113319" lon="11.343412576077018"><ele>25.0</ele><time>2026-04-12T16:54:31.998Z</time></trkpt><trkpt lat="42.48834154656086" lon="11.343290180679046"><ele>25.0</ele><time>2026-04-12T16:54:32.998Z</time></trkpt><trkpt lat="42.48843393490926" lon="11.343175001677892"><ele>25.0</ele><time>2026-04-12T16:54:33.998Z</time></trkpt><trkpt lat="42.488539875084506" lon="11.34304284896328"><ele>25.0</ele><time>2026-04-12T16:54:34.998Z</time></trkpt><trkpt lat="42.48863383948722" lon="11.342928205939803"><ele>24.75</ele><time>2026-04-12T16:54:35.998Z</time></trkpt><trkpt lat="42.48873158909341" lon="11.342803705558325"><ele>24.5</ele><time>2026-04-12T16:54:36.998Z</time></trkpt><trkpt lat="42.48883218787439" lon="11.342668681369142"><ele>24.25</ele><time>2026-04-12T16:54:37.998Z</time></trkpt><trkpt lat="42.48893186237706" lon="11.342547607760933"><ele>24.0</ele><time>2026-04-12T16:54:38.998Z</time></trkpt><trkpt lat="42.48904086909908" lon="11.342414743603925"><ele>24.0</ele><time>2026-04-12T16:54:39.998Z</time></trkpt><trkpt lat="42.48914737041064" lon="11.342294014618231"><ele>24.0</ele><time>2026-04-12T16:54:40.998Z</time></trkpt><trkpt lat="42.48925240831071" lon="11.342166489953915"><ele>24.0</ele><time>2026-04-12T16:54:42Z</time></trkpt><trkpt lat="42.48934170313706" lon="11.342063449831784"><ele>24.0</ele><time>2026-04-12T16:54:43Z</time></trkpt><trkpt lat="42.489439680266365" lon="11.341947780448482"><ele>23.5</ele><time>2026-04-12T16:54:44Z</time></trkpt><trkpt lat="42.48953237728975" lon="11.341813598318781"><ele>23.0</ele><time>2026-04-12T16:54:45Z</time></trkpt><trkpt lat="42.48961550772828" lon="11.341679089023573"><ele>22.5</ele><time>2026-04-12T16:54:46Z</time></trkpt><trkpt lat="42.48970177461579" lon="11.34155579241241"><ele>22.0</ele><time>2026-04-12T16:54:47Z</time></trkpt><trkpt lat="42.48979266433447" lon="11.341450828568426"><ele>21.25</ele><time>2026-04-12T16:54:48Z</time></trkpt><trkpt lat="42.48989668676887" lon="11.34134471997002"><ele>20.5</ele><time>2026-04-12T16:54:49Z</time></trkpt><trkpt lat="42.49000425554522" lon="11.341262182310375"><ele>19.75</ele><time>2026-04-12T16:54:50Z</time></trkpt><trkpt lat="42.49010557961802" lon="11.34120445445464"><ele>19.0</ele><time>2026-04-12T16:54:51Z</time></trkpt><trkpt lat="42.49020072729978" lon="11.341155423177714"><ele>19.0</ele><time>2026-04-12T16:54:52Z</time></trkpt><trkpt lat="42.49029400897871" lon="11.341078383192047"><ele>19.0</ele><time>2026-04-12T16:54:53Z</time></trkpt><trkpt lat="42.49037491178738" lon="11.340962541824627"><ele>19.0</ele><time>2026-04-12T16:54:54Z</time></trkpt><trkpt lat="42.49045442649644" lon="11.34084784955135"><ele>19.0</ele><time>2026-04-12T16:54:55Z</time></trkpt><trkpt lat="42.49055573717028" lon="11.340732287630395"><ele>18.75</ele><time>2026-04-12T16:54:56Z</time></trkpt><trkpt lat="42.4906572583099" lon="11.340617244924768"><ele>18.5</ele><time>2026-04-12T16:54:57Z</time></trkpt><trkpt lat="42.49077454256764" lon="11.340484335808497"><ele>18.25</ele><time>2026-04-12T16:54:58Z</time></trkpt><trkpt lat="42.49087012103974" lon="11.340371011109387"><ele>18.0</ele><time>2026-04-12T16:54:59Z</time></trkpt><trkpt lat="42.49096136315916" lon="11.340259861263874"><ele>18.0</ele><time>2026-04-12T16:55:00Z</time></trkpt><trkpt lat="42.4910332503998" lon="11.340184267035127"><ele>18.0</ele><time>2026-04-12T16:55:01Z</time></trkpt><trkpt lat="42.49109569073907" lon="11.34009369149411"><ele>18.0</ele><time>2026-04-12T16:55:02Z</time></trkpt><trkpt lat="42.49114069160194" lon="11.339999801346892"><ele>18.0</ele><time>2026-04-12T16:55:03Z</time></trkpt><trkpt lat="42.491168874850416" lon="11.339891099715956"><ele>18.0</ele><time>2026-04-12T16:55:04Z</time></trkpt><trkpt lat="42.49118481987072" lon="11.339766116080234"><ele>18.0</ele><time>2026-04-12T16:55:05Z</time></trkpt><trkpt lat="42.49117935942323" lon="11.339626977741355"><ele>18.25</ele><time>2026-04-12T16:55:06Z</time></trkpt><trkpt lat="42.49116978548101" lon="11.339466207610323"><ele>18.5</ele><time>2026-04-12T16:55:07Z</time></trkpt><trkpt lat="42.491157774322325" lon="11.339311523689412"><ele>18.75</ele><time>2026-04-12T16:55:08Z</time></trkpt><trkpt lat="42.49114497375465" lon="11.339148535616317"><ele>19.0</ele><time>2026-04-12T16:55:09Z</time></trkpt><trkpt lat="42.49113433247041" lon="11.338981014143172"><ele>19.5</ele><time>2026-04-12T16:55:10Z</time></trkpt><trkpt lat="42.491116971867996" lon="11.338819341357794"><ele>20.0</ele><time>2026-04-12T16:55:11Z</time></trkpt><trkpt lat="42.49109006741967" lon="11.338646033819039"><ele>20.5</ele><time>2026-04-12T16:55:12Z</time></trkpt><trkpt lat="42.49106677692384" lon="11.338472302319174"><ele>21.0</ele><time>2026-04-12T16:55:13Z</time></trkpt><trkpt lat="42.491039863563564" lon="11.338298395852396"><ele>21.0</ele><time>2026-04-12T16:55:14Z</time></trkpt><trkpt lat="42.49101140569167" lon="11.338115477567632"><ele>21.0</ele><time>2026-04-12T16:55:14.999Z</time></trkpt><trkpt lat="42.49098748208828" lon="11.337936302060372"><ele>21.0</ele><time>2026-04-12T16:55:15.999Z</time></trkpt><trkpt lat="42.490962552504705" lon="11.337749497537645"><ele>21.0</ele><time>2026-04-12T16:55:16.999Z</time></trkpt><trkpt lat="42.49093547494246" lon="11.33755746371861"><ele>21.0</ele><time>2026-04-12T16:55:17.999Z</time></trkpt><trkpt lat="42.49090730452028" lon="11.337350848878474"><ele>21.0</ele><time>2026-04-12T16:55:18.999Z</time></trkpt><trkpt lat="42.490880089266916" lon="11.337153110509236"><ele>21.0</ele><time>2026-04-12T16:55:19.999Z</time></trkpt><trkpt lat="42.490850999481964" lon="11.33695341964248"><ele>20.5</ele><time>2026-04-12T16:55:20.999Z</time></trkpt><trkpt lat="42.490821845146165" lon="11.336757730774876"><ele>20.0</ele><time>2026-04-12T16:55:21.999Z</time></trkpt><trkpt lat="42.49079680855318" lon="11.336579417696765"><ele>19.5</ele><time>2026-04-12T16:55:22.999Z</time></trkpt><trkpt lat="42.49077554065524" lon="11.336409234293734"><ele>19.0</ele><time>2026-04-12T16:55:23.999Z</time></trkpt><trkpt lat="42.490752526442314" lon="11.336261167188544"><ele>19.0</ele><time>2026-04-12T16:55:24.999Z</time></trkpt><trkpt lat="42.490722583689674" lon="11.336095182047984"><ele>19.0</ele><time>2026-04-12T16:55:25.999Z</time></trkpt><trkpt lat="42.49068733298682" lon="11.335937761688948"><ele>19.0</ele><time>2026-04-12T16:55:26.999Z</time></trkpt><trkpt lat="42.490656309456305" lon="11.335783699680107"><ele>19.0</ele><time>2026-04-12T16:55:27.999Z</time></trkpt><trkpt lat="42.4906185821115" lon="11.335616785556358"><ele>18.5</ele><time>2026-04-12T16:55:28.999Z</time></trkpt><trkpt lat="42.49057286119562" lon="11.33547469761633"><ele>18.0</ele><time>2026-04-12T16:55:29.999Z</time></trkpt><trkpt lat="42.490526049439936" lon="11.335287826533014"><ele>17.5</ele><time>2026-04-12T16:55:30.999Z</time></trkpt><trkpt lat="42.490501500545314" lon="11.33510984745091"><ele>17.0</ele><time>2026-04-12T16:55:31.999Z</time></trkpt><trkpt lat="42.4904761848637" lon="11.33491475941579"><ele>17.0</ele><time>2026-04-12T16:55:32.999Z</time></trkpt><trkpt lat="42.49044689559919" lon="11.334726155620679"><ele>17.0</ele><time>2026-04-12T16:55:33.999Z</time></trkpt><trkpt lat="42.490420342567894" lon="11.334532641204172"><ele>17.0</ele><time>2026-04-12T16:55:34.999Z</time></trkpt><trkpt lat="42.49039623200427" lon="11.334329970984522"><ele>17.0</ele><time>2026-04-12T16:55:35.999Z</time></trkpt><trkpt lat="42.490368707839465" lon="11.334122022359319"><ele>18.0</ele><time>2026-04-12T16:55:36.999Z</time></trkpt><trkpt lat="42.49034488468584" lon="11.33393704400242"><ele>19.0</ele><time>2026-04-12T16:55:37.999Z</time></trkpt><trkpt lat="42.49032103093325" lon="11.333735893420931"><ele>20.0</ele><time>2026-04-12T16:55:38.999Z</time></trkpt><trkpt lat="42.490295155304715" lon="11.333536905099601"><ele>21.0</ele><time>2026-04-12T16:55:39.999Z</time></trkpt><trkpt lat="42.49026577564516" lon="11.333328204392794"><ele>21.333333333333332</ele><time>2026-04-12T16:55:40.999Z</time></trkpt><trkpt lat="42.49023368729211" lon="11.333115121259072"><ele>21.666666666666664</ele><time>2026-04-12T16:55:41.999Z</time></trkpt><trkpt lat="42.490199942169205" lon="11.332877372764502"><ele>22.0</ele><time>2026-04-12T16:55:42.999Z</time></trkpt><trkpt lat="42.49017039666453" lon="11.33268765410137"><ele>22.25</ele><time>2026-04-12T16:55:43.999Z</time></trkpt><trkpt lat="42.49014665611494" lon="11.33250000045976"><ele>22.5</ele><time>2026-04-12T16:55:44.999Z</time></trkpt><trkpt lat="42.490128516676066" lon="11.33232903950006"><ele>22.75</ele><time>2026-04-12T16:55:45.999Z</time></trkpt><trkpt lat="42.49011116897035" lon="11.332175402555622"><ele>23.0</ele><time>2026-04-12T16:55:46.999Z</time></trkpt><trkpt lat="42.49008308443014" lon="11.332005984861933"><ele>23.0</ele><time>2026-04-12T16:55:47.999Z</time></trkpt><trkpt lat="42.490057530594385" lon="11.33183982667371"><ele>23.0</ele><time>2026-04-12T16:55:48.999Z</time></trkpt><trkpt lat="42.49003925674647" lon="11.331672311438986"><ele>23.0</ele><time>2026-04-12T16:55:49.999Z</time></trkpt><trkpt lat="42.49002042047766" lon="11.331521370165108"><ele>23.0</ele><time>2026-04-12T16:55:50.999Z</time></trkpt><trkpt lat="42.48999271365315" lon="11.331382135065025"><ele>23.333333333333336</ele><time>2026-04-12T16:55:51.999Z</time></trkpt><trkpt lat="42.48995810457919" lon="11.331238545980927"><ele>23.666666666666668</ele><time>2026-04-12T16:55:52.999Z</time></trkpt><trkpt lat="42.48992997902196" lon="11.331117009400304"><ele>24.0</ele><time>2026-04-12T16:55:53.999Z</time></trkpt><trkpt lat="42.48990314666055" lon="11.331002956284216"><ele>24.333333333333336</ele><time>2026-04-12T16:55:54.999Z</time></trkpt><trkpt lat="42.489894259583544" lon="11.330895824232304"><ele>24.666666666666668</ele><time>2026-04-12T16:55:55.999Z</time></trkpt><trkpt lat="42.48989468817008" lon="11.330809460800387"><ele>25.0</ele><time>2026-04-12T16:55:56.999Z</time></trkpt><trkpt lat="42.48995021899281" lon="11.330664390930801"><ele>25.0</ele><time>2026-04-12T16:55:58.999Z</time></trkpt><trkpt lat="42.490006329060954" lon="11.33062549730038"><ele>25.0</ele><time>2026-04-12T16:55:59.999Z</time></trkpt><trkpt lat="42.49007549780833" lon="11.33052930449806"><ele>25.0</ele><time>2026-04-12T16:56:00.999Z</time></trkpt><trkpt lat="42.49016342582427" lon="11.330490476983403"><ele>25.0</ele><time>2026-04-12T16:56:01.999Z</time></trkpt><trkpt lat="42.49025804611865" lon="11.330448625398011"><ele>25.0</ele><time>2026-04-12T16:56:02.999Z</time></trkpt><trkpt lat="42.49036423746775" lon="11.330401171701254"><ele>24.6</ele><time>2026-04-12T16:56:03.999Z</time></trkpt><trkpt lat="42.490465558980695" lon="11.33035483295203"><ele>24.2</ele><time>2026-04-12T16:56:04.999Z</time></trkpt><trkpt lat="42.49056052654599" lon="11.33031021139415"><ele>23.799999999999997</ele><time>2026-04-12T16:56:05.999Z</time></trkpt><trkpt lat="42.49064644563775" lon="11.330269841493044"><ele>23.4</ele><time>2026-04-12T16:56:06.999Z</time></trkpt><trkpt lat="42.4907287300754" lon="11.330250595453295"><ele>23.0</ele><time>2026-04-12T16:56:07.999Z</time></trkpt><trkpt lat="42.490797870916296" lon="11.330193109193482"><ele>23.0</ele><time>2026-04-12T16:56:08.999Z</time></trkpt><trkpt lat="42.49087496372353" lon="11.330134301044295"><ele>23.0</ele><time>2026-04-12T16:56:09.999Z</time></trkpt><trkpt lat="42.49095484162764" lon="11.3300978282867"><ele>23.0</ele><time>2026-04-12T16:56:10.999Z</time></trkpt><trkpt lat="42.49105525033113" lon="11.33006260151181"><ele>23.0</ele><time>2026-04-12T16:56:11.999Z</time></trkpt><trkpt lat="42.49115430042711" lon="11.33001610630119"><ele>23.0</ele><time>2026-04-12T16:56:12.999Z</time></trkpt><trkpt lat="42.49126078236473" lon="11.32996663032341"><ele>23.25</ele><time>2026-04-12T16:56:13.999Z</time></trkpt><trkpt lat="42.49136568185269" lon="11.32990826098828"><ele>23.5</ele><time>2026-04-12T16:56:14.999Z</time></trkpt><trkpt lat="42.49146835274706" lon="11.329859075414173"><ele>23.75</ele><time>2026-04-12T16:56:15.999Z</time></trkpt><trkpt lat="42.491580427020565" lon="11.32980740030868"><ele>24.0</ele><time>2026-04-12T16:56:16.999Z</time></trkpt><trkpt lat="42.4916922588152" lon="11.329751321773678"><ele>23.5</ele><time>2026-04-12T16:56:17.999Z</time></trkpt><trkpt lat="42.49181314274546" lon="11.329693520120237"><ele>23.0</ele><time>2026-04-12T16:56:18.999Z</time></trkpt><trkpt lat="42.49193294802013" lon="11.329631276449689"><ele>22.5</ele><time>2026-04-12T16:56:19.999Z</time></trkpt><trkpt lat="42.49204103320528" lon="11.329573782072416"><ele>22.0</ele><time>2026-04-12T16:56:20.999Z</time></trkpt><trkpt lat="42.49214012566195" lon="11.329516799904896"><ele>22.0</ele><time>2026-04-12T16:56:21.999Z</time></trkpt><trkpt lat="42.49223952380183" lon="11.32946865368938"><ele>22.0</ele><time>2026-04-12T16:56:22.999Z</time></trkpt><trkpt lat="42.492343306954915" lon="11.329441182741254"><ele>22.0</ele><time>2026-04-12T16:56:23.999Z</time></trkpt><trkpt lat="42.49245830746663" lon="11.329411512118298"><ele>22.0</ele><time>2026-04-12T16:56:24.999Z</time></trkpt><trkpt lat="42.49257910232399" lon="11.32937012052452"><ele>22.0</ele><time>2026-04-12T16:56:25.999Z</time></trkpt><trkpt lat="42.49269059483456" lon="11.329297348955595"><ele>22.0</ele><time>2026-04-12T16:56:26.999Z</time></trkpt><trkpt lat="42.4928117657364" lon="11.329241750903044"><ele>22.0</ele><time>2026-04-12T16:56:27.999Z</time></trkpt><trkpt lat="42.492927050595135" lon="11.32920723216081"><ele>22.0</ele><time>2026-04-12T16:56:28.998Z</time></trkpt><trkpt lat="42.493056917196846" lon="11.329149957276929"><ele>21.5</ele><time>2026-04-12T16:56:29.998Z</time></trkpt><trkpt lat="42.493165407015596" lon="11.329095792090008"><ele>21.0</ele><time>2026-04-12T16:56:30.998Z</time></trkpt><trkpt lat="42.49327796877819" lon="11.329047224495149"><ele>20.5</ele><time>2026-04-12T16:56:31.998Z</time></trkpt><trkpt lat="42.493375124406214" lon="11.3290015470093"><ele>20.0</ele><time>2026-04-12T16:56:32.998Z</time></trkpt><trkpt lat="42.49348236459508" lon="11.328948589208116"><ele>20.0</ele><time>2026-04-12T16:56:33.998Z</time></trkpt><trkpt lat="42.493576494413844" lon="11.328907755129924"><ele>20.0</ele><time>2026-04-12T16:56:34.998Z</time></trkpt><trkpt lat="42.49367640702756" lon="11.328864130167384"><ele>20.0</ele><time>2026-04-12T16:56:35.998Z</time></trkpt><trkpt lat="42.49377096062791" lon="11.32882321951322"><ele>20.0</ele><time>2026-04-12T16:56:36.998Z</time></trkpt><trkpt lat="42.493854923600026" lon="11.328773041277445"><ele>20.0</ele><time>2026-04-12T16:56:37.998Z</time></trkpt><trkpt lat="42.49391471783212" lon="11.328740750411193"><ele>20.166666666666668</ele><time>2026-04-12T16:56:38.998Z</time></trkpt><trkpt lat="42.4939807670635" lon="11.328678512438017"><ele>20.333333333333336</ele><time>2026-04-12T16:56:39.998Z</time></trkpt><trkpt lat="42.49404019527758" lon="11.32863777163046"><ele>20.5</ele><time>2026-04-12T16:56:40.998Z</time></trkpt><trkpt lat="42.494111891681044" lon="11.328607901602757"><ele>20.666666666666668</ele><time>2026-04-12T16:56:41.998Z</time></trkpt><trkpt lat="42.49420056634159" lon="11.328580235488547"><ele>20.833333333333332</ele><time>2026-04-12T16:56:42.998Z</time></trkpt><trkpt lat="42.49429439775592" lon="11.32854954429707"><ele>21.0</ele><time>2026-04-12T16:56:43.998Z</time></trkpt><trkpt lat="42.49439912888248" lon="11.328524771494621"><ele>21.0</ele><time>2026-04-12T16:56:44.998Z</time></trkpt><trkpt lat="42.49448528429413" lon="11.32849571047582"><ele>21.0</ele><time>2026-04-12T16:56:45.998Z</time></trkpt><trkpt lat="42.494571199653684" lon="11.328480680001277"><ele>21.0</ele><time>2026-04-12T16:56:46.998Z</time></trkpt><trkpt lat="42.49465813272316" lon="11.328465825552074"><ele>21.0</ele><time>2026-04-12T16:56:48Z</time></trkpt><trkpt lat="42.49473549106254" lon="11.328448012827383"><ele>21.0</ele><time>2026-04-12T16:56:49Z</time></trkpt><trkpt lat="42.494812516286956" lon="11.328423432465522"><ele>21.0</ele><time>2026-04-12T16:56:50Z</time></trkpt><trkpt lat="42.49487673350127" lon="11.328399652205633"><ele>20.166666666666668</ele><time>2026-04-12T16:56:51Z</time></trkpt><trkpt lat="42.494960137562764" lon="11.328386248577077"><ele>19.333333333333332</ele><time>2026-04-12T16:56:52Z</time></trkpt><trkpt lat="42.49503006576143" lon="11.32836687079662"><ele>18.5</ele><time>2026-04-12T16:56:53Z</time></trkpt><trkpt lat="42.4951105083285" lon="11.32834457937926"><ele>17.666666666666664</ele><time>2026-04-12T16:56:54Z</time></trkpt><trkpt lat="42.4951779441639" lon="11.328306929804048"><ele>16.833333333333332</ele><time>2026-04-12T16:56:55Z</time></trkpt><trkpt lat="42.49525849225933" lon="11.328303571616823"><ele>16.0</ele><time>2026-04-12T16:56:56Z</time></trkpt><trkpt lat="42.49535185104199" lon="11.32827770095974"><ele>16.166666666666664</ele><time>2026-04-12T16:56:57Z</time></trkpt><trkpt lat="42.49543457988644" lon="11.3282547760188"><ele>16.333333333333332</ele><time>2026-04-12T16:56:58Z</time></trkpt><trkpt lat="42.49551411100108" lon="11.328232737167363"><ele>16.5</ele><time>2026-04-12T16:56:59Z</time></trkpt><trkpt lat="42.495583763453084" lon="11.328191460753866"><ele>16.666666666666668</ele><time>2026-04-12T16:57:00Z</time></trkpt><trkpt lat="42.49565123217484" lon="11.328193687028039"><ele>16.833333333333336</ele><time>2026-04-12T16:57:01Z</time></trkpt><trkpt lat="42.49572263581791" lon="11.328185495627105"><ele>17.0</ele><time>2026-04-12T16:57:02Z</time></trkpt><trkpt lat="42.49581412142825" lon="11.328166404079896"><ele>17.0</ele><time>2026-04-12T16:57:03Z</time></trkpt><trkpt lat="42.49591211283535" lon="11.32813930808846"><ele>17.0</ele><time>2026-04-12T16:57:04Z</time></trkpt><trkpt lat="42.49600057104464" lon="11.328110363589069"><ele>17.0</ele><time>2026-04-12T16:57:05Z</time></trkpt><trkpt lat="42.49607865681362" lon="11.32808125604342"><ele>17.0</ele><time>2026-04-12T16:57:06Z</time></trkpt><trkpt lat="42.49615456062373" lon="11.328064286391651"><ele>17.0</ele><time>2026-04-12T16:57:07Z</time></trkpt><trkpt lat="42.49623102542194" lon="11.328046296359425"><ele>17.0</ele><time>2026-04-12T16:57:08Z</time></trkpt><trkpt lat="42.49631233206503" lon="11.32802409107257"><ele>16.833333333333336</ele><time>2026-04-12T16:57:09Z</time></trkpt><trkpt lat="42.496393526594495" lon="11.32800282007792"><ele>16.666666666666668</ele><time>2026-04-12T16:57:10Z</time></trkpt><trkpt lat="42.49647488649282" lon="11.327983711875877"><ele>16.5</ele><time>2026-04-12T16:57:11Z</time></trkpt><trkpt lat="42.496547522318814" lon="11.327964903001961"><ele>16.333333333333332</ele><time>2026-04-12T16:57:12Z</time></trkpt><trkpt lat="42.49663036657431" lon="11.327944801942587"><ele>16.166666666666664</ele><time>2026-04-12T16:57:13Z</time></trkpt><trkpt lat="42.49670516905523" lon="11.327926938244937"><ele>16.0</ele><time>2026-04-12T16:57:14Z</time></trkpt><trkpt lat="42.49676889085081" lon="11.327899287566707"><ele>15.999999999999998</ele><time>2026-04-12T16:57:15Z</time></trkpt><trkpt lat="42.496832340612166" lon="11.327880854743483"><ele>16.0</ele><time>2026-04-12T16:57:16Z</time></trkpt><trkpt lat="42.49697261354587" lon="11.327855481734975"><ele>16.0</ele><time>2026-04-12T16:57:18Z</time></trkpt><trkpt lat="42.497056044699555" lon="11.327836056126266"><ele>16.0</ele><time>2026-04-12T16:57:18.999Z</time></trkpt><trkpt lat="42.4971313605649" lon="11.32781462466886"><ele>15.999999999999998</ele><time>2026-04-12T16:57:19.999Z</time></trkpt><trkpt lat="42.497191981851614" lon="11.327781054996475"><ele>16.0</ele><time>2026-04-12T16:57:20.999Z</time></trkpt><trkpt lat="42.4972608253521" lon="11.327783397543676"><ele>16.0</ele><time>2026-04-12T16:57:21.999Z</time></trkpt><trkpt lat="42.49734805616486" lon="11.327740709510413"><ele>16.0</ele><time>2026-04-12T16:57:22.999Z</time></trkpt><trkpt lat="42.49743294156713" lon="11.327723574492769"><ele>16.0</ele><time>2026-04-12T16:57:23.999Z</time></trkpt><trkpt lat="42.49752385587638" lon="11.32770281767977"><ele>16.0</ele><time>2026-04-12T16:57:24.999Z</time></trkpt><trkpt lat="42.497618584670796" lon="11.327680155131834"><ele>16.0</ele><time>2026-04-12T16:57:25.999Z</time></trkpt><trkpt lat="42.497705741678686" lon="11.327655935207769"><ele>15.999999999999998</ele><time>2026-04-12T16:57:26.999Z</time></trkpt><trkpt lat="42.497792170659544" lon="11.32763417492164"><ele>16.0</ele><time>2026-04-12T16:57:27.999Z</time></trkpt><trkpt lat="42.497876265416515" lon="11.327615910204086"><ele>16.0</ele><time>2026-04-12T16:57:28.999Z</time></trkpt><trkpt lat="42.49796019546667" lon="11.327601836538394"><ele>16.0</ele><time>2026-04-12T16:57:29.999Z</time></trkpt><trkpt lat="42.498032284954434" lon="11.327598253705322"><ele>15.999999999999998</ele><time>2026-04-12T16:57:30.999Z</time></trkpt><trkpt lat="42.4981187682076" lon="11.32758570382468"><ele>16.0</ele><time>2026-04-12T16:57:31.999Z</time></trkpt><trkpt lat="42.498197643837464" lon="11.327549396482693"><ele>16.2</ele><time>2026-04-12T16:57:32.999Z</time></trkpt><trkpt lat="42.498334811365126" lon="11.327505432232602"><ele>16.400000000000002</ele><time>2026-04-12T16:57:34.999Z</time></trkpt><trkpt lat="42.49841256585208" lon="11.327481054091184"><ele>16.6</ele><time>2026-04-12T16:57:35.999Z</time></trkpt><trkpt lat="42.49849861506405" lon="11.327454075348108"><ele>16.8</ele><time>2026-04-12T16:57:36.999Z</time></trkpt><trkpt lat="42.49858910842704" lon="11.327428697673463"><ele>17.0</ele><time>2026-04-12T16:57:37.999Z</time></trkpt><trkpt lat="42.49868905962462" lon="11.32740146408291"><ele>16.8</ele><time>2026-04-12T16:57:38.999Z</time></trkpt><trkpt lat="42.49878069533582" lon="11.32737924774953"><ele>16.6</ele><time>2026-04-12T16:57:39.999Z</time></trkpt><trkpt lat="42.49887379597176" lon="11.32735667625081"><ele>16.400000000000002</ele><time>2026-04-12T16:57:40.999Z</time></trkpt><trkpt lat="42.49897089997712" lon="11.327333134127803"><ele>16.2</ele><time>2026-04-12T16:57:41.999Z</time></trkpt><trkpt lat="42.49906333468205" lon="11.327310724172394"><ele>16.0</ele><time>2026-04-12T16:57:42.999Z</time></trkpt><trkpt lat="42.49916552134573" lon="11.327285951560839"><ele>16.0</ele><time>2026-04-12T16:57:43.999Z</time></trkpt><trkpt lat="42.49926230814409" lon="11.327262486379711"><ele>16.0</ele><time>2026-04-12T16:57:44.999Z</time></trkpt><trkpt lat="42.49935421109066" lon="11.327240205292156"><ele>16.0</ele><time>2026-04-12T16:57:45.999Z</time></trkpt><trkpt lat="42.499446344697496" lon="11.327217164494472"><ele>16.0</ele><time>2026-04-12T16:57:46.999Z</time></trkpt><trkpt lat="42.499538874962155" lon="11.327193932827859"><ele>16.0</ele><time>2026-04-12T16:57:47.999Z</time></trkpt><trkpt lat="42.49963529963737" lon="11.327147469074871"><ele>15.0</ele><time>2026-04-12T16:57:48.999Z</time></trkpt><trkpt lat="42.49972773236275" lon="11.327134459280767"><ele>14.000000000000002</ele><time>2026-04-12T16:57:49.999Z</time></trkpt><trkpt lat="42.49980868405796" lon="11.327117292940644"><ele>13.0</ele><time>2026-04-12T16:57:50.999Z</time></trkpt><trkpt lat="42.4998972204905" lon="11.327099775231092"><ele>12.0</ele><time>2026-04-12T16:57:51.999Z</time></trkpt><trkpt lat="42.49999768172975" lon="11.32707099298033"><ele>11.0</ele><time>2026-04-12T16:57:52.999Z</time></trkpt><trkpt lat="42.50009669659587" lon="11.327050233712624"><ele>11.0</ele><time>2026-04-12T16:57:53.999Z</time></trkpt><trkpt lat="42.50020671333352" lon="11.327024975753037"><ele>11.0</ele><time>2026-04-12T16:57:54.999Z</time></trkpt><trkpt lat="42.500319176718726" lon="11.327002043700109"><ele>11.0</ele><time>2026-04-12T16:57:55.999Z</time></trkpt><trkpt lat="42.50041601253735" lon="11.326975074685567"><ele>11.0</ele><time>2026-04-12T16:57:56.999Z</time></trkpt><trkpt lat="42.50051148311526" lon="11.326949486701627"><ele>11.0</ele><time>2026-04-12T16:57:57.999Z</time></trkpt><trkpt lat="42.50060079478528" lon="11.326923673992763"><ele>11.333333333333332</ele><time>2026-04-12T16:57:58.999Z</time></trkpt><trkpt lat="42.50069071669515" lon="11.326898962355898"><ele>11.666666666666666</ele><time>2026-04-12T16:57:59.999Z</time></trkpt><trkpt lat="42.50077139954433" lon="11.326878483097987"><ele>12.0</ele><time>2026-04-12T16:58:00.999Z</time></trkpt><trkpt lat="42.500852030548614" lon="11.326857189898467"><ele>12.333333333333332</ele><time>2026-04-12T16:58:01.999Z</time></trkpt><trkpt lat="42.5009351899631" lon="11.326834624727287"><ele>12.666666666666666</ele><time>2026-04-12T16:58:02.999Z</time></trkpt><trkpt lat="42.50102072457266" lon="11.326811570933534"><ele>13.0</ele><time>2026-04-12T16:58:03.999Z</time></trkpt><trkpt lat="42.50109633770752" lon="11.326797170747389"><ele>12.999999999999998</ele><time>2026-04-12T16:58:04.999Z</time></trkpt><trkpt lat="42.50121921223785" lon="11.326763730906535"><ele>13.0</ele><time>2026-04-12T16:58:06.999Z</time></trkpt><trkpt lat="42.50128220194389" lon="11.326731167362496"><ele>13.0</ele><time>2026-04-12T16:58:07.999Z</time></trkpt><trkpt lat="42.50135197246584" lon="11.326676894969737"><ele>13.0</ele><time>2026-04-12T16:58:08.999Z</time></trkpt><trkpt lat="42.50141078502831" lon="11.326592995526706"><ele>12.999999999999998</ele><time>2026-04-12T16:58:09.999Z</time></trkpt><trkpt lat="42.50146306457757" lon="11.3264958847921"><ele>13.0</ele><time>2026-04-12T16:58:10.999Z</time></trkpt><trkpt lat="42.50152329580383" lon="11.326395836517136"><ele>13.0</ele><time>2026-04-12T16:58:11.999Z</time></trkpt><trkpt lat="42.50159239809522" lon="11.326283352606502"><ele>13.0</ele><time>2026-04-12T16:58:12.999Z</time></trkpt><trkpt lat="42.50166052910433" lon="11.326171263818138"><ele>13.0</ele><time>2026-04-12T16:58:13.999Z</time></trkpt><trkpt lat="42.50173140176681" lon="11.326065358249263"><ele>13.0</ele><time>2026-04-12T16:58:14.999Z</time></trkpt><trkpt lat="42.50181208295051" lon="11.325940749501115"><ele>13.0</ele><time>2026-04-12T16:58:15.999Z</time></trkpt><trkpt lat="42.5018814664717" lon="11.325834200464897"><ele>13.0</ele><time>2026-04-12T16:58:16.999Z</time></trkpt><trkpt lat="42.50196223197498" lon="11.325728866746166"><ele>13.0</ele><time>2026-04-12T16:58:17.999Z</time></trkpt><trkpt lat="42.50204377411737" lon="11.325628957316143"><ele>13.0</ele><time>2026-04-12T16:58:18.999Z</time></trkpt><trkpt lat="42.50211182119414" lon="11.325542926997525"><ele>13.0</ele><time>2026-04-12T16:58:19.999Z</time></trkpt><trkpt lat="42.5021746344302" lon="11.325449440017469"><ele>13.0</ele><time>2026-04-12T16:58:20.999Z</time></trkpt><trkpt lat="42.502233205195374" lon="11.325341270985152"><ele>12.600000000000001</ele><time>2026-04-12T16:58:21.999Z</time></trkpt><trkpt lat="42.50230034358013" lon="11.325233904287234"><ele>12.200000000000001</ele><time>2026-04-12T16:58:22.999Z</time></trkpt><trkpt lat="42.50237803474734" lon="11.325143283112924"><ele>11.8</ele><time>2026-04-12T16:58:23.999Z</time></trkpt><trkpt lat="42.50246649135462" lon="11.325060883503093"><ele>11.4</ele><time>2026-04-12T16:58:24.999Z</time></trkpt><trkpt lat="42.5025549102263" lon="11.324980719576676"><ele>11.0</ele><time>2026-04-12T16:58:25.999Z</time></trkpt><trkpt lat="42.50265394270857" lon="11.324888979497702"><ele>11.0</ele><time>2026-04-12T16:58:26.999Z</time></trkpt><trkpt lat="42.50274445729112" lon="11.324809322900645"><ele>11.0</ele><time>2026-04-12T16:58:27.999Z</time></trkpt><trkpt lat="42.502821307709965" lon="11.32473065420944"><ele>11.0</ele><time>2026-04-12T16:58:28.998Z</time></trkpt><trkpt lat="42.50289256179409" lon="11.324659292738147"><ele>11.0</ele><time>2026-04-12T16:58:29.998Z</time></trkpt><trkpt lat="42.50295217196799" lon="11.324603240472278"><ele>11.0</ele><time>2026-04-12T16:58:30.998Z</time></trkpt><trkpt lat="42.503016756915386" lon="11.324552105066955"><ele>11.0</ele><time>2026-04-12T16:58:31.998Z</time></trkpt><trkpt lat="42.5030517444008" lon="11.324472076669302"><ele>11.0</ele><time>2026-04-12T16:58:32.998Z</time></trkpt><trkpt lat="42.50308450893285" lon="11.324390568311381"><ele>11.0</ele><time>2026-04-12T16:58:33.998Z</time></trkpt><trkpt lat="42.503127549431255" lon="11.324260553679743"><ele>11.0</ele><time>2026-04-12T16:58:35.998Z</time></trkpt><trkpt lat="42.503154259937006" lon="11.324155932133001"><ele>11.0</ele><time>2026-04-12T16:58:37.998Z</time></trkpt><trkpt lat="42.50323878520546" lon="11.324115930139817"><ele>11.0</ele><time>2026-04-12T16:58:40.998Z</time></trkpt><trkpt lat="42.503296883290574" lon="11.324170602139889"><ele>11.0</ele><time>2026-04-12T16:58:42.998Z</time></trkpt><trkpt lat="42.50336983698829" lon="11.32425489713129"><ele>11.0</ele><time>2026-04-12T16:58:45.998Z</time></trkpt><trkpt lat="42.503443560557905" lon="11.324312129039795"><ele>11.0</ele><time>2026-04-12T16:58:47.998Z</time></trkpt><trkpt lat="42.503550516222965" lon="11.324274364817978"><ele>11.0</ele><time>2026-04-12T16:58:49.998Z</time></trkpt><trkpt lat="42.5035990418581" lon="11.324209514875259"><ele>11.0</ele><time>2026-04-12T16:58:50.998Z</time></trkpt><trkpt lat="42.503662113572894" lon="11.324141865346348"><ele>11.0</ele><time>2026-04-12T16:58:51.998Z</time></trkpt><trkpt lat="42.5037216356424" lon="11.324071499269957"><ele>11.0</ele><time>2026-04-12T16:58:53Z</time></trkpt><trkpt lat="42.50379081216564" lon="11.32401079417207"><ele>11.200000000000001</ele><time>2026-04-12T16:58:54Z</time></trkpt><trkpt lat="42.50387336727226" lon="11.323953846858105"><ele>11.4</ele><time>2026-04-12T16:58:55Z</time></trkpt><trkpt lat="42.50396215188391" lon="11.323955679114118"><ele>11.6</ele><time>2026-04-12T16:58:56Z</time></trkpt><trkpt lat="42.50405246212711" lon="11.323926887509257"><ele>11.8</ele><time>2026-04-12T16:58:57Z</time></trkpt><trkpt lat="42.504164002356546" lon="11.323925525259074"><ele>12.0</ele><time>2026-04-12T16:58:58Z</time></trkpt><trkpt lat="42.50427962688862" lon="11.323920338626532"><ele>12.0</ele><time>2026-04-12T16:58:59Z</time></trkpt><trkpt lat="42.504396091816155" lon="11.323911886678918"><ele>12.0</ele><time>2026-04-12T16:59:00Z</time></trkpt><trkpt lat="42.5045002054976" lon="11.323902886347847"><ele>12.0</ele><time>2026-04-12T16:59:01Z</time></trkpt><trkpt lat="42.504603895105795" lon="11.323917393814172"><ele>12.0</ele><time>2026-04-12T16:59:02Z</time></trkpt><trkpt lat="42.504700923411235" lon="11.323886681803897"><ele>12.0</ele><time>2026-04-12T16:59:03Z</time></trkpt><trkpt lat="42.50479562592411" lon="11.323865343451017"><ele>12.0</ele><time>2026-04-12T16:59:04Z</time></trkpt><trkpt lat="42.50489085076944" lon="11.323827473399566"><ele>12.0</ele><time>2026-04-12T16:59:05Z</time></trkpt><trkpt lat="42.50497391815229" lon="11.323764260806396"><ele>12.0</ele><time>2026-04-12T16:59:06Z</time></trkpt><trkpt lat="42.50505930720363" lon="11.323682544489243"><ele>12.0</ele><time>2026-04-12T16:59:07Z</time></trkpt><trkpt lat="42.505148108472206" lon="11.323596292419454"><ele>12.0</ele><time>2026-04-12T16:59:08Z</time></trkpt><trkpt lat="42.50523939229734" lon="11.323508560581102"><ele>12.0</ele><time>2026-04-12T16:59:09Z</time></trkpt><trkpt lat="42.50532958285351" lon="11.323423986418408"><ele>12.0</ele><time>2026-04-12T16:59:10Z</time></trkpt><trkpt lat="42.50542604398072" lon="11.323318436268249"><ele>12.0</ele><time>2026-04-12T16:59:11Z</time></trkpt><trkpt lat="42.50551363964822" lon="11.32323332735095"><ele>12.0</ele><time>2026-04-12T16:59:12Z</time></trkpt><trkpt lat="42.5056073649845" lon="11.323126152721997"><ele>11.5</ele><time>2026-04-12T16:59:13Z</time></trkpt><trkpt lat="42.5057006294399" lon="11.323021341223216"><ele>11.0</ele><time>2026-04-12T16:59:14Z</time></trkpt><trkpt lat="42.505812880343086" lon="11.322936858836666"><ele>10.5</ele><time>2026-04-12T16:59:15Z</time></trkpt><trkpt lat="42.50593061577778" lon="11.322833565328173"><ele>10.0</ele><time>2026-04-12T16:59:16Z</time></trkpt><trkpt lat="42.50604427431881" lon="11.322731758551111"><ele>10.0</ele><time>2026-04-12T16:59:17Z</time></trkpt><trkpt lat="42.50615311340979" lon="11.3226232837593"><ele>10.0</ele><time>2026-04-12T16:59:18Z</time></trkpt><trkpt lat="42.506226903389425" lon="11.322518105279077"><ele>10.0</ele><time>2026-04-12T16:59:19Z</time></trkpt><trkpt lat="42.50632256902718" lon="11.322422406530427"><ele>10.0</ele><time>2026-04-12T16:59:20Z</time></trkpt><trkpt lat="42.50640671678355" lon="11.322326463564643"><ele>10.2</ele><time>2026-04-12T16:59:21Z</time></trkpt><trkpt lat="42.50648968291539" lon="11.322218066080843"><ele>10.4</ele><time>2026-04-12T16:59:22Z</time></trkpt><trkpt lat="42.506568399708925" lon="11.322105756480758"><ele>10.600000000000001</ele><time>2026-04-12T16:59:22.999Z</time></trkpt><trkpt lat="42.50664564644088" lon="11.322002361025273"><ele>10.8</ele><time>2026-04-12T16:59:23.999Z</time></trkpt><trkpt lat="42.506711216881705" lon="11.321907406159765"><ele>11.0</ele><time>2026-04-12T16:59:24.999Z</time></trkpt><trkpt lat="42.506783394602344" lon="11.321807297685554"><ele>11.0</ele><time>2026-04-12T16:59:25.999Z</time></trkpt><trkpt lat="42.506849883960754" lon="11.32170011509675"><ele>11.0</ele><time>2026-04-12T16:59:26.999Z</time></trkpt><trkpt lat="42.506913208508706" lon="11.321590509064155"><ele>11.0</ele><time>2026-04-12T16:59:27.999Z</time></trkpt><trkpt lat="42.50697080328401" lon="11.321461898901514"><ele>11.0</ele><time>2026-04-12T16:59:28.999Z</time></trkpt><trkpt lat="42.50703052357788" lon="11.321325166030395"><ele>11.0</ele><time>2026-04-12T16:59:29.999Z</time></trkpt><trkpt lat="42.50709664658049" lon="11.321179930544316"><ele>11.200000000000001</ele><time>2026-04-12T16:59:30.999Z</time></trkpt><trkpt lat="42.507159408896435" lon="11.321041852900391"><ele>11.4</ele><time>2026-04-12T16:59:31.999Z</time></trkpt><trkpt lat="42.507216018753354" lon="11.320917478418144"><ele>11.6</ele><time>2026-04-12T16:59:32.999Z</time></trkpt><trkpt lat="42.50727586001715" lon="11.320803529209519"><ele>11.8</ele><time>2026-04-12T16:59:33.999Z</time></trkpt><trkpt lat="42.50734965463057" lon="11.32069042869422"><ele>12.0</ele><time>2026-04-12T16:59:34.999Z</time></trkpt><trkpt lat="42.507437420084905" lon="11.320594441749533"><ele>11.75</ele><time>2026-04-12T16:59:35.999Z</time></trkpt><trkpt lat="42.5075487150416" lon="11.320515241837965"><ele>11.5</ele><time>2026-04-12T16:59:36.999Z</time></trkpt><trkpt lat="42.507644811573854" lon="11.320396673595322"><ele>11.25</ele><time>2026-04-12T16:59:37.999Z</time></trkpt><trkpt lat="42.507754185094036" lon="11.320295122988211"><ele>11.0</ele><time>2026-04-12T16:59:38.999Z</time></trkpt><trkpt lat="42.507859358437855" lon="11.320184348071185"><ele>11.0</ele><time>2026-04-12T16:59:39.999Z</time></trkpt><trkpt lat="42.50796572896106" lon="11.320069053176175"><ele>11.0</ele><time>2026-04-12T16:59:40.999Z</time></trkpt><trkpt lat="42.5080824676269" lon="11.319951642740417"><ele>11.0</ele><time>2026-04-12T16:59:41.999Z</time></trkpt><trkpt lat="42.508201962493615" lon="11.319832545753027"><ele>11.0</ele><time>2026-04-12T16:59:42.999Z</time></trkpt><trkpt lat="42.508330050115575" lon="11.319702120910094"><ele>11.0</ele><time>2026-04-12T16:59:43.999Z</time></trkpt><trkpt lat="42.508469234721865" lon="11.31955990908686"><ele>11.0</ele><time>2026-04-12T16:59:44.999Z</time></trkpt><trkpt lat="42.50862083753186" lon="11.319406454830581"><ele>11.0</ele><time>2026-04-12T16:59:45.999Z</time></trkpt><trkpt lat="42.50877584989974" lon="11.319246923173193"><ele>11.0</ele><time>2026-04-12T16:59:46.999Z</time></trkpt><trkpt lat="42.50892275214184" lon="11.319095566851601"><ele>11.0</ele><time>2026-04-12T16:59:47.999Z</time></trkpt><trkpt lat="42.50906092254887" lon="11.318953073891624"><ele>11.0</ele><time>2026-04-12T16:59:48.999Z</time></trkpt><trkpt lat="42.50919684098149" lon="11.318813508441911"><ele>10.666666666666666</ele><time>2026-04-12T16:59:49.999Z</time></trkpt><trkpt lat="42.50933194675524" lon="11.318660469586932"><ele>10.333333333333334</ele><time>2026-04-12T16:59:50.999Z</time></trkpt><trkpt lat="42.50946668477526" lon="11.318482946422215"><ele>10.0</ele><time>2026-04-12T16:59:51.999Z</time></trkpt><trkpt lat="42.50959695732684" lon="11.31828364450608"><ele>9.666666666666668</ele><time>2026-04-12T16:59:52.999Z</time></trkpt><trkpt lat="42.50972404675067" lon="11.318072432137203"><ele>9.333333333333334</ele><time>2026-04-12T16:59:53.999Z</time></trkpt><trkpt lat="42.509842421370536" lon="11.317873775344246"><ele>9.0</ele><time>2026-04-12T16:59:54.999Z</time></trkpt><trkpt lat="42.50994895871658" lon="11.317696947011134"><ele>9.0</ele><time>2026-04-12T16:59:55.999Z</time></trkpt><trkpt lat="42.510052066955744" lon="11.317522785613392"><ele>9.0</ele><time>2026-04-12T16:59:56.999Z</time></trkpt><trkpt lat="42.51015026609383" lon="11.317361302995613"><ele>9.0</ele><time>2026-04-12T16:59:57.999Z</time></trkpt><trkpt lat="42.51024952587643" lon="11.317197823548094"><ele>9.666666666666666</ele><time>2026-04-12T16:59:58.999Z</time></trkpt><trkpt lat="42.510356158739285" lon="11.317036093652776"><ele>10.333333333333332</ele><time>2026-04-12T16:59:59.999Z</time></trkpt><trkpt lat="42.51046539543806" lon="11.316859331970544"><ele>11.0</ele><time>2026-04-12T17:00:00.999Z</time></trkpt><trkpt lat="42.51057248658518" lon="11.316680774071417"><ele>11.0</ele><time>2026-04-12T17:00:01.999Z</time></trkpt><trkpt lat="42.51067749423279" lon="11.316486484023605"><ele>11.0</ele><time>2026-04-12T17:00:02.999Z</time></trkpt><trkpt lat="42.51077414923179" lon="11.316269858234834"><ele>11.0</ele><time>2026-04-12T17:00:03.999Z</time></trkpt><trkpt lat="42.51085533344897" lon="11.316032211881495"><ele>11.0</ele><time>2026-04-12T17:00:04.999Z</time></trkpt><trkpt lat="42.51093603914866" lon="11.31579074082482"><ele>11.0</ele><time>2026-04-12T17:00:05.999Z</time></trkpt><trkpt lat="42.51102738472882" lon="11.315543540970294"><ele>11.0</ele><time>2026-04-12T17:00:06.999Z</time></trkpt><trkpt lat="42.51111598720838" lon="11.315297802883006"><ele>11.0</ele><time>2026-04-12T17:00:07.999Z</time></trkpt><trkpt lat="42.5112047920292" lon="11.315055342158736"><ele>11.0</ele><time>2026-04-12T17:00:08.999Z</time></trkpt><trkpt lat="42.511281968044145" lon="11.314832068522474"><ele>11.0</ele><time>2026-04-12T17:00:09.999Z</time></trkpt><trkpt lat="42.51136219303395" lon="11.314626946060397"><ele>11.0</ele><time>2026-04-12T17:00:10.999Z</time></trkpt><trkpt lat="42.511436771086665" lon="11.314437725882806"><ele>11.0</ele><time>2026-04-12T17:00:11.999Z</time></trkpt><trkpt lat="42.5115086474842" lon="11.314246735986885"><ele>11.0</ele><time>2026-04-12T17:00:12.999Z</time></trkpt><trkpt lat="42.511571206237235" lon="11.31407366262556"><ele>10.666666666666666</ele><time>2026-04-12T17:00:13.999Z</time></trkpt><trkpt lat="42.5116340075093" lon="11.313888424986768"><ele>10.333333333333334</ele><time>2026-04-12T17:00:14.999Z</time></trkpt><trkpt lat="42.511685728251194" lon="11.313692144183003"><ele>10.0</ele><time>2026-04-12T17:00:15.999Z</time></trkpt><trkpt lat="42.51173060089555" lon="11.313480703101527"><ele>10.0</ele><time>2026-04-12T17:00:16.999Z</time></trkpt><trkpt lat="42.51177591450737" lon="11.313256950761051"><ele>10.0</ele><time>2026-04-12T17:00:17.999Z</time></trkpt><trkpt lat="42.511818584658116" lon="11.31302276539543"><ele>10.0</ele><time>2026-04-12T17:00:18.999Z</time></trkpt><trkpt lat="42.51186650029691" lon="11.312774342645932"><ele>10.333333333333334</ele><time>2026-04-12T17:00:19.999Z</time></trkpt><trkpt lat="42.51191289485842" lon="11.312518199541008"><ele>10.666666666666666</ele><time>2026-04-12T17:00:20.999Z</time></trkpt><trkpt lat="42.51196270740048" lon="11.312260032196374"><ele>11.0</ele><time>2026-04-12T17:00:21.999Z</time></trkpt><trkpt lat="42.51201141459841" lon="11.31199404216241"><ele>11.0</ele><time>2026-04-12T17:00:22.999Z</time></trkpt><trkpt lat="42.51206025513602" lon="11.311731176758386"><ele>11.0</ele><time>2026-04-12T17:00:23.999Z</time></trkpt><trkpt lat="42.51211170126603" lon="11.311453140851794"><ele>11.0</ele><time>2026-04-12T17:00:24.999Z</time></trkpt><trkpt lat="42.512158775041655" lon="11.311189911216452"><ele>9.666666666666666</ele><time>2026-04-12T17:00:25.999Z</time></trkpt><trkpt lat="42.51220564598684" lon="11.310941309851454"><ele>8.333333333333334</ele><time>2026-04-12T17:00:26.999Z</time></trkpt><trkpt lat="42.51224804414402" lon="11.310706353988882"><ele>7.0</ele><time>2026-04-12T17:00:27.999Z</time></trkpt><trkpt lat="42.51229105589026" lon="11.310485513495369"><ele>7.0</ele><time>2026-04-12T17:00:28.999Z</time></trkpt><trkpt lat="42.51233745959446" lon="11.310264930405038"><ele>7.0</ele><time>2026-04-12T17:00:29.999Z</time></trkpt><trkpt lat="42.51239898814733" lon="11.310072610176485"><ele>7.0</ele><time>2026-04-12T17:00:30.999Z</time></trkpt><trkpt lat="42.5124769484121" lon="11.309898658778307"><ele>7.0</ele><time>2026-04-12T17:00:31.999Z</time></trkpt><trkpt lat="42.51257858475598" lon="11.309743027519247"><ele>7.0</ele><time>2026-04-12T17:00:32.998Z</time></trkpt><trkpt lat="42.51268941573601" lon="11.309586917665841"><ele>7.0</ele><time>2026-04-12T17:00:33.998Z</time></trkpt><trkpt lat="42.51280674883237" lon="11.30941803126295"><ele>7.333333333333334</ele><time>2026-04-12T17:00:34.998Z</time></trkpt><trkpt lat="42.512925441366136" lon="11.309243903153332"><ele>7.666666666666666</ele><time>2026-04-12T17:00:35.998Z</time></trkpt><trkpt lat="42.51304582835337" lon="11.309064540582915"><ele>8.0</ele><time>2026-04-12T17:00:36.998Z</time></trkpt><trkpt lat="42.513163487424656" lon="11.308886717707672"><ele>8.0</ele><time>2026-04-12T17:00:37.998Z</time></trkpt><trkpt lat="42.513283854852865" lon="11.308707530543346"><ele>8.0</ele><time>2026-04-12T17:00:38.998Z</time></trkpt><trkpt lat="42.5134039600186" lon="11.308523073000954"><ele>8.0</ele><time>2026-04-12T17:00:39.998Z</time></trkpt><trkpt lat="42.513527204512854" lon="11.308346873993647"><ele>8.0</ele><time>2026-04-12T17:00:40.998Z</time></trkpt><trkpt lat="42.513654327197614" lon="11.308152259587873"><ele>8.0</ele><time>2026-04-12T17:00:41.998Z</time></trkpt><trkpt lat="42.513785196042036" lon="11.307953823934854"><ele>8.0</ele><time>2026-04-12T17:00:42.998Z</time></trkpt><trkpt lat="42.513925091242484" lon="11.30774940123053"><ele>8.0</ele><time>2026-04-12T17:00:43.998Z</time></trkpt><trkpt lat="42.51406611452802" lon="11.307533149808288"><ele>8.0</ele><time>2026-04-12T17:00:44.998Z</time></trkpt><trkpt lat="42.51421131639762" lon="11.307318747198222"><ele>8.0</ele><time>2026-04-12T17:00:45.998Z</time></trkpt><trkpt lat="42.514359862070755" lon="11.307100781693736"><ele>8.0</ele><time>2026-04-12T17:00:46.998Z</time></trkpt><trkpt lat="42.51450913363685" lon="11.30687921353859"><ele>8.0</ele><time>2026-04-12T17:00:47.998Z</time></trkpt><trkpt lat="42.514654562356405" lon="11.306653649737681"><ele>8.0</ele><time>2026-04-12T17:00:48.998Z</time></trkpt><trkpt lat="42.51480409056524" lon="11.306440724423116"><ele>8.333333333333332</ele><time>2026-04-12T17:00:49.998Z</time></trkpt><trkpt lat="42.51495611412757" lon="11.306232231144692"><ele>8.666666666666666</ele><time>2026-04-12T17:00:50.998Z</time></trkpt><trkpt lat="42.51510691436938" lon="11.306026093291912"><ele>9.0</ele><time>2026-04-12T17:00:51.998Z</time></trkpt><trkpt lat="42.51525603870458" lon="11.305830032572203"><ele>10.0</ele><time>2026-04-12T17:00:52.998Z</time></trkpt><trkpt lat="42.51540784283939" lon="11.30561890655622"><ele>11.0</ele><time>2026-04-12T17:00:53.998Z</time></trkpt><trkpt lat="42.51555581448197" lon="11.305417362866002"><ele>12.0</ele><time>2026-04-12T17:00:54.998Z</time></trkpt><trkpt lat="42.51570476761444" lon="11.305219546549205"><ele>12.333333333333332</ele><time>2026-04-12T17:00:55.998Z</time></trkpt><trkpt lat="42.515854902131984" lon="11.305020572166415"><ele>12.666666666666666</ele><time>2026-04-12T17:00:56.998Z</time></trkpt><trkpt lat="42.51600082021889" lon="11.30481545419221"><ele>13.0</ele><time>2026-04-12T17:00:57.998Z</time></trkpt><trkpt lat="42.51614195686055" lon="11.304605254575536"><ele>14.333333333333332</ele><time>2026-04-12T17:00:59Z</time></trkpt><trkpt lat="42.51628404366958" lon="11.304391169686673"><ele>15.666666666666668</ele><time>2026-04-12T17:01:00Z</time></trkpt><trkpt lat="42.5164245255562" lon="11.304176359335912"><ele>17.0</ele><time>2026-04-12T17:01:01Z</time></trkpt><trkpt lat="42.516561401825236" lon="11.303961291605342"><ele>17.0</ele><time>2026-04-12T17:01:02Z</time></trkpt><trkpt lat="42.51669390486967" lon="11.303749642464066"><ele>17.0</ele><time>2026-04-12T17:01:03Z</time></trkpt><trkpt lat="42.51683416351299" lon="11.303533243197267"><ele>17.0</ele><time>2026-04-12T17:01:04Z</time></trkpt><trkpt lat="42.51697413648754" lon="11.303320660285664"><ele>16.333333333333336</ele><time>2026-04-12T17:01:05Z</time></trkpt><trkpt lat="42.51711298094164" lon="11.303102564328155"><ele>15.666666666666668</ele><time>2026-04-12T17:01:06Z</time></trkpt><trkpt lat="42.517250578276226" lon="11.302885374209785"><ele>15.0</ele><time>2026-04-12T17:01:07Z</time></trkpt><trkpt lat="42.51739067482733" lon="11.302667149012771"><ele>15.0</ele><time>2026-04-12T17:01:08Z</time></trkpt><trkpt lat="42.5175302844117" lon="11.30244827267892"><ele>15.0</ele><time>2026-04-12T17:01:09Z</time></trkpt><trkpt lat="42.51767119096205" lon="11.302224003827831"><ele>15.0</ele><time>2026-04-12T17:01:10Z</time></trkpt><trkpt lat="42.51781037854973" lon="11.302001614585198"><ele>15.666666666666668</ele><time>2026-04-12T17:01:11Z</time></trkpt><trkpt lat="42.517949439787955" lon="11.301776507058882"><ele>16.333333333333336</ele><time>2026-04-12T17:01:12Z</time></trkpt><trkpt lat="42.518090232941994" lon="11.301556213285787"><ele>17.0</ele><time>2026-04-12T17:01:13Z</time></trkpt><trkpt lat="42.51823535693612" lon="11.301333833257106"><ele>17.333333333333336</ele><time>2026-04-12T17:01:14Z</time></trkpt><trkpt lat="42.518379714118055" lon="11.301119976189398"><ele>17.666666666666668</ele><time>2026-04-12T17:01:15Z</time></trkpt><trkpt lat="42.518527992167385" lon="11.300913436319107"><ele>18.0</ele><time>2026-04-12T17:01:16Z</time></trkpt><trkpt lat="42.51867538364537" lon="11.300716161225623"><ele>17.666666666666668</ele><time>2026-04-12T17:01:17Z</time></trkpt><trkpt lat="42.51882550404966" lon="11.300522669512622"><ele>17.333333333333336</ele><time>2026-04-12T17:01:18Z</time></trkpt><trkpt lat="42.518973717593326" lon="11.300341730759333"><ele>17.0</ele><time>2026-04-12T17:01:19Z</time></trkpt><trkpt lat="42.51913223496279" lon="11.300167335018685"><ele>17.0</ele><time>2026-04-12T17:01:20Z</time></trkpt><trkpt lat="42.519288487157034" lon="11.300003001680093"><ele>17.0</ele><time>2026-04-12T17:01:21Z</time></trkpt><trkpt lat="42.51945618038834" lon="11.299833710025345"><ele>17.0</ele><time>2026-04-12T17:01:22Z</time></trkpt><trkpt lat="42.51962380285465" lon="11.299662806521104"><ele>17.0</ele><time>2026-04-12T17:01:23Z</time></trkpt><trkpt lat="42.51979613463028" lon="11.299486753913518"><ele>17.0</ele><time>2026-04-12T17:01:24Z</time></trkpt><trkpt lat="42.51996719797186" lon="11.299311647963368"><ele>17.0</ele><time>2026-04-12T17:01:25Z</time></trkpt><trkpt lat="42.520138902351235" lon="11.299140148703891"><ele>17.0</ele><time>2026-04-12T17:01:26Z</time></trkpt><trkpt lat="42.520314622285625" lon="11.298963103463391"><ele>17.0</ele><time>2026-04-12T17:01:27Z</time></trkpt><trkpt lat="42.520482363014565" lon="11.29879376338009"><ele>17.0</ele><time>2026-04-12T17:01:28Z</time></trkpt><trkpt lat="42.52064753539756" lon="11.298617390831826"><ele>16.333333333333336</ele><time>2026-04-12T17:01:28.999Z</time></trkpt><trkpt lat="42.52080498756468" lon="11.298464901676255"><ele>15.666666666666668</ele><time>2026-04-12T17:01:29.999Z</time></trkpt><trkpt lat="42.520959240421284" lon="11.298327420489798"><ele>15.0</ele><time>2026-04-12T17:01:30.999Z</time></trkpt><trkpt lat="42.52110151893846" lon="11.298176963722707"><ele>15.666666666666668</ele><time>2026-04-12T17:01:31.999Z</time></trkpt><trkpt lat="42.52123964782893" lon="11.298009656828505"><ele>16.333333333333336</ele><time>2026-04-12T17:01:32.999Z</time></trkpt><trkpt lat="42.52136338386486" lon="11.297841510024773"><ele>17.0</ele><time>2026-04-12T17:01:33.999Z</time></trkpt><trkpt lat="42.521483634636915" lon="11.297652216040863"><ele>17.0</ele><time>2026-04-12T17:01:34.999Z</time></trkpt><trkpt lat="42.521597748386725" lon="11.297455352504329"><ele>17.0</ele><time>2026-04-12T17:01:35.999Z</time></trkpt><trkpt lat="42.52171679755721" lon="11.297251547158831"><ele>17.0</ele><time>2026-04-12T17:01:36.999Z</time></trkpt><trkpt lat="42.52184421915866" lon="11.297044006017554"><ele>17.0</ele><time>2026-04-12T17:01:37.999Z</time></trkpt><trkpt lat="42.52197251071154" lon="11.296829970249986"><ele>17.0</ele><time>2026-04-12T17:01:38.999Z</time></trkpt><trkpt lat="42.52209867885783" lon="11.296614398916454"><ele>17.0</ele><time>2026-04-12T17:01:39.999Z</time></trkpt><trkpt lat="42.52222959669873" lon="11.29639734413968"><ele>17.333333333333336</ele><time>2026-04-12T17:01:40.999Z</time></trkpt><trkpt lat="42.522357712097296" lon="11.296186027070377"><ele>17.666666666666668</ele><time>2026-04-12T17:01:41.999Z</time></trkpt><trkpt lat="42.52248090335693" lon="11.295979811841391"><ele>18.0</ele><time>2026-04-12T17:01:42.999Z</time></trkpt><trkpt lat="42.522592926510754" lon="11.295796191359976"><ele>18.0</ele><time>2026-04-12T17:01:43.999Z</time></trkpt><trkpt lat="42.522698511141535" lon="11.295617770561025"><ele>18.0</ele><time>2026-04-12T17:01:44.999Z</time></trkpt><trkpt lat="42.522807324568255" lon="11.2954542895797"><ele>18.0</ele><time>2026-04-12T17:01:45.999Z</time></trkpt><trkpt lat="42.52292549547301" lon="11.295289350763301"><ele>17.666666666666668</ele><time>2026-04-12T17:01:46.999Z</time></trkpt><trkpt lat="42.5230569711072" lon="11.295139147626045"><ele>17.333333333333336</ele><time>2026-04-12T17:01:47.999Z</time></trkpt><trkpt lat="42.523201558557815" lon="11.295019665485356"><ele>17.0</ele><time>2026-04-12T17:01:48.999Z</time></trkpt><trkpt lat="42.52336603558757" lon="11.294908742432407"><ele>17.0</ele><time>2026-04-12T17:01:49.999Z</time></trkpt><trkpt lat="42.52353003136169" lon="11.29480062532761"><ele>17.0</ele><time>2026-04-12T17:01:50.999Z</time></trkpt><trkpt lat="42.523687871535294" lon="11.294691506711104"><ele>17.0</ele><time>2026-04-12T17:01:51.999Z</time></trkpt><trkpt lat="42.523829000285964" lon="11.294588465023965"><ele>17.0</ele><time>2026-04-12T17:01:52.999Z</time></trkpt><trkpt lat="42.523952730701716" lon="11.29449586666336"><ele>17.0</ele><time>2026-04-12T17:01:53.999Z</time></trkpt><trkpt lat="42.524067580311545" lon="11.294418006936693"><ele>17.0</ele><time>2026-04-12T17:01:54.999Z</time></trkpt><trkpt lat="42.524174686201064" lon="11.294346629471967"><ele>17.0</ele><time>2026-04-12T17:01:55.999Z</time></trkpt><trkpt lat="42.52427195183745" lon="11.294279577478662"><ele>17.0</ele><time>2026-04-12T17:01:56.999Z</time></trkpt><trkpt lat="42.524351138192806" lon="11.294229328248996"><ele>17.0</ele><time>2026-04-12T17:01:57.999Z</time></trkpt><trkpt lat="42.52441372662661" lon="11.294187945610918"><ele>17.0</ele><time>2026-04-12T17:01:58.999Z</time></trkpt><trkpt lat="42.52448471690583" lon="11.294142971384016"><ele>17.0</ele><time>2026-04-12T17:02:00.999Z</time></trkpt><trkpt lat="42.52450717518556" lon="11.293998597339504"><ele>17.0</ele><time>2026-04-12T17:02:06.999Z</time></trkpt><trkpt lat="42.52448106043196" lon="11.293895893264983"><ele>17.0</ele><time>2026-04-12T17:02:07.999Z</time></trkpt><trkpt lat="42.52444821017713" lon="11.293767825298403"><ele>17.0</ele><time>2026-04-12T17:02:08.999Z</time></trkpt><trkpt lat="42.52441145444136" lon="11.293625583295027"><ele>17.0</ele><time>2026-04-12T17:02:09.999Z</time></trkpt><trkpt lat="42.52437057058384" lon="11.293460594928698"><ele>17.0</ele><time>2026-04-12T17:02:10.999Z</time></trkpt><trkpt lat="42.52432619633435" lon="11.293270485389062"><ele>17.0</ele><time>2026-04-12T17:02:11.999Z</time></trkpt><trkpt lat="42.52427107706814" lon="11.293057381507095"><ele>17.0</ele><time>2026-04-12T17:02:12.999Z</time></trkpt><trkpt lat="42.52421843989485" lon="11.292836017393908"><ele>17.0</ele><time>2026-04-12T17:02:13.999Z</time></trkpt><trkpt lat="42.52415796528463" lon="11.292600694413107"><ele>17.0</ele><time>2026-04-12T17:02:14.999Z</time></trkpt><trkpt lat="42.52409472482591" lon="11.292349930308147"><ele>16.666666666666668</ele><time>2026-04-12T17:02:15.999Z</time></trkpt><trkpt lat="42.52403450190781" lon="11.292088802622423"><ele>16.333333333333332</ele><time>2026-04-12T17:02:16.999Z</time></trkpt><trkpt lat="42.52396425317833" lon="11.291833721234841"><ele>16.0</ele><time>2026-04-12T17:02:17.999Z</time></trkpt><trkpt lat="42.523898021123706" lon="11.291575429257238"><ele>16.0</ele><time>2026-04-12T17:02:18.999Z</time></trkpt><trkpt lat="42.523834179882215" lon="11.291289670984515"><ele>16.0</ele><time>2026-04-12T17:02:19.999Z</time></trkpt><trkpt lat="42.52376835312091" lon="11.291002735525867"><ele>16.0</ele><time>2026-04-12T17:02:20.999Z</time></trkpt><trkpt lat="42.523713232452224" lon="11.290719844530644"><ele>15.333333333333332</ele><time>2026-04-12T17:02:21.999Z</time></trkpt><trkpt lat="42.523647978113516" lon="11.290450211700177"><ele>14.666666666666668</ele><time>2026-04-12T17:02:22.999Z</time></trkpt><trkpt lat="42.52357774462901" lon="11.290199624365346"><ele>14.0</ele><time>2026-04-12T17:02:23.999Z</time></trkpt><trkpt lat="42.523515330125974" lon="11.289917187118604"><ele>13.333333333333334</ele><time>2026-04-12T17:02:24.999Z</time></trkpt><trkpt lat="42.523444414246136" lon="11.289640100874061"><ele>12.666666666666668</ele><time>2026-04-12T17:02:25.999Z</time></trkpt><trkpt lat="42.52337500378037" lon="11.28935732492051"><ele>12.0</ele><time>2026-04-12T17:02:26.999Z</time></trkpt><trkpt lat="42.52330185334965" lon="11.289062435121647"><ele>12.0</ele><time>2026-04-12T17:02:27.999Z</time></trkpt><trkpt lat="42.52323472495111" lon="11.288772487358045"><ele>12.0</ele><time>2026-04-12T17:02:28.999Z</time></trkpt><trkpt lat="42.523161718636665" lon="11.288474101334804"><ele>12.0</ele><time>2026-04-12T17:02:29.999Z</time></trkpt><trkpt lat="42.52308910234419" lon="11.28818367145199"><ele>12.0</ele><time>2026-04-12T17:02:30.999Z</time></trkpt><trkpt lat="42.5230206906285" lon="11.287904773961603"><ele>12.0</ele><time>2026-04-12T17:02:31.999Z</time></trkpt><trkpt lat="42.522950363440536" lon="11.287626396300926"><ele>11.333333333333334</ele><time>2026-04-12T17:02:32.999Z</time></trkpt><trkpt lat="42.52288479726258" lon="11.287352905306827"><ele>10.666666666666668</ele><time>2026-04-12T17:02:33.999Z</time></trkpt><trkpt lat="42.52281867893947" lon="11.28708018440511"><ele>10.0</ele><time>2026-04-12T17:02:34.999Z</time></trkpt><trkpt lat="42.52275209922187" lon="11.28681068248133"><ele>9.666666666666668</ele><time>2026-04-12T17:02:35.999Z</time></trkpt><trkpt lat="42.52268398856359" lon="11.286540108171717"><ele>9.333333333333334</ele><time>2026-04-12T17:02:36.999Z</time></trkpt><trkpt lat="42.52261726220755" lon="11.286272629400173"><ele>9.0</ele><time>2026-04-12T17:02:37.999Z</time></trkpt><trkpt lat="42.52254907419491" lon="11.285993369013024"><ele>10.0</ele><time>2026-04-12T17:02:38.999Z</time></trkpt><trkpt lat="42.52248156947619" lon="11.285719595529402"><ele>11.0</ele><time>2026-04-12T17:02:39.998Z</time></trkpt><trkpt lat="42.52241549566695" lon="11.28544853499337"><ele>12.0</ele><time>2026-04-12T17:02:40.998Z</time></trkpt><trkpt lat="42.52234684597948" lon="11.285177109980411"><ele>12.0</ele><time>2026-04-12T17:02:41.998Z</time></trkpt><trkpt lat="42.52227852124035" lon="11.284899557691837"><ele>12.0</ele><time>2026-04-12T17:02:42.998Z</time></trkpt><trkpt lat="42.52221267402105" lon="11.284613415128923"><ele>12.0</ele><time>2026-04-12T17:02:43.998Z</time></trkpt><trkpt lat="42.522145280049145" lon="11.284328563021184"><ele>11.333333333333334</ele><time>2026-04-12T17:02:44.998Z</time></trkpt><trkpt lat="42.522075635557876" lon="11.284043110947266"><ele>10.666666666666668</ele><time>2026-04-12T17:02:45.998Z</time></trkpt><trkpt lat="42.52200613640726" lon="11.283759962229656"><ele>10.0</ele><time>2026-04-12T17:02:46.998Z</time></trkpt><trkpt lat="42.52193789582538" lon="11.283483486756149"><ele>10.0</ele><time>2026-04-12T17:02:47.998Z</time></trkpt><trkpt lat="42.52180520892885" lon="11.28294119392499"><ele>10.0</ele><time>2026-04-12T17:02:49.998Z</time></trkpt><trkpt lat="42.52174141067682" lon="11.282670202748445"><ele>10.0</ele><time>2026-04-12T17:02:50.998Z</time></trkpt><trkpt lat="42.52167845871475" lon="11.282401164517678"><ele>10.0</ele><time>2026-04-12T17:02:51.998Z</time></trkpt><trkpt lat="42.52161417488976" lon="11.282138958393043"><ele>10.0</ele><time>2026-04-12T17:02:52.998Z</time></trkpt><trkpt lat="42.52155182159925" lon="11.281893919079971"><ele>9.333333333333334</ele><time>2026-04-12T17:02:53.998Z</time></trkpt><trkpt lat="42.521495316737145" lon="11.281667437304307"><ele>8.666666666666666</ele><time>2026-04-12T17:02:54.998Z</time></trkpt><trkpt lat="42.52144780612778" lon="11.281462675031243"><ele>8.0</ele><time>2026-04-12T17:02:55.998Z</time></trkpt><trkpt lat="42.52140092886618" lon="11.281259871662284"><ele>8.0</ele><time>2026-04-12T17:02:56.998Z</time></trkpt><trkpt lat="42.52135372970214" lon="11.281063893753144"><ele>8.0</ele><time>2026-04-12T17:02:57.998Z</time></trkpt><trkpt lat="42.52130920926905" lon="11.280882694327248"><ele>8.0</ele><time>2026-04-12T17:02:58.998Z</time></trkpt><trkpt lat="42.52127070401613" lon="11.280725539696057"><ele>8.0</ele><time>2026-04-12T17:02:59.998Z</time></trkpt><trkpt lat="42.52123855604674" lon="11.280592274726162"><ele>8.0</ele><time>2026-04-12T17:03:00.998Z</time></trkpt><trkpt lat="42.521218926438145" lon="11.2804762986461"><ele>8.0</ele><time>2026-04-12T17:03:01.998Z</time></trkpt><trkpt lat="42.52122301954318" lon="11.28037648505492"><ele>8.0</ele><time>2026-04-12T17:03:02.998Z</time></trkpt><trkpt lat="42.52123295720181" lon="11.28028910097537"><ele>8.0</ele><time>2026-04-12T17:03:03.998Z</time></trkpt><trkpt lat="42.52122245504264" lon="11.280164790804784"><ele>8.0</ele><time>2026-04-12T17:03:06Z</time></trkpt><trkpt lat="42.521189297180115" lon="11.280064517996305"><ele>8.0</ele><time>2026-04-12T17:03:09Z</time></trkpt></trkseg></trk></gpx>